<?xml version="1.0" encoding="UTF-8"?>
<gpx creator="StravaGPX Android" version="1.1" xmlns="http://www.topografix.com/GPX/1/1" xmlns:xsi="http://www.w3.org/2001/XMLSchema-instance" xsi:schemaLocation="http://www.topografix.com/GPX/1/1 http://www.topografix.com/GPX/1/1/gpx.xsd">
 <metadata>
  <time>2018-09-22T04:02:12Z</time>
 </metadata>
 <trk>
  <name>Эндурость. Аминадав.</name>
  <type>1</type>
  <trkseg>
   <trkpt lat="31.7510970" lon="35.1274990">
    <ele>738.9</ele>
    <time>2018-09-22T04:02:12Z</time>
   </trkpt>
   <trkpt lat="31.7510710" lon="35.1274940">
    <ele>739.1</ele>
    <time>2018-09-22T04:02:13Z</time>
   </trkpt>
   <trkpt lat="31.7511020" lon="35.1275070">
    <ele>739.3</ele>
    <time>2018-09-22T04:02:17Z</time>
   </trkpt>
   <trkpt lat="31.7510820" lon="35.1274850">
    <ele>739.4</ele>
    <time>2018-09-22T04:02:21Z</time>
   </trkpt>
   <trkpt lat="31.7510690" lon="35.1274550">
    <ele>739.5</ele>
    <time>2018-09-22T04:02:30Z</time>
   </trkpt>
   <trkpt lat="31.7510550" lon="35.1274170">
    <ele>739.6</ele>
    <time>2018-09-22T04:12:06Z</time>
   </trkpt>
   <trkpt lat="31.7510500" lon="35.1273790">
    <ele>739.8</ele>
    <time>2018-09-22T04:12:09Z</time>
   </trkpt>
   <trkpt lat="31.7510370" lon="35.1274360">
    <ele>739.9</ele>
    <time>2018-09-22T04:13:31Z</time>
   </trkpt>
   <trkpt lat="31.7510750" lon="35.1274490">
    <ele>740.1</ele>
    <time>2018-09-22T04:14:01Z</time>
   </trkpt>
   <trkpt lat="31.7511190" lon="35.1274140">
    <ele>740.3</ele>
    <time>2018-09-22T04:14:03Z</time>
   </trkpt>
   <trkpt lat="31.7511420" lon="35.1273660">
    <ele>740.5</ele>
    <time>2018-09-22T04:14:05Z</time>
   </trkpt>
   <trkpt lat="31.7511640" lon="35.1273450">
    <ele>740.6</ele>
    <time>2018-09-22T04:14:06Z</time>
   </trkpt>
   <trkpt lat="31.7511910" lon="35.1273530">
    <ele>740.7</ele>
    <time>2018-09-22T04:14:08Z</time>
   </trkpt>
   <trkpt lat="31.7511710" lon="35.1273820">
    <ele>740.5</ele>
    <time>2018-09-22T04:14:12Z</time>
   </trkpt>
   <trkpt lat="31.7511480" lon="35.1273980">
    <ele>740.3</ele>
    <time>2018-09-22T04:14:13Z</time>
   </trkpt>
   <trkpt lat="31.7511300" lon="35.1274400">
    <ele>739.9</ele>
    <time>2018-09-22T04:14:16Z</time>
   </trkpt>
   <trkpt lat="31.7511130" lon="35.1274690">
    <ele>739.6</ele>
    <time>2018-09-22T04:14:18Z</time>
   </trkpt>
   <trkpt lat="31.7511370" lon="35.1274400">
    <ele>739.9</ele>
    <time>2018-09-22T04:14:24Z</time>
   </trkpt>
   <trkpt lat="31.7511750" lon="35.1274180">
    <ele>740.4</ele>
    <time>2018-09-22T04:14:26Z</time>
   </trkpt>
   <trkpt lat="31.7511820" lon="35.1273850">
    <ele>740.6</ele>
    <time>2018-09-22T04:14:28Z</time>
   </trkpt>
   <trkpt lat="31.7512060" lon="35.1273630">
    <ele>740.7</ele>
    <time>2018-09-22T04:14:31Z</time>
   </trkpt>
   <trkpt lat="31.7512500" lon="35.1273470">
    <ele>740.9</ele>
    <time>2018-09-22T04:15:20Z</time>
   </trkpt>
   <trkpt lat="31.7512770" lon="35.1273100">
    <ele>741.1</ele>
    <time>2018-09-22T04:15:22Z</time>
   </trkpt>
   <trkpt lat="31.7513030" lon="35.1272870">
    <ele>741.2</ele>
    <time>2018-09-22T04:15:23Z</time>
   </trkpt>
   <trkpt lat="31.7513350" lon="35.1272680">
    <ele>741.3</ele>
    <time>2018-09-22T04:15:25Z</time>
   </trkpt>
   <trkpt lat="31.7513670" lon="35.1272240">
    <ele>741.4</ele>
    <time>2018-09-22T04:15:26Z</time>
   </trkpt>
   <trkpt lat="31.7514270" lon="35.1271980">
    <ele>741.5</ele>
    <time>2018-09-22T04:15:27Z</time>
   </trkpt>
   <trkpt lat="31.7514630" lon="35.1271580">
    <ele>741.7</ele>
    <time>2018-09-22T04:15:28Z</time>
   </trkpt>
   <trkpt lat="31.7515050" lon="35.1271130">
    <ele>741.8</ele>
    <time>2018-09-22T04:15:29Z</time>
   </trkpt>
   <trkpt lat="31.7515410" lon="35.1270790">
    <ele>741.9</ele>
    <time>2018-09-22T04:15:30Z</time>
   </trkpt>
   <trkpt lat="31.7515670" lon="35.1270460">
    <ele>742.0</ele>
    <time>2018-09-22T04:15:31Z</time>
   </trkpt>
   <trkpt lat="31.7515990" lon="35.1270000">
    <ele>742.2</ele>
    <time>2018-09-22T04:15:32Z</time>
   </trkpt>
   <trkpt lat="31.7516270" lon="35.1269780">
    <ele>742.4</ele>
    <time>2018-09-22T04:15:33Z</time>
   </trkpt>
   <trkpt lat="31.7516590" lon="35.1269330">
    <ele>742.6</ele>
    <time>2018-09-22T04:15:35Z</time>
   </trkpt>
   <trkpt lat="31.7516960" lon="35.1269100">
    <ele>742.7</ele>
    <time>2018-09-22T04:15:37Z</time>
   </trkpt>
   <trkpt lat="31.7517230" lon="35.1268380">
    <ele>743.0</ele>
    <time>2018-09-22T04:15:39Z</time>
   </trkpt>
   <trkpt lat="31.7517440" lon="35.1268100">
    <ele>743.2</ele>
    <time>2018-09-22T04:15:40Z</time>
   </trkpt>
   <trkpt lat="31.7517700" lon="35.1267780">
    <ele>743.4</ele>
    <time>2018-09-22T04:15:42Z</time>
   </trkpt>
   <trkpt lat="31.7517670" lon="35.1267440">
    <ele>743.6</ele>
    <time>2018-09-22T04:15:43Z</time>
   </trkpt>
   <trkpt lat="31.7517890" lon="35.1266960">
    <ele>743.8</ele>
    <time>2018-09-22T04:15:45Z</time>
   </trkpt>
   <trkpt lat="31.7518130" lon="35.1266720">
    <ele>744.0</ele>
    <time>2018-09-22T04:15:46Z</time>
   </trkpt>
   <trkpt lat="31.7518240" lon="35.1266280">
    <ele>744.2</ele>
    <time>2018-09-22T04:15:48Z</time>
   </trkpt>
   <trkpt lat="31.7518340" lon="35.1265970">
    <ele>744.3</ele>
    <time>2018-09-22T04:15:49Z</time>
   </trkpt>
   <trkpt lat="31.7518730" lon="35.1265690">
    <ele>744.4</ele>
    <time>2018-09-22T04:15:50Z</time>
   </trkpt>
   <trkpt lat="31.7519000" lon="35.1265320">
    <ele>744.6</ele>
    <time>2018-09-22T04:15:51Z</time>
   </trkpt>
   <trkpt lat="31.7519110" lon="35.1264820">
    <ele>744.7</ele>
    <time>2018-09-22T04:15:52Z</time>
   </trkpt>
   <trkpt lat="31.7519410" lon="35.1264450">
    <ele>744.8</ele>
    <time>2018-09-22T04:15:53Z</time>
   </trkpt>
   <trkpt lat="31.7519720" lon="35.1264000">
    <ele>745.0</ele>
    <time>2018-09-22T04:15:54Z</time>
   </trkpt>
   <trkpt lat="31.7520040" lon="35.1263650">
    <ele>745.1</ele>
    <time>2018-09-22T04:15:55Z</time>
   </trkpt>
   <trkpt lat="31.7520280" lon="35.1263070">
    <ele>745.2</ele>
    <time>2018-09-22T04:15:56Z</time>
   </trkpt>
   <trkpt lat="31.7520570" lon="35.1262540">
    <ele>745.4</ele>
    <time>2018-09-22T04:15:57Z</time>
   </trkpt>
   <trkpt lat="31.7520810" lon="35.1261900">
    <ele>745.5</ele>
    <time>2018-09-22T04:15:58Z</time>
   </trkpt>
   <trkpt lat="31.7521070" lon="35.1261670">
    <ele>745.6</ele>
    <time>2018-09-22T04:15:59Z</time>
   </trkpt>
   <trkpt lat="31.7521200" lon="35.1261380">
    <ele>745.6</ele>
    <time>2018-09-22T04:16:00Z</time>
   </trkpt>
   <trkpt lat="31.7521410" lon="35.1261180">
    <ele>745.7</ele>
    <time>2018-09-22T04:16:03Z</time>
   </trkpt>
   <trkpt lat="31.7521290" lon="35.1260870">
    <ele>745.8</ele>
    <time>2018-09-22T04:16:04Z</time>
   </trkpt>
   <trkpt lat="31.7521580" lon="35.1260700">
    <ele>745.9</ele>
    <time>2018-09-22T04:16:07Z</time>
   </trkpt>
   <trkpt lat="31.7522000" lon="35.1260660">
    <ele>746.0</ele>
    <time>2018-09-22T04:16:09Z</time>
   </trkpt>
   <trkpt lat="31.7522240" lon="35.1261090">
    <ele>746.0</ele>
    <time>2018-09-22T04:16:13Z</time>
   </trkpt>
   <trkpt lat="31.7522520" lon="35.1261470">
    <ele>746.0</ele>
    <time>2018-09-22T04:16:15Z</time>
   </trkpt>
   <trkpt lat="31.7523040" lon="35.1261860">
    <ele>746.0</ele>
    <time>2018-09-22T04:16:17Z</time>
   </trkpt>
   <trkpt lat="31.7523470" lon="35.1262160">
    <ele>746.0</ele>
    <time>2018-09-22T04:16:20Z</time>
   </trkpt>
   <trkpt lat="31.7523890" lon="35.1262200">
    <ele>746.0</ele>
    <time>2018-09-22T04:16:21Z</time>
   </trkpt>
   <trkpt lat="31.7524220" lon="35.1262120">
    <ele>746.0</ele>
    <time>2018-09-22T04:16:22Z</time>
   </trkpt>
   <trkpt lat="31.7524600" lon="35.1261950">
    <ele>745.1</ele>
    <time>2018-09-22T04:16:23Z</time>
   </trkpt>
   <trkpt lat="31.7524660" lon="35.1261550">
    <ele>744.5</ele>
    <time>2018-09-22T04:16:25Z</time>
   </trkpt>
   <trkpt lat="31.7524930" lon="35.1261410">
    <ele>744.0</ele>
    <time>2018-09-22T04:16:27Z</time>
   </trkpt>
   <trkpt lat="31.7525410" lon="35.1261450">
    <ele>743.1</ele>
    <time>2018-09-22T04:16:29Z</time>
   </trkpt>
   <trkpt lat="31.7526030" lon="35.1261740">
    <ele>742.1</ele>
    <time>2018-09-22T04:16:31Z</time>
   </trkpt>
   <trkpt lat="31.7526280" lon="35.1261610">
    <ele>741.6</ele>
    <time>2018-09-22T04:16:33Z</time>
   </trkpt>
   <trkpt lat="31.7526190" lon="35.1261930">
    <ele>741.0</ele>
    <time>2018-09-22T04:16:51Z</time>
   </trkpt>
   <trkpt lat="31.7526080" lon="35.1262220">
    <ele>740.5</ele>
    <time>2018-09-22T04:16:54Z</time>
   </trkpt>
   <trkpt lat="31.7526590" lon="35.1262440">
    <ele>739.6</ele>
    <time>2018-09-22T04:16:56Z</time>
   </trkpt>
   <trkpt lat="31.7527010" lon="35.1262410">
    <ele>738.9</ele>
    <time>2018-09-22T04:16:58Z</time>
   </trkpt>
   <trkpt lat="31.7527380" lon="35.1262800">
    <ele>738.1</ele>
    <time>2018-09-22T04:17:00Z</time>
   </trkpt>
   <trkpt lat="31.7527670" lon="35.1263150">
    <ele>738.0</ele>
    <time>2018-09-22T04:17:01Z</time>
   </trkpt>
   <trkpt lat="31.7527680" lon="35.1263550">
    <ele>737.8</ele>
    <time>2018-09-22T04:17:02Z</time>
   </trkpt>
   <trkpt lat="31.7527820" lon="35.1264250">
    <ele>737.3</ele>
    <time>2018-09-22T04:17:04Z</time>
   </trkpt>
   <trkpt lat="31.7528010" lon="35.1264720">
    <ele>736.8</ele>
    <time>2018-09-22T04:17:05Z</time>
   </trkpt>
   <trkpt lat="31.7528060" lon="35.1265120">
    <ele>736.7</ele>
    <time>2018-09-22T04:17:06Z</time>
   </trkpt>
   <trkpt lat="31.7528030" lon="35.1265450">
    <ele>736.6</ele>
    <time>2018-09-22T04:17:07Z</time>
   </trkpt>
   <trkpt lat="31.7528280" lon="35.1266140">
    <ele>736.1</ele>
    <time>2018-09-22T04:17:08Z</time>
   </trkpt>
   <trkpt lat="31.7528120" lon="35.1266520">
    <ele>735.6</ele>
    <time>2018-09-22T04:17:09Z</time>
   </trkpt>
   <trkpt lat="31.7528230" lon="35.1267130">
    <ele>734.6</ele>
    <time>2018-09-22T04:17:10Z</time>
   </trkpt>
   <trkpt lat="31.7528260" lon="35.1267650">
    <ele>733.6</ele>
    <time>2018-09-22T04:17:11Z</time>
   </trkpt>
   <trkpt lat="31.7528270" lon="35.1268220">
    <ele>732.4</ele>
    <time>2018-09-22T04:17:12Z</time>
   </trkpt>
   <trkpt lat="31.7528210" lon="35.1268810">
    <ele>731.3</ele>
    <time>2018-09-22T04:17:13Z</time>
   </trkpt>
   <trkpt lat="31.7528160" lon="35.1269300">
    <ele>730.8</ele>
    <time>2018-09-22T04:17:14Z</time>
   </trkpt>
   <trkpt lat="31.7528190" lon="35.1269850">
    <ele>730.4</ele>
    <time>2018-09-22T04:17:15Z</time>
   </trkpt>
   <trkpt lat="31.7528220" lon="35.1270350">
    <ele>730.3</ele>
    <time>2018-09-22T04:17:16Z</time>
   </trkpt>
   <trkpt lat="31.7528410" lon="35.1270680">
    <ele>730.1</ele>
    <time>2018-09-22T04:17:17Z</time>
   </trkpt>
   <trkpt lat="31.7528500" lon="35.1271000">
    <ele>730.3</ele>
    <time>2018-09-22T04:17:18Z</time>
   </trkpt>
   <trkpt lat="31.7528530" lon="35.1271430">
    <ele>730.7</ele>
    <time>2018-09-22T04:17:20Z</time>
   </trkpt>
   <trkpt lat="31.7528600" lon="35.1271760">
    <ele>730.9</ele>
    <time>2018-09-22T04:17:23Z</time>
   </trkpt>
   <trkpt lat="31.7529010" lon="35.1272510">
    <ele>730.2</ele>
    <time>2018-09-22T04:17:26Z</time>
   </trkpt>
   <trkpt lat="31.7529180" lon="35.1272820">
    <ele>729.7</ele>
    <time>2018-09-22T04:17:27Z</time>
   </trkpt>
   <trkpt lat="31.7529380" lon="35.1273530">
    <ele>729.3</ele>
    <time>2018-09-22T04:17:29Z</time>
   </trkpt>
   <trkpt lat="31.7529110" lon="35.1273960">
    <ele>729.1</ele>
    <time>2018-09-22T04:17:30Z</time>
   </trkpt>
   <trkpt lat="31.7529310" lon="35.1274250">
    <ele>729.0</ele>
    <time>2018-09-22T04:17:31Z</time>
   </trkpt>
   <trkpt lat="31.7528880" lon="35.1274450">
    <ele>728.7</ele>
    <time>2018-09-22T04:17:32Z</time>
   </trkpt>
   <trkpt lat="31.7528460" lon="35.1274550">
    <ele>729.5</ele>
    <time>2018-09-22T04:17:33Z</time>
   </trkpt>
   <trkpt lat="31.7528440" lon="35.1275130">
    <ele>730.7</ele>
    <time>2018-09-22T04:17:35Z</time>
   </trkpt>
   <trkpt lat="31.7528560" lon="35.1275580">
    <ele>731.2</ele>
    <time>2018-09-22T04:17:36Z</time>
   </trkpt>
   <trkpt lat="31.7528420" lon="35.1276140">
    <ele>731.6</ele>
    <time>2018-09-22T04:17:37Z</time>
   </trkpt>
   <trkpt lat="31.7528520" lon="35.1276800">
    <ele>731.0</ele>
    <time>2018-09-22T04:17:38Z</time>
   </trkpt>
   <trkpt lat="31.7528820" lon="35.1277180">
    <ele>730.4</ele>
    <time>2018-09-22T04:17:39Z</time>
   </trkpt>
   <trkpt lat="31.7528950" lon="35.1277520">
    <ele>729.8</ele>
    <time>2018-09-22T04:17:40Z</time>
   </trkpt>
   <trkpt lat="31.7529130" lon="35.1277960">
    <ele>729.1</ele>
    <time>2018-09-22T04:17:41Z</time>
   </trkpt>
   <trkpt lat="31.7528960" lon="35.1278360">
    <ele>728.5</ele>
    <time>2018-09-22T04:17:43Z</time>
   </trkpt>
   <trkpt lat="31.7528920" lon="35.1278710">
    <ele>727.4</ele>
    <time>2018-09-22T04:17:45Z</time>
   </trkpt>
   <trkpt lat="31.7529180" lon="35.1278800">
    <ele>726.2</ele>
    <time>2018-09-22T04:17:50Z</time>
   </trkpt>
   <trkpt lat="31.7529450" lon="35.1278960">
    <ele>724.9</ele>
    <time>2018-09-22T04:17:55Z</time>
   </trkpt>
   <trkpt lat="31.7529670" lon="35.1279190">
    <ele>723.7</ele>
    <time>2018-09-22T04:17:59Z</time>
   </trkpt>
   <trkpt lat="31.7529930" lon="35.1279320">
    <ele>722.6</ele>
    <time>2018-09-22T04:18:01Z</time>
   </trkpt>
   <trkpt lat="31.7530210" lon="35.1279430">
    <ele>721.4</ele>
    <time>2018-09-22T04:18:02Z</time>
   </trkpt>
   <trkpt lat="31.7530490" lon="35.1279500">
    <ele>720.4</ele>
    <time>2018-09-22T04:18:03Z</time>
   </trkpt>
   <trkpt lat="31.7530860" lon="35.1279350">
    <ele>718.9</ele>
    <time>2018-09-22T04:18:04Z</time>
   </trkpt>
   <trkpt lat="31.7531230" lon="35.1279310">
    <ele>717.7</ele>
    <time>2018-09-22T04:18:05Z</time>
   </trkpt>
   <trkpt lat="31.7531560" lon="35.1279320">
    <ele>716.8</ele>
    <time>2018-09-22T04:18:06Z</time>
   </trkpt>
   <trkpt lat="31.7531930" lon="35.1279190">
    <ele>715.8</ele>
    <time>2018-09-22T04:18:07Z</time>
   </trkpt>
   <trkpt lat="31.7532220" lon="35.1279170">
    <ele>715.1</ele>
    <time>2018-09-22T04:18:08Z</time>
   </trkpt>
   <trkpt lat="31.7532630" lon="35.1279200">
    <ele>714.1</ele>
    <time>2018-09-22T04:18:10Z</time>
   </trkpt>
   <trkpt lat="31.7533210" lon="35.1279200">
    <ele>712.6</ele>
    <time>2018-09-22T04:18:12Z</time>
   </trkpt>
   <trkpt lat="31.7533550" lon="35.1279130">
    <ele>711.8</ele>
    <time>2018-09-22T04:18:15Z</time>
   </trkpt>
   <trkpt lat="31.7533890" lon="35.1279360">
    <ele>711.3</ele>
    <time>2018-09-22T04:18:34Z</time>
   </trkpt>
   <trkpt lat="31.7534070" lon="35.1279850">
    <ele>710.6</ele>
    <time>2018-09-22T04:18:37Z</time>
   </trkpt>
   <trkpt lat="31.7534230" lon="35.1280210">
    <ele>710.2</ele>
    <time>2018-09-22T04:18:39Z</time>
   </trkpt>
   <trkpt lat="31.7534290" lon="35.1280560">
    <ele>710.4</ele>
    <time>2018-09-22T04:18:41Z</time>
   </trkpt>
   <trkpt lat="31.7534200" lon="35.1280930">
    <ele>710.6</ele>
    <time>2018-09-22T04:18:43Z</time>
   </trkpt>
   <trkpt lat="31.7534260" lon="35.1281300">
    <ele>711.1</ele>
    <time>2018-09-22T04:18:44Z</time>
   </trkpt>
   <trkpt lat="31.7534210" lon="35.1281680">
    <ele>711.6</ele>
    <time>2018-09-22T04:18:46Z</time>
   </trkpt>
   <trkpt lat="31.7534000" lon="35.1281960">
    <ele>711.8</ele>
    <time>2018-09-22T04:18:48Z</time>
   </trkpt>
   <trkpt lat="31.7534000" lon="35.1282420">
    <ele>712.0</ele>
    <time>2018-09-22T04:18:50Z</time>
   </trkpt>
   <trkpt lat="31.7533900" lon="35.1282840">
    <ele>712.4</ele>
    <time>2018-09-22T04:18:53Z</time>
   </trkpt>
   <trkpt lat="31.7533570" lon="35.1283080">
    <ele>712.8</ele>
    <time>2018-09-22T04:18:55Z</time>
   </trkpt>
   <trkpt lat="31.7533430" lon="35.1283630">
    <ele>713.7</ele>
    <time>2018-09-22T04:18:58Z</time>
   </trkpt>
   <trkpt lat="31.7533640" lon="35.1283890">
    <ele>714.3</ele>
    <time>2018-09-22T04:18:59Z</time>
   </trkpt>
   <trkpt lat="31.7533630" lon="35.1284300">
    <ele>715.0</ele>
    <time>2018-09-22T04:19:00Z</time>
   </trkpt>
   <trkpt lat="31.7533690" lon="35.1284640">
    <ele>715.1</ele>
    <time>2018-09-22T04:19:01Z</time>
   </trkpt>
   <trkpt lat="31.7534020" lon="35.1285080">
    <ele>715.2</ele>
    <time>2018-09-22T04:19:02Z</time>
   </trkpt>
   <trkpt lat="31.7534260" lon="35.1285340">
    <ele>715.3</ele>
    <time>2018-09-22T04:19:03Z</time>
   </trkpt>
   <trkpt lat="31.7534360" lon="35.1285730">
    <ele>715.4</ele>
    <time>2018-09-22T04:19:04Z</time>
   </trkpt>
   <trkpt lat="31.7533890" lon="35.1285430">
    <ele>715.6</ele>
    <time>2018-09-22T04:19:08Z</time>
   </trkpt>
   <trkpt lat="31.7534240" lon="35.1285730">
    <ele>715.8</ele>
    <time>2018-09-22T04:19:11Z</time>
   </trkpt>
   <trkpt lat="31.7534350" lon="35.1286060">
    <ele>715.9</ele>
    <time>2018-09-22T04:19:15Z</time>
   </trkpt>
   <trkpt lat="31.7534490" lon="35.1286340">
    <ele>715.3</ele>
    <time>2018-09-22T04:19:18Z</time>
   </trkpt>
   <trkpt lat="31.7534290" lon="35.1286580">
    <ele>714.7</ele>
    <time>2018-09-22T04:19:20Z</time>
   </trkpt>
   <trkpt lat="31.7534130" lon="35.1286970">
    <ele>713.7</ele>
    <time>2018-09-22T04:19:22Z</time>
   </trkpt>
   <trkpt lat="31.7534110" lon="35.1287300">
    <ele>712.5</ele>
    <time>2018-09-22T04:19:25Z</time>
   </trkpt>
   <trkpt lat="31.7534010" lon="35.1286960">
    <ele>711.5</ele>
    <time>2018-09-22T04:19:29Z</time>
   </trkpt>
   <trkpt lat="31.7534790" lon="35.1286950">
    <ele>709.6</ele>
    <time>2018-09-22T04:19:45Z</time>
   </trkpt>
   <trkpt lat="31.7535290" lon="35.1286690">
    <ele>708.0</ele>
    <time>2018-09-22T04:19:47Z</time>
   </trkpt>
   <trkpt lat="31.7535620" lon="35.1286670">
    <ele>706.9</ele>
    <time>2018-09-22T04:19:48Z</time>
   </trkpt>
   <trkpt lat="31.7536000" lon="35.1286720">
    <ele>705.6</ele>
    <time>2018-09-22T04:19:50Z</time>
   </trkpt>
   <trkpt lat="31.7536430" lon="35.1286640">
    <ele>704.1</ele>
    <time>2018-09-22T04:19:51Z</time>
   </trkpt>
   <trkpt lat="31.7536700" lon="35.1286490">
    <ele>703.0</ele>
    <time>2018-09-22T04:19:52Z</time>
   </trkpt>
   <trkpt lat="31.7537150" lon="35.1286110">
    <ele>700.9</ele>
    <time>2018-09-22T04:19:54Z</time>
   </trkpt>
   <trkpt lat="31.7537680" lon="35.1285800">
    <ele>698.7</ele>
    <time>2018-09-22T04:19:56Z</time>
   </trkpt>
   <trkpt lat="31.7538270" lon="35.1285920">
    <ele>696.6</ele>
    <time>2018-09-22T04:19:58Z</time>
   </trkpt>
   <trkpt lat="31.7538570" lon="35.1285910">
    <ele>695.6</ele>
    <time>2018-09-22T04:20:00Z</time>
   </trkpt>
   <trkpt lat="31.7538940" lon="35.1286040">
    <ele>694.3</ele>
    <time>2018-09-22T04:20:01Z</time>
   </trkpt>
   <trkpt lat="31.7539270" lon="35.1285840">
    <ele>692.5</ele>
    <time>2018-09-22T04:20:03Z</time>
   </trkpt>
   <trkpt lat="31.7539460" lon="35.1285470">
    <ele>690.5</ele>
    <time>2018-09-22T04:20:04Z</time>
   </trkpt>
   <trkpt lat="31.7539870" lon="35.1285230">
    <ele>689.5</ele>
    <time>2018-09-22T04:20:05Z</time>
   </trkpt>
   <trkpt lat="31.7540080" lon="35.1285010">
    <ele>688.9</ele>
    <time>2018-09-22T04:20:06Z</time>
   </trkpt>
   <trkpt lat="31.7540550" lon="35.1285240">
    <ele>687.2</ele>
    <time>2018-09-22T04:20:09Z</time>
   </trkpt>
   <trkpt lat="31.7540880" lon="35.1285310">
    <ele>686.1</ele>
    <time>2018-09-22T04:20:10Z</time>
   </trkpt>
   <trkpt lat="31.7541200" lon="35.1285280">
    <ele>685.2</ele>
    <time>2018-09-22T04:20:11Z</time>
   </trkpt>
   <trkpt lat="31.7541640" lon="35.1285190">
    <ele>684.3</ele>
    <time>2018-09-22T04:20:13Z</time>
   </trkpt>
   <trkpt lat="31.7541900" lon="35.1285100">
    <ele>684.0</ele>
    <time>2018-09-22T04:20:14Z</time>
   </trkpt>
   <trkpt lat="31.7542400" lon="35.1285080">
    <ele>683.4</ele>
    <time>2018-09-22T04:20:16Z</time>
   </trkpt>
   <trkpt lat="31.7542790" lon="35.1285220">
    <ele>682.8</ele>
    <time>2018-09-22T04:20:18Z</time>
   </trkpt>
   <trkpt lat="31.7543320" lon="35.1285480">
    <ele>682.0</ele>
    <time>2018-09-22T04:20:20Z</time>
   </trkpt>
   <trkpt lat="31.7543660" lon="35.1285510">
    <ele>681.6</ele>
    <time>2018-09-22T04:20:21Z</time>
   </trkpt>
   <trkpt lat="31.7544190" lon="35.1285510">
    <ele>681.4</ele>
    <time>2018-09-22T04:20:22Z</time>
   </trkpt>
   <trkpt lat="31.7544560" lon="35.1285160">
    <ele>681.0</ele>
    <time>2018-09-22T04:20:24Z</time>
   </trkpt>
   <trkpt lat="31.7544840" lon="35.1285180">
    <ele>680.8</ele>
    <time>2018-09-22T04:20:25Z</time>
   </trkpt>
   <trkpt lat="31.7545230" lon="35.1285090">
    <ele>680.2</ele>
    <time>2018-09-22T04:20:27Z</time>
   </trkpt>
   <trkpt lat="31.7545710" lon="35.1284840">
    <ele>679.2</ele>
    <time>2018-09-22T04:21:13Z</time>
   </trkpt>
   <trkpt lat="31.7546020" lon="35.1284360">
    <ele>678.2</ele>
    <time>2018-09-22T04:21:15Z</time>
   </trkpt>
   <trkpt lat="31.7546240" lon="35.1284060">
    <ele>677.6</ele>
    <time>2018-09-22T04:21:16Z</time>
   </trkpt>
   <trkpt lat="31.7546420" lon="35.1283700">
    <ele>676.6</ele>
    <time>2018-09-22T04:21:17Z</time>
   </trkpt>
   <trkpt lat="31.7546700" lon="35.1283400">
    <ele>675.5</ele>
    <time>2018-09-22T04:21:18Z</time>
   </trkpt>
   <trkpt lat="31.7547000" lon="35.1283110">
    <ele>674.6</ele>
    <time>2018-09-22T04:21:19Z</time>
   </trkpt>
   <trkpt lat="31.7547270" lon="35.1282870">
    <ele>673.9</ele>
    <time>2018-09-22T04:21:20Z</time>
   </trkpt>
   <trkpt lat="31.7547620" lon="35.1282660">
    <ele>672.7</ele>
    <time>2018-09-22T04:21:21Z</time>
   </trkpt>
   <trkpt lat="31.7547740" lon="35.1282360">
    <ele>671.8</ele>
    <time>2018-09-22T04:21:23Z</time>
   </trkpt>
   <trkpt lat="31.7547990" lon="35.1282000">
    <ele>670.3</ele>
    <time>2018-09-22T04:21:24Z</time>
   </trkpt>
   <trkpt lat="31.7548210" lon="35.1281700">
    <ele>668.8</ele>
    <time>2018-09-22T04:21:25Z</time>
   </trkpt>
   <trkpt lat="31.7548460" lon="35.1281470">
    <ele>667.4</ele>
    <time>2018-09-22T04:21:26Z</time>
   </trkpt>
   <trkpt lat="31.7548710" lon="35.1281200">
    <ele>666.2</ele>
    <time>2018-09-22T04:21:27Z</time>
   </trkpt>
   <trkpt lat="31.7549510" lon="35.1281620">
    <ele>662.8</ele>
    <time>2018-09-22T04:21:28Z</time>
   </trkpt>
   <trkpt lat="31.7550110" lon="35.1281890">
    <ele>661.4</ele>
    <time>2018-09-22T04:21:29Z</time>
   </trkpt>
   <trkpt lat="31.7550290" lon="35.1282400">
    <ele>661.0</ele>
    <time>2018-09-22T04:21:30Z</time>
   </trkpt>
   <trkpt lat="31.7550570" lon="35.1283010">
    <ele>660.1</ele>
    <time>2018-09-22T04:21:31Z</time>
   </trkpt>
   <trkpt lat="31.7550480" lon="35.1283570">
    <ele>659.3</ele>
    <time>2018-09-22T04:21:32Z</time>
   </trkpt>
   <trkpt lat="31.7550680" lon="35.1284250">
    <ele>659.0</ele>
    <time>2018-09-22T04:21:33Z</time>
   </trkpt>
   <trkpt lat="31.7550820" lon="35.1284840">
    <ele>658.7</ele>
    <time>2018-09-22T04:21:34Z</time>
   </trkpt>
   <trkpt lat="31.7551030" lon="35.1285390">
    <ele>658.2</ele>
    <time>2018-09-22T04:21:35Z</time>
   </trkpt>
   <trkpt lat="31.7550940" lon="35.1285990">
    <ele>657.6</ele>
    <time>2018-09-22T04:21:36Z</time>
   </trkpt>
   <trkpt lat="31.7550720" lon="35.1286780">
    <ele>656.6</ele>
    <time>2018-09-22T04:21:37Z</time>
   </trkpt>
   <trkpt lat="31.7550540" lon="35.1287310">
    <ele>655.8</ele>
    <time>2018-09-22T04:21:38Z</time>
   </trkpt>
   <trkpt lat="31.7550530" lon="35.1288100">
    <ele>655.7</ele>
    <time>2018-09-22T04:21:39Z</time>
   </trkpt>
   <trkpt lat="31.7550550" lon="35.1288750">
    <ele>655.2</ele>
    <time>2018-09-22T04:21:40Z</time>
   </trkpt>
   <trkpt lat="31.7550550" lon="35.1289170">
    <ele>654.6</ele>
    <time>2018-09-22T04:21:41Z</time>
   </trkpt>
   <trkpt lat="31.7550490" lon="35.1289490">
    <ele>654.1</ele>
    <time>2018-09-22T04:21:42Z</time>
   </trkpt>
   <trkpt lat="31.7550270" lon="35.1289830">
    <ele>653.7</ele>
    <time>2018-09-22T04:21:43Z</time>
   </trkpt>
   <trkpt lat="31.7550300" lon="35.1290370">
    <ele>653.2</ele>
    <time>2018-09-22T04:21:44Z</time>
   </trkpt>
   <trkpt lat="31.7550500" lon="35.1291040">
    <ele>652.2</ele>
    <time>2018-09-22T04:21:47Z</time>
   </trkpt>
   <trkpt lat="31.7550740" lon="35.1291330">
    <ele>651.7</ele>
    <time>2018-09-22T04:21:48Z</time>
   </trkpt>
   <trkpt lat="31.7551130" lon="35.1291690">
    <ele>650.8</ele>
    <time>2018-09-22T04:21:49Z</time>
   </trkpt>
   <trkpt lat="31.7550640" lon="35.1291840">
    <ele>649.9</ele>
    <time>2018-09-22T04:21:53Z</time>
   </trkpt>
   <trkpt lat="31.7550700" lon="35.1292200">
    <ele>649.3</ele>
    <time>2018-09-22T04:22:05Z</time>
   </trkpt>
   <trkpt lat="31.7550760" lon="35.1292570">
    <ele>648.7</ele>
    <time>2018-09-22T04:22:06Z</time>
   </trkpt>
   <trkpt lat="31.7551350" lon="35.1292720">
    <ele>646.8</ele>
    <time>2018-09-22T04:22:08Z</time>
   </trkpt>
   <trkpt lat="31.7551580" lon="35.1292890">
    <ele>645.7</ele>
    <time>2018-09-22T04:22:09Z</time>
   </trkpt>
   <trkpt lat="31.7551700" lon="35.1293210">
    <ele>644.2</ele>
    <time>2018-09-22T04:22:10Z</time>
   </trkpt>
   <trkpt lat="31.7552030" lon="35.1293750">
    <ele>642.5</ele>
    <time>2018-09-22T04:22:12Z</time>
   </trkpt>
   <trkpt lat="31.7551800" lon="35.1293960">
    <ele>642.4</ele>
    <time>2018-09-22T04:22:13Z</time>
   </trkpt>
   <trkpt lat="31.7551380" lon="35.1294490">
    <ele>642.1</ele>
    <time>2018-09-22T04:22:15Z</time>
   </trkpt>
   <trkpt lat="31.7551290" lon="35.1294980">
    <ele>641.6</ele>
    <time>2018-09-22T04:22:16Z</time>
   </trkpt>
   <trkpt lat="31.7551050" lon="35.1295220">
    <ele>641.3</ele>
    <time>2018-09-22T04:22:17Z</time>
   </trkpt>
   <trkpt lat="31.7551040" lon="35.1295580">
    <ele>641.0</ele>
    <time>2018-09-22T04:22:18Z</time>
   </trkpt>
   <trkpt lat="31.7550620" lon="35.1295670">
    <ele>641.3</ele>
    <time>2018-09-22T04:22:20Z</time>
   </trkpt>
   <trkpt lat="31.7550120" lon="35.1295960">
    <ele>641.3</ele>
    <time>2018-09-22T04:22:22Z</time>
   </trkpt>
   <trkpt lat="31.7549820" lon="35.1296100">
    <ele>641.0</ele>
    <time>2018-09-22T04:22:24Z</time>
   </trkpt>
   <trkpt lat="31.7549480" lon="35.1296440">
    <ele>640.5</ele>
    <time>2018-09-22T04:22:26Z</time>
   </trkpt>
   <trkpt lat="31.7549320" lon="35.1296800">
    <ele>640.0</ele>
    <time>2018-09-22T04:22:28Z</time>
   </trkpt>
   <trkpt lat="31.7549490" lon="35.1297280">
    <ele>639.4</ele>
    <time>2018-09-22T04:22:31Z</time>
   </trkpt>
   <trkpt lat="31.7549680" lon="35.1297630">
    <ele>638.2</ele>
    <time>2018-09-22T04:22:34Z</time>
   </trkpt>
   <trkpt lat="31.7549470" lon="35.1298020">
    <ele>636.9</ele>
    <time>2018-09-22T04:22:37Z</time>
   </trkpt>
   <trkpt lat="31.7549710" lon="35.1298150">
    <ele>635.5</ele>
    <time>2018-09-22T04:22:40Z</time>
   </trkpt>
   <trkpt lat="31.7550020" lon="35.1297940">
    <ele>633.7</ele>
    <time>2018-09-22T04:22:41Z</time>
   </trkpt>
   <trkpt lat="31.7550300" lon="35.1297890">
    <ele>632.4</ele>
    <time>2018-09-22T04:22:42Z</time>
   </trkpt>
   <trkpt lat="31.7550780" lon="35.1297740">
    <ele>631.6</ele>
    <time>2018-09-22T04:22:44Z</time>
   </trkpt>
   <trkpt lat="31.7551370" lon="35.1297640">
    <ele>631.4</ele>
    <time>2018-09-22T04:22:47Z</time>
   </trkpt>
   <trkpt lat="31.7551640" lon="35.1297700">
    <ele>631.7</ele>
    <time>2018-09-22T04:22:48Z</time>
   </trkpt>
   <trkpt lat="31.7551810" lon="35.1297390">
    <ele>631.6</ele>
    <time>2018-09-22T04:22:50Z</time>
   </trkpt>
   <trkpt lat="31.7551330" lon="35.1297270">
    <ele>630.8</ele>
    <time>2018-09-22T04:22:51Z</time>
   </trkpt>
   <trkpt lat="31.7551380" lon="35.1297620">
    <ele>630.3</ele>
    <time>2018-09-22T04:22:53Z</time>
   </trkpt>
   <trkpt lat="31.7551880" lon="35.1298000">
    <ele>627.7</ele>
    <time>2018-09-22T04:22:55Z</time>
   </trkpt>
   <trkpt lat="31.7551730" lon="35.1298330">
    <ele>625.7</ele>
    <time>2018-09-22T04:22:56Z</time>
   </trkpt>
   <trkpt lat="31.7551850" lon="35.1298640">
    <ele>625.5</ele>
    <time>2018-09-22T04:22:57Z</time>
   </trkpt>
   <trkpt lat="31.7551400" lon="35.1298870">
    <ele>624.5</ele>
    <time>2018-09-22T04:22:59Z</time>
   </trkpt>
   <trkpt lat="31.7550920" lon="35.1299080">
    <ele>624.0</ele>
    <time>2018-09-22T04:23:01Z</time>
   </trkpt>
   <trkpt lat="31.7550680" lon="35.1299480">
    <ele>623.9</ele>
    <time>2018-09-22T04:23:03Z</time>
   </trkpt>
   <trkpt lat="31.7550150" lon="35.1299720">
    <ele>624.0</ele>
    <time>2018-09-22T04:23:04Z</time>
   </trkpt>
   <trkpt lat="31.7549720" lon="35.1299900">
    <ele>623.4</ele>
    <time>2018-09-22T04:23:05Z</time>
   </trkpt>
   <trkpt lat="31.7549460" lon="35.1300040">
    <ele>623.0</ele>
    <time>2018-09-22T04:23:06Z</time>
   </trkpt>
   <trkpt lat="31.7548870" lon="35.1300340">
    <ele>622.3</ele>
    <time>2018-09-22T04:23:08Z</time>
   </trkpt>
   <trkpt lat="31.7548380" lon="35.1300760">
    <ele>622.5</ele>
    <time>2018-09-22T04:23:10Z</time>
   </trkpt>
   <trkpt lat="31.7548100" lon="35.1300850">
    <ele>622.7</ele>
    <time>2018-09-22T04:23:11Z</time>
   </trkpt>
   <trkpt lat="31.7547700" lon="35.1301130">
    <ele>623.2</ele>
    <time>2018-09-22T04:23:12Z</time>
   </trkpt>
   <trkpt lat="31.7547350" lon="35.1301410">
    <ele>623.4</ele>
    <time>2018-09-22T04:23:14Z</time>
   </trkpt>
   <trkpt lat="31.7547120" lon="35.1301620">
    <ele>623.4</ele>
    <time>2018-09-22T04:23:15Z</time>
   </trkpt>
   <trkpt lat="31.7546820" lon="35.1302130">
    <ele>623.9</ele>
    <time>2018-09-22T04:23:17Z</time>
   </trkpt>
   <trkpt lat="31.7546460" lon="35.1302330">
    <ele>624.6</ele>
    <time>2018-09-22T04:23:18Z</time>
   </trkpt>
   <trkpt lat="31.7546080" lon="35.1302580">
    <ele>625.0</ele>
    <time>2018-09-22T04:23:19Z</time>
   </trkpt>
   <trkpt lat="31.7545790" lon="35.1302810">
    <ele>625.0</ele>
    <time>2018-09-22T04:23:20Z</time>
   </trkpt>
   <trkpt lat="31.7545510" lon="35.1303090">
    <ele>625.2</ele>
    <time>2018-09-22T04:23:21Z</time>
   </trkpt>
   <trkpt lat="31.7545400" lon="35.1303450">
    <ele>625.6</ele>
    <time>2018-09-22T04:23:22Z</time>
   </trkpt>
   <trkpt lat="31.7545200" lon="35.1303680">
    <ele>626.0</ele>
    <time>2018-09-22T04:23:23Z</time>
   </trkpt>
   <trkpt lat="31.7544970" lon="35.1303880">
    <ele>626.5</ele>
    <time>2018-09-22T04:23:24Z</time>
   </trkpt>
   <trkpt lat="31.7544710" lon="35.1304310">
    <ele>627.3</ele>
    <time>2018-09-22T04:23:26Z</time>
   </trkpt>
   <trkpt lat="31.7544320" lon="35.1304330">
    <ele>628.0</ele>
    <time>2018-09-22T04:23:28Z</time>
   </trkpt>
   <trkpt lat="31.7544770" lon="35.1304050">
    <ele>628.5</ele>
    <time>2018-09-22T04:23:31Z</time>
   </trkpt>
   <trkpt lat="31.7544940" lon="35.1303860">
    <ele>627.8</ele>
    <time>2018-09-22T04:23:32Z</time>
   </trkpt>
   <trkpt lat="31.7545600" lon="35.1303630">
    <ele>625.5</ele>
    <time>2018-09-22T04:23:34Z</time>
   </trkpt>
   <trkpt lat="31.7545900" lon="35.1303470">
    <ele>624.5</ele>
    <time>2018-09-22T04:23:35Z</time>
   </trkpt>
   <trkpt lat="31.7546540" lon="35.1303690">
    <ele>622.6</ele>
    <time>2018-09-22T04:23:37Z</time>
   </trkpt>
   <trkpt lat="31.7546840" lon="35.1303860">
    <ele>621.9</ele>
    <time>2018-09-22T04:23:38Z</time>
   </trkpt>
   <trkpt lat="31.7547460" lon="35.1304130">
    <ele>621.0</ele>
    <time>2018-09-22T04:23:40Z</time>
   </trkpt>
   <trkpt lat="31.7547640" lon="35.1304480">
    <ele>620.6</ele>
    <time>2018-09-22T04:23:41Z</time>
   </trkpt>
   <trkpt lat="31.7548030" lon="35.1304430">
    <ele>620.2</ele>
    <time>2018-09-22T04:23:43Z</time>
   </trkpt>
   <trkpt lat="31.7548410" lon="35.1304350">
    <ele>619.8</ele>
    <time>2018-09-22T04:23:44Z</time>
   </trkpt>
   <trkpt lat="31.7548820" lon="35.1304490">
    <ele>619.3</ele>
    <time>2018-09-22T04:23:46Z</time>
   </trkpt>
   <trkpt lat="31.7549170" lon="35.1304650">
    <ele>618.8</ele>
    <time>2018-09-22T04:23:47Z</time>
   </trkpt>
   <trkpt lat="31.7549640" lon="35.1304970">
    <ele>618.1</ele>
    <time>2018-09-22T04:23:48Z</time>
   </trkpt>
   <trkpt lat="31.7550180" lon="35.1305500">
    <ele>617.3</ele>
    <time>2018-09-22T04:23:50Z</time>
   </trkpt>
   <trkpt lat="31.7550570" lon="35.1305730">
    <ele>617.0</ele>
    <time>2018-09-22T04:23:52Z</time>
   </trkpt>
   <trkpt lat="31.7550870" lon="35.1306020">
    <ele>617.0</ele>
    <time>2018-09-22T04:23:54Z</time>
   </trkpt>
   <trkpt lat="31.7550410" lon="35.1305530">
    <ele>617.0</ele>
    <time>2018-09-22T04:23:57Z</time>
   </trkpt>
   <trkpt lat="31.7550710" lon="35.1305570">
    <ele>617.0</ele>
    <time>2018-09-22T04:23:58Z</time>
   </trkpt>
   <trkpt lat="31.7550380" lon="35.1305590">
    <ele>617.0</ele>
    <time>2018-09-22T04:24:00Z</time>
   </trkpt>
   <trkpt lat="31.7550120" lon="35.1305770">
    <ele>616.6</ele>
    <time>2018-09-22T04:24:47Z</time>
   </trkpt>
   <trkpt lat="31.7549670" lon="35.1305470">
    <ele>614.9</ele>
    <time>2018-09-22T04:24:51Z</time>
   </trkpt>
   <trkpt lat="31.7550170" lon="35.1306050">
    <ele>613.1</ele>
    <time>2018-09-22T04:25:46Z</time>
   </trkpt>
   <trkpt lat="31.7550550" lon="35.1306230">
    <ele>612.3</ele>
    <time>2018-09-22T04:25:48Z</time>
   </trkpt>
   <trkpt lat="31.7550800" lon="35.1306530">
    <ele>612.1</ele>
    <time>2018-09-22T04:25:49Z</time>
   </trkpt>
   <trkpt lat="31.7551250" lon="35.1306750">
    <ele>611.9</ele>
    <time>2018-09-22T04:25:51Z</time>
   </trkpt>
   <trkpt lat="31.7551470" lon="35.1306990">
    <ele>611.6</ele>
    <time>2018-09-22T04:25:52Z</time>
   </trkpt>
   <trkpt lat="31.7551830" lon="35.1307040">
    <ele>611.1</ele>
    <time>2018-09-22T04:25:53Z</time>
   </trkpt>
   <trkpt lat="31.7552220" lon="35.1306990">
    <ele>610.6</ele>
    <time>2018-09-22T04:25:54Z</time>
   </trkpt>
   <trkpt lat="31.7552520" lon="35.1307070">
    <ele>610.4</ele>
    <time>2018-09-22T04:25:55Z</time>
   </trkpt>
   <trkpt lat="31.7552810" lon="35.1307030">
    <ele>610.3</ele>
    <time>2018-09-22T04:25:56Z</time>
   </trkpt>
   <trkpt lat="31.7553120" lon="35.1306970">
    <ele>610.1</ele>
    <time>2018-09-22T04:25:57Z</time>
   </trkpt>
   <trkpt lat="31.7553600" lon="35.1306910">
    <ele>609.9</ele>
    <time>2018-09-22T04:25:58Z</time>
   </trkpt>
   <trkpt lat="31.7554000" lon="35.1307040">
    <ele>609.8</ele>
    <time>2018-09-22T04:26:00Z</time>
   </trkpt>
   <trkpt lat="31.7554350" lon="35.1307210">
    <ele>609.6</ele>
    <time>2018-09-22T04:26:01Z</time>
   </trkpt>
   <trkpt lat="31.7554680" lon="35.1307340">
    <ele>609.4</ele>
    <time>2018-09-22T04:26:02Z</time>
   </trkpt>
   <trkpt lat="31.7555000" lon="35.1307640">
    <ele>609.1</ele>
    <time>2018-09-22T04:26:04Z</time>
   </trkpt>
   <trkpt lat="31.7555280" lon="35.1307910">
    <ele>608.6</ele>
    <time>2018-09-22T04:26:05Z</time>
   </trkpt>
   <trkpt lat="31.7555770" lon="35.1308220">
    <ele>607.6</ele>
    <time>2018-09-22T04:26:07Z</time>
   </trkpt>
   <trkpt lat="31.7556180" lon="35.1308360">
    <ele>607.1</ele>
    <time>2018-09-22T04:26:08Z</time>
   </trkpt>
   <trkpt lat="31.7556510" lon="35.1308470">
    <ele>607.0</ele>
    <time>2018-09-22T04:26:09Z</time>
   </trkpt>
   <trkpt lat="31.7556780" lon="35.1308650">
    <ele>606.9</ele>
    <time>2018-09-22T04:26:10Z</time>
   </trkpt>
   <trkpt lat="31.7557090" lon="35.1308690">
    <ele>606.8</ele>
    <time>2018-09-22T04:26:11Z</time>
   </trkpt>
   <trkpt lat="31.7557620" lon="35.1308860">
    <ele>606.7</ele>
    <time>2018-09-22T04:26:13Z</time>
   </trkpt>
   <trkpt lat="31.7557880" lon="35.1309010">
    <ele>606.7</ele>
    <time>2018-09-22T04:26:14Z</time>
   </trkpt>
   <trkpt lat="31.7558190" lon="35.1309100">
    <ele>606.9</ele>
    <time>2018-09-22T04:26:15Z</time>
   </trkpt>
   <trkpt lat="31.7558480" lon="35.1309240">
    <ele>607.1</ele>
    <time>2018-09-22T04:26:16Z</time>
   </trkpt>
   <trkpt lat="31.7559070" lon="35.1309620">
    <ele>607.8</ele>
    <time>2018-09-22T04:26:18Z</time>
   </trkpt>
   <trkpt lat="31.7559430" lon="35.1309870">
    <ele>608.3</ele>
    <time>2018-09-22T04:26:19Z</time>
   </trkpt>
   <trkpt lat="31.7559770" lon="35.1310190">
    <ele>608.4</ele>
    <time>2018-09-22T04:26:20Z</time>
   </trkpt>
   <trkpt lat="31.7560140" lon="35.1310520">
    <ele>608.1</ele>
    <time>2018-09-22T04:26:21Z</time>
   </trkpt>
   <trkpt lat="31.7560540" lon="35.1310910">
    <ele>607.9</ele>
    <time>2018-09-22T04:26:22Z</time>
   </trkpt>
   <trkpt lat="31.7560920" lon="35.1311340">
    <ele>607.7</ele>
    <time>2018-09-22T04:26:23Z</time>
   </trkpt>
   <trkpt lat="31.7561560" lon="35.1311830">
    <ele>606.4</ele>
    <time>2018-09-22T04:26:24Z</time>
   </trkpt>
   <trkpt lat="31.7561990" lon="35.1312130">
    <ele>605.4</ele>
    <time>2018-09-22T04:26:25Z</time>
   </trkpt>
   <trkpt lat="31.7562390" lon="35.1312360">
    <ele>605.0</ele>
    <time>2018-09-22T04:26:26Z</time>
   </trkpt>
   <trkpt lat="31.7562850" lon="35.1312710">
    <ele>604.5</ele>
    <time>2018-09-22T04:26:27Z</time>
   </trkpt>
   <trkpt lat="31.7563290" lon="35.1313070">
    <ele>603.5</ele>
    <time>2018-09-22T04:26:28Z</time>
   </trkpt>
   <trkpt lat="31.7563710" lon="35.1313710">
    <ele>603.3</ele>
    <time>2018-09-22T04:26:29Z</time>
   </trkpt>
   <trkpt lat="31.7564110" lon="35.1314510">
    <ele>603.7</ele>
    <time>2018-09-22T04:26:30Z</time>
   </trkpt>
   <trkpt lat="31.7564360" lon="35.1315170">
    <ele>603.7</ele>
    <time>2018-09-22T04:26:31Z</time>
   </trkpt>
   <trkpt lat="31.7564820" lon="35.1315880">
    <ele>604.9</ele>
    <time>2018-09-22T04:26:32Z</time>
   </trkpt>
   <trkpt lat="31.7565400" lon="35.1316550">
    <ele>605.6</ele>
    <time>2018-09-22T04:26:33Z</time>
   </trkpt>
   <trkpt lat="31.7565710" lon="35.1317330">
    <ele>606.0</ele>
    <time>2018-09-22T04:26:34Z</time>
   </trkpt>
   <trkpt lat="31.7566120" lon="35.1318110">
    <ele>606.1</ele>
    <time>2018-09-22T04:26:35Z</time>
   </trkpt>
   <trkpt lat="31.7566260" lon="35.1318740">
    <ele>606.1</ele>
    <time>2018-09-22T04:26:36Z</time>
   </trkpt>
   <trkpt lat="31.7566440" lon="35.1319540">
    <ele>606.6</ele>
    <time>2018-09-22T04:26:37Z</time>
   </trkpt>
   <trkpt lat="31.7566630" lon="35.1320260">
    <ele>606.4</ele>
    <time>2018-09-22T04:26:38Z</time>
   </trkpt>
   <trkpt lat="31.7566860" lon="35.1321130">
    <ele>605.9</ele>
    <time>2018-09-22T04:26:39Z</time>
   </trkpt>
   <trkpt lat="31.7566920" lon="35.1321850">
    <ele>605.5</ele>
    <time>2018-09-22T04:26:40Z</time>
   </trkpt>
   <trkpt lat="31.7566950" lon="35.1322620">
    <ele>605.3</ele>
    <time>2018-09-22T04:26:41Z</time>
   </trkpt>
   <trkpt lat="31.7567120" lon="35.1323080">
    <ele>605.1</ele>
    <time>2018-09-22T04:26:42Z</time>
   </trkpt>
   <trkpt lat="31.7567210" lon="35.1323950">
    <ele>603.4</ele>
    <time>2018-09-22T04:26:43Z</time>
   </trkpt>
   <trkpt lat="31.7567200" lon="35.1324310">
    <ele>603.1</ele>
    <time>2018-09-22T04:26:44Z</time>
   </trkpt>
   <trkpt lat="31.7567220" lon="35.1324790">
    <ele>603.0</ele>
    <time>2018-09-22T04:26:45Z</time>
   </trkpt>
   <trkpt lat="31.7567480" lon="35.1325480">
    <ele>603.0</ele>
    <time>2018-09-22T04:26:46Z</time>
   </trkpt>
   <trkpt lat="31.7567270" lon="35.1326040">
    <ele>603.1</ele>
    <time>2018-09-22T04:26:47Z</time>
   </trkpt>
   <trkpt lat="31.7567080" lon="35.1326640">
    <ele>603.1</ele>
    <time>2018-09-22T04:26:48Z</time>
   </trkpt>
   <trkpt lat="31.7567170" lon="35.1327110">
    <ele>603.1</ele>
    <time>2018-09-22T04:26:49Z</time>
   </trkpt>
   <trkpt lat="31.7567340" lon="35.1327630">
    <ele>603.2</ele>
    <time>2018-09-22T04:26:50Z</time>
   </trkpt>
   <trkpt lat="31.7567310" lon="35.1327980">
    <ele>603.2</ele>
    <time>2018-09-22T04:26:51Z</time>
   </trkpt>
   <trkpt lat="31.7567750" lon="35.1328260">
    <ele>603.1</ele>
    <time>2018-09-22T04:26:53Z</time>
   </trkpt>
   <trkpt lat="31.7568020" lon="35.1327930">
    <ele>602.9</ele>
    <time>2018-09-22T04:26:54Z</time>
   </trkpt>
   <trkpt lat="31.7568300" lon="35.1327990">
    <ele>602.6</ele>
    <time>2018-09-22T04:26:55Z</time>
   </trkpt>
   <trkpt lat="31.7568490" lon="35.1327640">
    <ele>602.3</ele>
    <time>2018-09-22T04:26:56Z</time>
   </trkpt>
   <trkpt lat="31.7568630" lon="35.1327330">
    <ele>602.0</ele>
    <time>2018-09-22T04:26:57Z</time>
   </trkpt>
   <trkpt lat="31.7568660" lon="35.1326860">
    <ele>602.0</ele>
    <time>2018-09-22T04:26:58Z</time>
   </trkpt>
   <trkpt lat="31.7568650" lon="35.1326410">
    <ele>601.8</ele>
    <time>2018-09-22T04:27:00Z</time>
   </trkpt>
   <trkpt lat="31.7568680" lon="35.1326060">
    <ele>601.7</ele>
    <time>2018-09-22T04:27:04Z</time>
   </trkpt>
   <trkpt lat="31.7568740" lon="35.1326600">
    <ele>601.5</ele>
    <time>2018-09-22T04:27:16Z</time>
   </trkpt>
   <trkpt lat="31.7568630" lon="35.1326950">
    <ele>601.4</ele>
    <time>2018-09-22T04:27:17Z</time>
   </trkpt>
   <trkpt lat="31.7568440" lon="35.1327310">
    <ele>601.2</ele>
    <time>2018-09-22T04:27:18Z</time>
   </trkpt>
   <trkpt lat="31.7568300" lon="35.1327810">
    <ele>601.1</ele>
    <time>2018-09-22T04:27:20Z</time>
   </trkpt>
   <trkpt lat="31.7568480" lon="35.1328410">
    <ele>600.8</ele>
    <time>2018-09-22T04:27:22Z</time>
   </trkpt>
   <trkpt lat="31.7568750" lon="35.1328570">
    <ele>600.6</ele>
    <time>2018-09-22T04:27:23Z</time>
   </trkpt>
   <trkpt lat="31.7569030" lon="35.1328880">
    <ele>600.3</ele>
    <time>2018-09-22T04:27:24Z</time>
   </trkpt>
   <trkpt lat="31.7569350" lon="35.1329150">
    <ele>600.2</ele>
    <time>2018-09-22T04:27:25Z</time>
   </trkpt>
   <trkpt lat="31.7569610" lon="35.1329400">
    <ele>600.1</ele>
    <time>2018-09-22T04:27:26Z</time>
   </trkpt>
   <trkpt lat="31.7569890" lon="35.1329910">
    <ele>599.9</ele>
    <time>2018-09-22T04:27:28Z</time>
   </trkpt>
   <trkpt lat="31.7570090" lon="35.1330180">
    <ele>599.8</ele>
    <time>2018-09-22T04:27:29Z</time>
   </trkpt>
   <trkpt lat="31.7570330" lon="35.1330390">
    <ele>599.6</ele>
    <time>2018-09-22T04:27:30Z</time>
   </trkpt>
   <trkpt lat="31.7570620" lon="35.1330420">
    <ele>599.5</ele>
    <time>2018-09-22T04:27:31Z</time>
   </trkpt>
   <trkpt lat="31.7570900" lon="35.1330600">
    <ele>599.5</ele>
    <time>2018-09-22T04:27:32Z</time>
   </trkpt>
   <trkpt lat="31.7571270" lon="35.1330740">
    <ele>599.3</ele>
    <time>2018-09-22T04:27:33Z</time>
   </trkpt>
   <trkpt lat="31.7571550" lon="35.1330780">
    <ele>599.2</ele>
    <time>2018-09-22T04:27:34Z</time>
   </trkpt>
   <trkpt lat="31.7571950" lon="35.1330850">
    <ele>599.1</ele>
    <time>2018-09-22T04:27:35Z</time>
   </trkpt>
   <trkpt lat="31.7572380" lon="35.1330810">
    <ele>599.0</ele>
    <time>2018-09-22T04:27:36Z</time>
   </trkpt>
   <trkpt lat="31.7572770" lon="35.1330670">
    <ele>598.9</ele>
    <time>2018-09-22T04:27:37Z</time>
   </trkpt>
   <trkpt lat="31.7573150" lon="35.1330510">
    <ele>598.8</ele>
    <time>2018-09-22T04:27:38Z</time>
   </trkpt>
   <trkpt lat="31.7573550" lon="35.1330250">
    <ele>598.7</ele>
    <time>2018-09-22T04:27:39Z</time>
   </trkpt>
   <trkpt lat="31.7573910" lon="35.1329900">
    <ele>598.5</ele>
    <time>2018-09-22T04:27:40Z</time>
   </trkpt>
   <trkpt lat="31.7574280" lon="35.1329560">
    <ele>598.4</ele>
    <time>2018-09-22T04:27:41Z</time>
   </trkpt>
   <trkpt lat="31.7574660" lon="35.1329160">
    <ele>598.3</ele>
    <time>2018-09-22T04:27:42Z</time>
   </trkpt>
   <trkpt lat="31.7575110" lon="35.1328810">
    <ele>598.2</ele>
    <time>2018-09-22T04:27:43Z</time>
   </trkpt>
   <trkpt lat="31.7575520" lon="35.1328550">
    <ele>598.1</ele>
    <time>2018-09-22T04:27:44Z</time>
   </trkpt>
   <trkpt lat="31.7575880" lon="35.1328380">
    <ele>598.0</ele>
    <time>2018-09-22T04:27:45Z</time>
   </trkpt>
   <trkpt lat="31.7576230" lon="35.1328160">
    <ele>597.9</ele>
    <time>2018-09-22T04:27:46Z</time>
   </trkpt>
   <trkpt lat="31.7576730" lon="35.1327910">
    <ele>597.7</ele>
    <time>2018-09-22T04:27:47Z</time>
   </trkpt>
   <trkpt lat="31.7577030" lon="35.1327760">
    <ele>597.6</ele>
    <time>2018-09-22T04:27:48Z</time>
   </trkpt>
   <trkpt lat="31.7577290" lon="35.1327660">
    <ele>597.6</ele>
    <time>2018-09-22T04:27:49Z</time>
   </trkpt>
   <trkpt lat="31.7577640" lon="35.1327500">
    <ele>597.5</ele>
    <time>2018-09-22T04:27:50Z</time>
   </trkpt>
   <trkpt lat="31.7578020" lon="35.1327180">
    <ele>597.3</ele>
    <time>2018-09-22T04:27:51Z</time>
   </trkpt>
   <trkpt lat="31.7578370" lon="35.1326940">
    <ele>597.2</ele>
    <time>2018-09-22T04:27:52Z</time>
   </trkpt>
   <trkpt lat="31.7578770" lon="35.1326760">
    <ele>597.1</ele>
    <time>2018-09-22T04:27:53Z</time>
   </trkpt>
   <trkpt lat="31.7579030" lon="35.1326600">
    <ele>597.0</ele>
    <time>2018-09-22T04:27:54Z</time>
   </trkpt>
   <trkpt lat="31.7579570" lon="35.1326330">
    <ele>596.8</ele>
    <time>2018-09-22T04:27:56Z</time>
   </trkpt>
   <trkpt lat="31.7579990" lon="35.1326220">
    <ele>596.6</ele>
    <time>2018-09-22T04:27:58Z</time>
   </trkpt>
   <trkpt lat="31.7580250" lon="35.1326120">
    <ele>596.5</ele>
    <time>2018-09-22T04:27:59Z</time>
   </trkpt>
   <trkpt lat="31.7580490" lon="35.1325930">
    <ele>596.4</ele>
    <time>2018-09-22T04:28:00Z</time>
   </trkpt>
   <trkpt lat="31.7581080" lon="35.1325830">
    <ele>596.1</ele>
    <time>2018-09-22T04:28:02Z</time>
   </trkpt>
   <trkpt lat="31.7581420" lon="35.1325800">
    <ele>595.9</ele>
    <time>2018-09-22T04:28:03Z</time>
   </trkpt>
   <trkpt lat="31.7581960" lon="35.1326130">
    <ele>595.5</ele>
    <time>2018-09-22T04:28:05Z</time>
   </trkpt>
   <trkpt lat="31.7582310" lon="35.1326380">
    <ele>595.4</ele>
    <time>2018-09-22T04:28:06Z</time>
   </trkpt>
   <trkpt lat="31.7582690" lon="35.1326740">
    <ele>595.6</ele>
    <time>2018-09-22T04:28:07Z</time>
   </trkpt>
   <trkpt lat="31.7583080" lon="35.1327130">
    <ele>595.9</ele>
    <time>2018-09-22T04:28:08Z</time>
   </trkpt>
   <trkpt lat="31.7583480" lon="35.1327580">
    <ele>596.1</ele>
    <time>2018-09-22T04:28:09Z</time>
   </trkpt>
   <trkpt lat="31.7583890" lon="35.1328090">
    <ele>596.5</ele>
    <time>2018-09-22T04:28:10Z</time>
   </trkpt>
   <trkpt lat="31.7584280" lon="35.1328650">
    <ele>597.0</ele>
    <time>2018-09-22T04:28:11Z</time>
   </trkpt>
   <trkpt lat="31.7584800" lon="35.1329160">
    <ele>597.5</ele>
    <time>2018-09-22T04:28:12Z</time>
   </trkpt>
   <trkpt lat="31.7585150" lon="35.1329740">
    <ele>598.0</ele>
    <time>2018-09-22T04:28:13Z</time>
   </trkpt>
   <trkpt lat="31.7585450" lon="35.1330230">
    <ele>598.4</ele>
    <time>2018-09-22T04:28:14Z</time>
   </trkpt>
   <trkpt lat="31.7585830" lon="35.1330810">
    <ele>598.7</ele>
    <time>2018-09-22T04:28:15Z</time>
   </trkpt>
   <trkpt lat="31.7586180" lon="35.1331360">
    <ele>599.0</ele>
    <time>2018-09-22T04:28:16Z</time>
   </trkpt>
   <trkpt lat="31.7586490" lon="35.1331910">
    <ele>599.3</ele>
    <time>2018-09-22T04:28:17Z</time>
   </trkpt>
   <trkpt lat="31.7586810" lon="35.1332580">
    <ele>599.8</ele>
    <time>2018-09-22T04:28:18Z</time>
   </trkpt>
   <trkpt lat="31.7586950" lon="35.1333240">
    <ele>600.3</ele>
    <time>2018-09-22T04:28:19Z</time>
   </trkpt>
   <trkpt lat="31.7587300" lon="35.1333860">
    <ele>600.9</ele>
    <time>2018-09-22T04:28:20Z</time>
   </trkpt>
   <trkpt lat="31.7587440" lon="35.1334380">
    <ele>601.3</ele>
    <time>2018-09-22T04:28:21Z</time>
   </trkpt>
   <trkpt lat="31.7587640" lon="35.1334960">
    <ele>601.4</ele>
    <time>2018-09-22T04:28:22Z</time>
   </trkpt>
   <trkpt lat="31.7587810" lon="35.1335510">
    <ele>601.6</ele>
    <time>2018-09-22T04:28:23Z</time>
   </trkpt>
   <trkpt lat="31.7587920" lon="35.1336010">
    <ele>601.8</ele>
    <time>2018-09-22T04:28:24Z</time>
   </trkpt>
   <trkpt lat="31.7588080" lon="35.1336520">
    <ele>601.9</ele>
    <time>2018-09-22T04:28:25Z</time>
   </trkpt>
   <trkpt lat="31.7588200" lon="35.1337010">
    <ele>602.0</ele>
    <time>2018-09-22T04:28:26Z</time>
   </trkpt>
   <trkpt lat="31.7588380" lon="35.1337640">
    <ele>602.1</ele>
    <time>2018-09-22T04:28:27Z</time>
   </trkpt>
   <trkpt lat="31.7588510" lon="35.1338250">
    <ele>602.2</ele>
    <time>2018-09-22T04:28:28Z</time>
   </trkpt>
   <trkpt lat="31.7588560" lon="35.1338820">
    <ele>602.3</ele>
    <time>2018-09-22T04:28:29Z</time>
   </trkpt>
   <trkpt lat="31.7588630" lon="35.1339410">
    <ele>602.4</ele>
    <time>2018-09-22T04:28:30Z</time>
   </trkpt>
   <trkpt lat="31.7588650" lon="35.1339990">
    <ele>602.4</ele>
    <time>2018-09-22T04:28:31Z</time>
   </trkpt>
   <trkpt lat="31.7588760" lon="35.1340500">
    <ele>602.5</ele>
    <time>2018-09-22T04:28:32Z</time>
   </trkpt>
   <trkpt lat="31.7588990" lon="35.1341090">
    <ele>602.5</ele>
    <time>2018-09-22T04:28:33Z</time>
   </trkpt>
   <trkpt lat="31.7589210" lon="35.1341710">
    <ele>602.6</ele>
    <time>2018-09-22T04:28:34Z</time>
   </trkpt>
   <trkpt lat="31.7589370" lon="35.1342230">
    <ele>602.6</ele>
    <time>2018-09-22T04:28:35Z</time>
   </trkpt>
   <trkpt lat="31.7589550" lon="35.1342760">
    <ele>602.7</ele>
    <time>2018-09-22T04:28:36Z</time>
   </trkpt>
   <trkpt lat="31.7589780" lon="35.1343300">
    <ele>602.7</ele>
    <time>2018-09-22T04:28:37Z</time>
   </trkpt>
   <trkpt lat="31.7589920" lon="35.1343770">
    <ele>602.8</ele>
    <time>2018-09-22T04:28:38Z</time>
   </trkpt>
   <trkpt lat="31.7590050" lon="35.1344320">
    <ele>602.8</ele>
    <time>2018-09-22T04:28:39Z</time>
   </trkpt>
   <trkpt lat="31.7590180" lon="35.1344840">
    <ele>602.9</ele>
    <time>2018-09-22T04:28:40Z</time>
   </trkpt>
   <trkpt lat="31.7590410" lon="35.1345360">
    <ele>602.9</ele>
    <time>2018-09-22T04:28:41Z</time>
   </trkpt>
   <trkpt lat="31.7590530" lon="35.1345920">
    <ele>603.0</ele>
    <time>2018-09-22T04:28:42Z</time>
   </trkpt>
   <trkpt lat="31.7590730" lon="35.1346460">
    <ele>603.0</ele>
    <time>2018-09-22T04:28:43Z</time>
   </trkpt>
   <trkpt lat="31.7590990" lon="35.1347100">
    <ele>603.1</ele>
    <time>2018-09-22T04:28:44Z</time>
   </trkpt>
   <trkpt lat="31.7591200" lon="35.1347640">
    <ele>603.2</ele>
    <time>2018-09-22T04:28:45Z</time>
   </trkpt>
   <trkpt lat="31.7591390" lon="35.1348230">
    <ele>603.2</ele>
    <time>2018-09-22T04:28:46Z</time>
   </trkpt>
   <trkpt lat="31.7591630" lon="35.1348820">
    <ele>603.3</ele>
    <time>2018-09-22T04:28:47Z</time>
   </trkpt>
   <trkpt lat="31.7591850" lon="35.1349430">
    <ele>603.4</ele>
    <time>2018-09-22T04:28:48Z</time>
   </trkpt>
   <trkpt lat="31.7592090" lon="35.1350120">
    <ele>603.5</ele>
    <time>2018-09-22T04:28:49Z</time>
   </trkpt>
   <trkpt lat="31.7592300" lon="35.1350730">
    <ele>603.7</ele>
    <time>2018-09-22T04:28:50Z</time>
   </trkpt>
   <trkpt lat="31.7592590" lon="35.1351400">
    <ele>603.9</ele>
    <time>2018-09-22T04:28:51Z</time>
   </trkpt>
   <trkpt lat="31.7592830" lon="35.1352090">
    <ele>604.2</ele>
    <time>2018-09-22T04:28:52Z</time>
   </trkpt>
   <trkpt lat="31.7593070" lon="35.1352760">
    <ele>604.6</ele>
    <time>2018-09-22T04:28:53Z</time>
   </trkpt>
   <trkpt lat="31.7593290" lon="35.1353330">
    <ele>604.9</ele>
    <time>2018-09-22T04:28:54Z</time>
   </trkpt>
   <trkpt lat="31.7593460" lon="35.1353950">
    <ele>605.3</ele>
    <time>2018-09-22T04:28:55Z</time>
   </trkpt>
   <trkpt lat="31.7593590" lon="35.1354550">
    <ele>605.7</ele>
    <time>2018-09-22T04:28:56Z</time>
   </trkpt>
   <trkpt lat="31.7593750" lon="35.1355110">
    <ele>606.1</ele>
    <time>2018-09-22T04:28:57Z</time>
   </trkpt>
   <trkpt lat="31.7593890" lon="35.1355630">
    <ele>606.4</ele>
    <time>2018-09-22T04:28:58Z</time>
   </trkpt>
   <trkpt lat="31.7594090" lon="35.1356220">
    <ele>606.8</ele>
    <time>2018-09-22T04:28:59Z</time>
   </trkpt>
   <trkpt lat="31.7594250" lon="35.1356790">
    <ele>607.2</ele>
    <time>2018-09-22T04:29:00Z</time>
   </trkpt>
   <trkpt lat="31.7594340" lon="35.1357240">
    <ele>607.5</ele>
    <time>2018-09-22T04:29:01Z</time>
   </trkpt>
   <trkpt lat="31.7594520" lon="35.1357740">
    <ele>607.8</ele>
    <time>2018-09-22T04:29:02Z</time>
   </trkpt>
   <trkpt lat="31.7594650" lon="35.1358230">
    <ele>608.2</ele>
    <time>2018-09-22T04:29:03Z</time>
   </trkpt>
   <trkpt lat="31.7594840" lon="35.1358690">
    <ele>608.5</ele>
    <time>2018-09-22T04:29:04Z</time>
   </trkpt>
   <trkpt lat="31.7595010" lon="35.1359140">
    <ele>608.8</ele>
    <time>2018-09-22T04:29:05Z</time>
   </trkpt>
   <trkpt lat="31.7595170" lon="35.1359620">
    <ele>609.1</ele>
    <time>2018-09-22T04:29:06Z</time>
   </trkpt>
   <trkpt lat="31.7595310" lon="35.1360020">
    <ele>609.4</ele>
    <time>2018-09-22T04:29:07Z</time>
   </trkpt>
   <trkpt lat="31.7595500" lon="35.1360410">
    <ele>609.7</ele>
    <time>2018-09-22T04:29:08Z</time>
   </trkpt>
   <trkpt lat="31.7595690" lon="35.1360860">
    <ele>610.1</ele>
    <time>2018-09-22T04:29:09Z</time>
   </trkpt>
   <trkpt lat="31.7595810" lon="35.1361270">
    <ele>610.4</ele>
    <time>2018-09-22T04:29:10Z</time>
   </trkpt>
   <trkpt lat="31.7596030" lon="35.1361720">
    <ele>610.7</ele>
    <time>2018-09-22T04:29:11Z</time>
   </trkpt>
   <trkpt lat="31.7596310" lon="35.1362170">
    <ele>611.1</ele>
    <time>2018-09-22T04:29:12Z</time>
   </trkpt>
   <trkpt lat="31.7596460" lon="35.1362570">
    <ele>611.5</ele>
    <time>2018-09-22T04:29:13Z</time>
   </trkpt>
   <trkpt lat="31.7596690" lon="35.1363030">
    <ele>611.9</ele>
    <time>2018-09-22T04:29:14Z</time>
   </trkpt>
   <trkpt lat="31.7596910" lon="35.1363460">
    <ele>612.3</ele>
    <time>2018-09-22T04:29:15Z</time>
   </trkpt>
   <trkpt lat="31.7597080" lon="35.1363830">
    <ele>612.6</ele>
    <time>2018-09-22T04:29:16Z</time>
   </trkpt>
   <trkpt lat="31.7597220" lon="35.1364240">
    <ele>613.0</ele>
    <time>2018-09-22T04:29:17Z</time>
   </trkpt>
   <trkpt lat="31.7597350" lon="35.1364640">
    <ele>613.3</ele>
    <time>2018-09-22T04:29:18Z</time>
   </trkpt>
   <trkpt lat="31.7597460" lon="35.1364980">
    <ele>613.6</ele>
    <time>2018-09-22T04:29:19Z</time>
   </trkpt>
   <trkpt lat="31.7597510" lon="35.1365290">
    <ele>613.8</ele>
    <time>2018-09-22T04:29:20Z</time>
   </trkpt>
   <trkpt lat="31.7597660" lon="35.1365730">
    <ele>614.0</ele>
    <time>2018-09-22T04:29:21Z</time>
   </trkpt>
   <trkpt lat="31.7597730" lon="35.1366090">
    <ele>614.1</ele>
    <time>2018-09-22T04:29:22Z</time>
   </trkpt>
   <trkpt lat="31.7597830" lon="35.1366470">
    <ele>614.2</ele>
    <time>2018-09-22T04:29:23Z</time>
   </trkpt>
   <trkpt lat="31.7597970" lon="35.1366920">
    <ele>614.2</ele>
    <time>2018-09-22T04:29:24Z</time>
   </trkpt>
   <trkpt lat="31.7598030" lon="35.1367260">
    <ele>614.3</ele>
    <time>2018-09-22T04:29:25Z</time>
   </trkpt>
   <trkpt lat="31.7598120" lon="35.1367910">
    <ele>614.4</ele>
    <time>2018-09-22T04:29:27Z</time>
   </trkpt>
   <trkpt lat="31.7598100" lon="35.1368270">
    <ele>614.5</ele>
    <time>2018-09-22T04:29:28Z</time>
   </trkpt>
   <trkpt lat="31.7598120" lon="35.1368650">
    <ele>614.5</ele>
    <time>2018-09-22T04:29:29Z</time>
   </trkpt>
   <trkpt lat="31.7598150" lon="35.1369270">
    <ele>614.7</ele>
    <time>2018-09-22T04:29:31Z</time>
   </trkpt>
   <trkpt lat="31.7598210" lon="35.1369610">
    <ele>614.7</ele>
    <time>2018-09-22T04:29:32Z</time>
   </trkpt>
   <trkpt lat="31.7598300" lon="35.1370180">
    <ele>614.9</ele>
    <time>2018-09-22T04:29:34Z</time>
   </trkpt>
   <trkpt lat="31.7598310" lon="35.1370630">
    <ele>615.0</ele>
    <time>2018-09-22T04:29:35Z</time>
   </trkpt>
   <trkpt lat="31.7598350" lon="35.1370980">
    <ele>615.0</ele>
    <time>2018-09-22T04:29:36Z</time>
   </trkpt>
   <trkpt lat="31.7598390" lon="35.1371430">
    <ele>615.1</ele>
    <time>2018-09-22T04:29:37Z</time>
   </trkpt>
   <trkpt lat="31.7598430" lon="35.1371810">
    <ele>615.2</ele>
    <time>2018-09-22T04:29:38Z</time>
   </trkpt>
   <trkpt lat="31.7598430" lon="35.1372170">
    <ele>615.3</ele>
    <time>2018-09-22T04:29:39Z</time>
   </trkpt>
   <trkpt lat="31.7598480" lon="35.1372480">
    <ele>615.3</ele>
    <time>2018-09-22T04:29:40Z</time>
   </trkpt>
   <trkpt lat="31.7598540" lon="35.1372850">
    <ele>615.3</ele>
    <time>2018-09-22T04:29:41Z</time>
   </trkpt>
   <trkpt lat="31.7598580" lon="35.1373390">
    <ele>615.3</ele>
    <time>2018-09-22T04:29:43Z</time>
   </trkpt>
   <trkpt lat="31.7598650" lon="35.1373700">
    <ele>615.4</ele>
    <time>2018-09-22T04:29:44Z</time>
   </trkpt>
   <trkpt lat="31.7598750" lon="35.1374350">
    <ele>615.4</ele>
    <time>2018-09-22T04:29:46Z</time>
   </trkpt>
   <trkpt lat="31.7598830" lon="35.1374680">
    <ele>615.4</ele>
    <time>2018-09-22T04:29:47Z</time>
   </trkpt>
   <trkpt lat="31.7598910" lon="35.1375030">
    <ele>615.4</ele>
    <time>2018-09-22T04:29:48Z</time>
   </trkpt>
   <trkpt lat="31.7599010" lon="35.1375410">
    <ele>615.4</ele>
    <time>2018-09-22T04:29:49Z</time>
   </trkpt>
   <trkpt lat="31.7599090" lon="35.1375980">
    <ele>615.4</ele>
    <time>2018-09-22T04:29:51Z</time>
   </trkpt>
   <trkpt lat="31.7599170" lon="35.1376280">
    <ele>615.3</ele>
    <time>2018-09-22T04:29:52Z</time>
   </trkpt>
   <trkpt lat="31.7599220" lon="35.1376670">
    <ele>615.3</ele>
    <time>2018-09-22T04:29:53Z</time>
   </trkpt>
   <trkpt lat="31.7599330" lon="35.1376980">
    <ele>615.3</ele>
    <time>2018-09-22T04:29:54Z</time>
   </trkpt>
   <trkpt lat="31.7599410" lon="35.1377290">
    <ele>615.3</ele>
    <time>2018-09-22T04:29:55Z</time>
   </trkpt>
   <trkpt lat="31.7599570" lon="35.1377890">
    <ele>615.2</ele>
    <time>2018-09-22T04:29:57Z</time>
   </trkpt>
   <trkpt lat="31.7599840" lon="35.1378480">
    <ele>615.2</ele>
    <time>2018-09-22T04:29:59Z</time>
   </trkpt>
   <trkpt lat="31.7600120" lon="35.1378940">
    <ele>615.1</ele>
    <time>2018-09-22T04:30:01Z</time>
   </trkpt>
   <trkpt lat="31.7600240" lon="35.1379320">
    <ele>615.1</ele>
    <time>2018-09-22T04:30:02Z</time>
   </trkpt>
   <trkpt lat="31.7600370" lon="35.1379670">
    <ele>615.1</ele>
    <time>2018-09-22T04:30:03Z</time>
   </trkpt>
   <trkpt lat="31.7600490" lon="35.1379970">
    <ele>615.1</ele>
    <time>2018-09-22T04:30:04Z</time>
   </trkpt>
   <trkpt lat="31.7600630" lon="35.1380340">
    <ele>615.0</ele>
    <time>2018-09-22T04:30:05Z</time>
   </trkpt>
   <trkpt lat="31.7600880" lon="35.1380840">
    <ele>615.0</ele>
    <time>2018-09-22T04:30:07Z</time>
   </trkpt>
   <trkpt lat="31.7601040" lon="35.1381180">
    <ele>615.1</ele>
    <time>2018-09-22T04:30:08Z</time>
   </trkpt>
   <trkpt lat="31.7601190" lon="35.1381600">
    <ele>615.3</ele>
    <time>2018-09-22T04:30:09Z</time>
   </trkpt>
   <trkpt lat="31.7601440" lon="35.1382140">
    <ele>615.6</ele>
    <time>2018-09-22T04:30:11Z</time>
   </trkpt>
   <trkpt lat="31.7601600" lon="35.1382640">
    <ele>615.8</ele>
    <time>2018-09-22T04:30:12Z</time>
   </trkpt>
   <trkpt lat="31.7601730" lon="35.1382940">
    <ele>615.9</ele>
    <time>2018-09-22T04:30:13Z</time>
   </trkpt>
   <trkpt lat="31.7601850" lon="35.1383350">
    <ele>616.1</ele>
    <time>2018-09-22T04:30:14Z</time>
   </trkpt>
   <trkpt lat="31.7602050" lon="35.1383900">
    <ele>616.3</ele>
    <time>2018-09-22T04:30:16Z</time>
   </trkpt>
   <trkpt lat="31.7602160" lon="35.1384290">
    <ele>616.5</ele>
    <time>2018-09-22T04:30:17Z</time>
   </trkpt>
   <trkpt lat="31.7602280" lon="35.1384830">
    <ele>616.7</ele>
    <time>2018-09-22T04:30:19Z</time>
   </trkpt>
   <trkpt lat="31.7602360" lon="35.1385200">
    <ele>617.0</ele>
    <time>2018-09-22T04:30:20Z</time>
   </trkpt>
   <trkpt lat="31.7602420" lon="35.1385750">
    <ele>617.2</ele>
    <time>2018-09-22T04:30:22Z</time>
   </trkpt>
   <trkpt lat="31.7602550" lon="35.1386130">
    <ele>617.7</ele>
    <time>2018-09-22T04:30:25Z</time>
   </trkpt>
   <trkpt lat="31.7602770" lon="35.1386530">
    <ele>618.2</ele>
    <time>2018-09-22T04:30:27Z</time>
   </trkpt>
   <trkpt lat="31.7603000" lon="35.1387140">
    <ele>619.0</ele>
    <time>2018-09-22T04:30:29Z</time>
   </trkpt>
   <trkpt lat="31.7603090" lon="35.1387500">
    <ele>619.7</ele>
    <time>2018-09-22T04:30:30Z</time>
   </trkpt>
   <trkpt lat="31.7603200" lon="35.1387900">
    <ele>620.4</ele>
    <time>2018-09-22T04:30:31Z</time>
   </trkpt>
   <trkpt lat="31.7603270" lon="35.1388280">
    <ele>621.0</ele>
    <time>2018-09-22T04:30:32Z</time>
   </trkpt>
   <trkpt lat="31.7603350" lon="35.1388660">
    <ele>621.5</ele>
    <time>2018-09-22T04:30:33Z</time>
   </trkpt>
   <trkpt lat="31.7603380" lon="35.1389050">
    <ele>621.9</ele>
    <time>2018-09-22T04:30:34Z</time>
   </trkpt>
   <trkpt lat="31.7603460" lon="35.1389420">
    <ele>622.3</ele>
    <time>2018-09-22T04:30:35Z</time>
   </trkpt>
   <trkpt lat="31.7603510" lon="35.1389790">
    <ele>622.6</ele>
    <time>2018-09-22T04:30:36Z</time>
   </trkpt>
   <trkpt lat="31.7603560" lon="35.1390160">
    <ele>622.8</ele>
    <time>2018-09-22T04:30:37Z</time>
   </trkpt>
   <trkpt lat="31.7603570" lon="35.1390520">
    <ele>623.0</ele>
    <time>2018-09-22T04:30:38Z</time>
   </trkpt>
   <trkpt lat="31.7603600" lon="35.1390890">
    <ele>623.2</ele>
    <time>2018-09-22T04:30:39Z</time>
   </trkpt>
   <trkpt lat="31.7603670" lon="35.1391270">
    <ele>623.4</ele>
    <time>2018-09-22T04:30:40Z</time>
   </trkpt>
   <trkpt lat="31.7603710" lon="35.1391620">
    <ele>623.5</ele>
    <time>2018-09-22T04:30:41Z</time>
   </trkpt>
   <trkpt lat="31.7603720" lon="35.1392260">
    <ele>623.9</ele>
    <time>2018-09-22T04:30:43Z</time>
   </trkpt>
   <trkpt lat="31.7603710" lon="35.1392650">
    <ele>624.1</ele>
    <time>2018-09-22T04:30:44Z</time>
   </trkpt>
   <trkpt lat="31.7603790" lon="35.1393200">
    <ele>624.4</ele>
    <time>2018-09-22T04:30:46Z</time>
   </trkpt>
   <trkpt lat="31.7603740" lon="35.1393540">
    <ele>624.7</ele>
    <time>2018-09-22T04:30:47Z</time>
   </trkpt>
   <trkpt lat="31.7603750" lon="35.1394130">
    <ele>625.2</ele>
    <time>2018-09-22T04:30:49Z</time>
   </trkpt>
   <trkpt lat="31.7603820" lon="35.1394450">
    <ele>625.6</ele>
    <time>2018-09-22T04:30:50Z</time>
   </trkpt>
   <trkpt lat="31.7603790" lon="35.1394800">
    <ele>626.3</ele>
    <time>2018-09-22T04:30:51Z</time>
   </trkpt>
   <trkpt lat="31.7603820" lon="35.1395190">
    <ele>627.1</ele>
    <time>2018-09-22T04:30:52Z</time>
   </trkpt>
   <trkpt lat="31.7603800" lon="35.1395810">
    <ele>628.4</ele>
    <time>2018-09-22T04:30:54Z</time>
   </trkpt>
   <trkpt lat="31.7603800" lon="35.1396450">
    <ele>628.9</ele>
    <time>2018-09-22T04:30:56Z</time>
   </trkpt>
   <trkpt lat="31.7603750" lon="35.1396800">
    <ele>629.2</ele>
    <time>2018-09-22T04:30:57Z</time>
   </trkpt>
   <trkpt lat="31.7603620" lon="35.1397450">
    <ele>629.8</ele>
    <time>2018-09-22T04:30:59Z</time>
   </trkpt>
   <trkpt lat="31.7603630" lon="35.1397800">
    <ele>630.1</ele>
    <time>2018-09-22T04:31:00Z</time>
   </trkpt>
   <trkpt lat="31.7603690" lon="35.1398160">
    <ele>630.4</ele>
    <time>2018-09-22T04:31:01Z</time>
   </trkpt>
   <trkpt lat="31.7603660" lon="35.1398490">
    <ele>630.6</ele>
    <time>2018-09-22T04:31:02Z</time>
   </trkpt>
   <trkpt lat="31.7603660" lon="35.1398820">
    <ele>630.7</ele>
    <time>2018-09-22T04:31:03Z</time>
   </trkpt>
   <trkpt lat="31.7603730" lon="35.1399150">
    <ele>630.9</ele>
    <time>2018-09-22T04:31:04Z</time>
   </trkpt>
   <trkpt lat="31.7603810" lon="35.1399800">
    <ele>631.1</ele>
    <time>2018-09-22T04:31:06Z</time>
   </trkpt>
   <trkpt lat="31.7603840" lon="35.1400470">
    <ele>631.5</ele>
    <time>2018-09-22T04:31:08Z</time>
   </trkpt>
   <trkpt lat="31.7603940" lon="35.1401110">
    <ele>632.0</ele>
    <time>2018-09-22T04:31:10Z</time>
   </trkpt>
   <trkpt lat="31.7603930" lon="35.1401440">
    <ele>632.4</ele>
    <time>2018-09-22T04:31:11Z</time>
   </trkpt>
   <trkpt lat="31.7604020" lon="35.1401990">
    <ele>632.8</ele>
    <time>2018-09-22T04:31:13Z</time>
   </trkpt>
   <trkpt lat="31.7604220" lon="35.1402520">
    <ele>633.0</ele>
    <time>2018-09-22T04:31:15Z</time>
   </trkpt>
   <trkpt lat="31.7604360" lon="35.1403020">
    <ele>633.2</ele>
    <time>2018-09-22T04:31:17Z</time>
   </trkpt>
   <trkpt lat="31.7604440" lon="35.1403330">
    <ele>633.3</ele>
    <time>2018-09-22T04:31:18Z</time>
   </trkpt>
   <trkpt lat="31.7604610" lon="35.1403900">
    <ele>633.6</ele>
    <time>2018-09-22T04:31:20Z</time>
   </trkpt>
   <trkpt lat="31.7604690" lon="35.1404290">
    <ele>634.0</ele>
    <time>2018-09-22T04:31:21Z</time>
   </trkpt>
   <trkpt lat="31.7604850" lon="35.1404850">
    <ele>634.5</ele>
    <time>2018-09-22T04:31:23Z</time>
   </trkpt>
   <trkpt lat="31.7605040" lon="35.1405360">
    <ele>634.7</ele>
    <time>2018-09-22T04:31:25Z</time>
   </trkpt>
   <trkpt lat="31.7605230" lon="35.1405910">
    <ele>634.9</ele>
    <time>2018-09-22T04:31:27Z</time>
   </trkpt>
   <trkpt lat="31.7605480" lon="35.1406350">
    <ele>635.1</ele>
    <time>2018-09-22T04:31:29Z</time>
   </trkpt>
   <trkpt lat="31.7605680" lon="35.1406860">
    <ele>635.4</ele>
    <time>2018-09-22T04:31:31Z</time>
   </trkpt>
   <trkpt lat="31.7605830" lon="35.1407240">
    <ele>635.7</ele>
    <time>2018-09-22T04:31:33Z</time>
   </trkpt>
   <trkpt lat="31.7606020" lon="35.1407610">
    <ele>636.0</ele>
    <time>2018-09-22T04:31:35Z</time>
   </trkpt>
   <trkpt lat="31.7606310" lon="35.1408020">
    <ele>636.3</ele>
    <time>2018-09-22T04:31:37Z</time>
   </trkpt>
   <trkpt lat="31.7606530" lon="35.1408350">
    <ele>636.4</ele>
    <time>2018-09-22T04:31:39Z</time>
   </trkpt>
   <trkpt lat="31.7606700" lon="35.1408730">
    <ele>636.5</ele>
    <time>2018-09-22T04:31:41Z</time>
   </trkpt>
   <trkpt lat="31.7606890" lon="35.1409200">
    <ele>636.6</ele>
    <time>2018-09-22T04:31:43Z</time>
   </trkpt>
   <trkpt lat="31.7607090" lon="35.1409740">
    <ele>636.8</ele>
    <time>2018-09-22T04:31:45Z</time>
   </trkpt>
   <trkpt lat="31.7607290" lon="35.1410290">
    <ele>637.0</ele>
    <time>2018-09-22T04:31:47Z</time>
   </trkpt>
   <trkpt lat="31.7607410" lon="35.1410580">
    <ele>637.2</ele>
    <time>2018-09-22T04:31:48Z</time>
   </trkpt>
   <trkpt lat="31.7607610" lon="35.1410990">
    <ele>637.7</ele>
    <time>2018-09-22T04:31:50Z</time>
   </trkpt>
   <trkpt lat="31.7607820" lon="35.1411490">
    <ele>638.1</ele>
    <time>2018-09-22T04:31:52Z</time>
   </trkpt>
   <trkpt lat="31.7607980" lon="35.1412010">
    <ele>638.4</ele>
    <time>2018-09-22T04:31:54Z</time>
   </trkpt>
   <trkpt lat="31.7608180" lon="35.1412510">
    <ele>638.6</ele>
    <time>2018-09-22T04:31:56Z</time>
   </trkpt>
   <trkpt lat="31.7608380" lon="35.1412970">
    <ele>638.8</ele>
    <time>2018-09-22T04:31:58Z</time>
   </trkpt>
   <trkpt lat="31.7608440" lon="35.1413570">
    <ele>639.0</ele>
    <time>2018-09-22T04:32:00Z</time>
   </trkpt>
   <trkpt lat="31.7608600" lon="35.1414070">
    <ele>639.5</ele>
    <time>2018-09-22T04:32:02Z</time>
   </trkpt>
   <trkpt lat="31.7608750" lon="35.1414570">
    <ele>640.0</ele>
    <time>2018-09-22T04:32:04Z</time>
   </trkpt>
   <trkpt lat="31.7608820" lon="35.1415050">
    <ele>640.3</ele>
    <time>2018-09-22T04:32:06Z</time>
   </trkpt>
   <trkpt lat="31.7608850" lon="35.1415370">
    <ele>640.5</ele>
    <time>2018-09-22T04:32:07Z</time>
   </trkpt>
   <trkpt lat="31.7608940" lon="35.1415900">
    <ele>640.8</ele>
    <time>2018-09-22T04:32:09Z</time>
   </trkpt>
   <trkpt lat="31.7608980" lon="35.1416440">
    <ele>641.1</ele>
    <time>2018-09-22T04:32:11Z</time>
   </trkpt>
   <trkpt lat="31.7608990" lon="35.1416960">
    <ele>641.6</ele>
    <time>2018-09-22T04:32:13Z</time>
   </trkpt>
   <trkpt lat="31.7609020" lon="35.1417560">
    <ele>642.1</ele>
    <time>2018-09-22T04:32:15Z</time>
   </trkpt>
   <trkpt lat="31.7609010" lon="35.1418050">
    <ele>642.3</ele>
    <time>2018-09-22T04:32:17Z</time>
   </trkpt>
   <trkpt lat="31.7608970" lon="35.1418730">
    <ele>642.4</ele>
    <time>2018-09-22T04:32:19Z</time>
   </trkpt>
   <trkpt lat="31.7608960" lon="35.1419170">
    <ele>642.6</ele>
    <time>2018-09-22T04:32:21Z</time>
   </trkpt>
   <trkpt lat="31.7608990" lon="35.1419660">
    <ele>642.7</ele>
    <time>2018-09-22T04:32:23Z</time>
   </trkpt>
   <trkpt lat="31.7608910" lon="35.1420230">
    <ele>642.8</ele>
    <time>2018-09-22T04:32:25Z</time>
   </trkpt>
   <trkpt lat="31.7608750" lon="35.1420730">
    <ele>642.9</ele>
    <time>2018-09-22T04:32:27Z</time>
   </trkpt>
   <trkpt lat="31.7608690" lon="35.1421110">
    <ele>643.0</ele>
    <time>2018-09-22T04:32:28Z</time>
   </trkpt>
   <trkpt lat="31.7608590" lon="35.1421520">
    <ele>643.2</ele>
    <time>2018-09-22T04:32:30Z</time>
   </trkpt>
   <trkpt lat="31.7608440" lon="35.1421960">
    <ele>643.4</ele>
    <time>2018-09-22T04:32:32Z</time>
   </trkpt>
   <trkpt lat="31.7608240" lon="35.1422550">
    <ele>643.7</ele>
    <time>2018-09-22T04:32:34Z</time>
   </trkpt>
   <trkpt lat="31.7607950" lon="35.1423020">
    <ele>643.9</ele>
    <time>2018-09-22T04:32:36Z</time>
   </trkpt>
   <trkpt lat="31.7607690" lon="35.1423440">
    <ele>644.5</ele>
    <time>2018-09-22T04:32:38Z</time>
   </trkpt>
   <trkpt lat="31.7607470" lon="35.1423970">
    <ele>645.1</ele>
    <time>2018-09-22T04:32:40Z</time>
   </trkpt>
   <trkpt lat="31.7607280" lon="35.1424380">
    <ele>645.3</ele>
    <time>2018-09-22T04:32:42Z</time>
   </trkpt>
   <trkpt lat="31.7607070" lon="35.1424700">
    <ele>645.5</ele>
    <time>2018-09-22T04:32:44Z</time>
   </trkpt>
   <trkpt lat="31.7606920" lon="35.1425290">
    <ele>645.7</ele>
    <time>2018-09-22T04:32:46Z</time>
   </trkpt>
   <trkpt lat="31.7606800" lon="35.1425790">
    <ele>646.1</ele>
    <time>2018-09-22T04:32:48Z</time>
   </trkpt>
   <trkpt lat="31.7606580" lon="35.1426130">
    <ele>646.4</ele>
    <time>2018-09-22T04:32:50Z</time>
   </trkpt>
   <trkpt lat="31.7606460" lon="35.1426600">
    <ele>646.8</ele>
    <time>2018-09-22T04:32:52Z</time>
   </trkpt>
   <trkpt lat="31.7606240" lon="35.1427090">
    <ele>647.4</ele>
    <time>2018-09-22T04:32:54Z</time>
   </trkpt>
   <trkpt lat="31.7606050" lon="35.1427470">
    <ele>647.8</ele>
    <time>2018-09-22T04:32:56Z</time>
   </trkpt>
   <trkpt lat="31.7605860" lon="35.1427880">
    <ele>648.0</ele>
    <time>2018-09-22T04:32:58Z</time>
   </trkpt>
   <trkpt lat="31.7605550" lon="35.1428400">
    <ele>648.3</ele>
    <time>2018-09-22T04:33:00Z</time>
   </trkpt>
   <trkpt lat="31.7605230" lon="35.1428890">
    <ele>648.6</ele>
    <time>2018-09-22T04:33:02Z</time>
   </trkpt>
   <trkpt lat="31.7605080" lon="35.1429410">
    <ele>649.0</ele>
    <time>2018-09-22T04:33:04Z</time>
   </trkpt>
   <trkpt lat="31.7604890" lon="35.1429710">
    <ele>649.1</ele>
    <time>2018-09-22T04:33:05Z</time>
   </trkpt>
   <trkpt lat="31.7604580" lon="35.1430220">
    <ele>649.5</ele>
    <time>2018-09-22T04:33:07Z</time>
   </trkpt>
   <trkpt lat="31.7604510" lon="35.1430660">
    <ele>650.0</ele>
    <time>2018-09-22T04:33:09Z</time>
   </trkpt>
   <trkpt lat="31.7604230" lon="35.1430900">
    <ele>650.3</ele>
    <time>2018-09-22T04:33:10Z</time>
   </trkpt>
   <trkpt lat="31.7604100" lon="35.1431180">
    <ele>650.6</ele>
    <time>2018-09-22T04:33:11Z</time>
   </trkpt>
   <trkpt lat="31.7604010" lon="35.1431640">
    <ele>650.9</ele>
    <time>2018-09-22T04:33:13Z</time>
   </trkpt>
   <trkpt lat="31.7603720" lon="35.1432090">
    <ele>651.0</ele>
    <time>2018-09-22T04:33:15Z</time>
   </trkpt>
   <trkpt lat="31.7603470" lon="35.1432470">
    <ele>651.1</ele>
    <time>2018-09-22T04:33:17Z</time>
   </trkpt>
   <trkpt lat="31.7603240" lon="35.1432730">
    <ele>651.3</ele>
    <time>2018-09-22T04:33:18Z</time>
   </trkpt>
   <trkpt lat="31.7603060" lon="35.1433140">
    <ele>651.5</ele>
    <time>2018-09-22T04:33:20Z</time>
   </trkpt>
   <trkpt lat="31.7602780" lon="35.1433610">
    <ele>651.6</ele>
    <time>2018-09-22T04:33:22Z</time>
   </trkpt>
   <trkpt lat="31.7602750" lon="35.1434090">
    <ele>652.0</ele>
    <time>2018-09-22T04:33:24Z</time>
   </trkpt>
   <trkpt lat="31.7602520" lon="35.1434550">
    <ele>652.5</ele>
    <time>2018-09-22T04:33:26Z</time>
   </trkpt>
   <trkpt lat="31.7602340" lon="35.1435010">
    <ele>652.9</ele>
    <time>2018-09-22T04:33:28Z</time>
   </trkpt>
   <trkpt lat="31.7602110" lon="35.1435480">
    <ele>653.1</ele>
    <time>2018-09-22T04:33:30Z</time>
   </trkpt>
   <trkpt lat="31.7601830" lon="35.1435940">
    <ele>653.2</ele>
    <time>2018-09-22T04:33:32Z</time>
   </trkpt>
   <trkpt lat="31.7601640" lon="35.1436170">
    <ele>653.3</ele>
    <time>2018-09-22T04:33:33Z</time>
   </trkpt>
   <trkpt lat="31.7601090" lon="35.1436540">
    <ele>653.7</ele>
    <time>2018-09-22T04:33:35Z</time>
   </trkpt>
   <trkpt lat="31.7600980" lon="35.1436960">
    <ele>654.0</ele>
    <time>2018-09-22T04:33:37Z</time>
   </trkpt>
   <trkpt lat="31.7600770" lon="35.1437470">
    <ele>654.5</ele>
    <time>2018-09-22T04:33:39Z</time>
   </trkpt>
   <trkpt lat="31.7600580" lon="35.1437880">
    <ele>655.0</ele>
    <time>2018-09-22T04:33:41Z</time>
   </trkpt>
   <trkpt lat="31.7600490" lon="35.1438280">
    <ele>655.4</ele>
    <time>2018-09-22T04:33:43Z</time>
   </trkpt>
   <trkpt lat="31.7600270" lon="35.1438490">
    <ele>655.6</ele>
    <time>2018-09-22T04:33:44Z</time>
   </trkpt>
   <trkpt lat="31.7599930" lon="35.1439050">
    <ele>655.9</ele>
    <time>2018-09-22T04:33:46Z</time>
   </trkpt>
   <trkpt lat="31.7599840" lon="35.1439420">
    <ele>656.1</ele>
    <time>2018-09-22T04:33:48Z</time>
   </trkpt>
   <trkpt lat="31.7599580" lon="35.1439810">
    <ele>656.4</ele>
    <time>2018-09-22T04:33:50Z</time>
   </trkpt>
   <trkpt lat="31.7599290" lon="35.1440250">
    <ele>656.7</ele>
    <time>2018-09-22T04:33:52Z</time>
   </trkpt>
   <trkpt lat="31.7599020" lon="35.1440560">
    <ele>656.9</ele>
    <time>2018-09-22T04:33:54Z</time>
   </trkpt>
   <trkpt lat="31.7598850" lon="35.1440860">
    <ele>657.2</ele>
    <time>2018-09-22T04:33:55Z</time>
   </trkpt>
   <trkpt lat="31.7598750" lon="35.1441290">
    <ele>657.7</ele>
    <time>2018-09-22T04:33:57Z</time>
   </trkpt>
   <trkpt lat="31.7598840" lon="35.1441730">
    <ele>658.3</ele>
    <time>2018-09-22T04:33:59Z</time>
   </trkpt>
   <trkpt lat="31.7599150" lon="35.1441970">
    <ele>658.8</ele>
    <time>2018-09-22T04:34:01Z</time>
   </trkpt>
   <trkpt lat="31.7598950" lon="35.1442500">
    <ele>659.1</ele>
    <time>2018-09-22T04:34:03Z</time>
   </trkpt>
   <trkpt lat="31.7598690" lon="35.1442850">
    <ele>659.3</ele>
    <time>2018-09-22T04:34:05Z</time>
   </trkpt>
   <trkpt lat="31.7598590" lon="35.1443350">
    <ele>659.8</ele>
    <time>2018-09-22T04:34:07Z</time>
   </trkpt>
   <trkpt lat="31.7597990" lon="35.1443740">
    <ele>660.8</ele>
    <time>2018-09-22T04:34:09Z</time>
   </trkpt>
   <trkpt lat="31.7597880" lon="35.1444160">
    <ele>661.0</ele>
    <time>2018-09-22T04:34:11Z</time>
   </trkpt>
   <trkpt lat="31.7597700" lon="35.1444520">
    <ele>661.1</ele>
    <time>2018-09-22T04:34:13Z</time>
   </trkpt>
   <trkpt lat="31.7597320" lon="35.1444970">
    <ele>661.4</ele>
    <time>2018-09-22T04:34:15Z</time>
   </trkpt>
   <trkpt lat="31.7596950" lon="35.1445450">
    <ele>661.7</ele>
    <time>2018-09-22T04:34:17Z</time>
   </trkpt>
   <trkpt lat="31.7596460" lon="35.1445760">
    <ele>662.4</ele>
    <time>2018-09-22T04:34:19Z</time>
   </trkpt>
   <trkpt lat="31.7596360" lon="35.1446130">
    <ele>662.9</ele>
    <time>2018-09-22T04:34:21Z</time>
   </trkpt>
   <trkpt lat="31.7596190" lon="35.1446470">
    <ele>663.2</ele>
    <time>2018-09-22T04:34:23Z</time>
   </trkpt>
   <trkpt lat="31.7595980" lon="35.1446920">
    <ele>663.6</ele>
    <time>2018-09-22T04:34:25Z</time>
   </trkpt>
   <trkpt lat="31.7595760" lon="35.1447320">
    <ele>663.8</ele>
    <time>2018-09-22T04:34:27Z</time>
   </trkpt>
   <trkpt lat="31.7595460" lon="35.1447780">
    <ele>664.2</ele>
    <time>2018-09-22T04:34:29Z</time>
   </trkpt>
   <trkpt lat="31.7595260" lon="35.1448160">
    <ele>664.6</ele>
    <time>2018-09-22T04:34:31Z</time>
   </trkpt>
   <trkpt lat="31.7595040" lon="35.1448460">
    <ele>665.0</ele>
    <time>2018-09-22T04:34:33Z</time>
   </trkpt>
   <trkpt lat="31.7594760" lon="35.1448900">
    <ele>665.4</ele>
    <time>2018-09-22T04:34:35Z</time>
   </trkpt>
   <trkpt lat="31.7594580" lon="35.1449350">
    <ele>665.8</ele>
    <time>2018-09-22T04:34:37Z</time>
   </trkpt>
   <trkpt lat="31.7594290" lon="35.1449750">
    <ele>666.1</ele>
    <time>2018-09-22T04:34:39Z</time>
   </trkpt>
   <trkpt lat="31.7593930" lon="35.1450100">
    <ele>666.5</ele>
    <time>2018-09-22T04:34:41Z</time>
   </trkpt>
   <trkpt lat="31.7593660" lon="35.1450530">
    <ele>666.8</ele>
    <time>2018-09-22T04:34:43Z</time>
   </trkpt>
   <trkpt lat="31.7593360" lon="35.1450910">
    <ele>667.4</ele>
    <time>2018-09-22T04:34:45Z</time>
   </trkpt>
   <trkpt lat="31.7593140" lon="35.1451210">
    <ele>667.9</ele>
    <time>2018-09-22T04:34:47Z</time>
   </trkpt>
   <trkpt lat="31.7592830" lon="35.1451430">
    <ele>668.1</ele>
    <time>2018-09-22T04:34:48Z</time>
   </trkpt>
   <trkpt lat="31.7592450" lon="35.1451660">
    <ele>668.4</ele>
    <time>2018-09-22T04:34:49Z</time>
   </trkpt>
   <trkpt lat="31.7592240" lon="35.1452020">
    <ele>668.8</ele>
    <time>2018-09-22T04:34:51Z</time>
   </trkpt>
   <trkpt lat="31.7591940" lon="35.1452260">
    <ele>669.2</ele>
    <time>2018-09-22T04:34:52Z</time>
   </trkpt>
   <trkpt lat="31.7591590" lon="35.1452570">
    <ele>669.8</ele>
    <time>2018-09-22T04:34:54Z</time>
   </trkpt>
   <trkpt lat="31.7591400" lon="35.1452780">
    <ele>670.2</ele>
    <time>2018-09-22T04:34:55Z</time>
   </trkpt>
   <trkpt lat="31.7591280" lon="35.1453190">
    <ele>670.7</ele>
    <time>2018-09-22T04:34:57Z</time>
   </trkpt>
   <trkpt lat="31.7591070" lon="35.1453530">
    <ele>671.0</ele>
    <time>2018-09-22T04:34:59Z</time>
   </trkpt>
   <trkpt lat="31.7590990" lon="35.1453900">
    <ele>671.3</ele>
    <time>2018-09-22T04:35:01Z</time>
   </trkpt>
   <trkpt lat="31.7590830" lon="35.1454270">
    <ele>671.6</ele>
    <time>2018-09-22T04:35:04Z</time>
   </trkpt>
   <trkpt lat="31.7590570" lon="35.1454620">
    <ele>671.9</ele>
    <time>2018-09-22T04:35:06Z</time>
   </trkpt>
   <trkpt lat="31.7590430" lon="35.1454980">
    <ele>672.1</ele>
    <time>2018-09-22T04:35:08Z</time>
   </trkpt>
   <trkpt lat="31.7590250" lon="35.1455320">
    <ele>672.6</ele>
    <time>2018-09-22T04:35:10Z</time>
   </trkpt>
   <trkpt lat="31.7590130" lon="35.1455670">
    <ele>673.1</ele>
    <time>2018-09-22T04:35:12Z</time>
   </trkpt>
   <trkpt lat="31.7589810" lon="35.1456070">
    <ele>673.5</ele>
    <time>2018-09-22T04:35:14Z</time>
   </trkpt>
   <trkpt lat="31.7589530" lon="35.1456400">
    <ele>673.8</ele>
    <time>2018-09-22T04:35:16Z</time>
   </trkpt>
   <trkpt lat="31.7589180" lon="35.1456690">
    <ele>674.1</ele>
    <time>2018-09-22T04:35:18Z</time>
   </trkpt>
   <trkpt lat="31.7589060" lon="35.1457020">
    <ele>674.3</ele>
    <time>2018-09-22T04:35:20Z</time>
   </trkpt>
   <trkpt lat="31.7588820" lon="35.1457370">
    <ele>674.7</ele>
    <time>2018-09-22T04:35:22Z</time>
   </trkpt>
   <trkpt lat="31.7588580" lon="35.1457650">
    <ele>675.2</ele>
    <time>2018-09-22T04:35:24Z</time>
   </trkpt>
   <trkpt lat="31.7588440" lon="35.1457940">
    <ele>675.6</ele>
    <time>2018-09-22T04:35:26Z</time>
   </trkpt>
   <trkpt lat="31.7588070" lon="35.1458290">
    <ele>675.9</ele>
    <time>2018-09-22T04:35:28Z</time>
   </trkpt>
   <trkpt lat="31.7587840" lon="35.1458680">
    <ele>676.1</ele>
    <time>2018-09-22T04:35:30Z</time>
   </trkpt>
   <trkpt lat="31.7587620" lon="35.1458990">
    <ele>676.3</ele>
    <time>2018-09-22T04:35:32Z</time>
   </trkpt>
   <trkpt lat="31.7587460" lon="35.1459420">
    <ele>676.7</ele>
    <time>2018-09-22T04:35:35Z</time>
   </trkpt>
   <trkpt lat="31.7587200" lon="35.1459850">
    <ele>677.3</ele>
    <time>2018-09-22T04:35:38Z</time>
   </trkpt>
   <trkpt lat="31.7586940" lon="35.1460090">
    <ele>677.8</ele>
    <time>2018-09-22T04:35:40Z</time>
   </trkpt>
   <trkpt lat="31.7586310" lon="35.1460460">
    <ele>678.4</ele>
    <time>2018-09-22T04:35:42Z</time>
   </trkpt>
   <trkpt lat="31.7586010" lon="35.1460690">
    <ele>678.7</ele>
    <time>2018-09-22T04:35:43Z</time>
   </trkpt>
   <trkpt lat="31.7585880" lon="35.1461070">
    <ele>679.1</ele>
    <time>2018-09-22T04:35:45Z</time>
   </trkpt>
   <trkpt lat="31.7585270" lon="35.1461430">
    <ele>680.0</ele>
    <time>2018-09-22T04:35:47Z</time>
   </trkpt>
   <trkpt lat="31.7585310" lon="35.1461870">
    <ele>680.6</ele>
    <time>2018-09-22T04:35:49Z</time>
   </trkpt>
   <trkpt lat="31.7585420" lon="35.1462410">
    <ele>681.0</ele>
    <time>2018-09-22T04:35:51Z</time>
   </trkpt>
   <trkpt lat="31.7585310" lon="35.1462850">
    <ele>681.3</ele>
    <time>2018-09-22T04:35:53Z</time>
   </trkpt>
   <trkpt lat="31.7585320" lon="35.1463300">
    <ele>681.5</ele>
    <time>2018-09-22T04:35:55Z</time>
   </trkpt>
   <trkpt lat="31.7585240" lon="35.1463730">
    <ele>681.8</ele>
    <time>2018-09-22T04:35:57Z</time>
   </trkpt>
   <trkpt lat="31.7585090" lon="35.1464040">
    <ele>682.0</ele>
    <time>2018-09-22T04:35:59Z</time>
   </trkpt>
   <trkpt lat="31.7584990" lon="35.1464550">
    <ele>682.4</ele>
    <time>2018-09-22T04:36:01Z</time>
   </trkpt>
   <trkpt lat="31.7584920" lon="35.1465030">
    <ele>683.0</ele>
    <time>2018-09-22T04:36:03Z</time>
   </trkpt>
   <trkpt lat="31.7584990" lon="35.1465490">
    <ele>683.4</ele>
    <time>2018-09-22T04:36:05Z</time>
   </trkpt>
   <trkpt lat="31.7585000" lon="35.1465860">
    <ele>683.6</ele>
    <time>2018-09-22T04:36:07Z</time>
   </trkpt>
   <trkpt lat="31.7585040" lon="35.1466270">
    <ele>683.8</ele>
    <time>2018-09-22T04:36:09Z</time>
   </trkpt>
   <trkpt lat="31.7585050" lon="35.1466640">
    <ele>683.9</ele>
    <time>2018-09-22T04:36:11Z</time>
   </trkpt>
   <trkpt lat="31.7585150" lon="35.1467080">
    <ele>684.2</ele>
    <time>2018-09-22T04:36:13Z</time>
   </trkpt>
   <trkpt lat="31.7585280" lon="35.1467530">
    <ele>684.8</ele>
    <time>2018-09-22T04:36:15Z</time>
   </trkpt>
   <trkpt lat="31.7585470" lon="35.1467900">
    <ele>685.3</ele>
    <time>2018-09-22T04:36:17Z</time>
   </trkpt>
   <trkpt lat="31.7585630" lon="35.1468300">
    <ele>685.8</ele>
    <time>2018-09-22T04:36:19Z</time>
   </trkpt>
   <trkpt lat="31.7585740" lon="35.1468650">
    <ele>686.1</ele>
    <time>2018-09-22T04:36:21Z</time>
   </trkpt>
   <trkpt lat="31.7585880" lon="35.1469100">
    <ele>686.3</ele>
    <time>2018-09-22T04:36:23Z</time>
   </trkpt>
   <trkpt lat="31.7586120" lon="35.1469500">
    <ele>686.6</ele>
    <time>2018-09-22T04:36:25Z</time>
   </trkpt>
   <trkpt lat="31.7586290" lon="35.1469830">
    <ele>686.7</ele>
    <time>2018-09-22T04:36:27Z</time>
   </trkpt>
   <trkpt lat="31.7586380" lon="35.1470290">
    <ele>686.9</ele>
    <time>2018-09-22T04:36:29Z</time>
   </trkpt>
   <trkpt lat="31.7586250" lon="35.1470610">
    <ele>690.3</ele>
    <time>2018-09-22T04:36:31Z</time>
   </trkpt>
   <trkpt lat="31.7585990" lon="35.1471040">
    <ele>691.6</ele>
    <time>2018-09-22T04:36:33Z</time>
   </trkpt>
   <trkpt lat="31.7585580" lon="35.1471420">
    <ele>693.0</ele>
    <time>2018-09-22T04:36:35Z</time>
   </trkpt>
   <trkpt lat="31.7585310" lon="35.1471770">
    <ele>694.5</ele>
    <time>2018-09-22T04:36:37Z</time>
   </trkpt>
   <trkpt lat="31.7584970" lon="35.1472320">
    <ele>698.6</ele>
    <time>2018-09-22T04:36:39Z</time>
   </trkpt>
   <trkpt lat="31.7584560" lon="35.1472490">
    <ele>701.3</ele>
    <time>2018-09-22T04:36:41Z</time>
   </trkpt>
   <trkpt lat="31.7584200" lon="35.1472680">
    <ele>702.9</ele>
    <time>2018-09-22T04:36:43Z</time>
   </trkpt>
   <trkpt lat="31.7583850" lon="35.1472910">
    <ele>704.2</ele>
    <time>2018-09-22T04:36:45Z</time>
   </trkpt>
   <trkpt lat="31.7583630" lon="35.1473170">
    <ele>705.2</ele>
    <time>2018-09-22T04:36:47Z</time>
   </trkpt>
   <trkpt lat="31.7583300" lon="35.1473460">
    <ele>706.3</ele>
    <time>2018-09-22T04:36:49Z</time>
   </trkpt>
   <trkpt lat="31.7583040" lon="35.1473840">
    <ele>707.4</ele>
    <time>2018-09-22T04:36:51Z</time>
   </trkpt>
   <trkpt lat="31.7582740" lon="35.1474040">
    <ele>708.4</ele>
    <time>2018-09-22T04:36:53Z</time>
   </trkpt>
   <trkpt lat="31.7582490" lon="35.1474180">
    <ele>709.1</ele>
    <time>2018-09-22T04:36:55Z</time>
   </trkpt>
   <trkpt lat="31.7582100" lon="35.1474200">
    <ele>711.0</ele>
    <time>2018-09-22T04:36:59Z</time>
   </trkpt>
   <trkpt lat="31.7581730" lon="35.1474330">
    <ele>713.4</ele>
    <time>2018-09-22T04:37:46Z</time>
   </trkpt>
   <trkpt lat="31.7581510" lon="35.1474560">
    <ele>715.3</ele>
    <time>2018-09-22T04:37:48Z</time>
   </trkpt>
   <trkpt lat="31.7581170" lon="35.1474810">
    <ele>717.1</ele>
    <time>2018-09-22T04:37:50Z</time>
   </trkpt>
   <trkpt lat="31.7580820" lon="35.1475270">
    <ele>717.4</ele>
    <time>2018-09-22T04:37:52Z</time>
   </trkpt>
   <trkpt lat="31.7580430" lon="35.1475710">
    <ele>718.1</ele>
    <time>2018-09-22T04:37:54Z</time>
   </trkpt>
   <trkpt lat="31.7580090" lon="35.1476000">
    <ele>719.2</ele>
    <time>2018-09-22T04:37:56Z</time>
   </trkpt>
   <trkpt lat="31.7579820" lon="35.1476060">
    <ele>719.6</ele>
    <time>2018-09-22T04:37:57Z</time>
   </trkpt>
   <trkpt lat="31.7579490" lon="35.1476250">
    <ele>720.4</ele>
    <time>2018-09-22T04:37:59Z</time>
   </trkpt>
   <trkpt lat="31.7579090" lon="35.1476430">
    <ele>721.3</ele>
    <time>2018-09-22T04:38:01Z</time>
   </trkpt>
   <trkpt lat="31.7578790" lon="35.1476480">
    <ele>721.7</ele>
    <time>2018-09-22T04:38:03Z</time>
   </trkpt>
   <trkpt lat="31.7578470" lon="35.1476360">
    <ele>722.2</ele>
    <time>2018-09-22T04:38:04Z</time>
   </trkpt>
   <trkpt lat="31.7578160" lon="35.1476060">
    <ele>722.8</ele>
    <time>2018-09-22T04:38:06Z</time>
   </trkpt>
   <trkpt lat="31.7577860" lon="35.1475770">
    <ele>723.3</ele>
    <time>2018-09-22T04:38:08Z</time>
   </trkpt>
   <trkpt lat="31.7577560" lon="35.1475510">
    <ele>723.9</ele>
    <time>2018-09-22T04:38:09Z</time>
   </trkpt>
   <trkpt lat="31.7577310" lon="35.1475320">
    <ele>724.3</ele>
    <time>2018-09-22T04:38:10Z</time>
   </trkpt>
   <trkpt lat="31.7576930" lon="35.1475200">
    <ele>725.1</ele>
    <time>2018-09-22T04:38:12Z</time>
   </trkpt>
   <trkpt lat="31.7576660" lon="35.1475380">
    <ele>725.7</ele>
    <time>2018-09-22T04:38:14Z</time>
   </trkpt>
   <trkpt lat="31.7576320" lon="35.1475560">
    <ele>726.2</ele>
    <time>2018-09-22T04:38:16Z</time>
   </trkpt>
   <trkpt lat="31.7576060" lon="35.1475730">
    <ele>726.6</ele>
    <time>2018-09-22T04:38:18Z</time>
   </trkpt>
   <trkpt lat="31.7575750" lon="35.1475890">
    <ele>726.9</ele>
    <time>2018-09-22T04:38:20Z</time>
   </trkpt>
   <trkpt lat="31.7575460" lon="35.1476020">
    <ele>727.2</ele>
    <time>2018-09-22T04:38:22Z</time>
   </trkpt>
   <trkpt lat="31.7575030" lon="35.1476170">
    <ele>728.0</ele>
    <time>2018-09-22T04:38:24Z</time>
   </trkpt>
   <trkpt lat="31.7574670" lon="35.1476250">
    <ele>728.3</ele>
    <time>2018-09-22T04:38:26Z</time>
   </trkpt>
   <trkpt lat="31.7574320" lon="35.1476320">
    <ele>728.6</ele>
    <time>2018-09-22T04:38:29Z</time>
   </trkpt>
   <trkpt lat="31.7574080" lon="35.1476520">
    <ele>728.8</ele>
    <time>2018-09-22T04:38:31Z</time>
   </trkpt>
   <trkpt lat="31.7573720" lon="35.1476660">
    <ele>729.1</ele>
    <time>2018-09-22T04:38:33Z</time>
   </trkpt>
   <trkpt lat="31.7573370" lon="35.1476970">
    <ele>729.3</ele>
    <time>2018-09-22T04:38:36Z</time>
   </trkpt>
   <trkpt lat="31.7573150" lon="35.1477350">
    <ele>729.4</ele>
    <time>2018-09-22T04:38:39Z</time>
   </trkpt>
   <trkpt lat="31.7572840" lon="35.1477680">
    <ele>729.5</ele>
    <time>2018-09-22T04:38:41Z</time>
   </trkpt>
   <trkpt lat="31.7572630" lon="35.1477970">
    <ele>729.6</ele>
    <time>2018-09-22T04:38:43Z</time>
   </trkpt>
   <trkpt lat="31.7572350" lon="35.1478260">
    <ele>729.7</ele>
    <time>2018-09-22T04:38:45Z</time>
   </trkpt>
   <trkpt lat="31.7572070" lon="35.1478520">
    <ele>729.8</ele>
    <time>2018-09-22T04:38:47Z</time>
   </trkpt>
   <trkpt lat="31.7571820" lon="35.1478770">
    <ele>729.8</ele>
    <time>2018-09-22T04:38:49Z</time>
   </trkpt>
   <trkpt lat="31.7571480" lon="35.1479140">
    <ele>729.9</ele>
    <time>2018-09-22T04:38:52Z</time>
   </trkpt>
   <trkpt lat="31.7571220" lon="35.1479490">
    <ele>730.0</ele>
    <time>2018-09-22T04:38:54Z</time>
   </trkpt>
   <trkpt lat="31.7571100" lon="35.1479880">
    <ele>730.0</ele>
    <time>2018-09-22T04:38:56Z</time>
   </trkpt>
   <trkpt lat="31.7570920" lon="35.1480110">
    <ele>730.0</ele>
    <time>2018-09-22T04:38:57Z</time>
   </trkpt>
   <trkpt lat="31.7570660" lon="35.1480460">
    <ele>730.0</ele>
    <time>2018-09-22T04:38:59Z</time>
   </trkpt>
   <trkpt lat="31.7570500" lon="35.1480790">
    <ele>729.9</ele>
    <time>2018-09-22T04:39:01Z</time>
   </trkpt>
   <trkpt lat="31.7570340" lon="35.1481160">
    <ele>729.9</ele>
    <time>2018-09-22T04:39:03Z</time>
   </trkpt>
   <trkpt lat="31.7570100" lon="35.1481450">
    <ele>729.8</ele>
    <time>2018-09-22T04:39:05Z</time>
   </trkpt>
   <trkpt lat="31.7569980" lon="35.1481800">
    <ele>729.6</ele>
    <time>2018-09-22T04:39:07Z</time>
   </trkpt>
   <trkpt lat="31.7569690" lon="35.1482110">
    <ele>729.2</ele>
    <time>2018-09-22T04:39:09Z</time>
   </trkpt>
   <trkpt lat="31.7569420" lon="35.1482470">
    <ele>729.0</ele>
    <time>2018-09-22T04:39:12Z</time>
   </trkpt>
   <trkpt lat="31.7569190" lon="35.1482890">
    <ele>728.7</ele>
    <time>2018-09-22T04:39:15Z</time>
   </trkpt>
   <trkpt lat="31.7568870" lon="35.1483210">
    <ele>728.3</ele>
    <time>2018-09-22T04:39:18Z</time>
   </trkpt>
   <trkpt lat="31.7568630" lon="35.1483430">
    <ele>727.9</ele>
    <time>2018-09-22T04:39:21Z</time>
   </trkpt>
   <trkpt lat="31.7568270" lon="35.1483550">
    <ele>727.5</ele>
    <time>2018-09-22T04:39:24Z</time>
   </trkpt>
   <trkpt lat="31.7567960" lon="35.1483710">
    <ele>727.3</ele>
    <time>2018-09-22T04:39:26Z</time>
   </trkpt>
   <trkpt lat="31.7567670" lon="35.1483950">
    <ele>727.1</ele>
    <time>2018-09-22T04:39:29Z</time>
   </trkpt>
   <trkpt lat="31.7567360" lon="35.1484150">
    <ele>727.1</ele>
    <time>2018-09-22T04:39:32Z</time>
   </trkpt>
   <trkpt lat="31.7567100" lon="35.1484260">
    <ele>727.1</ele>
    <time>2018-09-22T04:39:34Z</time>
   </trkpt>
   <trkpt lat="31.7566820" lon="35.1484410">
    <ele>727.1</ele>
    <time>2018-09-22T04:39:36Z</time>
   </trkpt>
   <trkpt lat="31.7566430" lon="35.1484210">
    <ele>727.2</ele>
    <time>2018-09-22T04:39:38Z</time>
   </trkpt>
   <trkpt lat="31.7566220" lon="35.1484010">
    <ele>726.7</ele>
    <time>2018-09-22T04:39:44Z</time>
   </trkpt>
   <trkpt lat="31.7566350" lon="35.1483660">
    <ele>726.6</ele>
    <time>2018-09-22T04:39:58Z</time>
   </trkpt>
   <trkpt lat="31.7566770" lon="35.1483500">
    <ele>726.5</ele>
    <time>2018-09-22T04:40:00Z</time>
   </trkpt>
   <trkpt lat="31.7567050" lon="35.1483400">
    <ele>726.5</ele>
    <time>2018-09-22T04:40:01Z</time>
   </trkpt>
   <trkpt lat="31.7567310" lon="35.1483320">
    <ele>726.5</ele>
    <time>2018-09-22T04:40:02Z</time>
   </trkpt>
   <trkpt lat="31.7567630" lon="35.1483180">
    <ele>726.5</ele>
    <time>2018-09-22T04:40:03Z</time>
   </trkpt>
   <trkpt lat="31.7567990" lon="35.1482940">
    <ele>726.6</ele>
    <time>2018-09-22T04:40:04Z</time>
   </trkpt>
   <trkpt lat="31.7568210" lon="35.1482560">
    <ele>726.7</ele>
    <time>2018-09-22T04:40:05Z</time>
   </trkpt>
   <trkpt lat="31.7568480" lon="35.1482150">
    <ele>727.0</ele>
    <time>2018-09-22T04:40:06Z</time>
   </trkpt>
   <trkpt lat="31.7568720" lon="35.1481750">
    <ele>727.2</ele>
    <time>2018-09-22T04:40:07Z</time>
   </trkpt>
   <trkpt lat="31.7568940" lon="35.1481390">
    <ele>727.4</ele>
    <time>2018-09-22T04:40:08Z</time>
   </trkpt>
   <trkpt lat="31.7569180" lon="35.1481040">
    <ele>727.6</ele>
    <time>2018-09-22T04:40:09Z</time>
   </trkpt>
   <trkpt lat="31.7569380" lon="35.1480670">
    <ele>727.8</ele>
    <time>2018-09-22T04:40:10Z</time>
   </trkpt>
   <trkpt lat="31.7569530" lon="35.1480270">
    <ele>728.0</ele>
    <time>2018-09-22T04:40:11Z</time>
   </trkpt>
   <trkpt lat="31.7569740" lon="35.1479940">
    <ele>728.2</ele>
    <time>2018-09-22T04:40:12Z</time>
   </trkpt>
   <trkpt lat="31.7569920" lon="35.1479610">
    <ele>728.3</ele>
    <time>2018-09-22T04:40:13Z</time>
   </trkpt>
   <trkpt lat="31.7570060" lon="35.1479250">
    <ele>728.5</ele>
    <time>2018-09-22T04:40:14Z</time>
   </trkpt>
   <trkpt lat="31.7570180" lon="35.1478890">
    <ele>728.7</ele>
    <time>2018-09-22T04:40:15Z</time>
   </trkpt>
   <trkpt lat="31.7570280" lon="35.1478590">
    <ele>728.8</ele>
    <time>2018-09-22T04:40:16Z</time>
   </trkpt>
   <trkpt lat="31.7570430" lon="35.1478250">
    <ele>729.0</ele>
    <time>2018-09-22T04:40:17Z</time>
   </trkpt>
   <trkpt lat="31.7570550" lon="35.1477930">
    <ele>729.1</ele>
    <time>2018-09-22T04:40:18Z</time>
   </trkpt>
   <trkpt lat="31.7570700" lon="35.1477650">
    <ele>729.3</ele>
    <time>2018-09-22T04:40:19Z</time>
   </trkpt>
   <trkpt lat="31.7570870" lon="35.1477380">
    <ele>729.4</ele>
    <time>2018-09-22T04:40:20Z</time>
   </trkpt>
   <trkpt lat="31.7570990" lon="35.1477090">
    <ele>729.6</ele>
    <time>2018-09-22T04:40:21Z</time>
   </trkpt>
   <trkpt lat="31.7571160" lon="35.1476820">
    <ele>729.7</ele>
    <time>2018-09-22T04:40:22Z</time>
   </trkpt>
   <trkpt lat="31.7571380" lon="35.1476300">
    <ele>729.8</ele>
    <time>2018-09-22T04:40:24Z</time>
   </trkpt>
   <trkpt lat="31.7571570" lon="35.1475690">
    <ele>729.9</ele>
    <time>2018-09-22T04:40:26Z</time>
   </trkpt>
   <trkpt lat="31.7571700" lon="35.1475390">
    <ele>730.0</ele>
    <time>2018-09-22T04:40:27Z</time>
   </trkpt>
   <trkpt lat="31.7571850" lon="35.1475090">
    <ele>730.0</ele>
    <time>2018-09-22T04:40:28Z</time>
   </trkpt>
   <trkpt lat="31.7572020" lon="35.1474830">
    <ele>730.0</ele>
    <time>2018-09-22T04:40:29Z</time>
   </trkpt>
   <trkpt lat="31.7572240" lon="35.1474600">
    <ele>730.0</ele>
    <time>2018-09-22T04:40:30Z</time>
   </trkpt>
   <trkpt lat="31.7572540" lon="35.1474330">
    <ele>730.1</ele>
    <time>2018-09-22T04:40:31Z</time>
   </trkpt>
   <trkpt lat="31.7572800" lon="35.1474080">
    <ele>730.1</ele>
    <time>2018-09-22T04:40:32Z</time>
   </trkpt>
   <trkpt lat="31.7572970" lon="35.1473790">
    <ele>730.1</ele>
    <time>2018-09-22T04:40:33Z</time>
   </trkpt>
   <trkpt lat="31.7573180" lon="35.1473540">
    <ele>730.1</ele>
    <time>2018-09-22T04:40:34Z</time>
   </trkpt>
   <trkpt lat="31.7573400" lon="35.1473250">
    <ele>730.2</ele>
    <time>2018-09-22T04:40:35Z</time>
   </trkpt>
   <trkpt lat="31.7573590" lon="35.1472920">
    <ele>730.4</ele>
    <time>2018-09-22T04:40:36Z</time>
   </trkpt>
   <trkpt lat="31.7573710" lon="35.1472600">
    <ele>730.4</ele>
    <time>2018-09-22T04:40:37Z</time>
   </trkpt>
   <trkpt lat="31.7573990" lon="35.1472060">
    <ele>730.5</ele>
    <time>2018-09-22T04:40:39Z</time>
   </trkpt>
   <trkpt lat="31.7574110" lon="35.1471760">
    <ele>730.6</ele>
    <time>2018-09-22T04:40:40Z</time>
   </trkpt>
   <trkpt lat="31.7574340" lon="35.1471200">
    <ele>730.6</ele>
    <time>2018-09-22T04:40:42Z</time>
   </trkpt>
   <trkpt lat="31.7574540" lon="35.1470630">
    <ele>730.7</ele>
    <time>2018-09-22T04:40:44Z</time>
   </trkpt>
   <trkpt lat="31.7574670" lon="35.1470340">
    <ele>730.7</ele>
    <time>2018-09-22T04:40:45Z</time>
   </trkpt>
   <trkpt lat="31.7574900" lon="35.1469900">
    <ele>730.7</ele>
    <time>2018-09-22T04:40:47Z</time>
   </trkpt>
   <trkpt lat="31.7575150" lon="35.1469570">
    <ele>730.8</ele>
    <time>2018-09-22T04:40:49Z</time>
   </trkpt>
   <trkpt lat="31.7575430" lon="35.1469310">
    <ele>730.8</ele>
    <time>2018-09-22T04:40:51Z</time>
   </trkpt>
   <trkpt lat="31.7575690" lon="35.1469150">
    <ele>730.9</ele>
    <time>2018-09-22T04:40:52Z</time>
   </trkpt>
   <trkpt lat="31.7575990" lon="35.1468910">
    <ele>731.0</ele>
    <time>2018-09-22T04:40:53Z</time>
   </trkpt>
   <trkpt lat="31.7576240" lon="35.1468610">
    <ele>731.1</ele>
    <time>2018-09-22T04:40:54Z</time>
   </trkpt>
   <trkpt lat="31.7576480" lon="35.1468240">
    <ele>731.3</ele>
    <time>2018-09-22T04:40:55Z</time>
   </trkpt>
   <trkpt lat="31.7576690" lon="35.1467840">
    <ele>731.4</ele>
    <time>2018-09-22T04:40:56Z</time>
   </trkpt>
   <trkpt lat="31.7576850" lon="35.1467380">
    <ele>731.6</ele>
    <time>2018-09-22T04:40:57Z</time>
   </trkpt>
   <trkpt lat="31.7577010" lon="35.1466940">
    <ele>731.7</ele>
    <time>2018-09-22T04:40:58Z</time>
   </trkpt>
   <trkpt lat="31.7577230" lon="35.1466480">
    <ele>732.0</ele>
    <time>2018-09-22T04:40:59Z</time>
   </trkpt>
   <trkpt lat="31.7577420" lon="35.1466090">
    <ele>732.2</ele>
    <time>2018-09-22T04:41:00Z</time>
   </trkpt>
   <trkpt lat="31.7577630" lon="35.1465690">
    <ele>732.3</ele>
    <time>2018-09-22T04:41:01Z</time>
   </trkpt>
   <trkpt lat="31.7577840" lon="35.1465320">
    <ele>732.5</ele>
    <time>2018-09-22T04:41:02Z</time>
   </trkpt>
   <trkpt lat="31.7578000" lon="35.1464920">
    <ele>732.6</ele>
    <time>2018-09-22T04:41:03Z</time>
   </trkpt>
   <trkpt lat="31.7578160" lon="35.1464540">
    <ele>732.8</ele>
    <time>2018-09-22T04:41:04Z</time>
   </trkpt>
   <trkpt lat="31.7578300" lon="35.1464180">
    <ele>732.9</ele>
    <time>2018-09-22T04:41:05Z</time>
   </trkpt>
   <trkpt lat="31.7578520" lon="35.1463830">
    <ele>733.0</ele>
    <time>2018-09-22T04:41:06Z</time>
   </trkpt>
   <trkpt lat="31.7578680" lon="35.1463480">
    <ele>733.2</ele>
    <time>2018-09-22T04:41:07Z</time>
   </trkpt>
   <trkpt lat="31.7578830" lon="35.1463090">
    <ele>733.3</ele>
    <time>2018-09-22T04:41:08Z</time>
   </trkpt>
   <trkpt lat="31.7578970" lon="35.1462770">
    <ele>733.6</ele>
    <time>2018-09-22T04:41:09Z</time>
   </trkpt>
   <trkpt lat="31.7579160" lon="35.1462460">
    <ele>733.6</ele>
    <time>2018-09-22T04:41:10Z</time>
   </trkpt>
   <trkpt lat="31.7579400" lon="35.1462140">
    <ele>733.6</ele>
    <time>2018-09-22T04:41:11Z</time>
   </trkpt>
   <trkpt lat="31.7579680" lon="35.1461810">
    <ele>733.7</ele>
    <time>2018-09-22T04:41:12Z</time>
   </trkpt>
   <trkpt lat="31.7579960" lon="35.1461380">
    <ele>733.9</ele>
    <time>2018-09-22T04:41:13Z</time>
   </trkpt>
   <trkpt lat="31.7580230" lon="35.1460900">
    <ele>734.1</ele>
    <time>2018-09-22T04:41:14Z</time>
   </trkpt>
   <trkpt lat="31.7580500" lon="35.1460350">
    <ele>734.4</ele>
    <time>2018-09-22T04:41:15Z</time>
   </trkpt>
   <trkpt lat="31.7580680" lon="35.1459840">
    <ele>734.7</ele>
    <time>2018-09-22T04:41:16Z</time>
   </trkpt>
   <trkpt lat="31.7580840" lon="35.1459240">
    <ele>735.0</ele>
    <time>2018-09-22T04:41:17Z</time>
   </trkpt>
   <trkpt lat="31.7581030" lon="35.1458710">
    <ele>735.3</ele>
    <time>2018-09-22T04:41:18Z</time>
   </trkpt>
   <trkpt lat="31.7581160" lon="35.1458180">
    <ele>735.6</ele>
    <time>2018-09-22T04:41:19Z</time>
   </trkpt>
   <trkpt lat="31.7581280" lon="35.1457700">
    <ele>735.9</ele>
    <time>2018-09-22T04:41:20Z</time>
   </trkpt>
   <trkpt lat="31.7581420" lon="35.1457180">
    <ele>736.1</ele>
    <time>2018-09-22T04:41:21Z</time>
   </trkpt>
   <trkpt lat="31.7581660" lon="35.1456740">
    <ele>736.3</ele>
    <time>2018-09-22T04:41:22Z</time>
   </trkpt>
   <trkpt lat="31.7581850" lon="35.1456210">
    <ele>736.4</ele>
    <time>2018-09-22T04:41:23Z</time>
   </trkpt>
   <trkpt lat="31.7582050" lon="35.1455720">
    <ele>736.5</ele>
    <time>2018-09-22T04:41:24Z</time>
   </trkpt>
   <trkpt lat="31.7582270" lon="35.1455320">
    <ele>736.5</ele>
    <time>2018-09-22T04:41:25Z</time>
   </trkpt>
   <trkpt lat="31.7582560" lon="35.1454870">
    <ele>736.5</ele>
    <time>2018-09-22T04:41:26Z</time>
   </trkpt>
   <trkpt lat="31.7582820" lon="35.1454440">
    <ele>736.5</ele>
    <time>2018-09-22T04:41:27Z</time>
   </trkpt>
   <trkpt lat="31.7583120" lon="35.1453970">
    <ele>736.4</ele>
    <time>2018-09-22T04:41:28Z</time>
   </trkpt>
   <trkpt lat="31.7583400" lon="35.1453410">
    <ele>736.4</ele>
    <time>2018-09-22T04:41:29Z</time>
   </trkpt>
   <trkpt lat="31.7583610" lon="35.1452810">
    <ele>736.3</ele>
    <time>2018-09-22T04:41:30Z</time>
   </trkpt>
   <trkpt lat="31.7583880" lon="35.1452240">
    <ele>736.2</ele>
    <time>2018-09-22T04:41:31Z</time>
   </trkpt>
   <trkpt lat="31.7584180" lon="35.1451610">
    <ele>736.0</ele>
    <time>2018-09-22T04:41:32Z</time>
   </trkpt>
   <trkpt lat="31.7584490" lon="35.1451080">
    <ele>736.0</ele>
    <time>2018-09-22T04:41:33Z</time>
   </trkpt>
   <trkpt lat="31.7584790" lon="35.1450680">
    <ele>736.2</ele>
    <time>2018-09-22T04:41:34Z</time>
   </trkpt>
   <trkpt lat="31.7585040" lon="35.1450240">
    <ele>736.4</ele>
    <time>2018-09-22T04:41:35Z</time>
   </trkpt>
   <trkpt lat="31.7585220" lon="35.1449890">
    <ele>736.5</ele>
    <time>2018-09-22T04:41:36Z</time>
   </trkpt>
   <trkpt lat="31.7585410" lon="35.1449530">
    <ele>736.7</ele>
    <time>2018-09-22T04:41:37Z</time>
   </trkpt>
   <trkpt lat="31.7585590" lon="35.1449170">
    <ele>736.8</ele>
    <time>2018-09-22T04:41:38Z</time>
   </trkpt>
   <trkpt lat="31.7585780" lon="35.1448800">
    <ele>737.0</ele>
    <time>2018-09-22T04:41:39Z</time>
   </trkpt>
   <trkpt lat="31.7585940" lon="35.1448450">
    <ele>737.1</ele>
    <time>2018-09-22T04:41:40Z</time>
   </trkpt>
   <trkpt lat="31.7586120" lon="35.1448070">
    <ele>737.2</ele>
    <time>2018-09-22T04:41:41Z</time>
   </trkpt>
   <trkpt lat="31.7586290" lon="35.1447670">
    <ele>737.3</ele>
    <time>2018-09-22T04:41:42Z</time>
   </trkpt>
   <trkpt lat="31.7586500" lon="35.1447380">
    <ele>737.3</ele>
    <time>2018-09-22T04:41:43Z</time>
   </trkpt>
   <trkpt lat="31.7586690" lon="35.1447060">
    <ele>737.2</ele>
    <time>2018-09-22T04:41:44Z</time>
   </trkpt>
   <trkpt lat="31.7586870" lon="35.1446740">
    <ele>737.1</ele>
    <time>2018-09-22T04:41:45Z</time>
   </trkpt>
   <trkpt lat="31.7587050" lon="35.1446440">
    <ele>737.0</ele>
    <time>2018-09-22T04:41:46Z</time>
   </trkpt>
   <trkpt lat="31.7587250" lon="35.1446070">
    <ele>736.8</ele>
    <time>2018-09-22T04:41:47Z</time>
   </trkpt>
   <trkpt lat="31.7587360" lon="35.1445670">
    <ele>736.7</ele>
    <time>2018-09-22T04:41:48Z</time>
   </trkpt>
   <trkpt lat="31.7587510" lon="35.1445300">
    <ele>736.6</ele>
    <time>2018-09-22T04:41:49Z</time>
   </trkpt>
   <trkpt lat="31.7587670" lon="35.1444970">
    <ele>736.4</ele>
    <time>2018-09-22T04:41:50Z</time>
   </trkpt>
   <trkpt lat="31.7587820" lon="35.1444640">
    <ele>736.3</ele>
    <time>2018-09-22T04:41:51Z</time>
   </trkpt>
   <trkpt lat="31.7588020" lon="35.1444270">
    <ele>736.2</ele>
    <time>2018-09-22T04:41:52Z</time>
   </trkpt>
   <trkpt lat="31.7588160" lon="35.1443860">
    <ele>736.0</ele>
    <time>2018-09-22T04:41:53Z</time>
   </trkpt>
   <trkpt lat="31.7588300" lon="35.1443520">
    <ele>735.9</ele>
    <time>2018-09-22T04:41:54Z</time>
   </trkpt>
   <trkpt lat="31.7588440" lon="35.1443160">
    <ele>735.8</ele>
    <time>2018-09-22T04:41:55Z</time>
   </trkpt>
   <trkpt lat="31.7588580" lon="35.1442770">
    <ele>735.7</ele>
    <time>2018-09-22T04:41:56Z</time>
   </trkpt>
   <trkpt lat="31.7588740" lon="35.1442360">
    <ele>735.6</ele>
    <time>2018-09-22T04:41:57Z</time>
   </trkpt>
   <trkpt lat="31.7588840" lon="35.1441980">
    <ele>735.6</ele>
    <time>2018-09-22T04:41:58Z</time>
   </trkpt>
   <trkpt lat="31.7588970" lon="35.1441520">
    <ele>735.7</ele>
    <time>2018-09-22T04:41:59Z</time>
   </trkpt>
   <trkpt lat="31.7589090" lon="35.1441100">
    <ele>736.0</ele>
    <time>2018-09-22T04:42:00Z</time>
   </trkpt>
   <trkpt lat="31.7589250" lon="35.1440610">
    <ele>736.3</ele>
    <time>2018-09-22T04:42:01Z</time>
   </trkpt>
   <trkpt lat="31.7589380" lon="35.1440190">
    <ele>736.5</ele>
    <time>2018-09-22T04:42:02Z</time>
   </trkpt>
   <trkpt lat="31.7589480" lon="35.1439800">
    <ele>736.7</ele>
    <time>2018-09-22T04:42:03Z</time>
   </trkpt>
   <trkpt lat="31.7589490" lon="35.1439410">
    <ele>737.0</ele>
    <time>2018-09-22T04:42:04Z</time>
   </trkpt>
   <trkpt lat="31.7589500" lon="35.1438990">
    <ele>737.4</ele>
    <time>2018-09-22T04:42:05Z</time>
   </trkpt>
   <trkpt lat="31.7589590" lon="35.1438440">
    <ele>737.9</ele>
    <time>2018-09-22T04:42:07Z</time>
   </trkpt>
   <trkpt lat="31.7589660" lon="35.1438040">
    <ele>738.4</ele>
    <time>2018-09-22T04:42:08Z</time>
   </trkpt>
   <trkpt lat="31.7589670" lon="35.1437640">
    <ele>738.7</ele>
    <time>2018-09-22T04:42:09Z</time>
   </trkpt>
   <trkpt lat="31.7589730" lon="35.1437300">
    <ele>738.9</ele>
    <time>2018-09-22T04:42:10Z</time>
   </trkpt>
   <trkpt lat="31.7589870" lon="35.1436950">
    <ele>739.0</ele>
    <time>2018-09-22T04:42:11Z</time>
   </trkpt>
   <trkpt lat="31.7590060" lon="35.1436330">
    <ele>739.2</ele>
    <time>2018-09-22T04:42:13Z</time>
   </trkpt>
   <trkpt lat="31.7590230" lon="35.1436060">
    <ele>739.3</ele>
    <time>2018-09-22T04:42:14Z</time>
   </trkpt>
   <trkpt lat="31.7590340" lon="35.1435590">
    <ele>739.3</ele>
    <time>2018-09-22T04:42:15Z</time>
   </trkpt>
   <trkpt lat="31.7590480" lon="35.1435260">
    <ele>739.3</ele>
    <time>2018-09-22T04:42:16Z</time>
   </trkpt>
   <trkpt lat="31.7590600" lon="35.1434930">
    <ele>739.2</ele>
    <time>2018-09-22T04:42:17Z</time>
   </trkpt>
   <trkpt lat="31.7590690" lon="35.1434540">
    <ele>739.2</ele>
    <time>2018-09-22T04:42:18Z</time>
   </trkpt>
   <trkpt lat="31.7590790" lon="35.1434200">
    <ele>739.2</ele>
    <time>2018-09-22T04:42:19Z</time>
   </trkpt>
   <trkpt lat="31.7590710" lon="35.1433670">
    <ele>739.1</ele>
    <time>2018-09-22T04:42:20Z</time>
   </trkpt>
   <trkpt lat="31.7590810" lon="35.1433260">
    <ele>739.1</ele>
    <time>2018-09-22T04:42:21Z</time>
   </trkpt>
   <trkpt lat="31.7590850" lon="35.1432800">
    <ele>739.0</ele>
    <time>2018-09-22T04:42:22Z</time>
   </trkpt>
   <trkpt lat="31.7590910" lon="35.1432390">
    <ele>739.0</ele>
    <time>2018-09-22T04:42:23Z</time>
   </trkpt>
   <trkpt lat="31.7590940" lon="35.1431970">
    <ele>738.9</ele>
    <time>2018-09-22T04:42:24Z</time>
   </trkpt>
   <trkpt lat="31.7591010" lon="35.1431590">
    <ele>738.9</ele>
    <time>2018-09-22T04:42:25Z</time>
   </trkpt>
   <trkpt lat="31.7591090" lon="35.1431170">
    <ele>738.7</ele>
    <time>2018-09-22T04:42:26Z</time>
   </trkpt>
   <trkpt lat="31.7591200" lon="35.1430710">
    <ele>738.5</ele>
    <time>2018-09-22T04:42:27Z</time>
   </trkpt>
   <trkpt lat="31.7591400" lon="35.1430110">
    <ele>738.2</ele>
    <time>2018-09-22T04:42:28Z</time>
   </trkpt>
   <trkpt lat="31.7591670" lon="35.1429530">
    <ele>737.9</ele>
    <time>2018-09-22T04:42:29Z</time>
   </trkpt>
   <trkpt lat="31.7591510" lon="35.1429170">
    <ele>737.6</ele>
    <time>2018-09-22T04:42:30Z</time>
   </trkpt>
   <trkpt lat="31.7591840" lon="35.1428700">
    <ele>737.2</ele>
    <time>2018-09-22T04:42:32Z</time>
   </trkpt>
   <trkpt lat="31.7591870" lon="35.1427980">
    <ele>736.8</ele>
    <time>2018-09-22T04:42:34Z</time>
   </trkpt>
   <trkpt lat="31.7592080" lon="35.1427630">
    <ele>736.5</ele>
    <time>2018-09-22T04:42:35Z</time>
   </trkpt>
   <trkpt lat="31.7592130" lon="35.1427260">
    <ele>736.3</ele>
    <time>2018-09-22T04:42:36Z</time>
   </trkpt>
   <trkpt lat="31.7592290" lon="35.1426980">
    <ele>736.0</ele>
    <time>2018-09-22T04:42:37Z</time>
   </trkpt>
   <trkpt lat="31.7592410" lon="35.1426600">
    <ele>735.7</ele>
    <time>2018-09-22T04:42:38Z</time>
   </trkpt>
   <trkpt lat="31.7592500" lon="35.1426230">
    <ele>735.3</ele>
    <time>2018-09-22T04:42:39Z</time>
   </trkpt>
   <trkpt lat="31.7592730" lon="35.1425690">
    <ele>734.6</ele>
    <time>2018-09-22T04:42:41Z</time>
   </trkpt>
   <trkpt lat="31.7592960" lon="35.1425090">
    <ele>733.9</ele>
    <time>2018-09-22T04:42:43Z</time>
   </trkpt>
   <trkpt lat="31.7593180" lon="35.1424760">
    <ele>733.1</ele>
    <time>2018-09-22T04:42:44Z</time>
   </trkpt>
   <trkpt lat="31.7593350" lon="35.1424450">
    <ele>732.4</ele>
    <time>2018-09-22T04:42:45Z</time>
   </trkpt>
   <trkpt lat="31.7593470" lon="35.1424010">
    <ele>731.9</ele>
    <time>2018-09-22T04:42:46Z</time>
   </trkpt>
   <trkpt lat="31.7593680" lon="35.1423370">
    <ele>731.0</ele>
    <time>2018-09-22T04:42:47Z</time>
   </trkpt>
   <trkpt lat="31.7593900" lon="35.1422840">
    <ele>730.3</ele>
    <time>2018-09-22T04:42:48Z</time>
   </trkpt>
   <trkpt lat="31.7593890" lon="35.1422350">
    <ele>729.5</ele>
    <time>2018-09-22T04:42:49Z</time>
   </trkpt>
   <trkpt lat="31.7593890" lon="35.1421890">
    <ele>728.8</ele>
    <time>2018-09-22T04:42:50Z</time>
   </trkpt>
   <trkpt lat="31.7593890" lon="35.1421290">
    <ele>727.4</ele>
    <time>2018-09-22T04:42:51Z</time>
   </trkpt>
   <trkpt lat="31.7593780" lon="35.1420680">
    <ele>726.6</ele>
    <time>2018-09-22T04:42:52Z</time>
   </trkpt>
   <trkpt lat="31.7593630" lon="35.1420080">
    <ele>725.8</ele>
    <time>2018-09-22T04:42:53Z</time>
   </trkpt>
   <trkpt lat="31.7593430" lon="35.1419330">
    <ele>724.6</ele>
    <time>2018-09-22T04:42:54Z</time>
   </trkpt>
   <trkpt lat="31.7593210" lon="35.1418740">
    <ele>723.5</ele>
    <time>2018-09-22T04:42:55Z</time>
   </trkpt>
   <trkpt lat="31.7592930" lon="35.1418060">
    <ele>722.4</ele>
    <time>2018-09-22T04:42:56Z</time>
   </trkpt>
   <trkpt lat="31.7592600" lon="35.1417350">
    <ele>721.4</ele>
    <time>2018-09-22T04:42:57Z</time>
   </trkpt>
   <trkpt lat="31.7592220" lon="35.1416600">
    <ele>720.4</ele>
    <time>2018-09-22T04:42:58Z</time>
   </trkpt>
   <trkpt lat="31.7591940" lon="35.1415860">
    <ele>719.5</ele>
    <time>2018-09-22T04:42:59Z</time>
   </trkpt>
   <trkpt lat="31.7591750" lon="35.1415010">
    <ele>718.4</ele>
    <time>2018-09-22T04:43:00Z</time>
   </trkpt>
   <trkpt lat="31.7591650" lon="35.1414040">
    <ele>717.2</ele>
    <time>2018-09-22T04:43:01Z</time>
   </trkpt>
   <trkpt lat="31.7591300" lon="35.1413150">
    <ele>716.0</ele>
    <time>2018-09-22T04:43:02Z</time>
   </trkpt>
   <trkpt lat="31.7590830" lon="35.1412260">
    <ele>714.4</ele>
    <time>2018-09-22T04:43:03Z</time>
   </trkpt>
   <trkpt lat="31.7590470" lon="35.1411350">
    <ele>712.6</ele>
    <time>2018-09-22T04:43:04Z</time>
   </trkpt>
   <trkpt lat="31.7590120" lon="35.1410500">
    <ele>710.4</ele>
    <time>2018-09-22T04:43:05Z</time>
   </trkpt>
   <trkpt lat="31.7589750" lon="35.1409730">
    <ele>708.9</ele>
    <time>2018-09-22T04:43:06Z</time>
   </trkpt>
   <trkpt lat="31.7589450" lon="35.1409270">
    <ele>708.2</ele>
    <time>2018-09-22T04:43:07Z</time>
   </trkpt>
   <trkpt lat="31.7589100" lon="35.1409050">
    <ele>707.6</ele>
    <time>2018-09-22T04:43:08Z</time>
   </trkpt>
   <trkpt lat="31.7588620" lon="35.1408950">
    <ele>706.9</ele>
    <time>2018-09-22T04:43:09Z</time>
   </trkpt>
   <trkpt lat="31.7588330" lon="35.1408940">
    <ele>706.4</ele>
    <time>2018-09-22T04:43:10Z</time>
   </trkpt>
   <trkpt lat="31.7588070" lon="35.1408760">
    <ele>705.9</ele>
    <time>2018-09-22T04:43:11Z</time>
   </trkpt>
   <trkpt lat="31.7587720" lon="35.1408540">
    <ele>705.2</ele>
    <time>2018-09-22T04:43:12Z</time>
   </trkpt>
   <trkpt lat="31.7587300" lon="35.1408410">
    <ele>704.6</ele>
    <time>2018-09-22T04:43:13Z</time>
   </trkpt>
   <trkpt lat="31.7586950" lon="35.1408200">
    <ele>704.3</ele>
    <time>2018-09-22T04:43:14Z</time>
   </trkpt>
   <trkpt lat="31.7586560" lon="35.1407900">
    <ele>704.0</ele>
    <time>2018-09-22T04:43:15Z</time>
   </trkpt>
   <trkpt lat="31.7586150" lon="35.1407590">
    <ele>703.9</ele>
    <time>2018-09-22T04:43:16Z</time>
   </trkpt>
   <trkpt lat="31.7585570" lon="35.1407320">
    <ele>703.7</ele>
    <time>2018-09-22T04:43:18Z</time>
   </trkpt>
   <trkpt lat="31.7585040" lon="35.1407130">
    <ele>703.6</ele>
    <time>2018-09-22T04:43:19Z</time>
   </trkpt>
   <trkpt lat="31.7584580" lon="35.1407070">
    <ele>703.6</ele>
    <time>2018-09-22T04:43:20Z</time>
   </trkpt>
   <trkpt lat="31.7584100" lon="35.1407010">
    <ele>703.6</ele>
    <time>2018-09-22T04:43:21Z</time>
   </trkpt>
   <trkpt lat="31.7583630" lon="35.1406950">
    <ele>703.6</ele>
    <time>2018-09-22T04:43:22Z</time>
   </trkpt>
   <trkpt lat="31.7583180" lon="35.1406830">
    <ele>703.6</ele>
    <time>2018-09-22T04:43:23Z</time>
   </trkpt>
   <trkpt lat="31.7582720" lon="35.1406680">
    <ele>703.8</ele>
    <time>2018-09-22T04:43:24Z</time>
   </trkpt>
   <trkpt lat="31.7582250" lon="35.1406610">
    <ele>704.0</ele>
    <time>2018-09-22T04:43:25Z</time>
   </trkpt>
   <trkpt lat="31.7581850" lon="35.1406560">
    <ele>704.4</ele>
    <time>2018-09-22T04:43:26Z</time>
   </trkpt>
   <trkpt lat="31.7581410" lon="35.1406510">
    <ele>704.8</ele>
    <time>2018-09-22T04:43:27Z</time>
   </trkpt>
   <trkpt lat="31.7581090" lon="35.1406490">
    <ele>705.1</ele>
    <time>2018-09-22T04:43:28Z</time>
   </trkpt>
   <trkpt lat="31.7580670" lon="35.1406300">
    <ele>705.5</ele>
    <time>2018-09-22T04:43:29Z</time>
   </trkpt>
   <trkpt lat="31.7580320" lon="35.1406310">
    <ele>705.9</ele>
    <time>2018-09-22T04:43:30Z</time>
   </trkpt>
   <trkpt lat="31.7579910" lon="35.1406270">
    <ele>706.3</ele>
    <time>2018-09-22T04:43:31Z</time>
   </trkpt>
   <trkpt lat="31.7579540" lon="35.1406340">
    <ele>706.6</ele>
    <time>2018-09-22T04:43:32Z</time>
   </trkpt>
   <trkpt lat="31.7579180" lon="35.1406400">
    <ele>707.0</ele>
    <time>2018-09-22T04:43:33Z</time>
   </trkpt>
   <trkpt lat="31.7578790" lon="35.1406450">
    <ele>707.3</ele>
    <time>2018-09-22T04:43:34Z</time>
   </trkpt>
   <trkpt lat="31.7578490" lon="35.1406510">
    <ele>707.7</ele>
    <time>2018-09-22T04:43:35Z</time>
   </trkpt>
   <trkpt lat="31.7578170" lon="35.1406450">
    <ele>708.2</ele>
    <time>2018-09-22T04:43:36Z</time>
   </trkpt>
   <trkpt lat="31.7577850" lon="35.1406400">
    <ele>708.7</ele>
    <time>2018-09-22T04:43:37Z</time>
   </trkpt>
   <trkpt lat="31.7577540" lon="35.1406440">
    <ele>709.1</ele>
    <time>2018-09-22T04:43:38Z</time>
   </trkpt>
   <trkpt lat="31.7577230" lon="35.1406500">
    <ele>709.6</ele>
    <time>2018-09-22T04:43:39Z</time>
   </trkpt>
   <trkpt lat="31.7576900" lon="35.1406520">
    <ele>710.2</ele>
    <time>2018-09-22T04:43:40Z</time>
   </trkpt>
   <trkpt lat="31.7576620" lon="35.1406600">
    <ele>710.8</ele>
    <time>2018-09-22T04:43:41Z</time>
   </trkpt>
   <trkpt lat="31.7576300" lon="35.1406690">
    <ele>711.5</ele>
    <time>2018-09-22T04:43:42Z</time>
   </trkpt>
   <trkpt lat="31.7575870" lon="35.1406810">
    <ele>712.8</ele>
    <time>2018-09-22T04:43:44Z</time>
   </trkpt>
   <trkpt lat="31.7575510" lon="35.1406950">
    <ele>714.5</ele>
    <time>2018-09-22T04:43:46Z</time>
   </trkpt>
   <trkpt lat="31.7575200" lon="35.1406970">
    <ele>715.6</ele>
    <time>2018-09-22T04:43:47Z</time>
   </trkpt>
   <trkpt lat="31.7574880" lon="35.1406980">
    <ele>716.4</ele>
    <time>2018-09-22T04:43:49Z</time>
   </trkpt>
   <trkpt lat="31.7574460" lon="35.1407040">
    <ele>717.4</ele>
    <time>2018-09-22T04:43:51Z</time>
   </trkpt>
   <trkpt lat="31.7574160" lon="35.1407080">
    <ele>718.1</ele>
    <time>2018-09-22T04:43:52Z</time>
   </trkpt>
   <trkpt lat="31.7573670" lon="35.1406840">
    <ele>719.8</ele>
    <time>2018-09-22T04:43:54Z</time>
   </trkpt>
   <trkpt lat="31.7573300" lon="35.1406820">
    <ele>720.8</ele>
    <time>2018-09-22T04:43:55Z</time>
   </trkpt>
   <trkpt lat="31.7572950" lon="35.1406780">
    <ele>722.0</ele>
    <time>2018-09-22T04:43:56Z</time>
   </trkpt>
   <trkpt lat="31.7572500" lon="35.1406650">
    <ele>722.8</ele>
    <time>2018-09-22T04:43:57Z</time>
   </trkpt>
   <trkpt lat="31.7572020" lon="35.1406430">
    <ele>723.7</ele>
    <time>2018-09-22T04:43:58Z</time>
   </trkpt>
   <trkpt lat="31.7571630" lon="35.1406190">
    <ele>725.4</ele>
    <time>2018-09-22T04:43:59Z</time>
   </trkpt>
   <trkpt lat="31.7571210" lon="35.1406160">
    <ele>726.5</ele>
    <time>2018-09-22T04:44:00Z</time>
   </trkpt>
   <trkpt lat="31.7570880" lon="35.1406170">
    <ele>727.3</ele>
    <time>2018-09-22T04:44:01Z</time>
   </trkpt>
   <trkpt lat="31.7570540" lon="35.1406190">
    <ele>728.3</ele>
    <time>2018-09-22T04:44:02Z</time>
   </trkpt>
   <trkpt lat="31.7570050" lon="35.1406230">
    <ele>729.4</ele>
    <time>2018-09-22T04:44:04Z</time>
   </trkpt>
   <trkpt lat="31.7569720" lon="35.1406280">
    <ele>730.1</ele>
    <time>2018-09-22T04:44:05Z</time>
   </trkpt>
   <trkpt lat="31.7569430" lon="35.1406320">
    <ele>730.8</ele>
    <time>2018-09-22T04:44:06Z</time>
   </trkpt>
   <trkpt lat="31.7569160" lon="35.1406280">
    <ele>731.3</ele>
    <time>2018-09-22T04:44:07Z</time>
   </trkpt>
   <trkpt lat="31.7568570" lon="35.1406260">
    <ele>732.5</ele>
    <time>2018-09-22T04:44:09Z</time>
   </trkpt>
   <trkpt lat="31.7568240" lon="35.1406200">
    <ele>733.2</ele>
    <time>2018-09-22T04:44:10Z</time>
   </trkpt>
   <trkpt lat="31.7567930" lon="35.1406180">
    <ele>733.9</ele>
    <time>2018-09-22T04:44:11Z</time>
   </trkpt>
   <trkpt lat="31.7567640" lon="35.1406190">
    <ele>734.6</ele>
    <time>2018-09-22T04:44:12Z</time>
   </trkpt>
   <trkpt lat="31.7567150" lon="35.1406390">
    <ele>735.8</ele>
    <time>2018-09-22T04:44:14Z</time>
   </trkpt>
   <trkpt lat="31.7566770" lon="35.1406460">
    <ele>736.8</ele>
    <time>2018-09-22T04:44:15Z</time>
   </trkpt>
   <trkpt lat="31.7566450" lon="35.1406480">
    <ele>738.4</ele>
    <time>2018-09-22T04:44:16Z</time>
   </trkpt>
   <trkpt lat="31.7566150" lon="35.1406560">
    <ele>739.2</ele>
    <time>2018-09-22T04:44:17Z</time>
   </trkpt>
   <trkpt lat="31.7565810" lon="35.1406630">
    <ele>740.0</ele>
    <time>2018-09-22T04:44:18Z</time>
   </trkpt>
   <trkpt lat="31.7565310" lon="35.1406900">
    <ele>741.4</ele>
    <time>2018-09-22T04:44:20Z</time>
   </trkpt>
   <trkpt lat="31.7565000" lon="35.1407050">
    <ele>742.2</ele>
    <time>2018-09-22T04:44:21Z</time>
   </trkpt>
   <trkpt lat="31.7564650" lon="35.1407320">
    <ele>743.3</ele>
    <time>2018-09-22T04:44:23Z</time>
   </trkpt>
   <trkpt lat="31.7564390" lon="35.1407420">
    <ele>743.9</ele>
    <time>2018-09-22T04:44:24Z</time>
   </trkpt>
   <trkpt lat="31.7563880" lon="35.1407350">
    <ele>745.2</ele>
    <time>2018-09-22T04:44:26Z</time>
   </trkpt>
   <trkpt lat="31.7563430" lon="35.1407150">
    <ele>746.0</ele>
    <time>2018-09-22T04:44:28Z</time>
   </trkpt>
   <trkpt lat="31.7563130" lon="35.1406870">
    <ele>745.6</ele>
    <time>2018-09-22T04:44:30Z</time>
   </trkpt>
   <trkpt lat="31.7563050" lon="35.1406420">
    <ele>745.2</ele>
    <time>2018-09-22T04:44:32Z</time>
   </trkpt>
   <trkpt lat="31.7563300" lon="35.1405850">
    <ele>744.7</ele>
    <time>2018-09-22T04:44:34Z</time>
   </trkpt>
   <trkpt lat="31.7563460" lon="35.1405600">
    <ele>744.5</ele>
    <time>2018-09-22T04:44:35Z</time>
   </trkpt>
   <trkpt lat="31.7563700" lon="35.1405250">
    <ele>743.1</ele>
    <time>2018-09-22T04:44:36Z</time>
   </trkpt>
   <trkpt lat="31.7563820" lon="35.1404900">
    <ele>742.2</ele>
    <time>2018-09-22T04:44:37Z</time>
   </trkpt>
   <trkpt lat="31.7564000" lon="35.1404590">
    <ele>741.1</ele>
    <time>2018-09-22T04:44:38Z</time>
   </trkpt>
   <trkpt lat="31.7564200" lon="35.1404240">
    <ele>739.7</ele>
    <time>2018-09-22T04:44:39Z</time>
   </trkpt>
   <trkpt lat="31.7564550" lon="35.1403970">
    <ele>738.8</ele>
    <time>2018-09-22T04:44:40Z</time>
   </trkpt>
   <trkpt lat="31.7564960" lon="35.1403660">
    <ele>737.6</ele>
    <time>2018-09-22T04:44:42Z</time>
   </trkpt>
   <trkpt lat="31.7565240" lon="35.1403720">
    <ele>736.7</ele>
    <time>2018-09-22T04:44:43Z</time>
   </trkpt>
   <trkpt lat="31.7565540" lon="35.1403580">
    <ele>736.3</ele>
    <time>2018-09-22T04:44:44Z</time>
   </trkpt>
   <trkpt lat="31.7566040" lon="35.1403480">
    <ele>735.8</ele>
    <time>2018-09-22T04:44:45Z</time>
   </trkpt>
   <trkpt lat="31.7566650" lon="35.1403400">
    <ele>735.0</ele>
    <time>2018-09-22T04:44:46Z</time>
   </trkpt>
   <trkpt lat="31.7566990" lon="35.1403100">
    <ele>734.1</ele>
    <time>2018-09-22T04:44:47Z</time>
   </trkpt>
   <trkpt lat="31.7567170" lon="35.1402770">
    <ele>733.8</ele>
    <time>2018-09-22T04:44:48Z</time>
   </trkpt>
   <trkpt lat="31.7567380" lon="35.1402420">
    <ele>733.5</ele>
    <time>2018-09-22T04:44:49Z</time>
   </trkpt>
   <trkpt lat="31.7567840" lon="35.1402040">
    <ele>733.0</ele>
    <time>2018-09-22T04:44:50Z</time>
   </trkpt>
   <trkpt lat="31.7568300" lon="35.1401600">
    <ele>732.5</ele>
    <time>2018-09-22T04:44:51Z</time>
   </trkpt>
   <trkpt lat="31.7568690" lon="35.1401080">
    <ele>731.8</ele>
    <time>2018-09-22T04:44:52Z</time>
   </trkpt>
   <trkpt lat="31.7569000" lon="35.1400640">
    <ele>731.2</ele>
    <time>2018-09-22T04:44:53Z</time>
   </trkpt>
   <trkpt lat="31.7569180" lon="35.1400170">
    <ele>730.8</ele>
    <time>2018-09-22T04:44:54Z</time>
   </trkpt>
   <trkpt lat="31.7569380" lon="35.1399720">
    <ele>730.6</ele>
    <time>2018-09-22T04:44:55Z</time>
   </trkpt>
   <trkpt lat="31.7569700" lon="35.1399270">
    <ele>730.2</ele>
    <time>2018-09-22T04:44:56Z</time>
   </trkpt>
   <trkpt lat="31.7569940" lon="35.1398790">
    <ele>729.9</ele>
    <time>2018-09-22T04:44:57Z</time>
   </trkpt>
   <trkpt lat="31.7570240" lon="35.1398330">
    <ele>729.6</ele>
    <time>2018-09-22T04:44:58Z</time>
   </trkpt>
   <trkpt lat="31.7570490" lon="35.1397860">
    <ele>729.3</ele>
    <time>2018-09-22T04:44:59Z</time>
   </trkpt>
   <trkpt lat="31.7570730" lon="35.1397460">
    <ele>729.0</ele>
    <time>2018-09-22T04:45:00Z</time>
   </trkpt>
   <trkpt lat="31.7570970" lon="35.1397020">
    <ele>728.6</ele>
    <time>2018-09-22T04:45:01Z</time>
   </trkpt>
   <trkpt lat="31.7571210" lon="35.1396530">
    <ele>728.2</ele>
    <time>2018-09-22T04:45:02Z</time>
   </trkpt>
   <trkpt lat="31.7571360" lon="35.1396090">
    <ele>728.0</ele>
    <time>2018-09-22T04:45:03Z</time>
   </trkpt>
   <trkpt lat="31.7571400" lon="35.1395560">
    <ele>727.7</ele>
    <time>2018-09-22T04:45:05Z</time>
   </trkpt>
   <trkpt lat="31.7571690" lon="35.1395330">
    <ele>727.4</ele>
    <time>2018-09-22T04:45:06Z</time>
   </trkpt>
   <trkpt lat="31.7572000" lon="35.1395090">
    <ele>727.1</ele>
    <time>2018-09-22T04:45:07Z</time>
   </trkpt>
   <trkpt lat="31.7572680" lon="35.1395100">
    <ele>726.9</ele>
    <time>2018-09-22T04:45:09Z</time>
   </trkpt>
   <trkpt lat="31.7572960" lon="35.1395060">
    <ele>726.7</ele>
    <time>2018-09-22T04:45:10Z</time>
   </trkpt>
   <trkpt lat="31.7573270" lon="35.1394940">
    <ele>726.5</ele>
    <time>2018-09-22T04:45:11Z</time>
   </trkpt>
   <trkpt lat="31.7573520" lon="35.1394660">
    <ele>726.2</ele>
    <time>2018-09-22T04:45:12Z</time>
   </trkpt>
   <trkpt lat="31.7573750" lon="35.1394180">
    <ele>725.8</ele>
    <time>2018-09-22T04:45:13Z</time>
   </trkpt>
   <trkpt lat="31.7574130" lon="35.1393730">
    <ele>725.3</ele>
    <time>2018-09-22T04:45:14Z</time>
   </trkpt>
   <trkpt lat="31.7574400" lon="35.1393260">
    <ele>724.8</ele>
    <time>2018-09-22T04:45:15Z</time>
   </trkpt>
   <trkpt lat="31.7574860" lon="35.1392840">
    <ele>724.4</ele>
    <time>2018-09-22T04:45:16Z</time>
   </trkpt>
   <trkpt lat="31.7575360" lon="35.1392470">
    <ele>723.7</ele>
    <time>2018-09-22T04:45:17Z</time>
   </trkpt>
   <trkpt lat="31.7575810" lon="35.1392040">
    <ele>723.2</ele>
    <time>2018-09-22T04:45:18Z</time>
   </trkpt>
   <trkpt lat="31.7576270" lon="35.1391790">
    <ele>723.0</ele>
    <time>2018-09-22T04:45:19Z</time>
   </trkpt>
   <trkpt lat="31.7576460" lon="35.1391530">
    <ele>722.9</ele>
    <time>2018-09-22T04:45:20Z</time>
   </trkpt>
   <trkpt lat="31.7576650" lon="35.1391180">
    <ele>722.8</ele>
    <time>2018-09-22T04:45:21Z</time>
   </trkpt>
   <trkpt lat="31.7576760" lon="35.1390770">
    <ele>722.7</ele>
    <time>2018-09-22T04:45:22Z</time>
   </trkpt>
   <trkpt lat="31.7576950" lon="35.1390510">
    <ele>722.7</ele>
    <time>2018-09-22T04:45:23Z</time>
   </trkpt>
   <trkpt lat="31.7577270" lon="35.1390330">
    <ele>722.6</ele>
    <time>2018-09-22T04:45:24Z</time>
   </trkpt>
   <trkpt lat="31.7577660" lon="35.1390020">
    <ele>722.4</ele>
    <time>2018-09-22T04:45:25Z</time>
   </trkpt>
   <trkpt lat="31.7578020" lon="35.1389630">
    <ele>722.3</ele>
    <time>2018-09-22T04:45:26Z</time>
   </trkpt>
   <trkpt lat="31.7578300" lon="35.1389180">
    <ele>722.2</ele>
    <time>2018-09-22T04:45:27Z</time>
   </trkpt>
   <trkpt lat="31.7578640" lon="35.1388790">
    <ele>722.0</ele>
    <time>2018-09-22T04:45:28Z</time>
   </trkpt>
   <trkpt lat="31.7578980" lon="35.1388360">
    <ele>721.9</ele>
    <time>2018-09-22T04:45:29Z</time>
   </trkpt>
   <trkpt lat="31.7579290" lon="35.1387930">
    <ele>721.7</ele>
    <time>2018-09-22T04:45:30Z</time>
   </trkpt>
   <trkpt lat="31.7579550" lon="35.1387490">
    <ele>721.4</ele>
    <time>2018-09-22T04:45:31Z</time>
   </trkpt>
   <trkpt lat="31.7579800" lon="35.1387110">
    <ele>721.1</ele>
    <time>2018-09-22T04:45:32Z</time>
   </trkpt>
   <trkpt lat="31.7580040" lon="35.1386650">
    <ele>720.8</ele>
    <time>2018-09-22T04:45:33Z</time>
   </trkpt>
   <trkpt lat="31.7580240" lon="35.1386290">
    <ele>720.6</ele>
    <time>2018-09-22T04:45:34Z</time>
   </trkpt>
   <trkpt lat="31.7580410" lon="35.1385980">
    <ele>720.3</ele>
    <time>2018-09-22T04:45:35Z</time>
   </trkpt>
   <trkpt lat="31.7580470" lon="35.1385650">
    <ele>720.1</ele>
    <time>2018-09-22T04:45:36Z</time>
   </trkpt>
   <trkpt lat="31.7580500" lon="35.1385290">
    <ele>719.8</ele>
    <time>2018-09-22T04:45:37Z</time>
   </trkpt>
   <trkpt lat="31.7580650" lon="35.1384880">
    <ele>719.5</ele>
    <time>2018-09-22T04:45:38Z</time>
   </trkpt>
   <trkpt lat="31.7580820" lon="35.1384480">
    <ele>719.1</ele>
    <time>2018-09-22T04:45:39Z</time>
   </trkpt>
   <trkpt lat="31.7581030" lon="35.1384110">
    <ele>718.7</ele>
    <time>2018-09-22T04:45:40Z</time>
   </trkpt>
   <trkpt lat="31.7581270" lon="35.1383780">
    <ele>718.5</ele>
    <time>2018-09-22T04:46:10Z</time>
   </trkpt>
   <trkpt lat="31.7581460" lon="35.1383260">
    <ele>718.3</ele>
    <time>2018-09-22T04:46:12Z</time>
   </trkpt>
   <trkpt lat="31.7581550" lon="35.1382950">
    <ele>718.1</ele>
    <time>2018-09-22T04:46:13Z</time>
   </trkpt>
   <trkpt lat="31.7581580" lon="35.1382590">
    <ele>718.0</ele>
    <time>2018-09-22T04:46:14Z</time>
   </trkpt>
   <trkpt lat="31.7581680" lon="35.1382220">
    <ele>717.8</ele>
    <time>2018-09-22T04:46:15Z</time>
   </trkpt>
   <trkpt lat="31.7581710" lon="35.1381830">
    <ele>717.6</ele>
    <time>2018-09-22T04:46:16Z</time>
   </trkpt>
   <trkpt lat="31.7581670" lon="35.1381470">
    <ele>717.5</ele>
    <time>2018-09-22T04:46:17Z</time>
   </trkpt>
   <trkpt lat="31.7581670" lon="35.1381120">
    <ele>717.4</ele>
    <time>2018-09-22T04:46:18Z</time>
   </trkpt>
   <trkpt lat="31.7581570" lon="35.1380780">
    <ele>717.2</ele>
    <time>2018-09-22T04:46:19Z</time>
   </trkpt>
   <trkpt lat="31.7581540" lon="35.1380450">
    <ele>717.1</ele>
    <time>2018-09-22T04:46:20Z</time>
   </trkpt>
   <trkpt lat="31.7581330" lon="35.1379830">
    <ele>716.6</ele>
    <time>2018-09-22T04:46:22Z</time>
   </trkpt>
   <trkpt lat="31.7581190" lon="35.1379510">
    <ele>716.2</ele>
    <time>2018-09-22T04:46:23Z</time>
   </trkpt>
   <trkpt lat="31.7580960" lon="35.1379220">
    <ele>715.9</ele>
    <time>2018-09-22T04:46:25Z</time>
   </trkpt>
   <trkpt lat="31.7581180" lon="35.1378790">
    <ele>715.5</ele>
    <time>2018-09-22T04:46:27Z</time>
   </trkpt>
   <trkpt lat="31.7581110" lon="35.1378370">
    <ele>715.3</ele>
    <time>2018-09-22T04:46:29Z</time>
   </trkpt>
   <trkpt lat="31.7581060" lon="35.1378060">
    <ele>715.1</ele>
    <time>2018-09-22T04:46:30Z</time>
   </trkpt>
   <trkpt lat="31.7580860" lon="35.1377490">
    <ele>714.8</ele>
    <time>2018-09-22T04:46:31Z</time>
   </trkpt>
   <trkpt lat="31.7581160" lon="35.1377240">
    <ele>714.5</ele>
    <time>2018-09-22T04:46:33Z</time>
   </trkpt>
   <trkpt lat="31.7581330" lon="35.1376770">
    <ele>714.3</ele>
    <time>2018-09-22T04:46:37Z</time>
   </trkpt>
   <trkpt lat="31.7581220" lon="35.1376340">
    <ele>714.1</ele>
    <time>2018-09-22T04:47:29Z</time>
   </trkpt>
   <trkpt lat="31.7581120" lon="35.1375920">
    <ele>713.9</ele>
    <time>2018-09-22T04:47:30Z</time>
   </trkpt>
   <trkpt lat="31.7581220" lon="35.1375500">
    <ele>713.9</ele>
    <time>2018-09-22T04:47:31Z</time>
   </trkpt>
   <trkpt lat="31.7581400" lon="35.1375100">
    <ele>714.0</ele>
    <time>2018-09-22T04:47:32Z</time>
   </trkpt>
   <trkpt lat="31.7581460" lon="35.1374730">
    <ele>714.0</ele>
    <time>2018-09-22T04:47:33Z</time>
   </trkpt>
   <trkpt lat="31.7581260" lon="35.1374220">
    <ele>714.1</ele>
    <time>2018-09-22T04:47:34Z</time>
   </trkpt>
   <trkpt lat="31.7581220" lon="35.1373870">
    <ele>714.2</ele>
    <time>2018-09-22T04:47:35Z</time>
   </trkpt>
   <trkpt lat="31.7581110" lon="35.1373520">
    <ele>714.3</ele>
    <time>2018-09-22T04:47:36Z</time>
   </trkpt>
   <trkpt lat="31.7580990" lon="35.1373100">
    <ele>714.5</ele>
    <time>2018-09-22T04:47:37Z</time>
   </trkpt>
   <trkpt lat="31.7580770" lon="35.1372810">
    <ele>714.6</ele>
    <time>2018-09-22T04:47:38Z</time>
   </trkpt>
   <trkpt lat="31.7580730" lon="35.1372440">
    <ele>714.5</ele>
    <time>2018-09-22T04:47:39Z</time>
   </trkpt>
   <trkpt lat="31.7580590" lon="35.1372010">
    <ele>714.3</ele>
    <time>2018-09-22T04:47:40Z</time>
   </trkpt>
   <trkpt lat="31.7580420" lon="35.1371580">
    <ele>714.1</ele>
    <time>2018-09-22T04:47:41Z</time>
   </trkpt>
   <trkpt lat="31.7580160" lon="35.1371190">
    <ele>713.9</ele>
    <time>2018-09-22T04:47:42Z</time>
   </trkpt>
   <trkpt lat="31.7579900" lon="35.1370830">
    <ele>713.7</ele>
    <time>2018-09-22T04:47:43Z</time>
   </trkpt>
   <trkpt lat="31.7579670" lon="35.1370550">
    <ele>713.5</ele>
    <time>2018-09-22T04:47:44Z</time>
   </trkpt>
   <trkpt lat="31.7579290" lon="35.1370210">
    <ele>713.2</ele>
    <time>2018-09-22T04:47:45Z</time>
   </trkpt>
   <trkpt lat="31.7578990" lon="35.1369880">
    <ele>712.9</ele>
    <time>2018-09-22T04:47:46Z</time>
   </trkpt>
   <trkpt lat="31.7578830" lon="35.1369240">
    <ele>712.0</ele>
    <time>2018-09-22T04:47:48Z</time>
   </trkpt>
   <trkpt lat="31.7578650" lon="35.1368840">
    <ele>711.2</ele>
    <time>2018-09-22T04:47:49Z</time>
   </trkpt>
   <trkpt lat="31.7578500" lon="35.1368380">
    <ele>710.3</ele>
    <time>2018-09-22T04:47:50Z</time>
   </trkpt>
   <trkpt lat="31.7578370" lon="35.1367920">
    <ele>709.6</ele>
    <time>2018-09-22T04:47:51Z</time>
   </trkpt>
   <trkpt lat="31.7578220" lon="35.1367470">
    <ele>708.9</ele>
    <time>2018-09-22T04:47:52Z</time>
   </trkpt>
   <trkpt lat="31.7578030" lon="35.1367010">
    <ele>708.2</ele>
    <time>2018-09-22T04:47:53Z</time>
   </trkpt>
   <trkpt lat="31.7577880" lon="35.1366520">
    <ele>707.4</ele>
    <time>2018-09-22T04:47:54Z</time>
   </trkpt>
   <trkpt lat="31.7577780" lon="35.1366110">
    <ele>706.8</ele>
    <time>2018-09-22T04:47:55Z</time>
   </trkpt>
   <trkpt lat="31.7577680" lon="35.1365690">
    <ele>706.2</ele>
    <time>2018-09-22T04:47:56Z</time>
   </trkpt>
   <trkpt lat="31.7577580" lon="35.1365240">
    <ele>705.6</ele>
    <time>2018-09-22T04:47:57Z</time>
   </trkpt>
   <trkpt lat="31.7577450" lon="35.1364800">
    <ele>704.8</ele>
    <time>2018-09-22T04:47:58Z</time>
   </trkpt>
   <trkpt lat="31.7577340" lon="35.1364370">
    <ele>704.0</ele>
    <time>2018-09-22T04:47:59Z</time>
   </trkpt>
   <trkpt lat="31.7577120" lon="35.1364020">
    <ele>703.3</ele>
    <time>2018-09-22T04:48:00Z</time>
   </trkpt>
   <trkpt lat="31.7576830" lon="35.1363690">
    <ele>702.7</ele>
    <time>2018-09-22T04:48:01Z</time>
   </trkpt>
   <trkpt lat="31.7576550" lon="35.1363440">
    <ele>702.1</ele>
    <time>2018-09-22T04:48:02Z</time>
   </trkpt>
   <trkpt lat="31.7576310" lon="35.1363200">
    <ele>701.7</ele>
    <time>2018-09-22T04:48:03Z</time>
   </trkpt>
   <trkpt lat="31.7576110" lon="35.1362970">
    <ele>700.4</ele>
    <time>2018-09-22T04:48:04Z</time>
   </trkpt>
   <trkpt lat="31.7575820" lon="35.1362560">
    <ele>699.0</ele>
    <time>2018-09-22T04:48:05Z</time>
   </trkpt>
   <trkpt lat="31.7575530" lon="35.1362170">
    <ele>698.4</ele>
    <time>2018-09-22T04:48:06Z</time>
   </trkpt>
   <trkpt lat="31.7575320" lon="35.1361930">
    <ele>698.0</ele>
    <time>2018-09-22T04:48:07Z</time>
   </trkpt>
   <trkpt lat="31.7575190" lon="35.1361620">
    <ele>697.7</ele>
    <time>2018-09-22T04:48:08Z</time>
   </trkpt>
   <trkpt lat="31.7574790" lon="35.1361510">
    <ele>697.3</ele>
    <time>2018-09-22T04:48:10Z</time>
   </trkpt>
   <trkpt lat="31.7574480" lon="35.1361380">
    <ele>697.0</ele>
    <time>2018-09-22T04:48:11Z</time>
   </trkpt>
   <trkpt lat="31.7574140" lon="35.1361160">
    <ele>696.7</ele>
    <time>2018-09-22T04:48:12Z</time>
   </trkpt>
   <trkpt lat="31.7573810" lon="35.1361010">
    <ele>696.4</ele>
    <time>2018-09-22T04:48:13Z</time>
   </trkpt>
   <trkpt lat="31.7573490" lon="35.1360800">
    <ele>696.1</ele>
    <time>2018-09-22T04:48:14Z</time>
   </trkpt>
   <trkpt lat="31.7573110" lon="35.1360510">
    <ele>695.7</ele>
    <time>2018-09-22T04:48:15Z</time>
   </trkpt>
   <trkpt lat="31.7572720" lon="35.1360240">
    <ele>695.4</ele>
    <time>2018-09-22T04:48:16Z</time>
   </trkpt>
   <trkpt lat="31.7572330" lon="35.1360080">
    <ele>695.4</ele>
    <time>2018-09-22T04:48:17Z</time>
   </trkpt>
   <trkpt lat="31.7571920" lon="35.1360070">
    <ele>695.5</ele>
    <time>2018-09-22T04:48:18Z</time>
   </trkpt>
   <trkpt lat="31.7571570" lon="35.1360150">
    <ele>695.8</ele>
    <time>2018-09-22T04:48:19Z</time>
   </trkpt>
   <trkpt lat="31.7571250" lon="35.1360240">
    <ele>695.9</ele>
    <time>2018-09-22T04:48:20Z</time>
   </trkpt>
   <trkpt lat="31.7570980" lon="35.1360330">
    <ele>696.2</ele>
    <time>2018-09-22T04:48:21Z</time>
   </trkpt>
   <trkpt lat="31.7570640" lon="35.1360480">
    <ele>696.8</ele>
    <time>2018-09-22T04:48:23Z</time>
   </trkpt>
   <trkpt lat="31.7570270" lon="35.1360730">
    <ele>697.3</ele>
    <time>2018-09-22T04:48:25Z</time>
   </trkpt>
   <trkpt lat="31.7570020" lon="35.1360860">
    <ele>697.7</ele>
    <time>2018-09-22T04:48:26Z</time>
   </trkpt>
   <trkpt lat="31.7569620" lon="35.1361020">
    <ele>698.3</ele>
    <time>2018-09-22T04:48:28Z</time>
   </trkpt>
   <trkpt lat="31.7569170" lon="35.1361100">
    <ele>699.0</ele>
    <time>2018-09-22T04:48:30Z</time>
   </trkpt>
   <trkpt lat="31.7568730" lon="35.1361260">
    <ele>699.5</ele>
    <time>2018-09-22T04:48:32Z</time>
   </trkpt>
   <trkpt lat="31.7568410" lon="35.1361310">
    <ele>699.9</ele>
    <time>2018-09-22T04:48:33Z</time>
   </trkpt>
   <trkpt lat="31.7568110" lon="35.1361330">
    <ele>700.2</ele>
    <time>2018-09-22T04:48:34Z</time>
   </trkpt>
   <trkpt lat="31.7567830" lon="35.1361440">
    <ele>700.6</ele>
    <time>2018-09-22T04:48:35Z</time>
   </trkpt>
   <trkpt lat="31.7567580" lon="35.1361550">
    <ele>700.9</ele>
    <time>2018-09-22T04:48:36Z</time>
   </trkpt>
   <trkpt lat="31.7567040" lon="35.1361800">
    <ele>701.6</ele>
    <time>2018-09-22T04:48:38Z</time>
   </trkpt>
   <trkpt lat="31.7566740" lon="35.1361900">
    <ele>702.0</ele>
    <time>2018-09-22T04:48:39Z</time>
   </trkpt>
   <trkpt lat="31.7566450" lon="35.1362010">
    <ele>702.4</ele>
    <time>2018-09-22T04:48:40Z</time>
   </trkpt>
   <trkpt lat="31.7566050" lon="35.1362180">
    <ele>702.9</ele>
    <time>2018-09-22T04:48:41Z</time>
   </trkpt>
   <trkpt lat="31.7565750" lon="35.1362300">
    <ele>703.3</ele>
    <time>2018-09-22T04:48:42Z</time>
   </trkpt>
   <trkpt lat="31.7565270" lon="35.1362470">
    <ele>704.1</ele>
    <time>2018-09-22T04:48:43Z</time>
   </trkpt>
   <trkpt lat="31.7564890" lon="35.1362620">
    <ele>704.6</ele>
    <time>2018-09-22T04:48:44Z</time>
   </trkpt>
   <trkpt lat="31.7564600" lon="35.1362870">
    <ele>705.2</ele>
    <time>2018-09-22T04:48:47Z</time>
   </trkpt>
   <trkpt lat="31.7564340" lon="35.1363110">
    <ele>705.7</ele>
    <time>2018-09-22T04:48:49Z</time>
   </trkpt>
   <trkpt lat="31.7564060" lon="35.1363100">
    <ele>706.1</ele>
    <time>2018-09-22T04:48:59Z</time>
   </trkpt>
   <trkpt lat="31.7563830" lon="35.1363750">
    <ele>707.0</ele>
    <time>2018-09-22T04:53:09Z</time>
   </trkpt>
   <trkpt lat="31.7563590" lon="35.1363930">
    <ele>707.4</ele>
    <time>2018-09-22T04:53:10Z</time>
   </trkpt>
   <trkpt lat="31.7563280" lon="35.1364130">
    <ele>708.0</ele>
    <time>2018-09-22T04:53:12Z</time>
   </trkpt>
   <trkpt lat="31.7563040" lon="35.1364380">
    <ele>709.3</ele>
    <time>2018-09-22T04:53:13Z</time>
   </trkpt>
   <trkpt lat="31.7562610" lon="35.1364560">
    <ele>711.4</ele>
    <time>2018-09-22T04:53:15Z</time>
   </trkpt>
   <trkpt lat="31.7562320" lon="35.1364560">
    <ele>712.8</ele>
    <time>2018-09-22T04:53:16Z</time>
   </trkpt>
   <trkpt lat="31.7562050" lon="35.1364660">
    <ele>713.7</ele>
    <time>2018-09-22T04:53:17Z</time>
   </trkpt>
   <trkpt lat="31.7561600" lon="35.1365030">
    <ele>715.5</ele>
    <time>2018-09-22T04:53:19Z</time>
   </trkpt>
   <trkpt lat="31.7561290" lon="35.1365120">
    <ele>716.3</ele>
    <time>2018-09-22T04:53:20Z</time>
   </trkpt>
   <trkpt lat="31.7560710" lon="35.1365300">
    <ele>717.8</ele>
    <time>2018-09-22T04:53:22Z</time>
   </trkpt>
   <trkpt lat="31.7560540" lon="35.1365550">
    <ele>718.7</ele>
    <time>2018-09-22T04:53:23Z</time>
   </trkpt>
   <trkpt lat="31.7560250" lon="35.1365520">
    <ele>719.9</ele>
    <time>2018-09-22T04:53:24Z</time>
   </trkpt>
   <trkpt lat="31.7559960" lon="35.1365540">
    <ele>720.6</ele>
    <time>2018-09-22T04:53:25Z</time>
   </trkpt>
   <trkpt lat="31.7559610" lon="35.1365590">
    <ele>721.4</ele>
    <time>2018-09-22T04:53:26Z</time>
   </trkpt>
   <trkpt lat="31.7559350" lon="35.1365680">
    <ele>722.1</ele>
    <time>2018-09-22T04:53:27Z</time>
   </trkpt>
   <trkpt lat="31.7558950" lon="35.1365840">
    <ele>724.2</ele>
    <time>2018-09-22T04:53:28Z</time>
   </trkpt>
   <trkpt lat="31.7558640" lon="35.1366070">
    <ele>725.9</ele>
    <time>2018-09-22T04:53:29Z</time>
   </trkpt>
   <trkpt lat="31.7558490" lon="35.1366420">
    <ele>727.3</ele>
    <time>2018-09-22T04:53:31Z</time>
   </trkpt>
   <trkpt lat="31.7558320" lon="35.1366730">
    <ele>727.8</ele>
    <time>2018-09-22T04:53:33Z</time>
   </trkpt>
   <trkpt lat="31.7558000" lon="35.1366870">
    <ele>728.3</ele>
    <time>2018-09-22T04:53:34Z</time>
   </trkpt>
   <trkpt lat="31.7557510" lon="35.1367060">
    <ele>729.2</ele>
    <time>2018-09-22T04:53:36Z</time>
   </trkpt>
   <trkpt lat="31.7557090" lon="35.1367030">
    <ele>730.2</ele>
    <time>2018-09-22T04:53:38Z</time>
   </trkpt>
   <trkpt lat="31.7556790" lon="35.1367030">
    <ele>730.7</ele>
    <time>2018-09-22T04:53:40Z</time>
   </trkpt>
   <trkpt lat="31.7556500" lon="35.1367170">
    <ele>731.5</ele>
    <time>2018-09-22T04:53:41Z</time>
   </trkpt>
   <trkpt lat="31.7556200" lon="35.1367090">
    <ele>732.1</ele>
    <time>2018-09-22T04:53:43Z</time>
   </trkpt>
   <trkpt lat="31.7555840" lon="35.1366760">
    <ele>732.8</ele>
    <time>2018-09-22T04:53:46Z</time>
   </trkpt>
   <trkpt lat="31.7555580" lon="35.1366470">
    <ele>733.5</ele>
    <time>2018-09-22T04:53:51Z</time>
   </trkpt>
   <trkpt lat="31.7555180" lon="35.1366410">
    <ele>734.0</ele>
    <time>2018-09-22T04:53:59Z</time>
   </trkpt>
   <trkpt lat="31.7554970" lon="35.1366620">
    <ele>734.6</ele>
    <time>2018-09-22T04:54:03Z</time>
   </trkpt>
   <trkpt lat="31.7554660" lon="35.1366530">
    <ele>735.5</ele>
    <time>2018-09-22T04:54:05Z</time>
   </trkpt>
   <trkpt lat="31.7554310" lon="35.1366520">
    <ele>736.3</ele>
    <time>2018-09-22T04:54:37Z</time>
   </trkpt>
   <trkpt lat="31.7553860" lon="35.1366810">
    <ele>737.4</ele>
    <time>2018-09-22T04:54:43Z</time>
   </trkpt>
   <trkpt lat="31.7553550" lon="35.1366800">
    <ele>737.9</ele>
    <time>2018-09-22T04:54:44Z</time>
   </trkpt>
   <trkpt lat="31.7553190" lon="35.1366760">
    <ele>739.1</ele>
    <time>2018-09-22T04:54:45Z</time>
   </trkpt>
   <trkpt lat="31.7552610" lon="35.1366670">
    <ele>741.0</ele>
    <time>2018-09-22T04:54:47Z</time>
   </trkpt>
   <trkpt lat="31.7552060" lon="35.1366560">
    <ele>742.7</ele>
    <time>2018-09-22T04:54:49Z</time>
   </trkpt>
   <trkpt lat="31.7551680" lon="35.1366510">
    <ele>744.0</ele>
    <time>2018-09-22T04:54:51Z</time>
   </trkpt>
   <trkpt lat="31.7551330" lon="35.1366450">
    <ele>744.6</ele>
    <time>2018-09-22T04:54:52Z</time>
   </trkpt>
   <trkpt lat="31.7550990" lon="35.1366490">
    <ele>745.4</ele>
    <time>2018-09-22T04:54:54Z</time>
   </trkpt>
   <trkpt lat="31.7550610" lon="35.1366460">
    <ele>746.3</ele>
    <time>2018-09-22T04:54:56Z</time>
   </trkpt>
   <trkpt lat="31.7550320" lon="35.1366480">
    <ele>747.0</ele>
    <time>2018-09-22T04:54:58Z</time>
   </trkpt>
   <trkpt lat="31.7550060" lon="35.1366280">
    <ele>747.5</ele>
    <time>2018-09-22T04:55:00Z</time>
   </trkpt>
   <trkpt lat="31.7549700" lon="35.1366000">
    <ele>748.0</ele>
    <time>2018-09-22T04:55:02Z</time>
   </trkpt>
   <trkpt lat="31.7549260" lon="35.1365680">
    <ele>748.9</ele>
    <time>2018-09-22T04:55:04Z</time>
   </trkpt>
   <trkpt lat="31.7549400" lon="35.1365380">
    <ele>749.1</ele>
    <time>2018-09-22T04:55:05Z</time>
   </trkpt>
   <trkpt lat="31.7549230" lon="35.1364800">
    <ele>749.4</ele>
    <time>2018-09-22T04:55:07Z</time>
   </trkpt>
   <trkpt lat="31.7549200" lon="35.1364230">
    <ele>749.1</ele>
    <time>2018-09-22T04:55:09Z</time>
   </trkpt>
   <trkpt lat="31.7549160" lon="35.1363670">
    <ele>748.8</ele>
    <time>2018-09-22T04:55:11Z</time>
   </trkpt>
   <trkpt lat="31.7548950" lon="35.1363030">
    <ele>748.2</ele>
    <time>2018-09-22T04:55:12Z</time>
   </trkpt>
   <trkpt lat="31.7549030" lon="35.1362690">
    <ele>747.7</ele>
    <time>2018-09-22T04:55:13Z</time>
   </trkpt>
   <trkpt lat="31.7549200" lon="35.1362380">
    <ele>747.2</ele>
    <time>2018-09-22T04:55:14Z</time>
   </trkpt>
   <trkpt lat="31.7549150" lon="35.1361580">
    <ele>746.4</ele>
    <time>2018-09-22T04:55:17Z</time>
   </trkpt>
   <trkpt lat="31.7549380" lon="35.1361090">
    <ele>746.0</ele>
    <time>2018-09-22T04:55:19Z</time>
   </trkpt>
   <trkpt lat="31.7549550" lon="35.1360730">
    <ele>745.6</ele>
    <time>2018-09-22T04:55:20Z</time>
   </trkpt>
   <trkpt lat="31.7549610" lon="35.1360350">
    <ele>745.3</ele>
    <time>2018-09-22T04:55:21Z</time>
   </trkpt>
   <trkpt lat="31.7549550" lon="35.1359880">
    <ele>744.7</ele>
    <time>2018-09-22T04:55:22Z</time>
   </trkpt>
   <trkpt lat="31.7549560" lon="35.1359510">
    <ele>744.3</ele>
    <time>2018-09-22T04:55:23Z</time>
   </trkpt>
   <trkpt lat="31.7549770" lon="35.1359120">
    <ele>743.9</ele>
    <time>2018-09-22T04:55:25Z</time>
   </trkpt>
   <trkpt lat="31.7549610" lon="35.1358710">
    <ele>743.5</ele>
    <time>2018-09-22T04:55:26Z</time>
   </trkpt>
   <trkpt lat="31.7549620" lon="35.1357950">
    <ele>742.7</ele>
    <time>2018-09-22T04:55:28Z</time>
   </trkpt>
   <trkpt lat="31.7549630" lon="35.1357600">
    <ele>742.4</ele>
    <time>2018-09-22T04:55:29Z</time>
   </trkpt>
   <trkpt lat="31.7549500" lon="35.1357090">
    <ele>742.0</ele>
    <time>2018-09-22T04:55:30Z</time>
   </trkpt>
   <trkpt lat="31.7549400" lon="35.1356710">
    <ele>741.7</ele>
    <time>2018-09-22T04:55:31Z</time>
   </trkpt>
   <trkpt lat="31.7549370" lon="35.1356250">
    <ele>741.3</ele>
    <time>2018-09-22T04:55:32Z</time>
   </trkpt>
   <trkpt lat="31.7549200" lon="35.1355830">
    <ele>740.7</ele>
    <time>2018-09-22T04:55:33Z</time>
   </trkpt>
   <trkpt lat="31.7549130" lon="35.1355460">
    <ele>740.6</ele>
    <time>2018-09-22T04:55:34Z</time>
   </trkpt>
   <trkpt lat="31.7548980" lon="35.1355040">
    <ele>740.4</ele>
    <time>2018-09-22T04:55:35Z</time>
   </trkpt>
   <trkpt lat="31.7548800" lon="35.1354770">
    <ele>740.3</ele>
    <time>2018-09-22T04:55:36Z</time>
   </trkpt>
   <trkpt lat="31.7548670" lon="35.1354410">
    <ele>740.1</ele>
    <time>2018-09-22T04:55:37Z</time>
   </trkpt>
   <trkpt lat="31.7548660" lon="35.1354060">
    <ele>739.9</ele>
    <time>2018-09-22T04:55:38Z</time>
   </trkpt>
   <trkpt lat="31.7548780" lon="35.1353500">
    <ele>739.7</ele>
    <time>2018-09-22T04:55:40Z</time>
   </trkpt>
   <trkpt lat="31.7548660" lon="35.1353190">
    <ele>739.6</ele>
    <time>2018-09-22T04:55:41Z</time>
   </trkpt>
   <trkpt lat="31.7548530" lon="35.1352670">
    <ele>739.5</ele>
    <time>2018-09-22T04:55:43Z</time>
   </trkpt>
   <trkpt lat="31.7548300" lon="35.1352340">
    <ele>739.5</ele>
    <time>2018-09-22T04:55:44Z</time>
   </trkpt>
   <trkpt lat="31.7548160" lon="35.1351990">
    <ele>739.5</ele>
    <time>2018-09-22T04:55:45Z</time>
   </trkpt>
   <trkpt lat="31.7548010" lon="35.1351510">
    <ele>739.5</ele>
    <time>2018-09-22T04:55:46Z</time>
   </trkpt>
   <trkpt lat="31.7547840" lon="35.1351140">
    <ele>739.6</ele>
    <time>2018-09-22T04:55:47Z</time>
   </trkpt>
   <trkpt lat="31.7547680" lon="35.1350680">
    <ele>739.6</ele>
    <time>2018-09-22T04:55:48Z</time>
   </trkpt>
   <trkpt lat="31.7547580" lon="35.1350230">
    <ele>739.7</ele>
    <time>2018-09-22T04:55:50Z</time>
   </trkpt>
   <trkpt lat="31.7547310" lon="35.1349730">
    <ele>739.9</ele>
    <time>2018-09-22T04:55:52Z</time>
   </trkpt>
   <trkpt lat="31.7546910" lon="35.1349250">
    <ele>740.3</ele>
    <time>2018-09-22T04:55:54Z</time>
   </trkpt>
   <trkpt lat="31.7546640" lon="35.1348990">
    <ele>740.8</ele>
    <time>2018-09-22T04:55:55Z</time>
   </trkpt>
   <trkpt lat="31.7546360" lon="35.1348430">
    <ele>741.6</ele>
    <time>2018-09-22T04:55:57Z</time>
   </trkpt>
   <trkpt lat="31.7546100" lon="35.1347950">
    <ele>742.3</ele>
    <time>2018-09-22T04:55:59Z</time>
   </trkpt>
   <trkpt lat="31.7545740" lon="35.1347550">
    <ele>742.9</ele>
    <time>2018-09-22T04:56:01Z</time>
   </trkpt>
   <trkpt lat="31.7545420" lon="35.1347270">
    <ele>743.5</ele>
    <time>2018-09-22T04:56:02Z</time>
   </trkpt>
   <trkpt lat="31.7545020" lon="35.1346890">
    <ele>744.1</ele>
    <time>2018-09-22T04:56:03Z</time>
   </trkpt>
   <trkpt lat="31.7544550" lon="35.1346820">
    <ele>744.4</ele>
    <time>2018-09-22T04:56:04Z</time>
   </trkpt>
   <trkpt lat="31.7544280" lon="35.1346540">
    <ele>744.6</ele>
    <time>2018-09-22T04:56:05Z</time>
   </trkpt>
   <trkpt lat="31.7544280" lon="35.1346070">
    <ele>744.8</ele>
    <time>2018-09-22T04:56:06Z</time>
   </trkpt>
   <trkpt lat="31.7544070" lon="35.1345650">
    <ele>745.0</ele>
    <time>2018-09-22T04:56:07Z</time>
   </trkpt>
   <trkpt lat="31.7543850" lon="35.1345290">
    <ele>745.2</ele>
    <time>2018-09-22T04:56:08Z</time>
   </trkpt>
   <trkpt lat="31.7543680" lon="35.1344860">
    <ele>745.4</ele>
    <time>2018-09-22T04:56:09Z</time>
   </trkpt>
   <trkpt lat="31.7543590" lon="35.1344370">
    <ele>745.7</ele>
    <time>2018-09-22T04:56:10Z</time>
   </trkpt>
   <trkpt lat="31.7543260" lon="35.1344240">
    <ele>746.0</ele>
    <time>2018-09-22T04:56:11Z</time>
   </trkpt>
   <trkpt lat="31.7542920" lon="35.1343940">
    <ele>746.3</ele>
    <time>2018-09-22T04:56:12Z</time>
   </trkpt>
   <trkpt lat="31.7542630" lon="35.1343600">
    <ele>746.8</ele>
    <time>2018-09-22T04:56:14Z</time>
   </trkpt>
   <trkpt lat="31.7542580" lon="35.1342960">
    <ele>747.7</ele>
    <time>2018-09-22T04:56:16Z</time>
   </trkpt>
   <trkpt lat="31.7542220" lon="35.1342560">
    <ele>747.4</ele>
    <time>2018-09-22T04:56:17Z</time>
   </trkpt>
   <trkpt lat="31.7541910" lon="35.1342220">
    <ele>746.9</ele>
    <time>2018-09-22T04:56:18Z</time>
   </trkpt>
   <trkpt lat="31.7541760" lon="35.1341940">
    <ele>746.6</ele>
    <time>2018-09-22T04:56:19Z</time>
   </trkpt>
   <trkpt lat="31.7541690" lon="35.1341620">
    <ele>746.5</ele>
    <time>2018-09-22T04:56:20Z</time>
   </trkpt>
   <trkpt lat="31.7541550" lon="35.1340990">
    <ele>746.5</ele>
    <time>2018-09-22T04:56:21Z</time>
   </trkpt>
   <trkpt lat="31.7541230" lon="35.1340540">
    <ele>746.1</ele>
    <time>2018-09-22T04:56:22Z</time>
   </trkpt>
   <trkpt lat="31.7541040" lon="35.1339990">
    <ele>745.9</ele>
    <time>2018-09-22T04:56:23Z</time>
   </trkpt>
   <trkpt lat="31.7540890" lon="35.1339480">
    <ele>745.7</ele>
    <time>2018-09-22T04:56:24Z</time>
   </trkpt>
   <trkpt lat="31.7540680" lon="35.1339020">
    <ele>745.2</ele>
    <time>2018-09-22T04:56:25Z</time>
   </trkpt>
   <trkpt lat="31.7540530" lon="35.1338580">
    <ele>745.1</ele>
    <time>2018-09-22T04:56:26Z</time>
   </trkpt>
   <trkpt lat="31.7540340" lon="35.1338030">
    <ele>744.9</ele>
    <time>2018-09-22T04:56:27Z</time>
   </trkpt>
   <trkpt lat="31.7540070" lon="35.1337560">
    <ele>744.7</ele>
    <time>2018-09-22T04:56:28Z</time>
   </trkpt>
   <trkpt lat="31.7540030" lon="35.1337040">
    <ele>744.4</ele>
    <time>2018-09-22T04:56:29Z</time>
   </trkpt>
   <trkpt lat="31.7540000" lon="35.1336670">
    <ele>744.1</ele>
    <time>2018-09-22T04:56:30Z</time>
   </trkpt>
   <trkpt lat="31.7539860" lon="35.1336120">
    <ele>743.2</ele>
    <time>2018-09-22T04:56:31Z</time>
   </trkpt>
   <trkpt lat="31.7539530" lon="35.1335660">
    <ele>742.2</ele>
    <time>2018-09-22T04:56:32Z</time>
   </trkpt>
   <trkpt lat="31.7539830" lon="35.1335060">
    <ele>741.2</ele>
    <time>2018-09-22T04:56:33Z</time>
   </trkpt>
   <trkpt lat="31.7539840" lon="35.1334570">
    <ele>740.5</ele>
    <time>2018-09-22T04:56:34Z</time>
   </trkpt>
   <trkpt lat="31.7539790" lon="35.1333920">
    <ele>739.5</ele>
    <time>2018-09-22T04:56:35Z</time>
   </trkpt>
   <trkpt lat="31.7539480" lon="35.1333340">
    <ele>738.4</ele>
    <time>2018-09-22T04:56:36Z</time>
   </trkpt>
   <trkpt lat="31.7539420" lon="35.1332720">
    <ele>737.2</ele>
    <time>2018-09-22T04:56:37Z</time>
   </trkpt>
   <trkpt lat="31.7539520" lon="35.1332030">
    <ele>735.5</ele>
    <time>2018-09-22T04:56:38Z</time>
   </trkpt>
   <trkpt lat="31.7539340" lon="35.1331720">
    <ele>734.9</ele>
    <time>2018-09-22T04:56:39Z</time>
   </trkpt>
   <trkpt lat="31.7539280" lon="35.1331310">
    <ele>734.4</ele>
    <time>2018-09-22T04:56:40Z</time>
   </trkpt>
   <trkpt lat="31.7539080" lon="35.1330970">
    <ele>733.9</ele>
    <time>2018-09-22T04:56:41Z</time>
   </trkpt>
   <trkpt lat="31.7539010" lon="35.1330650">
    <ele>733.5</ele>
    <time>2018-09-22T04:56:42Z</time>
   </trkpt>
   <trkpt lat="31.7538980" lon="35.1330250">
    <ele>732.9</ele>
    <time>2018-09-22T04:56:43Z</time>
   </trkpt>
   <trkpt lat="31.7538640" lon="35.1329840">
    <ele>732.3</ele>
    <time>2018-09-22T04:56:44Z</time>
   </trkpt>
   <trkpt lat="31.7538470" lon="35.1329470">
    <ele>731.9</ele>
    <time>2018-09-22T04:56:45Z</time>
   </trkpt>
   <trkpt lat="31.7538210" lon="35.1329120">
    <ele>731.4</ele>
    <time>2018-09-22T04:56:46Z</time>
   </trkpt>
   <trkpt lat="31.7537810" lon="35.1328850">
    <ele>730.9</ele>
    <time>2018-09-22T04:56:47Z</time>
   </trkpt>
   <trkpt lat="31.7537150" lon="35.1328460">
    <ele>729.8</ele>
    <time>2018-09-22T04:56:49Z</time>
   </trkpt>
   <trkpt lat="31.7536730" lon="35.1328010">
    <ele>729.4</ele>
    <time>2018-09-22T04:56:50Z</time>
   </trkpt>
   <trkpt lat="31.7536180" lon="35.1327750">
    <ele>729.0</ele>
    <time>2018-09-22T04:56:51Z</time>
   </trkpt>
   <trkpt lat="31.7535870" lon="35.1327450">
    <ele>728.6</ele>
    <time>2018-09-22T04:56:52Z</time>
   </trkpt>
   <trkpt lat="31.7535550" lon="35.1327020">
    <ele>728.3</ele>
    <time>2018-09-22T04:56:53Z</time>
   </trkpt>
   <trkpt lat="31.7535300" lon="35.1326570">
    <ele>727.9</ele>
    <time>2018-09-22T04:56:54Z</time>
   </trkpt>
   <trkpt lat="31.7534820" lon="35.1326320">
    <ele>727.5</ele>
    <time>2018-09-22T04:56:55Z</time>
   </trkpt>
   <trkpt lat="31.7534500" lon="35.1325970">
    <ele>727.2</ele>
    <time>2018-09-22T04:56:56Z</time>
   </trkpt>
   <trkpt lat="31.7534230" lon="35.1325780">
    <ele>727.0</ele>
    <time>2018-09-22T04:56:57Z</time>
   </trkpt>
   <trkpt lat="31.7533840" lon="35.1325440">
    <ele>726.7</ele>
    <time>2018-09-22T04:56:58Z</time>
   </trkpt>
   <trkpt lat="31.7533450" lon="35.1325120">
    <ele>726.3</ele>
    <time>2018-09-22T04:56:59Z</time>
   </trkpt>
   <trkpt lat="31.7532990" lon="35.1325010">
    <ele>726.1</ele>
    <time>2018-09-22T04:57:00Z</time>
   </trkpt>
   <trkpt lat="31.7532720" lon="35.1324760">
    <ele>726.0</ele>
    <time>2018-09-22T04:57:01Z</time>
   </trkpt>
   <trkpt lat="31.7532370" lon="35.1324470">
    <ele>725.9</ele>
    <time>2018-09-22T04:57:02Z</time>
   </trkpt>
   <trkpt lat="31.7531890" lon="35.1324270">
    <ele>725.8</ele>
    <time>2018-09-22T04:57:03Z</time>
   </trkpt>
   <trkpt lat="31.7531510" lon="35.1324110">
    <ele>725.8</ele>
    <time>2018-09-22T04:57:04Z</time>
   </trkpt>
   <trkpt lat="31.7531050" lon="35.1323940">
    <ele>726.0</ele>
    <time>2018-09-22T04:57:05Z</time>
   </trkpt>
   <trkpt lat="31.7530540" lon="35.1323870">
    <ele>726.2</ele>
    <time>2018-09-22T04:57:06Z</time>
   </trkpt>
   <trkpt lat="31.7530210" lon="35.1323750">
    <ele>726.3</ele>
    <time>2018-09-22T04:57:07Z</time>
   </trkpt>
   <trkpt lat="31.7529810" lon="35.1323590">
    <ele>726.5</ele>
    <time>2018-09-22T04:57:08Z</time>
   </trkpt>
   <trkpt lat="31.7529300" lon="35.1323440">
    <ele>726.7</ele>
    <time>2018-09-22T04:57:09Z</time>
   </trkpt>
   <trkpt lat="31.7528900" lon="35.1323420">
    <ele>727.0</ele>
    <time>2018-09-22T04:57:10Z</time>
   </trkpt>
   <trkpt lat="31.7528450" lon="35.1323280">
    <ele>727.4</ele>
    <time>2018-09-22T04:57:11Z</time>
   </trkpt>
   <trkpt lat="31.7527970" lon="35.1323280">
    <ele>727.8</ele>
    <time>2018-09-22T04:57:12Z</time>
   </trkpt>
   <trkpt lat="31.7527490" lon="35.1323070">
    <ele>728.2</ele>
    <time>2018-09-22T04:57:13Z</time>
   </trkpt>
   <trkpt lat="31.7526960" lon="35.1322950">
    <ele>728.6</ele>
    <time>2018-09-22T04:57:14Z</time>
   </trkpt>
   <trkpt lat="31.7526520" lon="35.1322950">
    <ele>729.1</ele>
    <time>2018-09-22T04:57:15Z</time>
   </trkpt>
   <trkpt lat="31.7526080" lon="35.1322910">
    <ele>729.6</ele>
    <time>2018-09-22T04:57:16Z</time>
   </trkpt>
   <trkpt lat="31.7525660" lon="35.1322870">
    <ele>730.1</ele>
    <time>2018-09-22T04:57:17Z</time>
   </trkpt>
   <trkpt lat="31.7525220" lon="35.1322880">
    <ele>730.6</ele>
    <time>2018-09-22T04:57:18Z</time>
   </trkpt>
   <trkpt lat="31.7524720" lon="35.1322790">
    <ele>731.2</ele>
    <time>2018-09-22T04:57:19Z</time>
   </trkpt>
   <trkpt lat="31.7524240" lon="35.1322730">
    <ele>731.9</ele>
    <time>2018-09-22T04:57:20Z</time>
   </trkpt>
   <trkpt lat="31.7523820" lon="35.1322700">
    <ele>732.5</ele>
    <time>2018-09-22T04:57:21Z</time>
   </trkpt>
   <trkpt lat="31.7523350" lon="35.1322640">
    <ele>733.2</ele>
    <time>2018-09-22T04:57:22Z</time>
   </trkpt>
   <trkpt lat="31.7522880" lon="35.1322600">
    <ele>733.8</ele>
    <time>2018-09-22T04:57:23Z</time>
   </trkpt>
   <trkpt lat="31.7522500" lon="35.1322500">
    <ele>734.5</ele>
    <time>2018-09-22T04:57:24Z</time>
   </trkpt>
   <trkpt lat="31.7522140" lon="35.1322430">
    <ele>735.1</ele>
    <time>2018-09-22T04:57:25Z</time>
   </trkpt>
   <trkpt lat="31.7521850" lon="35.1322360">
    <ele>735.6</ele>
    <time>2018-09-22T04:57:26Z</time>
   </trkpt>
   <trkpt lat="31.7521510" lon="35.1322400">
    <ele>736.1</ele>
    <time>2018-09-22T04:57:27Z</time>
   </trkpt>
   <trkpt lat="31.7521130" lon="35.1322230">
    <ele>736.8</ele>
    <time>2018-09-22T04:57:28Z</time>
   </trkpt>
   <trkpt lat="31.7520660" lon="35.1322140">
    <ele>737.6</ele>
    <time>2018-09-22T04:57:29Z</time>
   </trkpt>
   <trkpt lat="31.7520200" lon="35.1322110">
    <ele>738.3</ele>
    <time>2018-09-22T04:57:30Z</time>
   </trkpt>
   <trkpt lat="31.7519850" lon="35.1322020">
    <ele>738.8</ele>
    <time>2018-09-22T04:57:31Z</time>
   </trkpt>
   <trkpt lat="31.7519390" lon="35.1321880">
    <ele>739.6</ele>
    <time>2018-09-22T04:57:32Z</time>
   </trkpt>
   <trkpt lat="31.7518920" lon="35.1321710">
    <ele>740.3</ele>
    <time>2018-09-22T04:57:33Z</time>
   </trkpt>
   <trkpt lat="31.7518480" lon="35.1321740">
    <ele>741.0</ele>
    <time>2018-09-22T04:57:34Z</time>
   </trkpt>
   <trkpt lat="31.7518070" lon="35.1321650">
    <ele>741.8</ele>
    <time>2018-09-22T04:57:35Z</time>
   </trkpt>
   <trkpt lat="31.7517610" lon="35.1321500">
    <ele>742.8</ele>
    <time>2018-09-22T04:57:36Z</time>
   </trkpt>
   <trkpt lat="31.7517190" lon="35.1321480">
    <ele>743.6</ele>
    <time>2018-09-22T04:57:37Z</time>
   </trkpt>
   <trkpt lat="31.7516770" lon="35.1321160">
    <ele>744.6</ele>
    <time>2018-09-22T04:57:38Z</time>
   </trkpt>
   <trkpt lat="31.7516560" lon="35.1320540">
    <ele>745.9</ele>
    <time>2018-09-22T04:57:39Z</time>
   </trkpt>
   <trkpt lat="31.7516470" lon="35.1320010">
    <ele>746.8</ele>
    <time>2018-09-22T04:57:40Z</time>
   </trkpt>
   <trkpt lat="31.7516260" lon="35.1319480">
    <ele>747.1</ele>
    <time>2018-09-22T04:57:41Z</time>
   </trkpt>
   <trkpt lat="31.7516210" lon="35.1318920">
    <ele>747.1</ele>
    <time>2018-09-22T04:57:42Z</time>
   </trkpt>
   <trkpt lat="31.7516260" lon="35.1318370">
    <ele>747.2</ele>
    <time>2018-09-22T04:57:43Z</time>
   </trkpt>
   <trkpt lat="31.7516230" lon="35.1317810">
    <ele>747.3</ele>
    <time>2018-09-22T04:57:44Z</time>
   </trkpt>
   <trkpt lat="31.7516230" lon="35.1317350">
    <ele>747.3</ele>
    <time>2018-09-22T04:57:45Z</time>
   </trkpt>
   <trkpt lat="31.7516300" lon="35.1316850">
    <ele>747.2</ele>
    <time>2018-09-22T04:57:46Z</time>
   </trkpt>
   <trkpt lat="31.7516250" lon="35.1316360">
    <ele>747.1</ele>
    <time>2018-09-22T04:57:47Z</time>
   </trkpt>
   <trkpt lat="31.7516270" lon="35.1315990">
    <ele>747.0</ele>
    <time>2018-09-22T04:57:48Z</time>
   </trkpt>
   <trkpt lat="31.7516240" lon="35.1315600">
    <ele>747.1</ele>
    <time>2018-09-22T04:57:49Z</time>
   </trkpt>
   <trkpt lat="31.7516160" lon="35.1315130">
    <ele>747.1</ele>
    <time>2018-09-22T04:57:50Z</time>
   </trkpt>
   <trkpt lat="31.7516020" lon="35.1314590">
    <ele>747.1</ele>
    <time>2018-09-22T04:57:51Z</time>
   </trkpt>
   <trkpt lat="31.7515890" lon="35.1314270">
    <ele>747.1</ele>
    <time>2018-09-22T04:57:52Z</time>
   </trkpt>
   <trkpt lat="31.7515960" lon="35.1313930">
    <ele>747.1</ele>
    <time>2018-09-22T04:57:53Z</time>
   </trkpt>
   <trkpt lat="31.7516000" lon="35.1313600">
    <ele>747.0</ele>
    <time>2018-09-22T04:57:54Z</time>
   </trkpt>
   <trkpt lat="31.7515920" lon="35.1312970">
    <ele>746.7</ele>
    <time>2018-09-22T04:57:55Z</time>
   </trkpt>
   <trkpt lat="31.7516060" lon="35.1312670">
    <ele>746.4</ele>
    <time>2018-09-22T04:57:56Z</time>
   </trkpt>
   <trkpt lat="31.7516080" lon="35.1312340">
    <ele>746.1</ele>
    <time>2018-09-22T04:57:57Z</time>
   </trkpt>
   <trkpt lat="31.7516090" lon="35.1311970">
    <ele>745.8</ele>
    <time>2018-09-22T04:57:58Z</time>
   </trkpt>
   <trkpt lat="31.7516120" lon="35.1311520">
    <ele>745.7</ele>
    <time>2018-09-22T04:57:59Z</time>
   </trkpt>
   <trkpt lat="31.7516160" lon="35.1311150">
    <ele>745.3</ele>
    <time>2018-09-22T04:58:00Z</time>
   </trkpt>
   <trkpt lat="31.7516160" lon="35.1310600">
    <ele>745.2</ele>
    <time>2018-09-22T04:58:01Z</time>
   </trkpt>
   <trkpt lat="31.7516190" lon="35.1310120">
    <ele>745.1</ele>
    <time>2018-09-22T04:58:02Z</time>
   </trkpt>
   <trkpt lat="31.7516240" lon="35.1309760">
    <ele>745.1</ele>
    <time>2018-09-22T04:58:03Z</time>
   </trkpt>
   <trkpt lat="31.7516470" lon="35.1309300">
    <ele>745.0</ele>
    <time>2018-09-22T04:58:05Z</time>
   </trkpt>
   <trkpt lat="31.7516470" lon="35.1308940">
    <ele>745.0</ele>
    <time>2018-09-22T04:58:08Z</time>
   </trkpt>
   <trkpt lat="31.7516300" lon="35.1308640">
    <ele>745.0</ele>
    <time>2018-09-22T04:58:10Z</time>
   </trkpt>
   <trkpt lat="31.7515990" lon="35.1308910">
    <ele>745.0</ele>
    <time>2018-09-22T04:58:14Z</time>
   </trkpt>
   <trkpt lat="31.7515690" lon="35.1309190">
    <ele>745.0</ele>
    <time>2018-09-22T04:58:16Z</time>
   </trkpt>
   <trkpt lat="31.7515530" lon="35.1309460">
    <ele>745.0</ele>
    <time>2018-09-22T04:58:17Z</time>
   </trkpt>
   <trkpt lat="31.7515320" lon="35.1309680">
    <ele>745.0</ele>
    <time>2018-09-22T04:58:18Z</time>
   </trkpt>
   <trkpt lat="31.7515140" lon="35.1309940">
    <ele>745.0</ele>
    <time>2018-09-22T04:58:19Z</time>
   </trkpt>
   <trkpt lat="31.7514960" lon="35.1310290">
    <ele>745.0</ele>
    <time>2018-09-22T04:58:21Z</time>
   </trkpt>
   <trkpt lat="31.7514660" lon="35.1310600">
    <ele>745.0</ele>
    <time>2018-09-22T04:58:23Z</time>
   </trkpt>
   <trkpt lat="31.7514420" lon="35.1311030">
    <ele>745.0</ele>
    <time>2018-09-22T04:58:25Z</time>
   </trkpt>
   <trkpt lat="31.7514200" lon="35.1311520">
    <ele>745.0</ele>
    <time>2018-09-22T04:58:27Z</time>
   </trkpt>
   <trkpt lat="31.7514020" lon="35.1311860">
    <ele>745.0</ele>
    <time>2018-09-22T04:58:29Z</time>
   </trkpt>
   <trkpt lat="31.7513630" lon="35.1311860">
    <ele>745.0</ele>
    <time>2018-09-22T04:58:31Z</time>
   </trkpt>
   <trkpt lat="31.7513290" lon="35.1311510">
    <ele>745.0</ele>
    <time>2018-09-22T04:58:33Z</time>
   </trkpt>
   <trkpt lat="31.7513160" lon="35.1311200">
    <ele>745.0</ele>
    <time>2018-09-22T04:58:34Z</time>
   </trkpt>
   <trkpt lat="31.7513060" lon="35.1310760">
    <ele>745.0</ele>
    <time>2018-09-22T04:58:36Z</time>
   </trkpt>
   <trkpt lat="31.7512990" lon="35.1310450">
    <ele>745.0</ele>
    <time>2018-09-22T04:58:38Z</time>
   </trkpt>
   <trkpt lat="31.7512840" lon="35.1310110">
    <ele>745.0</ele>
    <time>2018-09-22T04:58:40Z</time>
   </trkpt>
   <trkpt lat="31.7512690" lon="35.1309820">
    <ele>745.0</ele>
    <time>2018-09-22T04:58:42Z</time>
   </trkpt>
   <trkpt lat="31.7512580" lon="35.1309480">
    <ele>745.0</ele>
    <time>2018-09-22T04:58:44Z</time>
   </trkpt>
   <trkpt lat="31.7512420" lon="35.1309210">
    <ele>745.0</ele>
    <time>2018-09-22T04:58:46Z</time>
   </trkpt>
   <trkpt lat="31.7512310" lon="35.1308870">
    <ele>745.0</ele>
    <time>2018-09-22T04:58:48Z</time>
   </trkpt>
   <trkpt lat="31.7512160" lon="35.1308530">
    <ele>745.0</ele>
    <time>2018-09-22T04:58:50Z</time>
   </trkpt>
   <trkpt lat="31.7511980" lon="35.1308130">
    <ele>745.0</ele>
    <time>2018-09-22T04:58:52Z</time>
   </trkpt>
   <trkpt lat="31.7511920" lon="35.1307740">
    <ele>745.0</ele>
    <time>2018-09-22T04:58:54Z</time>
   </trkpt>
   <trkpt lat="31.7511640" lon="35.1307260">
    <ele>745.0</ele>
    <time>2018-09-22T04:58:56Z</time>
   </trkpt>
   <trkpt lat="31.7511330" lon="35.1307050">
    <ele>745.0</ele>
    <time>2018-09-22T04:58:58Z</time>
   </trkpt>
   <trkpt lat="31.7511030" lon="35.1306880">
    <ele>745.0</ele>
    <time>2018-09-22T04:59:00Z</time>
   </trkpt>
   <trkpt lat="31.7510700" lon="35.1306750">
    <ele>745.0</ele>
    <time>2018-09-22T04:59:02Z</time>
   </trkpt>
   <trkpt lat="31.7510290" lon="35.1306580">
    <ele>745.0</ele>
    <time>2018-09-22T04:59:04Z</time>
   </trkpt>
   <trkpt lat="31.7509900" lon="35.1306430">
    <ele>745.0</ele>
    <time>2018-09-22T04:59:06Z</time>
   </trkpt>
   <trkpt lat="31.7509660" lon="35.1306130">
    <ele>745.0</ele>
    <time>2018-09-22T04:59:08Z</time>
   </trkpt>
   <trkpt lat="31.7509380" lon="35.1305830">
    <ele>745.0</ele>
    <time>2018-09-22T04:59:10Z</time>
   </trkpt>
   <trkpt lat="31.7509040" lon="35.1305710">
    <ele>745.0</ele>
    <time>2018-09-22T04:59:12Z</time>
   </trkpt>
   <trkpt lat="31.7508650" lon="35.1305550">
    <ele>745.0</ele>
    <time>2018-09-22T04:59:14Z</time>
   </trkpt>
   <trkpt lat="31.7508340" lon="35.1305380">
    <ele>745.0</ele>
    <time>2018-09-22T04:59:16Z</time>
   </trkpt>
   <trkpt lat="31.7507990" lon="35.1305280">
    <ele>743.9</ele>
    <time>2018-09-22T04:59:18Z</time>
   </trkpt>
   <trkpt lat="31.7507610" lon="35.1305250">
    <ele>742.7</ele>
    <time>2018-09-22T04:59:20Z</time>
   </trkpt>
   <trkpt lat="31.7507190" lon="35.1305180">
    <ele>741.3</ele>
    <time>2018-09-22T04:59:22Z</time>
   </trkpt>
   <trkpt lat="31.7506770" lon="35.1305240">
    <ele>739.3</ele>
    <time>2018-09-22T04:59:25Z</time>
   </trkpt>
   <trkpt lat="31.7506550" lon="35.1305520">
    <ele>739.7</ele>
    <time>2018-09-22T04:59:27Z</time>
   </trkpt>
   <trkpt lat="31.7506390" lon="35.1305840">
    <ele>740.2</ele>
    <time>2018-09-22T04:59:29Z</time>
   </trkpt>
   <trkpt lat="31.7506190" lon="35.1306330">
    <ele>740.8</ele>
    <time>2018-09-22T04:59:31Z</time>
   </trkpt>
   <trkpt lat="31.7506090" lon="35.1306690">
    <ele>741.2</ele>
    <time>2018-09-22T04:59:33Z</time>
   </trkpt>
   <trkpt lat="31.7506030" lon="35.1307120">
    <ele>741.7</ele>
    <time>2018-09-22T04:59:35Z</time>
   </trkpt>
   <trkpt lat="31.7505930" lon="35.1307500">
    <ele>742.2</ele>
    <time>2018-09-22T04:59:37Z</time>
   </trkpt>
   <trkpt lat="31.7505840" lon="35.1308030">
    <ele>742.7</ele>
    <time>2018-09-22T04:59:39Z</time>
   </trkpt>
   <trkpt lat="31.7505700" lon="35.1308470">
    <ele>743.2</ele>
    <time>2018-09-22T04:59:41Z</time>
   </trkpt>
   <trkpt lat="31.7505650" lon="35.1308830">
    <ele>743.5</ele>
    <time>2018-09-22T04:59:43Z</time>
   </trkpt>
   <trkpt lat="31.7505520" lon="35.1309130">
    <ele>743.8</ele>
    <time>2018-09-22T04:59:44Z</time>
   </trkpt>
   <trkpt lat="31.7505320" lon="35.1309790">
    <ele>744.4</ele>
    <time>2018-09-22T04:59:46Z</time>
   </trkpt>
   <trkpt lat="31.7505090" lon="35.1310150">
    <ele>744.8</ele>
    <time>2018-09-22T04:59:47Z</time>
   </trkpt>
   <trkpt lat="31.7505130" lon="35.1310510">
    <ele>745.1</ele>
    <time>2018-09-22T04:59:50Z</time>
   </trkpt>
   <trkpt lat="31.7504980" lon="35.1311030">
    <ele>745.5</ele>
    <time>2018-09-22T04:59:52Z</time>
   </trkpt>
   <trkpt lat="31.7504800" lon="35.1311410">
    <ele>745.7</ele>
    <time>2018-09-22T04:59:53Z</time>
   </trkpt>
   <trkpt lat="31.7504500" lon="35.1311790">
    <ele>746.1</ele>
    <time>2018-09-22T04:59:54Z</time>
   </trkpt>
   <trkpt lat="31.7504480" lon="35.1312100">
    <ele>746.3</ele>
    <time>2018-09-22T04:59:55Z</time>
   </trkpt>
   <trkpt lat="31.7504220" lon="35.1312320">
    <ele>746.5</ele>
    <time>2018-09-22T04:59:56Z</time>
   </trkpt>
   <trkpt lat="31.7504110" lon="35.1312820">
    <ele>746.8</ele>
    <time>2018-09-22T04:59:58Z</time>
   </trkpt>
   <trkpt lat="31.7504030" lon="35.1313290">
    <ele>747.1</ele>
    <time>2018-09-22T05:00:00Z</time>
   </trkpt>
   <trkpt lat="31.7503850" lon="35.1313760">
    <ele>747.4</ele>
    <time>2018-09-22T05:00:04Z</time>
   </trkpt>
   <trkpt lat="31.7503770" lon="35.1314170">
    <ele>747.6</ele>
    <time>2018-09-22T05:00:06Z</time>
   </trkpt>
   <trkpt lat="31.7503770" lon="35.1314580">
    <ele>747.9</ele>
    <time>2018-09-22T05:00:08Z</time>
   </trkpt>
   <trkpt lat="31.7503720" lon="35.1314980">
    <ele>748.1</ele>
    <time>2018-09-22T05:00:10Z</time>
   </trkpt>
   <trkpt lat="31.7503630" lon="35.1315370">
    <ele>748.3</ele>
    <time>2018-09-22T05:00:12Z</time>
   </trkpt>
   <trkpt lat="31.7503860" lon="35.1315780">
    <ele>748.6</ele>
    <time>2018-09-22T05:00:13Z</time>
   </trkpt>
   <trkpt lat="31.7503840" lon="35.1316230">
    <ele>748.9</ele>
    <time>2018-09-22T05:00:15Z</time>
   </trkpt>
   <trkpt lat="31.7504000" lon="35.1316520">
    <ele>749.0</ele>
    <time>2018-09-22T05:00:16Z</time>
   </trkpt>
   <trkpt lat="31.7503860" lon="35.1317000">
    <ele>749.5</ele>
    <time>2018-09-22T05:00:18Z</time>
   </trkpt>
   <trkpt lat="31.7503840" lon="35.1317370">
    <ele>749.9</ele>
    <time>2018-09-22T05:00:20Z</time>
   </trkpt>
   <trkpt lat="31.7503760" lon="35.1317730">
    <ele>750.3</ele>
    <time>2018-09-22T05:00:22Z</time>
   </trkpt>
   <trkpt lat="31.7503700" lon="35.1318090">
    <ele>750.6</ele>
    <time>2018-09-22T05:00:24Z</time>
   </trkpt>
   <trkpt lat="31.7503650" lon="35.1318440">
    <ele>751.0</ele>
    <time>2018-09-22T05:00:26Z</time>
   </trkpt>
   <trkpt lat="31.7503670" lon="35.1318770">
    <ele>751.3</ele>
    <time>2018-09-22T05:00:28Z</time>
   </trkpt>
   <trkpt lat="31.7503610" lon="35.1319140">
    <ele>751.7</ele>
    <time>2018-09-22T05:00:31Z</time>
   </trkpt>
   <trkpt lat="31.7503510" lon="35.1319500">
    <ele>752.1</ele>
    <time>2018-09-22T05:00:33Z</time>
   </trkpt>
   <trkpt lat="31.7503420" lon="35.1319910">
    <ele>752.5</ele>
    <time>2018-09-22T05:00:35Z</time>
   </trkpt>
   <trkpt lat="31.7503460" lon="35.1320320">
    <ele>753.0</ele>
    <time>2018-09-22T05:00:37Z</time>
   </trkpt>
   <trkpt lat="31.7503290" lon="35.1320810">
    <ele>753.5</ele>
    <time>2018-09-22T05:00:39Z</time>
   </trkpt>
   <trkpt lat="31.7503240" lon="35.1321190">
    <ele>753.9</ele>
    <time>2018-09-22T05:00:41Z</time>
   </trkpt>
   <trkpt lat="31.7503200" lon="35.1321510">
    <ele>754.3</ele>
    <time>2018-09-22T05:00:43Z</time>
   </trkpt>
   <trkpt lat="31.7503100" lon="35.1321850">
    <ele>754.6</ele>
    <time>2018-09-22T05:00:45Z</time>
   </trkpt>
   <trkpt lat="31.7503070" lon="35.1322310">
    <ele>755.1</ele>
    <time>2018-09-22T05:00:47Z</time>
   </trkpt>
   <trkpt lat="31.7503110" lon="35.1322710">
    <ele>755.5</ele>
    <time>2018-09-22T05:00:49Z</time>
   </trkpt>
   <trkpt lat="31.7503130" lon="35.1323060">
    <ele>755.9</ele>
    <time>2018-09-22T05:00:51Z</time>
   </trkpt>
   <trkpt lat="31.7503040" lon="35.1323390">
    <ele>756.3</ele>
    <time>2018-09-22T05:00:53Z</time>
   </trkpt>
   <trkpt lat="31.7502940" lon="35.1323790">
    <ele>756.7</ele>
    <time>2018-09-22T05:00:55Z</time>
   </trkpt>
   <trkpt lat="31.7502880" lon="35.1324190">
    <ele>757.2</ele>
    <time>2018-09-22T05:00:57Z</time>
   </trkpt>
   <trkpt lat="31.7502780" lon="35.1324510">
    <ele>757.6</ele>
    <time>2018-09-22T05:00:59Z</time>
   </trkpt>
   <trkpt lat="31.7502770" lon="35.1324860">
    <ele>758.0</ele>
    <time>2018-09-22T05:01:01Z</time>
   </trkpt>
   <trkpt lat="31.7502780" lon="35.1325240">
    <ele>758.4</ele>
    <time>2018-09-22T05:01:03Z</time>
   </trkpt>
   <trkpt lat="31.7502790" lon="35.1325630">
    <ele>758.8</ele>
    <time>2018-09-22T05:01:05Z</time>
   </trkpt>
   <trkpt lat="31.7502930" lon="35.1326050">
    <ele>759.3</ele>
    <time>2018-09-22T05:01:07Z</time>
   </trkpt>
   <trkpt lat="31.7502800" lon="35.1326480">
    <ele>759.8</ele>
    <time>2018-09-22T05:01:09Z</time>
   </trkpt>
   <trkpt lat="31.7502870" lon="35.1326840">
    <ele>760.2</ele>
    <time>2018-09-22T05:01:11Z</time>
   </trkpt>
   <trkpt lat="31.7502880" lon="35.1327260">
    <ele>760.7</ele>
    <time>2018-09-22T05:01:13Z</time>
   </trkpt>
   <trkpt lat="31.7502980" lon="35.1327590">
    <ele>761.0</ele>
    <time>2018-09-22T05:01:15Z</time>
   </trkpt>
   <trkpt lat="31.7503150" lon="35.1328000">
    <ele>761.5</ele>
    <time>2018-09-22T05:01:17Z</time>
   </trkpt>
   <trkpt lat="31.7503290" lon="35.1328360">
    <ele>761.8</ele>
    <time>2018-09-22T05:01:20Z</time>
   </trkpt>
   <trkpt lat="31.7503320" lon="35.1328810">
    <ele>762.2</ele>
    <time>2018-09-22T05:01:23Z</time>
   </trkpt>
   <trkpt lat="31.7503330" lon="35.1329150">
    <ele>762.5</ele>
    <time>2018-09-22T05:01:25Z</time>
   </trkpt>
   <trkpt lat="31.7503530" lon="35.1329470">
    <ele>762.9</ele>
    <time>2018-09-22T05:01:27Z</time>
   </trkpt>
   <trkpt lat="31.7503640" lon="35.1329820">
    <ele>763.2</ele>
    <time>2018-09-22T05:01:29Z</time>
   </trkpt>
   <trkpt lat="31.7503790" lon="35.1330140">
    <ele>763.5</ele>
    <time>2018-09-22T05:01:31Z</time>
   </trkpt>
   <trkpt lat="31.7503790" lon="35.1330620">
    <ele>763.8</ele>
    <time>2018-09-22T05:01:34Z</time>
   </trkpt>
   <trkpt lat="31.7503810" lon="35.1330940">
    <ele>764.1</ele>
    <time>2018-09-22T05:01:36Z</time>
   </trkpt>
   <trkpt lat="31.7503920" lon="35.1331380">
    <ele>764.4</ele>
    <time>2018-09-22T05:01:39Z</time>
   </trkpt>
   <trkpt lat="31.7504100" lon="35.1331700">
    <ele>764.7</ele>
    <time>2018-09-22T05:01:41Z</time>
   </trkpt>
   <trkpt lat="31.7504190" lon="35.1332060">
    <ele>765.0</ele>
    <time>2018-09-22T05:01:43Z</time>
   </trkpt>
   <trkpt lat="31.7504230" lon="35.1332440">
    <ele>765.3</ele>
    <time>2018-09-22T05:01:45Z</time>
   </trkpt>
   <trkpt lat="31.7504310" lon="35.1332760">
    <ele>765.5</ele>
    <time>2018-09-22T05:01:47Z</time>
   </trkpt>
   <trkpt lat="31.7504370" lon="35.1333160">
    <ele>765.8</ele>
    <time>2018-09-22T05:01:50Z</time>
   </trkpt>
   <trkpt lat="31.7504490" lon="35.1333580">
    <ele>766.1</ele>
    <time>2018-09-22T05:01:52Z</time>
   </trkpt>
   <trkpt lat="31.7504370" lon="35.1333880">
    <ele>766.4</ele>
    <time>2018-09-22T05:01:54Z</time>
   </trkpt>
   <trkpt lat="31.7504450" lon="35.1334220">
    <ele>766.7</ele>
    <time>2018-09-22T05:01:56Z</time>
   </trkpt>
   <trkpt lat="31.7504540" lon="35.1334720">
    <ele>767.1</ele>
    <time>2018-09-22T05:01:59Z</time>
   </trkpt>
   <trkpt lat="31.7504550" lon="35.1335070">
    <ele>767.3</ele>
    <time>2018-09-22T05:02:01Z</time>
   </trkpt>
   <trkpt lat="31.7504710" lon="35.1335460">
    <ele>767.7</ele>
    <time>2018-09-22T05:02:04Z</time>
   </trkpt>
   <trkpt lat="31.7504780" lon="35.1335800">
    <ele>768.0</ele>
    <time>2018-09-22T05:02:06Z</time>
   </trkpt>
   <trkpt lat="31.7504960" lon="35.1336090">
    <ele>768.3</ele>
    <time>2018-09-22T05:02:08Z</time>
   </trkpt>
   <trkpt lat="31.7505090" lon="35.1336410">
    <ele>768.6</ele>
    <time>2018-09-22T05:02:10Z</time>
   </trkpt>
   <trkpt lat="31.7505290" lon="35.1336840">
    <ele>769.0</ele>
    <time>2018-09-22T05:02:13Z</time>
   </trkpt>
   <trkpt lat="31.7505560" lon="35.1337300">
    <ele>769.5</ele>
    <time>2018-09-22T05:02:15Z</time>
   </trkpt>
   <trkpt lat="31.7505710" lon="35.1337570">
    <ele>769.8</ele>
    <time>2018-09-22T05:02:17Z</time>
   </trkpt>
   <trkpt lat="31.7505840" lon="35.1338000">
    <ele>770.2</ele>
    <time>2018-09-22T05:02:19Z</time>
   </trkpt>
   <trkpt lat="31.7506000" lon="35.1338410">
    <ele>770.6</ele>
    <time>2018-09-22T05:02:21Z</time>
   </trkpt>
   <trkpt lat="31.7506410" lon="35.1339340">
    <ele>771.7</ele>
    <time>2018-09-22T05:02:27Z</time>
   </trkpt>
   <trkpt lat="31.7506630" lon="35.1339730">
    <ele>772.1</ele>
    <time>2018-09-22T05:02:29Z</time>
   </trkpt>
   <trkpt lat="31.7506850" lon="35.1340070">
    <ele>772.6</ele>
    <time>2018-09-22T05:02:32Z</time>
   </trkpt>
   <trkpt lat="31.7507140" lon="35.1340200">
    <ele>773.0</ele>
    <time>2018-09-22T05:02:34Z</time>
   </trkpt>
   <trkpt lat="31.7507470" lon="35.1340460">
    <ele>773.6</ele>
    <time>2018-09-22T05:02:37Z</time>
   </trkpt>
   <trkpt lat="31.7507800" lon="35.1340620">
    <ele>774.2</ele>
    <time>2018-09-22T05:02:39Z</time>
   </trkpt>
   <trkpt lat="31.7508110" lon="35.1340790">
    <ele>774.7</ele>
    <time>2018-09-22T05:02:41Z</time>
   </trkpt>
   <trkpt lat="31.7508380" lon="35.1340910">
    <ele>775.2</ele>
    <time>2018-09-22T05:02:43Z</time>
   </trkpt>
   <trkpt lat="31.7508710" lon="35.1340920">
    <ele>775.7</ele>
    <time>2018-09-22T05:02:46Z</time>
   </trkpt>
   <trkpt lat="31.7509000" lon="35.1341210">
    <ele>776.2</ele>
    <time>2018-09-22T05:02:49Z</time>
   </trkpt>
   <trkpt lat="31.7509240" lon="35.1341560">
    <ele>776.7</ele>
    <time>2018-09-22T05:02:52Z</time>
   </trkpt>
   <trkpt lat="31.7509480" lon="35.1341780">
    <ele>777.1</ele>
    <time>2018-09-22T05:02:54Z</time>
   </trkpt>
   <trkpt lat="31.7509600" lon="35.1342110">
    <ele>777.5</ele>
    <time>2018-09-22T05:02:56Z</time>
   </trkpt>
   <trkpt lat="31.7509310" lon="35.1342440">
    <ele>777.9</ele>
    <time>2018-09-22T05:02:59Z</time>
   </trkpt>
   <trkpt lat="31.7508970" lon="35.1342690">
    <ele>778.4</ele>
    <time>2018-09-22T05:03:02Z</time>
   </trkpt>
   <trkpt lat="31.7508610" lon="35.1342770">
    <ele>778.8</ele>
    <time>2018-09-22T05:03:06Z</time>
   </trkpt>
   <trkpt lat="31.7508210" lon="35.1342730">
    <ele>779.2</ele>
    <time>2018-09-22T05:03:09Z</time>
   </trkpt>
   <trkpt lat="31.7507930" lon="35.1342700">
    <ele>779.5</ele>
    <time>2018-09-22T05:03:11Z</time>
   </trkpt>
   <trkpt lat="31.7507680" lon="35.1342550">
    <ele>779.8</ele>
    <time>2018-09-22T05:03:13Z</time>
   </trkpt>
   <trkpt lat="31.7507380" lon="35.1342410">
    <ele>780.1</ele>
    <time>2018-09-22T05:03:15Z</time>
   </trkpt>
   <trkpt lat="31.7507070" lon="35.1342210">
    <ele>780.5</ele>
    <time>2018-09-22T05:03:18Z</time>
   </trkpt>
   <trkpt lat="31.7506740" lon="35.1342010">
    <ele>780.9</ele>
    <time>2018-09-22T05:03:21Z</time>
   </trkpt>
   <trkpt lat="31.7506430" lon="35.1341860">
    <ele>781.3</ele>
    <time>2018-09-22T05:03:23Z</time>
   </trkpt>
   <trkpt lat="31.7506160" lon="35.1341610">
    <ele>781.8</ele>
    <time>2018-09-22T05:03:26Z</time>
   </trkpt>
   <trkpt lat="31.7505900" lon="35.1341490">
    <ele>782.1</ele>
    <time>2018-09-22T05:03:28Z</time>
   </trkpt>
   <trkpt lat="31.7505650" lon="35.1341320">
    <ele>782.5</ele>
    <time>2018-09-22T05:03:30Z</time>
   </trkpt>
   <trkpt lat="31.7505390" lon="35.1341170">
    <ele>782.9</ele>
    <time>2018-09-22T05:03:32Z</time>
   </trkpt>
   <trkpt lat="31.7505100" lon="35.1340920">
    <ele>783.5</ele>
    <time>2018-09-22T05:03:35Z</time>
   </trkpt>
   <trkpt lat="31.7504720" lon="35.1340740">
    <ele>784.1</ele>
    <time>2018-09-22T05:03:38Z</time>
   </trkpt>
   <trkpt lat="31.7504360" lon="35.1340600">
    <ele>784.8</ele>
    <time>2018-09-22T05:03:41Z</time>
   </trkpt>
   <trkpt lat="31.7503970" lon="35.1340400">
    <ele>785.5</ele>
    <time>2018-09-22T05:03:44Z</time>
   </trkpt>
   <trkpt lat="31.7503620" lon="35.1340480">
    <ele>786.1</ele>
    <time>2018-09-22T05:03:47Z</time>
   </trkpt>
   <trkpt lat="31.7503340" lon="35.1340620">
    <ele>786.6</ele>
    <time>2018-09-22T05:03:49Z</time>
   </trkpt>
   <trkpt lat="31.7503100" lon="35.1340950">
    <ele>787.1</ele>
    <time>2018-09-22T05:03:52Z</time>
   </trkpt>
   <trkpt lat="31.7503050" lon="35.1341280">
    <ele>787.5</ele>
    <time>2018-09-22T05:03:54Z</time>
   </trkpt>
   <trkpt lat="31.7502970" lon="35.1341710">
    <ele>788.0</ele>
    <time>2018-09-22T05:03:57Z</time>
   </trkpt>
   <trkpt lat="31.7502990" lon="35.1342060">
    <ele>788.5</ele>
    <time>2018-09-22T05:03:59Z</time>
   </trkpt>
   <trkpt lat="31.7502980" lon="35.1342400">
    <ele>788.9</ele>
    <time>2018-09-22T05:04:01Z</time>
   </trkpt>
   <trkpt lat="31.7502990" lon="35.1342880">
    <ele>789.5</ele>
    <time>2018-09-22T05:04:04Z</time>
   </trkpt>
   <trkpt lat="31.7502660" lon="35.1343110">
    <ele>790.0</ele>
    <time>2018-09-22T05:04:07Z</time>
   </trkpt>
   <trkpt lat="31.7502970" lon="35.1343390">
    <ele>790.6</ele>
    <time>2018-09-22T05:04:08Z</time>
   </trkpt>
   <trkpt lat="31.7503230" lon="35.1343720">
    <ele>791.1</ele>
    <time>2018-09-22T05:04:10Z</time>
   </trkpt>
   <trkpt lat="31.7503420" lon="35.1343980">
    <ele>791.5</ele>
    <time>2018-09-22T05:04:12Z</time>
   </trkpt>
   <trkpt lat="31.7503840" lon="35.1344350">
    <ele>792.3</ele>
    <time>2018-09-22T05:04:14Z</time>
   </trkpt>
   <trkpt lat="31.7504160" lon="35.1344540">
    <ele>792.9</ele>
    <time>2018-09-22T05:04:16Z</time>
   </trkpt>
   <trkpt lat="31.7504350" lon="35.1344860">
    <ele>793.4</ele>
    <time>2018-09-22T05:04:19Z</time>
   </trkpt>
   <trkpt lat="31.7504660" lon="35.1345130">
    <ele>794.0</ele>
    <time>2018-09-22T05:04:22Z</time>
   </trkpt>
   <trkpt lat="31.7504910" lon="35.1345290">
    <ele>794.5</ele>
    <time>2018-09-22T05:04:24Z</time>
   </trkpt>
   <trkpt lat="31.7505220" lon="35.1345600">
    <ele>795.1</ele>
    <time>2018-09-22T05:04:27Z</time>
   </trkpt>
   <trkpt lat="31.7505470" lon="35.1345880">
    <ele>795.7</ele>
    <time>2018-09-22T05:04:30Z</time>
   </trkpt>
   <trkpt lat="31.7505710" lon="35.1346120">
    <ele>796.2</ele>
    <time>2018-09-22T05:04:33Z</time>
   </trkpt>
   <trkpt lat="31.7505980" lon="35.1346290">
    <ele>796.7</ele>
    <time>2018-09-22T05:04:35Z</time>
   </trkpt>
   <trkpt lat="31.7506330" lon="35.1346410">
    <ele>797.3</ele>
    <time>2018-09-22T05:04:37Z</time>
   </trkpt>
   <trkpt lat="31.7506610" lon="35.1346580">
    <ele>797.8</ele>
    <time>2018-09-22T05:04:40Z</time>
   </trkpt>
   <trkpt lat="31.7506950" lon="35.1346740">
    <ele>798.3</ele>
    <time>2018-09-22T05:04:43Z</time>
   </trkpt>
   <trkpt lat="31.7507270" lon="35.1347200">
    <ele>799.0</ele>
    <time>2018-09-22T05:04:46Z</time>
   </trkpt>
   <trkpt lat="31.7507430" lon="35.1347550">
    <ele>799.4</ele>
    <time>2018-09-22T05:04:48Z</time>
   </trkpt>
   <trkpt lat="31.7507190" lon="35.1348010">
    <ele>799.9</ele>
    <time>2018-09-22T05:04:51Z</time>
   </trkpt>
   <trkpt lat="31.7507020" lon="35.1348300">
    <ele>800.2</ele>
    <time>2018-09-22T05:04:54Z</time>
   </trkpt>
   <trkpt lat="31.7506630" lon="35.1348290">
    <ele>800.6</ele>
    <time>2018-09-22T05:04:58Z</time>
   </trkpt>
   <trkpt lat="31.7506350" lon="35.1348310">
    <ele>800.9</ele>
    <time>2018-09-22T05:05:00Z</time>
   </trkpt>
   <trkpt lat="31.7506090" lon="35.1348460">
    <ele>801.1</ele>
    <time>2018-09-22T05:05:03Z</time>
   </trkpt>
   <trkpt lat="31.7505710" lon="35.1348670">
    <ele>801.5</ele>
    <time>2018-09-22T05:05:06Z</time>
   </trkpt>
   <trkpt lat="31.7505420" lon="35.1348860">
    <ele>801.8</ele>
    <time>2018-09-22T05:05:08Z</time>
   </trkpt>
   <trkpt lat="31.7505140" lon="35.1348920">
    <ele>802.1</ele>
    <time>2018-09-22T05:05:10Z</time>
   </trkpt>
   <trkpt lat="31.7504730" lon="35.1348920">
    <ele>802.4</ele>
    <time>2018-09-22T05:05:13Z</time>
   </trkpt>
   <trkpt lat="31.7504370" lon="35.1348950">
    <ele>802.7</ele>
    <time>2018-09-22T05:05:16Z</time>
   </trkpt>
   <trkpt lat="31.7504070" lon="35.1349000">
    <ele>803.0</ele>
    <time>2018-09-22T05:05:18Z</time>
   </trkpt>
   <trkpt lat="31.7503810" lon="35.1349090">
    <ele>803.2</ele>
    <time>2018-09-22T05:05:20Z</time>
   </trkpt>
   <trkpt lat="31.7503440" lon="35.1349240">
    <ele>803.5</ele>
    <time>2018-09-22T05:05:23Z</time>
   </trkpt>
   <trkpt lat="31.7503140" lon="35.1349270">
    <ele>803.8</ele>
    <time>2018-09-22T05:05:25Z</time>
   </trkpt>
   <trkpt lat="31.7502870" lon="35.1349340">
    <ele>804.0</ele>
    <time>2018-09-22T05:05:27Z</time>
   </trkpt>
   <trkpt lat="31.7502460" lon="35.1349450">
    <ele>804.4</ele>
    <time>2018-09-22T05:05:30Z</time>
   </trkpt>
   <trkpt lat="31.7502210" lon="35.1349670">
    <ele>804.7</ele>
    <time>2018-09-22T05:05:32Z</time>
   </trkpt>
   <trkpt lat="31.7501940" lon="35.1349840">
    <ele>805.1</ele>
    <time>2018-09-22T05:05:34Z</time>
   </trkpt>
   <trkpt lat="31.7501650" lon="35.1350140">
    <ele>805.6</ele>
    <time>2018-09-22T05:05:37Z</time>
   </trkpt>
   <trkpt lat="31.7501440" lon="35.1350360">
    <ele>806.1</ele>
    <time>2018-09-22T05:05:39Z</time>
   </trkpt>
   <trkpt lat="31.7501270" lon="35.1350620">
    <ele>806.6</ele>
    <time>2018-09-22T05:05:41Z</time>
   </trkpt>
   <trkpt lat="31.7501110" lon="35.1350990">
    <ele>807.4</ele>
    <time>2018-09-22T05:05:43Z</time>
   </trkpt>
   <trkpt lat="31.7500920" lon="35.1351270">
    <ele>808.3</ele>
    <time>2018-09-22T05:05:45Z</time>
   </trkpt>
   <trkpt lat="31.7500780" lon="35.1351660">
    <ele>809.4</ele>
    <time>2018-09-22T05:05:48Z</time>
   </trkpt>
   <trkpt lat="31.7500580" lon="35.1352370">
    <ele>810.9</ele>
    <time>2018-09-22T05:05:50Z</time>
   </trkpt>
   <trkpt lat="31.7500530" lon="35.1352770">
    <ele>811.6</ele>
    <time>2018-09-22T05:05:52Z</time>
   </trkpt>
   <trkpt lat="31.7500480" lon="35.1353180">
    <ele>812.3</ele>
    <time>2018-09-22T05:05:54Z</time>
   </trkpt>
   <trkpt lat="31.7500430" lon="35.1353590">
    <ele>813.0</ele>
    <time>2018-09-22T05:05:57Z</time>
   </trkpt>
   <trkpt lat="31.7500390" lon="35.1353990">
    <ele>819.1</ele>
    <time>2018-09-22T05:05:59Z</time>
   </trkpt>
   <trkpt lat="31.7500340" lon="35.1354400">
    <ele>819.3</ele>
    <time>2018-09-22T05:06:02Z</time>
   </trkpt>
   <trkpt lat="31.7500290" lon="35.1354810">
    <ele>821.6</ele>
    <time>2018-09-22T05:06:05Z</time>
   </trkpt>
   <trkpt lat="31.7500240" lon="35.1355210">
    <ele>821.5</ele>
    <time>2018-09-22T05:08:25Z</time>
   </trkpt>
   <trkpt lat="31.7500190" lon="35.1355620">
    <ele>821.4</ele>
    <time>2018-09-22T05:08:26Z</time>
   </trkpt>
   <trkpt lat="31.7500360" lon="35.1356140">
    <ele>821.3</ele>
    <time>2018-09-22T05:08:27Z</time>
   </trkpt>
   <trkpt lat="31.7500480" lon="35.1356660">
    <ele>821.2</ele>
    <time>2018-09-22T05:08:28Z</time>
   </trkpt>
   <trkpt lat="31.7500600" lon="35.1357130">
    <ele>821.1</ele>
    <time>2018-09-22T05:08:29Z</time>
   </trkpt>
   <trkpt lat="31.7500760" lon="35.1357510">
    <ele>821.0</ele>
    <time>2018-09-22T05:08:30Z</time>
   </trkpt>
   <trkpt lat="31.7500670" lon="35.1357980">
    <ele>820.8</ele>
    <time>2018-09-22T05:08:32Z</time>
   </trkpt>
   <trkpt lat="31.7500980" lon="35.1358500">
    <ele>820.5</ele>
    <time>2018-09-22T05:08:34Z</time>
   </trkpt>
   <trkpt lat="31.7501170" lon="35.1358790">
    <ele>820.4</ele>
    <time>2018-09-22T05:08:35Z</time>
   </trkpt>
   <trkpt lat="31.7501440" lon="35.1359100">
    <ele>820.2</ele>
    <time>2018-09-22T05:08:36Z</time>
   </trkpt>
   <trkpt lat="31.7501750" lon="35.1359510">
    <ele>819.9</ele>
    <time>2018-09-22T05:08:38Z</time>
   </trkpt>
   <trkpt lat="31.7501880" lon="35.1359850">
    <ele>819.8</ele>
    <time>2018-09-22T05:08:39Z</time>
   </trkpt>
   <trkpt lat="31.7502160" lon="35.1360130">
    <ele>819.6</ele>
    <time>2018-09-22T05:08:40Z</time>
   </trkpt>
   <trkpt lat="31.7502370" lon="35.1360620">
    <ele>819.5</ele>
    <time>2018-09-22T05:08:42Z</time>
   </trkpt>
   <trkpt lat="31.7502330" lon="35.1360950">
    <ele>819.4</ele>
    <time>2018-09-22T05:08:43Z</time>
   </trkpt>
   <trkpt lat="31.7502480" lon="35.1361370">
    <ele>819.3</ele>
    <time>2018-09-22T05:08:44Z</time>
   </trkpt>
   <trkpt lat="31.7502590" lon="35.1361720">
    <ele>819.2</ele>
    <time>2018-09-22T05:08:45Z</time>
   </trkpt>
   <trkpt lat="31.7502670" lon="35.1362080">
    <ele>819.1</ele>
    <time>2018-09-22T05:08:46Z</time>
   </trkpt>
   <trkpt lat="31.7502630" lon="35.1362500">
    <ele>819.0</ele>
    <time>2018-09-22T05:08:47Z</time>
   </trkpt>
   <trkpt lat="31.7502820" lon="35.1362850">
    <ele>818.9</ele>
    <time>2018-09-22T05:08:48Z</time>
   </trkpt>
   <trkpt lat="31.7502890" lon="35.1363360">
    <ele>818.8</ele>
    <time>2018-09-22T05:08:49Z</time>
   </trkpt>
   <trkpt lat="31.7502900" lon="35.1363720">
    <ele>818.7</ele>
    <time>2018-09-22T05:08:50Z</time>
   </trkpt>
   <trkpt lat="31.7502980" lon="35.1364270">
    <ele>818.6</ele>
    <time>2018-09-22T05:08:51Z</time>
   </trkpt>
   <trkpt lat="31.7503000" lon="35.1364840">
    <ele>818.5</ele>
    <time>2018-09-22T05:08:52Z</time>
   </trkpt>
   <trkpt lat="31.7503000" lon="35.1365360">
    <ele>818.3</ele>
    <time>2018-09-22T05:08:53Z</time>
   </trkpt>
   <trkpt lat="31.7502740" lon="35.1366330">
    <ele>817.9</ele>
    <time>2018-09-22T05:08:54Z</time>
   </trkpt>
   <trkpt lat="31.7502820" lon="35.1367390">
    <ele>817.4</ele>
    <time>2018-09-22T05:08:55Z</time>
   </trkpt>
   <trkpt lat="31.7502520" lon="35.1367930">
    <ele>817.2</ele>
    <time>2018-09-22T05:08:56Z</time>
   </trkpt>
   <trkpt lat="31.7502100" lon="35.1368530">
    <ele>816.9</ele>
    <time>2018-09-22T05:08:57Z</time>
   </trkpt>
   <trkpt lat="31.7501860" lon="35.1369140">
    <ele>816.7</ele>
    <time>2018-09-22T05:08:58Z</time>
   </trkpt>
   <trkpt lat="31.7501350" lon="35.1369210">
    <ele>816.6</ele>
    <time>2018-09-22T05:08:59Z</time>
   </trkpt>
   <trkpt lat="31.7500930" lon="35.1369520">
    <ele>817.0</ele>
    <time>2018-09-22T05:09:00Z</time>
   </trkpt>
   <trkpt lat="31.7500560" lon="35.1369800">
    <ele>816.5</ele>
    <time>2018-09-22T05:09:01Z</time>
   </trkpt>
   <trkpt lat="31.7500140" lon="35.1370130">
    <ele>816.9</ele>
    <time>2018-09-22T05:09:02Z</time>
   </trkpt>
   <trkpt lat="31.7499730" lon="35.1370400">
    <ele>817.3</ele>
    <time>2018-09-22T05:09:03Z</time>
   </trkpt>
   <trkpt lat="31.7499390" lon="35.1370660">
    <ele>817.0</ele>
    <time>2018-09-22T05:09:04Z</time>
   </trkpt>
   <trkpt lat="31.7498960" lon="35.1370850">
    <ele>817.2</ele>
    <time>2018-09-22T05:09:05Z</time>
   </trkpt>
   <trkpt lat="31.7498480" lon="35.1371130">
    <ele>817.3</ele>
    <time>2018-09-22T05:09:06Z</time>
   </trkpt>
   <trkpt lat="31.7498090" lon="35.1371180">
    <ele>816.1</ele>
    <time>2018-09-22T05:09:07Z</time>
   </trkpt>
   <trkpt lat="31.7497630" lon="35.1371310">
    <ele>815.5</ele>
    <time>2018-09-22T05:09:08Z</time>
   </trkpt>
   <trkpt lat="31.7497360" lon="35.1371640">
    <ele>815.8</ele>
    <time>2018-09-22T05:09:09Z</time>
   </trkpt>
   <trkpt lat="31.7497040" lon="35.1371820">
    <ele>815.8</ele>
    <time>2018-09-22T05:09:10Z</time>
   </trkpt>
   <trkpt lat="31.7496470" lon="35.1372050">
    <ele>815.5</ele>
    <time>2018-09-22T05:09:11Z</time>
   </trkpt>
   <trkpt lat="31.7496140" lon="35.1372340">
    <ele>814.7</ele>
    <time>2018-09-22T05:09:12Z</time>
   </trkpt>
   <trkpt lat="31.7495750" lon="35.1372540">
    <ele>815.1</ele>
    <time>2018-09-22T05:09:13Z</time>
   </trkpt>
   <trkpt lat="31.7495110" lon="35.1372990">
    <ele>815.2</ele>
    <time>2018-09-22T05:09:14Z</time>
   </trkpt>
   <trkpt lat="31.7494570" lon="35.1373230">
    <ele>814.7</ele>
    <time>2018-09-22T05:09:15Z</time>
   </trkpt>
   <trkpt lat="31.7494220" lon="35.1373340">
    <ele>815.6</ele>
    <time>2018-09-22T05:09:16Z</time>
   </trkpt>
   <trkpt lat="31.7493840" lon="35.1373490">
    <ele>815.1</ele>
    <time>2018-09-22T05:09:17Z</time>
   </trkpt>
   <trkpt lat="31.7493430" lon="35.1373640">
    <ele>814.7</ele>
    <time>2018-09-22T05:09:18Z</time>
   </trkpt>
   <trkpt lat="31.7492980" lon="35.1373690">
    <ele>814.9</ele>
    <time>2018-09-22T05:09:19Z</time>
   </trkpt>
   <trkpt lat="31.7492530" lon="35.1373830">
    <ele>814.6</ele>
    <time>2018-09-22T05:09:20Z</time>
   </trkpt>
   <trkpt lat="31.7491970" lon="35.1373950">
    <ele>814.4</ele>
    <time>2018-09-22T05:09:21Z</time>
   </trkpt>
   <trkpt lat="31.7491420" lon="35.1374060">
    <ele>813.8</ele>
    <time>2018-09-22T05:09:22Z</time>
   </trkpt>
   <trkpt lat="31.7490920" lon="35.1374310">
    <ele>815.1</ele>
    <time>2018-09-22T05:09:23Z</time>
   </trkpt>
   <trkpt lat="31.7490640" lon="35.1374410">
    <ele>814.7</ele>
    <time>2018-09-22T05:09:24Z</time>
   </trkpt>
   <trkpt lat="31.7490050" lon="35.1374540">
    <ele>815.0</ele>
    <time>2018-09-22T05:09:25Z</time>
   </trkpt>
   <trkpt lat="31.7489860" lon="35.1374910">
    <ele>815.1</ele>
    <time>2018-09-22T05:09:26Z</time>
   </trkpt>
   <trkpt lat="31.7489520" lon="35.1375110">
    <ele>815.7</ele>
    <time>2018-09-22T05:09:27Z</time>
   </trkpt>
   <trkpt lat="31.7489170" lon="35.1375300">
    <ele>815.2</ele>
    <time>2018-09-22T05:09:28Z</time>
   </trkpt>
   <trkpt lat="31.7488750" lon="35.1375410">
    <ele>815.5</ele>
    <time>2018-09-22T05:09:29Z</time>
   </trkpt>
   <trkpt lat="31.7488100" lon="35.1375410">
    <ele>814.1</ele>
    <time>2018-09-22T05:09:30Z</time>
   </trkpt>
   <trkpt lat="31.7487650" lon="35.1375580">
    <ele>813.3</ele>
    <time>2018-09-22T05:09:31Z</time>
   </trkpt>
   <trkpt lat="31.7487250" lon="35.1375730">
    <ele>812.4</ele>
    <time>2018-09-22T05:09:32Z</time>
   </trkpt>
   <trkpt lat="31.7486550" lon="35.1375990">
    <ele>812.0</ele>
    <time>2018-09-22T05:09:33Z</time>
   </trkpt>
   <trkpt lat="31.7485930" lon="35.1376440">
    <ele>812.8</ele>
    <time>2018-09-22T05:09:34Z</time>
   </trkpt>
   <trkpt lat="31.7485490" lon="35.1377040">
    <ele>813.9</ele>
    <time>2018-09-22T05:09:35Z</time>
   </trkpt>
   <trkpt lat="31.7484990" lon="35.1377360">
    <ele>814.9</ele>
    <time>2018-09-22T05:09:36Z</time>
   </trkpt>
   <trkpt lat="31.7485070" lon="35.1378040">
    <ele>817.5</ele>
    <time>2018-09-22T05:09:37Z</time>
   </trkpt>
   <trkpt lat="31.7484760" lon="35.1378180">
    <ele>817.3</ele>
    <time>2018-09-22T05:09:38Z</time>
   </trkpt>
   <trkpt lat="31.7484540" lon="35.1378520">
    <ele>817.0</ele>
    <time>2018-09-22T05:09:39Z</time>
   </trkpt>
   <trkpt lat="31.7484210" lon="35.1378780">
    <ele>816.7</ele>
    <time>2018-09-22T05:09:40Z</time>
   </trkpt>
   <trkpt lat="31.7483880" lon="35.1379400">
    <ele>816.2</ele>
    <time>2018-09-22T05:09:41Z</time>
   </trkpt>
   <trkpt lat="31.7483440" lon="35.1379680">
    <ele>815.8</ele>
    <time>2018-09-22T05:09:42Z</time>
   </trkpt>
   <trkpt lat="31.7483020" lon="35.1380250">
    <ele>815.3</ele>
    <time>2018-09-22T05:09:43Z</time>
   </trkpt>
   <trkpt lat="31.7482690" lon="35.1380800">
    <ele>814.8</ele>
    <time>2018-09-22T05:09:45Z</time>
   </trkpt>
   <trkpt lat="31.7482410" lon="35.1381280">
    <ele>814.4</ele>
    <time>2018-09-22T05:09:46Z</time>
   </trkpt>
   <trkpt lat="31.7482120" lon="35.1381700">
    <ele>814.1</ele>
    <time>2018-09-22T05:09:47Z</time>
   </trkpt>
   <trkpt lat="31.7481860" lon="35.1382110">
    <ele>813.7</ele>
    <time>2018-09-22T05:09:48Z</time>
   </trkpt>
   <trkpt lat="31.7481510" lon="35.1382450">
    <ele>813.4</ele>
    <time>2018-09-22T05:09:49Z</time>
   </trkpt>
   <trkpt lat="31.7481280" lon="35.1382710">
    <ele>813.1</ele>
    <time>2018-09-22T05:09:50Z</time>
   </trkpt>
   <trkpt lat="31.7481010" lon="35.1382980">
    <ele>812.9</ele>
    <time>2018-09-22T05:09:51Z</time>
   </trkpt>
   <trkpt lat="31.7480660" lon="35.1383420">
    <ele>812.5</ele>
    <time>2018-09-22T05:09:52Z</time>
   </trkpt>
   <trkpt lat="31.7480330" lon="35.1383910">
    <ele>812.0</ele>
    <time>2018-09-22T05:09:53Z</time>
   </trkpt>
   <trkpt lat="31.7479940" lon="35.1384590">
    <ele>811.5</ele>
    <time>2018-09-22T05:09:54Z</time>
   </trkpt>
   <trkpt lat="31.7479480" lon="35.1385150">
    <ele>811.0</ele>
    <time>2018-09-22T05:09:55Z</time>
   </trkpt>
   <trkpt lat="31.7479140" lon="35.1385800">
    <ele>810.4</ele>
    <time>2018-09-22T05:09:56Z</time>
   </trkpt>
   <trkpt lat="31.7478630" lon="35.1386460">
    <ele>809.8</ele>
    <time>2018-09-22T05:09:57Z</time>
   </trkpt>
   <trkpt lat="31.7478180" lon="35.1386980">
    <ele>809.2</ele>
    <time>2018-09-22T05:09:58Z</time>
   </trkpt>
   <trkpt lat="31.7477810" lon="35.1387730">
    <ele>808.6</ele>
    <time>2018-09-22T05:09:59Z</time>
   </trkpt>
   <trkpt lat="31.7477330" lon="35.1388200">
    <ele>808.0</ele>
    <time>2018-09-22T05:10:00Z</time>
   </trkpt>
   <trkpt lat="31.7476870" lon="35.1388870">
    <ele>807.3</ele>
    <time>2018-09-22T05:10:01Z</time>
   </trkpt>
   <trkpt lat="31.7476690" lon="35.1388430">
    <ele>807.0</ele>
    <time>2018-09-22T05:10:02Z</time>
   </trkpt>
   <trkpt lat="31.7475950" lon="35.1388180">
    <ele>808.3</ele>
    <time>2018-09-22T05:10:03Z</time>
   </trkpt>
   <trkpt lat="31.7475570" lon="35.1388180">
    <ele>809.0</ele>
    <time>2018-09-22T05:10:04Z</time>
   </trkpt>
   <trkpt lat="31.7475380" lon="35.1388420">
    <ele>809.5</ele>
    <time>2018-09-22T05:10:05Z</time>
   </trkpt>
   <trkpt lat="31.7475000" lon="35.1388530">
    <ele>810.1</ele>
    <time>2018-09-22T05:10:06Z</time>
   </trkpt>
   <trkpt lat="31.7474600" lon="35.1388610">
    <ele>810.8</ele>
    <time>2018-09-22T05:10:07Z</time>
   </trkpt>
   <trkpt lat="31.7474270" lon="35.1388690">
    <ele>811.4</ele>
    <time>2018-09-22T05:10:08Z</time>
   </trkpt>
   <trkpt lat="31.7473860" lon="35.1389060">
    <ele>812.3</ele>
    <time>2018-09-22T05:10:10Z</time>
   </trkpt>
   <trkpt lat="31.7473580" lon="35.1389220">
    <ele>813.0</ele>
    <time>2018-09-22T05:10:11Z</time>
   </trkpt>
   <trkpt lat="31.7473360" lon="35.1389480">
    <ele>813.0</ele>
    <time>2018-09-22T05:10:12Z</time>
   </trkpt>
   <trkpt lat="31.7473030" lon="35.1389800">
    <ele>813.0</ele>
    <time>2018-09-22T05:10:14Z</time>
   </trkpt>
   <trkpt lat="31.7472620" lon="35.1389990">
    <ele>813.4</ele>
    <time>2018-09-22T05:10:16Z</time>
   </trkpt>
   <trkpt lat="31.7472340" lon="35.1390250">
    <ele>813.2</ele>
    <time>2018-09-22T05:10:18Z</time>
   </trkpt>
   <trkpt lat="31.7472070" lon="35.1390480">
    <ele>813.1</ele>
    <time>2018-09-22T05:10:20Z</time>
   </trkpt>
   <trkpt lat="31.7471950" lon="35.1390790">
    <ele>813.6</ele>
    <time>2018-09-22T05:10:21Z</time>
   </trkpt>
   <trkpt lat="31.7471730" lon="35.1391140">
    <ele>814.2</ele>
    <time>2018-09-22T05:10:23Z</time>
   </trkpt>
   <trkpt lat="31.7471570" lon="35.1391420">
    <ele>814.8</ele>
    <time>2018-09-22T05:10:25Z</time>
   </trkpt>
   <trkpt lat="31.7471270" lon="35.1391430">
    <ele>814.9</ele>
    <time>2018-09-22T05:10:26Z</time>
   </trkpt>
   <trkpt lat="31.7470910" lon="35.1391580">
    <ele>816.7</ele>
    <time>2018-09-22T05:10:28Z</time>
   </trkpt>
   <trkpt lat="31.7470500" lon="35.1391510">
    <ele>817.8</ele>
    <time>2018-09-22T05:10:30Z</time>
   </trkpt>
   <trkpt lat="31.7470170" lon="35.1391670">
    <ele>818.9</ele>
    <time>2018-09-22T05:10:32Z</time>
   </trkpt>
   <trkpt lat="31.7469890" lon="35.1391980">
    <ele>819.0</ele>
    <time>2018-09-22T05:10:34Z</time>
   </trkpt>
   <trkpt lat="31.7469630" lon="35.1392140">
    <ele>819.0</ele>
    <time>2018-09-22T05:10:36Z</time>
   </trkpt>
   <trkpt lat="31.7469420" lon="35.1392350">
    <ele>819.0</ele>
    <time>2018-09-22T05:10:38Z</time>
   </trkpt>
   <trkpt lat="31.7469180" lon="35.1392540">
    <ele>819.2</ele>
    <time>2018-09-22T05:10:40Z</time>
   </trkpt>
   <trkpt lat="31.7468920" lon="35.1392340">
    <ele>819.5</ele>
    <time>2018-09-22T05:10:44Z</time>
   </trkpt>
   <trkpt lat="31.7468650" lon="35.1392150">
    <ele>819.7</ele>
    <time>2018-09-22T05:10:47Z</time>
   </trkpt>
   <trkpt lat="31.7468360" lon="35.1392010">
    <ele>820.0</ele>
    <time>2018-09-22T05:10:49Z</time>
   </trkpt>
   <trkpt lat="31.7468070" lon="35.1391740">
    <ele>820.3</ele>
    <time>2018-09-22T05:10:51Z</time>
   </trkpt>
   <trkpt lat="31.7467670" lon="35.1391520">
    <ele>820.7</ele>
    <time>2018-09-22T05:10:53Z</time>
   </trkpt>
   <trkpt lat="31.7467320" lon="35.1391270">
    <ele>820.8</ele>
    <time>2018-09-22T05:10:55Z</time>
   </trkpt>
   <trkpt lat="31.7466990" lon="35.1390990">
    <ele>821.0</ele>
    <time>2018-09-22T05:10:58Z</time>
   </trkpt>
   <trkpt lat="31.7466730" lon="35.1390780">
    <ele>821.1</ele>
    <time>2018-09-22T05:11:00Z</time>
   </trkpt>
   <trkpt lat="31.7466240" lon="35.1390670">
    <ele>821.4</ele>
    <time>2018-09-22T05:11:02Z</time>
   </trkpt>
   <trkpt lat="31.7465940" lon="35.1390560">
    <ele>821.6</ele>
    <time>2018-09-22T05:11:06Z</time>
   </trkpt>
   <trkpt lat="31.7465510" lon="35.1390550">
    <ele>821.8</ele>
    <time>2018-09-22T05:11:08Z</time>
   </trkpt>
   <trkpt lat="31.7465170" lon="35.1390350">
    <ele>821.9</ele>
    <time>2018-09-22T05:11:10Z</time>
   </trkpt>
   <trkpt lat="31.7464780" lon="35.1390180">
    <ele>822.0</ele>
    <time>2018-09-22T05:11:12Z</time>
   </trkpt>
   <trkpt lat="31.7464420" lon="35.1389960">
    <ele>821.9</ele>
    <time>2018-09-22T05:11:14Z</time>
   </trkpt>
   <trkpt lat="31.7464190" lon="35.1389790">
    <ele>821.7</ele>
    <time>2018-09-22T05:11:16Z</time>
   </trkpt>
   <trkpt lat="31.7463980" lon="35.1389380">
    <ele>821.5</ele>
    <time>2018-09-22T05:11:18Z</time>
   </trkpt>
   <trkpt lat="31.7463860" lon="35.1388960">
    <ele>821.1</ele>
    <time>2018-09-22T05:11:20Z</time>
   </trkpt>
   <trkpt lat="31.7463570" lon="35.1388590">
    <ele>819.4</ele>
    <time>2018-09-22T05:11:22Z</time>
   </trkpt>
   <trkpt lat="31.7463280" lon="35.1388230">
    <ele>817.5</ele>
    <time>2018-09-22T05:11:24Z</time>
   </trkpt>
   <trkpt lat="31.7462910" lon="35.1387850">
    <ele>815.7</ele>
    <time>2018-09-22T05:11:26Z</time>
   </trkpt>
   <trkpt lat="31.7462680" lon="35.1387650">
    <ele>813.8</ele>
    <time>2018-09-22T05:11:27Z</time>
   </trkpt>
   <trkpt lat="31.7462330" lon="35.1387400">
    <ele>812.0</ele>
    <time>2018-09-22T05:11:29Z</time>
   </trkpt>
   <trkpt lat="31.7461970" lon="35.1387130">
    <ele>810.4</ele>
    <time>2018-09-22T05:11:31Z</time>
   </trkpt>
   <trkpt lat="31.7462220" lon="35.1386990">
    <ele>808.9</ele>
    <time>2018-09-22T05:11:38Z</time>
   </trkpt>
   <trkpt lat="31.7461570" lon="35.1386410">
    <ele>807.2</ele>
    <time>2018-09-22T05:11:50Z</time>
   </trkpt>
   <trkpt lat="31.7461560" lon="35.1385990">
    <ele>807.1</ele>
    <time>2018-09-22T05:11:51Z</time>
   </trkpt>
   <trkpt lat="31.7461070" lon="35.1385530">
    <ele>806.5</ele>
    <time>2018-09-22T05:11:52Z</time>
   </trkpt>
   <trkpt lat="31.7460670" lon="35.1385110">
    <ele>805.7</ele>
    <time>2018-09-22T05:11:53Z</time>
   </trkpt>
   <trkpt lat="31.7460380" lon="35.1384760">
    <ele>805.1</ele>
    <time>2018-09-22T05:11:54Z</time>
   </trkpt>
   <trkpt lat="31.7460010" lon="35.1384360">
    <ele>804.3</ele>
    <time>2018-09-22T05:11:55Z</time>
   </trkpt>
   <trkpt lat="31.7459540" lon="35.1384160">
    <ele>803.3</ele>
    <time>2018-09-22T05:11:56Z</time>
   </trkpt>
   <trkpt lat="31.7459210" lon="35.1383880">
    <ele>802.4</ele>
    <time>2018-09-22T05:11:57Z</time>
   </trkpt>
   <trkpt lat="31.7458910" lon="35.1383520">
    <ele>801.4</ele>
    <time>2018-09-22T05:11:58Z</time>
   </trkpt>
   <trkpt lat="31.7458520" lon="35.1383390">
    <ele>800.5</ele>
    <time>2018-09-22T05:11:59Z</time>
   </trkpt>
   <trkpt lat="31.7458040" lon="35.1383180">
    <ele>799.3</ele>
    <time>2018-09-22T05:12:00Z</time>
   </trkpt>
   <trkpt lat="31.7457690" lon="35.1383410">
    <ele>798.5</ele>
    <time>2018-09-22T05:12:01Z</time>
   </trkpt>
   <trkpt lat="31.7457510" lon="35.1384070">
    <ele>799.6</ele>
    <time>2018-09-22T05:12:02Z</time>
   </trkpt>
   <trkpt lat="31.7457260" lon="35.1384400">
    <ele>799.8</ele>
    <time>2018-09-22T05:12:03Z</time>
   </trkpt>
   <trkpt lat="31.7456990" lon="35.1384900">
    <ele>800.2</ele>
    <time>2018-09-22T05:12:04Z</time>
   </trkpt>
   <trkpt lat="31.7457030" lon="35.1385480">
    <ele>800.5</ele>
    <time>2018-09-22T05:12:05Z</time>
   </trkpt>
   <trkpt lat="31.7457090" lon="35.1386050">
    <ele>800.8</ele>
    <time>2018-09-22T05:12:06Z</time>
   </trkpt>
   <trkpt lat="31.7456960" lon="35.1386540">
    <ele>801.1</ele>
    <time>2018-09-22T05:12:07Z</time>
   </trkpt>
   <trkpt lat="31.7456810" lon="35.1387180">
    <ele>801.8</ele>
    <time>2018-09-22T05:12:08Z</time>
   </trkpt>
   <trkpt lat="31.7456540" lon="35.1387400">
    <ele>802.3</ele>
    <time>2018-09-22T05:12:09Z</time>
   </trkpt>
   <trkpt lat="31.7456510" lon="35.1388020">
    <ele>802.8</ele>
    <time>2018-09-22T05:12:10Z</time>
   </trkpt>
   <trkpt lat="31.7456320" lon="35.1388550">
    <ele>803.1</ele>
    <time>2018-09-22T05:12:11Z</time>
   </trkpt>
   <trkpt lat="31.7456220" lon="35.1389260">
    <ele>803.1</ele>
    <time>2018-09-22T05:12:12Z</time>
   </trkpt>
   <trkpt lat="31.7456070" lon="35.1389980">
    <ele>803.4</ele>
    <time>2018-09-22T05:12:13Z</time>
   </trkpt>
   <trkpt lat="31.7455890" lon="35.1390600">
    <ele>804.0</ele>
    <time>2018-09-22T05:12:14Z</time>
   </trkpt>
   <trkpt lat="31.7455580" lon="35.1391010">
    <ele>804.1</ele>
    <time>2018-09-22T05:12:15Z</time>
   </trkpt>
   <trkpt lat="31.7455380" lon="35.1391490">
    <ele>804.2</ele>
    <time>2018-09-22T05:12:16Z</time>
   </trkpt>
   <trkpt lat="31.7455180" lon="35.1392070">
    <ele>803.5</ele>
    <time>2018-09-22T05:12:17Z</time>
   </trkpt>
   <trkpt lat="31.7455060" lon="35.1392580">
    <ele>803.2</ele>
    <time>2018-09-22T05:12:18Z</time>
   </trkpt>
   <trkpt lat="31.7454900" lon="35.1393260">
    <ele>803.2</ele>
    <time>2018-09-22T05:12:19Z</time>
   </trkpt>
   <trkpt lat="31.7454810" lon="35.1393720">
    <ele>803.3</ele>
    <time>2018-09-22T05:12:20Z</time>
   </trkpt>
   <trkpt lat="31.7454690" lon="35.1394060">
    <ele>803.4</ele>
    <time>2018-09-22T05:12:21Z</time>
   </trkpt>
   <trkpt lat="31.7454400" lon="35.1394470">
    <ele>803.6</ele>
    <time>2018-09-22T05:12:22Z</time>
   </trkpt>
   <trkpt lat="31.7454210" lon="35.1394970">
    <ele>804.0</ele>
    <time>2018-09-22T05:12:23Z</time>
   </trkpt>
   <trkpt lat="31.7454120" lon="35.1395910">
    <ele>803.9</ele>
    <time>2018-09-22T05:12:24Z</time>
   </trkpt>
   <trkpt lat="31.7453970" lon="35.1396390">
    <ele>803.6</ele>
    <time>2018-09-22T05:12:25Z</time>
   </trkpt>
   <trkpt lat="31.7453680" lon="35.1396600">
    <ele>803.1</ele>
    <time>2018-09-22T05:12:26Z</time>
   </trkpt>
   <trkpt lat="31.7453250" lon="35.1396610">
    <ele>802.4</ele>
    <time>2018-09-22T05:12:27Z</time>
   </trkpt>
   <trkpt lat="31.7452450" lon="35.1396610">
    <ele>800.5</ele>
    <time>2018-09-22T05:12:29Z</time>
   </trkpt>
   <trkpt lat="31.7451970" lon="35.1396960">
    <ele>798.9</ele>
    <time>2018-09-22T05:12:30Z</time>
   </trkpt>
   <trkpt lat="31.7451480" lon="35.1396760">
    <ele>797.6</ele>
    <time>2018-09-22T05:12:31Z</time>
   </trkpt>
   <trkpt lat="31.7451000" lon="35.1396050">
    <ele>795.6</ele>
    <time>2018-09-22T05:12:32Z</time>
   </trkpt>
   <trkpt lat="31.7450600" lon="35.1395720">
    <ele>794.3</ele>
    <time>2018-09-22T05:12:33Z</time>
   </trkpt>
   <trkpt lat="31.7450390" lon="35.1395310">
    <ele>793.5</ele>
    <time>2018-09-22T05:12:34Z</time>
   </trkpt>
   <trkpt lat="31.7450210" lon="35.1395030">
    <ele>792.9</ele>
    <time>2018-09-22T05:12:35Z</time>
   </trkpt>
   <trkpt lat="31.7449900" lon="35.1395140">
    <ele>791.9</ele>
    <time>2018-09-22T05:12:36Z</time>
   </trkpt>
   <trkpt lat="31.7449360" lon="35.1395410">
    <ele>790.6</ele>
    <time>2018-09-22T05:12:37Z</time>
   </trkpt>
   <trkpt lat="31.7448900" lon="35.1395380">
    <ele>789.6</ele>
    <time>2018-09-22T05:12:38Z</time>
   </trkpt>
   <trkpt lat="31.7448280" lon="35.1395510">
    <ele>788.4</ele>
    <time>2018-09-22T05:12:39Z</time>
   </trkpt>
   <trkpt lat="31.7447830" lon="35.1395780">
    <ele>787.6</ele>
    <time>2018-09-22T05:12:40Z</time>
   </trkpt>
   <trkpt lat="31.7447460" lon="35.1395850">
    <ele>787.0</ele>
    <time>2018-09-22T05:12:41Z</time>
   </trkpt>
   <trkpt lat="31.7446800" lon="35.1395820">
    <ele>785.7</ele>
    <time>2018-09-22T05:12:42Z</time>
   </trkpt>
   <trkpt lat="31.7446350" lon="35.1395810">
    <ele>784.2</ele>
    <time>2018-09-22T05:12:43Z</time>
   </trkpt>
   <trkpt lat="31.7445900" lon="35.1396060">
    <ele>783.8</ele>
    <time>2018-09-22T05:12:44Z</time>
   </trkpt>
   <trkpt lat="31.7445350" lon="35.1396400">
    <ele>783.3</ele>
    <time>2018-09-22T05:12:45Z</time>
   </trkpt>
   <trkpt lat="31.7444790" lon="35.1396710">
    <ele>782.8</ele>
    <time>2018-09-22T05:12:46Z</time>
   </trkpt>
   <trkpt lat="31.7444440" lon="35.1397080">
    <ele>782.6</ele>
    <time>2018-09-22T05:12:47Z</time>
   </trkpt>
   <trkpt lat="31.7444210" lon="35.1397540">
    <ele>782.0</ele>
    <time>2018-09-22T05:12:48Z</time>
   </trkpt>
   <trkpt lat="31.7444000" lon="35.1397950">
    <ele>781.5</ele>
    <time>2018-09-22T05:12:49Z</time>
   </trkpt>
   <trkpt lat="31.7443820" lon="35.1398300">
    <ele>781.7</ele>
    <time>2018-09-22T05:12:50Z</time>
   </trkpt>
   <trkpt lat="31.7443680" lon="35.1398690">
    <ele>781.9</ele>
    <time>2018-09-22T05:12:51Z</time>
   </trkpt>
   <trkpt lat="31.7443450" lon="35.1398990">
    <ele>782.0</ele>
    <time>2018-09-22T05:12:52Z</time>
   </trkpt>
   <trkpt lat="31.7442930" lon="35.1399570">
    <ele>781.8</ele>
    <time>2018-09-22T05:12:53Z</time>
   </trkpt>
   <trkpt lat="31.7442640" lon="35.1399900">
    <ele>781.3</ele>
    <time>2018-09-22T05:12:54Z</time>
   </trkpt>
   <trkpt lat="31.7442280" lon="35.1400190">
    <ele>780.8</ele>
    <time>2018-09-22T05:12:55Z</time>
   </trkpt>
   <trkpt lat="31.7441960" lon="35.1400670">
    <ele>780.3</ele>
    <time>2018-09-22T05:12:56Z</time>
   </trkpt>
   <trkpt lat="31.7441740" lon="35.1401150">
    <ele>779.9</ele>
    <time>2018-09-22T05:12:57Z</time>
   </trkpt>
   <trkpt lat="31.7441580" lon="35.1401610">
    <ele>779.6</ele>
    <time>2018-09-22T05:12:58Z</time>
   </trkpt>
   <trkpt lat="31.7441400" lon="35.1402100">
    <ele>779.5</ele>
    <time>2018-09-22T05:12:59Z</time>
   </trkpt>
   <trkpt lat="31.7441260" lon="35.1402430">
    <ele>779.4</ele>
    <time>2018-09-22T05:13:00Z</time>
   </trkpt>
   <trkpt lat="31.7441030" lon="35.1402860">
    <ele>779.4</ele>
    <time>2018-09-22T05:13:01Z</time>
   </trkpt>
   <trkpt lat="31.7440770" lon="35.1403200">
    <ele>779.3</ele>
    <time>2018-09-22T05:13:02Z</time>
   </trkpt>
   <trkpt lat="31.7440370" lon="35.1403780">
    <ele>778.9</ele>
    <time>2018-09-22T05:13:03Z</time>
   </trkpt>
   <trkpt lat="31.7440190" lon="35.1404200">
    <ele>779.0</ele>
    <time>2018-09-22T05:13:04Z</time>
   </trkpt>
   <trkpt lat="31.7439730" lon="35.1404620">
    <ele>778.9</ele>
    <time>2018-09-22T05:13:05Z</time>
   </trkpt>
   <trkpt lat="31.7439440" lon="35.1405040">
    <ele>778.7</ele>
    <time>2018-09-22T05:13:06Z</time>
   </trkpt>
   <trkpt lat="31.7438980" lon="35.1405400">
    <ele>778.3</ele>
    <time>2018-09-22T05:13:07Z</time>
   </trkpt>
   <trkpt lat="31.7438700" lon="35.1405610">
    <ele>777.9</ele>
    <time>2018-09-22T05:13:08Z</time>
   </trkpt>
   <trkpt lat="31.7438370" lon="35.1405740">
    <ele>777.4</ele>
    <time>2018-09-22T05:13:09Z</time>
   </trkpt>
   <trkpt lat="31.7438100" lon="35.1405900">
    <ele>776.7</ele>
    <time>2018-09-22T05:13:10Z</time>
   </trkpt>
   <trkpt lat="31.7437770" lon="35.1406100">
    <ele>776.0</ele>
    <time>2018-09-22T05:13:12Z</time>
   </trkpt>
   <trkpt lat="31.7437370" lon="35.1405720">
    <ele>775.6</ele>
    <time>2018-09-22T05:13:14Z</time>
   </trkpt>
   <trkpt lat="31.7436920" lon="35.1405650">
    <ele>774.9</ele>
    <time>2018-09-22T05:13:15Z</time>
   </trkpt>
   <trkpt lat="31.7436670" lon="35.1405220">
    <ele>774.5</ele>
    <time>2018-09-22T05:13:16Z</time>
   </trkpt>
   <trkpt lat="31.7436420" lon="35.1405040">
    <ele>774.2</ele>
    <time>2018-09-22T05:13:17Z</time>
   </trkpt>
   <trkpt lat="31.7435950" lon="35.1404920">
    <ele>773.6</ele>
    <time>2018-09-22T05:13:18Z</time>
   </trkpt>
   <trkpt lat="31.7435470" lon="35.1404800">
    <ele>772.9</ele>
    <time>2018-09-22T05:13:19Z</time>
   </trkpt>
   <trkpt lat="31.7435040" lon="35.1404800">
    <ele>772.2</ele>
    <time>2018-09-22T05:13:20Z</time>
   </trkpt>
   <trkpt lat="31.7434680" lon="35.1404770">
    <ele>771.2</ele>
    <time>2018-09-22T05:13:21Z</time>
   </trkpt>
   <trkpt lat="31.7434220" lon="35.1404750">
    <ele>770.3</ele>
    <time>2018-09-22T05:13:22Z</time>
   </trkpt>
   <trkpt lat="31.7433810" lon="35.1404760">
    <ele>769.9</ele>
    <time>2018-09-22T05:13:23Z</time>
   </trkpt>
   <trkpt lat="31.7433520" lon="35.1404750">
    <ele>769.4</ele>
    <time>2018-09-22T05:13:24Z</time>
   </trkpt>
   <trkpt lat="31.7433080" lon="35.1404170">
    <ele>767.9</ele>
    <time>2018-09-22T05:14:10Z</time>
   </trkpt>
   <trkpt lat="31.7433060" lon="35.1403840">
    <ele>767.2</ele>
    <time>2018-09-22T05:14:11Z</time>
   </trkpt>
   <trkpt lat="31.7432570" lon="35.1403390">
    <ele>765.6</ele>
    <time>2018-09-22T05:14:13Z</time>
   </trkpt>
   <trkpt lat="31.7432240" lon="35.1403130">
    <ele>764.6</ele>
    <time>2018-09-22T05:14:14Z</time>
   </trkpt>
   <trkpt lat="31.7431860" lon="35.1403030">
    <ele>763.7</ele>
    <time>2018-09-22T05:14:15Z</time>
   </trkpt>
   <trkpt lat="31.7431360" lon="35.1402840">
    <ele>763.1</ele>
    <time>2018-09-22T05:14:17Z</time>
   </trkpt>
   <trkpt lat="31.7431000" lon="35.1402820">
    <ele>762.8</ele>
    <time>2018-09-22T05:14:19Z</time>
   </trkpt>
   <trkpt lat="31.7431240" lon="35.1402520">
    <ele>761.1</ele>
    <time>2018-09-22T05:14:52Z</time>
   </trkpt>
   <trkpt lat="31.7431780" lon="35.1402190">
    <ele>760.9</ele>
    <time>2018-09-22T05:14:54Z</time>
   </trkpt>
   <trkpt lat="31.7432290" lon="35.1401890">
    <ele>760.7</ele>
    <time>2018-09-22T05:14:55Z</time>
   </trkpt>
   <trkpt lat="31.7432610" lon="35.1401770">
    <ele>760.5</ele>
    <time>2018-09-22T05:14:56Z</time>
   </trkpt>
   <trkpt lat="31.7433120" lon="35.1401790">
    <ele>760.3</ele>
    <time>2018-09-22T05:14:57Z</time>
   </trkpt>
   <trkpt lat="31.7433520" lon="35.1401760">
    <ele>760.2</ele>
    <time>2018-09-22T05:14:58Z</time>
   </trkpt>
   <trkpt lat="31.7433580" lon="35.1401240">
    <ele>760.0</ele>
    <time>2018-09-22T05:15:00Z</time>
   </trkpt>
   <trkpt lat="31.7433390" lon="35.1400920">
    <ele>759.8</ele>
    <time>2018-09-22T05:15:05Z</time>
   </trkpt>
   <trkpt lat="31.7433190" lon="35.1400610">
    <ele>759.8</ele>
    <time>2018-09-22T05:15:06Z</time>
   </trkpt>
   <trkpt lat="31.7432660" lon="35.1400660">
    <ele>760.1</ele>
    <time>2018-09-22T05:15:07Z</time>
   </trkpt>
   <trkpt lat="31.7432150" lon="35.1400700">
    <ele>760.3</ele>
    <time>2018-09-22T05:15:09Z</time>
   </trkpt>
   <trkpt lat="31.7431760" lon="35.1400690">
    <ele>760.5</ele>
    <time>2018-09-22T05:15:10Z</time>
   </trkpt>
   <trkpt lat="31.7431310" lon="35.1400750">
    <ele>760.7</ele>
    <time>2018-09-22T05:15:12Z</time>
   </trkpt>
   <trkpt lat="31.7431220" lon="35.1401090">
    <ele>760.8</ele>
    <time>2018-09-22T05:15:14Z</time>
   </trkpt>
   <trkpt lat="31.7430930" lon="35.1401300">
    <ele>760.9</ele>
    <time>2018-09-22T05:15:17Z</time>
   </trkpt>
   <trkpt lat="31.7430700" lon="35.1401480">
    <ele>761.0</ele>
    <time>2018-09-22T05:15:21Z</time>
   </trkpt>
   <trkpt lat="31.7431020" lon="35.1401460">
    <ele>760.9</ele>
    <time>2018-09-22T05:15:29Z</time>
   </trkpt>
   <trkpt lat="31.7431310" lon="35.1401430">
    <ele>760.8</ele>
    <time>2018-09-22T05:15:30Z</time>
   </trkpt>
   <trkpt lat="31.7431540" lon="35.1401220">
    <ele>760.6</ele>
    <time>2018-09-22T05:15:32Z</time>
   </trkpt>
   <trkpt lat="31.7431790" lon="35.1401010">
    <ele>760.5</ele>
    <time>2018-09-22T05:15:33Z</time>
   </trkpt>
   <trkpt lat="31.7431950" lon="35.1400630">
    <ele>760.3</ele>
    <time>2018-09-22T05:15:34Z</time>
   </trkpt>
   <trkpt lat="31.7432510" lon="35.1400180">
    <ele>760.0</ele>
    <time>2018-09-22T05:15:36Z</time>
   </trkpt>
   <trkpt lat="31.7432670" lon="35.1399750">
    <ele>759.8</ele>
    <time>2018-09-22T05:15:37Z</time>
   </trkpt>
   <trkpt lat="31.7433030" lon="35.1399600">
    <ele>759.7</ele>
    <time>2018-09-22T05:15:38Z</time>
   </trkpt>
   <trkpt lat="31.7433220" lon="35.1399360">
    <ele>759.7</ele>
    <time>2018-09-22T05:15:39Z</time>
   </trkpt>
   <trkpt lat="31.7433380" lon="35.1399020">
    <ele>759.6</ele>
    <time>2018-09-22T05:15:40Z</time>
   </trkpt>
   <trkpt lat="31.7433540" lon="35.1398730">
    <ele>759.6</ele>
    <time>2018-09-22T05:15:41Z</time>
   </trkpt>
   <trkpt lat="31.7433720" lon="35.1398440">
    <ele>759.5</ele>
    <time>2018-09-22T05:15:42Z</time>
   </trkpt>
   <trkpt lat="31.7433890" lon="35.1398100">
    <ele>759.5</ele>
    <time>2018-09-22T05:15:44Z</time>
   </trkpt>
   <trkpt lat="31.7434060" lon="35.1397680">
    <ele>759.4</ele>
    <time>2018-09-22T05:15:46Z</time>
   </trkpt>
   <trkpt lat="31.7434080" lon="35.1397220">
    <ele>759.4</ele>
    <time>2018-09-22T05:15:47Z</time>
   </trkpt>
   <trkpt lat="31.7433650" lon="35.1397310">
    <ele>759.4</ele>
    <time>2018-09-22T05:15:54Z</time>
   </trkpt>
   <trkpt lat="31.7433590" lon="35.1397620">
    <ele>759.5</ele>
    <time>2018-09-22T05:15:56Z</time>
   </trkpt>
   <trkpt lat="31.7433750" lon="35.1397930">
    <ele>759.5</ele>
    <time>2018-09-22T05:16:00Z</time>
   </trkpt>
   <trkpt lat="31.7433480" lon="35.1397990">
    <ele>759.6</ele>
    <time>2018-09-22T05:16:02Z</time>
   </trkpt>
   <trkpt lat="31.7433110" lon="35.1398440">
    <ele>759.6</ele>
    <time>2018-09-22T05:16:04Z</time>
   </trkpt>
   <trkpt lat="31.7432720" lon="35.1398520">
    <ele>759.7</ele>
    <time>2018-09-22T05:16:05Z</time>
   </trkpt>
   <trkpt lat="31.7432050" lon="35.1398650">
    <ele>759.8</ele>
    <time>2018-09-22T05:16:07Z</time>
   </trkpt>
   <trkpt lat="31.7431500" lon="35.1398910">
    <ele>760.1</ele>
    <time>2018-09-22T05:16:09Z</time>
   </trkpt>
   <trkpt lat="31.7431160" lon="35.1398970">
    <ele>760.3</ele>
    <time>2018-09-22T05:16:10Z</time>
   </trkpt>
   <trkpt lat="31.7430450" lon="35.1399300">
    <ele>760.6</ele>
    <time>2018-09-22T05:16:11Z</time>
   </trkpt>
   <trkpt lat="31.7429820" lon="35.1399760">
    <ele>760.9</ele>
    <time>2018-09-22T05:16:12Z</time>
   </trkpt>
   <trkpt lat="31.7429390" lon="35.1400100">
    <ele>761.2</ele>
    <time>2018-09-22T05:16:13Z</time>
   </trkpt>
   <trkpt lat="31.7428870" lon="35.1400290">
    <ele>757.2</ele>
    <time>2018-09-22T05:16:14Z</time>
   </trkpt>
   <trkpt lat="31.7428380" lon="35.1400480">
    <ele>755.6</ele>
    <time>2018-09-22T05:16:15Z</time>
   </trkpt>
   <trkpt lat="31.7427990" lon="35.1400580">
    <ele>754.5</ele>
    <time>2018-09-22T05:16:16Z</time>
   </trkpt>
   <trkpt lat="31.7427480" lon="35.1400620">
    <ele>754.1</ele>
    <time>2018-09-22T05:16:18Z</time>
   </trkpt>
   <trkpt lat="31.7427240" lon="35.1400530">
    <ele>753.9</ele>
    <time>2018-09-22T05:16:26Z</time>
   </trkpt>
   <trkpt lat="31.7426990" lon="35.1400440">
    <ele>753.0</ele>
    <time>2018-09-22T05:16:32Z</time>
   </trkpt>
   <trkpt lat="31.7426750" lon="35.1400350">
    <ele>752.1</ele>
    <time>2018-09-22T05:16:52Z</time>
   </trkpt>
   <trkpt lat="31.7426500" lon="35.1400260">
    <ele>751.2</ele>
    <time>2018-09-22T05:16:53Z</time>
   </trkpt>
   <trkpt lat="31.7426080" lon="35.1400030">
    <ele>750.2</ele>
    <time>2018-09-22T05:16:54Z</time>
   </trkpt>
   <trkpt lat="31.7425700" lon="35.1399970">
    <ele>748.9</ele>
    <time>2018-09-22T05:16:55Z</time>
   </trkpt>
   <trkpt lat="31.7425270" lon="35.1399890">
    <ele>747.4</ele>
    <time>2018-09-22T05:16:57Z</time>
   </trkpt>
   <trkpt lat="31.7424980" lon="35.1399910">
    <ele>747.3</ele>
    <time>2018-09-22T05:16:58Z</time>
   </trkpt>
   <trkpt lat="31.7424640" lon="35.1400060">
    <ele>747.2</ele>
    <time>2018-09-22T05:16:59Z</time>
   </trkpt>
   <trkpt lat="31.7424270" lon="35.1400190">
    <ele>746.7</ele>
    <time>2018-09-22T05:17:00Z</time>
   </trkpt>
   <trkpt lat="31.7423840" lon="35.1400360">
    <ele>745.9</ele>
    <time>2018-09-22T05:17:02Z</time>
   </trkpt>
   <trkpt lat="31.7423570" lon="35.1400730">
    <ele>744.9</ele>
    <time>2018-09-22T05:17:04Z</time>
   </trkpt>
   <trkpt lat="31.7423300" lon="35.1400720">
    <ele>744.4</ele>
    <time>2018-09-22T05:17:06Z</time>
   </trkpt>
   <trkpt lat="31.7423030" lon="35.1400550">
    <ele>743.9</ele>
    <time>2018-09-22T05:17:07Z</time>
   </trkpt>
   <trkpt lat="31.7422650" lon="35.1400150">
    <ele>741.9</ele>
    <time>2018-09-22T05:17:09Z</time>
   </trkpt>
   <trkpt lat="31.7422250" lon="35.1400030">
    <ele>740.9</ele>
    <time>2018-09-22T05:17:11Z</time>
   </trkpt>
   <trkpt lat="31.7421920" lon="35.1400000">
    <ele>740.7</ele>
    <time>2018-09-22T05:17:12Z</time>
   </trkpt>
   <trkpt lat="31.7421570" lon="35.1400090">
    <ele>740.4</ele>
    <time>2018-09-22T05:17:13Z</time>
   </trkpt>
   <trkpt lat="31.7421310" lon="35.1400180">
    <ele>740.0</ele>
    <time>2018-09-22T05:17:14Z</time>
   </trkpt>
   <trkpt lat="31.7421060" lon="35.1400320">
    <ele>739.6</ele>
    <time>2018-09-22T05:17:15Z</time>
   </trkpt>
   <trkpt lat="31.7420630" lon="35.1400340">
    <ele>739.1</ele>
    <time>2018-09-22T05:17:16Z</time>
   </trkpt>
   <trkpt lat="31.7420220" lon="35.1400430">
    <ele>738.7</ele>
    <time>2018-09-22T05:17:17Z</time>
   </trkpt>
   <trkpt lat="31.7419930" lon="35.1400350">
    <ele>738.6</ele>
    <time>2018-09-22T05:17:18Z</time>
   </trkpt>
   <trkpt lat="31.7419630" lon="35.1400380">
    <ele>738.8</ele>
    <time>2018-09-22T05:17:19Z</time>
   </trkpt>
   <trkpt lat="31.7419290" lon="35.1400530">
    <ele>739.1</ele>
    <time>2018-09-22T05:17:20Z</time>
   </trkpt>
   <trkpt lat="31.7418940" lon="35.1400470">
    <ele>738.4</ele>
    <time>2018-09-22T05:17:22Z</time>
   </trkpt>
   <trkpt lat="31.7418610" lon="35.1400340">
    <ele>737.7</ele>
    <time>2018-09-22T05:17:24Z</time>
   </trkpt>
   <trkpt lat="31.7418260" lon="35.1399990">
    <ele>737.3</ele>
    <time>2018-09-22T05:17:26Z</time>
   </trkpt>
   <trkpt lat="31.7418060" lon="35.1399770">
    <ele>737.1</ele>
    <time>2018-09-22T05:17:27Z</time>
   </trkpt>
   <trkpt lat="31.7417680" lon="35.1399750">
    <ele>736.0</ele>
    <time>2018-09-22T05:17:29Z</time>
   </trkpt>
   <trkpt lat="31.7417090" lon="35.1399670">
    <ele>735.0</ele>
    <time>2018-09-22T05:17:31Z</time>
   </trkpt>
   <trkpt lat="31.7416700" lon="35.1399680">
    <ele>734.6</ele>
    <time>2018-09-22T05:17:33Z</time>
   </trkpt>
   <trkpt lat="31.7416400" lon="35.1399650">
    <ele>734.2</ele>
    <time>2018-09-22T05:17:34Z</time>
   </trkpt>
   <trkpt lat="31.7416130" lon="35.1399630">
    <ele>733.8</ele>
    <time>2018-09-22T05:17:35Z</time>
   </trkpt>
   <trkpt lat="31.7415810" lon="35.1399610">
    <ele>733.3</ele>
    <time>2018-09-22T05:17:36Z</time>
   </trkpt>
   <trkpt lat="31.7415550" lon="35.1399430">
    <ele>732.5</ele>
    <time>2018-09-22T05:17:38Z</time>
   </trkpt>
   <trkpt lat="31.7415130" lon="35.1399010">
    <ele>731.1</ele>
    <time>2018-09-22T05:17:40Z</time>
   </trkpt>
   <trkpt lat="31.7414520" lon="35.1398770">
    <ele>729.4</ele>
    <time>2018-09-22T05:17:42Z</time>
   </trkpt>
   <trkpt lat="31.7414180" lon="35.1398700">
    <ele>728.6</ele>
    <time>2018-09-22T05:17:43Z</time>
   </trkpt>
   <trkpt lat="31.7413880" lon="35.1398610">
    <ele>728.1</ele>
    <time>2018-09-22T05:17:44Z</time>
   </trkpt>
   <trkpt lat="31.7413540" lon="35.1398600">
    <ele>727.5</ele>
    <time>2018-09-22T05:17:45Z</time>
   </trkpt>
   <trkpt lat="31.7413190" lon="35.1398510">
    <ele>726.8</ele>
    <time>2018-09-22T05:17:46Z</time>
   </trkpt>
   <trkpt lat="31.7412960" lon="35.1398110">
    <ele>725.8</ele>
    <time>2018-09-22T05:17:48Z</time>
   </trkpt>
   <trkpt lat="31.7412640" lon="35.1397980">
    <ele>724.9</ele>
    <time>2018-09-22T05:17:50Z</time>
   </trkpt>
   <trkpt lat="31.7412390" lon="35.1398220">
    <ele>724.4</ele>
    <time>2018-09-22T05:17:52Z</time>
   </trkpt>
   <trkpt lat="31.7412050" lon="35.1398350">
    <ele>723.9</ele>
    <time>2018-09-22T05:17:53Z</time>
   </trkpt>
   <trkpt lat="31.7411620" lon="35.1398380">
    <ele>722.9</ele>
    <time>2018-09-22T05:17:55Z</time>
   </trkpt>
   <trkpt lat="31.7410940" lon="35.1398140">
    <ele>720.6</ele>
    <time>2018-09-22T05:17:59Z</time>
   </trkpt>
   <trkpt lat="31.7410700" lon="35.1398000">
    <ele>720.0</ele>
    <time>2018-09-22T05:18:00Z</time>
   </trkpt>
   <trkpt lat="31.7410320" lon="35.1397940">
    <ele>719.2</ele>
    <time>2018-09-22T05:18:01Z</time>
   </trkpt>
   <trkpt lat="31.7409900" lon="35.1397680">
    <ele>717.8</ele>
    <time>2018-09-22T05:18:03Z</time>
   </trkpt>
   <trkpt lat="31.7409600" lon="35.1397370">
    <ele>716.3</ele>
    <time>2018-09-22T05:18:04Z</time>
   </trkpt>
   <trkpt lat="31.7409210" lon="35.1396990">
    <ele>714.5</ele>
    <time>2018-09-22T05:18:06Z</time>
   </trkpt>
   <trkpt lat="31.7408900" lon="35.1396640">
    <ele>713.0</ele>
    <time>2018-09-22T05:18:08Z</time>
   </trkpt>
   <trkpt lat="31.7408470" lon="35.1396410">
    <ele>710.9</ele>
    <time>2018-09-22T05:18:09Z</time>
   </trkpt>
   <trkpt lat="31.7408040" lon="35.1396020">
    <ele>708.5</ele>
    <time>2018-09-22T05:18:10Z</time>
   </trkpt>
   <trkpt lat="31.7407690" lon="35.1395860">
    <ele>707.3</ele>
    <time>2018-09-22T05:18:11Z</time>
   </trkpt>
   <trkpt lat="31.7407400" lon="35.1395870">
    <ele>706.4</ele>
    <time>2018-09-22T05:18:12Z</time>
   </trkpt>
   <trkpt lat="31.7406920" lon="35.1395770">
    <ele>703.7</ele>
    <time>2018-09-22T05:18:13Z</time>
   </trkpt>
   <trkpt lat="31.7406610" lon="35.1395690">
    <ele>701.9</ele>
    <time>2018-09-22T05:18:14Z</time>
   </trkpt>
   <trkpt lat="31.7406150" lon="35.1395330">
    <ele>699.5</ele>
    <time>2018-09-22T05:18:16Z</time>
   </trkpt>
   <trkpt lat="31.7405830" lon="35.1395170">
    <ele>698.2</ele>
    <time>2018-09-22T05:18:17Z</time>
   </trkpt>
   <trkpt lat="31.7405600" lon="35.1394820">
    <ele>697.1</ele>
    <time>2018-09-22T05:18:19Z</time>
   </trkpt>
   <trkpt lat="31.7405160" lon="35.1394630">
    <ele>696.3</ele>
    <time>2018-09-22T05:18:20Z</time>
   </trkpt>
   <trkpt lat="31.7404630" lon="35.1394220">
    <ele>695.0</ele>
    <time>2018-09-22T05:18:22Z</time>
   </trkpt>
   <trkpt lat="31.7404100" lon="35.1393990">
    <ele>691.8</ele>
    <time>2018-09-22T05:18:23Z</time>
   </trkpt>
   <trkpt lat="31.7403720" lon="35.1393680">
    <ele>687.5</ele>
    <time>2018-09-22T05:18:24Z</time>
   </trkpt>
   <trkpt lat="31.7403380" lon="35.1393450">
    <ele>684.4</ele>
    <time>2018-09-22T05:18:25Z</time>
   </trkpt>
   <trkpt lat="31.7402980" lon="35.1393300">
    <ele>680.3</ele>
    <time>2018-09-22T05:18:26Z</time>
   </trkpt>
   <trkpt lat="31.7402690" lon="35.1393100">
    <ele>677.4</ele>
    <time>2018-09-22T05:18:27Z</time>
   </trkpt>
   <trkpt lat="31.7402360" lon="35.1392820">
    <ele>673.5</ele>
    <time>2018-09-22T05:18:28Z</time>
   </trkpt>
   <trkpt lat="31.7401970" lon="35.1392470">
    <ele>673.1</ele>
    <time>2018-09-22T05:18:30Z</time>
   </trkpt>
   <trkpt lat="31.7401660" lon="35.1392210">
    <ele>672.9</ele>
    <time>2018-09-22T05:18:31Z</time>
   </trkpt>
   <trkpt lat="31.7401410" lon="35.1392010">
    <ele>672.8</ele>
    <time>2018-09-22T05:18:32Z</time>
   </trkpt>
   <trkpt lat="31.7400980" lon="35.1391670">
    <ele>672.6</ele>
    <time>2018-09-22T05:18:34Z</time>
   </trkpt>
   <trkpt lat="31.7400550" lon="35.1392160">
    <ele>672.9</ele>
    <time>2018-09-22T05:21:52Z</time>
   </trkpt>
   <trkpt lat="31.7400160" lon="35.1392460">
    <ele>673.2</ele>
    <time>2018-09-22T05:21:54Z</time>
   </trkpt>
   <trkpt lat="31.7399840" lon="35.1392630">
    <ele>674.0</ele>
    <time>2018-09-22T05:21:55Z</time>
   </trkpt>
   <trkpt lat="31.7399490" lon="35.1392860">
    <ele>675.0</ele>
    <time>2018-09-22T05:21:56Z</time>
   </trkpt>
   <trkpt lat="31.7399170" lon="35.1393030">
    <ele>675.8</ele>
    <time>2018-09-22T05:21:57Z</time>
   </trkpt>
   <trkpt lat="31.7398940" lon="35.1393280">
    <ele>676.1</ele>
    <time>2018-09-22T05:21:58Z</time>
   </trkpt>
   <trkpt lat="31.7398670" lon="35.1393440">
    <ele>676.4</ele>
    <time>2018-09-22T05:22:01Z</time>
   </trkpt>
   <trkpt lat="31.7398670" lon="35.1393770">
    <ele>676.6</ele>
    <time>2018-09-22T05:22:07Z</time>
   </trkpt>
   <trkpt lat="31.7398390" lon="35.1393910">
    <ele>676.8</ele>
    <time>2018-09-22T05:22:26Z</time>
   </trkpt>
   <trkpt lat="31.7397970" lon="35.1394280">
    <ele>677.0</ele>
    <time>2018-09-22T05:22:28Z</time>
   </trkpt>
   <trkpt lat="31.7397680" lon="35.1394430">
    <ele>677.0</ele>
    <time>2018-09-22T05:22:30Z</time>
   </trkpt>
   <trkpt lat="31.7397220" lon="35.1394460">
    <ele>677.0</ele>
    <time>2018-09-22T05:22:32Z</time>
   </trkpt>
   <trkpt lat="31.7396750" lon="35.1394510">
    <ele>677.0</ele>
    <time>2018-09-22T05:22:34Z</time>
   </trkpt>
   <trkpt lat="31.7396260" lon="35.1394410">
    <ele>674.9</ele>
    <time>2018-09-22T05:22:35Z</time>
   </trkpt>
   <trkpt lat="31.7395920" lon="35.1394460">
    <ele>673.4</ele>
    <time>2018-09-22T05:22:36Z</time>
   </trkpt>
   <trkpt lat="31.7395420" lon="35.1394500">
    <ele>671.5</ele>
    <time>2018-09-22T05:22:38Z</time>
   </trkpt>
   <trkpt lat="31.7394850" lon="35.1394530">
    <ele>669.9</ele>
    <time>2018-09-22T05:22:40Z</time>
   </trkpt>
   <trkpt lat="31.7394420" lon="35.1394690">
    <ele>668.7</ele>
    <time>2018-09-22T05:22:42Z</time>
   </trkpt>
   <trkpt lat="31.7394020" lon="35.1394620">
    <ele>668.2</ele>
    <time>2018-09-22T05:22:44Z</time>
   </trkpt>
   <trkpt lat="31.7393660" lon="35.1394510">
    <ele>667.6</ele>
    <time>2018-09-22T05:22:46Z</time>
   </trkpt>
   <trkpt lat="31.7393360" lon="35.1394430">
    <ele>666.9</ele>
    <time>2018-09-22T05:22:47Z</time>
   </trkpt>
   <trkpt lat="31.7392930" lon="35.1394320">
    <ele>665.8</ele>
    <time>2018-09-22T05:22:49Z</time>
   </trkpt>
   <trkpt lat="31.7392510" lon="35.1394460">
    <ele>664.7</ele>
    <time>2018-09-22T05:22:50Z</time>
   </trkpt>
   <trkpt lat="31.7392140" lon="35.1394600">
    <ele>663.7</ele>
    <time>2018-09-22T05:22:51Z</time>
   </trkpt>
   <trkpt lat="31.7391860" lon="35.1394720">
    <ele>662.9</ele>
    <time>2018-09-22T05:22:52Z</time>
   </trkpt>
   <trkpt lat="31.7391480" lon="35.1394800">
    <ele>661.8</ele>
    <time>2018-09-22T05:22:54Z</time>
   </trkpt>
   <trkpt lat="31.7391050" lon="35.1394830">
    <ele>660.7</ele>
    <time>2018-09-22T05:22:56Z</time>
   </trkpt>
   <trkpt lat="31.7390780" lon="35.1394930">
    <ele>660.0</ele>
    <time>2018-09-22T05:22:57Z</time>
   </trkpt>
   <trkpt lat="31.7390420" lon="35.1395030">
    <ele>659.1</ele>
    <time>2018-09-22T05:22:58Z</time>
   </trkpt>
   <trkpt lat="31.7390170" lon="35.1395270">
    <ele>658.5</ele>
    <time>2018-09-22T05:22:59Z</time>
   </trkpt>
   <trkpt lat="31.7389830" lon="35.1395400">
    <ele>657.8</ele>
    <time>2018-09-22T05:23:00Z</time>
   </trkpt>
   <trkpt lat="31.7389550" lon="35.1395480">
    <ele>657.3</ele>
    <time>2018-09-22T05:23:01Z</time>
   </trkpt>
   <trkpt lat="31.7389140" lon="35.1395690">
    <ele>656.2</ele>
    <time>2018-09-22T05:23:03Z</time>
   </trkpt>
   <trkpt lat="31.7388690" lon="35.1395820">
    <ele>655.3</ele>
    <time>2018-09-22T05:23:05Z</time>
   </trkpt>
   <trkpt lat="31.7388310" lon="35.1395840">
    <ele>654.9</ele>
    <time>2018-09-22T05:23:07Z</time>
   </trkpt>
   <trkpt lat="31.7387850" lon="35.1395960">
    <ele>654.3</ele>
    <time>2018-09-22T05:23:10Z</time>
   </trkpt>
   <trkpt lat="31.7387540" lon="35.1396010">
    <ele>653.7</ele>
    <time>2018-09-22T05:23:12Z</time>
   </trkpt>
   <trkpt lat="31.7387230" lon="35.1396100">
    <ele>653.1</ele>
    <time>2018-09-22T05:23:13Z</time>
   </trkpt>
   <trkpt lat="31.7386930" lon="35.1396180">
    <ele>652.5</ele>
    <time>2018-09-22T05:23:14Z</time>
   </trkpt>
   <trkpt lat="31.7386510" lon="35.1396270">
    <ele>651.5</ele>
    <time>2018-09-22T05:23:15Z</time>
   </trkpt>
   <trkpt lat="31.7386280" lon="35.1396640">
    <ele>650.9</ele>
    <time>2018-09-22T05:23:16Z</time>
   </trkpt>
   <trkpt lat="31.7385700" lon="35.1397010">
    <ele>650.5</ele>
    <time>2018-09-22T05:23:18Z</time>
   </trkpt>
   <trkpt lat="31.7385410" lon="35.1397290">
    <ele>650.3</ele>
    <time>2018-09-22T05:23:20Z</time>
   </trkpt>
   <trkpt lat="31.7384980" lon="35.1397320">
    <ele>650.2</ele>
    <time>2018-09-22T05:23:21Z</time>
   </trkpt>
   <trkpt lat="31.7384490" lon="35.1397270">
    <ele>649.4</ele>
    <time>2018-09-22T05:23:23Z</time>
   </trkpt>
   <trkpt lat="31.7384030" lon="35.1397360">
    <ele>648.5</ele>
    <time>2018-09-22T05:23:25Z</time>
   </trkpt>
   <trkpt lat="31.7383680" lon="35.1397550">
    <ele>648.4</ele>
    <time>2018-09-22T05:23:26Z</time>
   </trkpt>
   <trkpt lat="31.7383220" lon="35.1397930">
    <ele>648.4</ele>
    <time>2018-09-22T05:23:27Z</time>
   </trkpt>
   <trkpt lat="31.7382920" lon="35.1398060">
    <ele>647.7</ele>
    <time>2018-09-22T05:23:28Z</time>
   </trkpt>
   <trkpt lat="31.7382600" lon="35.1398090">
    <ele>647.1</ele>
    <time>2018-09-22T05:23:29Z</time>
   </trkpt>
   <trkpt lat="31.7382160" lon="35.1398040">
    <ele>646.1</ele>
    <time>2018-09-22T05:23:30Z</time>
   </trkpt>
   <trkpt lat="31.7381730" lon="35.1397910">
    <ele>645.0</ele>
    <time>2018-09-22T05:23:31Z</time>
   </trkpt>
   <trkpt lat="31.7381370" lon="35.1397870">
    <ele>644.1</ele>
    <time>2018-09-22T05:23:33Z</time>
   </trkpt>
   <trkpt lat="31.7380970" lon="35.1397770">
    <ele>643.2</ele>
    <time>2018-09-22T05:23:35Z</time>
   </trkpt>
   <trkpt lat="31.7380690" lon="35.1397840">
    <ele>642.5</ele>
    <time>2018-09-22T05:23:37Z</time>
   </trkpt>
   <trkpt lat="31.7380250" lon="35.1397820">
    <ele>642.5</ele>
    <time>2018-09-22T05:23:39Z</time>
   </trkpt>
   <trkpt lat="31.7380560" lon="35.1397790">
    <ele>642.5</ele>
    <time>2018-09-22T05:25:39Z</time>
   </trkpt>
   <trkpt lat="31.7381070" lon="35.1397890">
    <ele>641.9</ele>
    <time>2018-09-22T05:25:42Z</time>
   </trkpt>
   <trkpt lat="31.7381420" lon="35.1398330">
    <ele>641.0</ele>
    <time>2018-09-22T05:25:43Z</time>
   </trkpt>
   <trkpt lat="31.7381730" lon="35.1398030">
    <ele>641.0</ele>
    <time>2018-09-22T05:25:45Z</time>
   </trkpt>
   <trkpt lat="31.7382040" lon="35.1397680">
    <ele>641.0</ele>
    <time>2018-09-22T05:25:46Z</time>
   </trkpt>
   <trkpt lat="31.7382290" lon="35.1397310">
    <ele>641.0</ele>
    <time>2018-09-22T05:25:47Z</time>
   </trkpt>
   <trkpt lat="31.7382560" lon="35.1396870">
    <ele>640.5</ele>
    <time>2018-09-22T05:25:49Z</time>
   </trkpt>
   <trkpt lat="31.7383020" lon="35.1397140">
    <ele>639.6</ele>
    <time>2018-09-22T05:25:50Z</time>
   </trkpt>
   <trkpt lat="31.7383640" lon="35.1396630">
    <ele>639.0</ele>
    <time>2018-09-22T05:25:51Z</time>
   </trkpt>
   <trkpt lat="31.7384010" lon="35.1395590">
    <ele>638.7</ele>
    <time>2018-09-22T05:25:52Z</time>
   </trkpt>
   <trkpt lat="31.7384450" lon="35.1395260">
    <ele>638.5</ele>
    <time>2018-09-22T05:25:53Z</time>
   </trkpt>
   <trkpt lat="31.7384820" lon="35.1394440">
    <ele>636.4</ele>
    <time>2018-09-22T05:25:54Z</time>
   </trkpt>
   <trkpt lat="31.7385330" lon="35.1394070">
    <ele>636.1</ele>
    <time>2018-09-22T05:25:55Z</time>
   </trkpt>
   <trkpt lat="31.7385550" lon="35.1393330">
    <ele>635.9</ele>
    <time>2018-09-22T05:25:57Z</time>
   </trkpt>
   <trkpt lat="31.7385910" lon="35.1392980">
    <ele>636.0</ele>
    <time>2018-09-22T05:25:59Z</time>
   </trkpt>
   <trkpt lat="31.7386500" lon="35.1392750">
    <ele>636.4</ele>
    <time>2018-09-22T05:26:00Z</time>
   </trkpt>
   <trkpt lat="31.7387260" lon="35.1392360">
    <ele>635.4</ele>
    <time>2018-09-22T05:26:02Z</time>
   </trkpt>
   <trkpt lat="31.7387140" lon="35.1391500">
    <ele>636.7</ele>
    <time>2018-09-22T05:26:03Z</time>
   </trkpt>
   <trkpt lat="31.7387690" lon="35.1391290">
    <ele>637.0</ele>
    <time>2018-09-22T05:26:04Z</time>
   </trkpt>
   <trkpt lat="31.7387130" lon="35.1390260">
    <ele>636.5</ele>
    <time>2018-09-22T05:26:05Z</time>
   </trkpt>
   <trkpt lat="31.7387430" lon="35.1390470">
    <ele>636.1</ele>
    <time>2018-09-22T05:26:06Z</time>
   </trkpt>
   <trkpt lat="31.7388100" lon="35.1389970">
    <ele>635.1</ele>
    <time>2018-09-22T05:26:07Z</time>
   </trkpt>
   <trkpt lat="31.7388500" lon="35.1389890">
    <ele>635.5</ele>
    <time>2018-09-22T05:26:08Z</time>
   </trkpt>
   <trkpt lat="31.7388750" lon="35.1390170">
    <ele>635.8</ele>
    <time>2018-09-22T05:26:09Z</time>
   </trkpt>
   <trkpt lat="31.7389250" lon="35.1389770">
    <ele>635.8</ele>
    <time>2018-09-22T05:26:10Z</time>
   </trkpt>
   <trkpt lat="31.7389050" lon="35.1388690">
    <ele>635.9</ele>
    <time>2018-09-22T05:26:11Z</time>
   </trkpt>
   <trkpt lat="31.7389240" lon="35.1388160">
    <ele>636.0</ele>
    <time>2018-09-22T05:26:12Z</time>
   </trkpt>
   <trkpt lat="31.7389090" lon="35.1387550">
    <ele>636.0</ele>
    <time>2018-09-22T05:26:13Z</time>
   </trkpt>
   <trkpt lat="31.7388620" lon="35.1387050">
    <ele>636.0</ele>
    <time>2018-09-22T05:26:15Z</time>
   </trkpt>
   <trkpt lat="31.7388560" lon="35.1386680">
    <ele>636.1</ele>
    <time>2018-09-22T05:26:16Z</time>
   </trkpt>
   <trkpt lat="31.7388320" lon="35.1386280">
    <ele>636.1</ele>
    <time>2018-09-22T05:26:17Z</time>
   </trkpt>
   <trkpt lat="31.7388180" lon="35.1385850">
    <ele>636.1</ele>
    <time>2018-09-22T05:26:18Z</time>
   </trkpt>
   <trkpt lat="31.7387910" lon="35.1385550">
    <ele>636.3</ele>
    <time>2018-09-22T05:26:19Z</time>
   </trkpt>
   <trkpt lat="31.7387700" lon="35.1385180">
    <ele>636.5</ele>
    <time>2018-09-22T05:26:20Z</time>
   </trkpt>
   <trkpt lat="31.7387610" lon="35.1384840">
    <ele>636.5</ele>
    <time>2018-09-22T05:26:21Z</time>
   </trkpt>
   <trkpt lat="31.7387400" lon="35.1384550">
    <ele>636.2</ele>
    <time>2018-09-22T05:26:23Z</time>
   </trkpt>
   <trkpt lat="31.7387230" lon="35.1384040">
    <ele>635.7</ele>
    <time>2018-09-22T05:26:25Z</time>
   </trkpt>
   <trkpt lat="31.7386850" lon="35.1383740">
    <ele>635.8</ele>
    <time>2018-09-22T05:26:26Z</time>
   </trkpt>
   <trkpt lat="31.7386450" lon="35.1383320">
    <ele>636.2</ele>
    <time>2018-09-22T05:26:28Z</time>
   </trkpt>
   <trkpt lat="31.7386210" lon="35.1382790">
    <ele>635.7</ele>
    <time>2018-09-22T05:26:30Z</time>
   </trkpt>
   <trkpt lat="31.7386050" lon="35.1382450">
    <ele>635.0</ele>
    <time>2018-09-22T05:26:31Z</time>
   </trkpt>
   <trkpt lat="31.7385830" lon="35.1382200">
    <ele>634.3</ele>
    <time>2018-09-22T05:26:32Z</time>
   </trkpt>
   <trkpt lat="31.7385640" lon="35.1381880">
    <ele>634.2</ele>
    <time>2018-09-22T05:26:33Z</time>
   </trkpt>
   <trkpt lat="31.7385290" lon="35.1381530">
    <ele>634.2</ele>
    <time>2018-09-22T05:26:34Z</time>
   </trkpt>
   <trkpt lat="31.7385020" lon="35.1381110">
    <ele>634.5</ele>
    <time>2018-09-22T05:26:35Z</time>
   </trkpt>
   <trkpt lat="31.7384850" lon="35.1380750">
    <ele>635.6</ele>
    <time>2018-09-22T05:26:36Z</time>
   </trkpt>
   <trkpt lat="31.7384780" lon="35.1380400">
    <ele>636.6</ele>
    <time>2018-09-22T05:26:37Z</time>
   </trkpt>
   <trkpt lat="31.7384560" lon="35.1380050">
    <ele>637.2</ele>
    <time>2018-09-22T05:26:39Z</time>
   </trkpt>
   <trkpt lat="31.7384510" lon="35.1379630">
    <ele>637.2</ele>
    <time>2018-09-22T05:26:40Z</time>
   </trkpt>
   <trkpt lat="31.7384200" lon="35.1379230">
    <ele>637.2</ele>
    <time>2018-09-22T05:26:41Z</time>
   </trkpt>
   <trkpt lat="31.7384090" lon="35.1378880">
    <ele>637.1</ele>
    <time>2018-09-22T05:26:42Z</time>
   </trkpt>
   <trkpt lat="31.7384050" lon="35.1378500">
    <ele>636.9</ele>
    <time>2018-09-22T05:26:43Z</time>
   </trkpt>
   <trkpt lat="31.7383870" lon="35.1377960">
    <ele>637.1</ele>
    <time>2018-09-22T05:26:44Z</time>
   </trkpt>
   <trkpt lat="31.7383890" lon="35.1377620">
    <ele>637.4</ele>
    <time>2018-09-22T05:26:45Z</time>
   </trkpt>
   <trkpt lat="31.7383950" lon="35.1376790">
    <ele>638.2</ele>
    <time>2018-09-22T05:26:46Z</time>
   </trkpt>
   <trkpt lat="31.7383740" lon="35.1376370">
    <ele>638.7</ele>
    <time>2018-09-22T05:26:47Z</time>
   </trkpt>
   <trkpt lat="31.7383790" lon="35.1376010">
    <ele>639.1</ele>
    <time>2018-09-22T05:26:48Z</time>
   </trkpt>
   <trkpt lat="31.7383570" lon="35.1375700">
    <ele>639.5</ele>
    <time>2018-09-22T05:26:49Z</time>
   </trkpt>
   <trkpt lat="31.7383550" lon="35.1374870">
    <ele>640.3</ele>
    <time>2018-09-22T05:26:51Z</time>
   </trkpt>
   <trkpt lat="31.7383930" lon="35.1374630">
    <ele>640.6</ele>
    <time>2018-09-22T05:26:53Z</time>
   </trkpt>
   <trkpt lat="31.7384130" lon="35.1374160">
    <ele>641.1</ele>
    <time>2018-09-22T05:26:54Z</time>
   </trkpt>
   <trkpt lat="31.7384310" lon="35.1373640">
    <ele>642.3</ele>
    <time>2018-09-22T05:26:58Z</time>
   </trkpt>
   <trkpt lat="31.7384410" lon="35.1373320">
    <ele>643.0</ele>
    <time>2018-09-22T05:26:59Z</time>
   </trkpt>
   <trkpt lat="31.7384410" lon="35.1372710">
    <ele>643.3</ele>
    <time>2018-09-22T05:27:00Z</time>
   </trkpt>
   <trkpt lat="31.7384360" lon="35.1372050">
    <ele>643.5</ele>
    <time>2018-09-22T05:27:01Z</time>
   </trkpt>
   <trkpt lat="31.7384670" lon="35.1371500">
    <ele>643.7</ele>
    <time>2018-09-22T05:27:03Z</time>
   </trkpt>
   <trkpt lat="31.7384560" lon="35.1369990">
    <ele>644.0</ele>
    <time>2018-09-22T05:27:04Z</time>
   </trkpt>
   <trkpt lat="31.7384780" lon="35.1369490">
    <ele>644.5</ele>
    <time>2018-09-22T05:27:05Z</time>
   </trkpt>
   <trkpt lat="31.7384630" lon="35.1369090">
    <ele>644.9</ele>
    <time>2018-09-22T05:27:06Z</time>
   </trkpt>
   <trkpt lat="31.7384790" lon="35.1368110">
    <ele>645.7</ele>
    <time>2018-09-22T05:27:07Z</time>
   </trkpt>
   <trkpt lat="31.7384790" lon="35.1367730">
    <ele>645.3</ele>
    <time>2018-09-22T05:27:08Z</time>
   </trkpt>
   <trkpt lat="31.7384560" lon="35.1367080">
    <ele>644.6</ele>
    <time>2018-09-22T05:27:09Z</time>
   </trkpt>
   <trkpt lat="31.7384570" lon="35.1366520">
    <ele>645.1</ele>
    <time>2018-09-22T05:27:10Z</time>
   </trkpt>
   <trkpt lat="31.7384930" lon="35.1365940">
    <ele>645.6</ele>
    <time>2018-09-22T05:27:11Z</time>
   </trkpt>
   <trkpt lat="31.7385070" lon="35.1365130">
    <ele>644.7</ele>
    <time>2018-09-22T05:27:12Z</time>
   </trkpt>
   <trkpt lat="31.7385360" lon="35.1364890">
    <ele>644.3</ele>
    <time>2018-09-22T05:27:14Z</time>
   </trkpt>
   <trkpt lat="31.7385080" lon="35.1364350">
    <ele>643.6</ele>
    <time>2018-09-22T05:27:16Z</time>
   </trkpt>
   <trkpt lat="31.7384960" lon="35.1363680">
    <ele>643.0</ele>
    <time>2018-09-22T05:27:18Z</time>
   </trkpt>
   <trkpt lat="31.7385320" lon="35.1363460">
    <ele>642.6</ele>
    <time>2018-09-22T05:27:19Z</time>
   </trkpt>
   <trkpt lat="31.7385500" lon="35.1362900">
    <ele>642.2</ele>
    <time>2018-09-22T05:27:20Z</time>
   </trkpt>
   <trkpt lat="31.7385590" lon="35.1362410">
    <ele>642.0</ele>
    <time>2018-09-22T05:27:21Z</time>
   </trkpt>
   <trkpt lat="31.7385790" lon="35.1361980">
    <ele>642.5</ele>
    <time>2018-09-22T05:27:23Z</time>
   </trkpt>
   <trkpt lat="31.7385770" lon="35.1361590">
    <ele>642.9</ele>
    <time>2018-09-22T05:27:24Z</time>
   </trkpt>
   <trkpt lat="31.7385900" lon="35.1361130">
    <ele>643.4</ele>
    <time>2018-09-22T05:27:25Z</time>
   </trkpt>
   <trkpt lat="31.7386210" lon="35.1360650">
    <ele>644.0</ele>
    <time>2018-09-22T05:27:27Z</time>
   </trkpt>
   <trkpt lat="31.7386330" lon="35.1360100">
    <ele>643.7</ele>
    <time>2018-09-22T05:27:28Z</time>
   </trkpt>
   <trkpt lat="31.7386500" lon="35.1359720">
    <ele>643.6</ele>
    <time>2018-09-22T05:27:29Z</time>
   </trkpt>
   <trkpt lat="31.7386830" lon="35.1359270">
    <ele>644.5</ele>
    <time>2018-09-22T05:27:32Z</time>
   </trkpt>
   <trkpt lat="31.7386800" lon="35.1358760">
    <ele>645.2</ele>
    <time>2018-09-22T05:27:34Z</time>
   </trkpt>
   <trkpt lat="31.7386950" lon="35.1358230">
    <ele>645.1</ele>
    <time>2018-09-22T05:27:35Z</time>
   </trkpt>
   <trkpt lat="31.7386820" lon="35.1357350">
    <ele>644.9</ele>
    <time>2018-09-22T05:27:37Z</time>
   </trkpt>
   <trkpt lat="31.7386610" lon="35.1357000">
    <ele>644.8</ele>
    <time>2018-09-22T05:27:38Z</time>
   </trkpt>
   <trkpt lat="31.7386490" lon="35.1355620">
    <ele>644.4</ele>
    <time>2018-09-22T05:27:39Z</time>
   </trkpt>
   <trkpt lat="31.7386140" lon="35.1354830">
    <ele>644.2</ele>
    <time>2018-09-22T05:27:40Z</time>
   </trkpt>
   <trkpt lat="31.7386130" lon="35.1353910">
    <ele>644.2</ele>
    <time>2018-09-22T05:27:41Z</time>
   </trkpt>
   <trkpt lat="31.7385800" lon="35.1353650">
    <ele>644.3</ele>
    <time>2018-09-22T05:27:42Z</time>
   </trkpt>
   <trkpt lat="31.7386020" lon="35.1353270">
    <ele>644.3</ele>
    <time>2018-09-22T05:27:44Z</time>
   </trkpt>
   <trkpt lat="31.7386130" lon="35.1352130">
    <ele>644.1</ele>
    <time>2018-09-22T05:27:45Z</time>
   </trkpt>
   <trkpt lat="31.7386280" lon="35.1351720">
    <ele>644.0</ele>
    <time>2018-09-22T05:27:47Z</time>
   </trkpt>
   <trkpt lat="31.7386260" lon="35.1351130">
    <ele>644.0</ele>
    <time>2018-09-22T05:27:48Z</time>
   </trkpt>
   <trkpt lat="31.7386440" lon="35.1350790">
    <ele>644.2</ele>
    <time>2018-09-22T05:27:49Z</time>
   </trkpt>
   <trkpt lat="31.7386690" lon="35.1350570">
    <ele>644.3</ele>
    <time>2018-09-22T05:27:51Z</time>
   </trkpt>
   <trkpt lat="31.7386430" lon="35.1350340">
    <ele>644.5</ele>
    <time>2018-09-22T05:27:52Z</time>
   </trkpt>
   <trkpt lat="31.7386470" lon="35.1349910">
    <ele>644.8</ele>
    <time>2018-09-22T05:27:53Z</time>
   </trkpt>
   <trkpt lat="31.7386020" lon="35.1349360">
    <ele>645.2</ele>
    <time>2018-09-22T05:27:54Z</time>
   </trkpt>
   <trkpt lat="31.7385860" lon="35.1348930">
    <ele>645.5</ele>
    <time>2018-09-22T05:27:56Z</time>
   </trkpt>
   <trkpt lat="31.7386120" lon="35.1348280">
    <ele>645.9</ele>
    <time>2018-09-22T05:27:57Z</time>
   </trkpt>
   <trkpt lat="31.7386560" lon="35.1347960">
    <ele>646.1</ele>
    <time>2018-09-22T05:27:58Z</time>
   </trkpt>
   <trkpt lat="31.7386540" lon="35.1347220">
    <ele>646.5</ele>
    <time>2018-09-22T05:28:00Z</time>
   </trkpt>
   <trkpt lat="31.7386610" lon="35.1346590">
    <ele>646.8</ele>
    <time>2018-09-22T05:28:01Z</time>
   </trkpt>
   <trkpt lat="31.7386320" lon="35.1345940">
    <ele>646.7</ele>
    <time>2018-09-22T05:28:03Z</time>
   </trkpt>
   <trkpt lat="31.7385900" lon="35.1345470">
    <ele>646.0</ele>
    <time>2018-09-22T05:28:04Z</time>
   </trkpt>
   <trkpt lat="31.7385860" lon="35.1345040">
    <ele>645.8</ele>
    <time>2018-09-22T05:28:05Z</time>
   </trkpt>
   <trkpt lat="31.7385550" lon="35.1344760">
    <ele>646.0</ele>
    <time>2018-09-22T05:28:06Z</time>
   </trkpt>
   <trkpt lat="31.7385350" lon="35.1344140">
    <ele>646.3</ele>
    <time>2018-09-22T05:28:07Z</time>
   </trkpt>
   <trkpt lat="31.7385450" lon="35.1343530">
    <ele>646.4</ele>
    <time>2018-09-22T05:28:08Z</time>
   </trkpt>
   <trkpt lat="31.7385310" lon="35.1342910">
    <ele>646.5</ele>
    <time>2018-09-22T05:28:09Z</time>
   </trkpt>
   <trkpt lat="31.7385140" lon="35.1342100">
    <ele>646.6</ele>
    <time>2018-09-22T05:28:10Z</time>
   </trkpt>
   <trkpt lat="31.7385280" lon="35.1341570">
    <ele>646.7</ele>
    <time>2018-09-22T05:28:11Z</time>
   </trkpt>
   <trkpt lat="31.7385640" lon="35.1341090">
    <ele>646.7</ele>
    <time>2018-09-22T05:28:12Z</time>
   </trkpt>
   <trkpt lat="31.7385390" lon="35.1340410">
    <ele>646.8</ele>
    <time>2018-09-22T05:28:13Z</time>
   </trkpt>
   <trkpt lat="31.7385410" lon="35.1340000">
    <ele>646.9</ele>
    <time>2018-09-22T05:28:14Z</time>
   </trkpt>
   <trkpt lat="31.7385560" lon="35.1339710">
    <ele>646.9</ele>
    <time>2018-09-22T05:28:15Z</time>
   </trkpt>
   <trkpt lat="31.7385670" lon="35.1339270">
    <ele>647.0</ele>
    <time>2018-09-22T05:28:16Z</time>
   </trkpt>
   <trkpt lat="31.7386010" lon="35.1339130">
    <ele>647.0</ele>
    <time>2018-09-22T05:28:17Z</time>
   </trkpt>
   <trkpt lat="31.7385670" lon="35.1338740">
    <ele>646.9</ele>
    <time>2018-09-22T05:28:18Z</time>
   </trkpt>
   <trkpt lat="31.7385860" lon="35.1337980">
    <ele>645.9</ele>
    <time>2018-09-22T05:28:20Z</time>
   </trkpt>
   <trkpt lat="31.7386050" lon="35.1337630">
    <ele>645.4</ele>
    <time>2018-09-22T05:28:21Z</time>
   </trkpt>
   <trkpt lat="31.7386150" lon="35.1337040">
    <ele>645.8</ele>
    <time>2018-09-22T05:28:23Z</time>
   </trkpt>
   <trkpt lat="31.7386620" lon="35.1336280">
    <ele>646.6</ele>
    <time>2018-09-22T05:28:25Z</time>
   </trkpt>
   <trkpt lat="31.7386210" lon="35.1335870">
    <ele>647.5</ele>
    <time>2018-09-22T05:28:26Z</time>
   </trkpt>
   <trkpt lat="31.7386120" lon="35.1335490">
    <ele>648.1</ele>
    <time>2018-09-22T05:28:27Z</time>
   </trkpt>
   <trkpt lat="31.7386260" lon="35.1334680">
    <ele>649.2</ele>
    <time>2018-09-22T05:28:29Z</time>
   </trkpt>
   <trkpt lat="31.7386290" lon="35.1334310">
    <ele>649.7</ele>
    <time>2018-09-22T05:28:31Z</time>
   </trkpt>
   <trkpt lat="31.7385890" lon="35.1333700">
    <ele>650.9</ele>
    <time>2018-09-22T05:28:33Z</time>
   </trkpt>
   <trkpt lat="31.7385930" lon="35.1333350">
    <ele>651.5</ele>
    <time>2018-09-22T05:28:34Z</time>
   </trkpt>
   <trkpt lat="31.7385920" lon="35.1332820">
    <ele>652.0</ele>
    <time>2018-09-22T05:28:35Z</time>
   </trkpt>
   <trkpt lat="31.7385900" lon="35.1332490">
    <ele>652.3</ele>
    <time>2018-09-22T05:28:36Z</time>
   </trkpt>
   <trkpt lat="31.7385470" lon="35.1331890">
    <ele>652.8</ele>
    <time>2018-09-22T05:28:37Z</time>
   </trkpt>
   <trkpt lat="31.7385030" lon="35.1331570">
    <ele>652.9</ele>
    <time>2018-09-22T05:28:38Z</time>
   </trkpt>
   <trkpt lat="31.7385190" lon="35.1330920">
    <ele>653.3</ele>
    <time>2018-09-22T05:28:39Z</time>
   </trkpt>
   <trkpt lat="31.7384700" lon="35.1330760">
    <ele>653.9</ele>
    <time>2018-09-22T05:28:41Z</time>
   </trkpt>
   <trkpt lat="31.7384470" lon="35.1330350">
    <ele>654.2</ele>
    <time>2018-09-22T05:28:42Z</time>
   </trkpt>
   <trkpt lat="31.7384840" lon="35.1330170">
    <ele>654.4</ele>
    <time>2018-09-22T05:28:44Z</time>
   </trkpt>
   <trkpt lat="31.7384920" lon="35.1329360">
    <ele>654.5</ele>
    <time>2018-09-22T05:28:47Z</time>
   </trkpt>
   <trkpt lat="31.7384910" lon="35.1328500">
    <ele>654.2</ele>
    <time>2018-09-22T05:28:48Z</time>
   </trkpt>
   <trkpt lat="31.7384530" lon="35.1327740">
    <ele>653.7</ele>
    <time>2018-09-22T05:28:49Z</time>
   </trkpt>
   <trkpt lat="31.7384440" lon="35.1326400">
    <ele>652.5</ele>
    <time>2018-09-22T05:28:50Z</time>
   </trkpt>
   <trkpt lat="31.7384800" lon="35.1326230">
    <ele>652.4</ele>
    <time>2018-09-22T05:28:51Z</time>
   </trkpt>
   <trkpt lat="31.7384960" lon="35.1325510">
    <ele>652.7</ele>
    <time>2018-09-22T05:28:52Z</time>
   </trkpt>
   <trkpt lat="31.7384830" lon="35.1325150">
    <ele>652.4</ele>
    <time>2018-09-22T05:28:53Z</time>
   </trkpt>
   <trkpt lat="31.7384950" lon="35.1325490">
    <ele>652.0</ele>
    <time>2018-09-22T05:28:54Z</time>
   </trkpt>
   <trkpt lat="31.7385250" lon="35.1325560">
    <ele>651.7</ele>
    <time>2018-09-22T05:28:55Z</time>
   </trkpt>
   <trkpt lat="31.7385520" lon="35.1325510">
    <ele>651.8</ele>
    <time>2018-09-22T05:28:56Z</time>
   </trkpt>
   <trkpt lat="31.7385760" lon="35.1325230">
    <ele>652.5</ele>
    <time>2018-09-22T05:28:57Z</time>
   </trkpt>
   <trkpt lat="31.7385820" lon="35.1324750">
    <ele>653.2</ele>
    <time>2018-09-22T05:28:58Z</time>
   </trkpt>
   <trkpt lat="31.7386010" lon="35.1325210">
    <ele>654.6</ele>
    <time>2018-09-22T05:28:59Z</time>
   </trkpt>
   <trkpt lat="31.7386220" lon="35.1324550">
    <ele>656.6</ele>
    <time>2018-09-22T05:29:02Z</time>
   </trkpt>
   <trkpt lat="31.7386380" lon="35.1324830">
    <ele>657.2</ele>
    <time>2018-09-22T05:29:03Z</time>
   </trkpt>
   <trkpt lat="31.7386530" lon="35.1325140">
    <ele>658.0</ele>
    <time>2018-09-22T05:29:04Z</time>
   </trkpt>
   <trkpt lat="31.7386760" lon="35.1325380">
    <ele>658.7</ele>
    <time>2018-09-22T05:29:10Z</time>
   </trkpt>
   <trkpt lat="31.7386990" lon="35.1325900">
    <ele>660.0</ele>
    <time>2018-09-22T05:29:14Z</time>
   </trkpt>
   <trkpt lat="31.7387060" lon="35.1325380">
    <ele>661.0</ele>
    <time>2018-09-22T05:29:17Z</time>
   </trkpt>
   <trkpt lat="31.7387440" lon="35.1325370">
    <ele>661.2</ele>
    <time>2018-09-22T05:29:19Z</time>
   </trkpt>
   <trkpt lat="31.7387630" lon="35.1324990">
    <ele>661.4</ele>
    <time>2018-09-22T05:29:22Z</time>
   </trkpt>
   <trkpt lat="31.7387730" lon="35.1324600">
    <ele>661.5</ele>
    <time>2018-09-22T05:29:24Z</time>
   </trkpt>
   <trkpt lat="31.7388020" lon="35.1324570">
    <ele>661.6</ele>
    <time>2018-09-22T05:29:26Z</time>
   </trkpt>
   <trkpt lat="31.7388340" lon="35.1324410">
    <ele>661.6</ele>
    <time>2018-09-22T05:29:27Z</time>
   </trkpt>
   <trkpt lat="31.7388600" lon="35.1324140">
    <ele>661.4</ele>
    <time>2018-09-22T05:29:28Z</time>
   </trkpt>
   <trkpt lat="31.7389030" lon="35.1323890">
    <ele>661.0</ele>
    <time>2018-09-22T05:29:30Z</time>
   </trkpt>
   <trkpt lat="31.7389060" lon="35.1323510">
    <ele>660.7</ele>
    <time>2018-09-22T05:29:31Z</time>
   </trkpt>
   <trkpt lat="31.7389140" lon="35.1323070">
    <ele>660.4</ele>
    <time>2018-09-22T05:29:32Z</time>
   </trkpt>
   <trkpt lat="31.7389390" lon="35.1322710">
    <ele>660.1</ele>
    <time>2018-09-22T05:29:33Z</time>
   </trkpt>
   <trkpt lat="31.7389360" lon="35.1322350">
    <ele>659.9</ele>
    <time>2018-09-22T05:29:34Z</time>
   </trkpt>
   <trkpt lat="31.7389540" lon="35.1322050">
    <ele>659.6</ele>
    <time>2018-09-22T05:29:35Z</time>
   </trkpt>
   <trkpt lat="31.7389760" lon="35.1321620">
    <ele>659.2</ele>
    <time>2018-09-22T05:29:37Z</time>
   </trkpt>
   <trkpt lat="31.7389880" lon="35.1321250">
    <ele>658.8</ele>
    <time>2018-09-22T05:29:38Z</time>
   </trkpt>
   <trkpt lat="31.7390180" lon="35.1320980">
    <ele>658.4</ele>
    <time>2018-09-22T05:29:39Z</time>
   </trkpt>
   <trkpt lat="31.7390450" lon="35.1320780">
    <ele>658.0</ele>
    <time>2018-09-22T05:29:40Z</time>
   </trkpt>
   <trkpt lat="31.7390810" lon="35.1320390">
    <ele>657.2</ele>
    <time>2018-09-22T05:29:42Z</time>
   </trkpt>
   <trkpt lat="31.7391140" lon="35.1319740">
    <ele>656.2</ele>
    <time>2018-09-22T05:29:44Z</time>
   </trkpt>
   <trkpt lat="31.7391570" lon="35.1319160">
    <ele>655.4</ele>
    <time>2018-09-22T05:29:46Z</time>
   </trkpt>
   <trkpt lat="31.7391810" lon="35.1318870">
    <ele>655.2</ele>
    <time>2018-09-22T05:29:47Z</time>
   </trkpt>
   <trkpt lat="31.7392200" lon="35.1318900">
    <ele>655.6</ele>
    <time>2018-09-22T05:29:48Z</time>
   </trkpt>
   <trkpt lat="31.7392500" lon="35.1318580">
    <ele>656.0</ele>
    <time>2018-09-22T05:29:49Z</time>
   </trkpt>
   <trkpt lat="31.7392720" lon="35.1318160">
    <ele>656.4</ele>
    <time>2018-09-22T05:29:50Z</time>
   </trkpt>
   <trkpt lat="31.7393250" lon="35.1318080">
    <ele>656.9</ele>
    <time>2018-09-22T05:29:53Z</time>
   </trkpt>
   <trkpt lat="31.7393490" lon="35.1318330">
    <ele>657.1</ele>
    <time>2018-09-22T05:29:54Z</time>
   </trkpt>
   <trkpt lat="31.7393740" lon="35.1318200">
    <ele>657.4</ele>
    <time>2018-09-22T05:29:55Z</time>
   </trkpt>
   <trkpt lat="31.7393990" lon="35.1318350">
    <ele>657.6</ele>
    <time>2018-09-22T05:29:56Z</time>
   </trkpt>
   <trkpt lat="31.7394290" lon="35.1318370">
    <ele>657.9</ele>
    <time>2018-09-22T05:29:58Z</time>
   </trkpt>
   <trkpt lat="31.7394730" lon="35.1318370">
    <ele>658.3</ele>
    <time>2018-09-22T05:29:59Z</time>
   </trkpt>
   <trkpt lat="31.7395120" lon="35.1318400">
    <ele>658.6</ele>
    <time>2018-09-22T05:30:03Z</time>
   </trkpt>
   <trkpt lat="31.7395590" lon="35.1318750">
    <ele>659.1</ele>
    <time>2018-09-22T05:30:06Z</time>
   </trkpt>
   <trkpt lat="31.7396010" lon="35.1318730">
    <ele>659.4</ele>
    <time>2018-09-22T05:30:07Z</time>
   </trkpt>
   <trkpt lat="31.7396380" lon="35.1318900">
    <ele>659.7</ele>
    <time>2018-09-22T05:30:08Z</time>
   </trkpt>
   <trkpt lat="31.7396540" lon="35.1319680">
    <ele>660.3</ele>
    <time>2018-09-22T05:30:11Z</time>
   </trkpt>
   <trkpt lat="31.7396780" lon="35.1319940">
    <ele>660.5</ele>
    <time>2018-09-22T05:30:12Z</time>
   </trkpt>
   <trkpt lat="31.7397210" lon="35.1320440">
    <ele>661.0</ele>
    <time>2018-09-22T05:30:14Z</time>
   </trkpt>
   <trkpt lat="31.7398090" lon="35.1319310">
    <ele>662.0</ele>
    <time>2018-09-22T05:30:17Z</time>
   </trkpt>
   <trkpt lat="31.7397730" lon="35.1319790">
    <ele>662.4</ele>
    <time>2018-09-22T05:30:19Z</time>
   </trkpt>
   <trkpt lat="31.7398250" lon="35.1319780">
    <ele>662.8</ele>
    <time>2018-09-22T05:30:20Z</time>
   </trkpt>
   <trkpt lat="31.7398320" lon="35.1320340">
    <ele>663.2</ele>
    <time>2018-09-22T05:30:21Z</time>
   </trkpt>
   <trkpt lat="31.7398650" lon="35.1321140">
    <ele>663.8</ele>
    <time>2018-09-22T05:30:23Z</time>
   </trkpt>
   <trkpt lat="31.7398480" lon="35.1321460">
    <ele>664.1</ele>
    <time>2018-09-22T05:30:24Z</time>
   </trkpt>
   <trkpt lat="31.7398970" lon="35.1321820">
    <ele>664.5</ele>
    <time>2018-09-22T05:30:25Z</time>
   </trkpt>
   <trkpt lat="31.7399930" lon="35.1321790">
    <ele>665.3</ele>
    <time>2018-09-22T05:30:26Z</time>
   </trkpt>
   <trkpt lat="31.7399900" lon="35.1322150">
    <ele>665.5</ele>
    <time>2018-09-22T05:30:27Z</time>
   </trkpt>
   <trkpt lat="31.7400230" lon="35.1322290">
    <ele>665.8</ele>
    <time>2018-09-22T05:30:28Z</time>
   </trkpt>
   <trkpt lat="31.7400800" lon="35.1322040">
    <ele>666.3</ele>
    <time>2018-09-22T05:30:30Z</time>
   </trkpt>
   <trkpt lat="31.7400600" lon="35.1321570">
    <ele>667.0</ele>
    <time>2018-09-22T05:30:31Z</time>
   </trkpt>
   <trkpt lat="31.7400270" lon="35.1321600">
    <ele>667.0</ele>
    <time>2018-09-22T05:30:32Z</time>
   </trkpt>
   <trkpt lat="31.7400660" lon="35.1322090">
    <ele>667.0</ele>
    <time>2018-09-22T05:30:33Z</time>
   </trkpt>
   <trkpt lat="31.7400350" lon="35.1322360">
    <ele>667.0</ele>
    <time>2018-09-22T05:30:34Z</time>
   </trkpt>
   <trkpt lat="31.7400620" lon="35.1322680">
    <ele>667.0</ele>
    <time>2018-09-22T05:30:35Z</time>
   </trkpt>
   <trkpt lat="31.7400830" lon="35.1323540">
    <ele>667.0</ele>
    <time>2018-09-22T05:30:37Z</time>
   </trkpt>
   <trkpt lat="31.7400240" lon="35.1323600">
    <ele>667.0</ele>
    <time>2018-09-22T05:30:38Z</time>
   </trkpt>
   <trkpt lat="31.7400500" lon="35.1323350">
    <ele>667.0</ele>
    <time>2018-09-22T05:30:39Z</time>
   </trkpt>
   <trkpt lat="31.7400940" lon="35.1323220">
    <ele>667.0</ele>
    <time>2018-09-22T05:30:41Z</time>
   </trkpt>
   <trkpt lat="31.7400620" lon="35.1323310">
    <ele>667.0</ele>
    <time>2018-09-22T05:30:43Z</time>
   </trkpt>
   <trkpt lat="31.7401010" lon="35.1322780">
    <ele>667.1</ele>
    <time>2018-09-22T05:30:45Z</time>
   </trkpt>
   <trkpt lat="31.7401370" lon="35.1323180">
    <ele>667.3</ele>
    <time>2018-09-22T05:30:47Z</time>
   </trkpt>
   <trkpt lat="31.7402600" lon="35.1323460">
    <ele>667.9</ele>
    <time>2018-09-22T05:30:48Z</time>
   </trkpt>
   <trkpt lat="31.7402440" lon="35.1323860">
    <ele>668.1</ele>
    <time>2018-09-22T05:30:49Z</time>
   </trkpt>
   <trkpt lat="31.7402250" lon="35.1324450">
    <ele>668.3</ele>
    <time>2018-09-22T05:30:50Z</time>
   </trkpt>
   <trkpt lat="31.7402070" lon="35.1324830">
    <ele>668.5</ele>
    <time>2018-09-22T05:30:51Z</time>
   </trkpt>
   <trkpt lat="31.7402250" lon="35.1325200">
    <ele>668.7</ele>
    <time>2018-09-22T05:30:53Z</time>
   </trkpt>
   <trkpt lat="31.7402590" lon="35.1325720">
    <ele>668.9</ele>
    <time>2018-09-22T05:30:54Z</time>
   </trkpt>
   <trkpt lat="31.7402470" lon="35.1326290">
    <ele>669.2</ele>
    <time>2018-09-22T05:30:55Z</time>
   </trkpt>
   <trkpt lat="31.7402560" lon="35.1325710">
    <ele>669.4</ele>
    <time>2018-09-22T05:30:57Z</time>
   </trkpt>
   <trkpt lat="31.7402760" lon="35.1326100">
    <ele>669.6</ele>
    <time>2018-09-22T05:30:58Z</time>
   </trkpt>
   <trkpt lat="31.7403370" lon="35.1326370">
    <ele>670.0</ele>
    <time>2018-09-22T05:30:59Z</time>
   </trkpt>
   <trkpt lat="31.7403410" lon="35.1326820">
    <ele>670.2</ele>
    <time>2018-09-22T05:31:00Z</time>
   </trkpt>
   <trkpt lat="31.7403720" lon="35.1326930">
    <ele>670.3</ele>
    <time>2018-09-22T05:31:01Z</time>
   </trkpt>
   <trkpt lat="31.7404020" lon="35.1326400">
    <ele>670.6</ele>
    <time>2018-09-22T05:31:02Z</time>
   </trkpt>
   <trkpt lat="31.7404550" lon="35.1326830">
    <ele>670.9</ele>
    <time>2018-09-22T05:31:03Z</time>
   </trkpt>
   <trkpt lat="31.7404620" lon="35.1326190">
    <ele>671.2</ele>
    <time>2018-09-22T05:31:04Z</time>
   </trkpt>
   <trkpt lat="31.7404890" lon="35.1326080">
    <ele>671.3</ele>
    <time>2018-09-22T05:31:05Z</time>
   </trkpt>
   <trkpt lat="31.7405360" lon="35.1325600">
    <ele>671.6</ele>
    <time>2018-09-22T05:31:06Z</time>
   </trkpt>
   <trkpt lat="31.7405850" lon="35.1326340">
    <ele>672.0</ele>
    <time>2018-09-22T05:31:08Z</time>
   </trkpt>
   <trkpt lat="31.7405670" lon="35.1327100">
    <ele>672.3</ele>
    <time>2018-09-22T05:31:09Z</time>
   </trkpt>
   <trkpt lat="31.7405250" lon="35.1327310">
    <ele>672.6</ele>
    <time>2018-09-22T05:31:11Z</time>
   </trkpt>
   <trkpt lat="31.7405420" lon="35.1327610">
    <ele>672.7</ele>
    <time>2018-09-22T05:31:12Z</time>
   </trkpt>
   <trkpt lat="31.7404970" lon="35.1327280">
    <ele>673.0</ele>
    <time>2018-09-22T05:31:13Z</time>
   </trkpt>
   <trkpt lat="31.7404560" lon="35.1327070">
    <ele>673.2</ele>
    <time>2018-09-22T05:31:14Z</time>
   </trkpt>
   <trkpt lat="31.7404810" lon="35.1327690">
    <ele>673.5</ele>
    <time>2018-09-22T05:31:15Z</time>
   </trkpt>
   <trkpt lat="31.7405270" lon="35.1328120">
    <ele>673.8</ele>
    <time>2018-09-22T05:31:16Z</time>
   </trkpt>
   <trkpt lat="31.7405650" lon="35.1328430">
    <ele>674.0</ele>
    <time>2018-09-22T05:31:18Z</time>
   </trkpt>
   <trkpt lat="31.7406180" lon="35.1329440">
    <ele>674.5</ele>
    <time>2018-09-22T05:31:19Z</time>
   </trkpt>
   <trkpt lat="31.7406720" lon="35.1329010">
    <ele>674.9</ele>
    <time>2018-09-22T05:31:20Z</time>
   </trkpt>
   <trkpt lat="31.7407080" lon="35.1328930">
    <ele>675.0</ele>
    <time>2018-09-22T05:31:22Z</time>
   </trkpt>
   <trkpt lat="31.7406780" lon="35.1327940">
    <ele>675.5</ele>
    <time>2018-09-22T05:31:23Z</time>
   </trkpt>
   <trkpt lat="31.7406490" lon="35.1327650">
    <ele>675.7</ele>
    <time>2018-09-22T05:31:25Z</time>
   </trkpt>
   <trkpt lat="31.7407440" lon="35.1328230">
    <ele>676.3</ele>
    <time>2018-09-22T05:31:27Z</time>
   </trkpt>
   <trkpt lat="31.7407610" lon="35.1328610">
    <ele>676.4</ele>
    <time>2018-09-22T05:31:28Z</time>
   </trkpt>
   <trkpt lat="31.7407270" lon="35.1328670">
    <ele>676.6</ele>
    <time>2018-09-22T05:31:29Z</time>
   </trkpt>
   <trkpt lat="31.7407400" lon="35.1329080">
    <ele>676.8</ele>
    <time>2018-09-22T05:31:31Z</time>
   </trkpt>
   <trkpt lat="31.7407670" lon="35.1329330">
    <ele>677.0</ele>
    <time>2018-09-22T05:31:32Z</time>
   </trkpt>
   <trkpt lat="31.7407770" lon="35.1329700">
    <ele>677.2</ele>
    <time>2018-09-22T05:31:33Z</time>
   </trkpt>
   <trkpt lat="31.7407390" lon="35.1330280">
    <ele>677.5</ele>
    <time>2018-09-22T05:31:34Z</time>
   </trkpt>
   <trkpt lat="31.7407430" lon="35.1330700">
    <ele>677.7</ele>
    <time>2018-09-22T05:31:36Z</time>
   </trkpt>
   <trkpt lat="31.7407150" lon="35.1330460">
    <ele>677.8</ele>
    <time>2018-09-22T05:31:37Z</time>
   </trkpt>
   <trkpt lat="31.7407680" lon="35.1330840">
    <ele>678.2</ele>
    <time>2018-09-22T05:31:38Z</time>
   </trkpt>
   <trkpt lat="31.7408040" lon="35.1331340">
    <ele>678.4</ele>
    <time>2018-09-22T05:31:39Z</time>
   </trkpt>
   <trkpt lat="31.7408300" lon="35.1330960">
    <ele>678.6</ele>
    <time>2018-09-22T05:31:40Z</time>
   </trkpt>
   <trkpt lat="31.7408150" lon="35.1330530">
    <ele>678.8</ele>
    <time>2018-09-22T05:31:41Z</time>
   </trkpt>
   <trkpt lat="31.7407810" lon="35.1331340">
    <ele>679.2</ele>
    <time>2018-09-22T05:31:42Z</time>
   </trkpt>
   <trkpt lat="31.7407720" lon="35.1331000">
    <ele>679.3</ele>
    <time>2018-09-22T05:31:43Z</time>
   </trkpt>
   <trkpt lat="31.7408090" lon="35.1330570">
    <ele>679.6</ele>
    <time>2018-09-22T05:31:44Z</time>
   </trkpt>
   <trkpt lat="31.7408300" lon="35.1331000">
    <ele>679.8</ele>
    <time>2018-09-22T05:31:45Z</time>
   </trkpt>
   <trkpt lat="31.7408520" lon="35.1331330">
    <ele>680.0</ele>
    <time>2018-09-22T05:31:46Z</time>
   </trkpt>
   <trkpt lat="31.7408560" lon="35.1331750">
    <ele>680.1</ele>
    <time>2018-09-22T05:31:47Z</time>
   </trkpt>
   <trkpt lat="31.7408490" lon="35.1332280">
    <ele>680.3</ele>
    <time>2018-09-22T05:31:50Z</time>
   </trkpt>
   <trkpt lat="31.7408700" lon="35.1332560">
    <ele>680.5</ele>
    <time>2018-09-22T05:31:51Z</time>
   </trkpt>
   <trkpt lat="31.7409160" lon="35.1333200">
    <ele>680.8</ele>
    <time>2018-09-22T05:31:52Z</time>
   </trkpt>
   <trkpt lat="31.7409660" lon="35.1333650">
    <ele>681.1</ele>
    <time>2018-09-22T05:31:54Z</time>
   </trkpt>
   <trkpt lat="31.7410130" lon="35.1334040">
    <ele>681.3</ele>
    <time>2018-09-22T05:31:55Z</time>
   </trkpt>
   <trkpt lat="31.7410460" lon="35.1334480">
    <ele>681.5</ele>
    <time>2018-09-22T05:31:56Z</time>
   </trkpt>
   <trkpt lat="31.7410720" lon="35.1334030">
    <ele>681.7</ele>
    <time>2018-09-22T05:31:58Z</time>
   </trkpt>
   <trkpt lat="31.7411230" lon="35.1334530">
    <ele>682.0</ele>
    <time>2018-09-22T05:32:01Z</time>
   </trkpt>
   <trkpt lat="31.7411450" lon="35.1334730">
    <ele>682.1</ele>
    <time>2018-09-22T05:32:05Z</time>
   </trkpt>
   <trkpt lat="31.7411800" lon="35.1334560">
    <ele>682.3</ele>
    <time>2018-09-22T05:32:06Z</time>
   </trkpt>
   <trkpt lat="31.7412070" lon="35.1334930">
    <ele>682.4</ele>
    <time>2018-09-22T05:32:07Z</time>
   </trkpt>
   <trkpt lat="31.7412350" lon="35.1334510">
    <ele>682.6</ele>
    <time>2018-09-22T05:32:09Z</time>
   </trkpt>
   <trkpt lat="31.7411930" lon="35.1334200">
    <ele>682.8</ele>
    <time>2018-09-22T05:32:10Z</time>
   </trkpt>
   <trkpt lat="31.7412580" lon="35.1334880">
    <ele>683.1</ele>
    <time>2018-09-22T05:32:12Z</time>
   </trkpt>
   <trkpt lat="31.7412790" lon="35.1335360">
    <ele>683.3</ele>
    <time>2018-09-22T05:32:13Z</time>
   </trkpt>
   <trkpt lat="31.7412620" lon="35.1335620">
    <ele>683.4</ele>
    <time>2018-09-22T05:32:15Z</time>
   </trkpt>
   <trkpt lat="31.7412890" lon="35.1336230">
    <ele>683.6</ele>
    <time>2018-09-22T05:32:17Z</time>
   </trkpt>
   <trkpt lat="31.7413320" lon="35.1335430">
    <ele>683.9</ele>
    <time>2018-09-22T05:32:18Z</time>
   </trkpt>
   <trkpt lat="31.7413400" lon="35.1335970">
    <ele>684.1</ele>
    <time>2018-09-22T05:32:20Z</time>
   </trkpt>
   <trkpt lat="31.7413420" lon="35.1336450">
    <ele>684.2</ele>
    <time>2018-09-22T05:32:21Z</time>
   </trkpt>
   <trkpt lat="31.7413860" lon="35.1336610">
    <ele>684.4</ele>
    <time>2018-09-22T05:32:23Z</time>
   </trkpt>
   <trkpt lat="31.7414140" lon="35.1336840">
    <ele>684.6</ele>
    <time>2018-09-22T05:32:24Z</time>
   </trkpt>
   <trkpt lat="31.7414480" lon="35.1337240">
    <ele>684.7</ele>
    <time>2018-09-22T05:32:26Z</time>
   </trkpt>
   <trkpt lat="31.7415320" lon="35.1336890">
    <ele>685.1</ele>
    <time>2018-09-22T05:32:27Z</time>
   </trkpt>
   <trkpt lat="31.7415820" lon="35.1337350">
    <ele>685.3</ele>
    <time>2018-09-22T05:32:28Z</time>
   </trkpt>
   <trkpt lat="31.7416050" lon="35.1337850">
    <ele>685.5</ele>
    <time>2018-09-22T05:32:30Z</time>
   </trkpt>
   <trkpt lat="31.7416930" lon="35.1338880">
    <ele>686.1</ele>
    <time>2018-09-22T05:32:31Z</time>
   </trkpt>
   <trkpt lat="31.7417590" lon="35.1338630">
    <ele>686.4</ele>
    <time>2018-09-22T05:32:32Z</time>
   </trkpt>
   <trkpt lat="31.7417120" lon="35.1337800">
    <ele>686.7</ele>
    <time>2018-09-22T05:32:33Z</time>
   </trkpt>
   <trkpt lat="31.7416830" lon="35.1337950">
    <ele>686.8</ele>
    <time>2018-09-22T05:32:34Z</time>
   </trkpt>
   <trkpt lat="31.7417130" lon="35.1337950">
    <ele>687.0</ele>
    <time>2018-09-22T05:32:35Z</time>
   </trkpt>
   <trkpt lat="31.7417370" lon="35.1338530">
    <ele>687.2</ele>
    <time>2018-09-22T05:32:38Z</time>
   </trkpt>
   <trkpt lat="31.7416970" lon="35.1338510">
    <ele>687.4</ele>
    <time>2018-09-22T05:32:40Z</time>
   </trkpt>
   <trkpt lat="31.7417110" lon="35.1338080">
    <ele>687.5</ele>
    <time>2018-09-22T05:32:41Z</time>
   </trkpt>
   <trkpt lat="31.7417090" lon="35.1338880">
    <ele>687.8</ele>
    <time>2018-09-22T05:32:44Z</time>
   </trkpt>
   <trkpt lat="31.7417300" lon="35.1339330">
    <ele>688.0</ele>
    <time>2018-09-22T05:32:45Z</time>
   </trkpt>
   <trkpt lat="31.7417650" lon="35.1339650">
    <ele>688.2</ele>
    <time>2018-09-22T05:32:46Z</time>
   </trkpt>
   <trkpt lat="31.7417920" lon="35.1339900">
    <ele>688.3</ele>
    <time>2018-09-22T05:32:47Z</time>
   </trkpt>
   <trkpt lat="31.7418400" lon="35.1339960">
    <ele>688.5</ele>
    <time>2018-09-22T05:32:48Z</time>
   </trkpt>
   <trkpt lat="31.7418960" lon="35.1339950">
    <ele>688.7</ele>
    <time>2018-09-22T05:32:49Z</time>
   </trkpt>
   <trkpt lat="31.7419170" lon="35.1340210">
    <ele>688.8</ele>
    <time>2018-09-22T05:32:51Z</time>
   </trkpt>
   <trkpt lat="31.7419020" lon="35.1339880">
    <ele>689.0</ele>
    <time>2018-09-22T05:32:52Z</time>
   </trkpt>
   <trkpt lat="31.7419320" lon="35.1339710">
    <ele>689.1</ele>
    <time>2018-09-22T05:32:53Z</time>
   </trkpt>
   <trkpt lat="31.7419760" lon="35.1339660">
    <ele>689.2</ele>
    <time>2018-09-22T05:32:54Z</time>
   </trkpt>
   <trkpt lat="31.7420130" lon="35.1339520">
    <ele>689.4</ele>
    <time>2018-09-22T05:32:55Z</time>
   </trkpt>
   <trkpt lat="31.7420860" lon="35.1339550">
    <ele>689.6</ele>
    <time>2018-09-22T05:32:57Z</time>
   </trkpt>
   <trkpt lat="31.7420430" lon="35.1340230">
    <ele>689.8</ele>
    <time>2018-09-22T05:32:59Z</time>
   </trkpt>
   <trkpt lat="31.7420150" lon="35.1340300">
    <ele>689.9</ele>
    <time>2018-09-22T05:33:00Z</time>
   </trkpt>
   <trkpt lat="31.7420640" lon="35.1340050">
    <ele>690.0</ele>
    <time>2018-09-22T05:33:01Z</time>
   </trkpt>
   <trkpt lat="31.7421080" lon="35.1340290">
    <ele>690.2</ele>
    <time>2018-09-22T05:33:02Z</time>
   </trkpt>
   <trkpt lat="31.7421380" lon="35.1340510">
    <ele>690.3</ele>
    <time>2018-09-22T05:33:03Z</time>
   </trkpt>
   <trkpt lat="31.7421590" lon="35.1340730">
    <ele>690.3</ele>
    <time>2018-09-22T05:33:04Z</time>
   </trkpt>
   <trkpt lat="31.7422060" lon="35.1340730">
    <ele>690.5</ele>
    <time>2018-09-22T05:33:06Z</time>
   </trkpt>
   <trkpt lat="31.7422160" lon="35.1341030">
    <ele>690.5</ele>
    <time>2018-09-22T05:33:07Z</time>
   </trkpt>
   <trkpt lat="31.7421840" lon="35.1340710">
    <ele>690.6</ele>
    <time>2018-09-22T05:33:08Z</time>
   </trkpt>
   <trkpt lat="31.7422110" lon="35.1340970">
    <ele>690.8</ele>
    <time>2018-09-22T05:33:10Z</time>
   </trkpt>
   <trkpt lat="31.7422420" lon="35.1341180">
    <ele>690.9</ele>
    <time>2018-09-22T05:33:13Z</time>
   </trkpt>
   <trkpt lat="31.7422750" lon="35.1341260">
    <ele>691.0</ele>
    <time>2018-09-22T05:33:14Z</time>
   </trkpt>
   <trkpt lat="31.7422950" lon="35.1340980">
    <ele>691.1</ele>
    <time>2018-09-22T05:33:15Z</time>
   </trkpt>
   <trkpt lat="31.7423360" lon="35.1340920">
    <ele>691.3</ele>
    <time>2018-09-22T05:33:16Z</time>
   </trkpt>
   <trkpt lat="31.7424100" lon="35.1340900">
    <ele>691.6</ele>
    <time>2018-09-22T05:33:17Z</time>
   </trkpt>
   <trkpt lat="31.7423860" lon="35.1341150">
    <ele>691.7</ele>
    <time>2018-09-22T05:33:18Z</time>
   </trkpt>
   <trkpt lat="31.7424520" lon="35.1341670">
    <ele>692.0</ele>
    <time>2018-09-22T05:33:19Z</time>
   </trkpt>
   <trkpt lat="31.7424250" lon="35.1341890">
    <ele>692.1</ele>
    <time>2018-09-22T05:33:20Z</time>
   </trkpt>
   <trkpt lat="31.7424570" lon="35.1342450">
    <ele>692.3</ele>
    <time>2018-09-22T05:33:21Z</time>
   </trkpt>
   <trkpt lat="31.7424750" lon="35.1341650">
    <ele>692.6</ele>
    <time>2018-09-22T05:33:22Z</time>
   </trkpt>
   <trkpt lat="31.7425300" lon="35.1342310">
    <ele>692.9</ele>
    <time>2018-09-22T05:33:23Z</time>
   </trkpt>
   <trkpt lat="31.7425710" lon="35.1342220">
    <ele>693.0</ele>
    <time>2018-09-22T05:33:24Z</time>
   </trkpt>
   <trkpt lat="31.7426070" lon="35.1341730">
    <ele>693.2</ele>
    <time>2018-09-22T05:33:25Z</time>
   </trkpt>
   <trkpt lat="31.7426010" lon="35.1342140">
    <ele>693.3</ele>
    <time>2018-09-22T05:33:26Z</time>
   </trkpt>
   <trkpt lat="31.7426490" lon="35.1342510">
    <ele>693.6</ele>
    <time>2018-09-22T05:33:27Z</time>
   </trkpt>
   <trkpt lat="31.7426490" lon="35.1343050">
    <ele>693.7</ele>
    <time>2018-09-22T05:33:28Z</time>
   </trkpt>
   <trkpt lat="31.7426120" lon="35.1343320">
    <ele>693.9</ele>
    <time>2018-09-22T05:33:29Z</time>
   </trkpt>
   <trkpt lat="31.7427070" lon="35.1343750">
    <ele>694.3</ele>
    <time>2018-09-22T05:33:30Z</time>
   </trkpt>
   <trkpt lat="31.7427540" lon="35.1343930">
    <ele>694.5</ele>
    <time>2018-09-22T05:33:34Z</time>
   </trkpt>
   <trkpt lat="31.7427200" lon="35.1343590">
    <ele>694.6</ele>
    <time>2018-09-22T05:33:36Z</time>
   </trkpt>
   <trkpt lat="31.7427680" lon="35.1343910">
    <ele>694.8</ele>
    <time>2018-09-22T05:33:40Z</time>
   </trkpt>
   <trkpt lat="31.7428360" lon="35.1343730">
    <ele>695.1</ele>
    <time>2018-09-22T05:33:42Z</time>
   </trkpt>
   <trkpt lat="31.7428550" lon="35.1343990">
    <ele>695.2</ele>
    <time>2018-09-22T05:33:44Z</time>
   </trkpt>
   <trkpt lat="31.7428930" lon="35.1344290">
    <ele>695.4</ele>
    <time>2018-09-22T05:33:48Z</time>
   </trkpt>
   <trkpt lat="31.7429200" lon="35.1344540">
    <ele>695.5</ele>
    <time>2018-09-22T05:33:49Z</time>
   </trkpt>
   <trkpt lat="31.7429460" lon="35.1345080">
    <ele>695.7</ele>
    <time>2018-09-22T05:33:51Z</time>
   </trkpt>
   <trkpt lat="31.7429770" lon="35.1345240">
    <ele>695.8</ele>
    <time>2018-09-22T05:33:52Z</time>
   </trkpt>
   <trkpt lat="31.7430030" lon="35.1345360">
    <ele>695.9</ele>
    <time>2018-09-22T05:33:53Z</time>
   </trkpt>
   <trkpt lat="31.7430380" lon="35.1345570">
    <ele>696.1</ele>
    <time>2018-09-22T05:33:54Z</time>
   </trkpt>
   <trkpt lat="31.7430760" lon="35.1345920">
    <ele>696.2</ele>
    <time>2018-09-22T05:33:55Z</time>
   </trkpt>
   <trkpt lat="31.7431100" lon="35.1345940">
    <ele>696.4</ele>
    <time>2018-09-22T05:33:58Z</time>
   </trkpt>
   <trkpt lat="31.7431270" lon="35.1345710">
    <ele>696.5</ele>
    <time>2018-09-22T05:33:59Z</time>
   </trkpt>
   <trkpt lat="31.7431420" lon="35.1345440">
    <ele>696.6</ele>
    <time>2018-09-22T05:34:00Z</time>
   </trkpt>
   <trkpt lat="31.7431700" lon="35.1345620">
    <ele>696.7</ele>
    <time>2018-09-22T05:34:02Z</time>
   </trkpt>
   <trkpt lat="31.7431520" lon="35.1345940">
    <ele>696.8</ele>
    <time>2018-09-22T05:34:03Z</time>
   </trkpt>
   <trkpt lat="31.7432010" lon="35.1346340">
    <ele>697.0</ele>
    <time>2018-09-22T05:34:06Z</time>
   </trkpt>
   <trkpt lat="31.7432210" lon="35.1346710">
    <ele>697.2</ele>
    <time>2018-09-22T05:34:07Z</time>
   </trkpt>
   <trkpt lat="31.7432430" lon="35.1347120">
    <ele>697.3</ele>
    <time>2018-09-22T05:34:08Z</time>
   </trkpt>
   <trkpt lat="31.7432580" lon="35.1347420">
    <ele>697.4</ele>
    <time>2018-09-22T05:34:10Z</time>
   </trkpt>
   <trkpt lat="31.7432860" lon="35.1347730">
    <ele>697.6</ele>
    <time>2018-09-22T05:34:12Z</time>
   </trkpt>
   <trkpt lat="31.7433120" lon="35.1347860">
    <ele>697.7</ele>
    <time>2018-09-22T05:34:13Z</time>
   </trkpt>
   <trkpt lat="31.7433510" lon="35.1348270">
    <ele>697.9</ele>
    <time>2018-09-22T05:34:15Z</time>
   </trkpt>
   <trkpt lat="31.7433750" lon="35.1348420">
    <ele>698.0</ele>
    <time>2018-09-22T05:34:16Z</time>
   </trkpt>
   <trkpt lat="31.7434030" lon="35.1348700">
    <ele>698.2</ele>
    <time>2018-09-22T05:34:17Z</time>
   </trkpt>
   <trkpt lat="31.7434420" lon="35.1348970">
    <ele>698.4</ele>
    <time>2018-09-22T05:34:19Z</time>
   </trkpt>
   <trkpt lat="31.7434790" lon="35.1348840">
    <ele>698.6</ele>
    <time>2018-09-22T05:34:22Z</time>
   </trkpt>
   <trkpt lat="31.7435310" lon="35.1349180">
    <ele>699.0</ele>
    <time>2018-09-22T05:34:24Z</time>
   </trkpt>
   <trkpt lat="31.7435500" lon="35.1349460">
    <ele>699.1</ele>
    <time>2018-09-22T05:34:25Z</time>
   </trkpt>
   <trkpt lat="31.7435700" lon="35.1349840">
    <ele>699.4</ele>
    <time>2018-09-22T05:34:27Z</time>
   </trkpt>
   <trkpt lat="31.7435730" lon="35.1350270">
    <ele>699.6</ele>
    <time>2018-09-22T05:34:30Z</time>
   </trkpt>
   <trkpt lat="31.7436210" lon="35.1350450">
    <ele>700.1</ele>
    <time>2018-09-22T05:34:32Z</time>
   </trkpt>
   <trkpt lat="31.7436590" lon="35.1350670">
    <ele>700.4</ele>
    <time>2018-09-22T05:34:33Z</time>
   </trkpt>
   <trkpt lat="31.7436830" lon="35.1350860">
    <ele>700.7</ele>
    <time>2018-09-22T05:34:34Z</time>
   </trkpt>
   <trkpt lat="31.7436940" lon="35.1351190">
    <ele>700.9</ele>
    <time>2018-09-22T05:34:35Z</time>
   </trkpt>
   <trkpt lat="31.7437360" lon="35.1351430">
    <ele>701.3</ele>
    <time>2018-09-22T05:34:37Z</time>
   </trkpt>
   <trkpt lat="31.7437710" lon="35.1351460">
    <ele>701.6</ele>
    <time>2018-09-22T05:34:39Z</time>
   </trkpt>
   <trkpt lat="31.7438070" lon="35.1351880">
    <ele>702.1</ele>
    <time>2018-09-22T05:34:41Z</time>
   </trkpt>
   <trkpt lat="31.7438430" lon="35.1351620">
    <ele>702.4</ele>
    <time>2018-09-22T05:34:42Z</time>
   </trkpt>
   <trkpt lat="31.7438750" lon="35.1351790">
    <ele>702.7</ele>
    <time>2018-09-22T05:34:43Z</time>
   </trkpt>
   <trkpt lat="31.7439060" lon="35.1352160">
    <ele>703.1</ele>
    <time>2018-09-22T05:34:47Z</time>
   </trkpt>
   <trkpt lat="31.7439740" lon="35.1352400">
    <ele>703.7</ele>
    <time>2018-09-22T05:34:49Z</time>
   </trkpt>
   <trkpt lat="31.7440430" lon="35.1352730">
    <ele>704.2</ele>
    <time>2018-09-22T05:34:50Z</time>
   </trkpt>
   <trkpt lat="31.7440090" lon="35.1352650">
    <ele>704.4</ele>
    <time>2018-09-22T05:34:51Z</time>
   </trkpt>
   <trkpt lat="31.7440410" lon="35.1352650">
    <ele>704.6</ele>
    <time>2018-09-22T05:34:52Z</time>
   </trkpt>
   <trkpt lat="31.7440970" lon="35.1353060">
    <ele>705.0</ele>
    <time>2018-09-22T05:34:54Z</time>
   </trkpt>
   <trkpt lat="31.7441610" lon="35.1352930">
    <ele>705.4</ele>
    <time>2018-09-22T05:34:55Z</time>
   </trkpt>
   <trkpt lat="31.7441950" lon="35.1353390">
    <ele>705.7</ele>
    <time>2018-09-22T05:34:56Z</time>
   </trkpt>
   <trkpt lat="31.7442170" lon="35.1353620">
    <ele>705.9</ele>
    <time>2018-09-22T05:34:57Z</time>
   </trkpt>
   <trkpt lat="31.7442500" lon="35.1353650">
    <ele>706.1</ele>
    <time>2018-09-22T05:35:00Z</time>
   </trkpt>
   <trkpt lat="31.7442820" lon="35.1354030">
    <ele>706.4</ele>
    <time>2018-09-22T05:35:02Z</time>
   </trkpt>
   <trkpt lat="31.7443240" lon="35.1354200">
    <ele>706.8</ele>
    <time>2018-09-22T05:35:03Z</time>
   </trkpt>
   <trkpt lat="31.7443560" lon="35.1354300">
    <ele>707.1</ele>
    <time>2018-09-22T05:35:07Z</time>
   </trkpt>
   <trkpt lat="31.7443840" lon="35.1354000">
    <ele>707.5</ele>
    <time>2018-09-22T05:35:09Z</time>
   </trkpt>
   <trkpt lat="31.7444210" lon="35.1354070">
    <ele>707.9</ele>
    <time>2018-09-22T05:35:10Z</time>
   </trkpt>
   <trkpt lat="31.7445030" lon="35.1354350">
    <ele>708.8</ele>
    <time>2018-09-22T05:35:12Z</time>
   </trkpt>
   <trkpt lat="31.7445870" lon="35.1353970">
    <ele>709.8</ele>
    <time>2018-09-22T05:35:13Z</time>
   </trkpt>
   <trkpt lat="31.7445730" lon="35.1354600">
    <ele>710.4</ele>
    <time>2018-09-22T05:35:15Z</time>
   </trkpt>
   <trkpt lat="31.7446430" lon="35.1354280">
    <ele>711.3</ele>
    <time>2018-09-22T05:35:16Z</time>
   </trkpt>
   <trkpt lat="31.7446990" lon="35.1354610">
    <ele>712.1</ele>
    <time>2018-09-22T05:35:18Z</time>
   </trkpt>
   <trkpt lat="31.7446940" lon="35.1354100">
    <ele>712.7</ele>
    <time>2018-09-22T05:35:19Z</time>
   </trkpt>
   <trkpt lat="31.7447600" lon="35.1354540">
    <ele>713.8</ele>
    <time>2018-09-22T05:35:21Z</time>
   </trkpt>
   <trkpt lat="31.7447700" lon="35.1355180">
    <ele>714.6</ele>
    <time>2018-09-22T05:35:22Z</time>
   </trkpt>
   <trkpt lat="31.7448030" lon="35.1356110">
    <ele>715.8</ele>
    <time>2018-09-22T05:35:24Z</time>
   </trkpt>
   <trkpt lat="31.7448200" lon="35.1356360">
    <ele>716.0</ele>
    <time>2018-09-22T05:35:25Z</time>
   </trkpt>
   <trkpt lat="31.7448660" lon="35.1356560">
    <ele>716.0</ele>
    <time>2018-09-22T05:35:26Z</time>
   </trkpt>
   <trkpt lat="31.7449370" lon="35.1356670">
    <ele>716.9</ele>
    <time>2018-09-22T05:35:28Z</time>
   </trkpt>
   <trkpt lat="31.7449740" lon="35.1355700">
    <ele>717.4</ele>
    <time>2018-09-22T05:35:29Z</time>
   </trkpt>
   <trkpt lat="31.7450240" lon="35.1355630">
    <ele>717.4</ele>
    <time>2018-09-22T05:35:30Z</time>
   </trkpt>
   <trkpt lat="31.7450170" lon="35.1356070">
    <ele>717.4</ele>
    <time>2018-09-22T05:35:31Z</time>
   </trkpt>
   <trkpt lat="31.7449970" lon="35.1355670">
    <ele>717.3</ele>
    <time>2018-09-22T05:35:32Z</time>
   </trkpt>
   <trkpt lat="31.7450190" lon="35.1356060">
    <ele>717.1</ele>
    <time>2018-09-22T05:35:33Z</time>
   </trkpt>
   <trkpt lat="31.7450840" lon="35.1356280">
    <ele>716.9</ele>
    <time>2018-09-22T05:35:35Z</time>
   </trkpt>
   <trkpt lat="31.7451080" lon="35.1356570">
    <ele>716.8</ele>
    <time>2018-09-22T05:35:36Z</time>
   </trkpt>
   <trkpt lat="31.7451200" lon="35.1356250">
    <ele>716.7</ele>
    <time>2018-09-22T05:35:37Z</time>
   </trkpt>
   <trkpt lat="31.7451590" lon="35.1356350">
    <ele>716.7</ele>
    <time>2018-09-22T05:35:38Z</time>
   </trkpt>
   <trkpt lat="31.7451880" lon="35.1356570">
    <ele>716.6</ele>
    <time>2018-09-22T05:35:39Z</time>
   </trkpt>
   <trkpt lat="31.7452410" lon="35.1356570">
    <ele>717.1</ele>
    <time>2018-09-22T05:35:40Z</time>
   </trkpt>
   <trkpt lat="31.7452880" lon="35.1356750">
    <ele>717.6</ele>
    <time>2018-09-22T05:35:41Z</time>
   </trkpt>
   <trkpt lat="31.7453070" lon="35.1356220">
    <ele>717.7</ele>
    <time>2018-09-22T05:35:42Z</time>
   </trkpt>
   <trkpt lat="31.7453390" lon="35.1356290">
    <ele>717.6</ele>
    <time>2018-09-22T05:35:44Z</time>
   </trkpt>
   <trkpt lat="31.7454710" lon="35.1356470">
    <ele>717.3</ele>
    <time>2018-09-22T05:35:47Z</time>
   </trkpt>
   <trkpt lat="31.7455300" lon="35.1356690">
    <ele>717.4</ele>
    <time>2018-09-22T05:35:49Z</time>
   </trkpt>
   <trkpt lat="31.7455710" lon="35.1355880">
    <ele>717.6</ele>
    <time>2018-09-22T05:35:51Z</time>
   </trkpt>
   <trkpt lat="31.7456070" lon="35.1356210">
    <ele>717.7</ele>
    <time>2018-09-22T05:35:52Z</time>
   </trkpt>
   <trkpt lat="31.7456380" lon="35.1355890">
    <ele>717.7</ele>
    <time>2018-09-22T05:35:53Z</time>
   </trkpt>
   <trkpt lat="31.7456880" lon="35.1355980">
    <ele>717.5</ele>
    <time>2018-09-22T05:35:54Z</time>
   </trkpt>
   <trkpt lat="31.7457460" lon="35.1356080">
    <ele>718.4</ele>
    <time>2018-09-22T05:35:56Z</time>
   </trkpt>
   <trkpt lat="31.7457940" lon="35.1356160">
    <ele>719.3</ele>
    <time>2018-09-22T05:35:58Z</time>
   </trkpt>
   <trkpt lat="31.7458470" lon="35.1356270">
    <ele>719.4</ele>
    <time>2018-09-22T05:35:59Z</time>
   </trkpt>
   <trkpt lat="31.7458750" lon="35.1356220">
    <ele>719.5</ele>
    <time>2018-09-22T05:36:01Z</time>
   </trkpt>
   <trkpt lat="31.7458880" lon="35.1355930">
    <ele>720.0</ele>
    <time>2018-09-22T05:36:02Z</time>
   </trkpt>
   <trkpt lat="31.7459450" lon="35.1355510">
    <ele>720.9</ele>
    <time>2018-09-22T05:36:05Z</time>
   </trkpt>
   <trkpt lat="31.7459850" lon="35.1355410">
    <ele>720.7</ele>
    <time>2018-09-22T05:36:06Z</time>
   </trkpt>
   <trkpt lat="31.7460180" lon="35.1355040">
    <ele>720.6</ele>
    <time>2018-09-22T05:36:07Z</time>
   </trkpt>
   <trkpt lat="31.7460390" lon="35.1354360">
    <ele>720.1</ele>
    <time>2018-09-22T05:36:08Z</time>
   </trkpt>
   <trkpt lat="31.7460650" lon="35.1353950">
    <ele>719.5</ele>
    <time>2018-09-22T05:36:10Z</time>
   </trkpt>
   <trkpt lat="31.7460740" lon="35.1353380">
    <ele>718.9</ele>
    <time>2018-09-22T05:36:11Z</time>
   </trkpt>
   <trkpt lat="31.7461030" lon="35.1353180">
    <ele>718.8</ele>
    <time>2018-09-22T05:36:12Z</time>
   </trkpt>
   <trkpt lat="31.7460990" lon="35.1352790">
    <ele>718.6</ele>
    <time>2018-09-22T05:36:13Z</time>
   </trkpt>
   <trkpt lat="31.7460320" lon="35.1352650">
    <ele>718.8</ele>
    <time>2018-09-22T05:36:14Z</time>
   </trkpt>
   <trkpt lat="31.7460320" lon="35.1351890">
    <ele>719.0</ele>
    <time>2018-09-22T05:36:15Z</time>
   </trkpt>
   <trkpt lat="31.7459760" lon="35.1351240">
    <ele>719.3</ele>
    <time>2018-09-22T05:36:16Z</time>
   </trkpt>
   <trkpt lat="31.7459720" lon="35.1350720">
    <ele>719.0</ele>
    <time>2018-09-22T05:36:17Z</time>
   </trkpt>
   <trkpt lat="31.7459490" lon="35.1350420">
    <ele>718.8</ele>
    <time>2018-09-22T05:36:18Z</time>
   </trkpt>
   <trkpt lat="31.7459210" lon="35.1349890">
    <ele>718.3</ele>
    <time>2018-09-22T05:36:19Z</time>
   </trkpt>
   <trkpt lat="31.7459010" lon="35.1349490">
    <ele>717.8</ele>
    <time>2018-09-22T05:36:20Z</time>
   </trkpt>
   <trkpt lat="31.7458810" lon="35.1348990">
    <ele>717.3</ele>
    <time>2018-09-22T05:36:21Z</time>
   </trkpt>
   <trkpt lat="31.7458680" lon="35.1348560">
    <ele>716.9</ele>
    <time>2018-09-22T05:36:22Z</time>
   </trkpt>
   <trkpt lat="31.7458330" lon="35.1348340">
    <ele>716.7</ele>
    <time>2018-09-22T05:36:23Z</time>
   </trkpt>
   <trkpt lat="31.7458110" lon="35.1347710">
    <ele>716.8</ele>
    <time>2018-09-22T05:36:24Z</time>
   </trkpt>
   <trkpt lat="31.7457620" lon="35.1347220">
    <ele>716.7</ele>
    <time>2018-09-22T05:36:25Z</time>
   </trkpt>
   <trkpt lat="31.7457380" lon="35.1346910">
    <ele>716.5</ele>
    <time>2018-09-22T05:36:26Z</time>
   </trkpt>
   <trkpt lat="31.7457620" lon="35.1346420">
    <ele>716.4</ele>
    <time>2018-09-22T05:36:27Z</time>
   </trkpt>
   <trkpt lat="31.7457390" lon="35.1345870">
    <ele>716.6</ele>
    <time>2018-09-22T05:36:28Z</time>
   </trkpt>
   <trkpt lat="31.7457240" lon="35.1345540">
    <ele>716.6</ele>
    <time>2018-09-22T05:36:29Z</time>
   </trkpt>
   <trkpt lat="31.7457290" lon="35.1344740">
    <ele>716.3</ele>
    <time>2018-09-22T05:36:30Z</time>
   </trkpt>
   <trkpt lat="31.7457080" lon="35.1344340">
    <ele>716.1</ele>
    <time>2018-09-22T05:36:31Z</time>
   </trkpt>
   <trkpt lat="31.7457000" lon="35.1343820">
    <ele>716.0</ele>
    <time>2018-09-22T05:36:32Z</time>
   </trkpt>
   <trkpt lat="31.7456900" lon="35.1343330">
    <ele>716.4</ele>
    <time>2018-09-22T05:36:33Z</time>
   </trkpt>
   <trkpt lat="31.7457030" lon="35.1342920">
    <ele>717.0</ele>
    <time>2018-09-22T05:36:35Z</time>
   </trkpt>
   <trkpt lat="31.7456590" lon="35.1342460">
    <ele>717.9</ele>
    <time>2018-09-22T05:36:36Z</time>
   </trkpt>
   <trkpt lat="31.7456950" lon="35.1342000">
    <ele>718.6</ele>
    <time>2018-09-22T05:36:37Z</time>
   </trkpt>
   <trkpt lat="31.7456420" lon="35.1341920">
    <ele>719.2</ele>
    <time>2018-09-22T05:36:38Z</time>
   </trkpt>
   <trkpt lat="31.7456660" lon="35.1341660">
    <ele>719.4</ele>
    <time>2018-09-22T05:36:39Z</time>
   </trkpt>
   <trkpt lat="31.7456430" lon="35.1341080">
    <ele>719.7</ele>
    <time>2018-09-22T05:36:40Z</time>
   </trkpt>
   <trkpt lat="31.7455730" lon="35.1340420">
    <ele>720.1</ele>
    <time>2018-09-22T05:36:41Z</time>
   </trkpt>
   <trkpt lat="31.7455810" lon="35.1339870">
    <ele>720.3</ele>
    <time>2018-09-22T05:36:42Z</time>
   </trkpt>
   <trkpt lat="31.7456590" lon="35.1338710">
    <ele>720.7</ele>
    <time>2018-09-22T05:36:43Z</time>
   </trkpt>
   <trkpt lat="31.7457080" lon="35.1337760">
    <ele>721.0</ele>
    <time>2018-09-22T05:36:44Z</time>
   </trkpt>
   <trkpt lat="31.7456540" lon="35.1337370">
    <ele>721.2</ele>
    <time>2018-09-22T05:36:45Z</time>
   </trkpt>
   <trkpt lat="31.7456840" lon="35.1336950">
    <ele>721.4</ele>
    <time>2018-09-22T05:36:46Z</time>
   </trkpt>
   <trkpt lat="31.7457140" lon="35.1336180">
    <ele>721.8</ele>
    <time>2018-09-22T05:36:47Z</time>
   </trkpt>
   <trkpt lat="31.7457150" lon="35.1335780">
    <ele>722.1</ele>
    <time>2018-09-22T05:36:48Z</time>
   </trkpt>
   <trkpt lat="31.7457400" lon="35.1335340">
    <ele>722.5</ele>
    <time>2018-09-22T05:36:49Z</time>
   </trkpt>
   <trkpt lat="31.7457560" lon="35.1334430">
    <ele>723.3</ele>
    <time>2018-09-22T05:36:50Z</time>
   </trkpt>
   <trkpt lat="31.7457740" lon="35.1333530">
    <ele>724.0</ele>
    <time>2018-09-22T05:36:51Z</time>
   </trkpt>
   <trkpt lat="31.7458170" lon="35.1332160">
    <ele>724.4</ele>
    <time>2018-09-22T05:36:53Z</time>
   </trkpt>
   <trkpt lat="31.7458030" lon="35.1331430">
    <ele>724.6</ele>
    <time>2018-09-22T05:36:54Z</time>
   </trkpt>
   <trkpt lat="31.7458070" lon="35.1330760">
    <ele>724.8</ele>
    <time>2018-09-22T05:36:55Z</time>
   </trkpt>
   <trkpt lat="31.7458040" lon="35.1330260">
    <ele>725.0</ele>
    <time>2018-09-22T05:36:56Z</time>
   </trkpt>
   <trkpt lat="31.7458090" lon="35.1329740">
    <ele>725.0</ele>
    <time>2018-09-22T05:36:57Z</time>
   </trkpt>
   <trkpt lat="31.7458740" lon="35.1329010">
    <ele>724.3</ele>
    <time>2018-09-22T05:36:58Z</time>
   </trkpt>
   <trkpt lat="31.7459360" lon="35.1328300">
    <ele>722.6</ele>
    <time>2018-09-22T05:36:59Z</time>
   </trkpt>
   <trkpt lat="31.7459860" lon="35.1328010">
    <ele>722.1</ele>
    <time>2018-09-22T05:37:00Z</time>
   </trkpt>
   <trkpt lat="31.7460240" lon="35.1327970">
    <ele>722.1</ele>
    <time>2018-09-22T05:37:02Z</time>
   </trkpt>
   <trkpt lat="31.7460480" lon="35.1327770">
    <ele>722.0</ele>
    <time>2018-09-22T05:37:03Z</time>
   </trkpt>
   <trkpt lat="31.7460940" lon="35.1327470">
    <ele>721.8</ele>
    <time>2018-09-22T05:37:05Z</time>
   </trkpt>
   <trkpt lat="31.7461480" lon="35.1327220">
    <ele>721.7</ele>
    <time>2018-09-22T05:37:09Z</time>
   </trkpt>
   <trkpt lat="31.7461850" lon="35.1327100">
    <ele>721.8</ele>
    <time>2018-09-22T05:37:11Z</time>
   </trkpt>
   <trkpt lat="31.7462270" lon="35.1326950">
    <ele>721.9</ele>
    <time>2018-09-22T05:37:13Z</time>
   </trkpt>
   <trkpt lat="31.7462740" lon="35.1326230">
    <ele>722.2</ele>
    <time>2018-09-22T05:37:15Z</time>
   </trkpt>
   <trkpt lat="31.7462990" lon="35.1325810">
    <ele>722.5</ele>
    <time>2018-09-22T05:37:17Z</time>
   </trkpt>
   <trkpt lat="31.7463030" lon="35.1325400">
    <ele>722.7</ele>
    <time>2018-09-22T05:37:19Z</time>
   </trkpt>
   <trkpt lat="31.7463480" lon="35.1325170">
    <ele>723.1</ele>
    <time>2018-09-22T05:37:21Z</time>
   </trkpt>
   <trkpt lat="31.7463770" lon="35.1324910">
    <ele>723.3</ele>
    <time>2018-09-22T05:37:23Z</time>
   </trkpt>
   <trkpt lat="31.7464340" lon="35.1324500">
    <ele>723.7</ele>
    <time>2018-09-22T05:37:26Z</time>
   </trkpt>
   <trkpt lat="31.7464560" lon="35.1324300">
    <ele>723.9</ele>
    <time>2018-09-22T05:37:27Z</time>
   </trkpt>
   <trkpt lat="31.7464830" lon="35.1324440">
    <ele>724.0</ele>
    <time>2018-09-22T05:37:31Z</time>
   </trkpt>
   <trkpt lat="31.7465230" lon="35.1324180">
    <ele>724.3</ele>
    <time>2018-09-22T05:37:34Z</time>
   </trkpt>
   <trkpt lat="31.7465430" lon="35.1323930">
    <ele>724.5</ele>
    <time>2018-09-22T05:37:35Z</time>
   </trkpt>
   <trkpt lat="31.7465460" lon="35.1323370">
    <ele>724.7</ele>
    <time>2018-09-22T05:37:37Z</time>
   </trkpt>
   <trkpt lat="31.7465780" lon="35.1323330">
    <ele>724.8</ele>
    <time>2018-09-22T05:37:38Z</time>
   </trkpt>
   <trkpt lat="31.7466060" lon="35.1323350">
    <ele>724.9</ele>
    <time>2018-09-22T05:37:39Z</time>
   </trkpt>
   <trkpt lat="31.7466470" lon="35.1323090">
    <ele>725.3</ele>
    <time>2018-09-22T05:37:42Z</time>
   </trkpt>
   <trkpt lat="31.7466790" lon="35.1322820">
    <ele>725.7</ele>
    <time>2018-09-22T05:37:45Z</time>
   </trkpt>
   <trkpt lat="31.7466950" lon="35.1322460">
    <ele>726.0</ele>
    <time>2018-09-22T05:37:46Z</time>
   </trkpt>
   <trkpt lat="31.7467240" lon="35.1322550">
    <ele>726.1</ele>
    <time>2018-09-22T05:37:47Z</time>
   </trkpt>
   <trkpt lat="31.7467640" lon="35.1322450">
    <ele>726.3</ele>
    <time>2018-09-22T05:37:49Z</time>
   </trkpt>
   <trkpt lat="31.7468090" lon="35.1322190">
    <ele>726.6</ele>
    <time>2018-09-22T05:37:51Z</time>
   </trkpt>
   <trkpt lat="31.7468410" lon="35.1321830">
    <ele>726.9</ele>
    <time>2018-09-22T05:37:53Z</time>
   </trkpt>
   <trkpt lat="31.7468690" lon="35.1321580">
    <ele>727.1</ele>
    <time>2018-09-22T05:37:55Z</time>
   </trkpt>
   <trkpt lat="31.7468980" lon="35.1321760">
    <ele>727.2</ele>
    <time>2018-09-22T05:37:57Z</time>
   </trkpt>
   <trkpt lat="31.7469250" lon="35.1321280">
    <ele>727.4</ele>
    <time>2018-09-22T05:37:59Z</time>
   </trkpt>
   <trkpt lat="31.7469580" lon="35.1321280">
    <ele>727.1</ele>
    <time>2018-09-22T05:38:00Z</time>
   </trkpt>
   <trkpt lat="31.7469930" lon="35.1321270">
    <ele>726.7</ele>
    <time>2018-09-22T05:38:02Z</time>
   </trkpt>
   <trkpt lat="31.7470270" lon="35.1321200">
    <ele>726.4</ele>
    <time>2018-09-22T05:38:04Z</time>
   </trkpt>
   <trkpt lat="31.7470610" lon="35.1321030">
    <ele>726.1</ele>
    <time>2018-09-22T05:38:05Z</time>
   </trkpt>
   <trkpt lat="31.7471010" lon="35.1320980">
    <ele>725.8</ele>
    <time>2018-09-22T05:38:06Z</time>
   </trkpt>
   <trkpt lat="31.7471460" lon="35.1321070">
    <ele>725.4</ele>
    <time>2018-09-22T05:38:08Z</time>
   </trkpt>
   <trkpt lat="31.7471700" lon="35.1320900">
    <ele>725.1</ele>
    <time>2018-09-22T05:38:10Z</time>
   </trkpt>
   <trkpt lat="31.7471940" lon="35.1320730">
    <ele>724.7</ele>
    <time>2018-09-22T05:38:11Z</time>
   </trkpt>
   <trkpt lat="31.7472350" lon="35.1320820">
    <ele>724.1</ele>
    <time>2018-09-22T05:38:15Z</time>
   </trkpt>
   <trkpt lat="31.7472630" lon="35.1320530">
    <ele>723.5</ele>
    <time>2018-09-22T05:38:20Z</time>
   </trkpt>
   <trkpt lat="31.7473220" lon="35.1320400">
    <ele>722.4</ele>
    <time>2018-09-22T05:38:22Z</time>
   </trkpt>
   <trkpt lat="31.7473490" lon="35.1320610">
    <ele>721.7</ele>
    <time>2018-09-22T05:38:23Z</time>
   </trkpt>
   <trkpt lat="31.7473740" lon="35.1320740">
    <ele>721.1</ele>
    <time>2018-09-22T05:38:25Z</time>
   </trkpt>
   <trkpt lat="31.7473940" lon="35.1321360">
    <ele>721.0</ele>
    <time>2018-09-22T05:38:27Z</time>
   </trkpt>
   <trkpt lat="31.7474210" lon="35.1321600">
    <ele>721.0</ele>
    <time>2018-09-22T05:38:28Z</time>
   </trkpt>
   <trkpt lat="31.7474560" lon="35.1321870">
    <ele>721.0</ele>
    <time>2018-09-22T05:38:30Z</time>
   </trkpt>
   <trkpt lat="31.7474930" lon="35.1321550">
    <ele>721.0</ele>
    <time>2018-09-22T05:38:32Z</time>
   </trkpt>
   <trkpt lat="31.7475510" lon="35.1321090">
    <ele>721.0</ele>
    <time>2018-09-22T05:38:34Z</time>
   </trkpt>
   <trkpt lat="31.7475730" lon="35.1320880">
    <ele>720.9</ele>
    <time>2018-09-22T05:38:36Z</time>
   </trkpt>
   <trkpt lat="31.7476100" lon="35.1320660">
    <ele>720.9</ele>
    <time>2018-09-22T05:38:37Z</time>
   </trkpt>
   <trkpt lat="31.7476300" lon="35.1320280">
    <ele>720.9</ele>
    <time>2018-09-22T05:38:39Z</time>
   </trkpt>
   <trkpt lat="31.7476600" lon="35.1320040">
    <ele>720.9</ele>
    <time>2018-09-22T05:38:40Z</time>
   </trkpt>
   <trkpt lat="31.7476860" lon="35.1319780">
    <ele>720.9</ele>
    <time>2018-09-22T05:38:41Z</time>
   </trkpt>
   <trkpt lat="31.7477130" lon="35.1319530">
    <ele>720.8</ele>
    <time>2018-09-22T05:38:42Z</time>
   </trkpt>
   <trkpt lat="31.7477380" lon="35.1319260">
    <ele>720.8</ele>
    <time>2018-09-22T05:38:43Z</time>
   </trkpt>
   <trkpt lat="31.7477650" lon="35.1319040">
    <ele>720.8</ele>
    <time>2018-09-22T05:38:44Z</time>
   </trkpt>
   <trkpt lat="31.7478010" lon="35.1318730">
    <ele>720.8</ele>
    <time>2018-09-22T05:38:45Z</time>
   </trkpt>
   <trkpt lat="31.7478270" lon="35.1318420">
    <ele>720.8</ele>
    <time>2018-09-22T05:38:46Z</time>
   </trkpt>
   <trkpt lat="31.7478650" lon="35.1318160">
    <ele>720.8</ele>
    <time>2018-09-22T05:38:47Z</time>
   </trkpt>
   <trkpt lat="31.7479160" lon="35.1317960">
    <ele>720.8</ele>
    <time>2018-09-22T05:38:48Z</time>
   </trkpt>
   <trkpt lat="31.7479450" lon="35.1317540">
    <ele>720.8</ele>
    <time>2018-09-22T05:38:49Z</time>
   </trkpt>
   <trkpt lat="31.7479730" lon="35.1317250">
    <ele>720.8</ele>
    <time>2018-09-22T05:38:50Z</time>
   </trkpt>
   <trkpt lat="31.7480130" lon="35.1316720">
    <ele>720.8</ele>
    <time>2018-09-22T05:38:51Z</time>
   </trkpt>
   <trkpt lat="31.7480630" lon="35.1316320">
    <ele>720.8</ele>
    <time>2018-09-22T05:38:52Z</time>
   </trkpt>
   <trkpt lat="31.7481290" lon="35.1315950">
    <ele>720.8</ele>
    <time>2018-09-22T05:38:54Z</time>
   </trkpt>
   <trkpt lat="31.7481920" lon="35.1315480">
    <ele>720.8</ele>
    <time>2018-09-22T05:38:55Z</time>
   </trkpt>
   <trkpt lat="31.7482270" lon="35.1315150">
    <ele>720.8</ele>
    <time>2018-09-22T05:38:56Z</time>
   </trkpt>
   <trkpt lat="31.7482810" lon="35.1314870">
    <ele>720.8</ele>
    <time>2018-09-22T05:38:57Z</time>
   </trkpt>
   <trkpt lat="31.7483120" lon="35.1314490">
    <ele>720.8</ele>
    <time>2018-09-22T05:38:58Z</time>
   </trkpt>
   <trkpt lat="31.7483600" lon="35.1314130">
    <ele>720.8</ele>
    <time>2018-09-22T05:38:59Z</time>
   </trkpt>
   <trkpt lat="31.7484040" lon="35.1314150">
    <ele>720.8</ele>
    <time>2018-09-22T05:39:00Z</time>
   </trkpt>
   <trkpt lat="31.7484590" lon="35.1313810">
    <ele>720.8</ele>
    <time>2018-09-22T05:39:01Z</time>
   </trkpt>
   <trkpt lat="31.7485160" lon="35.1313470">
    <ele>720.8</ele>
    <time>2018-09-22T05:39:02Z</time>
   </trkpt>
   <trkpt lat="31.7485730" lon="35.1313080">
    <ele>720.7</ele>
    <time>2018-09-22T05:39:03Z</time>
   </trkpt>
   <trkpt lat="31.7486380" lon="35.1312060">
    <ele>720.6</ele>
    <time>2018-09-22T05:39:04Z</time>
   </trkpt>
   <trkpt lat="31.7486950" lon="35.1311730">
    <ele>720.7</ele>
    <time>2018-09-22T05:39:05Z</time>
   </trkpt>
   <trkpt lat="31.7487330" lon="35.1311270">
    <ele>720.7</ele>
    <time>2018-09-22T05:39:06Z</time>
   </trkpt>
   <trkpt lat="31.7487730" lon="35.1310950">
    <ele>720.7</ele>
    <time>2018-09-22T05:39:07Z</time>
   </trkpt>
   <trkpt lat="31.7488070" lon="35.1310620">
    <ele>720.8</ele>
    <time>2018-09-22T05:39:08Z</time>
   </trkpt>
   <trkpt lat="31.7488490" lon="35.1310190">
    <ele>720.8</ele>
    <time>2018-09-22T05:39:10Z</time>
   </trkpt>
   <trkpt lat="31.7489020" lon="35.1309550">
    <ele>720.9</ele>
    <time>2018-09-22T05:39:11Z</time>
   </trkpt>
   <trkpt lat="31.7489240" lon="35.1309250">
    <ele>720.9</ele>
    <time>2018-09-22T05:39:12Z</time>
   </trkpt>
   <trkpt lat="31.7489620" lon="35.1309270">
    <ele>721.0</ele>
    <time>2018-09-22T05:39:13Z</time>
   </trkpt>
   <trkpt lat="31.7490240" lon="35.1308630">
    <ele>721.1</ele>
    <time>2018-09-22T05:39:14Z</time>
   </trkpt>
   <trkpt lat="31.7490550" lon="35.1308450">
    <ele>721.1</ele>
    <time>2018-09-22T05:39:15Z</time>
   </trkpt>
   <trkpt lat="31.7490910" lon="35.1308070">
    <ele>721.2</ele>
    <time>2018-09-22T05:39:16Z</time>
   </trkpt>
   <trkpt lat="31.7491310" lon="35.1307420">
    <ele>721.2</ele>
    <time>2018-09-22T05:39:17Z</time>
   </trkpt>
   <trkpt lat="31.7491780" lon="35.1307090">
    <ele>721.3</ele>
    <time>2018-09-22T05:39:18Z</time>
   </trkpt>
   <trkpt lat="31.7492340" lon="35.1306810">
    <ele>721.4</ele>
    <time>2018-09-22T05:39:19Z</time>
   </trkpt>
   <trkpt lat="31.7492930" lon="35.1306390">
    <ele>721.5</ele>
    <time>2018-09-22T05:39:20Z</time>
   </trkpt>
   <trkpt lat="31.7493160" lon="35.1305870">
    <ele>721.6</ele>
    <time>2018-09-22T05:39:21Z</time>
   </trkpt>
   <trkpt lat="31.7493780" lon="35.1305190">
    <ele>721.7</ele>
    <time>2018-09-22T05:39:22Z</time>
   </trkpt>
   <trkpt lat="31.7494330" lon="35.1304780">
    <ele>721.8</ele>
    <time>2018-09-22T05:39:23Z</time>
   </trkpt>
   <trkpt lat="31.7494770" lon="35.1304410">
    <ele>721.9</ele>
    <time>2018-09-22T05:39:24Z</time>
   </trkpt>
   <trkpt lat="31.7495280" lon="35.1303950">
    <ele>722.0</ele>
    <time>2018-09-22T05:39:25Z</time>
   </trkpt>
   <trkpt lat="31.7495700" lon="35.1303770">
    <ele>722.1</ele>
    <time>2018-09-22T05:39:26Z</time>
   </trkpt>
   <trkpt lat="31.7496040" lon="35.1303670">
    <ele>722.1</ele>
    <time>2018-09-22T05:39:27Z</time>
   </trkpt>
   <trkpt lat="31.7496510" lon="35.1303380">
    <ele>722.2</ele>
    <time>2018-09-22T05:39:28Z</time>
   </trkpt>
   <trkpt lat="31.7496690" lon="35.1302930">
    <ele>722.3</ele>
    <time>2018-09-22T05:39:29Z</time>
   </trkpt>
   <trkpt lat="31.7496890" lon="35.1302420">
    <ele>722.4</ele>
    <time>2018-09-22T05:39:30Z</time>
   </trkpt>
   <trkpt lat="31.7497150" lon="35.1301810">
    <ele>722.5</ele>
    <time>2018-09-22T05:39:32Z</time>
   </trkpt>
   <trkpt lat="31.7497430" lon="35.1301460">
    <ele>722.6</ele>
    <time>2018-09-22T05:39:33Z</time>
   </trkpt>
   <trkpt lat="31.7497590" lon="35.1301050">
    <ele>722.6</ele>
    <time>2018-09-22T05:39:34Z</time>
   </trkpt>
   <trkpt lat="31.7497820" lon="35.1300620">
    <ele>722.6</ele>
    <time>2018-09-22T05:39:36Z</time>
   </trkpt>
   <trkpt lat="31.7497530" lon="35.1299240">
    <ele>722.7</ele>
    <time>2018-09-22T05:39:37Z</time>
   </trkpt>
   <trkpt lat="31.7497140" lon="35.1298500">
    <ele>722.8</ele>
    <time>2018-09-22T05:39:38Z</time>
   </trkpt>
   <trkpt lat="31.7497420" lon="35.1298270">
    <ele>722.8</ele>
    <time>2018-09-22T05:39:39Z</time>
   </trkpt>
   <trkpt lat="31.7497830" lon="35.1298060">
    <ele>722.9</ele>
    <time>2018-09-22T05:39:40Z</time>
   </trkpt>
   <trkpt lat="31.7498210" lon="35.1297720">
    <ele>722.9</ele>
    <time>2018-09-22T05:39:41Z</time>
   </trkpt>
   <trkpt lat="31.7498640" lon="35.1296760">
    <ele>723.0</ele>
    <time>2018-09-22T05:39:42Z</time>
   </trkpt>
   <trkpt lat="31.7498500" lon="35.1297510">
    <ele>723.0</ele>
    <time>2018-09-22T05:39:43Z</time>
   </trkpt>
   <trkpt lat="31.7498780" lon="35.1297570">
    <ele>723.0</ele>
    <time>2018-09-22T05:39:44Z</time>
   </trkpt>
   <trkpt lat="31.7498830" lon="35.1297020">
    <ele>723.1</ele>
    <time>2018-09-22T05:39:45Z</time>
   </trkpt>
   <trkpt lat="31.7498590" lon="35.1296330">
    <ele>723.1</ele>
    <time>2018-09-22T05:39:46Z</time>
   </trkpt>
   <trkpt lat="31.7498990" lon="35.1296270">
    <ele>723.1</ele>
    <time>2018-09-22T05:39:47Z</time>
   </trkpt>
   <trkpt lat="31.7499380" lon="35.1289630">
    <ele>723.5</ele>
    <time>2018-09-22T05:40:07Z</time>
   </trkpt>
   <trkpt lat="31.7501530" lon="35.1287130">
    <ele>724.2</ele>
    <time>2018-09-22T05:40:09Z</time>
   </trkpt>
   <trkpt lat="31.7502020" lon="35.1286300">
    <ele>724.3</ele>
    <time>2018-09-22T05:40:10Z</time>
   </trkpt>
   <trkpt lat="31.7502300" lon="35.1285400">
    <ele>724.4</ele>
    <time>2018-09-22T05:40:11Z</time>
   </trkpt>
   <trkpt lat="31.7502840" lon="35.1284750">
    <ele>724.5</ele>
    <time>2018-09-22T05:40:12Z</time>
   </trkpt>
   <trkpt lat="31.7503120" lon="35.1284130">
    <ele>724.6</ele>
    <time>2018-09-22T05:40:14Z</time>
   </trkpt>
   <trkpt lat="31.7503450" lon="35.1283950">
    <ele>724.7</ele>
    <time>2018-09-22T05:40:15Z</time>
   </trkpt>
   <trkpt lat="31.7503230" lon="35.1283340">
    <ele>724.8</ele>
    <time>2018-09-22T05:40:16Z</time>
   </trkpt>
   <trkpt lat="31.7503620" lon="35.1282840">
    <ele>724.8</ele>
    <time>2018-09-22T05:40:17Z</time>
   </trkpt>
   <trkpt lat="31.7503890" lon="35.1282070">
    <ele>725.0</ele>
    <time>2018-09-22T05:40:18Z</time>
   </trkpt>
   <trkpt lat="31.7504300" lon="35.1281600">
    <ele>725.1</ele>
    <time>2018-09-22T05:40:19Z</time>
   </trkpt>
   <trkpt lat="31.7505040" lon="35.1281010">
    <ele>725.3</ele>
    <time>2018-09-22T05:40:20Z</time>
   </trkpt>
   <trkpt lat="31.7505140" lon="35.1280470">
    <ele>725.4</ele>
    <time>2018-09-22T05:40:21Z</time>
   </trkpt>
   <trkpt lat="31.7505180" lon="35.1279980">
    <ele>725.5</ele>
    <time>2018-09-22T05:40:22Z</time>
   </trkpt>
   <trkpt lat="31.7505420" lon="35.1279700">
    <ele>725.6</ele>
    <time>2018-09-22T05:40:23Z</time>
   </trkpt>
   <trkpt lat="31.7505220" lon="35.1279110">
    <ele>725.7</ele>
    <time>2018-09-22T05:40:24Z</time>
   </trkpt>
   <trkpt lat="31.7505710" lon="35.1278330">
    <ele>726.0</ele>
    <time>2018-09-22T05:40:25Z</time>
   </trkpt>
   <trkpt lat="31.7506240" lon="35.1277520">
    <ele>726.9</ele>
    <time>2018-09-22T05:40:27Z</time>
   </trkpt>
   <trkpt lat="31.7506420" lon="35.1277130">
    <ele>728.0</ele>
    <time>2018-09-22T05:40:28Z</time>
   </trkpt>
   <trkpt lat="31.7506560" lon="35.1277530">
    <ele>728.8</ele>
    <time>2018-09-22T05:40:29Z</time>
   </trkpt>
   <trkpt lat="31.7506770" lon="35.1277200">
    <ele>729.5</ele>
    <time>2018-09-22T05:40:30Z</time>
   </trkpt>
   <trkpt lat="31.7506970" lon="35.1276830">
    <ele>730.2</ele>
    <time>2018-09-22T05:40:31Z</time>
   </trkpt>
   <trkpt lat="31.7507190" lon="35.1276360">
    <ele>731.0</ele>
    <time>2018-09-22T05:40:33Z</time>
   </trkpt>
   <trkpt lat="31.7507060" lon="35.1275760">
    <ele>736.0</ele>
    <time>2018-09-22T05:40:35Z</time>
   </trkpt>
   <trkpt lat="31.7507080" lon="35.1275330">
    <ele>733.9</ele>
    <time>2018-09-22T05:40:36Z</time>
   </trkpt>
   <trkpt lat="31.7506820" lon="35.1274920">
    <ele>733.8</ele>
    <time>2018-09-22T05:40:38Z</time>
   </trkpt>
   <trkpt lat="31.7506700" lon="35.1274560">
    <ele>733.7</ele>
    <time>2018-09-22T05:40:39Z</time>
   </trkpt>
   <trkpt lat="31.7506650" lon="35.1273720">
    <ele>733.4</ele>
    <time>2018-09-22T05:40:40Z</time>
   </trkpt>
   <trkpt lat="31.7507100" lon="35.1273490">
    <ele>733.3</ele>
    <time>2018-09-22T05:40:41Z</time>
   </trkpt>
   <trkpt lat="31.7506990" lon="35.1273200">
    <ele>733.2</ele>
    <time>2018-09-22T05:40:42Z</time>
   </trkpt>
   <trkpt lat="31.7507190" lon="35.1272700">
    <ele>733.1</ele>
    <time>2018-09-22T05:40:43Z</time>
   </trkpt>
   <trkpt lat="31.7507530" lon="35.1272270">
    <ele>733.1</ele>
    <time>2018-09-22T05:40:46Z</time>
   </trkpt>
   <trkpt lat="31.7507940" lon="35.1272220">
    <ele>733.2</ele>
    <time>2018-09-22T05:40:48Z</time>
   </trkpt>
   <trkpt lat="31.7507680" lon="35.1272400">
    <ele>733.2</ele>
    <time>2018-09-22T05:40:49Z</time>
   </trkpt>
   <trkpt lat="31.7508150" lon="35.1272640">
    <ele>733.2</ele>
    <time>2018-09-22T05:40:50Z</time>
   </trkpt>
   <trkpt lat="31.7508250" lon="35.1273120">
    <ele>733.3</ele>
    <time>2018-09-22T05:40:51Z</time>
   </trkpt>
   <trkpt lat="31.7508160" lon="35.1273760">
    <ele>733.3</ele>
    <time>2018-09-22T05:40:52Z</time>
   </trkpt>
   <trkpt lat="31.7508450" lon="35.1273730">
    <ele>733.4</ele>
    <time>2018-09-22T05:40:53Z</time>
   </trkpt>
   <trkpt lat="31.7508250" lon="35.1273290">
    <ele>733.5</ele>
    <time>2018-09-22T05:40:57Z</time>
   </trkpt>
   <trkpt lat="31.7508340" lon="35.1272890">
    <ele>733.6</ele>
    <time>2018-09-22T05:40:58Z</time>
   </trkpt>
   <trkpt lat="31.7508390" lon="35.1273380">
    <ele>733.6</ele>
    <time>2018-09-22T05:40:59Z</time>
   </trkpt>
   <trkpt lat="31.7507960" lon="35.1273040">
    <ele>733.7</ele>
    <time>2018-09-22T05:41:01Z</time>
   </trkpt>
   <trkpt lat="31.7508470" lon="35.1273180">
    <ele>733.8</ele>
    <time>2018-09-22T05:41:04Z</time>
   </trkpt>
   <trkpt lat="31.7508450" lon="35.1273680">
    <ele>733.9</ele>
    <time>2018-09-22T05:41:05Z</time>
   </trkpt>
   <trkpt lat="31.7509240" lon="35.1274190">
    <ele>734.1</ele>
    <time>2018-09-22T05:41:07Z</time>
   </trkpt>
   <trkpt lat="31.7508990" lon="35.1273920">
    <ele>733.9</ele>
    <time>2018-09-22T05:41:08Z</time>
   </trkpt>
   <trkpt lat="31.7508700" lon="35.1273830">
    <ele>733.8</ele>
    <time>2018-09-22T05:41:10Z</time>
   </trkpt>
   <trkpt lat="31.7508410" lon="35.1273310">
    <ele>733.7</ele>
    <time>2018-09-22T05:41:15Z</time>
   </trkpt>
   <trkpt lat="31.7508130" lon="35.1273210">
    <ele>733.5</ele>
    <time>2018-09-22T05:41:16Z</time>
   </trkpt>
   <trkpt lat="31.7507660" lon="35.1273410">
    <ele>733.3</ele>
    <time>2018-09-22T05:41:18Z</time>
   </trkpt>
   <trkpt lat="31.7507470" lon="35.1272560">
    <ele>733.2</ele>
    <time>2018-09-22T05:41:19Z</time>
   </trkpt>
   <trkpt lat="31.7507560" lon="35.1273160">
    <ele>733.3</ele>
    <time>2018-09-22T05:41:20Z</time>
   </trkpt>
   <trkpt lat="31.7507710" lon="35.1273520">
    <ele>733.4</ele>
    <time>2018-09-22T05:41:21Z</time>
   </trkpt>
   <trkpt lat="31.7508130" lon="35.1273740">
    <ele>733.6</ele>
    <time>2018-09-22T05:41:22Z</time>
   </trkpt>
   <trkpt lat="31.7508140" lon="35.1274070">
    <ele>733.8</ele>
    <time>2018-09-22T05:41:25Z</time>
   </trkpt>
   <trkpt lat="31.7508150" lon="35.1274400">
    <ele>733.9</ele>
    <time>2018-09-22T05:41:29Z</time>
   </trkpt>
   <trkpt lat="31.7507670" lon="35.1271520">
    <ele>733.0</ele>
    <time>2018-09-22T05:42:34Z</time>
   </trkpt>
   <trkpt lat="31.7507270" lon="35.1271530">
    <ele>732.9</ele>
    <time>2018-09-22T05:42:35Z</time>
   </trkpt>
   <trkpt lat="31.7506630" lon="35.1268230">
    <ele>731.4</ele>
    <time>2018-09-22T05:42:37Z</time>
   </trkpt>
   <trkpt lat="31.7506340" lon="35.1267730">
    <ele>731.3</ele>
    <time>2018-09-22T05:42:38Z</time>
   </trkpt>
   <trkpt lat="31.7506310" lon="35.1267070">
    <ele>731.2</ele>
    <time>2018-09-22T05:42:39Z</time>
   </trkpt>
   <trkpt lat="31.7505790" lon="35.1266100">
    <ele>731.0</ele>
    <time>2018-09-22T05:42:40Z</time>
   </trkpt>
   <trkpt lat="31.7505450" lon="35.1265790">
    <ele>730.9</ele>
    <time>2018-09-22T05:42:41Z</time>
   </trkpt>
   <trkpt lat="31.7505030" lon="35.1265300">
    <ele>730.9</ele>
    <time>2018-09-22T05:42:42Z</time>
   </trkpt>
   <trkpt lat="31.7504720" lon="35.1264840">
    <ele>730.8</ele>
    <time>2018-09-22T05:42:43Z</time>
   </trkpt>
   <trkpt lat="31.7504310" lon="35.1264270">
    <ele>730.8</ele>
    <time>2018-09-22T05:42:44Z</time>
   </trkpt>
   <trkpt lat="31.7503860" lon="35.1263930">
    <ele>730.8</ele>
    <time>2018-09-22T05:42:45Z</time>
   </trkpt>
   <trkpt lat="31.7503590" lon="35.1263530">
    <ele>730.8</ele>
    <time>2018-09-22T05:42:46Z</time>
   </trkpt>
   <trkpt lat="31.7503210" lon="35.1263080">
    <ele>730.8</ele>
    <time>2018-09-22T05:42:47Z</time>
   </trkpt>
   <trkpt lat="31.7502830" lon="35.1262550">
    <ele>730.7</ele>
    <time>2018-09-22T05:42:48Z</time>
   </trkpt>
   <trkpt lat="31.7502660" lon="35.1262150">
    <ele>730.7</ele>
    <time>2018-09-22T05:42:49Z</time>
   </trkpt>
   <trkpt lat="31.7502440" lon="35.1261860">
    <ele>730.7</ele>
    <time>2018-09-22T05:42:50Z</time>
   </trkpt>
   <trkpt lat="31.7502250" lon="35.1261450">
    <ele>730.7</ele>
    <time>2018-09-22T05:42:51Z</time>
   </trkpt>
   <trkpt lat="31.7501900" lon="35.1261210">
    <ele>730.7</ele>
    <time>2018-09-22T05:42:52Z</time>
   </trkpt>
   <trkpt lat="31.7501660" lon="35.1260800">
    <ele>730.6</ele>
    <time>2018-09-22T05:42:53Z</time>
   </trkpt>
   <trkpt lat="31.7501350" lon="35.1260330">
    <ele>730.6</ele>
    <time>2018-09-22T05:42:54Z</time>
   </trkpt>
   <trkpt lat="31.7501240" lon="35.1259760">
    <ele>730.6</ele>
    <time>2018-09-22T05:42:55Z</time>
   </trkpt>
   <trkpt lat="31.7500890" lon="35.1259530">
    <ele>730.6</ele>
    <time>2018-09-22T05:42:56Z</time>
   </trkpt>
   <trkpt lat="31.7500770" lon="35.1258780">
    <ele>730.5</ele>
    <time>2018-09-22T05:42:58Z</time>
   </trkpt>
   <trkpt lat="31.7500490" lon="35.1258250">
    <ele>730.5</ele>
    <time>2018-09-22T05:42:59Z</time>
   </trkpt>
   <trkpt lat="31.7500300" lon="35.1257750">
    <ele>730.4</ele>
    <time>2018-09-22T05:43:00Z</time>
   </trkpt>
   <trkpt lat="31.7500070" lon="35.1257030">
    <ele>730.4</ele>
    <time>2018-09-22T05:43:01Z</time>
   </trkpt>
   <trkpt lat="31.7499890" lon="35.1256580">
    <ele>730.3</ele>
    <time>2018-09-22T05:43:02Z</time>
   </trkpt>
   <trkpt lat="31.7499630" lon="35.1255970">
    <ele>730.3</ele>
    <time>2018-09-22T05:43:03Z</time>
   </trkpt>
   <trkpt lat="31.7499440" lon="35.1255500">
    <ele>730.2</ele>
    <time>2018-09-22T05:43:04Z</time>
   </trkpt>
   <trkpt lat="31.7499180" lon="35.1254960">
    <ele>730.1</ele>
    <time>2018-09-22T05:43:05Z</time>
   </trkpt>
   <trkpt lat="31.7499180" lon="35.1254540">
    <ele>730.0</ele>
    <time>2018-09-22T05:43:06Z</time>
   </trkpt>
   <trkpt lat="31.7499110" lon="35.1253990">
    <ele>729.8</ele>
    <time>2018-09-22T05:43:07Z</time>
   </trkpt>
   <trkpt lat="31.7498940" lon="35.1253380">
    <ele>729.4</ele>
    <time>2018-09-22T05:43:08Z</time>
   </trkpt>
   <trkpt lat="31.7498800" lon="35.1252900">
    <ele>729.1</ele>
    <time>2018-09-22T05:43:09Z</time>
   </trkpt>
   <trkpt lat="31.7498520" lon="35.1252550">
    <ele>728.8</ele>
    <time>2018-09-22T05:43:10Z</time>
   </trkpt>
   <trkpt lat="31.7498530" lon="35.1252170">
    <ele>728.7</ele>
    <time>2018-09-22T05:43:11Z</time>
   </trkpt>
   <trkpt lat="31.7498280" lon="35.1251550">
    <ele>728.6</ele>
    <time>2018-09-22T05:43:12Z</time>
   </trkpt>
   <trkpt lat="31.7498130" lon="35.1251140">
    <ele>728.5</ele>
    <time>2018-09-22T05:43:13Z</time>
   </trkpt>
   <trkpt lat="31.7497740" lon="35.1250600">
    <ele>728.5</ele>
    <time>2018-09-22T05:43:14Z</time>
   </trkpt>
   <trkpt lat="31.7497420" lon="35.1250230">
    <ele>728.4</ele>
    <time>2018-09-22T05:43:15Z</time>
   </trkpt>
   <trkpt lat="31.7497230" lon="35.1249520">
    <ele>728.3</ele>
    <time>2018-09-22T05:43:16Z</time>
   </trkpt>
   <trkpt lat="31.7496960" lon="35.1249110">
    <ele>728.3</ele>
    <time>2018-09-22T05:43:17Z</time>
   </trkpt>
   <trkpt lat="31.7496580" lon="35.1248830">
    <ele>728.3</ele>
    <time>2018-09-22T05:43:18Z</time>
   </trkpt>
   <trkpt lat="31.7495950" lon="35.1248210">
    <ele>728.2</ele>
    <time>2018-09-22T05:43:20Z</time>
   </trkpt>
   <trkpt lat="31.7495540" lon="35.1247930">
    <ele>728.2</ele>
    <time>2018-09-22T05:43:21Z</time>
   </trkpt>
   <trkpt lat="31.7495550" lon="35.1247380">
    <ele>728.2</ele>
    <time>2018-09-22T05:43:22Z</time>
   </trkpt>
   <trkpt lat="31.7495280" lon="35.1247160">
    <ele>728.2</ele>
    <time>2018-09-22T05:43:23Z</time>
   </trkpt>
   <trkpt lat="31.7494780" lon="35.1246380">
    <ele>728.1</ele>
    <time>2018-09-22T05:43:24Z</time>
   </trkpt>
   <trkpt lat="31.7494410" lon="35.1245720">
    <ele>728.1</ele>
    <time>2018-09-22T05:43:26Z</time>
   </trkpt>
   <trkpt lat="31.7494350" lon="35.1245170">
    <ele>728.1</ele>
    <time>2018-09-22T05:43:27Z</time>
   </trkpt>
   <trkpt lat="31.7494070" lon="35.1244600">
    <ele>728.0</ele>
    <time>2018-09-22T05:43:28Z</time>
   </trkpt>
   <trkpt lat="31.7493760" lon="35.1244200">
    <ele>728.0</ele>
    <time>2018-09-22T05:43:29Z</time>
   </trkpt>
   <trkpt lat="31.7493610" lon="35.1243780">
    <ele>728.0</ele>
    <time>2018-09-22T05:43:30Z</time>
   </trkpt>
   <trkpt lat="31.7493330" lon="35.1243270">
    <ele>727.9</ele>
    <time>2018-09-22T05:43:31Z</time>
   </trkpt>
   <trkpt lat="31.7493120" lon="35.1242900">
    <ele>727.9</ele>
    <time>2018-09-22T05:43:32Z</time>
   </trkpt>
   <trkpt lat="31.7492820" lon="35.1242540">
    <ele>727.8</ele>
    <time>2018-09-22T05:43:33Z</time>
   </trkpt>
   <trkpt lat="31.7492620" lon="35.1241810">
    <ele>727.7</ele>
    <time>2018-09-22T05:43:34Z</time>
   </trkpt>
   <trkpt lat="31.7492310" lon="35.1241290">
    <ele>727.7</ele>
    <time>2018-09-22T05:43:35Z</time>
   </trkpt>
   <trkpt lat="31.7492070" lon="35.1240860">
    <ele>727.6</ele>
    <time>2018-09-22T05:43:36Z</time>
   </trkpt>
   <trkpt lat="31.7491930" lon="35.1240320">
    <ele>727.6</ele>
    <time>2018-09-22T05:43:37Z</time>
   </trkpt>
   <trkpt lat="31.7491640" lon="35.1239750">
    <ele>727.3</ele>
    <time>2018-09-22T05:43:38Z</time>
   </trkpt>
   <trkpt lat="31.7491480" lon="35.1239160">
    <ele>727.0</ele>
    <time>2018-09-22T05:43:39Z</time>
   </trkpt>
   <trkpt lat="31.7491130" lon="35.1238620">
    <ele>726.5</ele>
    <time>2018-09-22T05:43:40Z</time>
   </trkpt>
   <trkpt lat="31.7490900" lon="35.1238040">
    <ele>726.1</ele>
    <time>2018-09-22T05:43:41Z</time>
   </trkpt>
   <trkpt lat="31.7490800" lon="35.1237330">
    <ele>725.7</ele>
    <time>2018-09-22T05:43:42Z</time>
   </trkpt>
   <trkpt lat="31.7490680" lon="35.1236820">
    <ele>725.6</ele>
    <time>2018-09-22T05:43:43Z</time>
   </trkpt>
   <trkpt lat="31.7490520" lon="35.1236350">
    <ele>725.4</ele>
    <time>2018-09-22T05:43:44Z</time>
   </trkpt>
   <trkpt lat="31.7490410" lon="35.1235850">
    <ele>725.3</ele>
    <time>2018-09-22T05:43:45Z</time>
   </trkpt>
   <trkpt lat="31.7490140" lon="35.1235270">
    <ele>725.1</ele>
    <time>2018-09-22T05:43:46Z</time>
   </trkpt>
   <trkpt lat="31.7489910" lon="35.1234750">
    <ele>724.9</ele>
    <time>2018-09-22T05:43:47Z</time>
   </trkpt>
   <trkpt lat="31.7489630" lon="35.1234180">
    <ele>724.4</ele>
    <time>2018-09-22T05:43:48Z</time>
   </trkpt>
   <trkpt lat="31.7489350" lon="35.1233750">
    <ele>724.0</ele>
    <time>2018-09-22T05:43:49Z</time>
   </trkpt>
   <trkpt lat="31.7489210" lon="35.1233190">
    <ele>723.8</ele>
    <time>2018-09-22T05:43:50Z</time>
   </trkpt>
   <trkpt lat="31.7489120" lon="35.1232730">
    <ele>723.6</ele>
    <time>2018-09-22T05:43:51Z</time>
   </trkpt>
   <trkpt lat="31.7489070" lon="35.1232130">
    <ele>723.5</ele>
    <time>2018-09-22T05:43:52Z</time>
   </trkpt>
   <trkpt lat="31.7488850" lon="35.1231530">
    <ele>723.4</ele>
    <time>2018-09-22T05:43:53Z</time>
   </trkpt>
   <trkpt lat="31.7488780" lon="35.1231130">
    <ele>723.3</ele>
    <time>2018-09-22T05:43:54Z</time>
   </trkpt>
   <trkpt lat="31.7488790" lon="35.1230760">
    <ele>723.3</ele>
    <time>2018-09-22T05:43:55Z</time>
   </trkpt>
   <trkpt lat="31.7488700" lon="35.1230420">
    <ele>723.2</ele>
    <time>2018-09-22T05:43:56Z</time>
   </trkpt>
   <trkpt lat="31.7488590" lon="35.1229940">
    <ele>723.2</ele>
    <time>2018-09-22T05:43:58Z</time>
   </trkpt>
   <trkpt lat="31.7488580" lon="35.1229550">
    <ele>723.1</ele>
    <time>2018-09-22T05:43:59Z</time>
   </trkpt>
   <trkpt lat="31.7488650" lon="35.1229240">
    <ele>723.1</ele>
    <time>2018-09-22T05:44:00Z</time>
   </trkpt>
   <trkpt lat="31.7488610" lon="35.1228810">
    <ele>723.0</ele>
    <time>2018-09-22T05:44:01Z</time>
   </trkpt>
   <trkpt lat="31.7488500" lon="35.1228390">
    <ele>723.0</ele>
    <time>2018-09-22T05:44:02Z</time>
   </trkpt>
   <trkpt lat="31.7488370" lon="35.1228090">
    <ele>723.0</ele>
    <time>2018-09-22T05:44:05Z</time>
   </trkpt>
   <trkpt lat="31.7488200" lon="35.1227710">
    <ele>722.9</ele>
    <time>2018-09-22T05:44:06Z</time>
   </trkpt>
   <trkpt lat="31.7488000" lon="35.1227470">
    <ele>722.4</ele>
    <time>2018-09-22T05:44:08Z</time>
   </trkpt>
   <trkpt lat="31.7488120" lon="35.1226680">
    <ele>721.3</ele>
    <time>2018-09-22T05:44:10Z</time>
   </trkpt>
   <trkpt lat="31.7487970" lon="35.1226210">
    <ele>721.0</ele>
    <time>2018-09-22T05:44:11Z</time>
   </trkpt>
   <trkpt lat="31.7487500" lon="35.1225750">
    <ele>720.8</ele>
    <time>2018-09-22T05:44:14Z</time>
   </trkpt>
   <trkpt lat="31.7487370" lon="35.1225440">
    <ele>721.1</ele>
    <time>2018-09-22T05:44:15Z</time>
   </trkpt>
   <trkpt lat="31.7487030" lon="35.1224750">
    <ele>721.6</ele>
    <time>2018-09-22T05:44:16Z</time>
   </trkpt>
   <trkpt lat="31.7486170" lon="35.1224080">
    <ele>721.9</ele>
    <time>2018-09-22T05:44:17Z</time>
   </trkpt>
   <trkpt lat="31.7485990" lon="35.1223640">
    <ele>722.3</ele>
    <time>2018-09-22T05:44:18Z</time>
   </trkpt>
   <trkpt lat="31.7485520" lon="35.1223220">
    <ele>721.9</ele>
    <time>2018-09-22T05:44:19Z</time>
   </trkpt>
   <trkpt lat="31.7485100" lon="35.1223120">
    <ele>721.1</ele>
    <time>2018-09-22T05:44:20Z</time>
   </trkpt>
   <trkpt lat="31.7484490" lon="35.1223010">
    <ele>720.5</ele>
    <time>2018-09-22T05:44:21Z</time>
   </trkpt>
   <trkpt lat="31.7483890" lon="35.1222910">
    <ele>720.0</ele>
    <time>2018-09-22T05:44:22Z</time>
   </trkpt>
   <trkpt lat="31.7483430" lon="35.1222770">
    <ele>719.5</ele>
    <time>2018-09-22T05:44:23Z</time>
   </trkpt>
   <trkpt lat="31.7482820" lon="35.1222630">
    <ele>718.7</ele>
    <time>2018-09-22T05:44:24Z</time>
   </trkpt>
   <trkpt lat="31.7482350" lon="35.1222420">
    <ele>717.9</ele>
    <time>2018-09-22T05:44:25Z</time>
   </trkpt>
   <trkpt lat="31.7481860" lon="35.1222260">
    <ele>717.4</ele>
    <time>2018-09-22T05:44:26Z</time>
   </trkpt>
   <trkpt lat="31.7481810" lon="35.1221900">
    <ele>717.1</ele>
    <time>2018-09-22T05:44:28Z</time>
   </trkpt>
   <trkpt lat="31.7481730" lon="35.1222440">
    <ele>716.6</ele>
    <time>2018-09-22T05:44:33Z</time>
   </trkpt>
   <trkpt lat="31.7481230" lon="35.1222590">
    <ele>716.0</ele>
    <time>2018-09-22T05:44:38Z</time>
   </trkpt>
   <trkpt lat="31.7480910" lon="35.1222400">
    <ele>715.1</ele>
    <time>2018-09-22T05:44:41Z</time>
   </trkpt>
   <trkpt lat="31.7480650" lon="35.1222320">
    <ele>714.3</ele>
    <time>2018-09-22T05:44:42Z</time>
   </trkpt>
   <trkpt lat="31.7480250" lon="35.1222530">
    <ele>713.1</ele>
    <time>2018-09-22T05:44:47Z</time>
   </trkpt>
   <trkpt lat="31.7479760" lon="35.1222410">
    <ele>711.8</ele>
    <time>2018-09-22T05:44:49Z</time>
   </trkpt>
   <trkpt lat="31.7479490" lon="35.1222080">
    <ele>711.2</ele>
    <time>2018-09-22T05:44:50Z</time>
   </trkpt>
   <trkpt lat="31.7478920" lon="35.1221800">
    <ele>711.5</ele>
    <time>2018-09-22T05:44:52Z</time>
   </trkpt>
   <trkpt lat="31.7478620" lon="35.1221430">
    <ele>711.1</ele>
    <time>2018-09-22T05:44:53Z</time>
   </trkpt>
   <trkpt lat="31.7477910" lon="35.1221150">
    <ele>711.0</ele>
    <time>2018-09-22T05:44:55Z</time>
   </trkpt>
   <trkpt lat="31.7477400" lon="35.1221180">
    <ele>710.2</ele>
    <time>2018-09-22T05:44:56Z</time>
   </trkpt>
   <trkpt lat="31.7476850" lon="35.1220910">
    <ele>709.6</ele>
    <time>2018-09-22T05:44:57Z</time>
   </trkpt>
   <trkpt lat="31.7476800" lon="35.1220540">
    <ele>709.4</ele>
    <time>2018-09-22T05:44:59Z</time>
   </trkpt>
   <trkpt lat="31.7476370" lon="35.1219900">
    <ele>708.2</ele>
    <time>2018-09-22T05:45:01Z</time>
   </trkpt>
   <trkpt lat="31.7476270" lon="35.1219370">
    <ele>707.1</ele>
    <time>2018-09-22T05:45:02Z</time>
   </trkpt>
   <trkpt lat="31.7476010" lon="35.1218990">
    <ele>706.1</ele>
    <time>2018-09-22T05:45:03Z</time>
   </trkpt>
   <trkpt lat="31.7476150" lon="35.1218390">
    <ele>705.1</ele>
    <time>2018-09-22T05:45:04Z</time>
   </trkpt>
   <trkpt lat="31.7476400" lon="35.1217810">
    <ele>703.9</ele>
    <time>2018-09-22T05:45:05Z</time>
   </trkpt>
   <trkpt lat="31.7476200" lon="35.1217310">
    <ele>702.6</ele>
    <time>2018-09-22T05:45:07Z</time>
   </trkpt>
   <trkpt lat="31.7475980" lon="35.1217010">
    <ele>702.0</ele>
    <time>2018-09-22T05:45:08Z</time>
   </trkpt>
   <trkpt lat="31.7475810" lon="35.1216580">
    <ele>701.4</ele>
    <time>2018-09-22T05:45:10Z</time>
   </trkpt>
   <trkpt lat="31.7475290" lon="35.1216350">
    <ele>700.4</ele>
    <time>2018-09-22T05:45:11Z</time>
   </trkpt>
   <trkpt lat="31.7475110" lon="35.1216060">
    <ele>699.9</ele>
    <time>2018-09-22T05:45:12Z</time>
   </trkpt>
   <trkpt lat="31.7474990" lon="35.1215700">
    <ele>699.5</ele>
    <time>2018-09-22T05:45:13Z</time>
   </trkpt>
   <trkpt lat="31.7474900" lon="35.1215350">
    <ele>699.1</ele>
    <time>2018-09-22T05:45:14Z</time>
   </trkpt>
   <trkpt lat="31.7474580" lon="35.1215280">
    <ele>698.8</ele>
    <time>2018-09-22T05:45:15Z</time>
   </trkpt>
   <trkpt lat="31.7474450" lon="35.1214690">
    <ele>698.4</ele>
    <time>2018-09-22T05:45:16Z</time>
   </trkpt>
   <trkpt lat="31.7474290" lon="35.1214380">
    <ele>698.2</ele>
    <time>2018-09-22T05:45:17Z</time>
   </trkpt>
   <trkpt lat="31.7474380" lon="35.1213890">
    <ele>698.8</ele>
    <time>2018-09-22T05:45:18Z</time>
   </trkpt>
   <trkpt lat="31.7474100" lon="35.1213590">
    <ele>699.4</ele>
    <time>2018-09-22T05:45:19Z</time>
   </trkpt>
   <trkpt lat="31.7474160" lon="35.1213130">
    <ele>699.8</ele>
    <time>2018-09-22T05:45:20Z</time>
   </trkpt>
   <trkpt lat="31.7474050" lon="35.1212440">
    <ele>700.6</ele>
    <time>2018-09-22T05:45:21Z</time>
   </trkpt>
   <trkpt lat="31.7474020" lon="35.1212040">
    <ele>701.1</ele>
    <time>2018-09-22T05:45:22Z</time>
   </trkpt>
   <trkpt lat="31.7474090" lon="35.1211670">
    <ele>701.3</ele>
    <time>2018-09-22T05:45:23Z</time>
   </trkpt>
   <trkpt lat="31.7473830" lon="35.1211500">
    <ele>701.4</ele>
    <time>2018-09-22T05:45:24Z</time>
   </trkpt>
   <trkpt lat="31.7473370" lon="35.1210640">
    <ele>702.1</ele>
    <time>2018-09-22T05:45:25Z</time>
   </trkpt>
   <trkpt lat="31.7473100" lon="35.1210220">
    <ele>702.4</ele>
    <time>2018-09-22T05:45:26Z</time>
   </trkpt>
   <trkpt lat="31.7472920" lon="35.1209870">
    <ele>702.7</ele>
    <time>2018-09-22T05:45:27Z</time>
   </trkpt>
   <trkpt lat="31.7472620" lon="35.1209500">
    <ele>703.7</ele>
    <time>2018-09-22T05:45:28Z</time>
   </trkpt>
   <trkpt lat="31.7472460" lon="35.1209100">
    <ele>704.4</ele>
    <time>2018-09-22T05:45:29Z</time>
   </trkpt>
   <trkpt lat="31.7472370" lon="35.1208590">
    <ele>704.2</ele>
    <time>2018-09-22T05:45:30Z</time>
   </trkpt>
   <trkpt lat="31.7472240" lon="35.1208020">
    <ele>704.2</ele>
    <time>2018-09-22T05:45:31Z</time>
   </trkpt>
   <trkpt lat="31.7471870" lon="35.1207470">
    <ele>704.5</ele>
    <time>2018-09-22T05:45:33Z</time>
   </trkpt>
   <trkpt lat="31.7471910" lon="35.1206950">
    <ele>705.4</ele>
    <time>2018-09-22T05:45:34Z</time>
   </trkpt>
   <trkpt lat="31.7471670" lon="35.1206440">
    <ele>706.1</ele>
    <time>2018-09-22T05:45:36Z</time>
   </trkpt>
   <trkpt lat="31.7471650" lon="35.1206010">
    <ele>706.4</ele>
    <time>2018-09-22T05:45:38Z</time>
   </trkpt>
   <trkpt lat="31.7471720" lon="35.1205630">
    <ele>706.6</ele>
    <time>2018-09-22T05:45:40Z</time>
   </trkpt>
   <trkpt lat="31.7471520" lon="35.1205150">
    <ele>707.1</ele>
    <time>2018-09-22T05:45:42Z</time>
   </trkpt>
   <trkpt lat="31.7471380" lon="35.1204600">
    <ele>707.6</ele>
    <time>2018-09-22T05:45:44Z</time>
   </trkpt>
   <trkpt lat="31.7471440" lon="35.1203980">
    <ele>708.4</ele>
    <time>2018-09-22T05:45:45Z</time>
   </trkpt>
   <trkpt lat="31.7471320" lon="35.1203620">
    <ele>708.8</ele>
    <time>2018-09-22T05:45:47Z</time>
   </trkpt>
   <trkpt lat="31.7471280" lon="35.1203120">
    <ele>709.0</ele>
    <time>2018-09-22T05:45:49Z</time>
   </trkpt>
   <trkpt lat="31.7470950" lon="35.1202870">
    <ele>709.2</ele>
    <time>2018-09-22T05:45:52Z</time>
   </trkpt>
   <trkpt lat="31.7470830" lon="35.1202440">
    <ele>709.3</ele>
    <time>2018-09-22T05:45:53Z</time>
   </trkpt>
   <trkpt lat="31.7470700" lon="35.1202090">
    <ele>709.5</ele>
    <time>2018-09-22T05:45:54Z</time>
   </trkpt>
   <trkpt lat="31.7470710" lon="35.1201690">
    <ele>709.6</ele>
    <time>2018-09-22T05:45:55Z</time>
   </trkpt>
   <trkpt lat="31.7470530" lon="35.1201360">
    <ele>709.7</ele>
    <time>2018-09-22T05:45:56Z</time>
   </trkpt>
   <trkpt lat="31.7470370" lon="35.1200940">
    <ele>709.8</ele>
    <time>2018-09-22T05:45:57Z</time>
   </trkpt>
   <trkpt lat="31.7470130" lon="35.1200590">
    <ele>710.2</ele>
    <time>2018-09-22T05:45:58Z</time>
   </trkpt>
   <trkpt lat="31.7470040" lon="35.1200010">
    <ele>710.8</ele>
    <time>2018-09-22T05:46:01Z</time>
   </trkpt>
   <trkpt lat="31.7469920" lon="35.1199620">
    <ele>710.8</ele>
    <time>2018-09-22T05:46:02Z</time>
   </trkpt>
   <trkpt lat="31.7469630" lon="35.1199500">
    <ele>710.7</ele>
    <time>2018-09-22T05:46:03Z</time>
   </trkpt>
   <trkpt lat="31.7469460" lon="35.1199040">
    <ele>710.6</ele>
    <time>2018-09-22T05:46:05Z</time>
   </trkpt>
   <trkpt lat="31.7469480" lon="35.1198690">
    <ele>710.5</ele>
    <time>2018-09-22T05:46:06Z</time>
   </trkpt>
   <trkpt lat="31.7469290" lon="35.1198380">
    <ele>710.5</ele>
    <time>2018-09-22T05:46:08Z</time>
   </trkpt>
   <trkpt lat="31.7469290" lon="35.1197960">
    <ele>710.8</ele>
    <time>2018-09-22T05:46:10Z</time>
   </trkpt>
   <trkpt lat="31.7469070" lon="35.1197460">
    <ele>711.4</ele>
    <time>2018-09-22T05:46:12Z</time>
   </trkpt>
   <trkpt lat="31.7468890" lon="35.1197220">
    <ele>711.2</ele>
    <time>2018-09-22T05:46:13Z</time>
   </trkpt>
   <trkpt lat="31.7468630" lon="35.1197010">
    <ele>710.7</ele>
    <time>2018-09-22T05:46:15Z</time>
   </trkpt>
   <trkpt lat="31.7468440" lon="35.1196660">
    <ele>710.1</ele>
    <time>2018-09-22T05:46:16Z</time>
   </trkpt>
   <trkpt lat="31.7468440" lon="35.1196170">
    <ele>710.0</ele>
    <time>2018-09-22T05:46:17Z</time>
   </trkpt>
   <trkpt lat="31.7468350" lon="35.1195860">
    <ele>709.9</ele>
    <time>2018-09-22T05:46:18Z</time>
   </trkpt>
   <trkpt lat="31.7468370" lon="35.1195450">
    <ele>710.0</ele>
    <time>2018-09-22T05:46:19Z</time>
   </trkpt>
   <trkpt lat="31.7468110" lon="35.1195100">
    <ele>710.3</ele>
    <time>2018-09-22T05:46:20Z</time>
   </trkpt>
   <trkpt lat="31.7468170" lon="35.1194720">
    <ele>710.6</ele>
    <time>2018-09-22T05:46:21Z</time>
   </trkpt>
   <trkpt lat="31.7467910" lon="35.1194470">
    <ele>710.9</ele>
    <time>2018-09-22T05:46:24Z</time>
   </trkpt>
   <trkpt lat="31.7467610" lon="35.1194370">
    <ele>711.3</ele>
    <time>2018-09-22T05:46:26Z</time>
   </trkpt>
   <trkpt lat="31.7467410" lon="35.1194110">
    <ele>711.5</ele>
    <time>2018-09-22T05:46:27Z</time>
   </trkpt>
   <trkpt lat="31.7467150" lon="35.1193740">
    <ele>711.5</ele>
    <time>2018-09-22T05:46:28Z</time>
   </trkpt>
   <trkpt lat="31.7467030" lon="35.1193430">
    <ele>711.6</ele>
    <time>2018-09-22T05:46:29Z</time>
   </trkpt>
   <trkpt lat="31.7466780" lon="35.1193100">
    <ele>711.8</ele>
    <time>2018-09-22T05:46:30Z</time>
   </trkpt>
   <trkpt lat="31.7466620" lon="35.1192480">
    <ele>711.7</ele>
    <time>2018-09-22T05:46:32Z</time>
   </trkpt>
   <trkpt lat="31.7466750" lon="35.1191970">
    <ele>711.9</ele>
    <time>2018-09-22T05:46:33Z</time>
   </trkpt>
   <trkpt lat="31.7466750" lon="35.1191620">
    <ele>712.8</ele>
    <time>2018-09-22T05:46:34Z</time>
   </trkpt>
   <trkpt lat="31.7466630" lon="35.1191260">
    <ele>713.7</ele>
    <time>2018-09-22T05:46:35Z</time>
   </trkpt>
   <trkpt lat="31.7466160" lon="35.1190390">
    <ele>715.0</ele>
    <time>2018-09-22T05:46:37Z</time>
   </trkpt>
   <trkpt lat="31.7466210" lon="35.1190050">
    <ele>715.3</ele>
    <time>2018-09-22T05:46:39Z</time>
   </trkpt>
   <trkpt lat="31.7466190" lon="35.1189510">
    <ele>716.1</ele>
    <time>2018-09-22T05:46:41Z</time>
   </trkpt>
   <trkpt lat="31.7466320" lon="35.1189200">
    <ele>716.9</ele>
    <time>2018-09-22T05:46:42Z</time>
   </trkpt>
   <trkpt lat="31.7466120" lon="35.1188840">
    <ele>717.4</ele>
    <time>2018-09-22T05:46:43Z</time>
   </trkpt>
   <trkpt lat="31.7466100" lon="35.1188360">
    <ele>716.5</ele>
    <time>2018-09-22T05:46:44Z</time>
   </trkpt>
   <trkpt lat="31.7465960" lon="35.1187830">
    <ele>716.0</ele>
    <time>2018-09-22T05:46:46Z</time>
   </trkpt>
   <trkpt lat="31.7465630" lon="35.1187610">
    <ele>716.3</ele>
    <time>2018-09-22T05:46:48Z</time>
   </trkpt>
   <trkpt lat="31.7465350" lon="35.1187240">
    <ele>716.7</ele>
    <time>2018-09-22T05:46:50Z</time>
   </trkpt>
   <trkpt lat="31.7465210" lon="35.1186880">
    <ele>717.2</ele>
    <time>2018-09-22T05:46:51Z</time>
   </trkpt>
   <trkpt lat="31.7465090" lon="35.1186300">
    <ele>717.3</ele>
    <time>2018-09-22T05:46:53Z</time>
   </trkpt>
   <trkpt lat="31.7464900" lon="35.1185780">
    <ele>717.8</ele>
    <time>2018-09-22T05:46:56Z</time>
   </trkpt>
   <trkpt lat="31.7464790" lon="35.1185480">
    <ele>718.1</ele>
    <time>2018-09-22T05:46:57Z</time>
   </trkpt>
   <trkpt lat="31.7464450" lon="35.1185060">
    <ele>718.4</ele>
    <time>2018-09-22T05:46:58Z</time>
   </trkpt>
   <trkpt lat="31.7464170" lon="35.1184720">
    <ele>718.4</ele>
    <time>2018-09-22T05:46:59Z</time>
   </trkpt>
   <trkpt lat="31.7464000" lon="35.1184440">
    <ele>718.3</ele>
    <time>2018-09-22T05:47:00Z</time>
   </trkpt>
   <trkpt lat="31.7463820" lon="35.1184190">
    <ele>718.1</ele>
    <time>2018-09-22T05:47:01Z</time>
   </trkpt>
   <trkpt lat="31.7463640" lon="35.1183690">
    <ele>717.8</ele>
    <time>2018-09-22T05:47:02Z</time>
   </trkpt>
   <trkpt lat="31.7463440" lon="35.1183210">
    <ele>717.5</ele>
    <time>2018-09-22T05:47:04Z</time>
   </trkpt>
   <trkpt lat="31.7463110" lon="35.1182710">
    <ele>717.2</ele>
    <time>2018-09-22T05:47:06Z</time>
   </trkpt>
   <trkpt lat="31.7463020" lon="35.1182240">
    <ele>717.1</ele>
    <time>2018-09-22T05:47:07Z</time>
   </trkpt>
   <trkpt lat="31.7462730" lon="35.1181750">
    <ele>717.0</ele>
    <time>2018-09-22T05:47:08Z</time>
   </trkpt>
   <trkpt lat="31.7462400" lon="35.1181420">
    <ele>716.9</ele>
    <time>2018-09-22T05:47:09Z</time>
   </trkpt>
   <trkpt lat="31.7462240" lon="35.1181000">
    <ele>716.9</ele>
    <time>2018-09-22T05:47:10Z</time>
   </trkpt>
   <trkpt lat="31.7462030" lon="35.1180700">
    <ele>716.9</ele>
    <time>2018-09-22T05:47:12Z</time>
   </trkpt>
   <trkpt lat="31.7461930" lon="35.1180300">
    <ele>717.0</ele>
    <time>2018-09-22T05:47:13Z</time>
   </trkpt>
   <trkpt lat="31.7461720" lon="35.1179870">
    <ele>717.0</ele>
    <time>2018-09-22T05:47:14Z</time>
   </trkpt>
   <trkpt lat="31.7461660" lon="35.1179510">
    <ele>717.0</ele>
    <time>2018-09-22T05:47:15Z</time>
   </trkpt>
   <trkpt lat="31.7461630" lon="35.1179090">
    <ele>716.7</ele>
    <time>2018-09-22T05:47:16Z</time>
   </trkpt>
   <trkpt lat="31.7461520" lon="35.1178660">
    <ele>716.1</ele>
    <time>2018-09-22T05:47:17Z</time>
   </trkpt>
   <trkpt lat="31.7461410" lon="35.1178240">
    <ele>715.6</ele>
    <time>2018-09-22T05:47:19Z</time>
   </trkpt>
   <trkpt lat="31.7461210" lon="35.1177900">
    <ele>715.2</ele>
    <time>2018-09-22T05:47:20Z</time>
   </trkpt>
   <trkpt lat="31.7461530" lon="35.1177470">
    <ele>714.7</ele>
    <time>2018-09-22T05:47:21Z</time>
   </trkpt>
   <trkpt lat="31.7461480" lon="35.1176970">
    <ele>714.4</ele>
    <time>2018-09-22T05:47:23Z</time>
   </trkpt>
   <trkpt lat="31.7461170" lon="35.1176810">
    <ele>714.2</ele>
    <time>2018-09-22T05:47:25Z</time>
   </trkpt>
   <trkpt lat="31.7461080" lon="35.1176360">
    <ele>714.3</ele>
    <time>2018-09-22T05:47:26Z</time>
   </trkpt>
   <trkpt lat="31.7460770" lon="35.1175930">
    <ele>714.7</ele>
    <time>2018-09-22T05:47:27Z</time>
   </trkpt>
   <trkpt lat="31.7460580" lon="35.1175330">
    <ele>715.2</ele>
    <time>2018-09-22T05:47:29Z</time>
   </trkpt>
   <trkpt lat="31.7460610" lon="35.1174440">
    <ele>715.4</ele>
    <time>2018-09-22T05:47:31Z</time>
   </trkpt>
   <trkpt lat="31.7460250" lon="35.1174040">
    <ele>715.2</ele>
    <time>2018-09-22T05:47:33Z</time>
   </trkpt>
   <trkpt lat="31.7460120" lon="35.1173550">
    <ele>715.2</ele>
    <time>2018-09-22T05:47:34Z</time>
   </trkpt>
   <trkpt lat="31.7459720" lon="35.1173040">
    <ele>715.3</ele>
    <time>2018-09-22T05:47:37Z</time>
   </trkpt>
   <trkpt lat="31.7459500" lon="35.1172640">
    <ele>714.6</ele>
    <time>2018-09-22T05:47:38Z</time>
   </trkpt>
   <trkpt lat="31.7459480" lon="35.1172150">
    <ele>714.5</ele>
    <time>2018-09-22T05:47:39Z</time>
   </trkpt>
   <trkpt lat="31.7459310" lon="35.1171760">
    <ele>714.3</ele>
    <time>2018-09-22T05:47:40Z</time>
   </trkpt>
   <trkpt lat="31.7459080" lon="35.1171520">
    <ele>713.6</ele>
    <time>2018-09-22T05:47:41Z</time>
   </trkpt>
   <trkpt lat="31.7458710" lon="35.1170880">
    <ele>712.3</ele>
    <time>2018-09-22T05:47:42Z</time>
   </trkpt>
   <trkpt lat="31.7458820" lon="35.1170570">
    <ele>711.9</ele>
    <time>2018-09-22T05:47:43Z</time>
   </trkpt>
   <trkpt lat="31.7458550" lon="35.1170280">
    <ele>711.4</ele>
    <time>2018-09-22T05:47:44Z</time>
   </trkpt>
   <trkpt lat="31.7458490" lon="35.1169950">
    <ele>711.0</ele>
    <time>2018-09-22T05:47:45Z</time>
   </trkpt>
   <trkpt lat="31.7457870" lon="35.1169660">
    <ele>710.1</ele>
    <time>2018-09-22T05:47:46Z</time>
   </trkpt>
   <trkpt lat="31.7457430" lon="35.1169100">
    <ele>709.0</ele>
    <time>2018-09-22T05:47:48Z</time>
   </trkpt>
   <trkpt lat="31.7457060" lon="35.1168850">
    <ele>708.2</ele>
    <time>2018-09-22T05:47:49Z</time>
   </trkpt>
   <trkpt lat="31.7456590" lon="35.1169150">
    <ele>707.0</ele>
    <time>2018-09-22T05:47:51Z</time>
   </trkpt>
   <trkpt lat="31.7456280" lon="35.1169300">
    <ele>706.3</ele>
    <time>2018-09-22T05:47:52Z</time>
   </trkpt>
   <trkpt lat="31.7455830" lon="35.1169300">
    <ele>705.8</ele>
    <time>2018-09-22T05:47:53Z</time>
   </trkpt>
   <trkpt lat="31.7455430" lon="35.1169220">
    <ele>705.6</ele>
    <time>2018-09-22T05:47:54Z</time>
   </trkpt>
   <trkpt lat="31.7455120" lon="35.1169320">
    <ele>705.3</ele>
    <time>2018-09-22T05:47:55Z</time>
   </trkpt>
   <trkpt lat="31.7454690" lon="35.1169160">
    <ele>705.0</ele>
    <time>2018-09-22T05:47:57Z</time>
   </trkpt>
   <trkpt lat="31.7454420" lon="35.1168920">
    <ele>704.6</ele>
    <time>2018-09-22T05:47:59Z</time>
   </trkpt>
   <trkpt lat="31.7453980" lon="35.1168540">
    <ele>703.5</ele>
    <time>2018-09-22T05:48:01Z</time>
   </trkpt>
   <trkpt lat="31.7453610" lon="35.1168420">
    <ele>702.9</ele>
    <time>2018-09-22T05:48:02Z</time>
   </trkpt>
   <trkpt lat="31.7453100" lon="35.1168200">
    <ele>702.2</ele>
    <time>2018-09-22T05:48:04Z</time>
   </trkpt>
   <trkpt lat="31.7452690" lon="35.1167730">
    <ele>701.6</ele>
    <time>2018-09-22T05:48:06Z</time>
   </trkpt>
   <trkpt lat="31.7452020" lon="35.1167570">
    <ele>700.7</ele>
    <time>2018-09-22T05:48:07Z</time>
   </trkpt>
   <trkpt lat="31.7451460" lon="35.1167050">
    <ele>699.8</ele>
    <time>2018-09-22T05:48:09Z</time>
   </trkpt>
   <trkpt lat="31.7451070" lon="35.1166560">
    <ele>699.1</ele>
    <time>2018-09-22T05:48:10Z</time>
   </trkpt>
   <trkpt lat="31.7450720" lon="35.1166270">
    <ele>698.6</ele>
    <time>2018-09-22T05:48:11Z</time>
   </trkpt>
   <trkpt lat="31.7450440" lon="35.1165980">
    <ele>698.3</ele>
    <time>2018-09-22T05:48:12Z</time>
   </trkpt>
   <trkpt lat="31.7449960" lon="35.1165730">
    <ele>697.6</ele>
    <time>2018-09-22T05:48:13Z</time>
   </trkpt>
   <trkpt lat="31.7449610" lon="35.1165890">
    <ele>697.0</ele>
    <time>2018-09-22T05:48:14Z</time>
   </trkpt>
   <trkpt lat="31.7449240" lon="35.1165770">
    <ele>696.2</ele>
    <time>2018-09-22T05:48:15Z</time>
   </trkpt>
   <trkpt lat="31.7449060" lon="35.1165400">
    <ele>695.3</ele>
    <time>2018-09-22T05:48:16Z</time>
   </trkpt>
   <trkpt lat="31.7448950" lon="35.1164910">
    <ele>694.5</ele>
    <time>2018-09-22T05:48:17Z</time>
   </trkpt>
   <trkpt lat="31.7448850" lon="35.1164550">
    <ele>694.2</ele>
    <time>2018-09-22T05:48:18Z</time>
   </trkpt>
   <trkpt lat="31.7448750" lon="35.1164240">
    <ele>693.9</ele>
    <time>2018-09-22T05:48:19Z</time>
   </trkpt>
   <trkpt lat="31.7448440" lon="35.1164030">
    <ele>693.5</ele>
    <time>2018-09-22T05:48:21Z</time>
   </trkpt>
   <trkpt lat="31.7448350" lon="35.1163730">
    <ele>693.1</ele>
    <time>2018-09-22T05:48:25Z</time>
   </trkpt>
   <trkpt lat="31.7448220" lon="35.1163230">
    <ele>692.4</ele>
    <time>2018-09-22T05:49:20Z</time>
   </trkpt>
   <trkpt lat="31.7448040" lon="35.1162990">
    <ele>692.0</ele>
    <time>2018-09-22T05:49:21Z</time>
   </trkpt>
   <trkpt lat="31.7447750" lon="35.1162700">
    <ele>691.3</ele>
    <time>2018-09-22T05:49:23Z</time>
   </trkpt>
   <trkpt lat="31.7447630" lon="35.1162330">
    <ele>691.0</ele>
    <time>2018-09-22T05:49:26Z</time>
   </trkpt>
   <trkpt lat="31.7447390" lon="35.1161800">
    <ele>691.0</ele>
    <time>2018-09-22T05:49:28Z</time>
   </trkpt>
   <trkpt lat="31.7447240" lon="35.1161160">
    <ele>691.0</ele>
    <time>2018-09-22T05:49:30Z</time>
   </trkpt>
   <trkpt lat="31.7446980" lon="35.1160680">
    <ele>690.9</ele>
    <time>2018-09-22T05:49:31Z</time>
   </trkpt>
   <trkpt lat="31.7446920" lon="35.1160250">
    <ele>691.0</ele>
    <time>2018-09-22T05:49:32Z</time>
   </trkpt>
   <trkpt lat="31.7446780" lon="35.1159920">
    <ele>691.1</ele>
    <time>2018-09-22T05:49:33Z</time>
   </trkpt>
   <trkpt lat="31.7446600" lon="35.1159480">
    <ele>691.2</ele>
    <time>2018-09-22T05:49:34Z</time>
   </trkpt>
   <trkpt lat="31.7446430" lon="35.1159180">
    <ele>691.3</ele>
    <time>2018-09-22T05:49:35Z</time>
   </trkpt>
   <trkpt lat="31.7446280" lon="35.1158790">
    <ele>691.4</ele>
    <time>2018-09-22T05:49:36Z</time>
   </trkpt>
   <trkpt lat="31.7446090" lon="35.1158440">
    <ele>691.6</ele>
    <time>2018-09-22T05:49:37Z</time>
   </trkpt>
   <trkpt lat="31.7446010" lon="35.1158130">
    <ele>691.9</ele>
    <time>2018-09-22T05:49:38Z</time>
   </trkpt>
   <trkpt lat="31.7445820" lon="35.1157700">
    <ele>692.3</ele>
    <time>2018-09-22T05:49:39Z</time>
   </trkpt>
   <trkpt lat="31.7445590" lon="35.1157210">
    <ele>692.5</ele>
    <time>2018-09-22T05:49:41Z</time>
   </trkpt>
   <trkpt lat="31.7445470" lon="35.1156860">
    <ele>692.7</ele>
    <time>2018-09-22T05:49:42Z</time>
   </trkpt>
   <trkpt lat="31.7445280" lon="35.1156560">
    <ele>692.7</ele>
    <time>2018-09-22T05:49:43Z</time>
   </trkpt>
   <trkpt lat="31.7445160" lon="35.1156230">
    <ele>692.8</ele>
    <time>2018-09-22T05:49:44Z</time>
   </trkpt>
   <trkpt lat="31.7444850" lon="35.1156040">
    <ele>693.0</ele>
    <time>2018-09-22T05:49:45Z</time>
   </trkpt>
   <trkpt lat="31.7444640" lon="35.1155720">
    <ele>693.2</ele>
    <time>2018-09-22T05:49:46Z</time>
   </trkpt>
   <trkpt lat="31.7444140" lon="35.1155160">
    <ele>693.3</ele>
    <time>2018-09-22T05:49:48Z</time>
   </trkpt>
   <trkpt lat="31.7443810" lon="35.1154840">
    <ele>693.2</ele>
    <time>2018-09-22T05:49:50Z</time>
   </trkpt>
   <trkpt lat="31.7443530" lon="35.1154730">
    <ele>692.8</ele>
    <time>2018-09-22T05:49:52Z</time>
   </trkpt>
   <trkpt lat="31.7443190" lon="35.1154510">
    <ele>692.4</ele>
    <time>2018-09-22T05:49:53Z</time>
   </trkpt>
   <trkpt lat="31.7443100" lon="35.1154140">
    <ele>692.4</ele>
    <time>2018-09-22T05:49:56Z</time>
   </trkpt>
   <trkpt lat="31.7442890" lon="35.1154340">
    <ele>692.6</ele>
    <time>2018-09-22T05:50:02Z</time>
   </trkpt>
   <trkpt lat="31.7442980" lon="35.1153870">
    <ele>692.8</ele>
    <time>2018-09-22T05:50:05Z</time>
   </trkpt>
   <trkpt lat="31.7442640" lon="35.1153940">
    <ele>692.6</ele>
    <time>2018-09-22T05:50:09Z</time>
   </trkpt>
   <trkpt lat="31.7442350" lon="35.1153840">
    <ele>692.5</ele>
    <time>2018-09-22T05:50:10Z</time>
   </trkpt>
   <trkpt lat="31.7441840" lon="35.1153870">
    <ele>692.3</ele>
    <time>2018-09-22T05:50:12Z</time>
   </trkpt>
   <trkpt lat="31.7441550" lon="35.1153900">
    <ele>692.1</ele>
    <time>2018-09-22T05:50:13Z</time>
   </trkpt>
   <trkpt lat="31.7441130" lon="35.1154100">
    <ele>691.9</ele>
    <time>2018-09-22T05:50:15Z</time>
   </trkpt>
   <trkpt lat="31.7440760" lon="35.1154180">
    <ele>691.7</ele>
    <time>2018-09-22T05:50:16Z</time>
   </trkpt>
   <trkpt lat="31.7440440" lon="35.1154080">
    <ele>691.6</ele>
    <time>2018-09-22T05:50:18Z</time>
   </trkpt>
   <trkpt lat="31.7440020" lon="35.1154080">
    <ele>691.3</ele>
    <time>2018-09-22T05:50:19Z</time>
   </trkpt>
   <trkpt lat="31.7439550" lon="35.1153890">
    <ele>691.1</ele>
    <time>2018-09-22T05:50:21Z</time>
   </trkpt>
   <trkpt lat="31.7439220" lon="35.1153790">
    <ele>690.9</ele>
    <time>2018-09-22T05:50:22Z</time>
   </trkpt>
   <trkpt lat="31.7438940" lon="35.1153900">
    <ele>690.7</ele>
    <time>2018-09-22T05:50:24Z</time>
   </trkpt>
   <trkpt lat="31.7438690" lon="35.1154070">
    <ele>690.5</ele>
    <time>2018-09-22T05:50:26Z</time>
   </trkpt>
   <trkpt lat="31.7438280" lon="35.1154280">
    <ele>690.2</ele>
    <time>2018-09-22T05:50:52Z</time>
   </trkpt>
   <trkpt lat="31.7437880" lon="35.1154510">
    <ele>689.8</ele>
    <time>2018-09-22T05:50:55Z</time>
   </trkpt>
   <trkpt lat="31.7437300" lon="35.1154740">
    <ele>689.2</ele>
    <time>2018-09-22T05:50:57Z</time>
   </trkpt>
   <trkpt lat="31.7436980" lon="35.1154760">
    <ele>689.0</ele>
    <time>2018-09-22T05:50:58Z</time>
   </trkpt>
   <trkpt lat="31.7436630" lon="35.1154890">
    <ele>688.6</ele>
    <time>2018-09-22T05:50:59Z</time>
   </trkpt>
   <trkpt lat="31.7436260" lon="35.1154880">
    <ele>688.2</ele>
    <time>2018-09-22T05:51:00Z</time>
   </trkpt>
   <trkpt lat="31.7435890" lon="35.1154960">
    <ele>687.8</ele>
    <time>2018-09-22T05:51:01Z</time>
   </trkpt>
   <trkpt lat="31.7435450" lon="35.1154890">
    <ele>687.1</ele>
    <time>2018-09-22T05:51:02Z</time>
   </trkpt>
   <trkpt lat="31.7434980" lon="35.1155000">
    <ele>686.4</ele>
    <time>2018-09-22T05:51:03Z</time>
   </trkpt>
   <trkpt lat="31.7434540" lon="35.1155250">
    <ele>685.8</ele>
    <time>2018-09-22T05:51:04Z</time>
   </trkpt>
   <trkpt lat="31.7433970" lon="35.1155520">
    <ele>685.2</ele>
    <time>2018-09-22T05:51:05Z</time>
   </trkpt>
   <trkpt lat="31.7433320" lon="35.1155510">
    <ele>684.7</ele>
    <time>2018-09-22T05:51:06Z</time>
   </trkpt>
   <trkpt lat="31.7432930" lon="35.1155590">
    <ele>684.3</ele>
    <time>2018-09-22T05:51:07Z</time>
   </trkpt>
   <trkpt lat="31.7432590" lon="35.1155690">
    <ele>684.0</ele>
    <time>2018-09-22T05:51:08Z</time>
   </trkpt>
   <trkpt lat="31.7432200" lon="35.1155820">
    <ele>683.1</ele>
    <time>2018-09-22T05:51:09Z</time>
   </trkpt>
   <trkpt lat="31.7431620" lon="35.1155890">
    <ele>681.7</ele>
    <time>2018-09-22T05:51:11Z</time>
   </trkpt>
   <trkpt lat="31.7431270" lon="35.1155970">
    <ele>681.2</ele>
    <time>2018-09-22T05:51:12Z</time>
   </trkpt>
   <trkpt lat="31.7430990" lon="35.1156010">
    <ele>680.7</ele>
    <time>2018-09-22T05:51:13Z</time>
   </trkpt>
   <trkpt lat="31.7430670" lon="35.1155970">
    <ele>680.3</ele>
    <time>2018-09-22T05:51:14Z</time>
   </trkpt>
   <trkpt lat="31.7430360" lon="35.1155940">
    <ele>679.8</ele>
    <time>2018-09-22T05:51:15Z</time>
   </trkpt>
   <trkpt lat="31.7430020" lon="35.1156040">
    <ele>679.3</ele>
    <time>2018-09-22T05:51:16Z</time>
   </trkpt>
   <trkpt lat="31.7429690" lon="35.1156090">
    <ele>678.8</ele>
    <time>2018-09-22T05:51:17Z</time>
   </trkpt>
   <trkpt lat="31.7429310" lon="35.1156050">
    <ele>678.0</ele>
    <time>2018-09-22T05:51:19Z</time>
   </trkpt>
   <trkpt lat="31.7429080" lon="35.1156210">
    <ele>677.5</ele>
    <time>2018-09-22T05:51:20Z</time>
   </trkpt>
   <trkpt lat="31.7428450" lon="35.1156260">
    <ele>676.5</ele>
    <time>2018-09-22T05:51:22Z</time>
   </trkpt>
   <trkpt lat="31.7428140" lon="35.1156260">
    <ele>676.0</ele>
    <time>2018-09-22T05:51:28Z</time>
   </trkpt>
   <trkpt lat="31.7427840" lon="35.1156250">
    <ele>676.0</ele>
    <time>2018-09-22T05:51:44Z</time>
   </trkpt>
   <trkpt lat="31.7427530" lon="35.1156250">
    <ele>676.0</ele>
    <time>2018-09-22T05:51:58Z</time>
   </trkpt>
   <trkpt lat="31.7427230" lon="35.1156250">
    <ele>675.7</ele>
    <time>2018-09-22T05:51:59Z</time>
   </trkpt>
   <trkpt lat="31.7426590" lon="35.1156430">
    <ele>674.5</ele>
    <time>2018-09-22T05:52:00Z</time>
   </trkpt>
   <trkpt lat="31.7426240" lon="35.1156540">
    <ele>673.7</ele>
    <time>2018-09-22T05:52:01Z</time>
   </trkpt>
   <trkpt lat="31.7425700" lon="35.1156590">
    <ele>672.7</ele>
    <time>2018-09-22T05:52:02Z</time>
   </trkpt>
   <trkpt lat="31.7425330" lon="35.1156720">
    <ele>672.3</ele>
    <time>2018-09-22T05:52:03Z</time>
   </trkpt>
   <trkpt lat="31.7424880" lon="35.1156630">
    <ele>671.9</ele>
    <time>2018-09-22T05:52:04Z</time>
   </trkpt>
   <trkpt lat="31.7424380" lon="35.1156640">
    <ele>671.1</ele>
    <time>2018-09-22T05:52:05Z</time>
   </trkpt>
   <trkpt lat="31.7424020" lon="35.1156600">
    <ele>670.6</ele>
    <time>2018-09-22T05:52:06Z</time>
   </trkpt>
   <trkpt lat="31.7423450" lon="35.1156830">
    <ele>669.9</ele>
    <time>2018-09-22T05:52:07Z</time>
   </trkpt>
   <trkpt lat="31.7422930" lon="35.1156780">
    <ele>669.3</ele>
    <time>2018-09-22T05:52:08Z</time>
   </trkpt>
   <trkpt lat="31.7422660" lon="35.1156920">
    <ele>669.0</ele>
    <time>2018-09-22T05:52:09Z</time>
   </trkpt>
   <trkpt lat="31.7422070" lon="35.1156850">
    <ele>667.5</ele>
    <time>2018-09-22T05:52:11Z</time>
   </trkpt>
   <trkpt lat="31.7421540" lon="35.1157040">
    <ele>666.9</ele>
    <time>2018-09-22T05:52:12Z</time>
   </trkpt>
   <trkpt lat="31.7421200" lon="35.1157200">
    <ele>665.8</ele>
    <time>2018-09-22T05:52:13Z</time>
   </trkpt>
   <trkpt lat="31.7420720" lon="35.1157370">
    <ele>663.7</ele>
    <time>2018-09-22T05:52:14Z</time>
   </trkpt>
   <trkpt lat="31.7420300" lon="35.1157420">
    <ele>662.9</ele>
    <time>2018-09-22T05:52:15Z</time>
   </trkpt>
   <trkpt lat="31.7420000" lon="35.1157480">
    <ele>661.8</ele>
    <time>2018-09-22T05:52:16Z</time>
   </trkpt>
   <trkpt lat="31.7419360" lon="35.1157440">
    <ele>660.9</ele>
    <time>2018-09-22T05:52:18Z</time>
   </trkpt>
   <trkpt lat="31.7419070" lon="35.1157570">
    <ele>660.9</ele>
    <time>2018-09-22T05:52:19Z</time>
   </trkpt>
   <trkpt lat="31.7418700" lon="35.1157790">
    <ele>660.8</ele>
    <time>2018-09-22T05:52:20Z</time>
   </trkpt>
   <trkpt lat="31.7418420" lon="35.1158090">
    <ele>660.7</ele>
    <time>2018-09-22T05:52:21Z</time>
   </trkpt>
   <trkpt lat="31.7418090" lon="35.1158240">
    <ele>660.4</ele>
    <time>2018-09-22T05:52:22Z</time>
   </trkpt>
   <trkpt lat="31.7417710" lon="35.1158490">
    <ele>660.2</ele>
    <time>2018-09-22T05:52:23Z</time>
   </trkpt>
   <trkpt lat="31.7417400" lon="35.1158670">
    <ele>660.0</ele>
    <time>2018-09-22T05:52:24Z</time>
   </trkpt>
   <trkpt lat="31.7417190" lon="35.1159000">
    <ele>659.8</ele>
    <time>2018-09-22T05:52:25Z</time>
   </trkpt>
   <trkpt lat="31.7416900" lon="35.1159190">
    <ele>659.2</ele>
    <time>2018-09-22T05:52:26Z</time>
   </trkpt>
   <trkpt lat="31.7416780" lon="35.1159550">
    <ele>658.2</ele>
    <time>2018-09-22T05:52:27Z</time>
   </trkpt>
   <trkpt lat="31.7416500" lon="35.1159820">
    <ele>657.4</ele>
    <time>2018-09-22T05:52:28Z</time>
   </trkpt>
   <trkpt lat="31.7416250" lon="35.1160280">
    <ele>657.0</ele>
    <time>2018-09-22T05:52:29Z</time>
   </trkpt>
   <trkpt lat="31.7415870" lon="35.1160600">
    <ele>656.1</ele>
    <time>2018-09-22T05:52:31Z</time>
   </trkpt>
   <trkpt lat="31.7415400" lon="35.1160560">
    <ele>655.0</ele>
    <time>2018-09-22T05:52:32Z</time>
   </trkpt>
   <trkpt lat="31.7415080" lon="35.1160610">
    <ele>654.3</ele>
    <time>2018-09-22T05:52:33Z</time>
   </trkpt>
   <trkpt lat="31.7414880" lon="35.1160880">
    <ele>653.9</ele>
    <time>2018-09-22T05:52:34Z</time>
   </trkpt>
   <trkpt lat="31.7414550" lon="35.1160950">
    <ele>653.5</ele>
    <time>2018-09-22T05:52:35Z</time>
   </trkpt>
   <trkpt lat="31.7414130" lon="35.1160980">
    <ele>652.7</ele>
    <time>2018-09-22T05:52:36Z</time>
   </trkpt>
   <trkpt lat="31.7413830" lon="35.1160920">
    <ele>652.3</ele>
    <time>2018-09-22T05:52:37Z</time>
   </trkpt>
   <trkpt lat="31.7413540" lon="35.1160810">
    <ele>652.0</ele>
    <time>2018-09-22T05:52:38Z</time>
   </trkpt>
   <trkpt lat="31.7413090" lon="35.1160750">
    <ele>651.2</ele>
    <time>2018-09-22T05:52:39Z</time>
   </trkpt>
   <trkpt lat="31.7412710" lon="35.1160660">
    <ele>650.4</ele>
    <time>2018-09-22T05:52:40Z</time>
   </trkpt>
   <trkpt lat="31.7412420" lon="35.1160650">
    <ele>649.7</ele>
    <time>2018-09-22T05:52:41Z</time>
   </trkpt>
   <trkpt lat="31.7412120" lon="35.1160600">
    <ele>649.1</ele>
    <time>2018-09-22T05:52:42Z</time>
   </trkpt>
   <trkpt lat="31.7411850" lon="35.1160580">
    <ele>648.6</ele>
    <time>2018-09-22T05:52:43Z</time>
   </trkpt>
   <trkpt lat="31.7411490" lon="35.1160510">
    <ele>647.9</ele>
    <time>2018-09-22T05:52:45Z</time>
   </trkpt>
   <trkpt lat="31.7411210" lon="35.1160610">
    <ele>647.6</ele>
    <time>2018-09-22T05:52:46Z</time>
   </trkpt>
   <trkpt lat="31.7410740" lon="35.1160770">
    <ele>647.1</ele>
    <time>2018-09-22T05:52:48Z</time>
   </trkpt>
   <trkpt lat="31.7410180" lon="35.1161050">
    <ele>646.3</ele>
    <time>2018-09-22T05:52:50Z</time>
   </trkpt>
   <trkpt lat="31.7409890" lon="35.1161360">
    <ele>645.3</ele>
    <time>2018-09-22T05:52:51Z</time>
   </trkpt>
   <trkpt lat="31.7409520" lon="35.1161650">
    <ele>643.9</ele>
    <time>2018-09-22T05:52:52Z</time>
   </trkpt>
   <trkpt lat="31.7409140" lon="35.1161850">
    <ele>642.6</ele>
    <time>2018-09-22T05:52:53Z</time>
   </trkpt>
   <trkpt lat="31.7408800" lon="35.1161920">
    <ele>641.7</ele>
    <time>2018-09-22T05:52:54Z</time>
   </trkpt>
   <trkpt lat="31.7408140" lon="35.1162010">
    <ele>640.1</ele>
    <time>2018-09-22T05:52:56Z</time>
   </trkpt>
   <trkpt lat="31.7407660" lon="35.1162210">
    <ele>638.6</ele>
    <time>2018-09-22T05:52:58Z</time>
   </trkpt>
   <trkpt lat="31.7407190" lon="35.1162320">
    <ele>637.0</ele>
    <time>2018-09-22T05:53:00Z</time>
   </trkpt>
   <trkpt lat="31.7406680" lon="35.1162510">
    <ele>635.0</ele>
    <time>2018-09-22T05:53:02Z</time>
   </trkpt>
   <trkpt lat="31.7406450" lon="35.1162700">
    <ele>634.0</ele>
    <time>2018-09-22T05:53:03Z</time>
   </trkpt>
   <trkpt lat="31.7405970" lon="35.1162720">
    <ele>632.3</ele>
    <time>2018-09-22T05:53:05Z</time>
   </trkpt>
   <trkpt lat="31.7405470" lon="35.1162630">
    <ele>629.8</ele>
    <time>2018-09-22T05:53:08Z</time>
   </trkpt>
   <trkpt lat="31.7405110" lon="35.1162620">
    <ele>628.3</ele>
    <time>2018-09-22T05:53:10Z</time>
   </trkpt>
   <trkpt lat="31.7404600" lon="35.1162670">
    <ele>627.0</ele>
    <time>2018-09-22T05:53:12Z</time>
   </trkpt>
   <trkpt lat="31.7404310" lon="35.1162670">
    <ele>626.1</ele>
    <time>2018-09-22T05:53:13Z</time>
   </trkpt>
   <trkpt lat="31.7403850" lon="35.1162810">
    <ele>624.1</ele>
    <time>2018-09-22T05:53:15Z</time>
   </trkpt>
   <trkpt lat="31.7403510" lon="35.1162990">
    <ele>623.1</ele>
    <time>2018-09-22T05:53:16Z</time>
   </trkpt>
   <trkpt lat="31.7403200" lon="35.1163130">
    <ele>622.1</ele>
    <time>2018-09-22T05:53:17Z</time>
   </trkpt>
   <trkpt lat="31.7402940" lon="35.1163250">
    <ele>621.0</ele>
    <time>2018-09-22T05:53:18Z</time>
   </trkpt>
   <trkpt lat="31.7402670" lon="35.1163500">
    <ele>620.3</ele>
    <time>2018-09-22T05:53:21Z</time>
   </trkpt>
   <trkpt lat="31.7402430" lon="35.1163950">
    <ele>619.7</ele>
    <time>2018-09-22T05:53:23Z</time>
   </trkpt>
   <trkpt lat="31.7402160" lon="35.1163970">
    <ele>619.2</ele>
    <time>2018-09-22T05:53:24Z</time>
   </trkpt>
   <trkpt lat="31.7402000" lon="35.1164510">
    <ele>618.0</ele>
    <time>2018-09-22T05:53:26Z</time>
   </trkpt>
   <trkpt lat="31.7401780" lon="35.1164980">
    <ele>617.3</ele>
    <time>2018-09-22T05:53:28Z</time>
   </trkpt>
   <trkpt lat="31.7401500" lon="35.1165240">
    <ele>617.0</ele>
    <time>2018-09-22T05:53:30Z</time>
   </trkpt>
   <trkpt lat="31.7401200" lon="35.1165210">
    <ele>616.4</ele>
    <time>2018-09-22T05:53:31Z</time>
   </trkpt>
   <trkpt lat="31.7400840" lon="35.1165270">
    <ele>615.4</ele>
    <time>2018-09-22T05:53:32Z</time>
   </trkpt>
   <trkpt lat="31.7400550" lon="35.1165460">
    <ele>614.4</ele>
    <time>2018-09-22T05:53:33Z</time>
   </trkpt>
   <trkpt lat="31.7400020" lon="35.1165720">
    <ele>613.0</ele>
    <time>2018-09-22T05:53:35Z</time>
   </trkpt>
   <trkpt lat="31.7399750" lon="35.1165880">
    <ele>613.0</ele>
    <time>2018-09-22T05:53:36Z</time>
   </trkpt>
   <trkpt lat="31.7399350" lon="35.1165970">
    <ele>613.0</ele>
    <time>2018-09-22T05:53:37Z</time>
   </trkpt>
   <trkpt lat="31.7399100" lon="35.1166260">
    <ele>612.6</ele>
    <time>2018-09-22T05:53:38Z</time>
   </trkpt>
   <trkpt lat="31.7398830" lon="35.1166670">
    <ele>611.9</ele>
    <time>2018-09-22T05:53:39Z</time>
   </trkpt>
   <trkpt lat="31.7398500" lon="35.1166750">
    <ele>611.5</ele>
    <time>2018-09-22T05:53:40Z</time>
   </trkpt>
   <trkpt lat="31.7398180" lon="35.1166740">
    <ele>611.2</ele>
    <time>2018-09-22T05:53:41Z</time>
   </trkpt>
   <trkpt lat="31.7397880" lon="35.1167010">
    <ele>610.7</ele>
    <time>2018-09-22T05:53:42Z</time>
   </trkpt>
   <trkpt lat="31.7397600" lon="35.1167230">
    <ele>610.0</ele>
    <time>2018-09-22T05:53:43Z</time>
   </trkpt>
   <trkpt lat="31.7397180" lon="35.1167610">
    <ele>608.8</ele>
    <time>2018-09-22T05:53:45Z</time>
   </trkpt>
   <trkpt lat="31.7396970" lon="35.1167980">
    <ele>608.0</ele>
    <time>2018-09-22T05:53:46Z</time>
   </trkpt>
   <trkpt lat="31.7396610" lon="35.1168190">
    <ele>607.2</ele>
    <time>2018-09-22T05:53:47Z</time>
   </trkpt>
   <trkpt lat="31.7396280" lon="35.1168430">
    <ele>606.6</ele>
    <time>2018-09-22T05:53:48Z</time>
   </trkpt>
   <trkpt lat="31.7396020" lon="35.1168590">
    <ele>606.1</ele>
    <time>2018-09-22T05:53:49Z</time>
   </trkpt>
   <trkpt lat="31.7395730" lon="35.1168800">
    <ele>605.6</ele>
    <time>2018-09-22T05:53:50Z</time>
   </trkpt>
   <trkpt lat="31.7395440" lon="35.1168890">
    <ele>605.5</ele>
    <time>2018-09-22T05:53:51Z</time>
   </trkpt>
   <trkpt lat="31.7395080" lon="35.1168840">
    <ele>605.2</ele>
    <time>2018-09-22T05:53:52Z</time>
   </trkpt>
   <trkpt lat="31.7394600" lon="35.1168750">
    <ele>605.1</ele>
    <time>2018-09-22T05:53:53Z</time>
   </trkpt>
   <trkpt lat="31.7394150" lon="35.1168750">
    <ele>605.0</ele>
    <time>2018-09-22T05:53:54Z</time>
   </trkpt>
   <trkpt lat="31.7393770" lon="35.1168910">
    <ele>604.9</ele>
    <time>2018-09-22T05:53:55Z</time>
   </trkpt>
   <trkpt lat="31.7393540" lon="35.1169190">
    <ele>604.8</ele>
    <time>2018-09-22T05:53:56Z</time>
   </trkpt>
   <trkpt lat="31.7393400" lon="35.1169620">
    <ele>604.6</ele>
    <time>2018-09-22T05:53:58Z</time>
   </trkpt>
   <trkpt lat="31.7393250" lon="35.1169930">
    <ele>604.5</ele>
    <time>2018-09-22T05:53:59Z</time>
   </trkpt>
   <trkpt lat="31.7393100" lon="35.1170240">
    <ele>604.5</ele>
    <time>2018-09-22T05:54:00Z</time>
   </trkpt>
   <trkpt lat="31.7392710" lon="35.1170310">
    <ele>604.6</ele>
    <time>2018-09-22T05:54:01Z</time>
   </trkpt>
   <trkpt lat="31.7392480" lon="35.1170710">
    <ele>604.5</ele>
    <time>2018-09-22T05:54:02Z</time>
   </trkpt>
   <trkpt lat="31.7392150" lon="35.1170850">
    <ele>604.5</ele>
    <time>2018-09-22T05:54:03Z</time>
   </trkpt>
   <trkpt lat="31.7391690" lon="35.1171000">
    <ele>604.1</ele>
    <time>2018-09-22T05:54:04Z</time>
   </trkpt>
   <trkpt lat="31.7391390" lon="35.1171150">
    <ele>603.9</ele>
    <time>2018-09-22T05:54:05Z</time>
   </trkpt>
   <trkpt lat="31.7391080" lon="35.1171320">
    <ele>603.5</ele>
    <time>2018-09-22T05:54:06Z</time>
   </trkpt>
   <trkpt lat="31.7390850" lon="35.1171540">
    <ele>603.2</ele>
    <time>2018-09-22T05:54:07Z</time>
   </trkpt>
   <trkpt lat="31.7390580" lon="35.1171770">
    <ele>603.1</ele>
    <time>2018-09-22T05:54:08Z</time>
   </trkpt>
   <trkpt lat="31.7390270" lon="35.1171850">
    <ele>603.0</ele>
    <time>2018-09-22T05:54:09Z</time>
   </trkpt>
   <trkpt lat="31.7389880" lon="35.1171890">
    <ele>602.6</ele>
    <time>2018-09-22T05:54:10Z</time>
   </trkpt>
   <trkpt lat="31.7389350" lon="35.1172090">
    <ele>601.9</ele>
    <time>2018-09-22T05:54:12Z</time>
   </trkpt>
   <trkpt lat="31.7388700" lon="35.1172170">
    <ele>600.9</ele>
    <time>2018-09-22T05:54:14Z</time>
   </trkpt>
   <trkpt lat="31.7388410" lon="35.1172160">
    <ele>600.0</ele>
    <time>2018-09-22T05:54:15Z</time>
   </trkpt>
   <trkpt lat="31.7388040" lon="35.1172130">
    <ele>599.1</ele>
    <time>2018-09-22T05:54:16Z</time>
   </trkpt>
   <trkpt lat="31.7387720" lon="35.1172080">
    <ele>598.8</ele>
    <time>2018-09-22T05:54:17Z</time>
   </trkpt>
   <trkpt lat="31.7387270" lon="35.1171890">
    <ele>598.4</ele>
    <time>2018-09-22T05:54:19Z</time>
   </trkpt>
   <trkpt lat="31.7386920" lon="35.1171570">
    <ele>598.1</ele>
    <time>2018-09-22T05:54:21Z</time>
   </trkpt>
   <trkpt lat="31.7386700" lon="35.1171330">
    <ele>598.3</ele>
    <time>2018-09-22T05:54:23Z</time>
   </trkpt>
   <trkpt lat="31.7386220" lon="35.1171420">
    <ele>598.3</ele>
    <time>2018-09-22T05:54:25Z</time>
   </trkpt>
   <trkpt lat="31.7385910" lon="35.1171580">
    <ele>598.0</ele>
    <time>2018-09-22T05:54:27Z</time>
   </trkpt>
   <trkpt lat="31.7385590" lon="35.1171760">
    <ele>597.6</ele>
    <time>2018-09-22T05:54:28Z</time>
   </trkpt>
   <trkpt lat="31.7385120" lon="35.1172040">
    <ele>596.8</ele>
    <time>2018-09-22T05:54:30Z</time>
   </trkpt>
   <trkpt lat="31.7384830" lon="35.1172360">
    <ele>596.5</ele>
    <time>2018-09-22T05:54:32Z</time>
   </trkpt>
   <trkpt lat="31.7384540" lon="35.1172610">
    <ele>596.2</ele>
    <time>2018-09-22T05:54:33Z</time>
   </trkpt>
   <trkpt lat="31.7384210" lon="35.1172670">
    <ele>595.6</ele>
    <time>2018-09-22T05:54:34Z</time>
   </trkpt>
   <trkpt lat="31.7383850" lon="35.1172760">
    <ele>594.8</ele>
    <time>2018-09-22T05:54:35Z</time>
   </trkpt>
   <trkpt lat="31.7383240" lon="35.1172810">
    <ele>594.1</ele>
    <time>2018-09-22T05:54:37Z</time>
   </trkpt>
   <trkpt lat="31.7382790" lon="35.1172700">
    <ele>593.1</ele>
    <time>2018-09-22T05:54:38Z</time>
   </trkpt>
   <trkpt lat="31.7382340" lon="35.1172690">
    <ele>592.0</ele>
    <time>2018-09-22T05:54:40Z</time>
   </trkpt>
   <trkpt lat="31.7381940" lon="35.1172830">
    <ele>591.2</ele>
    <time>2018-09-22T05:54:41Z</time>
   </trkpt>
   <trkpt lat="31.7381640" lon="35.1172720">
    <ele>590.2</ele>
    <time>2018-09-22T05:54:42Z</time>
   </trkpt>
   <trkpt lat="31.7381170" lon="35.1172450">
    <ele>589.0</ele>
    <time>2018-09-22T05:54:43Z</time>
   </trkpt>
   <trkpt lat="31.7380850" lon="35.1172240">
    <ele>588.5</ele>
    <time>2018-09-22T05:54:44Z</time>
   </trkpt>
   <trkpt lat="31.7380610" lon="35.1171960">
    <ele>587.5</ele>
    <time>2018-09-22T05:54:46Z</time>
   </trkpt>
   <trkpt lat="31.7380100" lon="35.1172150">
    <ele>586.4</ele>
    <time>2018-09-22T05:54:49Z</time>
   </trkpt>
   <trkpt lat="31.7379800" lon="35.1172470">
    <ele>586.1</ele>
    <time>2018-09-22T05:54:52Z</time>
   </trkpt>
   <trkpt lat="31.7379310" lon="35.1172680">
    <ele>585.1</ele>
    <time>2018-09-22T05:54:54Z</time>
   </trkpt>
   <trkpt lat="31.7379030" lon="35.1172680">
    <ele>584.3</ele>
    <time>2018-09-22T05:54:55Z</time>
   </trkpt>
   <trkpt lat="31.7378510" lon="35.1172690">
    <ele>582.7</ele>
    <time>2018-09-22T05:54:57Z</time>
   </trkpt>
   <trkpt lat="31.7377900" lon="35.1172790">
    <ele>580.7</ele>
    <time>2018-09-22T05:54:59Z</time>
   </trkpt>
   <trkpt lat="31.7377450" lon="35.1172780">
    <ele>579.3</ele>
    <time>2018-09-22T05:55:02Z</time>
   </trkpt>
   <trkpt lat="31.7376920" lon="35.1172920">
    <ele>577.5</ele>
    <time>2018-09-22T05:55:04Z</time>
   </trkpt>
   <trkpt lat="31.7376460" lon="35.1172890">
    <ele>575.8</ele>
    <time>2018-09-22T05:55:06Z</time>
   </trkpt>
   <trkpt lat="31.7376130" lon="35.1172900">
    <ele>574.5</ele>
    <time>2018-09-22T05:55:07Z</time>
   </trkpt>
   <trkpt lat="31.7375740" lon="35.1172950">
    <ele>573.3</ele>
    <time>2018-09-22T05:55:08Z</time>
   </trkpt>
   <trkpt lat="31.7375500" lon="35.1172670">
    <ele>572.5</ele>
    <time>2018-09-22T05:55:09Z</time>
   </trkpt>
   <trkpt lat="31.7374970" lon="35.1172570">
    <ele>570.8</ele>
    <time>2018-09-22T05:55:10Z</time>
   </trkpt>
   <trkpt lat="31.7374730" lon="35.1172380">
    <ele>569.8</ele>
    <time>2018-09-22T05:55:11Z</time>
   </trkpt>
   <trkpt lat="31.7374250" lon="35.1172350">
    <ele>568.3</ele>
    <time>2018-09-22T05:55:13Z</time>
   </trkpt>
   <trkpt lat="31.7373920" lon="35.1172590">
    <ele>567.3</ele>
    <time>2018-09-22T05:55:15Z</time>
   </trkpt>
   <trkpt lat="31.7373670" lon="35.1172810">
    <ele>566.6</ele>
    <time>2018-09-22T05:55:16Z</time>
   </trkpt>
   <trkpt lat="31.7373530" lon="35.1173080">
    <ele>565.9</ele>
    <time>2018-09-22T05:55:18Z</time>
   </trkpt>
   <trkpt lat="31.7373440" lon="35.1173420">
    <ele>565.1</ele>
    <time>2018-09-22T05:55:19Z</time>
   </trkpt>
   <trkpt lat="31.7373290" lon="35.1173690">
    <ele>564.3</ele>
    <time>2018-09-22T05:55:21Z</time>
   </trkpt>
   <trkpt lat="31.7372990" lon="35.1173860">
    <ele>563.2</ele>
    <time>2018-09-22T05:55:23Z</time>
   </trkpt>
   <trkpt lat="31.7372750" lon="35.1174040">
    <ele>562.2</ele>
    <time>2018-09-22T05:55:24Z</time>
   </trkpt>
   <trkpt lat="31.7372520" lon="35.1174210">
    <ele>561.1</ele>
    <time>2018-09-22T05:55:41Z</time>
   </trkpt>
   <trkpt lat="31.7372050" lon="35.1174140">
    <ele>559.0</ele>
    <time>2018-09-22T05:55:48Z</time>
   </trkpt>
   <trkpt lat="31.7371810" lon="35.1174580">
    <ele>557.7</ele>
    <time>2018-09-22T05:56:08Z</time>
   </trkpt>
   <trkpt lat="31.7371590" lon="35.1174820">
    <ele>557.0</ele>
    <time>2018-09-22T05:56:09Z</time>
   </trkpt>
   <trkpt lat="31.7371310" lon="35.1175270">
    <ele>555.4</ele>
    <time>2018-09-22T05:56:10Z</time>
   </trkpt>
   <trkpt lat="31.7371160" lon="35.1175570">
    <ele>554.2</ele>
    <time>2018-09-22T05:56:11Z</time>
   </trkpt>
   <trkpt lat="31.7370840" lon="35.1176260">
    <ele>551.8</ele>
    <time>2018-09-22T05:56:13Z</time>
   </trkpt>
   <trkpt lat="31.7370530" lon="35.1176440">
    <ele>550.3</ele>
    <time>2018-09-22T05:56:14Z</time>
   </trkpt>
   <trkpt lat="31.7370300" lon="35.1176730">
    <ele>550.6</ele>
    <time>2018-09-22T05:56:15Z</time>
   </trkpt>
   <trkpt lat="31.7370010" lon="35.1177130">
    <ele>550.9</ele>
    <time>2018-09-22T05:56:16Z</time>
   </trkpt>
   <trkpt lat="31.7369690" lon="35.1177580">
    <ele>549.9</ele>
    <time>2018-09-22T05:56:17Z</time>
   </trkpt>
   <trkpt lat="31.7369570" lon="35.1178050">
    <ele>548.3</ele>
    <time>2018-09-22T05:56:19Z</time>
   </trkpt>
   <trkpt lat="31.7369330" lon="35.1178600">
    <ele>546.7</ele>
    <time>2018-09-22T05:56:21Z</time>
   </trkpt>
   <trkpt lat="31.7369140" lon="35.1179000">
    <ele>546.1</ele>
    <time>2018-09-22T05:56:22Z</time>
   </trkpt>
   <trkpt lat="31.7368790" lon="35.1179180">
    <ele>545.2</ele>
    <time>2018-09-22T05:56:23Z</time>
   </trkpt>
   <trkpt lat="31.7368610" lon="35.1179580">
    <ele>543.5</ele>
    <time>2018-09-22T05:56:24Z</time>
   </trkpt>
   <trkpt lat="31.7368440" lon="35.1180080">
    <ele>541.8</ele>
    <time>2018-09-22T05:56:25Z</time>
   </trkpt>
   <trkpt lat="31.7368210" lon="35.1180470">
    <ele>541.0</ele>
    <time>2018-09-22T05:56:26Z</time>
   </trkpt>
   <trkpt lat="31.7367970" lon="35.1180930">
    <ele>539.9</ele>
    <time>2018-09-22T05:56:27Z</time>
   </trkpt>
   <trkpt lat="31.7367840" lon="35.1181230">
    <ele>539.4</ele>
    <time>2018-09-22T05:56:28Z</time>
   </trkpt>
   <trkpt lat="31.7367720" lon="35.1181640">
    <ele>538.7</ele>
    <time>2018-09-22T05:56:29Z</time>
   </trkpt>
   <trkpt lat="31.7367520" lon="35.1181930">
    <ele>538.1</ele>
    <time>2018-09-22T05:56:30Z</time>
   </trkpt>
   <trkpt lat="31.7367240" lon="35.1182260">
    <ele>537.4</ele>
    <time>2018-09-22T05:56:31Z</time>
   </trkpt>
   <trkpt lat="31.7366760" lon="35.1182330">
    <ele>536.6</ele>
    <time>2018-09-22T05:56:33Z</time>
   </trkpt>
   <trkpt lat="31.7366500" lon="35.1182480">
    <ele>536.1</ele>
    <time>2018-09-22T05:56:34Z</time>
   </trkpt>
   <trkpt lat="31.7366200" lon="35.1182400">
    <ele>535.5</ele>
    <time>2018-09-22T05:56:38Z</time>
   </trkpt>
   <trkpt lat="31.7365730" lon="35.1182750">
    <ele>534.5</ele>
    <time>2018-09-22T05:56:40Z</time>
   </trkpt>
   <trkpt lat="31.7366010" lon="35.1182870">
    <ele>533.8</ele>
    <time>2018-09-22T05:56:41Z</time>
   </trkpt>
   <trkpt lat="31.7365980" lon="35.1182530">
    <ele>533.1</ele>
    <time>2018-09-22T05:56:45Z</time>
   </trkpt>
   <trkpt lat="31.7365720" lon="35.1181950">
    <ele>531.3</ele>
    <time>2018-09-22T05:56:49Z</time>
   </trkpt>
   <trkpt lat="31.7365360" lon="35.1182020">
    <ele>529.8</ele>
    <time>2018-09-22T05:56:54Z</time>
   </trkpt>
   <trkpt lat="31.7365090" lon="35.1181990">
    <ele>529.3</ele>
    <time>2018-09-22T05:56:57Z</time>
   </trkpt>
   <trkpt lat="31.7365160" lon="35.1181600">
    <ele>528.9</ele>
    <time>2018-09-22T05:56:59Z</time>
   </trkpt>
   <trkpt lat="31.7364990" lon="35.1181980">
    <ele>528.0</ele>
    <time>2018-09-22T05:57:05Z</time>
   </trkpt>
   <trkpt lat="31.7364990" lon="35.1182350">
    <ele>527.0</ele>
    <time>2018-09-22T05:57:06Z</time>
   </trkpt>
   <trkpt lat="31.7364790" lon="35.1182730">
    <ele>526.0</ele>
    <time>2018-09-22T05:57:07Z</time>
   </trkpt>
   <trkpt lat="31.7364830" lon="35.1183060">
    <ele>525.3</ele>
    <time>2018-09-22T05:57:08Z</time>
   </trkpt>
   <trkpt lat="31.7365020" lon="35.1183700">
    <ele>523.8</ele>
    <time>2018-09-22T05:57:09Z</time>
   </trkpt>
   <trkpt lat="31.7364820" lon="35.1184070">
    <ele>522.6</ele>
    <time>2018-09-22T05:57:11Z</time>
   </trkpt>
   <trkpt lat="31.7364600" lon="35.1184340">
    <ele>521.6</ele>
    <time>2018-09-22T05:57:13Z</time>
   </trkpt>
   <trkpt lat="31.7364200" lon="35.1184350">
    <ele>520.7</ele>
    <time>2018-09-22T05:57:15Z</time>
   </trkpt>
   <trkpt lat="31.7363800" lon="35.1184510">
    <ele>519.9</ele>
    <time>2018-09-22T05:57:17Z</time>
   </trkpt>
   <trkpt lat="31.7364130" lon="35.1184450">
    <ele>519.3</ele>
    <time>2018-09-22T05:57:23Z</time>
   </trkpt>
   <trkpt lat="31.7363970" lon="35.1184700">
    <ele>519.1</ele>
    <time>2018-09-22T05:57:26Z</time>
   </trkpt>
   <trkpt lat="31.7363820" lon="35.1185050">
    <ele>518.8</ele>
    <time>2018-09-22T05:57:33Z</time>
   </trkpt>
   <trkpt lat="31.7363710" lon="35.1185470">
    <ele>518.5</ele>
    <time>2018-09-22T05:57:35Z</time>
   </trkpt>
   <trkpt lat="31.7363150" lon="35.1185620">
    <ele>518.2</ele>
    <time>2018-09-22T05:57:38Z</time>
   </trkpt>
   <trkpt lat="31.7362830" lon="35.1185550">
    <ele>518.0</ele>
    <time>2018-09-22T05:57:42Z</time>
   </trkpt>
   <trkpt lat="31.7362520" lon="35.1185470">
    <ele>518.0</ele>
    <time>2018-09-22T05:57:51Z</time>
   </trkpt>
   <trkpt lat="31.7362210" lon="35.1185390">
    <ele>518.0</ele>
    <time>2018-09-22T06:07:17Z</time>
   </trkpt>
   <trkpt lat="31.7361900" lon="35.1185310">
    <ele>518.0</ele>
    <time>2018-09-22T06:07:21Z</time>
   </trkpt>
   <trkpt lat="31.7361580" lon="35.1185240">
    <ele>518.0</ele>
    <time>2018-09-22T06:07:32Z</time>
   </trkpt>
   <trkpt lat="31.7361270" lon="35.1185160">
    <ele>518.0</ele>
    <time>2018-09-22T06:07:33Z</time>
   </trkpt>
   <trkpt lat="31.7360810" lon="35.1185690">
    <ele>518.0</ele>
    <time>2018-09-22T06:07:34Z</time>
   </trkpt>
   <trkpt lat="31.7360420" lon="35.1186130">
    <ele>518.0</ele>
    <time>2018-09-22T06:07:35Z</time>
   </trkpt>
   <trkpt lat="31.7360140" lon="35.1186490">
    <ele>518.0</ele>
    <time>2018-09-22T06:07:36Z</time>
   </trkpt>
   <trkpt lat="31.7359780" lon="35.1186760">
    <ele>518.0</ele>
    <time>2018-09-22T06:07:37Z</time>
   </trkpt>
   <trkpt lat="31.7359450" lon="35.1186980">
    <ele>518.0</ele>
    <time>2018-09-22T06:07:38Z</time>
   </trkpt>
   <trkpt lat="31.7359160" lon="35.1187140">
    <ele>518.0</ele>
    <time>2018-09-22T06:07:39Z</time>
   </trkpt>
   <trkpt lat="31.7358850" lon="35.1187330">
    <ele>520.5</ele>
    <time>2018-09-22T06:07:40Z</time>
   </trkpt>
   <trkpt lat="31.7357530" lon="35.1188110">
    <ele>548.0</ele>
    <time>2018-09-22T06:07:46Z</time>
   </trkpt>
   <trkpt lat="31.7357450" lon="35.1188460">
    <ele>548.0</ele>
    <time>2018-09-22T06:07:48Z</time>
   </trkpt>
   <trkpt lat="31.7357000" lon="35.1188760">
    <ele>548.0</ele>
    <time>2018-09-22T06:07:50Z</time>
   </trkpt>
   <trkpt lat="31.7356560" lon="35.1189240">
    <ele>548.0</ele>
    <time>2018-09-22T06:07:53Z</time>
   </trkpt>
   <trkpt lat="31.7356210" lon="35.1189490">
    <ele>548.0</ele>
    <time>2018-09-22T06:07:56Z</time>
   </trkpt>
   <trkpt lat="31.7355780" lon="35.1189760">
    <ele>548.0</ele>
    <time>2018-09-22T06:07:58Z</time>
   </trkpt>
   <trkpt lat="31.7355400" lon="35.1189950">
    <ele>548.0</ele>
    <time>2018-09-22T06:08:00Z</time>
   </trkpt>
   <trkpt lat="31.7354980" lon="35.1190240">
    <ele>548.0</ele>
    <time>2018-09-22T06:08:03Z</time>
   </trkpt>
   <trkpt lat="31.7354520" lon="35.1190440">
    <ele>548.0</ele>
    <time>2018-09-22T06:08:05Z</time>
   </trkpt>
   <trkpt lat="31.7354130" lon="35.1190650">
    <ele>548.0</ele>
    <time>2018-09-22T06:08:07Z</time>
   </trkpt>
   <trkpt lat="31.7354030" lon="35.1191030">
    <ele>548.0</ele>
    <time>2018-09-22T06:08:11Z</time>
   </trkpt>
   <trkpt lat="31.7354190" lon="35.1190710">
    <ele>548.0</ele>
    <time>2018-09-22T06:08:15Z</time>
   </trkpt>
   <trkpt lat="31.7353980" lon="35.1190230">
    <ele>548.0</ele>
    <time>2018-09-22T06:08:17Z</time>
   </trkpt>
   <trkpt lat="31.7353300" lon="35.1190110">
    <ele>548.0</ele>
    <time>2018-09-22T06:08:18Z</time>
   </trkpt>
   <trkpt lat="31.7353390" lon="35.1190670">
    <ele>548.0</ele>
    <time>2018-09-22T06:08:19Z</time>
   </trkpt>
   <trkpt lat="31.7352850" lon="35.1190720">
    <ele>548.4</ele>
    <time>2018-09-22T06:08:21Z</time>
   </trkpt>
   <trkpt lat="31.7352380" lon="35.1190350">
    <ele>548.8</ele>
    <time>2018-09-22T06:08:23Z</time>
   </trkpt>
   <trkpt lat="31.7352670" lon="35.1190300">
    <ele>549.1</ele>
    <time>2018-09-22T06:08:24Z</time>
   </trkpt>
   <trkpt lat="31.7352300" lon="35.1190060">
    <ele>549.4</ele>
    <time>2018-09-22T06:08:27Z</time>
   </trkpt>
   <trkpt lat="31.7352610" lon="35.1189930">
    <ele>549.6</ele>
    <time>2018-09-22T06:08:29Z</time>
   </trkpt>
   <trkpt lat="31.7352890" lon="35.1189790">
    <ele>549.9</ele>
    <time>2018-09-22T06:08:31Z</time>
   </trkpt>
   <trkpt lat="31.7353030" lon="35.1189490">
    <ele>550.4</ele>
    <time>2018-09-22T06:08:33Z</time>
   </trkpt>
   <trkpt lat="31.7353290" lon="35.1189380">
    <ele>551.0</ele>
    <time>2018-09-22T06:08:35Z</time>
   </trkpt>
   <trkpt lat="31.7353640" lon="35.1189010">
    <ele>551.9</ele>
    <time>2018-09-22T06:08:38Z</time>
   </trkpt>
   <trkpt lat="31.7354130" lon="35.1188590">
    <ele>552.8</ele>
    <time>2018-09-22T06:08:40Z</time>
   </trkpt>
   <trkpt lat="31.7354400" lon="35.1187790">
    <ele>553.4</ele>
    <time>2018-09-22T06:08:44Z</time>
   </trkpt>
   <trkpt lat="31.7354770" lon="35.1187690">
    <ele>553.7</ele>
    <time>2018-09-22T06:08:46Z</time>
   </trkpt>
   <trkpt lat="31.7354760" lon="35.1187350">
    <ele>553.9</ele>
    <time>2018-09-22T06:08:47Z</time>
   </trkpt>
   <trkpt lat="31.7354650" lon="35.1187820">
    <ele>554.4</ele>
    <time>2018-09-22T06:08:48Z</time>
   </trkpt>
   <trkpt lat="31.7354780" lon="35.1187510">
    <ele>554.8</ele>
    <time>2018-09-22T06:08:51Z</time>
   </trkpt>
   <trkpt lat="31.7355000" lon="35.1187070">
    <ele>555.7</ele>
    <time>2018-09-22T06:08:52Z</time>
   </trkpt>
   <trkpt lat="31.7355480" lon="35.1186190">
    <ele>557.6</ele>
    <time>2018-09-22T06:08:55Z</time>
   </trkpt>
   <trkpt lat="31.7355600" lon="35.1185420">
    <ele>558.4</ele>
    <time>2018-09-22T06:08:59Z</time>
   </trkpt>
   <trkpt lat="31.7355760" lon="35.1184980">
    <ele>558.8</ele>
    <time>2018-09-22T06:09:02Z</time>
   </trkpt>
   <trkpt lat="31.7355620" lon="35.1184490">
    <ele>559.8</ele>
    <time>2018-09-22T06:09:05Z</time>
   </trkpt>
   <trkpt lat="31.7355490" lon="35.1183920">
    <ele>561.1</ele>
    <time>2018-09-22T06:09:07Z</time>
   </trkpt>
   <trkpt lat="31.7355590" lon="35.1183610">
    <ele>561.6</ele>
    <time>2018-09-22T06:09:08Z</time>
   </trkpt>
   <trkpt lat="31.7355550" lon="35.1183220">
    <ele>562.0</ele>
    <time>2018-09-22T06:09:11Z</time>
   </trkpt>
   <trkpt lat="31.7355760" lon="35.1182860">
    <ele>562.4</ele>
    <time>2018-09-22T06:09:13Z</time>
   </trkpt>
   <trkpt lat="31.7355900" lon="35.1182570">
    <ele>562.8</ele>
    <time>2018-09-22T06:09:16Z</time>
   </trkpt>
   <trkpt lat="31.7356100" lon="35.1182120">
    <ele>563.4</ele>
    <time>2018-09-22T06:09:18Z</time>
   </trkpt>
   <trkpt lat="31.7356100" lon="35.1181690">
    <ele>564.0</ele>
    <time>2018-09-22T06:09:20Z</time>
   </trkpt>
   <trkpt lat="31.7356010" lon="35.1181200">
    <ele>565.0</ele>
    <time>2018-09-22T06:09:22Z</time>
   </trkpt>
   <trkpt lat="31.7356020" lon="35.1180790">
    <ele>565.8</ele>
    <time>2018-09-22T06:09:24Z</time>
   </trkpt>
   <trkpt lat="31.7355690" lon="35.1180280">
    <ele>566.8</ele>
    <time>2018-09-22T06:09:27Z</time>
   </trkpt>
   <trkpt lat="31.7355850" lon="35.1179890">
    <ele>567.1</ele>
    <time>2018-09-22T06:09:29Z</time>
   </trkpt>
   <trkpt lat="31.7355950" lon="35.1179560">
    <ele>567.4</ele>
    <time>2018-09-22T06:09:31Z</time>
   </trkpt>
   <trkpt lat="31.7356190" lon="35.1179260">
    <ele>567.7</ele>
    <time>2018-09-22T06:09:32Z</time>
   </trkpt>
   <trkpt lat="31.7356310" lon="35.1178960">
    <ele>567.9</ele>
    <time>2018-09-22T06:09:33Z</time>
   </trkpt>
   <trkpt lat="31.7356120" lon="35.1178680">
    <ele>568.3</ele>
    <time>2018-09-22T06:09:37Z</time>
   </trkpt>
   <trkpt lat="31.7355860" lon="35.1178280">
    <ele>569.1</ele>
    <time>2018-09-22T06:09:39Z</time>
   </trkpt>
   <trkpt lat="31.7355900" lon="35.1177770">
    <ele>569.9</ele>
    <time>2018-09-22T06:09:41Z</time>
   </trkpt>
   <trkpt lat="31.7355930" lon="35.1177410">
    <ele>570.3</ele>
    <time>2018-09-22T06:09:43Z</time>
   </trkpt>
   <trkpt lat="31.7355790" lon="35.1176970">
    <ele>570.6</ele>
    <time>2018-09-22T06:09:45Z</time>
   </trkpt>
   <trkpt lat="31.7355980" lon="35.1176700">
    <ele>570.8</ele>
    <time>2018-09-22T06:09:47Z</time>
   </trkpt>
   <trkpt lat="31.7356010" lon="35.1176200">
    <ele>571.1</ele>
    <time>2018-09-22T06:09:49Z</time>
   </trkpt>
   <trkpt lat="31.7355720" lon="35.1175830">
    <ele>571.4</ele>
    <time>2018-09-22T06:09:50Z</time>
   </trkpt>
   <trkpt lat="31.7356070" lon="35.1175180">
    <ele>571.9</ele>
    <time>2018-09-22T06:09:51Z</time>
   </trkpt>
   <trkpt lat="31.7356250" lon="35.1174410">
    <ele>572.7</ele>
    <time>2018-09-22T06:09:53Z</time>
   </trkpt>
   <trkpt lat="31.7356370" lon="35.1173990">
    <ele>573.3</ele>
    <time>2018-09-22T06:09:57Z</time>
   </trkpt>
   <trkpt lat="31.7356490" lon="35.1173570">
    <ele>573.9</ele>
    <time>2018-09-22T06:10:03Z</time>
   </trkpt>
   <trkpt lat="31.7356600" lon="35.1173140">
    <ele>574.5</ele>
    <time>2018-09-22T06:10:07Z</time>
   </trkpt>
   <trkpt lat="31.7356720" lon="35.1172720">
    <ele>574.8</ele>
    <time>2018-09-22T06:10:09Z</time>
   </trkpt>
   <trkpt lat="31.7356840" lon="35.1172300">
    <ele>575.0</ele>
    <time>2018-09-22T06:10:10Z</time>
   </trkpt>
   <trkpt lat="31.7356950" lon="35.1171970">
    <ele>575.2</ele>
    <time>2018-09-22T06:10:12Z</time>
   </trkpt>
   <trkpt lat="31.7357090" lon="35.1171540">
    <ele>575.4</ele>
    <time>2018-09-22T06:10:15Z</time>
   </trkpt>
   <trkpt lat="31.7357250" lon="35.1171070">
    <ele>575.6</ele>
    <time>2018-09-22T06:10:17Z</time>
   </trkpt>
   <trkpt lat="31.7357490" lon="35.1170010">
    <ele>576.3</ele>
    <time>2018-09-22T06:10:19Z</time>
   </trkpt>
   <trkpt lat="31.7357690" lon="35.1169520">
    <ele>576.8</ele>
    <time>2018-09-22T06:10:22Z</time>
   </trkpt>
   <trkpt lat="31.7357860" lon="35.1168910">
    <ele>577.7</ele>
    <time>2018-09-22T06:10:24Z</time>
   </trkpt>
   <trkpt lat="31.7357960" lon="35.1168510">
    <ele>578.2</ele>
    <time>2018-09-22T06:10:25Z</time>
   </trkpt>
   <trkpt lat="31.7358150" lon="35.1167670">
    <ele>579.2</ele>
    <time>2018-09-22T06:10:26Z</time>
   </trkpt>
   <trkpt lat="31.7358350" lon="35.1167890">
    <ele>579.5</ele>
    <time>2018-09-22T06:10:31Z</time>
   </trkpt>
   <trkpt lat="31.7358470" lon="35.1167320">
    <ele>579.9</ele>
    <time>2018-09-22T06:10:33Z</time>
   </trkpt>
   <trkpt lat="31.7358460" lon="35.1166980">
    <ele>580.0</ele>
    <time>2018-09-22T06:10:34Z</time>
   </trkpt>
   <trkpt lat="31.7358360" lon="35.1166620">
    <ele>580.1</ele>
    <time>2018-09-22T06:10:36Z</time>
   </trkpt>
   <trkpt lat="31.7358670" lon="35.1165930">
    <ele>580.3</ele>
    <time>2018-09-22T06:10:38Z</time>
   </trkpt>
   <trkpt lat="31.7359010" lon="35.1165730">
    <ele>580.5</ele>
    <time>2018-09-22T06:10:39Z</time>
   </trkpt>
   <trkpt lat="31.7359000" lon="35.1165300">
    <ele>580.6</ele>
    <time>2018-09-22T06:10:41Z</time>
   </trkpt>
   <trkpt lat="31.7359290" lon="35.1164550">
    <ele>580.9</ele>
    <time>2018-09-22T06:10:42Z</time>
   </trkpt>
   <trkpt lat="31.7359350" lon="35.1163940">
    <ele>581.1</ele>
    <time>2018-09-22T06:10:44Z</time>
   </trkpt>
   <trkpt lat="31.7359570" lon="35.1163280">
    <ele>581.3</ele>
    <time>2018-09-22T06:10:45Z</time>
   </trkpt>
   <trkpt lat="31.7359780" lon="35.1162920">
    <ele>581.7</ele>
    <time>2018-09-22T06:10:49Z</time>
   </trkpt>
   <trkpt lat="31.7359950" lon="35.1162500">
    <ele>582.2</ele>
    <time>2018-09-22T06:10:51Z</time>
   </trkpt>
   <trkpt lat="31.7360190" lon="35.1161880">
    <ele>582.9</ele>
    <time>2018-09-22T06:10:54Z</time>
   </trkpt>
   <trkpt lat="31.7360240" lon="35.1161480">
    <ele>583.3</ele>
    <time>2018-09-22T06:10:56Z</time>
   </trkpt>
   <trkpt lat="31.7360310" lon="35.1161000">
    <ele>583.7</ele>
    <time>2018-09-22T06:10:58Z</time>
   </trkpt>
   <trkpt lat="31.7360470" lon="35.1160470">
    <ele>584.0</ele>
    <time>2018-09-22T06:11:00Z</time>
   </trkpt>
   <trkpt lat="31.7360680" lon="35.1159450">
    <ele>584.5</ele>
    <time>2018-09-22T06:11:02Z</time>
   </trkpt>
   <trkpt lat="31.7360820" lon="35.1158650">
    <ele>584.8</ele>
    <time>2018-09-22T06:11:04Z</time>
   </trkpt>
   <trkpt lat="31.7360930" lon="35.1158350">
    <ele>585.0</ele>
    <time>2018-09-22T06:11:07Z</time>
   </trkpt>
   <trkpt lat="31.7361000" lon="35.1157990">
    <ele>585.1</ele>
    <time>2018-09-22T06:11:09Z</time>
   </trkpt>
   <trkpt lat="31.7361090" lon="35.1157310">
    <ele>585.4</ele>
    <time>2018-09-22T06:11:12Z</time>
   </trkpt>
   <trkpt lat="31.7361240" lon="35.1156560">
    <ele>586.0</ele>
    <time>2018-09-22T06:11:15Z</time>
   </trkpt>
   <trkpt lat="31.7361250" lon="35.1155970">
    <ele>586.7</ele>
    <time>2018-09-22T06:11:17Z</time>
   </trkpt>
   <trkpt lat="31.7361310" lon="35.1155650">
    <ele>587.1</ele>
    <time>2018-09-22T06:11:19Z</time>
   </trkpt>
   <trkpt lat="31.7361370" lon="35.1154650">
    <ele>588.2</ele>
    <time>2018-09-22T06:11:21Z</time>
   </trkpt>
   <trkpt lat="31.7361280" lon="35.1154140">
    <ele>588.7</ele>
    <time>2018-09-22T06:11:23Z</time>
   </trkpt>
   <trkpt lat="31.7361190" lon="35.1153830">
    <ele>589.0</ele>
    <time>2018-09-22T06:11:25Z</time>
   </trkpt>
   <trkpt lat="31.7361090" lon="35.1153460">
    <ele>589.4</ele>
    <time>2018-09-22T06:11:27Z</time>
   </trkpt>
   <trkpt lat="31.7361070" lon="35.1153060">
    <ele>589.9</ele>
    <time>2018-09-22T06:11:28Z</time>
   </trkpt>
   <trkpt lat="31.7361000" lon="35.1152740">
    <ele>590.3</ele>
    <time>2018-09-22T06:11:29Z</time>
   </trkpt>
   <trkpt lat="31.7360750" lon="35.1152410">
    <ele>591.0</ele>
    <time>2018-09-22T06:11:31Z</time>
   </trkpt>
   <trkpt lat="31.7360720" lon="35.1151990">
    <ele>591.6</ele>
    <time>2018-09-22T06:11:33Z</time>
   </trkpt>
   <trkpt lat="31.7360550" lon="35.1151560">
    <ele>592.3</ele>
    <time>2018-09-22T06:11:35Z</time>
   </trkpt>
   <trkpt lat="31.7360390" lon="35.1151110">
    <ele>592.9</ele>
    <time>2018-09-22T06:11:37Z</time>
   </trkpt>
   <trkpt lat="31.7360250" lon="35.1150730">
    <ele>593.3</ele>
    <time>2018-09-22T06:11:39Z</time>
   </trkpt>
   <trkpt lat="31.7360020" lon="35.1150370">
    <ele>593.8</ele>
    <time>2018-09-22T06:11:41Z</time>
   </trkpt>
   <trkpt lat="31.7359870" lon="35.1150080">
    <ele>594.4</ele>
    <time>2018-09-22T06:11:42Z</time>
   </trkpt>
   <trkpt lat="31.7359740" lon="35.1149600">
    <ele>595.2</ele>
    <time>2018-09-22T06:11:44Z</time>
   </trkpt>
   <trkpt lat="31.7359540" lon="35.1149270">
    <ele>595.9</ele>
    <time>2018-09-22T06:11:46Z</time>
   </trkpt>
   <trkpt lat="31.7359330" lon="35.1148910">
    <ele>596.6</ele>
    <time>2018-09-22T06:11:48Z</time>
   </trkpt>
   <trkpt lat="31.7359230" lon="35.1148490">
    <ele>597.0</ele>
    <time>2018-09-22T06:11:50Z</time>
   </trkpt>
   <trkpt lat="31.7359280" lon="35.1148080">
    <ele>597.9</ele>
    <time>2018-09-22T06:11:52Z</time>
   </trkpt>
   <trkpt lat="31.7359390" lon="35.1147600">
    <ele>597.9</ele>
    <time>2018-09-22T06:11:54Z</time>
   </trkpt>
   <trkpt lat="31.7359470" lon="35.1147220">
    <ele>597.9</ele>
    <time>2018-09-22T06:11:55Z</time>
   </trkpt>
   <trkpt lat="31.7359840" lon="35.1146660">
    <ele>597.9</ele>
    <time>2018-09-22T06:11:58Z</time>
   </trkpt>
   <trkpt lat="31.7360210" lon="35.1146430">
    <ele>597.9</ele>
    <time>2018-09-22T06:12:01Z</time>
   </trkpt>
   <trkpt lat="31.7360500" lon="35.1146130">
    <ele>598.0</ele>
    <time>2018-09-22T06:12:03Z</time>
   </trkpt>
   <trkpt lat="31.7360790" lon="35.1145730">
    <ele>598.1</ele>
    <time>2018-09-22T06:12:05Z</time>
   </trkpt>
   <trkpt lat="31.7360930" lon="35.1145370">
    <ele>598.2</ele>
    <time>2018-09-22T06:12:06Z</time>
   </trkpt>
   <trkpt lat="31.7361330" lon="35.1144950">
    <ele>598.2</ele>
    <time>2018-09-22T06:12:09Z</time>
   </trkpt>
   <trkpt lat="31.7361450" lon="35.1144450">
    <ele>598.2</ele>
    <time>2018-09-22T06:12:10Z</time>
   </trkpt>
   <trkpt lat="31.7361820" lon="35.1144290">
    <ele>598.3</ele>
    <time>2018-09-22T06:12:13Z</time>
   </trkpt>
   <trkpt lat="31.7362040" lon="35.1143850">
    <ele>598.3</ele>
    <time>2018-09-22T06:12:14Z</time>
   </trkpt>
   <trkpt lat="31.7361770" lon="35.1144430">
    <ele>598.4</ele>
    <time>2018-09-22T06:12:15Z</time>
   </trkpt>
   <trkpt lat="31.7362000" lon="35.1143610">
    <ele>598.5</ele>
    <time>2018-09-22T06:12:16Z</time>
   </trkpt>
   <trkpt lat="31.7362390" lon="35.1143670">
    <ele>598.6</ele>
    <time>2018-09-22T06:12:18Z</time>
   </trkpt>
   <trkpt lat="31.7362600" lon="35.1143380">
    <ele>598.8</ele>
    <time>2018-09-22T06:12:20Z</time>
   </trkpt>
   <trkpt lat="31.7362800" lon="35.1143100">
    <ele>598.8</ele>
    <time>2018-09-22T06:12:21Z</time>
   </trkpt>
   <trkpt lat="31.7363000" lon="35.1142390">
    <ele>598.8</ele>
    <time>2018-09-22T06:12:22Z</time>
   </trkpt>
   <trkpt lat="31.7363110" lon="35.1142980">
    <ele>598.9</ele>
    <time>2018-09-22T06:12:25Z</time>
   </trkpt>
   <trkpt lat="31.7363360" lon="35.1142480">
    <ele>598.9</ele>
    <time>2018-09-22T06:12:26Z</time>
   </trkpt>
   <trkpt lat="31.7363680" lon="35.1141840">
    <ele>599.0</ele>
    <time>2018-09-22T06:12:28Z</time>
   </trkpt>
   <trkpt lat="31.7363770" lon="35.1141420">
    <ele>599.0</ele>
    <time>2018-09-22T06:12:30Z</time>
   </trkpt>
   <trkpt lat="31.7364040" lon="35.1141260">
    <ele>599.1</ele>
    <time>2018-09-22T06:12:33Z</time>
   </trkpt>
   <trkpt lat="31.7364360" lon="35.1140900">
    <ele>599.2</ele>
    <time>2018-09-22T06:12:36Z</time>
   </trkpt>
   <trkpt lat="31.7364390" lon="35.1140340">
    <ele>599.2</ele>
    <time>2018-09-22T06:12:37Z</time>
   </trkpt>
   <trkpt lat="31.7364400" lon="35.1139800">
    <ele>599.1</ele>
    <time>2018-09-22T06:12:40Z</time>
   </trkpt>
   <trkpt lat="31.7364560" lon="35.1139400">
    <ele>599.1</ele>
    <time>2018-09-22T06:12:42Z</time>
   </trkpt>
   <trkpt lat="31.7364810" lon="35.1138670">
    <ele>599.1</ele>
    <time>2018-09-22T06:12:44Z</time>
   </trkpt>
   <trkpt lat="31.7365050" lon="35.1137950">
    <ele>599.0</ele>
    <time>2018-09-22T06:12:45Z</time>
   </trkpt>
   <trkpt lat="31.7365190" lon="35.1137640">
    <ele>599.0</ele>
    <time>2018-09-22T06:12:46Z</time>
   </trkpt>
   <trkpt lat="31.7365490" lon="35.1136960">
    <ele>599.0</ele>
    <time>2018-09-22T06:12:47Z</time>
   </trkpt>
   <trkpt lat="31.7365610" lon="35.1136540">
    <ele>599.0</ele>
    <time>2018-09-22T06:12:48Z</time>
   </trkpt>
   <trkpt lat="31.7365770" lon="35.1136260">
    <ele>599.0</ele>
    <time>2018-09-22T06:12:50Z</time>
   </trkpt>
   <trkpt lat="31.7365890" lon="35.1135740">
    <ele>598.9</ele>
    <time>2018-09-22T06:12:51Z</time>
   </trkpt>
   <trkpt lat="31.7366090" lon="35.1135510">
    <ele>598.9</ele>
    <time>2018-09-22T06:12:55Z</time>
   </trkpt>
   <trkpt lat="31.7366160" lon="35.1135090">
    <ele>598.9</ele>
    <time>2018-09-22T06:12:58Z</time>
   </trkpt>
   <trkpt lat="31.7366570" lon="35.1134710">
    <ele>598.9</ele>
    <time>2018-09-22T06:13:03Z</time>
   </trkpt>
   <trkpt lat="31.7366800" lon="35.1133970">
    <ele>598.8</ele>
    <time>2018-09-22T06:13:05Z</time>
   </trkpt>
   <trkpt lat="31.7366500" lon="35.1133640">
    <ele>598.8</ele>
    <time>2018-09-22T06:13:06Z</time>
   </trkpt>
   <trkpt lat="31.7366940" lon="35.1132320">
    <ele>598.8</ele>
    <time>2018-09-22T06:13:07Z</time>
   </trkpt>
   <trkpt lat="31.7367030" lon="35.1131890">
    <ele>598.8</ele>
    <time>2018-09-22T06:13:08Z</time>
   </trkpt>
   <trkpt lat="31.7367300" lon="35.1130930">
    <ele>598.8</ele>
    <time>2018-09-22T06:13:11Z</time>
   </trkpt>
   <trkpt lat="31.7367500" lon="35.1129900">
    <ele>598.8</ele>
    <time>2018-09-22T06:13:14Z</time>
   </trkpt>
   <trkpt lat="31.7367700" lon="35.1129370">
    <ele>598.9</ele>
    <time>2018-09-22T06:13:16Z</time>
   </trkpt>
   <trkpt lat="31.7367870" lon="35.1129020">
    <ele>599.0</ele>
    <time>2018-09-22T06:13:17Z</time>
   </trkpt>
   <trkpt lat="31.7368390" lon="35.1128120">
    <ele>599.2</ele>
    <time>2018-09-22T06:13:19Z</time>
   </trkpt>
   <trkpt lat="31.7368560" lon="35.1127810">
    <ele>599.2</ele>
    <time>2018-09-22T06:13:20Z</time>
   </trkpt>
   <trkpt lat="31.7369050" lon="35.1126740">
    <ele>599.2</ele>
    <time>2018-09-22T06:13:21Z</time>
   </trkpt>
   <trkpt lat="31.7369420" lon="35.1126330">
    <ele>599.2</ele>
    <time>2018-09-22T06:13:22Z</time>
   </trkpt>
   <trkpt lat="31.7369760" lon="35.1125810">
    <ele>599.3</ele>
    <time>2018-09-22T06:13:23Z</time>
   </trkpt>
   <trkpt lat="31.7370060" lon="35.1125190">
    <ele>599.3</ele>
    <time>2018-09-22T06:13:25Z</time>
   </trkpt>
   <trkpt lat="31.7370240" lon="35.1124940">
    <ele>599.3</ele>
    <time>2018-09-22T06:13:26Z</time>
   </trkpt>
   <trkpt lat="31.7370290" lon="35.1124250">
    <ele>599.3</ele>
    <time>2018-09-22T06:13:28Z</time>
   </trkpt>
   <trkpt lat="31.7370370" lon="35.1123910">
    <ele>599.3</ele>
    <time>2018-09-22T06:13:29Z</time>
   </trkpt>
   <trkpt lat="31.7370400" lon="35.1123370">
    <ele>599.3</ele>
    <time>2018-09-22T06:13:31Z</time>
   </trkpt>
   <trkpt lat="31.7370530" lon="35.1122910">
    <ele>599.4</ele>
    <time>2018-09-22T06:13:33Z</time>
   </trkpt>
   <trkpt lat="31.7370700" lon="35.1122560">
    <ele>599.4</ele>
    <time>2018-09-22T06:13:34Z</time>
   </trkpt>
   <trkpt lat="31.7370860" lon="35.1122090">
    <ele>599.4</ele>
    <time>2018-09-22T06:13:35Z</time>
   </trkpt>
   <trkpt lat="31.7371240" lon="35.1120680">
    <ele>599.7</ele>
    <time>2018-09-22T06:13:36Z</time>
   </trkpt>
   <trkpt lat="31.7371550" lon="35.1120290">
    <ele>599.8</ele>
    <time>2018-09-22T06:13:38Z</time>
   </trkpt>
   <trkpt lat="31.7372010" lon="35.1119650">
    <ele>599.8</ele>
    <time>2018-09-22T06:13:40Z</time>
   </trkpt>
   <trkpt lat="31.7372310" lon="35.1118940">
    <ele>600.0</ele>
    <time>2018-09-22T06:13:42Z</time>
   </trkpt>
   <trkpt lat="31.7372650" lon="35.1118220">
    <ele>600.2</ele>
    <time>2018-09-22T06:13:43Z</time>
   </trkpt>
   <trkpt lat="31.7372940" lon="35.1117890">
    <ele>600.3</ele>
    <time>2018-09-22T06:13:44Z</time>
   </trkpt>
   <trkpt lat="31.7373050" lon="35.1117600">
    <ele>600.4</ele>
    <time>2018-09-22T06:13:45Z</time>
   </trkpt>
   <trkpt lat="31.7373420" lon="35.1117320">
    <ele>600.5</ele>
    <time>2018-09-22T06:13:47Z</time>
   </trkpt>
   <trkpt lat="31.7373550" lon="35.1116800">
    <ele>600.6</ele>
    <time>2018-09-22T06:13:48Z</time>
   </trkpt>
   <trkpt lat="31.7373630" lon="35.1116420">
    <ele>600.7</ele>
    <time>2018-09-22T06:13:49Z</time>
   </trkpt>
   <trkpt lat="31.7373730" lon="35.1115600">
    <ele>600.7</ele>
    <time>2018-09-22T06:13:50Z</time>
   </trkpt>
   <trkpt lat="31.7373660" lon="35.1114740">
    <ele>600.8</ele>
    <time>2018-09-22T06:13:58Z</time>
   </trkpt>
   <trkpt lat="31.7373470" lon="35.1114350">
    <ele>600.8</ele>
    <time>2018-09-22T06:14:00Z</time>
   </trkpt>
   <trkpt lat="31.7373380" lon="35.1113860">
    <ele>600.9</ele>
    <time>2018-09-22T06:14:02Z</time>
   </trkpt>
   <trkpt lat="31.7373290" lon="35.1113530">
    <ele>600.9</ele>
    <time>2018-09-22T06:14:03Z</time>
   </trkpt>
   <trkpt lat="31.7373090" lon="35.1113090">
    <ele>601.0</ele>
    <time>2018-09-22T06:14:05Z</time>
   </trkpt>
   <trkpt lat="31.7372910" lon="35.1112730">
    <ele>601.1</ele>
    <time>2018-09-22T06:14:07Z</time>
   </trkpt>
   <trkpt lat="31.7372700" lon="35.1112490">
    <ele>601.1</ele>
    <time>2018-09-22T06:14:08Z</time>
   </trkpt>
   <trkpt lat="31.7372640" lon="35.1112180">
    <ele>601.1</ele>
    <time>2018-09-22T06:14:09Z</time>
   </trkpt>
   <trkpt lat="31.7372550" lon="35.1111820">
    <ele>601.1</ele>
    <time>2018-09-22T06:14:11Z</time>
   </trkpt>
   <trkpt lat="31.7372370" lon="35.1111360">
    <ele>601.1</ele>
    <time>2018-09-22T06:14:13Z</time>
   </trkpt>
   <trkpt lat="31.7372050" lon="35.1110870">
    <ele>601.1</ele>
    <time>2018-09-22T06:14:15Z</time>
   </trkpt>
   <trkpt lat="31.7371690" lon="35.1110510">
    <ele>601.1</ele>
    <time>2018-09-22T06:14:17Z</time>
   </trkpt>
   <trkpt lat="31.7371270" lon="35.1109980">
    <ele>601.1</ele>
    <time>2018-09-22T06:14:19Z</time>
   </trkpt>
   <trkpt lat="31.7370980" lon="35.1109650">
    <ele>601.1</ele>
    <time>2018-09-22T06:14:21Z</time>
   </trkpt>
   <trkpt lat="31.7370640" lon="35.1109490">
    <ele>601.2</ele>
    <time>2018-09-22T06:14:23Z</time>
   </trkpt>
   <trkpt lat="31.7370330" lon="35.1109160">
    <ele>601.2</ele>
    <time>2018-09-22T06:14:24Z</time>
   </trkpt>
   <trkpt lat="31.7370070" lon="35.1108920">
    <ele>601.2</ele>
    <time>2018-09-22T06:14:25Z</time>
   </trkpt>
   <trkpt lat="31.7369840" lon="35.1108650">
    <ele>601.3</ele>
    <time>2018-09-22T06:14:26Z</time>
   </trkpt>
   <trkpt lat="31.7369250" lon="35.1108510">
    <ele>601.2</ele>
    <time>2018-09-22T06:14:28Z</time>
   </trkpt>
   <trkpt lat="31.7368860" lon="35.1108240">
    <ele>601.1</ele>
    <time>2018-09-22T06:14:29Z</time>
   </trkpt>
   <trkpt lat="31.7368490" lon="35.1108010">
    <ele>601.1</ele>
    <time>2018-09-22T06:14:30Z</time>
   </trkpt>
   <trkpt lat="31.7368230" lon="35.1107730">
    <ele>601.0</ele>
    <time>2018-09-22T06:14:31Z</time>
   </trkpt>
   <trkpt lat="31.7367980" lon="35.1107420">
    <ele>600.9</ele>
    <time>2018-09-22T06:14:32Z</time>
   </trkpt>
   <trkpt lat="31.7367510" lon="35.1107040">
    <ele>600.8</ele>
    <time>2018-09-22T06:14:33Z</time>
   </trkpt>
   <trkpt lat="31.7367100" lon="35.1106820">
    <ele>600.6</ele>
    <time>2018-09-22T06:14:34Z</time>
   </trkpt>
   <trkpt lat="31.7366750" lon="35.1106590">
    <ele>600.4</ele>
    <time>2018-09-22T06:14:35Z</time>
   </trkpt>
   <trkpt lat="31.7366400" lon="35.1106510">
    <ele>600.2</ele>
    <time>2018-09-22T06:14:36Z</time>
   </trkpt>
   <trkpt lat="31.7365770" lon="35.1106310">
    <ele>599.7</ele>
    <time>2018-09-22T06:14:37Z</time>
   </trkpt>
   <trkpt lat="31.7365200" lon="35.1105990">
    <ele>599.2</ele>
    <time>2018-09-22T06:14:38Z</time>
   </trkpt>
   <trkpt lat="31.7364820" lon="35.1105680">
    <ele>598.9</ele>
    <time>2018-09-22T06:14:39Z</time>
   </trkpt>
   <trkpt lat="31.7364120" lon="35.1105220">
    <ele>598.6</ele>
    <time>2018-09-22T06:14:40Z</time>
   </trkpt>
   <trkpt lat="31.7363650" lon="35.1104860">
    <ele>598.5</ele>
    <time>2018-09-22T06:14:41Z</time>
   </trkpt>
   <trkpt lat="31.7363180" lon="35.1104570">
    <ele>598.3</ele>
    <time>2018-09-22T06:14:42Z</time>
   </trkpt>
   <trkpt lat="31.7362750" lon="35.1104490">
    <ele>598.2</ele>
    <time>2018-09-22T06:14:43Z</time>
   </trkpt>
   <trkpt lat="31.7362210" lon="35.1104240">
    <ele>598.0</ele>
    <time>2018-09-22T06:14:44Z</time>
   </trkpt>
   <trkpt lat="31.7361790" lon="35.1103920">
    <ele>597.9</ele>
    <time>2018-09-22T06:14:45Z</time>
   </trkpt>
   <trkpt lat="31.7361300" lon="35.1103540">
    <ele>597.7</ele>
    <time>2018-09-22T06:14:46Z</time>
   </trkpt>
   <trkpt lat="31.7360690" lon="35.1103440">
    <ele>597.6</ele>
    <time>2018-09-22T06:14:47Z</time>
   </trkpt>
   <trkpt lat="31.7360200" lon="35.1103190">
    <ele>597.4</ele>
    <time>2018-09-22T06:14:48Z</time>
   </trkpt>
   <trkpt lat="31.7359540" lon="35.1103050">
    <ele>597.0</ele>
    <time>2018-09-22T06:14:49Z</time>
   </trkpt>
   <trkpt lat="31.7358710" lon="35.1103370">
    <ele>596.3</ele>
    <time>2018-09-22T06:14:50Z</time>
   </trkpt>
   <trkpt lat="31.7358130" lon="35.1102920">
    <ele>595.7</ele>
    <time>2018-09-22T06:14:51Z</time>
   </trkpt>
   <trkpt lat="31.7357360" lon="35.1103140">
    <ele>595.0</ele>
    <time>2018-09-22T06:14:52Z</time>
   </trkpt>
   <trkpt lat="31.7356690" lon="35.1103110">
    <ele>594.5</ele>
    <time>2018-09-22T06:14:53Z</time>
   </trkpt>
   <trkpt lat="31.7356040" lon="35.1102540">
    <ele>594.0</ele>
    <time>2018-09-22T06:14:54Z</time>
   </trkpt>
   <trkpt lat="31.7355230" lon="35.1102450">
    <ele>593.7</ele>
    <time>2018-09-22T06:14:55Z</time>
   </trkpt>
   <trkpt lat="31.7354770" lon="35.1102020">
    <ele>593.4</ele>
    <time>2018-09-22T06:14:56Z</time>
   </trkpt>
   <trkpt lat="31.7354000" lon="35.1101720">
    <ele>593.0</ele>
    <time>2018-09-22T06:14:57Z</time>
   </trkpt>
   <trkpt lat="31.7353110" lon="35.1101800">
    <ele>592.1</ele>
    <time>2018-09-22T06:14:58Z</time>
   </trkpt>
   <trkpt lat="31.7352300" lon="35.1102220">
    <ele>591.0</ele>
    <time>2018-09-22T06:14:59Z</time>
   </trkpt>
   <trkpt lat="31.7351570" lon="35.1102090">
    <ele>589.7</ele>
    <time>2018-09-22T06:15:00Z</time>
   </trkpt>
   <trkpt lat="31.7350800" lon="35.1101850">
    <ele>587.9</ele>
    <time>2018-09-22T06:15:01Z</time>
   </trkpt>
   <trkpt lat="31.7350320" lon="35.1101520">
    <ele>587.2</ele>
    <time>2018-09-22T06:15:02Z</time>
   </trkpt>
   <trkpt lat="31.7349960" lon="35.1101180">
    <ele>586.8</ele>
    <time>2018-09-22T06:15:03Z</time>
   </trkpt>
   <trkpt lat="31.7349460" lon="35.1100720">
    <ele>586.4</ele>
    <time>2018-09-22T06:15:04Z</time>
   </trkpt>
   <trkpt lat="31.7349180" lon="35.1100070">
    <ele>585.7</ele>
    <time>2018-09-22T06:15:06Z</time>
   </trkpt>
   <trkpt lat="31.7350000" lon="35.1100110">
    <ele>585.0</ele>
    <time>2018-09-22T06:15:08Z</time>
   </trkpt>
   <trkpt lat="31.7350380" lon="35.1099600">
    <ele>585.0</ele>
    <time>2018-09-22T06:15:09Z</time>
   </trkpt>
   <trkpt lat="31.7350720" lon="35.1098710">
    <ele>585.0</ele>
    <time>2018-09-22T06:15:10Z</time>
   </trkpt>
   <trkpt lat="31.7351230" lon="35.1097400">
    <ele>584.9</ele>
    <time>2018-09-22T06:15:11Z</time>
   </trkpt>
   <trkpt lat="31.7351640" lon="35.1096710">
    <ele>584.9</ele>
    <time>2018-09-22T06:15:12Z</time>
   </trkpt>
   <trkpt lat="31.7352240" lon="35.1096450">
    <ele>584.9</ele>
    <time>2018-09-22T06:15:13Z</time>
   </trkpt>
   <trkpt lat="31.7352730" lon="35.1096100">
    <ele>584.9</ele>
    <time>2018-09-22T06:15:14Z</time>
   </trkpt>
   <trkpt lat="31.7353530" lon="35.1095540">
    <ele>584.9</ele>
    <time>2018-09-22T06:15:15Z</time>
   </trkpt>
   <trkpt lat="31.7353790" lon="35.1095460">
    <ele>585.0</ele>
    <time>2018-09-22T06:15:16Z</time>
   </trkpt>
   <trkpt lat="31.7354370" lon="35.1095210">
    <ele>585.0</ele>
    <time>2018-09-22T06:15:17Z</time>
   </trkpt>
   <trkpt lat="31.7354750" lon="35.1094140">
    <ele>585.0</ele>
    <time>2018-09-22T06:15:18Z</time>
   </trkpt>
   <trkpt lat="31.7355340" lon="35.1094110">
    <ele>585.1</ele>
    <time>2018-09-22T06:15:19Z</time>
   </trkpt>
   <trkpt lat="31.7356040" lon="35.1093550">
    <ele>585.3</ele>
    <time>2018-09-22T06:15:20Z</time>
   </trkpt>
   <trkpt lat="31.7356600" lon="35.1093390">
    <ele>585.5</ele>
    <time>2018-09-22T06:15:21Z</time>
   </trkpt>
   <trkpt lat="31.7357230" lon="35.1093170">
    <ele>585.9</ele>
    <time>2018-09-22T06:15:22Z</time>
   </trkpt>
   <trkpt lat="31.7357640" lon="35.1093170">
    <ele>586.0</ele>
    <time>2018-09-22T06:15:23Z</time>
   </trkpt>
   <trkpt lat="31.7358420" lon="35.1093440">
    <ele>586.3</ele>
    <time>2018-09-22T06:15:25Z</time>
   </trkpt>
   <trkpt lat="31.7358700" lon="35.1093500">
    <ele>586.4</ele>
    <time>2018-09-22T06:15:26Z</time>
   </trkpt>
   <trkpt lat="31.7359180" lon="35.1093770">
    <ele>586.7</ele>
    <time>2018-09-22T06:15:28Z</time>
   </trkpt>
   <trkpt lat="31.7359480" lon="35.1093880">
    <ele>586.9</ele>
    <time>2018-09-22T06:15:29Z</time>
   </trkpt>
   <trkpt lat="31.7359950" lon="35.1093900">
    <ele>587.2</ele>
    <time>2018-09-22T06:15:30Z</time>
   </trkpt>
   <trkpt lat="31.7360290" lon="35.1093840">
    <ele>587.4</ele>
    <time>2018-09-22T06:15:31Z</time>
   </trkpt>
   <trkpt lat="31.7360820" lon="35.1093730">
    <ele>587.6</ele>
    <time>2018-09-22T06:15:33Z</time>
   </trkpt>
   <trkpt lat="31.7361340" lon="35.1093680">
    <ele>587.8</ele>
    <time>2018-09-22T06:15:35Z</time>
   </trkpt>
   <trkpt lat="31.7361580" lon="35.1093430">
    <ele>587.9</ele>
    <time>2018-09-22T06:15:36Z</time>
   </trkpt>
   <trkpt lat="31.7361930" lon="35.1093430">
    <ele>588.0</ele>
    <time>2018-09-22T06:15:38Z</time>
   </trkpt>
   <trkpt lat="31.7362230" lon="35.1093590">
    <ele>588.0</ele>
    <time>2018-09-22T06:15:39Z</time>
   </trkpt>
   <trkpt lat="31.7362670" lon="35.1093700">
    <ele>588.2</ele>
    <time>2018-09-22T06:15:40Z</time>
   </trkpt>
   <trkpt lat="31.7363110" lon="35.1093750">
    <ele>588.5</ele>
    <time>2018-09-22T06:15:41Z</time>
   </trkpt>
   <trkpt lat="31.7363650" lon="35.1093880">
    <ele>588.8</ele>
    <time>2018-09-22T06:15:42Z</time>
   </trkpt>
   <trkpt lat="31.7363920" lon="35.1093740">
    <ele>588.8</ele>
    <time>2018-09-22T06:15:43Z</time>
   </trkpt>
   <trkpt lat="31.7364170" lon="35.1093600">
    <ele>588.9</ele>
    <time>2018-09-22T06:15:45Z</time>
   </trkpt>
   <trkpt lat="31.7364510" lon="35.1093450">
    <ele>589.0</ele>
    <time>2018-09-22T06:15:47Z</time>
   </trkpt>
   <trkpt lat="31.7364970" lon="35.1093330">
    <ele>589.1</ele>
    <time>2018-09-22T06:15:49Z</time>
   </trkpt>
   <trkpt lat="31.7365450" lon="35.1093260">
    <ele>589.2</ele>
    <time>2018-09-22T06:15:51Z</time>
   </trkpt>
   <trkpt lat="31.7365750" lon="35.1093070">
    <ele>589.3</ele>
    <time>2018-09-22T06:15:52Z</time>
   </trkpt>
   <trkpt lat="31.7366200" lon="35.1093100">
    <ele>589.4</ele>
    <time>2018-09-22T06:15:54Z</time>
   </trkpt>
   <trkpt lat="31.7366490" lon="35.1093020">
    <ele>589.4</ele>
    <time>2018-09-22T06:15:55Z</time>
   </trkpt>
   <trkpt lat="31.7366830" lon="35.1092960">
    <ele>589.5</ele>
    <time>2018-09-22T06:15:56Z</time>
   </trkpt>
   <trkpt lat="31.7367190" lon="35.1092740">
    <ele>589.6</ele>
    <time>2018-09-22T06:15:57Z</time>
   </trkpt>
   <trkpt lat="31.7367540" lon="35.1092560">
    <ele>589.8</ele>
    <time>2018-09-22T06:15:58Z</time>
   </trkpt>
   <trkpt lat="31.7367990" lon="35.1092500">
    <ele>590.1</ele>
    <time>2018-09-22T06:16:00Z</time>
   </trkpt>
   <trkpt lat="31.7368390" lon="35.1092500">
    <ele>590.2</ele>
    <time>2018-09-22T06:16:01Z</time>
   </trkpt>
   <trkpt lat="31.7368700" lon="35.1092510">
    <ele>590.2</ele>
    <time>2018-09-22T06:16:02Z</time>
   </trkpt>
   <trkpt lat="31.7368900" lon="35.1092250">
    <ele>590.3</ele>
    <time>2018-09-22T06:16:03Z</time>
   </trkpt>
   <trkpt lat="31.7369370" lon="35.1091930">
    <ele>590.3</ele>
    <time>2018-09-22T06:16:05Z</time>
   </trkpt>
   <trkpt lat="31.7369720" lon="35.1091910">
    <ele>590.3</ele>
    <time>2018-09-22T06:16:07Z</time>
   </trkpt>
   <trkpt lat="31.7370100" lon="35.1091520">
    <ele>590.3</ele>
    <time>2018-09-22T06:16:09Z</time>
   </trkpt>
   <trkpt lat="31.7370500" lon="35.1091350">
    <ele>590.3</ele>
    <time>2018-09-22T06:16:11Z</time>
   </trkpt>
   <trkpt lat="31.7370870" lon="35.1091280">
    <ele>590.3</ele>
    <time>2018-09-22T06:16:13Z</time>
   </trkpt>
   <trkpt lat="31.7371110" lon="35.1090970">
    <ele>590.3</ele>
    <time>2018-09-22T06:16:14Z</time>
   </trkpt>
   <trkpt lat="31.7371410" lon="35.1090890">
    <ele>590.3</ele>
    <time>2018-09-22T06:16:15Z</time>
   </trkpt>
   <trkpt lat="31.7371750" lon="35.1090640">
    <ele>590.3</ele>
    <time>2018-09-22T06:16:17Z</time>
   </trkpt>
   <trkpt lat="31.7372120" lon="35.1090630">
    <ele>590.3</ele>
    <time>2018-09-22T06:16:19Z</time>
   </trkpt>
   <trkpt lat="31.7372400" lon="35.1090530">
    <ele>590.3</ele>
    <time>2018-09-22T06:16:22Z</time>
   </trkpt>
   <trkpt lat="31.7372700" lon="35.1090430">
    <ele>590.3</ele>
    <time>2018-09-22T06:16:24Z</time>
   </trkpt>
   <trkpt lat="31.7372540" lon="35.1090750">
    <ele>590.3</ele>
    <time>2018-09-22T06:16:25Z</time>
   </trkpt>
   <trkpt lat="31.7372460" lon="35.1090440">
    <ele>590.3</ele>
    <time>2018-09-22T06:16:34Z</time>
   </trkpt>
   <trkpt lat="31.7372860" lon="35.1090580">
    <ele>590.3</ele>
    <time>2018-09-22T06:18:07Z</time>
   </trkpt>
   <trkpt lat="31.7372320" lon="35.1090830">
    <ele>590.3</ele>
    <time>2018-09-22T06:19:04Z</time>
   </trkpt>
   <trkpt lat="31.7372660" lon="35.1090990">
    <ele>590.4</ele>
    <time>2018-09-22T06:19:06Z</time>
   </trkpt>
   <trkpt lat="31.7372940" lon="35.1091010">
    <ele>590.4</ele>
    <time>2018-09-22T06:19:14Z</time>
   </trkpt>
   <trkpt lat="31.7372680" lon="35.1090830">
    <ele>590.4</ele>
    <time>2018-09-22T06:21:11Z</time>
   </trkpt>
   <trkpt lat="31.7372560" lon="35.1090350">
    <ele>590.4</ele>
    <time>2018-09-22T06:21:14Z</time>
   </trkpt>
   <trkpt lat="31.7372830" lon="35.1090450">
    <ele>590.4</ele>
    <time>2018-09-22T06:21:18Z</time>
   </trkpt>
   <trkpt lat="31.7373160" lon="35.1090550">
    <ele>590.4</ele>
    <time>2018-09-22T06:21:20Z</time>
   </trkpt>
   <trkpt lat="31.7373340" lon="35.1090140">
    <ele>590.4</ele>
    <time>2018-09-22T06:21:21Z</time>
   </trkpt>
   <trkpt lat="31.7373640" lon="35.1089980">
    <ele>590.4</ele>
    <time>2018-09-22T06:21:23Z</time>
   </trkpt>
   <trkpt lat="31.7373830" lon="35.1089740">
    <ele>590.4</ele>
    <time>2018-09-22T06:21:24Z</time>
   </trkpt>
   <trkpt lat="31.7374180" lon="35.1089520">
    <ele>590.5</ele>
    <time>2018-09-22T06:21:26Z</time>
   </trkpt>
   <trkpt lat="31.7374540" lon="35.1089450">
    <ele>590.5</ele>
    <time>2018-09-22T06:21:28Z</time>
   </trkpt>
   <trkpt lat="31.7374790" lon="35.1089150">
    <ele>590.6</ele>
    <time>2018-09-22T06:21:30Z</time>
   </trkpt>
   <trkpt lat="31.7375100" lon="35.1089110">
    <ele>590.6</ele>
    <time>2018-09-22T06:21:34Z</time>
   </trkpt>
   <trkpt lat="31.7375390" lon="35.1088790">
    <ele>590.6</ele>
    <time>2018-09-22T06:21:36Z</time>
   </trkpt>
   <trkpt lat="31.7375660" lon="35.1088460">
    <ele>590.8</ele>
    <time>2018-09-22T06:21:38Z</time>
   </trkpt>
   <trkpt lat="31.7375890" lon="35.1088700">
    <ele>590.9</ele>
    <time>2018-09-22T06:21:42Z</time>
   </trkpt>
   <trkpt lat="31.7376170" lon="35.1088610">
    <ele>591.0</ele>
    <time>2018-09-22T06:22:27Z</time>
   </trkpt>
   <trkpt lat="31.7376380" lon="35.1088360">
    <ele>591.0</ele>
    <time>2018-09-22T06:22:29Z</time>
   </trkpt>
   <trkpt lat="31.7376490" lon="35.1087910">
    <ele>591.1</ele>
    <time>2018-09-22T06:22:31Z</time>
   </trkpt>
   <trkpt lat="31.7376600" lon="35.1087510">
    <ele>591.2</ele>
    <time>2018-09-22T06:22:32Z</time>
   </trkpt>
   <trkpt lat="31.7376960" lon="35.1087660">
    <ele>591.2</ele>
    <time>2018-09-22T06:22:33Z</time>
   </trkpt>
   <trkpt lat="31.7377510" lon="35.1087940">
    <ele>591.2</ele>
    <time>2018-09-22T06:22:34Z</time>
   </trkpt>
   <trkpt lat="31.7378080" lon="35.1088300">
    <ele>591.3</ele>
    <time>2018-09-22T06:22:35Z</time>
   </trkpt>
   <trkpt lat="31.7378760" lon="35.1088620">
    <ele>591.3</ele>
    <time>2018-09-22T06:22:36Z</time>
   </trkpt>
   <trkpt lat="31.7379130" lon="35.1088830">
    <ele>589.8</ele>
    <time>2018-09-22T06:22:37Z</time>
   </trkpt>
   <trkpt lat="31.7379430" lon="35.1089220">
    <ele>589.0</ele>
    <time>2018-09-22T06:22:38Z</time>
   </trkpt>
   <trkpt lat="31.7379790" lon="35.1089730">
    <ele>587.6</ele>
    <time>2018-09-22T06:22:40Z</time>
   </trkpt>
   <trkpt lat="31.7379990" lon="35.1090120">
    <ele>586.1</ele>
    <time>2018-09-22T06:22:41Z</time>
   </trkpt>
   <trkpt lat="31.7380180" lon="35.1090440">
    <ele>585.0</ele>
    <time>2018-09-22T06:22:42Z</time>
   </trkpt>
   <trkpt lat="31.7380410" lon="35.1090980">
    <ele>583.7</ele>
    <time>2018-09-22T06:22:43Z</time>
   </trkpt>
   <trkpt lat="31.7380480" lon="35.1091580">
    <ele>582.8</ele>
    <time>2018-09-22T06:22:44Z</time>
   </trkpt>
   <trkpt lat="31.7380860" lon="35.1091930">
    <ele>581.8</ele>
    <time>2018-09-22T06:22:45Z</time>
   </trkpt>
   <trkpt lat="31.7380810" lon="35.1092330">
    <ele>581.0</ele>
    <time>2018-09-22T06:22:46Z</time>
   </trkpt>
   <trkpt lat="31.7381240" lon="35.1092950">
    <ele>580.1</ele>
    <time>2018-09-22T06:22:48Z</time>
   </trkpt>
   <trkpt lat="31.7381400" lon="35.1093320">
    <ele>579.1</ele>
    <time>2018-09-22T06:22:49Z</time>
   </trkpt>
   <trkpt lat="31.7381720" lon="35.1093660">
    <ele>578.2</ele>
    <time>2018-09-22T06:22:50Z</time>
   </trkpt>
   <trkpt lat="31.7382200" lon="35.1093860">
    <ele>578.1</ele>
    <time>2018-09-22T06:22:52Z</time>
   </trkpt>
   <trkpt lat="31.7382580" lon="35.1094160">
    <ele>577.4</ele>
    <time>2018-09-22T06:22:53Z</time>
   </trkpt>
   <trkpt lat="31.7383090" lon="35.1094470">
    <ele>576.8</ele>
    <time>2018-09-22T06:22:54Z</time>
   </trkpt>
   <trkpt lat="31.7383600" lon="35.1094790">
    <ele>575.8</ele>
    <time>2018-09-22T06:22:55Z</time>
   </trkpt>
   <trkpt lat="31.7383810" lon="35.1095130">
    <ele>575.8</ele>
    <time>2018-09-22T06:22:56Z</time>
   </trkpt>
   <trkpt lat="31.7384190" lon="35.1095540">
    <ele>574.7</ele>
    <time>2018-09-22T06:22:57Z</time>
   </trkpt>
   <trkpt lat="31.7384340" lon="35.1096100">
    <ele>572.9</ele>
    <time>2018-09-22T06:22:58Z</time>
   </trkpt>
   <trkpt lat="31.7384480" lon="35.1096380">
    <ele>572.9</ele>
    <time>2018-09-22T06:22:59Z</time>
   </trkpt>
   <trkpt lat="31.7384590" lon="35.1096740">
    <ele>572.1</ele>
    <time>2018-09-22T06:23:00Z</time>
   </trkpt>
   <trkpt lat="31.7384890" lon="35.1097480">
    <ele>570.7</ele>
    <time>2018-09-22T06:23:02Z</time>
   </trkpt>
   <trkpt lat="31.7385120" lon="35.1097820">
    <ele>569.7</ele>
    <time>2018-09-22T06:23:04Z</time>
   </trkpt>
   <trkpt lat="31.7385330" lon="35.1098050">
    <ele>569.7</ele>
    <time>2018-09-22T06:23:05Z</time>
   </trkpt>
   <trkpt lat="31.7385720" lon="35.1098340">
    <ele>568.1</ele>
    <time>2018-09-22T06:23:07Z</time>
   </trkpt>
   <trkpt lat="31.7386030" lon="35.1098400">
    <ele>568.1</ele>
    <time>2018-09-22T06:23:08Z</time>
   </trkpt>
   <trkpt lat="31.7386310" lon="35.1098040">
    <ele>568.8</ele>
    <time>2018-09-22T06:23:10Z</time>
   </trkpt>
   <trkpt lat="31.7386320" lon="35.1097700">
    <ele>569.7</ele>
    <time>2018-09-22T06:23:11Z</time>
   </trkpt>
   <trkpt lat="31.7386480" lon="35.1097410">
    <ele>569.3</ele>
    <time>2018-09-22T06:23:12Z</time>
   </trkpt>
   <trkpt lat="31.7386830" lon="35.1097140">
    <ele>569.5</ele>
    <time>2018-09-22T06:23:14Z</time>
   </trkpt>
   <trkpt lat="31.7387080" lon="35.1096690">
    <ele>570.0</ele>
    <time>2018-09-22T06:23:16Z</time>
   </trkpt>
   <trkpt lat="31.7387490" lon="35.1096320">
    <ele>569.9</ele>
    <time>2018-09-22T06:23:18Z</time>
   </trkpt>
   <trkpt lat="31.7387880" lon="35.1096310">
    <ele>569.3</ele>
    <time>2018-09-22T06:23:19Z</time>
   </trkpt>
   <trkpt lat="31.7388260" lon="35.1096550">
    <ele>567.4</ele>
    <time>2018-09-22T06:23:20Z</time>
   </trkpt>
   <trkpt lat="31.7388660" lon="35.1096790">
    <ele>566.6</ele>
    <time>2018-09-22T06:23:21Z</time>
   </trkpt>
   <trkpt lat="31.7389340" lon="35.1097170">
    <ele>565.5</ele>
    <time>2018-09-22T06:23:22Z</time>
   </trkpt>
   <trkpt lat="31.7389550" lon="35.1097620">
    <ele>564.4</ele>
    <time>2018-09-22T06:23:23Z</time>
   </trkpt>
   <trkpt lat="31.7389970" lon="35.1097750">
    <ele>563.5</ele>
    <time>2018-09-22T06:23:24Z</time>
   </trkpt>
   <trkpt lat="31.7390730" lon="35.1098750">
    <ele>561.9</ele>
    <time>2018-09-22T06:23:25Z</time>
   </trkpt>
   <trkpt lat="31.7391390" lon="35.1099220">
    <ele>560.5</ele>
    <time>2018-09-22T06:23:26Z</time>
   </trkpt>
   <trkpt lat="31.7391650" lon="35.1099960">
    <ele>559.6</ele>
    <time>2018-09-22T06:23:27Z</time>
   </trkpt>
   <trkpt lat="31.7391390" lon="35.1100510">
    <ele>559.9</ele>
    <time>2018-09-22T06:23:28Z</time>
   </trkpt>
   <trkpt lat="31.7391490" lon="35.1101110">
    <ele>559.6</ele>
    <time>2018-09-22T06:23:29Z</time>
   </trkpt>
   <trkpt lat="31.7391620" lon="35.1101840">
    <ele>558.4</ele>
    <time>2018-09-22T06:23:30Z</time>
   </trkpt>
   <trkpt lat="31.7391750" lon="35.1102770">
    <ele>556.9</ele>
    <time>2018-09-22T06:23:31Z</time>
   </trkpt>
   <trkpt lat="31.7391510" lon="35.1103550">
    <ele>555.3</ele>
    <time>2018-09-22T06:23:32Z</time>
   </trkpt>
   <trkpt lat="31.7391410" lon="35.1104460">
    <ele>555.1</ele>
    <time>2018-09-22T06:23:33Z</time>
   </trkpt>
   <trkpt lat="31.7391320" lon="35.1104940">
    <ele>555.0</ele>
    <time>2018-09-22T06:23:34Z</time>
   </trkpt>
   <trkpt lat="31.7391220" lon="35.1105370">
    <ele>555.0</ele>
    <time>2018-09-22T06:23:36Z</time>
   </trkpt>
   <trkpt lat="31.7391450" lon="35.1105890">
    <ele>554.8</ele>
    <time>2018-09-22T06:23:37Z</time>
   </trkpt>
   <trkpt lat="31.7390990" lon="35.1105590">
    <ele>555.3</ele>
    <time>2018-09-22T06:23:38Z</time>
   </trkpt>
   <trkpt lat="31.7390750" lon="35.1105830">
    <ele>555.6</ele>
    <time>2018-09-22T06:23:39Z</time>
   </trkpt>
   <trkpt lat="31.7390370" lon="35.1106120">
    <ele>556.1</ele>
    <time>2018-09-22T06:23:40Z</time>
   </trkpt>
   <trkpt lat="31.7389990" lon="35.1106030">
    <ele>556.6</ele>
    <time>2018-09-22T06:23:41Z</time>
   </trkpt>
   <trkpt lat="31.7389700" lon="35.1106300">
    <ele>557.0</ele>
    <time>2018-09-22T06:23:42Z</time>
   </trkpt>
   <trkpt lat="31.7389230" lon="35.1106320">
    <ele>557.5</ele>
    <time>2018-09-22T06:23:43Z</time>
   </trkpt>
   <trkpt lat="31.7388920" lon="35.1106100">
    <ele>557.8</ele>
    <time>2018-09-22T06:23:45Z</time>
   </trkpt>
   <trkpt lat="31.7388740" lon="35.1105520">
    <ele>558.2</ele>
    <time>2018-09-22T06:23:48Z</time>
   </trkpt>
   <trkpt lat="31.7388450" lon="35.1105590">
    <ele>558.3</ele>
    <time>2018-09-22T06:23:49Z</time>
   </trkpt>
   <trkpt lat="31.7388080" lon="35.1105770">
    <ele>558.6</ele>
    <time>2018-09-22T06:23:51Z</time>
   </trkpt>
   <trkpt lat="31.7387710" lon="35.1105730">
    <ele>558.8</ele>
    <time>2018-09-22T06:23:52Z</time>
   </trkpt>
   <trkpt lat="31.7387370" lon="35.1105750">
    <ele>559.0</ele>
    <time>2018-09-22T06:23:53Z</time>
   </trkpt>
   <trkpt lat="31.7386950" lon="35.1105620">
    <ele>559.3</ele>
    <time>2018-09-22T06:23:54Z</time>
   </trkpt>
   <trkpt lat="31.7386650" lon="35.1105490">
    <ele>559.5</ele>
    <time>2018-09-22T06:23:55Z</time>
   </trkpt>
   <trkpt lat="31.7386280" lon="35.1105190">
    <ele>559.9</ele>
    <time>2018-09-22T06:23:56Z</time>
   </trkpt>
   <trkpt lat="31.7385980" lon="35.1104870">
    <ele>560.2</ele>
    <time>2018-09-22T06:23:57Z</time>
   </trkpt>
   <trkpt lat="31.7385670" lon="35.1104640">
    <ele>560.5</ele>
    <time>2018-09-22T06:23:58Z</time>
   </trkpt>
   <trkpt lat="31.7385300" lon="35.1104580">
    <ele>560.8</ele>
    <time>2018-09-22T06:23:59Z</time>
   </trkpt>
   <trkpt lat="31.7385020" lon="35.1104400">
    <ele>561.1</ele>
    <time>2018-09-22T06:24:00Z</time>
   </trkpt>
   <trkpt lat="31.7384690" lon="35.1104190">
    <ele>561.3</ele>
    <time>2018-09-22T06:24:01Z</time>
   </trkpt>
   <trkpt lat="31.7384310" lon="35.1103880">
    <ele>561.6</ele>
    <time>2018-09-22T06:24:02Z</time>
   </trkpt>
   <trkpt lat="31.7383950" lon="35.1103700">
    <ele>561.8</ele>
    <time>2018-09-22T06:24:03Z</time>
   </trkpt>
   <trkpt lat="31.7383640" lon="35.1103490">
    <ele>562.0</ele>
    <time>2018-09-22T06:24:04Z</time>
   </trkpt>
   <trkpt lat="31.7383120" lon="35.1103270">
    <ele>562.4</ele>
    <time>2018-09-22T06:24:05Z</time>
   </trkpt>
   <trkpt lat="31.7382860" lon="35.1102970">
    <ele>562.6</ele>
    <time>2018-09-22T06:24:06Z</time>
   </trkpt>
   <trkpt lat="31.7382410" lon="35.1102810">
    <ele>563.1</ele>
    <time>2018-09-22T06:24:07Z</time>
   </trkpt>
   <trkpt lat="31.7382320" lon="35.1102310">
    <ele>563.4</ele>
    <time>2018-09-22T06:24:08Z</time>
   </trkpt>
   <trkpt lat="31.7382060" lon="35.1102110">
    <ele>563.5</ele>
    <time>2018-09-22T06:24:09Z</time>
   </trkpt>
   <trkpt lat="31.7381750" lon="35.1102130">
    <ele>563.7</ele>
    <time>2018-09-22T06:24:10Z</time>
   </trkpt>
   <trkpt lat="31.7381350" lon="35.1101870">
    <ele>564.3</ele>
    <time>2018-09-22T06:24:12Z</time>
   </trkpt>
   <trkpt lat="31.7381070" lon="35.1101780">
    <ele>563.9</ele>
    <time>2018-09-22T06:24:13Z</time>
   </trkpt>
   <trkpt lat="31.7380880" lon="35.1101390">
    <ele>564.5</ele>
    <time>2018-09-22T06:24:14Z</time>
   </trkpt>
   <trkpt lat="31.7380510" lon="35.1101360">
    <ele>564.2</ele>
    <time>2018-09-22T06:24:15Z</time>
   </trkpt>
   <trkpt lat="31.7379950" lon="35.1101200">
    <ele>563.9</ele>
    <time>2018-09-22T06:24:16Z</time>
   </trkpt>
   <trkpt lat="31.7379430" lon="35.1101130">
    <ele>564.4</ele>
    <time>2018-09-22T06:24:17Z</time>
   </trkpt>
   <trkpt lat="31.7379070" lon="35.1101050">
    <ele>564.1</ele>
    <time>2018-09-22T06:24:18Z</time>
   </trkpt>
   <trkpt lat="31.7378500" lon="35.1100930">
    <ele>563.8</ele>
    <time>2018-09-22T06:24:20Z</time>
   </trkpt>
   <trkpt lat="31.7378200" lon="35.1100860">
    <ele>563.6</ele>
    <time>2018-09-22T06:24:21Z</time>
   </trkpt>
   <trkpt lat="31.7377620" lon="35.1100710">
    <ele>564.1</ele>
    <time>2018-09-22T06:24:23Z</time>
   </trkpt>
   <trkpt lat="31.7377170" lon="35.1100600">
    <ele>564.1</ele>
    <time>2018-09-22T06:24:25Z</time>
   </trkpt>
   <trkpt lat="31.7376750" lon="35.1100790">
    <ele>563.2</ele>
    <time>2018-09-22T06:24:27Z</time>
   </trkpt>
   <trkpt lat="31.7376410" lon="35.1100960">
    <ele>563.2</ele>
    <time>2018-09-22T06:24:28Z</time>
   </trkpt>
   <trkpt lat="31.7376040" lon="35.1101090">
    <ele>563.3</ele>
    <time>2018-09-22T06:24:29Z</time>
   </trkpt>
   <trkpt lat="31.7375490" lon="35.1101050">
    <ele>563.5</ele>
    <time>2018-09-22T06:24:31Z</time>
   </trkpt>
   <trkpt lat="31.7375130" lon="35.1101310">
    <ele>562.9</ele>
    <time>2018-09-22T06:24:33Z</time>
   </trkpt>
   <trkpt lat="31.7375250" lon="35.1101770">
    <ele>561.8</ele>
    <time>2018-09-22T06:24:34Z</time>
   </trkpt>
   <trkpt lat="31.7375610" lon="35.1102070">
    <ele>560.3</ele>
    <time>2018-09-22T06:24:37Z</time>
   </trkpt>
   <trkpt lat="31.7375840" lon="35.1102290">
    <ele>560.0</ele>
    <time>2018-09-22T06:24:40Z</time>
   </trkpt>
   <trkpt lat="31.7375910" lon="35.1102670">
    <ele>559.0</ele>
    <time>2018-09-22T06:24:43Z</time>
   </trkpt>
   <trkpt lat="31.7376470" lon="35.1102910">
    <ele>558.4</ele>
    <time>2018-09-22T06:24:48Z</time>
   </trkpt>
   <trkpt lat="31.7376820" lon="35.1103070">
    <ele>557.8</ele>
    <time>2018-09-22T06:24:49Z</time>
   </trkpt>
   <trkpt lat="31.7377020" lon="35.1103360">
    <ele>557.3</ele>
    <time>2018-09-22T06:24:50Z</time>
   </trkpt>
   <trkpt lat="31.7377410" lon="35.1103290">
    <ele>556.8</ele>
    <time>2018-09-22T06:24:52Z</time>
   </trkpt>
   <trkpt lat="31.7377750" lon="35.1103390">
    <ele>556.2</ele>
    <time>2018-09-22T06:24:53Z</time>
   </trkpt>
   <trkpt lat="31.7378120" lon="35.1103510">
    <ele>555.5</ele>
    <time>2018-09-22T06:24:54Z</time>
   </trkpt>
   <trkpt lat="31.7378480" lon="35.1103740">
    <ele>554.2</ele>
    <time>2018-09-22T06:24:55Z</time>
   </trkpt>
   <trkpt lat="31.7378850" lon="35.1103960">
    <ele>553.2</ele>
    <time>2018-09-22T06:24:56Z</time>
   </trkpt>
   <trkpt lat="31.7379580" lon="35.1104150">
    <ele>551.5</ele>
    <time>2018-09-22T06:24:58Z</time>
   </trkpt>
   <trkpt lat="31.7379920" lon="35.1104300">
    <ele>549.5</ele>
    <time>2018-09-22T06:24:59Z</time>
   </trkpt>
   <trkpt lat="31.7380290" lon="35.1104490">
    <ele>548.6</ele>
    <time>2018-09-22T06:25:00Z</time>
   </trkpt>
   <trkpt lat="31.7380570" lon="35.1104770">
    <ele>547.3</ele>
    <time>2018-09-22T06:25:01Z</time>
   </trkpt>
   <trkpt lat="31.7380920" lon="35.1104840">
    <ele>546.4</ele>
    <time>2018-09-22T06:25:02Z</time>
   </trkpt>
   <trkpt lat="31.7381140" lon="35.1105090">
    <ele>544.8</ele>
    <time>2018-09-22T06:25:04Z</time>
   </trkpt>
   <trkpt lat="31.7381680" lon="35.1105490">
    <ele>543.3</ele>
    <time>2018-09-22T06:25:06Z</time>
   </trkpt>
   <trkpt lat="31.7381840" lon="35.1105890">
    <ele>542.0</ele>
    <time>2018-09-22T06:25:07Z</time>
   </trkpt>
   <trkpt lat="31.7382110" lon="35.1106210">
    <ele>541.3</ele>
    <time>2018-09-22T06:25:08Z</time>
   </trkpt>
   <trkpt lat="31.7382440" lon="35.1106330">
    <ele>540.1</ele>
    <time>2018-09-22T06:25:09Z</time>
   </trkpt>
   <trkpt lat="31.7382680" lon="35.1106510">
    <ele>539.8</ele>
    <time>2018-09-22T06:25:10Z</time>
   </trkpt>
   <trkpt lat="31.7382860" lon="35.1106760">
    <ele>538.4</ele>
    <time>2018-09-22T06:25:11Z</time>
   </trkpt>
   <trkpt lat="31.7383000" lon="35.1107160">
    <ele>538.1</ele>
    <time>2018-09-22T06:25:12Z</time>
   </trkpt>
   <trkpt lat="31.7383190" lon="35.1107590">
    <ele>536.4</ele>
    <time>2018-09-22T06:25:13Z</time>
   </trkpt>
   <trkpt lat="31.7383630" lon="35.1107900">
    <ele>534.8</ele>
    <time>2018-09-22T06:25:14Z</time>
   </trkpt>
   <trkpt lat="31.7383800" lon="35.1108370">
    <ele>533.7</ele>
    <time>2018-09-22T06:25:15Z</time>
   </trkpt>
   <trkpt lat="31.7383830" lon="35.1108740">
    <ele>532.8</ele>
    <time>2018-09-22T06:25:16Z</time>
   </trkpt>
   <trkpt lat="31.7384030" lon="35.1109000">
    <ele>531.8</ele>
    <time>2018-09-22T06:25:17Z</time>
   </trkpt>
   <trkpt lat="31.7384130" lon="35.1109540">
    <ele>531.0</ele>
    <time>2018-09-22T06:25:18Z</time>
   </trkpt>
   <trkpt lat="31.7384580" lon="35.1109160">
    <ele>531.0</ele>
    <time>2018-09-22T06:25:20Z</time>
   </trkpt>
   <trkpt lat="31.7384930" lon="35.1109640">
    <ele>529.8</ele>
    <time>2018-09-22T06:25:21Z</time>
   </trkpt>
   <trkpt lat="31.7385150" lon="35.1109930">
    <ele>528.2</ele>
    <time>2018-09-22T06:25:22Z</time>
   </trkpt>
   <trkpt lat="31.7385460" lon="35.1110170">
    <ele>527.7</ele>
    <time>2018-09-22T06:25:24Z</time>
   </trkpt>
   <trkpt lat="31.7385510" lon="35.1110610">
    <ele>525.2</ele>
    <time>2018-09-22T06:25:26Z</time>
   </trkpt>
   <trkpt lat="31.7385660" lon="35.1110940">
    <ele>524.9</ele>
    <time>2018-09-22T06:25:27Z</time>
   </trkpt>
   <trkpt lat="31.7385560" lon="35.1111500">
    <ele>522.6</ele>
    <time>2018-09-22T06:25:28Z</time>
   </trkpt>
   <trkpt lat="31.7385590" lon="35.1111940">
    <ele>521.4</ele>
    <time>2018-09-22T06:25:29Z</time>
   </trkpt>
   <trkpt lat="31.7385760" lon="35.1112320">
    <ele>519.9</ele>
    <time>2018-09-22T06:25:30Z</time>
   </trkpt>
   <trkpt lat="31.7386000" lon="35.1112690">
    <ele>519.6</ele>
    <time>2018-09-22T06:25:31Z</time>
   </trkpt>
   <trkpt lat="31.7386240" lon="35.1112990">
    <ele>518.1</ele>
    <time>2018-09-22T06:25:32Z</time>
   </trkpt>
   <trkpt lat="31.7386480" lon="35.1113240">
    <ele>516.5</ele>
    <time>2018-09-22T06:25:34Z</time>
   </trkpt>
   <trkpt lat="31.7386740" lon="35.1113760">
    <ele>515.0</ele>
    <time>2018-09-22T06:25:36Z</time>
   </trkpt>
   <trkpt lat="31.7386760" lon="35.1114100">
    <ele>513.6</ele>
    <time>2018-09-22T06:25:38Z</time>
   </trkpt>
   <trkpt lat="31.7386930" lon="35.1114600">
    <ele>511.9</ele>
    <time>2018-09-22T06:25:39Z</time>
   </trkpt>
   <trkpt lat="31.7387480" lon="35.1114930">
    <ele>510.4</ele>
    <time>2018-09-22T06:25:40Z</time>
   </trkpt>
   <trkpt lat="31.7387450" lon="35.1115580">
    <ele>509.4</ele>
    <time>2018-09-22T06:25:41Z</time>
   </trkpt>
   <trkpt lat="31.7387240" lon="35.1115880">
    <ele>508.7</ele>
    <time>2018-09-22T06:25:42Z</time>
   </trkpt>
   <trkpt lat="31.7387310" lon="35.1116500">
    <ele>508.2</ele>
    <time>2018-09-22T06:25:44Z</time>
   </trkpt>
   <trkpt lat="31.7387070" lon="35.1117280">
    <ele>507.8</ele>
    <time>2018-09-22T06:25:45Z</time>
   </trkpt>
   <trkpt lat="31.7387100" lon="35.1117950">
    <ele>506.9</ele>
    <time>2018-09-22T06:25:46Z</time>
   </trkpt>
   <trkpt lat="31.7387000" lon="35.1118540">
    <ele>506.3</ele>
    <time>2018-09-22T06:25:47Z</time>
   </trkpt>
   <trkpt lat="31.7386970" lon="35.1119050">
    <ele>505.8</ele>
    <time>2018-09-22T06:25:48Z</time>
   </trkpt>
   <trkpt lat="31.7387200" lon="35.1119280">
    <ele>505.3</ele>
    <time>2018-09-22T06:25:49Z</time>
   </trkpt>
   <trkpt lat="31.7387440" lon="35.1119100">
    <ele>504.8</ele>
    <time>2018-09-22T06:25:52Z</time>
   </trkpt>
   <trkpt lat="31.7387610" lon="35.1119370">
    <ele>504.5</ele>
    <time>2018-09-22T06:25:54Z</time>
   </trkpt>
   <trkpt lat="31.7387470" lon="35.1119740">
    <ele>504.5</ele>
    <time>2018-09-22T06:25:56Z</time>
   </trkpt>
   <trkpt lat="31.7387190" lon="35.1120040">
    <ele>504.6</ele>
    <time>2018-09-22T06:25:58Z</time>
   </trkpt>
   <trkpt lat="31.7386820" lon="35.1120390">
    <ele>504.6</ele>
    <time>2018-09-22T06:26:00Z</time>
   </trkpt>
   <trkpt lat="31.7386670" lon="35.1120790">
    <ele>504.6</ele>
    <time>2018-09-22T06:26:02Z</time>
   </trkpt>
   <trkpt lat="31.7386290" lon="35.1121270">
    <ele>504.7</ele>
    <time>2018-09-22T06:26:08Z</time>
   </trkpt>
   <trkpt lat="31.7385970" lon="35.1121370">
    <ele>504.7</ele>
    <time>2018-09-22T06:29:47Z</time>
   </trkpt>
   <trkpt lat="31.7385650" lon="35.1121460">
    <ele>504.7</ele>
    <time>2018-09-22T06:31:01Z</time>
   </trkpt>
   <trkpt lat="31.7385330" lon="35.1121550">
    <ele>504.7</ele>
    <time>2018-09-22T06:31:02Z</time>
   </trkpt>
   <trkpt lat="31.7385070" lon="35.1121880">
    <ele>504.7</ele>
    <time>2018-09-22T06:31:04Z</time>
   </trkpt>
   <trkpt lat="31.7384790" lon="35.1122090">
    <ele>504.7</ele>
    <time>2018-09-22T06:31:06Z</time>
   </trkpt>
   <trkpt lat="31.7384670" lon="35.1122560">
    <ele>504.8</ele>
    <time>2018-09-22T06:31:08Z</time>
   </trkpt>
   <trkpt lat="31.7384530" lon="35.1122890">
    <ele>504.8</ele>
    <time>2018-09-22T06:31:10Z</time>
   </trkpt>
   <trkpt lat="31.7384250" lon="35.1123290">
    <ele>504.8</ele>
    <time>2018-09-22T06:31:12Z</time>
   </trkpt>
   <trkpt lat="31.7384220" lon="35.1123760">
    <ele>504.8</ele>
    <time>2018-09-22T06:31:14Z</time>
   </trkpt>
   <trkpt lat="31.7383790" lon="35.1123970">
    <ele>504.8</ele>
    <time>2018-09-22T06:31:16Z</time>
   </trkpt>
   <trkpt lat="31.7383660" lon="35.1124620">
    <ele>504.9</ele>
    <time>2018-09-22T06:31:18Z</time>
   </trkpt>
   <trkpt lat="31.7383410" lon="35.1124820">
    <ele>504.9</ele>
    <time>2018-09-22T06:31:19Z</time>
   </trkpt>
   <trkpt lat="31.7383120" lon="35.1125020">
    <ele>504.9</ele>
    <time>2018-09-22T06:31:20Z</time>
   </trkpt>
   <trkpt lat="31.7382710" lon="35.1125450">
    <ele>504.9</ele>
    <time>2018-09-22T06:31:22Z</time>
   </trkpt>
   <trkpt lat="31.7382430" lon="35.1125690">
    <ele>505.0</ele>
    <time>2018-09-22T06:31:23Z</time>
   </trkpt>
   <trkpt lat="31.7382160" lon="35.1126230">
    <ele>505.0</ele>
    <time>2018-09-22T06:31:25Z</time>
   </trkpt>
   <trkpt lat="31.7381800" lon="35.1126400">
    <ele>505.1</ele>
    <time>2018-09-22T06:31:27Z</time>
   </trkpt>
   <trkpt lat="31.7381610" lon="35.1126840">
    <ele>505.2</ele>
    <time>2018-09-22T06:31:29Z</time>
   </trkpt>
   <trkpt lat="31.7381330" lon="35.1127060">
    <ele>505.3</ele>
    <time>2018-09-22T06:31:30Z</time>
   </trkpt>
   <trkpt lat="31.7381240" lon="35.1127540">
    <ele>505.5</ele>
    <time>2018-09-22T06:31:32Z</time>
   </trkpt>
   <trkpt lat="31.7381010" lon="35.1127950">
    <ele>505.8</ele>
    <time>2018-09-22T06:31:34Z</time>
   </trkpt>
   <trkpt lat="31.7380800" lon="35.1128400">
    <ele>506.0</ele>
    <time>2018-09-22T06:31:36Z</time>
   </trkpt>
   <trkpt lat="31.7380740" lon="35.1128880">
    <ele>506.3</ele>
    <time>2018-09-22T06:31:38Z</time>
   </trkpt>
   <trkpt lat="31.7380490" lon="35.1129160">
    <ele>506.4</ele>
    <time>2018-09-22T06:31:39Z</time>
   </trkpt>
   <trkpt lat="31.7380280" lon="35.1129430">
    <ele>506.6</ele>
    <time>2018-09-22T06:31:40Z</time>
   </trkpt>
   <trkpt lat="31.7380080" lon="35.1129950">
    <ele>506.7</ele>
    <time>2018-09-22T06:31:42Z</time>
   </trkpt>
   <trkpt lat="31.7379890" lon="35.1130180">
    <ele>506.8</ele>
    <time>2018-09-22T06:31:43Z</time>
   </trkpt>
   <trkpt lat="31.7379430" lon="35.1130560">
    <ele>506.9</ele>
    <time>2018-09-22T06:31:45Z</time>
   </trkpt>
   <trkpt lat="31.7379280" lon="35.1130860">
    <ele>507.0</ele>
    <time>2018-09-22T06:31:46Z</time>
   </trkpt>
   <trkpt lat="31.7379140" lon="35.1131290">
    <ele>507.1</ele>
    <time>2018-09-22T06:31:48Z</time>
   </trkpt>
   <trkpt lat="31.7378980" lon="35.1131700">
    <ele>507.1</ele>
    <time>2018-09-22T06:31:50Z</time>
   </trkpt>
   <trkpt lat="31.7378920" lon="35.1132180">
    <ele>507.1</ele>
    <time>2018-09-22T06:31:52Z</time>
   </trkpt>
   <trkpt lat="31.7378920" lon="35.1132620">
    <ele>507.2</ele>
    <time>2018-09-22T06:31:54Z</time>
   </trkpt>
   <trkpt lat="31.7378770" lon="35.1133000">
    <ele>507.2</ele>
    <time>2018-09-22T06:31:56Z</time>
   </trkpt>
   <trkpt lat="31.7378510" lon="35.1133390">
    <ele>507.2</ele>
    <time>2018-09-22T06:31:58Z</time>
   </trkpt>
   <trkpt lat="31.7378440" lon="35.1133840">
    <ele>507.3</ele>
    <time>2018-09-22T06:32:00Z</time>
   </trkpt>
   <trkpt lat="31.7378190" lon="35.1134380">
    <ele>507.3</ele>
    <time>2018-09-22T06:32:02Z</time>
   </trkpt>
   <trkpt lat="31.7377990" lon="35.1134670">
    <ele>507.3</ele>
    <time>2018-09-22T06:32:03Z</time>
   </trkpt>
   <trkpt lat="31.7377880" lon="35.1134960">
    <ele>507.3</ele>
    <time>2018-09-22T06:32:04Z</time>
   </trkpt>
   <trkpt lat="31.7377640" lon="35.1135620">
    <ele>507.3</ele>
    <time>2018-09-22T06:32:06Z</time>
   </trkpt>
   <trkpt lat="31.7377570" lon="35.1136330">
    <ele>507.4</ele>
    <time>2018-09-22T06:32:08Z</time>
   </trkpt>
   <trkpt lat="31.7377370" lon="35.1136600">
    <ele>507.4</ele>
    <time>2018-09-22T06:32:09Z</time>
   </trkpt>
   <trkpt lat="31.7377230" lon="35.1136930">
    <ele>507.4</ele>
    <time>2018-09-22T06:32:10Z</time>
   </trkpt>
   <trkpt lat="31.7376980" lon="35.1137270">
    <ele>507.4</ele>
    <time>2018-09-22T06:32:11Z</time>
   </trkpt>
   <trkpt lat="31.7376740" lon="35.1137610">
    <ele>507.4</ele>
    <time>2018-09-22T06:32:12Z</time>
   </trkpt>
   <trkpt lat="31.7376500" lon="35.1137940">
    <ele>507.4</ele>
    <time>2018-09-22T06:32:13Z</time>
   </trkpt>
   <trkpt lat="31.7376350" lon="35.1138430">
    <ele>507.4</ele>
    <time>2018-09-22T06:32:15Z</time>
   </trkpt>
   <trkpt lat="31.7376140" lon="35.1138740">
    <ele>507.4</ele>
    <time>2018-09-22T06:32:16Z</time>
   </trkpt>
   <trkpt lat="31.7375800" lon="35.1139080">
    <ele>507.5</ele>
    <time>2018-09-22T06:32:18Z</time>
   </trkpt>
   <trkpt lat="31.7375440" lon="35.1139450">
    <ele>507.5</ele>
    <time>2018-09-22T06:32:20Z</time>
   </trkpt>
   <trkpt lat="31.7375190" lon="35.1139740">
    <ele>507.5</ele>
    <time>2018-09-22T06:32:21Z</time>
   </trkpt>
   <trkpt lat="31.7374940" lon="35.1140280">
    <ele>507.5</ele>
    <time>2018-09-22T06:32:23Z</time>
   </trkpt>
   <trkpt lat="31.7374740" lon="35.1140550">
    <ele>507.5</ele>
    <time>2018-09-22T06:32:24Z</time>
   </trkpt>
   <trkpt lat="31.7374520" lon="35.1140990">
    <ele>507.5</ele>
    <time>2018-09-22T06:32:26Z</time>
   </trkpt>
   <trkpt lat="31.7374410" lon="35.1141300">
    <ele>507.5</ele>
    <time>2018-09-22T06:32:27Z</time>
   </trkpt>
   <trkpt lat="31.7374280" lon="35.1141610">
    <ele>507.6</ele>
    <time>2018-09-22T06:32:28Z</time>
   </trkpt>
   <trkpt lat="31.7374170" lon="35.1142080">
    <ele>507.6</ele>
    <time>2018-09-22T06:32:30Z</time>
   </trkpt>
   <trkpt lat="31.7374150" lon="35.1142510">
    <ele>507.6</ele>
    <time>2018-09-22T06:32:32Z</time>
   </trkpt>
   <trkpt lat="31.7374060" lon="35.1142900">
    <ele>507.6</ele>
    <time>2018-09-22T06:32:34Z</time>
   </trkpt>
   <trkpt lat="31.7373990" lon="35.1143370">
    <ele>507.7</ele>
    <time>2018-09-22T06:32:36Z</time>
   </trkpt>
   <trkpt lat="31.7373730" lon="35.1143850">
    <ele>507.7</ele>
    <time>2018-09-22T06:32:38Z</time>
   </trkpt>
   <trkpt lat="31.7373310" lon="35.1144080">
    <ele>507.8</ele>
    <time>2018-09-22T06:32:40Z</time>
   </trkpt>
   <trkpt lat="31.7372950" lon="35.1144130">
    <ele>507.8</ele>
    <time>2018-09-22T06:32:41Z</time>
   </trkpt>
   <trkpt lat="31.7372590" lon="35.1144200">
    <ele>507.9</ele>
    <time>2018-09-22T06:32:42Z</time>
   </trkpt>
   <trkpt lat="31.7372180" lon="35.1144470">
    <ele>508.0</ele>
    <time>2018-09-22T06:32:43Z</time>
   </trkpt>
   <trkpt lat="31.7371820" lon="35.1144740">
    <ele>508.1</ele>
    <time>2018-09-22T06:32:45Z</time>
   </trkpt>
   <trkpt lat="31.7371750" lon="35.1145140">
    <ele>508.2</ele>
    <time>2018-09-22T06:32:47Z</time>
   </trkpt>
   <trkpt lat="31.7371560" lon="35.1145460">
    <ele>508.4</ele>
    <time>2018-09-22T06:32:49Z</time>
   </trkpt>
   <trkpt lat="31.7371430" lon="35.1146000">
    <ele>508.6</ele>
    <time>2018-09-22T06:32:51Z</time>
   </trkpt>
   <trkpt lat="31.7371490" lon="35.1146490">
    <ele>508.9</ele>
    <time>2018-09-22T06:32:53Z</time>
   </trkpt>
   <trkpt lat="31.7371390" lon="35.1146840">
    <ele>509.1</ele>
    <time>2018-09-22T06:32:54Z</time>
   </trkpt>
   <trkpt lat="31.7371470" lon="35.1147210">
    <ele>509.3</ele>
    <time>2018-09-22T06:32:56Z</time>
   </trkpt>
   <trkpt lat="31.7371400" lon="35.1147670">
    <ele>509.5</ele>
    <time>2018-09-22T06:32:58Z</time>
   </trkpt>
   <trkpt lat="31.7371220" lon="35.1148360">
    <ele>509.6</ele>
    <time>2018-09-22T06:33:00Z</time>
   </trkpt>
   <trkpt lat="31.7371090" lon="35.1148780">
    <ele>509.6</ele>
    <time>2018-09-22T06:33:01Z</time>
   </trkpt>
   <trkpt lat="31.7370870" lon="35.1149210">
    <ele>509.7</ele>
    <time>2018-09-22T06:33:02Z</time>
   </trkpt>
   <trkpt lat="31.7370780" lon="35.1149600">
    <ele>509.7</ele>
    <time>2018-09-22T06:33:03Z</time>
   </trkpt>
   <trkpt lat="31.7370610" lon="35.1149950">
    <ele>509.8</ele>
    <time>2018-09-22T06:33:04Z</time>
   </trkpt>
   <trkpt lat="31.7370570" lon="35.1150540">
    <ele>509.9</ele>
    <time>2018-09-22T06:33:06Z</time>
   </trkpt>
   <trkpt lat="31.7370470" lon="35.1150900">
    <ele>509.9</ele>
    <time>2018-09-22T06:33:07Z</time>
   </trkpt>
   <trkpt lat="31.7370420" lon="35.1151320">
    <ele>510.0</ele>
    <time>2018-09-22T06:33:09Z</time>
   </trkpt>
   <trkpt lat="31.7370300" lon="35.1151790">
    <ele>510.0</ele>
    <time>2018-09-22T06:33:11Z</time>
   </trkpt>
   <trkpt lat="31.7370120" lon="35.1152300">
    <ele>510.1</ele>
    <time>2018-09-22T06:33:13Z</time>
   </trkpt>
   <trkpt lat="31.7370040" lon="35.1152790">
    <ele>510.1</ele>
    <time>2018-09-22T06:33:15Z</time>
   </trkpt>
   <trkpt lat="31.7369910" lon="35.1153350">
    <ele>510.3</ele>
    <time>2018-09-22T06:33:17Z</time>
   </trkpt>
   <trkpt lat="31.7369750" lon="35.1153660">
    <ele>510.4</ele>
    <time>2018-09-22T06:33:18Z</time>
   </trkpt>
   <trkpt lat="31.7369660" lon="35.1154160">
    <ele>510.6</ele>
    <time>2018-09-22T06:33:20Z</time>
   </trkpt>
   <trkpt lat="31.7369640" lon="35.1154630">
    <ele>510.7</ele>
    <time>2018-09-22T06:33:21Z</time>
   </trkpt>
   <trkpt lat="31.7369560" lon="35.1155210">
    <ele>510.8</ele>
    <time>2018-09-22T06:33:23Z</time>
   </trkpt>
   <trkpt lat="31.7369460" lon="35.1155680">
    <ele>511.1</ele>
    <time>2018-09-22T06:33:24Z</time>
   </trkpt>
   <trkpt lat="31.7369350" lon="35.1156020">
    <ele>511.3</ele>
    <time>2018-09-22T06:33:25Z</time>
   </trkpt>
   <trkpt lat="31.7369280" lon="35.1156360">
    <ele>511.5</ele>
    <time>2018-09-22T06:33:26Z</time>
   </trkpt>
   <trkpt lat="31.7369240" lon="35.1156940">
    <ele>511.8</ele>
    <time>2018-09-22T06:33:28Z</time>
   </trkpt>
   <trkpt lat="31.7369210" lon="35.1157300">
    <ele>512.0</ele>
    <time>2018-09-22T06:33:29Z</time>
   </trkpt>
   <trkpt lat="31.7369100" lon="35.1157940">
    <ele>512.2</ele>
    <time>2018-09-22T06:33:31Z</time>
   </trkpt>
   <trkpt lat="31.7368940" lon="35.1158270">
    <ele>512.3</ele>
    <time>2018-09-22T06:33:32Z</time>
   </trkpt>
   <trkpt lat="31.7368850" lon="35.1158640">
    <ele>512.4</ele>
    <time>2018-09-22T06:33:33Z</time>
   </trkpt>
   <trkpt lat="31.7368800" lon="35.1158990">
    <ele>512.4</ele>
    <time>2018-09-22T06:33:34Z</time>
   </trkpt>
   <trkpt lat="31.7368620" lon="35.1159710">
    <ele>512.4</ele>
    <time>2018-09-22T06:33:36Z</time>
   </trkpt>
   <trkpt lat="31.7368560" lon="35.1160060">
    <ele>512.4</ele>
    <time>2018-09-22T06:33:37Z</time>
   </trkpt>
   <trkpt lat="31.7368410" lon="35.1160420">
    <ele>512.5</ele>
    <time>2018-09-22T06:33:38Z</time>
   </trkpt>
   <trkpt lat="31.7368250" lon="35.1160690">
    <ele>512.5</ele>
    <time>2018-09-22T06:33:39Z</time>
   </trkpt>
   <trkpt lat="31.7368120" lon="35.1161210">
    <ele>512.5</ele>
    <time>2018-09-22T06:33:41Z</time>
   </trkpt>
   <trkpt lat="31.7368040" lon="35.1161550">
    <ele>512.5</ele>
    <time>2018-09-22T06:33:42Z</time>
   </trkpt>
   <trkpt lat="31.7367800" lon="35.1162170">
    <ele>512.6</ele>
    <time>2018-09-22T06:33:44Z</time>
   </trkpt>
   <trkpt lat="31.7367670" lon="35.1162440">
    <ele>512.6</ele>
    <time>2018-09-22T06:33:45Z</time>
   </trkpt>
   <trkpt lat="31.7367350" lon="35.1162960">
    <ele>512.6</ele>
    <time>2018-09-22T06:33:47Z</time>
   </trkpt>
   <trkpt lat="31.7367180" lon="35.1163270">
    <ele>512.6</ele>
    <time>2018-09-22T06:33:48Z</time>
   </trkpt>
   <trkpt lat="31.7366780" lon="35.1163580">
    <ele>512.6</ele>
    <time>2018-09-22T06:33:49Z</time>
   </trkpt>
   <trkpt lat="31.7366490" lon="35.1163850">
    <ele>512.7</ele>
    <time>2018-09-22T06:33:50Z</time>
   </trkpt>
   <trkpt lat="31.7366270" lon="35.1164140">
    <ele>512.7</ele>
    <time>2018-09-22T06:33:51Z</time>
   </trkpt>
   <trkpt lat="31.7366040" lon="35.1164380">
    <ele>512.7</ele>
    <time>2018-09-22T06:33:52Z</time>
   </trkpt>
   <trkpt lat="31.7365890" lon="35.1164710">
    <ele>512.7</ele>
    <time>2018-09-22T06:33:53Z</time>
   </trkpt>
   <trkpt lat="31.7365670" lon="35.1165110">
    <ele>512.7</ele>
    <time>2018-09-22T06:33:54Z</time>
   </trkpt>
   <trkpt lat="31.7365500" lon="35.1165410">
    <ele>512.7</ele>
    <time>2018-09-22T06:33:55Z</time>
   </trkpt>
   <trkpt lat="31.7365170" lon="35.1165680">
    <ele>512.8</ele>
    <time>2018-09-22T06:33:56Z</time>
   </trkpt>
   <trkpt lat="31.7365080" lon="35.1165990">
    <ele>512.8</ele>
    <time>2018-09-22T06:33:57Z</time>
   </trkpt>
   <trkpt lat="31.7364910" lon="35.1166610">
    <ele>512.8</ele>
    <time>2018-09-22T06:33:59Z</time>
   </trkpt>
   <trkpt lat="31.7364550" lon="35.1167150">
    <ele>512.9</ele>
    <time>2018-09-22T06:34:01Z</time>
   </trkpt>
   <trkpt lat="31.7364310" lon="35.1167750">
    <ele>512.9</ele>
    <time>2018-09-22T06:34:03Z</time>
   </trkpt>
   <trkpt lat="31.7364190" lon="35.1168130">
    <ele>513.0</ele>
    <time>2018-09-22T06:34:04Z</time>
   </trkpt>
   <trkpt lat="31.7363980" lon="35.1168690">
    <ele>513.0</ele>
    <time>2018-09-22T06:34:06Z</time>
   </trkpt>
   <trkpt lat="31.7363770" lon="35.1168960">
    <ele>513.1</ele>
    <time>2018-09-22T06:34:07Z</time>
   </trkpt>
   <trkpt lat="31.7363620" lon="35.1169280">
    <ele>513.1</ele>
    <time>2018-09-22T06:34:08Z</time>
   </trkpt>
   <trkpt lat="31.7363320" lon="35.1169800">
    <ele>513.1</ele>
    <time>2018-09-22T06:34:10Z</time>
   </trkpt>
   <trkpt lat="31.7363200" lon="35.1170120">
    <ele>513.2</ele>
    <time>2018-09-22T06:34:11Z</time>
   </trkpt>
   <trkpt lat="31.7363050" lon="35.1170400">
    <ele>513.3</ele>
    <time>2018-09-22T06:34:12Z</time>
   </trkpt>
   <trkpt lat="31.7362910" lon="35.1170740">
    <ele>513.3</ele>
    <time>2018-09-22T06:34:13Z</time>
   </trkpt>
   <trkpt lat="31.7362640" lon="35.1171030">
    <ele>513.4</ele>
    <time>2018-09-22T06:34:14Z</time>
   </trkpt>
   <trkpt lat="31.7362530" lon="35.1171400">
    <ele>513.5</ele>
    <time>2018-09-22T06:34:15Z</time>
   </trkpt>
   <trkpt lat="31.7362340" lon="35.1171700">
    <ele>513.6</ele>
    <time>2018-09-22T06:34:16Z</time>
   </trkpt>
   <trkpt lat="31.7361930" lon="35.1171920">
    <ele>513.9</ele>
    <time>2018-09-22T06:34:17Z</time>
   </trkpt>
   <trkpt lat="31.7361880" lon="35.1172260">
    <ele>514.0</ele>
    <time>2018-09-22T06:34:18Z</time>
   </trkpt>
   <trkpt lat="31.7361850" lon="35.1173250">
    <ele>514.5</ele>
    <time>2018-09-22T06:34:22Z</time>
   </trkpt>
   <trkpt lat="31.7361620" lon="35.1173610">
    <ele>514.7</ele>
    <time>2018-09-22T06:34:23Z</time>
   </trkpt>
   <trkpt lat="31.7361600" lon="35.1174230">
    <ele>514.8</ele>
    <time>2018-09-22T06:34:25Z</time>
   </trkpt>
   <trkpt lat="31.7361500" lon="35.1174590">
    <ele>514.9</ele>
    <time>2018-09-22T06:34:26Z</time>
   </trkpt>
   <trkpt lat="31.7361050" lon="35.1175060">
    <ele>515.0</ele>
    <time>2018-09-22T06:34:27Z</time>
   </trkpt>
   <trkpt lat="31.7360690" lon="35.1175370">
    <ele>515.0</ele>
    <time>2018-09-22T06:34:28Z</time>
   </trkpt>
   <trkpt lat="31.7360510" lon="35.1175690">
    <ele>515.1</ele>
    <time>2018-09-22T06:34:29Z</time>
   </trkpt>
   <trkpt lat="31.7360250" lon="35.1175950">
    <ele>515.2</ele>
    <time>2018-09-22T06:34:30Z</time>
   </trkpt>
   <trkpt lat="31.7359950" lon="35.1176400">
    <ele>515.3</ele>
    <time>2018-09-22T06:34:31Z</time>
   </trkpt>
   <trkpt lat="31.7359840" lon="35.1176820">
    <ele>515.4</ele>
    <time>2018-09-22T06:34:32Z</time>
   </trkpt>
   <trkpt lat="31.7359660" lon="35.1177380">
    <ele>515.5</ele>
    <time>2018-09-22T06:34:34Z</time>
   </trkpt>
   <trkpt lat="31.7359530" lon="35.1177740">
    <ele>515.6</ele>
    <time>2018-09-22T06:34:35Z</time>
   </trkpt>
   <trkpt lat="31.7359490" lon="35.1178100">
    <ele>515.6</ele>
    <time>2018-09-22T06:34:36Z</time>
   </trkpt>
   <trkpt lat="31.7359260" lon="35.1178520">
    <ele>515.8</ele>
    <time>2018-09-22T06:34:37Z</time>
   </trkpt>
   <trkpt lat="31.7359230" lon="35.1178870">
    <ele>515.9</ele>
    <time>2018-09-22T06:34:38Z</time>
   </trkpt>
   <trkpt lat="31.7359250" lon="35.1179230">
    <ele>516.1</ele>
    <time>2018-09-22T06:34:39Z</time>
   </trkpt>
   <trkpt lat="31.7359310" lon="35.1179790">
    <ele>516.4</ele>
    <time>2018-09-22T06:34:41Z</time>
   </trkpt>
   <trkpt lat="31.7359290" lon="35.1180350">
    <ele>516.8</ele>
    <time>2018-09-22T06:34:43Z</time>
   </trkpt>
   <trkpt lat="31.7359190" lon="35.1180700">
    <ele>517.0</ele>
    <time>2018-09-22T06:34:44Z</time>
   </trkpt>
   <trkpt lat="31.7359210" lon="35.1181490">
    <ele>517.4</ele>
    <time>2018-09-22T06:34:47Z</time>
   </trkpt>
   <trkpt lat="31.7359290" lon="35.1181920">
    <ele>517.5</ele>
    <time>2018-09-22T06:34:49Z</time>
   </trkpt>
   <trkpt lat="31.7359160" lon="35.1182460">
    <ele>517.6</ele>
    <time>2018-09-22T06:34:51Z</time>
   </trkpt>
   <trkpt lat="31.7359230" lon="35.1182850">
    <ele>517.7</ele>
    <time>2018-09-22T06:34:53Z</time>
   </trkpt>
   <trkpt lat="31.7359430" lon="35.1183320">
    <ele>517.7</ele>
    <time>2018-09-22T06:34:55Z</time>
   </trkpt>
   <trkpt lat="31.7359630" lon="35.1184020">
    <ele>517.8</ele>
    <time>2018-09-22T06:34:58Z</time>
   </trkpt>
   <trkpt lat="31.7359710" lon="35.1184370">
    <ele>517.8</ele>
    <time>2018-09-22T06:34:59Z</time>
   </trkpt>
   <trkpt lat="31.7359860" lon="35.1184750">
    <ele>517.9</ele>
    <time>2018-09-22T06:35:00Z</time>
   </trkpt>
   <trkpt lat="31.7359950" lon="35.1185060">
    <ele>517.9</ele>
    <time>2018-09-22T06:35:01Z</time>
   </trkpt>
   <trkpt lat="31.7360060" lon="35.1185640">
    <ele>517.9</ele>
    <time>2018-09-22T06:35:02Z</time>
   </trkpt>
   <trkpt lat="31.7360600" lon="35.1185830">
    <ele>518.0</ele>
    <time>2018-09-22T06:35:03Z</time>
   </trkpt>
   <trkpt lat="31.7360990" lon="35.1185450">
    <ele>518.0</ele>
    <time>2018-09-22T06:35:04Z</time>
   </trkpt>
   <trkpt lat="31.7361520" lon="35.1185260">
    <ele>518.0</ele>
    <time>2018-09-22T06:35:05Z</time>
   </trkpt>
   <trkpt lat="31.7361830" lon="35.1185080">
    <ele>518.0</ele>
    <time>2018-09-22T06:35:06Z</time>
   </trkpt>
   <trkpt lat="31.7362160" lon="35.1184980">
    <ele>518.0</ele>
    <time>2018-09-22T06:35:07Z</time>
   </trkpt>
   <trkpt lat="31.7362630" lon="35.1185060">
    <ele>518.0</ele>
    <time>2018-09-22T06:35:09Z</time>
   </trkpt>
   <trkpt lat="31.7363050" lon="35.1185070">
    <ele>518.1</ele>
    <time>2018-09-22T06:35:11Z</time>
   </trkpt>
   <trkpt lat="31.7363430" lon="35.1185120">
    <ele>518.3</ele>
    <time>2018-09-22T06:35:13Z</time>
   </trkpt>
   <trkpt lat="31.7363910" lon="35.1185480">
    <ele>518.6</ele>
    <time>2018-09-22T06:35:15Z</time>
   </trkpt>
   <trkpt lat="31.7364380" lon="35.1185690">
    <ele>518.8</ele>
    <time>2018-09-22T06:35:17Z</time>
   </trkpt>
   <trkpt lat="31.7364770" lon="35.1185970">
    <ele>519.1</ele>
    <time>2018-09-22T06:35:19Z</time>
   </trkpt>
   <trkpt lat="31.7365080" lon="35.1186190">
    <ele>519.3</ele>
    <time>2018-09-22T06:35:21Z</time>
   </trkpt>
   <trkpt lat="31.7365300" lon="35.1186370">
    <ele>519.4</ele>
    <time>2018-09-22T06:35:22Z</time>
   </trkpt>
   <trkpt lat="31.7365580" lon="35.1186550">
    <ele>519.6</ele>
    <time>2018-09-22T06:35:23Z</time>
   </trkpt>
   <trkpt lat="31.7366090" lon="35.1186740">
    <ele>519.7</ele>
    <time>2018-09-22T06:35:25Z</time>
   </trkpt>
   <trkpt lat="31.7366380" lon="35.1186850">
    <ele>519.8</ele>
    <time>2018-09-22T06:35:26Z</time>
   </trkpt>
   <trkpt lat="31.7366640" lon="35.1187000">
    <ele>519.8</ele>
    <time>2018-09-22T06:35:27Z</time>
   </trkpt>
   <trkpt lat="31.7366920" lon="35.1187170">
    <ele>519.8</ele>
    <time>2018-09-22T06:35:28Z</time>
   </trkpt>
   <trkpt lat="31.7367190" lon="35.1187260">
    <ele>519.8</ele>
    <time>2018-09-22T06:35:29Z</time>
   </trkpt>
   <trkpt lat="31.7367690" lon="35.1187510">
    <ele>519.9</ele>
    <time>2018-09-22T06:35:31Z</time>
   </trkpt>
   <trkpt lat="31.7368180" lon="35.1187640">
    <ele>519.9</ele>
    <time>2018-09-22T06:35:33Z</time>
   </trkpt>
   <trkpt lat="31.7368410" lon="35.1187830">
    <ele>520.0</ele>
    <time>2018-09-22T06:35:34Z</time>
   </trkpt>
   <trkpt lat="31.7368870" lon="35.1187900">
    <ele>520.1</ele>
    <time>2018-09-22T06:35:36Z</time>
   </trkpt>
   <trkpt lat="31.7369140" lon="35.1187920">
    <ele>520.1</ele>
    <time>2018-09-22T06:35:37Z</time>
   </trkpt>
   <trkpt lat="31.7369610" lon="35.1188080">
    <ele>520.1</ele>
    <time>2018-09-22T06:35:39Z</time>
   </trkpt>
   <trkpt lat="31.7370070" lon="35.1188210">
    <ele>520.2</ele>
    <time>2018-09-22T06:35:41Z</time>
   </trkpt>
   <trkpt lat="31.7370600" lon="35.1188210">
    <ele>520.3</ele>
    <time>2018-09-22T06:35:43Z</time>
   </trkpt>
   <trkpt lat="31.7371110" lon="35.1188210">
    <ele>520.3</ele>
    <time>2018-09-22T06:35:45Z</time>
   </trkpt>
   <trkpt lat="31.7371390" lon="35.1188290">
    <ele>520.4</ele>
    <time>2018-09-22T06:35:46Z</time>
   </trkpt>
   <trkpt lat="31.7371690" lon="35.1188350">
    <ele>520.4</ele>
    <time>2018-09-22T06:35:47Z</time>
   </trkpt>
   <trkpt lat="31.7372270" lon="35.1188440">
    <ele>520.7</ele>
    <time>2018-09-22T06:35:49Z</time>
   </trkpt>
   <trkpt lat="31.7372540" lon="35.1188460">
    <ele>520.8</ele>
    <time>2018-09-22T06:35:50Z</time>
   </trkpt>
   <trkpt lat="31.7372840" lon="35.1188560">
    <ele>520.9</ele>
    <time>2018-09-22T06:35:51Z</time>
   </trkpt>
   <trkpt lat="31.7373140" lon="35.1188610">
    <ele>521.0</ele>
    <time>2018-09-22T06:35:52Z</time>
   </trkpt>
   <trkpt lat="31.7373440" lon="35.1188700">
    <ele>521.2</ele>
    <time>2018-09-22T06:35:53Z</time>
   </trkpt>
   <trkpt lat="31.7373740" lon="35.1188740">
    <ele>521.3</ele>
    <time>2018-09-22T06:35:54Z</time>
   </trkpt>
   <trkpt lat="31.7374130" lon="35.1188760">
    <ele>521.3</ele>
    <time>2018-09-22T06:35:56Z</time>
   </trkpt>
   <trkpt lat="31.7374400" lon="35.1188870">
    <ele>521.4</ele>
    <time>2018-09-22T06:35:57Z</time>
   </trkpt>
   <trkpt lat="31.7374860" lon="35.1188960">
    <ele>521.5</ele>
    <time>2018-09-22T06:35:59Z</time>
   </trkpt>
   <trkpt lat="31.7375140" lon="35.1188960">
    <ele>521.5</ele>
    <time>2018-09-22T06:36:00Z</time>
   </trkpt>
   <trkpt lat="31.7375640" lon="35.1188960">
    <ele>521.6</ele>
    <time>2018-09-22T06:36:02Z</time>
   </trkpt>
   <trkpt lat="31.7376180" lon="35.1189090">
    <ele>521.7</ele>
    <time>2018-09-22T06:36:04Z</time>
   </trkpt>
   <trkpt lat="31.7376630" lon="35.1189170">
    <ele>521.9</ele>
    <time>2018-09-22T06:36:06Z</time>
   </trkpt>
   <trkpt lat="31.7376890" lon="35.1189240">
    <ele>522.0</ele>
    <time>2018-09-22T06:36:07Z</time>
   </trkpt>
   <trkpt lat="31.7377320" lon="35.1189290">
    <ele>522.3</ele>
    <time>2018-09-22T06:36:09Z</time>
   </trkpt>
   <trkpt lat="31.7377790" lon="35.1189180">
    <ele>522.6</ele>
    <time>2018-09-22T06:36:11Z</time>
   </trkpt>
   <trkpt lat="31.7378310" lon="35.1189230">
    <ele>522.8</ele>
    <time>2018-09-22T06:36:13Z</time>
   </trkpt>
   <trkpt lat="31.7378630" lon="35.1189240">
    <ele>523.0</ele>
    <time>2018-09-22T06:36:14Z</time>
   </trkpt>
   <trkpt lat="31.7378900" lon="35.1189160">
    <ele>523.1</ele>
    <time>2018-09-22T06:36:15Z</time>
   </trkpt>
   <trkpt lat="31.7379190" lon="35.1189260">
    <ele>523.1</ele>
    <time>2018-09-22T06:36:16Z</time>
   </trkpt>
   <trkpt lat="31.7379700" lon="35.1189370">
    <ele>523.2</ele>
    <time>2018-09-22T06:36:18Z</time>
   </trkpt>
   <trkpt lat="31.7379950" lon="35.1189510">
    <ele>523.3</ele>
    <time>2018-09-22T06:36:19Z</time>
   </trkpt>
   <trkpt lat="31.7380400" lon="35.1189480">
    <ele>523.4</ele>
    <time>2018-09-22T06:36:21Z</time>
   </trkpt>
   <trkpt lat="31.7380680" lon="35.1189490">
    <ele>523.4</ele>
    <time>2018-09-22T06:36:22Z</time>
   </trkpt>
   <trkpt lat="31.7381140" lon="35.1189500">
    <ele>523.5</ele>
    <time>2018-09-22T06:36:24Z</time>
   </trkpt>
   <trkpt lat="31.7381460" lon="35.1189580">
    <ele>523.5</ele>
    <time>2018-09-22T06:36:25Z</time>
   </trkpt>
   <trkpt lat="31.7381730" lon="35.1189620">
    <ele>523.5</ele>
    <time>2018-09-22T06:36:26Z</time>
   </trkpt>
   <trkpt lat="31.7382010" lon="35.1189720">
    <ele>523.6</ele>
    <time>2018-09-22T06:36:27Z</time>
   </trkpt>
   <trkpt lat="31.7382320" lon="35.1189860">
    <ele>523.6</ele>
    <time>2018-09-22T06:36:28Z</time>
   </trkpt>
   <trkpt lat="31.7382810" lon="35.1189930">
    <ele>523.7</ele>
    <time>2018-09-22T06:36:30Z</time>
   </trkpt>
   <trkpt lat="31.7383090" lon="35.1189950">
    <ele>523.7</ele>
    <time>2018-09-22T06:36:31Z</time>
   </trkpt>
   <trkpt lat="31.7383540" lon="35.1189950">
    <ele>523.9</ele>
    <time>2018-09-22T06:36:33Z</time>
   </trkpt>
   <trkpt lat="31.7384070" lon="35.1190030">
    <ele>524.2</ele>
    <time>2018-09-22T06:36:35Z</time>
   </trkpt>
   <trkpt lat="31.7384510" lon="35.1190120">
    <ele>524.4</ele>
    <time>2018-09-22T06:36:37Z</time>
   </trkpt>
   <trkpt lat="31.7385040" lon="35.1190210">
    <ele>524.7</ele>
    <time>2018-09-22T06:36:39Z</time>
   </trkpt>
   <trkpt lat="31.7385370" lon="35.1190280">
    <ele>524.9</ele>
    <time>2018-09-22T06:36:40Z</time>
   </trkpt>
   <trkpt lat="31.7385630" lon="35.1190370">
    <ele>525.0</ele>
    <time>2018-09-22T06:36:41Z</time>
   </trkpt>
   <trkpt lat="31.7385950" lon="35.1190360">
    <ele>525.1</ele>
    <time>2018-09-22T06:36:43Z</time>
   </trkpt>
   <trkpt lat="31.7386430" lon="35.1190410">
    <ele>525.3</ele>
    <time>2018-09-22T06:36:45Z</time>
   </trkpt>
   <trkpt lat="31.7386790" lon="35.1190350">
    <ele>525.4</ele>
    <time>2018-09-22T06:36:47Z</time>
   </trkpt>
   <trkpt lat="31.7387290" lon="35.1190440">
    <ele>525.7</ele>
    <time>2018-09-22T06:36:49Z</time>
   </trkpt>
   <trkpt lat="31.7387770" lon="35.1190450">
    <ele>526.0</ele>
    <time>2018-09-22T06:36:51Z</time>
   </trkpt>
   <trkpt lat="31.7388230" lon="35.1190450">
    <ele>526.3</ele>
    <time>2018-09-22T06:36:53Z</time>
   </trkpt>
   <trkpt lat="31.7388510" lon="35.1190490">
    <ele>526.5</ele>
    <time>2018-09-22T06:36:54Z</time>
   </trkpt>
   <trkpt lat="31.7388980" lon="35.1190420">
    <ele>526.8</ele>
    <time>2018-09-22T06:36:56Z</time>
   </trkpt>
   <trkpt lat="31.7389490" lon="35.1190580">
    <ele>527.0</ele>
    <time>2018-09-22T06:36:58Z</time>
   </trkpt>
   <trkpt lat="31.7389760" lon="35.1190630">
    <ele>527.2</ele>
    <time>2018-09-22T06:36:59Z</time>
   </trkpt>
   <trkpt lat="31.7390080" lon="35.1190690">
    <ele>527.4</ele>
    <time>2018-09-22T06:37:00Z</time>
   </trkpt>
   <trkpt lat="31.7390520" lon="35.1190780">
    <ele>527.7</ele>
    <time>2018-09-22T06:37:02Z</time>
   </trkpt>
   <trkpt lat="31.7390980" lon="35.1190710">
    <ele>528.0</ele>
    <time>2018-09-22T06:37:04Z</time>
   </trkpt>
   <trkpt lat="31.7391340" lon="35.1190830">
    <ele>528.3</ele>
    <time>2018-09-22T06:37:05Z</time>
   </trkpt>
   <trkpt lat="31.7391790" lon="35.1190830">
    <ele>528.5</ele>
    <time>2018-09-22T06:37:07Z</time>
   </trkpt>
   <trkpt lat="31.7392080" lon="35.1190840">
    <ele>528.7</ele>
    <time>2018-09-22T06:37:09Z</time>
   </trkpt>
   <trkpt lat="31.7392480" lon="35.1190920">
    <ele>528.9</ele>
    <time>2018-09-22T06:37:11Z</time>
   </trkpt>
   <trkpt lat="31.7392860" lon="35.1190910">
    <ele>529.0</ele>
    <time>2018-09-22T06:37:13Z</time>
   </trkpt>
   <trkpt lat="31.7393280" lon="35.1190970">
    <ele>529.2</ele>
    <time>2018-09-22T06:37:15Z</time>
   </trkpt>
   <trkpt lat="31.7393780" lon="35.1191000">
    <ele>529.3</ele>
    <time>2018-09-22T06:37:17Z</time>
   </trkpt>
   <trkpt lat="31.7394080" lon="35.1191110">
    <ele>529.4</ele>
    <time>2018-09-22T06:37:18Z</time>
   </trkpt>
   <trkpt lat="31.7394380" lon="35.1191230">
    <ele>529.6</ele>
    <time>2018-09-22T06:37:19Z</time>
   </trkpt>
   <trkpt lat="31.7394720" lon="35.1191410">
    <ele>529.8</ele>
    <time>2018-09-22T06:37:20Z</time>
   </trkpt>
   <trkpt lat="31.7395150" lon="35.1191490">
    <ele>530.1</ele>
    <time>2018-09-22T06:37:22Z</time>
   </trkpt>
   <trkpt lat="31.7395560" lon="35.1191610">
    <ele>530.5</ele>
    <time>2018-09-22T06:37:24Z</time>
   </trkpt>
   <trkpt lat="31.7395980" lon="35.1191780">
    <ele>530.8</ele>
    <time>2018-09-22T06:37:26Z</time>
   </trkpt>
   <trkpt lat="31.7396450" lon="35.1191820">
    <ele>531.1</ele>
    <time>2018-09-22T06:37:28Z</time>
   </trkpt>
   <trkpt lat="31.7396870" lon="35.1191940">
    <ele>531.5</ele>
    <time>2018-09-22T06:37:30Z</time>
   </trkpt>
   <trkpt lat="31.7397230" lon="35.1191830">
    <ele>531.7</ele>
    <time>2018-09-22T06:37:32Z</time>
   </trkpt>
   <trkpt lat="31.7397670" lon="35.1191820">
    <ele>532.1</ele>
    <time>2018-09-22T06:37:34Z</time>
   </trkpt>
   <trkpt lat="31.7398040" lon="35.1192000">
    <ele>532.4</ele>
    <time>2018-09-22T06:37:36Z</time>
   </trkpt>
   <trkpt lat="31.7398550" lon="35.1192110">
    <ele>532.6</ele>
    <time>2018-09-22T06:37:38Z</time>
   </trkpt>
   <trkpt lat="31.7399000" lon="35.1192190">
    <ele>532.8</ele>
    <time>2018-09-22T06:37:40Z</time>
   </trkpt>
   <trkpt lat="31.7399450" lon="35.1192210">
    <ele>533.0</ele>
    <time>2018-09-22T06:37:42Z</time>
   </trkpt>
   <trkpt lat="31.7399840" lon="35.1192240">
    <ele>533.3</ele>
    <time>2018-09-22T06:37:44Z</time>
   </trkpt>
   <trkpt lat="31.7400140" lon="35.1192260">
    <ele>533.5</ele>
    <time>2018-09-22T06:37:46Z</time>
   </trkpt>
   <trkpt lat="31.7400450" lon="35.1192330">
    <ele>533.8</ele>
    <time>2018-09-22T06:37:48Z</time>
   </trkpt>
   <trkpt lat="31.7400830" lon="35.1192370">
    <ele>534.2</ele>
    <time>2018-09-22T06:37:51Z</time>
   </trkpt>
   <trkpt lat="31.7401230" lon="35.1192460">
    <ele>534.4</ele>
    <time>2018-09-22T06:37:54Z</time>
   </trkpt>
   <trkpt lat="31.7401530" lon="35.1192530">
    <ele>534.6</ele>
    <time>2018-09-22T06:37:56Z</time>
   </trkpt>
   <trkpt lat="31.7401890" lon="35.1192610">
    <ele>534.7</ele>
    <time>2018-09-22T06:37:58Z</time>
   </trkpt>
   <trkpt lat="31.7402170" lon="35.1192640">
    <ele>534.8</ele>
    <time>2018-09-22T06:38:00Z</time>
   </trkpt>
   <trkpt lat="31.7402500" lon="35.1192680">
    <ele>535.0</ele>
    <time>2018-09-22T06:38:02Z</time>
   </trkpt>
   <trkpt lat="31.7402810" lon="35.1192750">
    <ele>535.3</ele>
    <time>2018-09-22T06:38:04Z</time>
   </trkpt>
   <trkpt lat="31.7403120" lon="35.1192660">
    <ele>535.5</ele>
    <time>2018-09-22T06:38:06Z</time>
   </trkpt>
   <trkpt lat="31.7403410" lon="35.1192570">
    <ele>535.7</ele>
    <time>2018-09-22T06:38:08Z</time>
   </trkpt>
   <trkpt lat="31.7403730" lon="35.1192640">
    <ele>535.9</ele>
    <time>2018-09-22T06:38:10Z</time>
   </trkpt>
   <trkpt lat="31.7404120" lon="35.1192970">
    <ele>536.1</ele>
    <time>2018-09-22T06:38:12Z</time>
   </trkpt>
   <trkpt lat="31.7404550" lon="35.1193340">
    <ele>536.3</ele>
    <time>2018-09-22T06:38:14Z</time>
   </trkpt>
   <trkpt lat="31.7404900" lon="35.1193470">
    <ele>536.4</ele>
    <time>2018-09-22T06:38:16Z</time>
   </trkpt>
   <trkpt lat="31.7405350" lon="35.1193600">
    <ele>536.5</ele>
    <time>2018-09-22T06:38:18Z</time>
   </trkpt>
   <trkpt lat="31.7405680" lon="35.1193750">
    <ele>536.7</ele>
    <time>2018-09-22T06:38:20Z</time>
   </trkpt>
   <trkpt lat="31.7406200" lon="35.1193980">
    <ele>536.9</ele>
    <time>2018-09-22T06:38:22Z</time>
   </trkpt>
   <trkpt lat="31.7406670" lon="35.1194080">
    <ele>537.2</ele>
    <time>2018-09-22T06:38:24Z</time>
   </trkpt>
   <trkpt lat="31.7407010" lon="35.1194160">
    <ele>537.4</ele>
    <time>2018-09-22T06:38:26Z</time>
   </trkpt>
   <trkpt lat="31.7407400" lon="35.1194290">
    <ele>537.6</ele>
    <time>2018-09-22T06:38:28Z</time>
   </trkpt>
   <trkpt lat="31.7407880" lon="35.1194400">
    <ele>537.9</ele>
    <time>2018-09-22T06:38:30Z</time>
   </trkpt>
   <trkpt lat="31.7408390" lon="35.1194610">
    <ele>538.1</ele>
    <time>2018-09-22T06:38:32Z</time>
   </trkpt>
   <trkpt lat="31.7408650" lon="35.1194770">
    <ele>538.2</ele>
    <time>2018-09-22T06:38:33Z</time>
   </trkpt>
   <trkpt lat="31.7409080" lon="35.1194950">
    <ele>538.3</ele>
    <time>2018-09-22T06:38:35Z</time>
   </trkpt>
   <trkpt lat="31.7409560" lon="35.1195170">
    <ele>538.5</ele>
    <time>2018-09-22T06:38:37Z</time>
   </trkpt>
   <trkpt lat="31.7409820" lon="35.1195250">
    <ele>538.6</ele>
    <time>2018-09-22T06:38:38Z</time>
   </trkpt>
   <trkpt lat="31.7410380" lon="35.1195460">
    <ele>538.9</ele>
    <time>2018-09-22T06:38:40Z</time>
   </trkpt>
   <trkpt lat="31.7410840" lon="35.1195510">
    <ele>539.2</ele>
    <time>2018-09-22T06:38:42Z</time>
   </trkpt>
   <trkpt lat="31.7411340" lon="35.1195680">
    <ele>539.4</ele>
    <time>2018-09-22T06:38:44Z</time>
   </trkpt>
   <trkpt lat="31.7411590" lon="35.1195820">
    <ele>539.5</ele>
    <time>2018-09-22T06:38:45Z</time>
   </trkpt>
   <trkpt lat="31.7412110" lon="35.1195990">
    <ele>539.7</ele>
    <time>2018-09-22T06:38:47Z</time>
   </trkpt>
   <trkpt lat="31.7412570" lon="35.1196200">
    <ele>539.8</ele>
    <time>2018-09-22T06:38:49Z</time>
   </trkpt>
   <trkpt lat="31.7413140" lon="35.1196810">
    <ele>540.3</ele>
    <time>2018-09-22T06:38:51Z</time>
   </trkpt>
   <trkpt lat="31.7413610" lon="35.1196990">
    <ele>540.6</ele>
    <time>2018-09-22T06:38:53Z</time>
   </trkpt>
   <trkpt lat="31.7413930" lon="35.1197190">
    <ele>540.8</ele>
    <time>2018-09-22T06:38:55Z</time>
   </trkpt>
   <trkpt lat="31.7414330" lon="35.1197410">
    <ele>541.0</ele>
    <time>2018-09-22T06:38:57Z</time>
   </trkpt>
   <trkpt lat="31.7414770" lon="35.1197610">
    <ele>541.3</ele>
    <time>2018-09-22T06:38:59Z</time>
   </trkpt>
   <trkpt lat="31.7415210" lon="35.1197690">
    <ele>541.4</ele>
    <time>2018-09-22T06:39:01Z</time>
   </trkpt>
   <trkpt lat="31.7415660" lon="35.1197820">
    <ele>541.5</ele>
    <time>2018-09-22T06:39:03Z</time>
   </trkpt>
   <trkpt lat="31.7415950" lon="35.1197930">
    <ele>541.5</ele>
    <time>2018-09-22T06:39:04Z</time>
   </trkpt>
   <trkpt lat="31.7416230" lon="35.1198030">
    <ele>541.6</ele>
    <time>2018-09-22T06:39:05Z</time>
   </trkpt>
   <trkpt lat="31.7416500" lon="35.1198180">
    <ele>541.7</ele>
    <time>2018-09-22T06:39:06Z</time>
   </trkpt>
   <trkpt lat="31.7416920" lon="35.1198270">
    <ele>541.9</ele>
    <time>2018-09-22T06:39:08Z</time>
   </trkpt>
   <trkpt lat="31.7417340" lon="35.1198410">
    <ele>542.2</ele>
    <time>2018-09-22T06:39:10Z</time>
   </trkpt>
   <trkpt lat="31.7417620" lon="35.1198690">
    <ele>542.5</ele>
    <time>2018-09-22T06:39:11Z</time>
   </trkpt>
   <trkpt lat="31.7417890" lon="35.1198840">
    <ele>542.7</ele>
    <time>2018-09-22T06:39:12Z</time>
   </trkpt>
   <trkpt lat="31.7418270" lon="35.1198940">
    <ele>543.0</ele>
    <time>2018-09-22T06:39:14Z</time>
   </trkpt>
   <trkpt lat="31.7418620" lon="35.1199110">
    <ele>543.4</ele>
    <time>2018-09-22T06:39:16Z</time>
   </trkpt>
   <trkpt lat="31.7419050" lon="35.1199210">
    <ele>543.8</ele>
    <time>2018-09-22T06:39:18Z</time>
   </trkpt>
   <trkpt lat="31.7419450" lon="35.1199440">
    <ele>544.2</ele>
    <time>2018-09-22T06:39:20Z</time>
   </trkpt>
   <trkpt lat="31.7419870" lon="35.1199700">
    <ele>544.6</ele>
    <time>2018-09-22T06:39:22Z</time>
   </trkpt>
   <trkpt lat="31.7420250" lon="35.1199860">
    <ele>544.9</ele>
    <time>2018-09-22T06:39:24Z</time>
   </trkpt>
   <trkpt lat="31.7420640" lon="35.1200190">
    <ele>545.1</ele>
    <time>2018-09-22T06:39:26Z</time>
   </trkpt>
   <trkpt lat="31.7421040" lon="35.1200430">
    <ele>545.2</ele>
    <time>2018-09-22T06:39:28Z</time>
   </trkpt>
   <trkpt lat="31.7421450" lon="35.1200590">
    <ele>545.4</ele>
    <time>2018-09-22T06:39:30Z</time>
   </trkpt>
   <trkpt lat="31.7421920" lon="35.1200720">
    <ele>545.7</ele>
    <time>2018-09-22T06:39:32Z</time>
   </trkpt>
   <trkpt lat="31.7422350" lon="35.1200980">
    <ele>546.0</ele>
    <time>2018-09-22T06:39:34Z</time>
   </trkpt>
   <trkpt lat="31.7422790" lon="35.1201180">
    <ele>546.3</ele>
    <time>2018-09-22T06:39:36Z</time>
   </trkpt>
   <trkpt lat="31.7423230" lon="35.1201360">
    <ele>546.4</ele>
    <time>2018-09-22T06:39:38Z</time>
   </trkpt>
   <trkpt lat="31.7423730" lon="35.1201590">
    <ele>546.5</ele>
    <time>2018-09-22T06:39:40Z</time>
   </trkpt>
   <trkpt lat="31.7424180" lon="35.1201790">
    <ele>546.6</ele>
    <time>2018-09-22T06:39:42Z</time>
   </trkpt>
   <trkpt lat="31.7424590" lon="35.1201960">
    <ele>546.7</ele>
    <time>2018-09-22T06:39:44Z</time>
   </trkpt>
   <trkpt lat="31.7425030" lon="35.1202100">
    <ele>546.8</ele>
    <time>2018-09-22T06:39:46Z</time>
   </trkpt>
   <trkpt lat="31.7425520" lon="35.1202260">
    <ele>547.0</ele>
    <time>2018-09-22T06:39:48Z</time>
   </trkpt>
   <trkpt lat="31.7425780" lon="35.1202340">
    <ele>547.2</ele>
    <time>2018-09-22T06:39:49Z</time>
   </trkpt>
   <trkpt lat="31.7426050" lon="35.1202420">
    <ele>547.4</ele>
    <time>2018-09-22T06:39:50Z</time>
   </trkpt>
   <trkpt lat="31.7426330" lon="35.1202470">
    <ele>547.6</ele>
    <time>2018-09-22T06:39:51Z</time>
   </trkpt>
   <trkpt lat="31.7426740" lon="35.1202650">
    <ele>547.9</ele>
    <time>2018-09-22T06:39:53Z</time>
   </trkpt>
   <trkpt lat="31.7427350" lon="35.1202730">
    <ele>548.3</ele>
    <time>2018-09-22T06:39:55Z</time>
   </trkpt>
   <trkpt lat="31.7427690" lon="35.1202740">
    <ele>548.4</ele>
    <time>2018-09-22T06:39:56Z</time>
   </trkpt>
   <trkpt lat="31.7428020" lon="35.1202920">
    <ele>548.5</ele>
    <time>2018-09-22T06:39:57Z</time>
   </trkpt>
   <trkpt lat="31.7428280" lon="35.1203010">
    <ele>548.6</ele>
    <time>2018-09-22T06:39:58Z</time>
   </trkpt>
   <trkpt lat="31.7428740" lon="35.1203120">
    <ele>548.8</ele>
    <time>2018-09-22T06:40:00Z</time>
   </trkpt>
   <trkpt lat="31.7429150" lon="35.1203150">
    <ele>549.1</ele>
    <time>2018-09-22T06:40:02Z</time>
   </trkpt>
   <trkpt lat="31.7429610" lon="35.1203490">
    <ele>549.4</ele>
    <time>2018-09-22T06:40:04Z</time>
   </trkpt>
   <trkpt lat="31.7429870" lon="35.1203670">
    <ele>549.6</ele>
    <time>2018-09-22T06:40:05Z</time>
   </trkpt>
   <trkpt lat="31.7430250" lon="35.1204030">
    <ele>549.9</ele>
    <time>2018-09-22T06:40:07Z</time>
   </trkpt>
   <trkpt lat="31.7430560" lon="35.1204250">
    <ele>550.1</ele>
    <time>2018-09-22T06:40:09Z</time>
   </trkpt>
   <trkpt lat="31.7430900" lon="35.1204670">
    <ele>550.4</ele>
    <time>2018-09-22T06:40:11Z</time>
   </trkpt>
   <trkpt lat="31.7431090" lon="35.1204900">
    <ele>550.5</ele>
    <time>2018-09-22T06:40:12Z</time>
   </trkpt>
   <trkpt lat="31.7431380" lon="35.1205290">
    <ele>550.8</ele>
    <time>2018-09-22T06:40:14Z</time>
   </trkpt>
   <trkpt lat="31.7431650" lon="35.1205510">
    <ele>551.0</ele>
    <time>2018-09-22T06:40:16Z</time>
   </trkpt>
   <trkpt lat="31.7431970" lon="35.1205790">
    <ele>551.3</ele>
    <time>2018-09-22T06:40:18Z</time>
   </trkpt>
   <trkpt lat="31.7432210" lon="35.1206010">
    <ele>551.6</ele>
    <time>2018-09-22T06:40:20Z</time>
   </trkpt>
   <trkpt lat="31.7432490" lon="35.1206460">
    <ele>551.8</ele>
    <time>2018-09-22T06:40:22Z</time>
   </trkpt>
   <trkpt lat="31.7432810" lon="35.1206850">
    <ele>552.1</ele>
    <time>2018-09-22T06:40:24Z</time>
   </trkpt>
   <trkpt lat="31.7433080" lon="35.1207270">
    <ele>552.4</ele>
    <time>2018-09-22T06:40:26Z</time>
   </trkpt>
   <trkpt lat="31.7433330" lon="35.1207540">
    <ele>552.7</ele>
    <time>2018-09-22T06:40:28Z</time>
   </trkpt>
   <trkpt lat="31.7433610" lon="35.1207940">
    <ele>553.0</ele>
    <time>2018-09-22T06:40:30Z</time>
   </trkpt>
   <trkpt lat="31.7433880" lon="35.1208250">
    <ele>553.3</ele>
    <time>2018-09-22T06:40:32Z</time>
   </trkpt>
   <trkpt lat="31.7434190" lon="35.1208540">
    <ele>553.6</ele>
    <time>2018-09-22T06:40:34Z</time>
   </trkpt>
   <trkpt lat="31.7434470" lon="35.1208930">
    <ele>553.8</ele>
    <time>2018-09-22T06:40:36Z</time>
   </trkpt>
   <trkpt lat="31.7434780" lon="35.1209200">
    <ele>554.1</ele>
    <time>2018-09-22T06:40:38Z</time>
   </trkpt>
   <trkpt lat="31.7435150" lon="35.1209590">
    <ele>554.3</ele>
    <time>2018-09-22T06:40:40Z</time>
   </trkpt>
   <trkpt lat="31.7435420" lon="35.1209910">
    <ele>554.6</ele>
    <time>2018-09-22T06:40:42Z</time>
   </trkpt>
   <trkpt lat="31.7435700" lon="35.1210140">
    <ele>554.9</ele>
    <time>2018-09-22T06:40:44Z</time>
   </trkpt>
   <trkpt lat="31.7436040" lon="35.1210540">
    <ele>555.2</ele>
    <time>2018-09-22T06:40:46Z</time>
   </trkpt>
   <trkpt lat="31.7436310" lon="35.1210960">
    <ele>555.5</ele>
    <time>2018-09-22T06:40:48Z</time>
   </trkpt>
   <trkpt lat="31.7436630" lon="35.1211330">
    <ele>555.7</ele>
    <time>2018-09-22T06:40:50Z</time>
   </trkpt>
   <trkpt lat="31.7437030" lon="35.1211680">
    <ele>555.9</ele>
    <time>2018-09-22T06:40:52Z</time>
   </trkpt>
   <trkpt lat="31.7437240" lon="35.1211990">
    <ele>556.0</ele>
    <time>2018-09-22T06:40:53Z</time>
   </trkpt>
   <trkpt lat="31.7437580" lon="35.1212320">
    <ele>556.3</ele>
    <time>2018-09-22T06:40:55Z</time>
   </trkpt>
   <trkpt lat="31.7437940" lon="35.1212690">
    <ele>556.7</ele>
    <time>2018-09-22T06:40:57Z</time>
   </trkpt>
   <trkpt lat="31.7438290" lon="35.1213000">
    <ele>557.1</ele>
    <time>2018-09-22T06:40:59Z</time>
   </trkpt>
   <trkpt lat="31.7438590" lon="35.1213340">
    <ele>557.4</ele>
    <time>2018-09-22T06:41:01Z</time>
   </trkpt>
   <trkpt lat="31.7438920" lon="35.1213610">
    <ele>557.6</ele>
    <time>2018-09-22T06:41:03Z</time>
   </trkpt>
   <trkpt lat="31.7439210" lon="35.1213920">
    <ele>557.8</ele>
    <time>2018-09-22T06:41:05Z</time>
   </trkpt>
   <trkpt lat="31.7439530" lon="35.1214180">
    <ele>558.1</ele>
    <time>2018-09-22T06:41:07Z</time>
   </trkpt>
   <trkpt lat="31.7439870" lon="35.1214500">
    <ele>558.4</ele>
    <time>2018-09-22T06:41:09Z</time>
   </trkpt>
   <trkpt lat="31.7440170" lon="35.1214740">
    <ele>558.7</ele>
    <time>2018-09-22T06:41:11Z</time>
   </trkpt>
   <trkpt lat="31.7440540" lon="35.1215090">
    <ele>559.0</ele>
    <time>2018-09-22T06:41:13Z</time>
   </trkpt>
   <trkpt lat="31.7440880" lon="35.1215430">
    <ele>559.2</ele>
    <time>2018-09-22T06:41:15Z</time>
   </trkpt>
   <trkpt lat="31.7441290" lon="35.1215850">
    <ele>559.4</ele>
    <time>2018-09-22T06:41:17Z</time>
   </trkpt>
   <trkpt lat="31.7441490" lon="35.1216060">
    <ele>559.6</ele>
    <time>2018-09-22T06:41:18Z</time>
   </trkpt>
   <trkpt lat="31.7441880" lon="35.1216420">
    <ele>560.0</ele>
    <time>2018-09-22T06:41:20Z</time>
   </trkpt>
   <trkpt lat="31.7442260" lon="35.1216740">
    <ele>560.4</ele>
    <time>2018-09-22T06:41:22Z</time>
   </trkpt>
   <trkpt lat="31.7442560" lon="35.1217030">
    <ele>560.7</ele>
    <time>2018-09-22T06:41:24Z</time>
   </trkpt>
   <trkpt lat="31.7442790" lon="35.1217230">
    <ele>560.9</ele>
    <time>2018-09-22T06:41:25Z</time>
   </trkpt>
   <trkpt lat="31.7443130" lon="35.1217550">
    <ele>561.0</ele>
    <time>2018-09-22T06:41:27Z</time>
   </trkpt>
   <trkpt lat="31.7443450" lon="35.1217880">
    <ele>561.2</ele>
    <time>2018-09-22T06:41:29Z</time>
   </trkpt>
   <trkpt lat="31.7443780" lon="35.1218160">
    <ele>561.5</ele>
    <time>2018-09-22T06:41:31Z</time>
   </trkpt>
   <trkpt lat="31.7444160" lon="35.1218530">
    <ele>561.9</ele>
    <time>2018-09-22T06:41:33Z</time>
   </trkpt>
   <trkpt lat="31.7444550" lon="35.1218840">
    <ele>562.3</ele>
    <time>2018-09-22T06:41:35Z</time>
   </trkpt>
   <trkpt lat="31.7444810" lon="35.1219060">
    <ele>562.4</ele>
    <time>2018-09-22T06:41:37Z</time>
   </trkpt>
   <trkpt lat="31.7445160" lon="35.1219320">
    <ele>562.6</ele>
    <time>2018-09-22T06:41:39Z</time>
   </trkpt>
   <trkpt lat="31.7445580" lon="35.1219640">
    <ele>562.8</ele>
    <time>2018-09-22T06:41:41Z</time>
   </trkpt>
   <trkpt lat="31.7446030" lon="35.1219930">
    <ele>562.9</ele>
    <time>2018-09-22T06:41:43Z</time>
   </trkpt>
   <trkpt lat="31.7446270" lon="35.1220110">
    <ele>563.0</ele>
    <time>2018-09-22T06:41:44Z</time>
   </trkpt>
   <trkpt lat="31.7446730" lon="35.1220520">
    <ele>563.1</ele>
    <time>2018-09-22T06:41:46Z</time>
   </trkpt>
   <trkpt lat="31.7447180" lon="35.1220830">
    <ele>563.3</ele>
    <time>2018-09-22T06:41:48Z</time>
   </trkpt>
   <trkpt lat="31.7447580" lon="35.1221120">
    <ele>563.5</ele>
    <time>2018-09-22T06:41:50Z</time>
   </trkpt>
   <trkpt lat="31.7448020" lon="35.1221370">
    <ele>563.8</ele>
    <time>2018-09-22T06:41:52Z</time>
   </trkpt>
   <trkpt lat="31.7448240" lon="35.1221560">
    <ele>563.9</ele>
    <time>2018-09-22T06:41:53Z</time>
   </trkpt>
   <trkpt lat="31.7448480" lon="35.1221770">
    <ele>564.1</ele>
    <time>2018-09-22T06:41:54Z</time>
   </trkpt>
   <trkpt lat="31.7448710" lon="35.1221970">
    <ele>564.1</ele>
    <time>2018-09-22T06:41:55Z</time>
   </trkpt>
   <trkpt lat="31.7448950" lon="35.1222260">
    <ele>564.3</ele>
    <time>2018-09-22T06:41:56Z</time>
   </trkpt>
   <trkpt lat="31.7449120" lon="35.1222540">
    <ele>564.3</ele>
    <time>2018-09-22T06:41:57Z</time>
   </trkpt>
   <trkpt lat="31.7449310" lon="35.1222800">
    <ele>564.4</ele>
    <time>2018-09-22T06:41:58Z</time>
   </trkpt>
   <trkpt lat="31.7449480" lon="35.1223430">
    <ele>564.4</ele>
    <time>2018-09-22T06:42:00Z</time>
   </trkpt>
   <trkpt lat="31.7449530" lon="35.1223790">
    <ele>564.5</ele>
    <time>2018-09-22T06:42:01Z</time>
   </trkpt>
   <trkpt lat="31.7449590" lon="35.1224120">
    <ele>564.6</ele>
    <time>2018-09-22T06:42:02Z</time>
   </trkpt>
   <trkpt lat="31.7449600" lon="35.1224480">
    <ele>564.6</ele>
    <time>2018-09-22T06:42:04Z</time>
   </trkpt>
   <trkpt lat="31.7449640" lon="35.1224930">
    <ele>564.7</ele>
    <time>2018-09-22T06:42:06Z</time>
   </trkpt>
   <trkpt lat="31.7449630" lon="35.1225270">
    <ele>564.8</ele>
    <time>2018-09-22T06:42:07Z</time>
   </trkpt>
   <trkpt lat="31.7449640" lon="35.1225640">
    <ele>565.0</ele>
    <time>2018-09-22T06:42:08Z</time>
   </trkpt>
   <trkpt lat="31.7449670" lon="35.1226290">
    <ele>565.3</ele>
    <time>2018-09-22T06:42:10Z</time>
   </trkpt>
   <trkpt lat="31.7449710" lon="35.1226870">
    <ele>565.7</ele>
    <time>2018-09-22T06:42:12Z</time>
   </trkpt>
   <trkpt lat="31.7449680" lon="35.1227290">
    <ele>565.9</ele>
    <time>2018-09-22T06:42:14Z</time>
   </trkpt>
   <trkpt lat="31.7449840" lon="35.1227790">
    <ele>566.2</ele>
    <time>2018-09-22T06:42:16Z</time>
   </trkpt>
   <trkpt lat="31.7449940" lon="35.1228230">
    <ele>566.5</ele>
    <time>2018-09-22T06:42:18Z</time>
   </trkpt>
   <trkpt lat="31.7450090" lon="35.1228730">
    <ele>566.9</ele>
    <time>2018-09-22T06:42:20Z</time>
   </trkpt>
   <trkpt lat="31.7450260" lon="35.1229220">
    <ele>567.3</ele>
    <time>2018-09-22T06:42:21Z</time>
   </trkpt>
   <trkpt lat="31.7450360" lon="35.1229640">
    <ele>567.5</ele>
    <time>2018-09-22T06:42:23Z</time>
   </trkpt>
   <trkpt lat="31.7450570" lon="35.1230010">
    <ele>567.7</ele>
    <time>2018-09-22T06:42:25Z</time>
   </trkpt>
   <trkpt lat="31.7451160" lon="35.1231390">
    <ele>568.5</ele>
    <time>2018-09-22T06:42:31Z</time>
   </trkpt>
   <trkpt lat="31.7451340" lon="35.1231860">
    <ele>568.8</ele>
    <time>2018-09-22T06:42:33Z</time>
   </trkpt>
   <trkpt lat="31.7451520" lon="35.1232130">
    <ele>569.1</ele>
    <time>2018-09-22T06:42:34Z</time>
   </trkpt>
   <trkpt lat="31.7451690" lon="35.1232440">
    <ele>569.3</ele>
    <time>2018-09-22T06:42:35Z</time>
   </trkpt>
   <trkpt lat="31.7451860" lon="35.1232920">
    <ele>569.5</ele>
    <time>2018-09-22T06:42:37Z</time>
   </trkpt>
   <trkpt lat="31.7452070" lon="35.1233350">
    <ele>569.7</ele>
    <time>2018-09-22T06:42:39Z</time>
   </trkpt>
   <trkpt lat="31.7452300" lon="35.1233900">
    <ele>570.0</ele>
    <time>2018-09-22T06:42:41Z</time>
   </trkpt>
   <trkpt lat="31.7452570" lon="35.1234440">
    <ele>570.4</ele>
    <time>2018-09-22T06:42:43Z</time>
   </trkpt>
   <trkpt lat="31.7452720" lon="35.1234930">
    <ele>570.7</ele>
    <time>2018-09-22T06:42:45Z</time>
   </trkpt>
   <trkpt lat="31.7452970" lon="35.1235670">
    <ele>570.9</ele>
    <time>2018-09-22T06:42:48Z</time>
   </trkpt>
   <trkpt lat="31.7453200" lon="35.1236160">
    <ele>571.0</ele>
    <time>2018-09-22T06:42:50Z</time>
   </trkpt>
   <trkpt lat="31.7453400" lon="35.1236620">
    <ele>571.1</ele>
    <time>2018-09-22T06:42:52Z</time>
   </trkpt>
   <trkpt lat="31.7453490" lon="35.1237030">
    <ele>571.2</ele>
    <time>2018-09-22T06:42:54Z</time>
   </trkpt>
   <trkpt lat="31.7453610" lon="35.1237520">
    <ele>571.4</ele>
    <time>2018-09-22T06:42:56Z</time>
   </trkpt>
   <trkpt lat="31.7453770" lon="35.1237970">
    <ele>571.6</ele>
    <time>2018-09-22T06:42:58Z</time>
   </trkpt>
   <trkpt lat="31.7453980" lon="35.1238450">
    <ele>571.9</ele>
    <time>2018-09-22T06:43:00Z</time>
   </trkpt>
   <trkpt lat="31.7454080" lon="35.1238790">
    <ele>572.1</ele>
    <time>2018-09-22T06:43:01Z</time>
   </trkpt>
   <trkpt lat="31.7454220" lon="35.1239320">
    <ele>572.4</ele>
    <time>2018-09-22T06:43:03Z</time>
   </trkpt>
   <trkpt lat="31.7454390" lon="35.1239830">
    <ele>572.6</ele>
    <time>2018-09-22T06:43:05Z</time>
   </trkpt>
   <trkpt lat="31.7454440" lon="35.1240360">
    <ele>572.7</ele>
    <time>2018-09-22T06:43:07Z</time>
   </trkpt>
   <trkpt lat="31.7454510" lon="35.1240880">
    <ele>572.8</ele>
    <time>2018-09-22T06:43:09Z</time>
   </trkpt>
   <trkpt lat="31.7454690" lon="35.1241280">
    <ele>572.9</ele>
    <time>2018-09-22T06:43:11Z</time>
   </trkpt>
   <trkpt lat="31.7454790" lon="35.1241920">
    <ele>573.2</ele>
    <time>2018-09-22T06:43:13Z</time>
   </trkpt>
   <trkpt lat="31.7454900" lon="35.1242610">
    <ele>573.7</ele>
    <time>2018-09-22T06:43:15Z</time>
   </trkpt>
   <trkpt lat="31.7455060" lon="35.1243090">
    <ele>574.0</ele>
    <time>2018-09-22T06:43:17Z</time>
   </trkpt>
   <trkpt lat="31.7455170" lon="35.1243550">
    <ele>574.2</ele>
    <time>2018-09-22T06:43:19Z</time>
   </trkpt>
   <trkpt lat="31.7455320" lon="35.1244030">
    <ele>574.4</ele>
    <time>2018-09-22T06:43:21Z</time>
   </trkpt>
   <trkpt lat="31.7455550" lon="35.1244550">
    <ele>574.5</ele>
    <time>2018-09-22T06:43:23Z</time>
   </trkpt>
   <trkpt lat="31.7455710" lon="35.1245090">
    <ele>574.7</ele>
    <time>2018-09-22T06:43:25Z</time>
   </trkpt>
   <trkpt lat="31.7455840" lon="35.1245600">
    <ele>574.8</ele>
    <time>2018-09-22T06:43:27Z</time>
   </trkpt>
   <trkpt lat="31.7456090" lon="35.1246090">
    <ele>575.0</ele>
    <time>2018-09-22T06:43:29Z</time>
   </trkpt>
   <trkpt lat="31.7456260" lon="35.1246570">
    <ele>575.2</ele>
    <time>2018-09-22T06:43:31Z</time>
   </trkpt>
   <trkpt lat="31.7456470" lon="35.1247150">
    <ele>575.5</ele>
    <time>2018-09-22T06:43:33Z</time>
   </trkpt>
   <trkpt lat="31.7456720" lon="35.1247750">
    <ele>575.9</ele>
    <time>2018-09-22T06:43:35Z</time>
   </trkpt>
   <trkpt lat="31.7456810" lon="35.1248050">
    <ele>576.0</ele>
    <time>2018-09-22T06:43:36Z</time>
   </trkpt>
   <trkpt lat="31.7457000" lon="35.1248570">
    <ele>576.2</ele>
    <time>2018-09-22T06:43:38Z</time>
   </trkpt>
   <trkpt lat="31.7457080" lon="35.1249130">
    <ele>576.4</ele>
    <time>2018-09-22T06:43:40Z</time>
   </trkpt>
   <trkpt lat="31.7457170" lon="35.1249460">
    <ele>576.5</ele>
    <time>2018-09-22T06:43:41Z</time>
   </trkpt>
   <trkpt lat="31.7457270" lon="35.1249870">
    <ele>576.6</ele>
    <time>2018-09-22T06:43:43Z</time>
   </trkpt>
   <trkpt lat="31.7457450" lon="35.1250380">
    <ele>576.8</ele>
    <time>2018-09-22T06:43:45Z</time>
   </trkpt>
   <trkpt lat="31.7457720" lon="35.1250770">
    <ele>577.1</ele>
    <time>2018-09-22T06:43:47Z</time>
   </trkpt>
   <trkpt lat="31.7457640" lon="35.1251260">
    <ele>577.5</ele>
    <time>2018-09-22T06:43:49Z</time>
   </trkpt>
   <trkpt lat="31.7457610" lon="35.1251640">
    <ele>577.9</ele>
    <time>2018-09-22T06:43:51Z</time>
   </trkpt>
   <trkpt lat="31.7457730" lon="35.1252110">
    <ele>578.2</ele>
    <time>2018-09-22T06:43:53Z</time>
   </trkpt>
   <trkpt lat="31.7457910" lon="35.1252470">
    <ele>578.6</ele>
    <time>2018-09-22T06:43:54Z</time>
   </trkpt>
   <trkpt lat="31.7458070" lon="35.1252730">
    <ele>578.9</ele>
    <time>2018-09-22T06:43:55Z</time>
   </trkpt>
   <trkpt lat="31.7458190" lon="35.1253030">
    <ele>579.2</ele>
    <time>2018-09-22T06:43:56Z</time>
   </trkpt>
   <trkpt lat="31.7458410" lon="35.1253460">
    <ele>579.5</ele>
    <time>2018-09-22T06:43:58Z</time>
   </trkpt>
   <trkpt lat="31.7458810" lon="35.1253950">
    <ele>579.9</ele>
    <time>2018-09-22T06:44:00Z</time>
   </trkpt>
   <trkpt lat="31.7459110" lon="35.1254170">
    <ele>580.2</ele>
    <time>2018-09-22T06:44:02Z</time>
   </trkpt>
   <trkpt lat="31.7459370" lon="35.1254460">
    <ele>580.5</ele>
    <time>2018-09-22T06:44:04Z</time>
   </trkpt>
   <trkpt lat="31.7459680" lon="35.1254880">
    <ele>580.8</ele>
    <time>2018-09-22T06:44:06Z</time>
   </trkpt>
   <trkpt lat="31.7459930" lon="35.1255160">
    <ele>581.0</ele>
    <time>2018-09-22T06:44:08Z</time>
   </trkpt>
   <trkpt lat="31.7460120" lon="35.1255440">
    <ele>581.2</ele>
    <time>2018-09-22T06:44:10Z</time>
   </trkpt>
   <trkpt lat="31.7460360" lon="35.1255840">
    <ele>581.3</ele>
    <time>2018-09-22T06:44:12Z</time>
   </trkpt>
   <trkpt lat="31.7460540" lon="35.1256260">
    <ele>581.4</ele>
    <time>2018-09-22T06:44:14Z</time>
   </trkpt>
   <trkpt lat="31.7460660" lon="35.1256820">
    <ele>581.6</ele>
    <time>2018-09-22T06:44:16Z</time>
   </trkpt>
   <trkpt lat="31.7460710" lon="35.1257160">
    <ele>581.7</ele>
    <time>2018-09-22T06:44:18Z</time>
   </trkpt>
   <trkpt lat="31.7460820" lon="35.1257550">
    <ele>581.9</ele>
    <time>2018-09-22T06:44:19Z</time>
   </trkpt>
   <trkpt lat="31.7460800" lon="35.1257910">
    <ele>582.1</ele>
    <time>2018-09-22T06:44:21Z</time>
   </trkpt>
   <trkpt lat="31.7460630" lon="35.1258370">
    <ele>582.4</ele>
    <time>2018-09-22T06:44:24Z</time>
   </trkpt>
   <trkpt lat="31.7460670" lon="35.1258750">
    <ele>582.7</ele>
    <time>2018-09-22T06:44:26Z</time>
   </trkpt>
   <trkpt lat="31.7460500" lon="35.1259190">
    <ele>583.0</ele>
    <time>2018-09-22T06:44:27Z</time>
   </trkpt>
   <trkpt lat="31.7460400" lon="35.1259660">
    <ele>583.2</ele>
    <time>2018-09-22T06:44:28Z</time>
   </trkpt>
   <trkpt lat="31.7460350" lon="35.1260180">
    <ele>583.4</ele>
    <time>2018-09-22T06:44:30Z</time>
   </trkpt>
   <trkpt lat="31.7460220" lon="35.1260620">
    <ele>583.7</ele>
    <time>2018-09-22T06:44:31Z</time>
   </trkpt>
   <trkpt lat="31.7459980" lon="35.1261170">
    <ele>584.2</ele>
    <time>2018-09-22T06:44:34Z</time>
   </trkpt>
   <trkpt lat="31.7459960" lon="35.1261550">
    <ele>584.4</ele>
    <time>2018-09-22T06:44:36Z</time>
   </trkpt>
   <trkpt lat="31.7459980" lon="35.1261970">
    <ele>584.7</ele>
    <time>2018-09-22T06:44:38Z</time>
   </trkpt>
   <trkpt lat="31.7459920" lon="35.1262620">
    <ele>584.9</ele>
    <time>2018-09-22T06:44:41Z</time>
   </trkpt>
   <trkpt lat="31.7459940" lon="35.1263150">
    <ele>585.0</ele>
    <time>2018-09-22T06:44:43Z</time>
   </trkpt>
   <trkpt lat="31.7459930" lon="35.1263490">
    <ele>585.1</ele>
    <time>2018-09-22T06:44:44Z</time>
   </trkpt>
   <trkpt lat="31.7459860" lon="35.1263960">
    <ele>585.2</ele>
    <time>2018-09-22T06:44:45Z</time>
   </trkpt>
   <trkpt lat="31.7459750" lon="35.1264340">
    <ele>585.2</ele>
    <time>2018-09-22T06:44:46Z</time>
   </trkpt>
   <trkpt lat="31.7459660" lon="35.1264810">
    <ele>585.3</ele>
    <time>2018-09-22T06:44:47Z</time>
   </trkpt>
   <trkpt lat="31.7459740" lon="35.1265270">
    <ele>585.4</ele>
    <time>2018-09-22T06:44:48Z</time>
   </trkpt>
   <trkpt lat="31.7459880" lon="35.1265750">
    <ele>585.7</ele>
    <time>2018-09-22T06:44:49Z</time>
   </trkpt>
   <trkpt lat="31.7459980" lon="35.1266260">
    <ele>585.9</ele>
    <time>2018-09-22T06:44:51Z</time>
   </trkpt>
   <trkpt lat="31.7460170" lon="35.1266510">
    <ele>586.1</ele>
    <time>2018-09-22T06:44:53Z</time>
   </trkpt>
   <trkpt lat="31.7460400" lon="35.1266770">
    <ele>586.3</ele>
    <time>2018-09-22T06:44:54Z</time>
   </trkpt>
   <trkpt lat="31.7460730" lon="35.1267130">
    <ele>586.6</ele>
    <time>2018-09-22T06:44:56Z</time>
   </trkpt>
   <trkpt lat="31.7461090" lon="35.1267460">
    <ele>586.7</ele>
    <time>2018-09-22T06:44:58Z</time>
   </trkpt>
   <trkpt lat="31.7461410" lon="35.1267840">
    <ele>586.9</ele>
    <time>2018-09-22T06:45:00Z</time>
   </trkpt>
   <trkpt lat="31.7461640" lon="35.1268120">
    <ele>587.0</ele>
    <time>2018-09-22T06:45:02Z</time>
   </trkpt>
   <trkpt lat="31.7461890" lon="35.1268330">
    <ele>587.0</ele>
    <time>2018-09-22T06:45:03Z</time>
   </trkpt>
   <trkpt lat="31.7462250" lon="35.1268580">
    <ele>587.2</ele>
    <time>2018-09-22T06:45:05Z</time>
   </trkpt>
   <trkpt lat="31.7462740" lon="35.1268900">
    <ele>587.6</ele>
    <time>2018-09-22T06:45:07Z</time>
   </trkpt>
   <trkpt lat="31.7463160" lon="35.1269280">
    <ele>588.0</ele>
    <time>2018-09-22T06:45:09Z</time>
   </trkpt>
   <trkpt lat="31.7463590" lon="35.1269540">
    <ele>588.2</ele>
    <time>2018-09-22T06:45:11Z</time>
   </trkpt>
   <trkpt lat="31.7464020" lon="35.1269720">
    <ele>588.4</ele>
    <time>2018-09-22T06:45:13Z</time>
   </trkpt>
   <trkpt lat="31.7464280" lon="35.1269860">
    <ele>588.5</ele>
    <time>2018-09-22T06:45:14Z</time>
   </trkpt>
   <trkpt lat="31.7464690" lon="35.1270150">
    <ele>588.9</ele>
    <time>2018-09-22T06:45:16Z</time>
   </trkpt>
   <trkpt lat="31.7464960" lon="35.1270350">
    <ele>589.1</ele>
    <time>2018-09-22T06:45:17Z</time>
   </trkpt>
   <trkpt lat="31.7465340" lon="35.1270630">
    <ele>589.4</ele>
    <time>2018-09-22T06:45:19Z</time>
   </trkpt>
   <trkpt lat="31.7465730" lon="35.1270910">
    <ele>589.7</ele>
    <time>2018-09-22T06:45:21Z</time>
   </trkpt>
   <trkpt lat="31.7466100" lon="35.1271160">
    <ele>589.9</ele>
    <time>2018-09-22T06:45:23Z</time>
   </trkpt>
   <trkpt lat="31.7466500" lon="35.1271330">
    <ele>590.1</ele>
    <time>2018-09-22T06:45:25Z</time>
   </trkpt>
   <trkpt lat="31.7466840" lon="35.1271560">
    <ele>590.2</ele>
    <time>2018-09-22T06:45:27Z</time>
   </trkpt>
   <trkpt lat="31.7467380" lon="35.1271930">
    <ele>590.4</ele>
    <time>2018-09-22T06:45:29Z</time>
   </trkpt>
   <trkpt lat="31.7467840" lon="35.1272330">
    <ele>590.5</ele>
    <time>2018-09-22T06:45:31Z</time>
   </trkpt>
   <trkpt lat="31.7468300" lon="35.1272740">
    <ele>590.7</ele>
    <time>2018-09-22T06:45:33Z</time>
   </trkpt>
   <trkpt lat="31.7468670" lon="35.1273060">
    <ele>591.0</ele>
    <time>2018-09-22T06:45:35Z</time>
   </trkpt>
   <trkpt lat="31.7469090" lon="35.1273370">
    <ele>591.3</ele>
    <time>2018-09-22T06:45:37Z</time>
   </trkpt>
   <trkpt lat="31.7469480" lon="35.1273670">
    <ele>591.6</ele>
    <time>2018-09-22T06:45:39Z</time>
   </trkpt>
   <trkpt lat="31.7469830" lon="35.1274040">
    <ele>591.9</ele>
    <time>2018-09-22T06:45:41Z</time>
   </trkpt>
   <trkpt lat="31.7470230" lon="35.1274240">
    <ele>592.1</ele>
    <time>2018-09-22T06:45:43Z</time>
   </trkpt>
   <trkpt lat="31.7470670" lon="35.1274520">
    <ele>592.3</ele>
    <time>2018-09-22T06:45:45Z</time>
   </trkpt>
   <trkpt lat="31.7471030" lon="35.1274810">
    <ele>592.6</ele>
    <time>2018-09-22T06:45:47Z</time>
   </trkpt>
   <trkpt lat="31.7471260" lon="35.1275090">
    <ele>592.8</ele>
    <time>2018-09-22T06:45:48Z</time>
   </trkpt>
   <trkpt lat="31.7471500" lon="35.1275280">
    <ele>593.0</ele>
    <time>2018-09-22T06:45:49Z</time>
   </trkpt>
   <trkpt lat="31.7471750" lon="35.1275410">
    <ele>593.2</ele>
    <time>2018-09-22T06:45:50Z</time>
   </trkpt>
   <trkpt lat="31.7472110" lon="35.1275570">
    <ele>593.5</ele>
    <time>2018-09-22T06:45:52Z</time>
   </trkpt>
   <trkpt lat="31.7472420" lon="35.1275890">
    <ele>593.8</ele>
    <time>2018-09-22T06:45:54Z</time>
   </trkpt>
   <trkpt lat="31.7472670" lon="35.1276090">
    <ele>593.9</ele>
    <time>2018-09-22T06:45:55Z</time>
   </trkpt>
   <trkpt lat="31.7472950" lon="35.1276520">
    <ele>594.1</ele>
    <time>2018-09-22T06:45:57Z</time>
   </trkpt>
   <trkpt lat="31.7473050" lon="35.1276820">
    <ele>594.2</ele>
    <time>2018-09-22T06:45:58Z</time>
   </trkpt>
   <trkpt lat="31.7473220" lon="35.1277430">
    <ele>594.6</ele>
    <time>2018-09-22T06:46:00Z</time>
   </trkpt>
   <trkpt lat="31.7473290" lon="35.1277800">
    <ele>595.2</ele>
    <time>2018-09-22T06:46:02Z</time>
   </trkpt>
   <trkpt lat="31.7473270" lon="35.1278200">
    <ele>595.7</ele>
    <time>2018-09-22T06:46:04Z</time>
   </trkpt>
   <trkpt lat="31.7473130" lon="35.1278580">
    <ele>596.1</ele>
    <time>2018-09-22T06:46:06Z</time>
   </trkpt>
   <trkpt lat="31.7473090" lon="35.1279120">
    <ele>596.8</ele>
    <time>2018-09-22T06:46:08Z</time>
   </trkpt>
   <trkpt lat="31.7472840" lon="35.1279570">
    <ele>597.3</ele>
    <time>2018-09-22T06:46:10Z</time>
   </trkpt>
   <trkpt lat="31.7472630" lon="35.1280030">
    <ele>597.8</ele>
    <time>2018-09-22T06:46:12Z</time>
   </trkpt>
   <trkpt lat="31.7472450" lon="35.1280420">
    <ele>598.1</ele>
    <time>2018-09-22T06:46:14Z</time>
   </trkpt>
   <trkpt lat="31.7472160" lon="35.1280790">
    <ele>598.5</ele>
    <time>2018-09-22T06:46:16Z</time>
   </trkpt>
   <trkpt lat="31.7472270" lon="35.1281130">
    <ele>598.9</ele>
    <time>2018-09-22T06:46:18Z</time>
   </trkpt>
   <trkpt lat="31.7472040" lon="35.1281540">
    <ele>599.4</ele>
    <time>2018-09-22T06:46:20Z</time>
   </trkpt>
   <trkpt lat="31.7472050" lon="35.1282050">
    <ele>599.9</ele>
    <time>2018-09-22T06:46:22Z</time>
   </trkpt>
   <trkpt lat="31.7471900" lon="35.1282400">
    <ele>600.3</ele>
    <time>2018-09-22T06:46:24Z</time>
   </trkpt>
   <trkpt lat="31.7471730" lon="35.1282750">
    <ele>600.6</ele>
    <time>2018-09-22T06:46:26Z</time>
   </trkpt>
   <trkpt lat="31.7471730" lon="35.1283150">
    <ele>600.9</ele>
    <time>2018-09-22T06:46:28Z</time>
   </trkpt>
   <trkpt lat="31.7471700" lon="35.1283490">
    <ele>601.1</ele>
    <time>2018-09-22T06:46:30Z</time>
   </trkpt>
   <trkpt lat="31.7471640" lon="35.1283870">
    <ele>601.5</ele>
    <time>2018-09-22T06:46:32Z</time>
   </trkpt>
   <trkpt lat="31.7471680" lon="35.1284260">
    <ele>601.9</ele>
    <time>2018-09-22T06:46:34Z</time>
   </trkpt>
   <trkpt lat="31.7471700" lon="35.1284690">
    <ele>602.3</ele>
    <time>2018-09-22T06:46:36Z</time>
   </trkpt>
   <trkpt lat="31.7471650" lon="35.1285170">
    <ele>602.8</ele>
    <time>2018-09-22T06:46:37Z</time>
   </trkpt>
   <trkpt lat="31.7471650" lon="35.1285510">
    <ele>603.1</ele>
    <time>2018-09-22T06:46:38Z</time>
   </trkpt>
   <trkpt lat="31.7471680" lon="35.1286060">
    <ele>603.6</ele>
    <time>2018-09-22T06:46:40Z</time>
   </trkpt>
   <trkpt lat="31.7471770" lon="35.1286500">
    <ele>603.9</ele>
    <time>2018-09-22T06:46:43Z</time>
   </trkpt>
   <trkpt lat="31.7471820" lon="35.1286870">
    <ele>604.1</ele>
    <time>2018-09-22T06:46:44Z</time>
   </trkpt>
   <trkpt lat="31.7471810" lon="35.1287450">
    <ele>604.7</ele>
    <time>2018-09-22T06:46:46Z</time>
   </trkpt>
   <trkpt lat="31.7471760" lon="35.1287920">
    <ele>605.1</ele>
    <time>2018-09-22T06:46:48Z</time>
   </trkpt>
   <trkpt lat="31.7471790" lon="35.1288510">
    <ele>605.7</ele>
    <time>2018-09-22T06:46:50Z</time>
   </trkpt>
   <trkpt lat="31.7471810" lon="35.1289060">
    <ele>606.1</ele>
    <time>2018-09-22T06:46:52Z</time>
   </trkpt>
   <trkpt lat="31.7471850" lon="35.1289580">
    <ele>606.5</ele>
    <time>2018-09-22T06:46:54Z</time>
   </trkpt>
   <trkpt lat="31.7471830" lon="35.1290180">
    <ele>607.0</ele>
    <time>2018-09-22T06:46:56Z</time>
   </trkpt>
   <trkpt lat="31.7471740" lon="35.1290600">
    <ele>607.4</ele>
    <time>2018-09-22T06:46:58Z</time>
   </trkpt>
   <trkpt lat="31.7471590" lon="35.1291090">
    <ele>607.9</ele>
    <time>2018-09-22T06:47:00Z</time>
   </trkpt>
   <trkpt lat="31.7471330" lon="35.1291640">
    <ele>608.4</ele>
    <time>2018-09-22T06:47:02Z</time>
   </trkpt>
   <trkpt lat="31.7471130" lon="35.1292000">
    <ele>608.7</ele>
    <time>2018-09-22T06:47:04Z</time>
   </trkpt>
   <trkpt lat="31.7470890" lon="35.1292290">
    <ele>609.0</ele>
    <time>2018-09-22T06:47:06Z</time>
   </trkpt>
   <trkpt lat="31.7470580" lon="35.1292600">
    <ele>609.6</ele>
    <time>2018-09-22T06:47:08Z</time>
   </trkpt>
   <trkpt lat="31.7470350" lon="35.1292890">
    <ele>610.0</ele>
    <time>2018-09-22T06:47:10Z</time>
   </trkpt>
   <trkpt lat="31.7470080" lon="35.1293010">
    <ele>610.3</ele>
    <time>2018-09-22T06:47:12Z</time>
   </trkpt>
   <trkpt lat="31.7469690" lon="35.1293050">
    <ele>610.8</ele>
    <time>2018-09-22T06:47:14Z</time>
   </trkpt>
   <trkpt lat="31.7469260" lon="35.1293270">
    <ele>611.3</ele>
    <time>2018-09-22T06:47:16Z</time>
   </trkpt>
   <trkpt lat="31.7468690" lon="35.1293330">
    <ele>611.8</ele>
    <time>2018-09-22T06:47:18Z</time>
   </trkpt>
   <trkpt lat="31.7468260" lon="35.1293550">
    <ele>612.1</ele>
    <time>2018-09-22T06:47:22Z</time>
   </trkpt>
   <trkpt lat="31.7467680" lon="35.1293640">
    <ele>612.6</ele>
    <time>2018-09-22T06:47:25Z</time>
   </trkpt>
   <trkpt lat="31.7467270" lon="35.1293570">
    <ele>613.0</ele>
    <time>2018-09-22T06:47:26Z</time>
   </trkpt>
   <trkpt lat="31.7467040" lon="35.1293760">
    <ele>613.4</ele>
    <time>2018-09-22T06:47:28Z</time>
   </trkpt>
   <trkpt lat="31.7466570" lon="35.1293900">
    <ele>614.0</ele>
    <time>2018-09-22T06:47:30Z</time>
   </trkpt>
   <trkpt lat="31.7466250" lon="35.1293860">
    <ele>614.2</ele>
    <time>2018-09-22T06:47:31Z</time>
   </trkpt>
   <trkpt lat="31.7465880" lon="35.1294020">
    <ele>614.4</ele>
    <time>2018-09-22T06:47:33Z</time>
   </trkpt>
   <trkpt lat="31.7465490" lon="35.1294200">
    <ele>614.6</ele>
    <time>2018-09-22T06:47:35Z</time>
   </trkpt>
   <trkpt lat="31.7465110" lon="35.1294270">
    <ele>614.8</ele>
    <time>2018-09-22T06:47:37Z</time>
   </trkpt>
   <trkpt lat="31.7464620" lon="35.1294400">
    <ele>615.1</ele>
    <time>2018-09-22T06:47:39Z</time>
   </trkpt>
   <trkpt lat="31.7464290" lon="35.1294410">
    <ele>615.5</ele>
    <time>2018-09-22T06:47:40Z</time>
   </trkpt>
   <trkpt lat="31.7463880" lon="35.1294520">
    <ele>616.0</ele>
    <time>2018-09-22T06:47:42Z</time>
   </trkpt>
   <trkpt lat="31.7463960" lon="35.1294840">
    <ele>616.3</ele>
    <time>2018-09-22T06:47:44Z</time>
   </trkpt>
   <trkpt lat="31.7463590" lon="35.1295070">
    <ele>616.6</ele>
    <time>2018-09-22T06:47:46Z</time>
   </trkpt>
   <trkpt lat="31.7463210" lon="35.1295210">
    <ele>616.9</ele>
    <time>2018-09-22T06:47:48Z</time>
   </trkpt>
   <trkpt lat="31.7462900" lon="35.1295550">
    <ele>617.3</ele>
    <time>2018-09-22T06:47:51Z</time>
   </trkpt>
   <trkpt lat="31.7462610" lon="35.1295620">
    <ele>617.6</ele>
    <time>2018-09-22T06:47:53Z</time>
   </trkpt>
   <trkpt lat="31.7462310" lon="35.1295820">
    <ele>617.9</ele>
    <time>2018-09-22T06:47:55Z</time>
   </trkpt>
   <trkpt lat="31.7461700" lon="35.1295990">
    <ele>618.6</ele>
    <time>2018-09-22T06:47:58Z</time>
   </trkpt>
   <trkpt lat="31.7461220" lon="35.1296140">
    <ele>619.0</ele>
    <time>2018-09-22T06:48:00Z</time>
   </trkpt>
   <trkpt lat="31.7460840" lon="35.1296560">
    <ele>619.3</ele>
    <time>2018-09-22T06:48:02Z</time>
   </trkpt>
   <trkpt lat="31.7460550" lon="35.1296830">
    <ele>619.4</ele>
    <time>2018-09-22T06:48:04Z</time>
   </trkpt>
   <trkpt lat="31.7460280" lon="35.1297030">
    <ele>619.5</ele>
    <time>2018-09-22T06:48:06Z</time>
   </trkpt>
   <trkpt lat="31.7459990" lon="35.1297230">
    <ele>619.6</ele>
    <time>2018-09-22T06:48:08Z</time>
   </trkpt>
   <trkpt lat="31.7459470" lon="35.1297430">
    <ele>619.8</ele>
    <time>2018-09-22T06:48:10Z</time>
   </trkpt>
   <trkpt lat="31.7459060" lon="35.1297670">
    <ele>620.0</ele>
    <time>2018-09-22T06:48:12Z</time>
   </trkpt>
   <trkpt lat="31.7459220" lon="35.1297940">
    <ele>620.1</ele>
    <time>2018-09-22T06:48:14Z</time>
   </trkpt>
   <trkpt lat="31.7458940" lon="35.1298140">
    <ele>620.4</ele>
    <time>2018-09-22T06:48:16Z</time>
   </trkpt>
   <trkpt lat="31.7458660" lon="35.1298390">
    <ele>620.8</ele>
    <time>2018-09-22T06:48:18Z</time>
   </trkpt>
   <trkpt lat="31.7458280" lon="35.1298530">
    <ele>621.1</ele>
    <time>2018-09-22T06:48:20Z</time>
   </trkpt>
   <trkpt lat="31.7457810" lon="35.1298640">
    <ele>621.6</ele>
    <time>2018-09-22T06:48:23Z</time>
   </trkpt>
   <trkpt lat="31.7457380" lon="35.1298590">
    <ele>621.9</ele>
    <time>2018-09-22T06:48:25Z</time>
   </trkpt>
   <trkpt lat="31.7457040" lon="35.1298790">
    <ele>622.2</ele>
    <time>2018-09-22T06:48:26Z</time>
   </trkpt>
   <trkpt lat="31.7456540" lon="35.1298930">
    <ele>622.7</ele>
    <time>2018-09-22T06:48:28Z</time>
   </trkpt>
   <trkpt lat="31.7455980" lon="35.1299000">
    <ele>623.5</ele>
    <time>2018-09-22T06:48:30Z</time>
   </trkpt>
   <trkpt lat="31.7455480" lon="35.1298920">
    <ele>624.2</ele>
    <time>2018-09-22T06:48:32Z</time>
   </trkpt>
   <trkpt lat="31.7455070" lon="35.1298930">
    <ele>624.6</ele>
    <time>2018-09-22T06:48:34Z</time>
   </trkpt>
   <trkpt lat="31.7454620" lon="35.1298820">
    <ele>625.0</ele>
    <time>2018-09-22T06:48:36Z</time>
   </trkpt>
   <trkpt lat="31.7454110" lon="35.1298740">
    <ele>625.7</ele>
    <time>2018-09-22T06:48:38Z</time>
   </trkpt>
   <trkpt lat="31.7453700" lon="35.1298700">
    <ele>626.2</ele>
    <time>2018-09-22T06:48:40Z</time>
   </trkpt>
   <trkpt lat="31.7453120" lon="35.1298660">
    <ele>626.8</ele>
    <time>2018-09-22T06:48:42Z</time>
   </trkpt>
   <trkpt lat="31.7452770" lon="35.1298620">
    <ele>627.0</ele>
    <time>2018-09-22T06:48:44Z</time>
   </trkpt>
   <trkpt lat="31.7452380" lon="35.1298750">
    <ele>627.2</ele>
    <time>2018-09-22T06:48:47Z</time>
   </trkpt>
   <trkpt lat="31.7452040" lon="35.1298850">
    <ele>627.5</ele>
    <time>2018-09-22T06:48:49Z</time>
   </trkpt>
   <trkpt lat="31.7451550" lon="35.1298900">
    <ele>628.1</ele>
    <time>2018-09-22T06:48:51Z</time>
   </trkpt>
   <trkpt lat="31.7451250" lon="35.1299050">
    <ele>628.5</ele>
    <time>2018-09-22T06:48:53Z</time>
   </trkpt>
   <trkpt lat="31.7450960" lon="35.1299240">
    <ele>628.8</ele>
    <time>2018-09-22T06:48:55Z</time>
   </trkpt>
   <trkpt lat="31.7450700" lon="35.1299380">
    <ele>629.1</ele>
    <time>2018-09-22T06:48:57Z</time>
   </trkpt>
   <trkpt lat="31.7450250" lon="35.1299540">
    <ele>629.4</ele>
    <time>2018-09-22T06:48:59Z</time>
   </trkpt>
   <trkpt lat="31.7449820" lon="35.1299580">
    <ele>629.7</ele>
    <time>2018-09-22T06:49:01Z</time>
   </trkpt>
   <trkpt lat="31.7449450" lon="35.1299680">
    <ele>629.8</ele>
    <time>2018-09-22T06:49:03Z</time>
   </trkpt>
   <trkpt lat="31.7449080" lon="35.1299710">
    <ele>630.0</ele>
    <time>2018-09-22T06:49:05Z</time>
   </trkpt>
   <trkpt lat="31.7448690" lon="35.1299780">
    <ele>630.2</ele>
    <time>2018-09-22T06:49:07Z</time>
   </trkpt>
   <trkpt lat="31.7448300" lon="35.1299960">
    <ele>630.4</ele>
    <time>2018-09-22T06:49:09Z</time>
   </trkpt>
   <trkpt lat="31.7447900" lon="35.1300160">
    <ele>630.6</ele>
    <time>2018-09-22T06:49:12Z</time>
   </trkpt>
   <trkpt lat="31.7447490" lon="35.1300300">
    <ele>631.0</ele>
    <time>2018-09-22T06:49:14Z</time>
   </trkpt>
   <trkpt lat="31.7447150" lon="35.1300480">
    <ele>631.4</ele>
    <time>2018-09-22T06:49:16Z</time>
   </trkpt>
   <trkpt lat="31.7446780" lon="35.1300650">
    <ele>631.8</ele>
    <time>2018-09-22T06:49:18Z</time>
   </trkpt>
   <trkpt lat="31.7446490" lon="35.1300910">
    <ele>632.0</ele>
    <time>2018-09-22T06:49:20Z</time>
   </trkpt>
   <trkpt lat="31.7446200" lon="35.1301160">
    <ele>632.2</ele>
    <time>2018-09-22T06:49:22Z</time>
   </trkpt>
   <trkpt lat="31.7445850" lon="35.1301300">
    <ele>632.3</ele>
    <time>2018-09-22T06:49:24Z</time>
   </trkpt>
   <trkpt lat="31.7445490" lon="35.1301450">
    <ele>632.4</ele>
    <time>2018-09-22T06:49:26Z</time>
   </trkpt>
   <trkpt lat="31.7444940" lon="35.1301650">
    <ele>632.7</ele>
    <time>2018-09-22T06:49:28Z</time>
   </trkpt>
   <trkpt lat="31.7444570" lon="35.1301810">
    <ele>632.8</ele>
    <time>2018-09-22T06:49:30Z</time>
   </trkpt>
   <trkpt lat="31.7444220" lon="35.1301890">
    <ele>632.9</ele>
    <time>2018-09-22T06:49:32Z</time>
   </trkpt>
   <trkpt lat="31.7444320" lon="35.1302220">
    <ele>633.2</ele>
    <time>2018-09-22T06:49:34Z</time>
   </trkpt>
   <trkpt lat="31.7443720" lon="35.1302570">
    <ele>633.9</ele>
    <time>2018-09-22T06:49:36Z</time>
   </trkpt>
   <trkpt lat="31.7443390" lon="35.1302700">
    <ele>634.3</ele>
    <time>2018-09-22T06:49:37Z</time>
   </trkpt>
   <trkpt lat="31.7442960" lon="35.1302900">
    <ele>634.7</ele>
    <time>2018-09-22T06:49:39Z</time>
   </trkpt>
   <trkpt lat="31.7442550" lon="35.1303200">
    <ele>634.9</ele>
    <time>2018-09-22T06:49:41Z</time>
   </trkpt>
   <trkpt lat="31.7442070" lon="35.1303410">
    <ele>635.1</ele>
    <time>2018-09-22T06:49:43Z</time>
   </trkpt>
   <trkpt lat="31.7441740" lon="35.1303240">
    <ele>635.3</ele>
    <time>2018-09-22T06:49:46Z</time>
   </trkpt>
   <trkpt lat="31.7441530" lon="35.1303510">
    <ele>635.5</ele>
    <time>2018-09-22T06:49:48Z</time>
   </trkpt>
   <trkpt lat="31.7441220" lon="35.1303660">
    <ele>635.8</ele>
    <time>2018-09-22T06:49:50Z</time>
   </trkpt>
   <trkpt lat="31.7440870" lon="35.1304000">
    <ele>636.3</ele>
    <time>2018-09-22T06:49:52Z</time>
   </trkpt>
   <trkpt lat="31.7440490" lon="35.1304190">
    <ele>636.7</ele>
    <time>2018-09-22T06:49:54Z</time>
   </trkpt>
   <trkpt lat="31.7440200" lon="35.1304260">
    <ele>637.0</ele>
    <time>2018-09-22T06:49:55Z</time>
   </trkpt>
   <trkpt lat="31.7440010" lon="35.1304540">
    <ele>637.2</ele>
    <time>2018-09-22T06:49:57Z</time>
   </trkpt>
   <trkpt lat="31.7439650" lon="35.1304860">
    <ele>637.5</ele>
    <time>2018-09-22T06:50:00Z</time>
   </trkpt>
   <trkpt lat="31.7439380" lon="35.1305280">
    <ele>637.7</ele>
    <time>2018-09-22T06:50:03Z</time>
   </trkpt>
   <trkpt lat="31.7439130" lon="35.1305470">
    <ele>637.9</ele>
    <time>2018-09-22T06:50:04Z</time>
   </trkpt>
   <trkpt lat="31.7438840" lon="35.1305620">
    <ele>638.1</ele>
    <time>2018-09-22T06:50:05Z</time>
   </trkpt>
   <trkpt lat="31.7438450" lon="35.1305860">
    <ele>638.5</ele>
    <time>2018-09-22T06:50:07Z</time>
   </trkpt>
   <trkpt lat="31.7438010" lon="35.1306040">
    <ele>639.0</ele>
    <time>2018-09-22T06:50:09Z</time>
   </trkpt>
   <trkpt lat="31.7437810" lon="35.1306440">
    <ele>639.3</ele>
    <time>2018-09-22T06:50:12Z</time>
   </trkpt>
   <trkpt lat="31.7437980" lon="35.1306810">
    <ele>639.7</ele>
    <time>2018-09-22T06:50:14Z</time>
   </trkpt>
   <trkpt lat="31.7437640" lon="35.1307050">
    <ele>639.9</ele>
    <time>2018-09-22T06:50:16Z</time>
   </trkpt>
   <trkpt lat="31.7437300" lon="35.1307360">
    <ele>640.0</ele>
    <time>2018-09-22T06:50:18Z</time>
   </trkpt>
   <trkpt lat="31.7437130" lon="35.1307710">
    <ele>640.1</ele>
    <time>2018-09-22T06:50:20Z</time>
   </trkpt>
   <trkpt lat="31.7436930" lon="35.1308140">
    <ele>640.3</ele>
    <time>2018-09-22T06:50:22Z</time>
   </trkpt>
   <trkpt lat="31.7436750" lon="35.1308520">
    <ele>640.4</ele>
    <time>2018-09-22T06:50:24Z</time>
   </trkpt>
   <trkpt lat="31.7436450" lon="35.1308910">
    <ele>640.5</ele>
    <time>2018-09-22T06:50:26Z</time>
   </trkpt>
   <trkpt lat="31.7436220" lon="35.1309340">
    <ele>640.9</ele>
    <time>2018-09-22T06:50:28Z</time>
   </trkpt>
   <trkpt lat="31.7436060" lon="35.1309680">
    <ele>641.2</ele>
    <time>2018-09-22T06:50:30Z</time>
   </trkpt>
   <trkpt lat="31.7436000" lon="35.1310100">
    <ele>641.5</ele>
    <time>2018-09-22T06:50:32Z</time>
   </trkpt>
   <trkpt lat="31.7435840" lon="35.1310520">
    <ele>641.8</ele>
    <time>2018-09-22T06:50:34Z</time>
   </trkpt>
   <trkpt lat="31.7435630" lon="35.1310840">
    <ele>642.0</ele>
    <time>2018-09-22T06:50:36Z</time>
   </trkpt>
   <trkpt lat="31.7435490" lon="35.1311250">
    <ele>642.2</ele>
    <time>2018-09-22T06:50:38Z</time>
   </trkpt>
   <trkpt lat="31.7435290" lon="35.1311620">
    <ele>642.4</ele>
    <time>2018-09-22T06:50:40Z</time>
   </trkpt>
   <trkpt lat="31.7435150" lon="35.1311990">
    <ele>642.6</ele>
    <time>2018-09-22T06:50:42Z</time>
   </trkpt>
   <trkpt lat="31.7434960" lon="35.1312320">
    <ele>642.8</ele>
    <time>2018-09-22T06:50:44Z</time>
   </trkpt>
   <trkpt lat="31.7434860" lon="35.1312870">
    <ele>643.0</ele>
    <time>2018-09-22T06:50:46Z</time>
   </trkpt>
   <trkpt lat="31.7434730" lon="35.1313380">
    <ele>643.2</ele>
    <time>2018-09-22T06:50:48Z</time>
   </trkpt>
   <trkpt lat="31.7434690" lon="35.1313830">
    <ele>643.5</ele>
    <time>2018-09-22T06:50:50Z</time>
   </trkpt>
   <trkpt lat="31.7434580" lon="35.1314330">
    <ele>643.9</ele>
    <time>2018-09-22T06:50:52Z</time>
   </trkpt>
   <trkpt lat="31.7434550" lon="35.1314870">
    <ele>644.4</ele>
    <time>2018-09-22T06:50:54Z</time>
   </trkpt>
   <trkpt lat="31.7434480" lon="35.1315210">
    <ele>644.7</ele>
    <time>2018-09-22T06:50:55Z</time>
   </trkpt>
   <trkpt lat="31.7434350" lon="35.1315690">
    <ele>645.1</ele>
    <time>2018-09-22T06:50:57Z</time>
   </trkpt>
   <trkpt lat="31.7434300" lon="35.1316160">
    <ele>645.3</ele>
    <time>2018-09-22T06:50:59Z</time>
   </trkpt>
   <trkpt lat="31.7434240" lon="35.1316550">
    <ele>645.4</ele>
    <time>2018-09-22T06:51:01Z</time>
   </trkpt>
   <trkpt lat="31.7434160" lon="35.1316960">
    <ele>645.5</ele>
    <time>2018-09-22T06:51:03Z</time>
   </trkpt>
   <trkpt lat="31.7434080" lon="35.1317400">
    <ele>645.7</ele>
    <time>2018-09-22T06:51:05Z</time>
   </trkpt>
   <trkpt lat="31.7434030" lon="35.1317750">
    <ele>645.8</ele>
    <time>2018-09-22T06:51:07Z</time>
   </trkpt>
   <trkpt lat="31.7433910" lon="35.1318200">
    <ele>646.0</ele>
    <time>2018-09-22T06:51:09Z</time>
   </trkpt>
   <trkpt lat="31.7433950" lon="35.1318620">
    <ele>646.3</ele>
    <time>2018-09-22T06:51:11Z</time>
   </trkpt>
   <trkpt lat="31.7433870" lon="35.1319090">
    <ele>646.8</ele>
    <time>2018-09-22T06:51:13Z</time>
   </trkpt>
   <trkpt lat="31.7433780" lon="35.1319560">
    <ele>647.3</ele>
    <time>2018-09-22T06:51:15Z</time>
   </trkpt>
   <trkpt lat="31.7433740" lon="35.1320020">
    <ele>647.7</ele>
    <time>2018-09-22T06:51:17Z</time>
   </trkpt>
   <trkpt lat="31.7433700" lon="35.1320440">
    <ele>648.0</ele>
    <time>2018-09-22T06:51:19Z</time>
   </trkpt>
   <trkpt lat="31.7433650" lon="35.1321050">
    <ele>648.4</ele>
    <time>2018-09-22T06:51:22Z</time>
   </trkpt>
   <trkpt lat="31.7433710" lon="35.1321600">
    <ele>648.9</ele>
    <time>2018-09-22T06:51:24Z</time>
   </trkpt>
   <trkpt lat="31.7433690" lon="35.1321910">
    <ele>649.2</ele>
    <time>2018-09-22T06:51:26Z</time>
   </trkpt>
   <trkpt lat="31.7433710" lon="35.1322390">
    <ele>649.6</ele>
    <time>2018-09-22T06:51:28Z</time>
   </trkpt>
   <trkpt lat="31.7433750" lon="35.1322950">
    <ele>650.0</ele>
    <time>2018-09-22T06:51:30Z</time>
   </trkpt>
   <trkpt lat="31.7433820" lon="35.1323470">
    <ele>650.2</ele>
    <time>2018-09-22T06:51:32Z</time>
   </trkpt>
   <trkpt lat="31.7433860" lon="35.1323920">
    <ele>650.3</ele>
    <time>2018-09-22T06:51:34Z</time>
   </trkpt>
   <trkpt lat="31.7433860" lon="35.1324370">
    <ele>650.5</ele>
    <time>2018-09-22T06:51:36Z</time>
   </trkpt>
   <trkpt lat="31.7433830" lon="35.1324770">
    <ele>650.6</ele>
    <time>2018-09-22T06:51:38Z</time>
   </trkpt>
   <trkpt lat="31.7433860" lon="35.1325120">
    <ele>650.8</ele>
    <time>2018-09-22T06:51:40Z</time>
   </trkpt>
   <trkpt lat="31.7433970" lon="35.1325710">
    <ele>651.1</ele>
    <time>2018-09-22T06:51:42Z</time>
   </trkpt>
   <trkpt lat="31.7433950" lon="35.1326150">
    <ele>651.5</ele>
    <time>2018-09-22T06:51:44Z</time>
   </trkpt>
   <trkpt lat="31.7434070" lon="35.1326640">
    <ele>651.9</ele>
    <time>2018-09-22T06:51:46Z</time>
   </trkpt>
   <trkpt lat="31.7434170" lon="35.1327130">
    <ele>652.3</ele>
    <time>2018-09-22T06:51:48Z</time>
   </trkpt>
   <trkpt lat="31.7434290" lon="35.1327580">
    <ele>652.7</ele>
    <time>2018-09-22T06:51:50Z</time>
   </trkpt>
   <trkpt lat="31.7434350" lon="35.1328010">
    <ele>652.9</ele>
    <time>2018-09-22T06:51:52Z</time>
   </trkpt>
   <trkpt lat="31.7434390" lon="35.1328420">
    <ele>653.1</ele>
    <time>2018-09-22T06:51:54Z</time>
   </trkpt>
   <trkpt lat="31.7434490" lon="35.1328840">
    <ele>653.3</ele>
    <time>2018-09-22T06:51:56Z</time>
   </trkpt>
   <trkpt lat="31.7434600" lon="35.1329150">
    <ele>653.5</ele>
    <time>2018-09-22T06:51:58Z</time>
   </trkpt>
   <trkpt lat="31.7434800" lon="35.1329610">
    <ele>654.0</ele>
    <time>2018-09-22T06:52:00Z</time>
   </trkpt>
   <trkpt lat="31.7434940" lon="35.1330130">
    <ele>654.4</ele>
    <time>2018-09-22T06:52:02Z</time>
   </trkpt>
   <trkpt lat="31.7435040" lon="35.1330680">
    <ele>654.9</ele>
    <time>2018-09-22T06:52:04Z</time>
   </trkpt>
   <trkpt lat="31.7435180" lon="35.1331040">
    <ele>655.2</ele>
    <time>2018-09-22T06:52:06Z</time>
   </trkpt>
   <trkpt lat="31.7435190" lon="35.1331450">
    <ele>655.6</ele>
    <time>2018-09-22T06:52:08Z</time>
   </trkpt>
   <trkpt lat="31.7435140" lon="35.1331900">
    <ele>655.9</ele>
    <time>2018-09-22T06:52:10Z</time>
   </trkpt>
   <trkpt lat="31.7435020" lon="35.1332410">
    <ele>656.3</ele>
    <time>2018-09-22T06:52:14Z</time>
   </trkpt>
   <trkpt lat="31.7434840" lon="35.1332730">
    <ele>656.6</ele>
    <time>2018-09-22T06:52:16Z</time>
   </trkpt>
   <trkpt lat="31.7434700" lon="35.1333180">
    <ele>657.1</ele>
    <time>2018-09-22T06:52:18Z</time>
   </trkpt>
   <trkpt lat="31.7434390" lon="35.1333410">
    <ele>657.5</ele>
    <time>2018-09-22T06:52:20Z</time>
   </trkpt>
   <trkpt lat="31.7434110" lon="35.1333410">
    <ele>657.8</ele>
    <time>2018-09-22T06:52:22Z</time>
   </trkpt>
   <trkpt lat="31.7433740" lon="35.1333580">
    <ele>658.2</ele>
    <time>2018-09-22T06:52:25Z</time>
   </trkpt>
   <trkpt lat="31.7433350" lon="35.1333760">
    <ele>658.7</ele>
    <time>2018-09-22T06:52:28Z</time>
   </trkpt>
   <trkpt lat="31.7432960" lon="35.1333720">
    <ele>659.1</ele>
    <time>2018-09-22T06:52:30Z</time>
   </trkpt>
   <trkpt lat="31.7432640" lon="35.1333760">
    <ele>659.4</ele>
    <time>2018-09-22T06:52:33Z</time>
   </trkpt>
   <trkpt lat="31.7432190" lon="35.1333710">
    <ele>659.8</ele>
    <time>2018-09-22T06:52:35Z</time>
   </trkpt>
   <trkpt lat="31.7431800" lon="35.1333690">
    <ele>660.1</ele>
    <time>2018-09-22T06:52:37Z</time>
   </trkpt>
   <trkpt lat="31.7431420" lon="35.1333730">
    <ele>660.3</ele>
    <time>2018-09-22T06:52:39Z</time>
   </trkpt>
   <trkpt lat="31.7431130" lon="35.1333680">
    <ele>660.5</ele>
    <time>2018-09-22T06:52:40Z</time>
   </trkpt>
   <trkpt lat="31.7430760" lon="35.1333580">
    <ele>660.6</ele>
    <time>2018-09-22T06:52:41Z</time>
   </trkpt>
   <trkpt lat="31.7430480" lon="35.1333640">
    <ele>660.7</ele>
    <time>2018-09-22T06:52:43Z</time>
   </trkpt>
   <trkpt lat="31.7430050" lon="35.1333620">
    <ele>660.9</ele>
    <time>2018-09-22T06:52:45Z</time>
   </trkpt>
   <trkpt lat="31.7429760" lon="35.1333610">
    <ele>661.0</ele>
    <time>2018-09-22T06:52:46Z</time>
   </trkpt>
   <trkpt lat="31.7429350" lon="35.1333700">
    <ele>661.2</ele>
    <time>2018-09-22T06:52:48Z</time>
   </trkpt>
   <trkpt lat="31.7429010" lon="35.1333530">
    <ele>661.3</ele>
    <time>2018-09-22T06:52:50Z</time>
   </trkpt>
   <trkpt lat="31.7428550" lon="35.1333530">
    <ele>661.5</ele>
    <time>2018-09-22T06:52:53Z</time>
   </trkpt>
   <trkpt lat="31.7428190" lon="35.1333590">
    <ele>661.8</ele>
    <time>2018-09-22T06:52:55Z</time>
   </trkpt>
   <trkpt lat="31.7427830" lon="35.1333550">
    <ele>662.1</ele>
    <time>2018-09-22T06:52:57Z</time>
   </trkpt>
   <trkpt lat="31.7427530" lon="35.1333500">
    <ele>662.4</ele>
    <time>2018-09-22T06:52:59Z</time>
   </trkpt>
   <trkpt lat="31.7427230" lon="35.1333450">
    <ele>662.7</ele>
    <time>2018-09-22T06:53:01Z</time>
   </trkpt>
   <trkpt lat="31.7426890" lon="35.1333550">
    <ele>663.0</ele>
    <time>2018-09-22T06:53:04Z</time>
   </trkpt>
   <trkpt lat="31.7426460" lon="35.1333470">
    <ele>663.5</ele>
    <time>2018-09-22T06:53:06Z</time>
   </trkpt>
   <trkpt lat="31.7426080" lon="35.1333560">
    <ele>663.8</ele>
    <time>2018-09-22T06:53:08Z</time>
   </trkpt>
   <trkpt lat="31.7425740" lon="35.1333690">
    <ele>664.1</ele>
    <time>2018-09-22T06:53:10Z</time>
   </trkpt>
   <trkpt lat="31.7425380" lon="35.1333640">
    <ele>664.5</ele>
    <time>2018-09-22T06:53:12Z</time>
   </trkpt>
   <trkpt lat="31.7424960" lon="35.1333600">
    <ele>664.9</ele>
    <time>2018-09-22T06:53:15Z</time>
   </trkpt>
   <trkpt lat="31.7424590" lon="35.1333630">
    <ele>665.3</ele>
    <time>2018-09-22T06:53:17Z</time>
   </trkpt>
   <trkpt lat="31.7424010" lon="35.1333510">
    <ele>665.9</ele>
    <time>2018-09-22T06:53:19Z</time>
   </trkpt>
   <trkpt lat="31.7423540" lon="35.1333450">
    <ele>666.1</ele>
    <time>2018-09-22T06:53:21Z</time>
   </trkpt>
   <trkpt lat="31.7423100" lon="35.1333350">
    <ele>666.3</ele>
    <time>2018-09-22T06:53:23Z</time>
   </trkpt>
   <trkpt lat="31.7422680" lon="35.1333270">
    <ele>666.5</ele>
    <time>2018-09-22T06:53:25Z</time>
   </trkpt>
   <trkpt lat="31.7422330" lon="35.1333160">
    <ele>666.6</ele>
    <time>2018-09-22T06:53:27Z</time>
   </trkpt>
   <trkpt lat="31.7421970" lon="35.1333140">
    <ele>666.7</ele>
    <time>2018-09-22T06:53:29Z</time>
   </trkpt>
   <trkpt lat="31.7421520" lon="35.1333160">
    <ele>666.9</ele>
    <time>2018-09-22T06:53:32Z</time>
   </trkpt>
   <trkpt lat="31.7421120" lon="35.1333120">
    <ele>667.2</ele>
    <time>2018-09-22T06:53:34Z</time>
   </trkpt>
   <trkpt lat="31.7420770" lon="35.1333090">
    <ele>667.5</ele>
    <time>2018-09-22T06:53:36Z</time>
   </trkpt>
   <trkpt lat="31.7420370" lon="35.1333100">
    <ele>667.9</ele>
    <time>2018-09-22T06:53:38Z</time>
   </trkpt>
   <trkpt lat="31.7419960" lon="35.1333060">
    <ele>668.3</ele>
    <time>2018-09-22T06:53:41Z</time>
   </trkpt>
   <trkpt lat="31.7419550" lon="35.1333010">
    <ele>668.6</ele>
    <time>2018-09-22T06:53:43Z</time>
   </trkpt>
   <trkpt lat="31.7419190" lon="35.1332950">
    <ele>668.9</ele>
    <time>2018-09-22T06:53:45Z</time>
   </trkpt>
   <trkpt lat="31.7418790" lon="35.1332820">
    <ele>669.1</ele>
    <time>2018-09-22T06:53:47Z</time>
   </trkpt>
   <trkpt lat="31.7418450" lon="35.1332820">
    <ele>669.3</ele>
    <time>2018-09-22T06:53:49Z</time>
   </trkpt>
   <trkpt lat="31.7418000" lon="35.1332740">
    <ele>669.5</ele>
    <time>2018-09-22T06:53:51Z</time>
   </trkpt>
   <trkpt lat="31.7417660" lon="35.1332640">
    <ele>669.7</ele>
    <time>2018-09-22T06:53:53Z</time>
   </trkpt>
   <trkpt lat="31.7417180" lon="35.1332470">
    <ele>670.1</ele>
    <time>2018-09-22T06:53:55Z</time>
   </trkpt>
   <trkpt lat="31.7416910" lon="35.1332340">
    <ele>670.3</ele>
    <time>2018-09-22T06:53:57Z</time>
   </trkpt>
   <trkpt lat="31.7416370" lon="35.1332120">
    <ele>670.9</ele>
    <time>2018-09-22T06:54:00Z</time>
   </trkpt>
   <trkpt lat="31.7416010" lon="35.1332030">
    <ele>671.3</ele>
    <time>2018-09-22T06:54:03Z</time>
   </trkpt>
   <trkpt lat="31.7415730" lon="35.1331950">
    <ele>671.6</ele>
    <time>2018-09-22T06:54:05Z</time>
   </trkpt>
   <trkpt lat="31.7415380" lon="35.1331880">
    <ele>671.9</ele>
    <time>2018-09-22T06:54:07Z</time>
   </trkpt>
   <trkpt lat="31.7414980" lon="35.1331720">
    <ele>672.3</ele>
    <time>2018-09-22T06:54:09Z</time>
   </trkpt>
   <trkpt lat="31.7414670" lon="35.1331580">
    <ele>672.6</ele>
    <time>2018-09-22T06:54:11Z</time>
   </trkpt>
   <trkpt lat="31.7414300" lon="35.1331420">
    <ele>673.1</ele>
    <time>2018-09-22T06:54:13Z</time>
   </trkpt>
   <trkpt lat="31.7413940" lon="35.1331230">
    <ele>673.6</ele>
    <time>2018-09-22T06:54:15Z</time>
   </trkpt>
   <trkpt lat="31.7413470" lon="35.1331050">
    <ele>674.1</ele>
    <time>2018-09-22T06:54:17Z</time>
   </trkpt>
   <trkpt lat="31.7412890" lon="35.1330670">
    <ele>674.7</ele>
    <time>2018-09-22T06:54:19Z</time>
   </trkpt>
   <trkpt lat="31.7412340" lon="35.1330460">
    <ele>674.9</ele>
    <time>2018-09-22T06:54:21Z</time>
   </trkpt>
   <trkpt lat="31.7411910" lon="35.1330250">
    <ele>674.7</ele>
    <time>2018-09-22T06:54:25Z</time>
   </trkpt>
   <trkpt lat="31.7411590" lon="35.1330060">
    <ele>674.6</ele>
    <time>2018-09-22T06:54:28Z</time>
   </trkpt>
   <trkpt lat="31.7411390" lon="35.1329740">
    <ele>674.4</ele>
    <time>2018-09-22T06:54:30Z</time>
   </trkpt>
   <trkpt lat="31.7411130" lon="35.1329490">
    <ele>674.2</ele>
    <time>2018-09-22T06:54:33Z</time>
   </trkpt>
   <trkpt lat="31.7410570" lon="35.1329180">
    <ele>673.7</ele>
    <time>2018-09-22T06:54:35Z</time>
   </trkpt>
   <trkpt lat="31.7410170" lon="35.1328960">
    <ele>673.4</ele>
    <time>2018-09-22T06:54:36Z</time>
   </trkpt>
   <trkpt lat="31.7409920" lon="35.1328690">
    <ele>673.1</ele>
    <time>2018-09-22T06:54:39Z</time>
   </trkpt>
   <trkpt lat="31.7409620" lon="35.1328420">
    <ele>672.8</ele>
    <time>2018-09-22T06:54:41Z</time>
   </trkpt>
   <trkpt lat="31.7409240" lon="35.1328090">
    <ele>672.6</ele>
    <time>2018-09-22T06:54:43Z</time>
   </trkpt>
   <trkpt lat="31.7408800" lon="35.1327830">
    <ele>672.3</ele>
    <time>2018-09-22T06:54:47Z</time>
   </trkpt>
   <trkpt lat="31.7408530" lon="35.1327630">
    <ele>672.2</ele>
    <time>2018-09-22T06:54:50Z</time>
   </trkpt>
   <trkpt lat="31.7408260" lon="35.1327390">
    <ele>672.0</ele>
    <time>2018-09-22T06:54:52Z</time>
   </trkpt>
   <trkpt lat="31.7407920" lon="35.1327220">
    <ele>671.8</ele>
    <time>2018-09-22T06:54:54Z</time>
   </trkpt>
   <trkpt lat="31.7407590" lon="35.1327060">
    <ele>671.6</ele>
    <time>2018-09-22T06:54:56Z</time>
   </trkpt>
   <trkpt lat="31.7407290" lon="35.1326950">
    <ele>671.4</ele>
    <time>2018-09-22T06:54:59Z</time>
   </trkpt>
   <trkpt lat="31.7406880" lon="35.1326630">
    <ele>671.0</ele>
    <time>2018-09-22T06:55:01Z</time>
   </trkpt>
   <trkpt lat="31.7406450" lon="35.1326360">
    <ele>670.7</ele>
    <time>2018-09-22T06:55:02Z</time>
   </trkpt>
   <trkpt lat="31.7406370" lon="35.1326030">
    <ele>670.5</ele>
    <time>2018-09-22T06:55:04Z</time>
   </trkpt>
   <trkpt lat="31.7406040" lon="35.1325840">
    <ele>670.3</ele>
    <time>2018-09-22T06:55:06Z</time>
   </trkpt>
   <trkpt lat="31.7405810" lon="35.1325650">
    <ele>670.1</ele>
    <time>2018-09-22T06:55:09Z</time>
   </trkpt>
   <trkpt lat="31.7405530" lon="35.1325480">
    <ele>670.0</ele>
    <time>2018-09-22T06:55:11Z</time>
   </trkpt>
   <trkpt lat="31.7405200" lon="35.1325150">
    <ele>669.9</ele>
    <time>2018-09-22T06:55:13Z</time>
   </trkpt>
   <trkpt lat="31.7404920" lon="35.1324870">
    <ele>669.9</ele>
    <time>2018-09-22T06:55:15Z</time>
   </trkpt>
   <trkpt lat="31.7404770" lon="35.1324570">
    <ele>669.8</ele>
    <time>2018-09-22T06:55:17Z</time>
   </trkpt>
   <trkpt lat="31.7404330" lon="35.1324400">
    <ele>669.7</ele>
    <time>2018-09-22T06:55:19Z</time>
   </trkpt>
   <trkpt lat="31.7403880" lon="35.1324270">
    <ele>669.6</ele>
    <time>2018-09-22T06:55:21Z</time>
   </trkpt>
   <trkpt lat="31.7403550" lon="35.1323960">
    <ele>669.5</ele>
    <time>2018-09-22T06:55:23Z</time>
   </trkpt>
   <trkpt lat="31.7403270" lon="35.1323750">
    <ele>669.4</ele>
    <time>2018-09-22T06:55:25Z</time>
   </trkpt>
   <trkpt lat="31.7402960" lon="35.1323430">
    <ele>669.3</ele>
    <time>2018-09-22T06:55:27Z</time>
   </trkpt>
   <trkpt lat="31.7402670" lon="35.1323170">
    <ele>669.2</ele>
    <time>2018-09-22T06:55:29Z</time>
   </trkpt>
   <trkpt lat="31.7402440" lon="35.1322950">
    <ele>669.0</ele>
    <time>2018-09-22T06:55:31Z</time>
   </trkpt>
   <trkpt lat="31.7402280" lon="35.1322600">
    <ele>668.7</ele>
    <time>2018-09-22T06:55:35Z</time>
   </trkpt>
   <trkpt lat="31.7402130" lon="35.1322300">
    <ele>668.4</ele>
    <time>2018-09-22T06:58:22Z</time>
   </trkpt>
   <trkpt lat="31.7401850" lon="35.1322230">
    <ele>668.2</ele>
    <time>2018-09-22T06:58:30Z</time>
   </trkpt>
   <trkpt lat="31.7401670" lon="35.1322750">
    <ele>667.6</ele>
    <time>2018-09-22T06:59:37Z</time>
   </trkpt>
   <trkpt lat="31.7401610" lon="35.1323090">
    <ele>667.3</ele>
    <time>2018-09-22T06:59:38Z</time>
   </trkpt>
   <trkpt lat="31.7401890" lon="35.1323600">
    <ele>668.0</ele>
    <time>2018-09-22T06:59:40Z</time>
   </trkpt>
   <trkpt lat="31.7402060" lon="35.1324140">
    <ele>668.4</ele>
    <time>2018-09-22T06:59:42Z</time>
   </trkpt>
   <trkpt lat="31.7402230" lon="35.1324410">
    <ele>668.6</ele>
    <time>2018-09-22T06:59:43Z</time>
   </trkpt>
   <trkpt lat="31.7402570" lon="35.1324710">
    <ele>669.0</ele>
    <time>2018-09-22T06:59:45Z</time>
   </trkpt>
   <trkpt lat="31.7402890" lon="35.1325020">
    <ele>669.4</ele>
    <time>2018-09-22T06:59:47Z</time>
   </trkpt>
   <trkpt lat="31.7403220" lon="35.1325270">
    <ele>669.7</ele>
    <time>2018-09-22T06:59:49Z</time>
   </trkpt>
   <trkpt lat="31.7403540" lon="35.1325520">
    <ele>670.1</ele>
    <time>2018-09-22T06:59:51Z</time>
   </trkpt>
   <trkpt lat="31.7403910" lon="35.1325660">
    <ele>670.5</ele>
    <time>2018-09-22T06:59:53Z</time>
   </trkpt>
   <trkpt lat="31.7404070" lon="35.1325940">
    <ele>670.7</ele>
    <time>2018-09-22T06:59:54Z</time>
   </trkpt>
   <trkpt lat="31.7404170" lon="35.1326260">
    <ele>671.0</ele>
    <time>2018-09-22T06:59:55Z</time>
   </trkpt>
   <trkpt lat="31.7404610" lon="35.1326630">
    <ele>671.5</ele>
    <time>2018-09-22T06:59:57Z</time>
   </trkpt>
   <trkpt lat="31.7404890" lon="35.1326920">
    <ele>671.8</ele>
    <time>2018-09-22T06:59:59Z</time>
   </trkpt>
   <trkpt lat="31.7405140" lon="35.1327230">
    <ele>672.1</ele>
    <time>2018-09-22T07:00:01Z</time>
   </trkpt>
   <trkpt lat="31.7405270" lon="35.1327620">
    <ele>672.4</ele>
    <time>2018-09-22T07:00:03Z</time>
   </trkpt>
   <trkpt lat="31.7405470" lon="35.1327890">
    <ele>672.7</ele>
    <time>2018-09-22T07:00:05Z</time>
   </trkpt>
   <trkpt lat="31.7405660" lon="35.1328160">
    <ele>673.0</ele>
    <time>2018-09-22T07:00:07Z</time>
   </trkpt>
   <trkpt lat="31.7405810" lon="35.1328480">
    <ele>673.2</ele>
    <time>2018-09-22T07:00:09Z</time>
   </trkpt>
   <trkpt lat="31.7406030" lon="35.1328850">
    <ele>673.6</ele>
    <time>2018-09-22T07:00:11Z</time>
   </trkpt>
   <trkpt lat="31.7406430" lon="35.1329100">
    <ele>674.0</ele>
    <time>2018-09-22T07:00:13Z</time>
   </trkpt>
   <trkpt lat="31.7406670" lon="35.1329480">
    <ele>674.4</ele>
    <time>2018-09-22T07:00:15Z</time>
   </trkpt>
   <trkpt lat="31.7406990" lon="35.1329790">
    <ele>674.8</ele>
    <time>2018-09-22T07:00:17Z</time>
   </trkpt>
   <trkpt lat="31.7407140" lon="35.1330130">
    <ele>675.1</ele>
    <time>2018-09-22T07:00:19Z</time>
   </trkpt>
   <trkpt lat="31.7407500" lon="35.1330400">
    <ele>675.5</ele>
    <time>2018-09-22T07:00:21Z</time>
   </trkpt>
   <trkpt lat="31.7407730" lon="35.1330760">
    <ele>675.8</ele>
    <time>2018-09-22T07:00:23Z</time>
   </trkpt>
   <trkpt lat="31.7407950" lon="35.1330970">
    <ele>676.1</ele>
    <time>2018-09-22T07:00:25Z</time>
   </trkpt>
   <trkpt lat="31.7408140" lon="35.1331350">
    <ele>676.5</ele>
    <time>2018-09-22T07:00:28Z</time>
   </trkpt>
   <trkpt lat="31.7408350" lon="35.1331640">
    <ele>676.8</ele>
    <time>2018-09-22T07:00:30Z</time>
   </trkpt>
   <trkpt lat="31.7408570" lon="35.1331840">
    <ele>677.0</ele>
    <time>2018-09-22T07:00:32Z</time>
   </trkpt>
   <trkpt lat="31.7408880" lon="35.1332210">
    <ele>677.5</ele>
    <time>2018-09-22T07:00:34Z</time>
   </trkpt>
   <trkpt lat="31.7409100" lon="35.1332520">
    <ele>677.8</ele>
    <time>2018-09-22T07:00:36Z</time>
   </trkpt>
   <trkpt lat="31.7409320" lon="35.1332910">
    <ele>678.1</ele>
    <time>2018-09-22T07:00:38Z</time>
   </trkpt>
   <trkpt lat="31.7409600" lon="35.1333100">
    <ele>678.4</ele>
    <time>2018-09-22T07:00:41Z</time>
   </trkpt>
   <trkpt lat="31.7409840" lon="35.1333400">
    <ele>678.7</ele>
    <time>2018-09-22T07:00:44Z</time>
   </trkpt>
   <trkpt lat="31.7410130" lon="35.1333580">
    <ele>679.0</ele>
    <time>2018-09-22T07:00:47Z</time>
   </trkpt>
   <trkpt lat="31.7410400" lon="35.1333850">
    <ele>679.4</ele>
    <time>2018-09-22T07:00:50Z</time>
   </trkpt>
   <trkpt lat="31.7410640" lon="35.1334070">
    <ele>679.6</ele>
    <time>2018-09-22T07:00:53Z</time>
   </trkpt>
   <trkpt lat="31.7410980" lon="35.1334560">
    <ele>680.1</ele>
    <time>2018-09-22T07:00:56Z</time>
   </trkpt>
   <trkpt lat="31.7411220" lon="35.1334810">
    <ele>680.3</ele>
    <time>2018-09-22T07:00:58Z</time>
   </trkpt>
   <trkpt lat="31.7411510" lon="35.1334950">
    <ele>680.6</ele>
    <time>2018-09-22T07:01:01Z</time>
   </trkpt>
   <trkpt lat="31.7411730" lon="35.1335190">
    <ele>680.8</ele>
    <time>2018-09-22T07:01:03Z</time>
   </trkpt>
   <trkpt lat="31.7411970" lon="35.1335380">
    <ele>681.1</ele>
    <time>2018-09-22T07:01:05Z</time>
   </trkpt>
   <trkpt lat="31.7412430" lon="35.1335800">
    <ele>681.5</ele>
    <time>2018-09-22T07:01:07Z</time>
   </trkpt>
   <trkpt lat="31.7412770" lon="35.1336090">
    <ele>681.8</ele>
    <time>2018-09-22T07:01:09Z</time>
   </trkpt>
   <trkpt lat="31.7413210" lon="35.1336270">
    <ele>682.2</ele>
    <time>2018-09-22T07:01:11Z</time>
   </trkpt>
   <trkpt lat="31.7413520" lon="35.1336520">
    <ele>682.5</ele>
    <time>2018-09-22T07:01:13Z</time>
   </trkpt>
   <trkpt lat="31.7413890" lon="35.1336750">
    <ele>682.8</ele>
    <time>2018-09-22T07:01:16Z</time>
   </trkpt>
   <trkpt lat="31.7414230" lon="35.1336840">
    <ele>683.0</ele>
    <time>2018-09-22T07:01:18Z</time>
   </trkpt>
   <trkpt lat="31.7414490" lon="35.1336950">
    <ele>683.2</ele>
    <time>2018-09-22T07:01:20Z</time>
   </trkpt>
   <trkpt lat="31.7414830" lon="35.1337180">
    <ele>683.5</ele>
    <time>2018-09-22T07:01:22Z</time>
   </trkpt>
   <trkpt lat="31.7415180" lon="35.1337410">
    <ele>683.7</ele>
    <time>2018-09-22T07:01:24Z</time>
   </trkpt>
   <trkpt lat="31.7415560" lon="35.1337400">
    <ele>684.0</ele>
    <time>2018-09-22T07:01:26Z</time>
   </trkpt>
   <trkpt lat="31.7415910" lon="35.1337670">
    <ele>684.3</ele>
    <time>2018-09-22T07:01:28Z</time>
   </trkpt>
   <trkpt lat="31.7416180" lon="35.1337900">
    <ele>684.5</ele>
    <time>2018-09-22T07:01:29Z</time>
   </trkpt>
   <trkpt lat="31.7416550" lon="35.1337970">
    <ele>684.8</ele>
    <time>2018-09-22T07:01:31Z</time>
   </trkpt>
   <trkpt lat="31.7416830" lon="35.1338090">
    <ele>685.0</ele>
    <time>2018-09-22T07:01:33Z</time>
   </trkpt>
   <trkpt lat="31.7417180" lon="35.1338300">
    <ele>685.3</ele>
    <time>2018-09-22T07:01:35Z</time>
   </trkpt>
   <trkpt lat="31.7417490" lon="35.1338570">
    <ele>685.6</ele>
    <time>2018-09-22T07:01:37Z</time>
   </trkpt>
   <trkpt lat="31.7417810" lon="35.1338730">
    <ele>685.8</ele>
    <time>2018-09-22T07:01:39Z</time>
   </trkpt>
   <trkpt lat="31.7418120" lon="35.1338790">
    <ele>686.1</ele>
    <time>2018-09-22T07:01:41Z</time>
   </trkpt>
   <trkpt lat="31.7418400" lon="35.1338960">
    <ele>686.3</ele>
    <time>2018-09-22T07:01:44Z</time>
   </trkpt>
   <trkpt lat="31.7418860" lon="35.1339340">
    <ele>686.7</ele>
    <time>2018-09-22T07:01:46Z</time>
   </trkpt>
   <trkpt lat="31.7419380" lon="35.1339620">
    <ele>687.2</ele>
    <time>2018-09-22T07:01:48Z</time>
   </trkpt>
   <trkpt lat="31.7419900" lon="35.1339880">
    <ele>687.6</ele>
    <time>2018-09-22T07:01:50Z</time>
   </trkpt>
   <trkpt lat="31.7420340" lon="35.1340140">
    <ele>688.0</ele>
    <time>2018-09-22T07:01:52Z</time>
   </trkpt>
   <trkpt lat="31.7420640" lon="35.1340360">
    <ele>688.2</ele>
    <time>2018-09-22T07:01:54Z</time>
   </trkpt>
   <trkpt lat="31.7420990" lon="35.1340480">
    <ele>688.5</ele>
    <time>2018-09-22T07:01:56Z</time>
   </trkpt>
   <trkpt lat="31.7421350" lon="35.1340690">
    <ele>688.8</ele>
    <time>2018-09-22T07:01:58Z</time>
   </trkpt>
   <trkpt lat="31.7421690" lon="35.1340880">
    <ele>689.1</ele>
    <time>2018-09-22T07:02:00Z</time>
   </trkpt>
   <trkpt lat="31.7422010" lon="35.1340980">
    <ele>689.3</ele>
    <time>2018-09-22T07:02:02Z</time>
   </trkpt>
   <trkpt lat="31.7422400" lon="35.1341150">
    <ele>689.6</ele>
    <time>2018-09-22T07:02:04Z</time>
   </trkpt>
   <trkpt lat="31.7422780" lon="35.1341250">
    <ele>689.8</ele>
    <time>2018-09-22T07:02:06Z</time>
   </trkpt>
   <trkpt lat="31.7423090" lon="35.1341450">
    <ele>689.9</ele>
    <time>2018-09-22T07:02:08Z</time>
   </trkpt>
   <trkpt lat="31.7423470" lon="35.1341650">
    <ele>690.1</ele>
    <time>2018-09-22T07:02:10Z</time>
   </trkpt>
   <trkpt lat="31.7423750" lon="35.1341790">
    <ele>690.3</ele>
    <time>2018-09-22T07:02:12Z</time>
   </trkpt>
   <trkpt lat="31.7424200" lon="35.1342060">
    <ele>690.5</ele>
    <time>2018-09-22T07:02:15Z</time>
   </trkpt>
   <trkpt lat="31.7424490" lon="35.1342280">
    <ele>690.7</ele>
    <time>2018-09-22T07:02:18Z</time>
   </trkpt>
   <trkpt lat="31.7424780" lon="35.1342500">
    <ele>690.9</ele>
    <time>2018-09-22T07:02:20Z</time>
   </trkpt>
   <trkpt lat="31.7425150" lon="35.1342670">
    <ele>691.2</ele>
    <time>2018-09-22T07:02:22Z</time>
   </trkpt>
   <trkpt lat="31.7425490" lon="35.1342810">
    <ele>691.4</ele>
    <time>2018-09-22T07:02:24Z</time>
   </trkpt>
   <trkpt lat="31.7425830" lon="35.1343080">
    <ele>691.7</ele>
    <time>2018-09-22T07:02:26Z</time>
   </trkpt>
   <trkpt lat="31.7426050" lon="35.1343300">
    <ele>691.9</ele>
    <time>2018-09-22T07:02:28Z</time>
   </trkpt>
   <trkpt lat="31.7426380" lon="35.1343470">
    <ele>692.1</ele>
    <time>2018-09-22T07:02:30Z</time>
   </trkpt>
   <trkpt lat="31.7426790" lon="35.1343590">
    <ele>692.4</ele>
    <time>2018-09-22T07:02:32Z</time>
   </trkpt>
   <trkpt lat="31.7427090" lon="35.1343830">
    <ele>692.7</ele>
    <time>2018-09-22T07:02:34Z</time>
   </trkpt>
   <trkpt lat="31.7427430" lon="35.1344140">
    <ele>693.0</ele>
    <time>2018-09-22T07:02:36Z</time>
   </trkpt>
   <trkpt lat="31.7427820" lon="35.1344560">
    <ele>693.3</ele>
    <time>2018-09-22T07:02:38Z</time>
   </trkpt>
   <trkpt lat="31.7427990" lon="35.1344830">
    <ele>693.5</ele>
    <time>2018-09-22T07:02:39Z</time>
   </trkpt>
   <trkpt lat="31.7428390" lon="35.1344970">
    <ele>693.8</ele>
    <time>2018-09-22T07:02:41Z</time>
   </trkpt>
   <trkpt lat="31.7428660" lon="35.1345210">
    <ele>694.0</ele>
    <time>2018-09-22T07:02:43Z</time>
   </trkpt>
   <trkpt lat="31.7429020" lon="35.1345480">
    <ele>694.3</ele>
    <time>2018-09-22T07:02:45Z</time>
   </trkpt>
   <trkpt lat="31.7429310" lon="35.1345780">
    <ele>694.6</ele>
    <time>2018-09-22T07:02:47Z</time>
   </trkpt>
   <trkpt lat="31.7429550" lon="35.1346020">
    <ele>694.8</ele>
    <time>2018-09-22T07:02:49Z</time>
   </trkpt>
   <trkpt lat="31.7429940" lon="35.1346200">
    <ele>695.1</ele>
    <time>2018-09-22T07:02:51Z</time>
   </trkpt>
   <trkpt lat="31.7430210" lon="35.1346340">
    <ele>695.3</ele>
    <time>2018-09-22T07:02:53Z</time>
   </trkpt>
   <trkpt lat="31.7430650" lon="35.1346690">
    <ele>695.6</ele>
    <time>2018-09-22T07:02:55Z</time>
   </trkpt>
   <trkpt lat="31.7430970" lon="35.1347020">
    <ele>695.9</ele>
    <time>2018-09-22T07:02:57Z</time>
   </trkpt>
   <trkpt lat="31.7431190" lon="35.1347230">
    <ele>696.1</ele>
    <time>2018-09-22T07:02:58Z</time>
   </trkpt>
   <trkpt lat="31.7431480" lon="35.1347440">
    <ele>696.4</ele>
    <time>2018-09-22T07:03:00Z</time>
   </trkpt>
   <trkpt lat="31.7431770" lon="35.1347480">
    <ele>696.6</ele>
    <time>2018-09-22T07:03:02Z</time>
   </trkpt>
   <trkpt lat="31.7432120" lon="35.1347610">
    <ele>696.8</ele>
    <time>2018-09-22T07:03:04Z</time>
   </trkpt>
   <trkpt lat="31.7432410" lon="35.1347820">
    <ele>697.0</ele>
    <time>2018-09-22T07:03:06Z</time>
   </trkpt>
   <trkpt lat="31.7432660" lon="35.1347980">
    <ele>697.2</ele>
    <time>2018-09-22T07:03:08Z</time>
   </trkpt>
   <trkpt lat="31.7432980" lon="35.1348190">
    <ele>697.5</ele>
    <time>2018-09-22T07:03:10Z</time>
   </trkpt>
   <trkpt lat="31.7433270" lon="35.1348390">
    <ele>697.7</ele>
    <time>2018-09-22T07:03:12Z</time>
   </trkpt>
   <trkpt lat="31.7433520" lon="35.1348590">
    <ele>697.9</ele>
    <time>2018-09-22T07:03:14Z</time>
   </trkpt>
   <trkpt lat="31.7433860" lon="35.1348840">
    <ele>698.1</ele>
    <time>2018-09-22T07:03:16Z</time>
   </trkpt>
   <trkpt lat="31.7434130" lon="35.1349050">
    <ele>698.3</ele>
    <time>2018-09-22T07:03:18Z</time>
   </trkpt>
   <trkpt lat="31.7434510" lon="35.1349300">
    <ele>698.6</ele>
    <time>2018-09-22T07:03:20Z</time>
   </trkpt>
   <trkpt lat="31.7434790" lon="35.1349580">
    <ele>698.9</ele>
    <time>2018-09-22T07:03:22Z</time>
   </trkpt>
   <trkpt lat="31.7435100" lon="35.1349710">
    <ele>699.1</ele>
    <time>2018-09-22T07:03:24Z</time>
   </trkpt>
   <trkpt lat="31.7435380" lon="35.1349900">
    <ele>699.3</ele>
    <time>2018-09-22T07:03:26Z</time>
   </trkpt>
   <trkpt lat="31.7435600" lon="35.1350080">
    <ele>699.6</ele>
    <time>2018-09-22T07:03:28Z</time>
   </trkpt>
   <trkpt lat="31.7435850" lon="35.1350300">
    <ele>699.9</ele>
    <time>2018-09-22T07:03:30Z</time>
   </trkpt>
   <trkpt lat="31.7436090" lon="35.1350560">
    <ele>700.2</ele>
    <time>2018-09-22T07:03:31Z</time>
   </trkpt>
   <trkpt lat="31.7436420" lon="35.1350760">
    <ele>700.6</ele>
    <time>2018-09-22T07:03:33Z</time>
   </trkpt>
   <trkpt lat="31.7436720" lon="35.1351050">
    <ele>701.0</ele>
    <time>2018-09-22T07:03:35Z</time>
   </trkpt>
   <trkpt lat="31.7437050" lon="35.1351280">
    <ele>701.4</ele>
    <time>2018-09-22T07:03:37Z</time>
   </trkpt>
   <trkpt lat="31.7437430" lon="35.1351360">
    <ele>701.8</ele>
    <time>2018-09-22T07:03:38Z</time>
   </trkpt>
   <trkpt lat="31.7437710" lon="35.1351460">
    <ele>702.1</ele>
    <time>2018-09-22T07:03:39Z</time>
   </trkpt>
   <trkpt lat="31.7438070" lon="35.1351790">
    <ele>702.6</ele>
    <time>2018-09-22T07:03:41Z</time>
   </trkpt>
   <trkpt lat="31.7438430" lon="35.1352000">
    <ele>703.0</ele>
    <time>2018-09-22T07:03:43Z</time>
   </trkpt>
   <trkpt lat="31.7438780" lon="35.1352090">
    <ele>703.4</ele>
    <time>2018-09-22T07:03:45Z</time>
   </trkpt>
   <trkpt lat="31.7439060" lon="35.1352090">
    <ele>703.7</ele>
    <time>2018-09-22T07:03:47Z</time>
   </trkpt>
   <trkpt lat="31.7439350" lon="35.1352310">
    <ele>703.9</ele>
    <time>2018-09-22T07:03:49Z</time>
   </trkpt>
   <trkpt lat="31.7439630" lon="35.1352510">
    <ele>704.2</ele>
    <time>2018-09-22T07:03:51Z</time>
   </trkpt>
   <trkpt lat="31.7439980" lon="35.1352630">
    <ele>704.5</ele>
    <time>2018-09-22T07:03:53Z</time>
   </trkpt>
   <trkpt lat="31.7440310" lon="35.1352810">
    <ele>704.7</ele>
    <time>2018-09-22T07:03:55Z</time>
   </trkpt>
   <trkpt lat="31.7440580" lon="35.1352910">
    <ele>704.9</ele>
    <time>2018-09-22T07:03:56Z</time>
   </trkpt>
   <trkpt lat="31.7440990" lon="35.1352950">
    <ele>705.3</ele>
    <time>2018-09-22T07:03:58Z</time>
   </trkpt>
   <trkpt lat="31.7441340" lon="35.1352930">
    <ele>705.5</ele>
    <time>2018-09-22T07:04:00Z</time>
   </trkpt>
   <trkpt lat="31.7441710" lon="35.1352990">
    <ele>705.8</ele>
    <time>2018-09-22T07:04:02Z</time>
   </trkpt>
   <trkpt lat="31.7442090" lon="35.1353270">
    <ele>706.1</ele>
    <time>2018-09-22T07:04:04Z</time>
   </trkpt>
   <trkpt lat="31.7442450" lon="35.1353450">
    <ele>706.5</ele>
    <time>2018-09-22T07:04:06Z</time>
   </trkpt>
   <trkpt lat="31.7442830" lon="35.1353460">
    <ele>706.9</ele>
    <time>2018-09-22T07:04:08Z</time>
   </trkpt>
   <trkpt lat="31.7443230" lon="35.1353620">
    <ele>707.4</ele>
    <time>2018-09-22T07:04:10Z</time>
   </trkpt>
   <trkpt lat="31.7443590" lon="35.1353750">
    <ele>707.9</ele>
    <time>2018-09-22T07:04:12Z</time>
   </trkpt>
   <trkpt lat="31.7444010" lon="35.1354170">
    <ele>708.6</ele>
    <time>2018-09-22T07:04:14Z</time>
   </trkpt>
   <trkpt lat="31.7444290" lon="35.1354200">
    <ele>709.0</ele>
    <time>2018-09-22T07:04:16Z</time>
   </trkpt>
   <trkpt lat="31.7444710" lon="35.1354200">
    <ele>709.6</ele>
    <time>2018-09-22T07:04:18Z</time>
   </trkpt>
   <trkpt lat="31.7445010" lon="35.1354290">
    <ele>710.0</ele>
    <time>2018-09-22T07:04:20Z</time>
   </trkpt>
   <trkpt lat="31.7445350" lon="35.1354430">
    <ele>710.5</ele>
    <time>2018-09-22T07:04:22Z</time>
   </trkpt>
   <trkpt lat="31.7445690" lon="35.1354380">
    <ele>711.0</ele>
    <time>2018-09-22T07:04:24Z</time>
   </trkpt>
   <trkpt lat="31.7446050" lon="35.1354490">
    <ele>711.6</ele>
    <time>2018-09-22T07:04:26Z</time>
   </trkpt>
   <trkpt lat="31.7446340" lon="35.1354590">
    <ele>712.1</ele>
    <time>2018-09-22T07:04:28Z</time>
   </trkpt>
   <trkpt lat="31.7446690" lon="35.1354820">
    <ele>712.7</ele>
    <time>2018-09-22T07:04:30Z</time>
   </trkpt>
   <trkpt lat="31.7447040" lon="35.1355120">
    <ele>713.5</ele>
    <time>2018-09-22T07:04:32Z</time>
   </trkpt>
   <trkpt lat="31.7447290" lon="35.1355360">
    <ele>714.0</ele>
    <time>2018-09-22T07:04:33Z</time>
   </trkpt>
   <trkpt lat="31.7447640" lon="35.1355610">
    <ele>714.7</ele>
    <time>2018-09-22T07:04:35Z</time>
   </trkpt>
   <trkpt lat="31.7447950" lon="35.1355790">
    <ele>715.3</ele>
    <time>2018-09-22T07:04:37Z</time>
   </trkpt>
   <trkpt lat="31.7448180" lon="35.1356060">
    <ele>716.0</ele>
    <time>2018-09-22T07:04:38Z</time>
   </trkpt>
   <trkpt lat="31.7448620" lon="35.1356260">
    <ele>716.0</ele>
    <time>2018-09-22T07:04:40Z</time>
   </trkpt>
   <trkpt lat="31.7449110" lon="35.1356340">
    <ele>716.7</ele>
    <time>2018-09-22T07:04:42Z</time>
   </trkpt>
   <trkpt lat="31.7449430" lon="35.1356360">
    <ele>717.2</ele>
    <time>2018-09-22T07:04:43Z</time>
   </trkpt>
   <trkpt lat="31.7449730" lon="35.1356430">
    <ele>717.3</ele>
    <time>2018-09-22T07:04:44Z</time>
   </trkpt>
   <trkpt lat="31.7450130" lon="35.1356470">
    <ele>717.4</ele>
    <time>2018-09-22T07:04:46Z</time>
   </trkpt>
   <trkpt lat="31.7450430" lon="35.1356460">
    <ele>717.4</ele>
    <time>2018-09-22T07:04:47Z</time>
   </trkpt>
   <trkpt lat="31.7450810" lon="35.1356400">
    <ele>717.4</ele>
    <time>2018-09-22T07:04:49Z</time>
   </trkpt>
   <trkpt lat="31.7451110" lon="35.1356350">
    <ele>717.3</ele>
    <time>2018-09-22T07:04:50Z</time>
   </trkpt>
   <trkpt lat="31.7451630" lon="35.1356380">
    <ele>717.1</ele>
    <time>2018-09-22T07:04:52Z</time>
   </trkpt>
   <trkpt lat="31.7451970" lon="35.1356460">
    <ele>717.0</ele>
    <time>2018-09-22T07:04:53Z</time>
   </trkpt>
   <trkpt lat="31.7452310" lon="35.1356560">
    <ele>716.8</ele>
    <time>2018-09-22T07:04:54Z</time>
   </trkpt>
   <trkpt lat="31.7452860" lon="35.1356550">
    <ele>716.7</ele>
    <time>2018-09-22T07:04:56Z</time>
   </trkpt>
   <trkpt lat="31.7453170" lon="35.1356680">
    <ele>716.7</ele>
    <time>2018-09-22T07:04:57Z</time>
   </trkpt>
   <trkpt lat="31.7453470" lon="35.1356670">
    <ele>716.8</ele>
    <time>2018-09-22T07:04:58Z</time>
   </trkpt>
   <trkpt lat="31.7453850" lon="35.1356710">
    <ele>717.3</ele>
    <time>2018-09-22T07:04:59Z</time>
   </trkpt>
   <trkpt lat="31.7454220" lon="35.1356410">
    <ele>717.8</ele>
    <time>2018-09-22T07:05:01Z</time>
   </trkpt>
   <trkpt lat="31.7454620" lon="35.1356610">
    <ele>717.7</ele>
    <time>2018-09-22T07:05:02Z</time>
   </trkpt>
   <trkpt lat="31.7454940" lon="35.1356710">
    <ele>717.6</ele>
    <time>2018-09-22T07:05:03Z</time>
   </trkpt>
   <trkpt lat="31.7455320" lon="35.1356870">
    <ele>717.5</ele>
    <time>2018-09-22T07:05:04Z</time>
   </trkpt>
   <trkpt lat="31.7455610" lon="35.1356880">
    <ele>717.4</ele>
    <time>2018-09-22T07:05:05Z</time>
   </trkpt>
   <trkpt lat="31.7455930" lon="35.1356870">
    <ele>717.3</ele>
    <time>2018-09-22T07:05:06Z</time>
   </trkpt>
   <trkpt lat="31.7456410" lon="35.1356820">
    <ele>717.4</ele>
    <time>2018-09-22T07:05:08Z</time>
   </trkpt>
   <trkpt lat="31.7456720" lon="35.1356920">
    <ele>717.4</ele>
    <time>2018-09-22T07:05:09Z</time>
   </trkpt>
   <trkpt lat="31.7457360" lon="35.1356880">
    <ele>717.7</ele>
    <time>2018-09-22T07:05:11Z</time>
   </trkpt>
   <trkpt lat="31.7457670" lon="35.1356890">
    <ele>717.7</ele>
    <time>2018-09-22T07:05:12Z</time>
   </trkpt>
   <trkpt lat="31.7458060" lon="35.1356880">
    <ele>717.6</ele>
    <time>2018-09-22T07:05:13Z</time>
   </trkpt>
   <trkpt lat="31.7458430" lon="35.1356890">
    <ele>717.7</ele>
    <time>2018-09-22T07:05:14Z</time>
   </trkpt>
   <trkpt lat="31.7458750" lon="35.1356830">
    <ele>718.3</ele>
    <time>2018-09-22T07:05:15Z</time>
   </trkpt>
   <trkpt lat="31.7459090" lon="35.1356780">
    <ele>719.1</ele>
    <time>2018-09-22T07:05:16Z</time>
   </trkpt>
   <trkpt lat="31.7459370" lon="35.1356720">
    <ele>719.3</ele>
    <time>2018-09-22T07:05:17Z</time>
   </trkpt>
   <trkpt lat="31.7459630" lon="35.1356570">
    <ele>719.4</ele>
    <time>2018-09-22T07:05:18Z</time>
   </trkpt>
   <trkpt lat="31.7459890" lon="35.1356310">
    <ele>719.7</ele>
    <time>2018-09-22T07:05:19Z</time>
   </trkpt>
   <trkpt lat="31.7460150" lon="35.1355990">
    <ele>720.5</ele>
    <time>2018-09-22T07:05:20Z</time>
   </trkpt>
   <trkpt lat="31.7460400" lon="35.1355350">
    <ele>720.8</ele>
    <time>2018-09-22T07:05:22Z</time>
   </trkpt>
   <trkpt lat="31.7460550" lon="35.1354920">
    <ele>720.6</ele>
    <time>2018-09-22T07:05:23Z</time>
   </trkpt>
   <trkpt lat="31.7460140" lon="35.1354100">
    <ele>719.8</ele>
    <time>2018-09-22T07:05:25Z</time>
   </trkpt>
   <trkpt lat="31.7459840" lon="35.1353550">
    <ele>719.0</ele>
    <time>2018-09-22T07:05:26Z</time>
   </trkpt>
   <trkpt lat="31.7459710" lon="35.1353160">
    <ele>718.8</ele>
    <time>2018-09-22T07:05:27Z</time>
   </trkpt>
   <trkpt lat="31.7459490" lon="35.1352780">
    <ele>718.6</ele>
    <time>2018-09-22T07:05:28Z</time>
   </trkpt>
   <trkpt lat="31.7459280" lon="35.1352160">
    <ele>718.8</ele>
    <time>2018-09-22T07:05:29Z</time>
   </trkpt>
   <trkpt lat="31.7459130" lon="35.1351760">
    <ele>719.0</ele>
    <time>2018-09-22T07:05:30Z</time>
   </trkpt>
   <trkpt lat="31.7458940" lon="35.1351300">
    <ele>719.2</ele>
    <time>2018-09-22T07:05:31Z</time>
   </trkpt>
   <trkpt lat="31.7458740" lon="35.1350840">
    <ele>719.2</ele>
    <time>2018-09-22T07:05:32Z</time>
   </trkpt>
   <trkpt lat="31.7458610" lon="35.1350390">
    <ele>718.9</ele>
    <time>2018-09-22T07:05:33Z</time>
   </trkpt>
   <trkpt lat="31.7458480" lon="35.1349870">
    <ele>718.5</ele>
    <time>2018-09-22T07:05:34Z</time>
   </trkpt>
   <trkpt lat="31.7458180" lon="35.1349430">
    <ele>717.9</ele>
    <time>2018-09-22T07:05:35Z</time>
   </trkpt>
   <trkpt lat="31.7457970" lon="35.1348950">
    <ele>717.4</ele>
    <time>2018-09-22T07:05:36Z</time>
   </trkpt>
   <trkpt lat="31.7457830" lon="35.1348530">
    <ele>716.9</ele>
    <time>2018-09-22T07:05:37Z</time>
   </trkpt>
   <trkpt lat="31.7457630" lon="35.1348140">
    <ele>716.7</ele>
    <time>2018-09-22T07:05:38Z</time>
   </trkpt>
   <trkpt lat="31.7457520" lon="35.1347650">
    <ele>716.8</ele>
    <time>2018-09-22T07:05:39Z</time>
   </trkpt>
   <trkpt lat="31.7457310" lon="35.1347190">
    <ele>716.8</ele>
    <time>2018-09-22T07:05:40Z</time>
   </trkpt>
   <trkpt lat="31.7457190" lon="35.1346610">
    <ele>716.4</ele>
    <time>2018-09-22T07:05:41Z</time>
   </trkpt>
   <trkpt lat="31.7457120" lon="35.1346110">
    <ele>716.5</ele>
    <time>2018-09-22T07:05:42Z</time>
   </trkpt>
   <trkpt lat="31.7457040" lon="35.1345590">
    <ele>716.7</ele>
    <time>2018-09-22T07:05:43Z</time>
   </trkpt>
   <trkpt lat="31.7456890" lon="35.1345110">
    <ele>716.5</ele>
    <time>2018-09-22T07:05:44Z</time>
   </trkpt>
   <trkpt lat="31.7456930" lon="35.1344590">
    <ele>716.2</ele>
    <time>2018-09-22T07:05:45Z</time>
   </trkpt>
   <trkpt lat="31.7456990" lon="35.1343950">
    <ele>716.1</ele>
    <time>2018-09-22T07:05:46Z</time>
   </trkpt>
   <trkpt lat="31.7457030" lon="35.1343450">
    <ele>716.2</ele>
    <time>2018-09-22T07:05:47Z</time>
   </trkpt>
   <trkpt lat="31.7457030" lon="35.1342840">
    <ele>717.2</ele>
    <time>2018-09-22T07:05:48Z</time>
   </trkpt>
   <trkpt lat="31.7457000" lon="35.1342290">
    <ele>718.0</ele>
    <time>2018-09-22T07:05:49Z</time>
   </trkpt>
   <trkpt lat="31.7456930" lon="35.1341790">
    <ele>718.7</ele>
    <time>2018-09-22T07:05:50Z</time>
   </trkpt>
   <trkpt lat="31.7456890" lon="35.1341200">
    <ele>719.3</ele>
    <time>2018-09-22T07:05:51Z</time>
   </trkpt>
   <trkpt lat="31.7456860" lon="35.1340620">
    <ele>719.6</ele>
    <time>2018-09-22T07:05:52Z</time>
   </trkpt>
   <trkpt lat="31.7456830" lon="35.1340150">
    <ele>719.9</ele>
    <time>2018-09-22T07:05:53Z</time>
   </trkpt>
   <trkpt lat="31.7456840" lon="35.1339600">
    <ele>720.2</ele>
    <time>2018-09-22T07:05:54Z</time>
   </trkpt>
   <trkpt lat="31.7456920" lon="35.1339090">
    <ele>720.3</ele>
    <time>2018-09-22T07:05:55Z</time>
   </trkpt>
   <trkpt lat="31.7457010" lon="35.1338390">
    <ele>720.6</ele>
    <time>2018-09-22T07:05:56Z</time>
   </trkpt>
   <trkpt lat="31.7457120" lon="35.1337930">
    <ele>720.7</ele>
    <time>2018-09-22T07:05:57Z</time>
   </trkpt>
   <trkpt lat="31.7457200" lon="35.1337360">
    <ele>720.9</ele>
    <time>2018-09-22T07:05:58Z</time>
   </trkpt>
   <trkpt lat="31.7457360" lon="35.1336810">
    <ele>721.1</ele>
    <time>2018-09-22T07:05:59Z</time>
   </trkpt>
   <trkpt lat="31.7457470" lon="35.1336260">
    <ele>721.3</ele>
    <time>2018-09-22T07:06:00Z</time>
   </trkpt>
   <trkpt lat="31.7457580" lon="35.1335700">
    <ele>721.6</ele>
    <time>2018-09-22T07:06:01Z</time>
   </trkpt>
   <trkpt lat="31.7457710" lon="35.1335150">
    <ele>722.0</ele>
    <time>2018-09-22T07:06:02Z</time>
   </trkpt>
   <trkpt lat="31.7457830" lon="35.1334580">
    <ele>722.5</ele>
    <time>2018-09-22T07:06:03Z</time>
   </trkpt>
   <trkpt lat="31.7457940" lon="35.1333940">
    <ele>723.2</ele>
    <time>2018-09-22T07:06:04Z</time>
   </trkpt>
   <trkpt lat="31.7458130" lon="35.1333230">
    <ele>724.0</ele>
    <time>2018-09-22T07:06:05Z</time>
   </trkpt>
   <trkpt lat="31.7458220" lon="35.1332590">
    <ele>724.2</ele>
    <time>2018-09-22T07:06:06Z</time>
   </trkpt>
   <trkpt lat="31.7458330" lon="35.1331930">
    <ele>724.5</ele>
    <time>2018-09-22T07:06:07Z</time>
   </trkpt>
   <trkpt lat="31.7458580" lon="35.1331030">
    <ele>724.8</ele>
    <time>2018-09-22T07:06:08Z</time>
   </trkpt>
   <trkpt lat="31.7458700" lon="35.1330380">
    <ele>725.0</ele>
    <time>2018-09-22T07:06:09Z</time>
   </trkpt>
   <trkpt lat="31.7458770" lon="35.1329770">
    <ele>724.2</ele>
    <time>2018-09-22T07:06:10Z</time>
   </trkpt>
   <trkpt lat="31.7458840" lon="35.1329150">
    <ele>723.3</ele>
    <time>2018-09-22T07:06:11Z</time>
   </trkpt>
   <trkpt lat="31.7458840" lon="35.1328330">
    <ele>722.1</ele>
    <time>2018-09-22T07:06:12Z</time>
   </trkpt>
   <trkpt lat="31.7459100" lon="35.1327570">
    <ele>721.0</ele>
    <time>2018-09-22T07:06:13Z</time>
   </trkpt>
   <trkpt lat="31.7459200" lon="35.1326970">
    <ele>720.1</ele>
    <time>2018-09-22T07:06:14Z</time>
   </trkpt>
   <trkpt lat="31.7459300" lon="35.1326270">
    <ele>718.7</ele>
    <time>2018-09-22T07:06:15Z</time>
   </trkpt>
   <trkpt lat="31.7459420" lon="35.1325540">
    <ele>715.5</ele>
    <time>2018-09-22T07:06:16Z</time>
   </trkpt>
   <trkpt lat="31.7459600" lon="35.1324790">
    <ele>711.8</ele>
    <time>2018-09-22T07:06:17Z</time>
   </trkpt>
   <trkpt lat="31.7459750" lon="35.1323960">
    <ele>707.1</ele>
    <time>2018-09-22T07:06:18Z</time>
   </trkpt>
   <trkpt lat="31.7460300" lon="35.1323550">
    <ele>707.5</ele>
    <time>2018-09-22T07:06:19Z</time>
   </trkpt>
   <trkpt lat="31.7460880" lon="35.1323070">
    <ele>707.9</ele>
    <time>2018-09-22T07:06:20Z</time>
   </trkpt>
   <trkpt lat="31.7461220" lon="35.1322660">
    <ele>708.1</ele>
    <time>2018-09-22T07:06:21Z</time>
   </trkpt>
   <trkpt lat="31.7461570" lon="35.1322190">
    <ele>708.5</ele>
    <time>2018-09-22T07:06:22Z</time>
   </trkpt>
   <trkpt lat="31.7461900" lon="35.1321730">
    <ele>708.8</ele>
    <time>2018-09-22T07:06:23Z</time>
   </trkpt>
   <trkpt lat="31.7462290" lon="35.1321240">
    <ele>709.1</ele>
    <time>2018-09-22T07:06:24Z</time>
   </trkpt>
   <trkpt lat="31.7462600" lon="35.1320730">
    <ele>709.5</ele>
    <time>2018-09-22T07:06:25Z</time>
   </trkpt>
   <trkpt lat="31.7463070" lon="35.1320200">
    <ele>709.9</ele>
    <time>2018-09-22T07:06:26Z</time>
   </trkpt>
   <trkpt lat="31.7463350" lon="35.1319650">
    <ele>710.2</ele>
    <time>2018-09-22T07:06:27Z</time>
   </trkpt>
   <trkpt lat="31.7463780" lon="35.1319340">
    <ele>710.5</ele>
    <time>2018-09-22T07:06:28Z</time>
   </trkpt>
   <trkpt lat="31.7464270" lon="35.1319090">
    <ele>710.9</ele>
    <time>2018-09-22T07:06:29Z</time>
   </trkpt>
   <trkpt lat="31.7464820" lon="35.1318930">
    <ele>711.3</ele>
    <time>2018-09-22T07:06:30Z</time>
   </trkpt>
   <trkpt lat="31.7465330" lon="35.1318690">
    <ele>711.7</ele>
    <time>2018-09-22T07:06:31Z</time>
   </trkpt>
   <trkpt lat="31.7465860" lon="35.1318420">
    <ele>712.1</ele>
    <time>2018-09-22T07:06:32Z</time>
   </trkpt>
   <trkpt lat="31.7466400" lon="35.1318120">
    <ele>712.5</ele>
    <time>2018-09-22T07:06:33Z</time>
   </trkpt>
   <trkpt lat="31.7467000" lon="35.1317960">
    <ele>713.1</ele>
    <time>2018-09-22T07:06:34Z</time>
   </trkpt>
   <trkpt lat="31.7467580" lon="35.1317840">
    <ele>713.6</ele>
    <time>2018-09-22T07:06:35Z</time>
   </trkpt>
   <trkpt lat="31.7468110" lon="35.1317830">
    <ele>714.0</ele>
    <time>2018-09-22T07:06:36Z</time>
   </trkpt>
   <trkpt lat="31.7468660" lon="35.1317850">
    <ele>714.6</ele>
    <time>2018-09-22T07:06:37Z</time>
   </trkpt>
   <trkpt lat="31.7469270" lon="35.1318070">
    <ele>715.3</ele>
    <time>2018-09-22T07:06:38Z</time>
   </trkpt>
   <trkpt lat="31.7469560" lon="35.1317970">
    <ele>715.6</ele>
    <time>2018-09-22T07:06:39Z</time>
   </trkpt>
   <trkpt lat="31.7469830" lon="35.1317850">
    <ele>715.9</ele>
    <time>2018-09-22T07:06:40Z</time>
   </trkpt>
   <trkpt lat="31.7470120" lon="35.1317820">
    <ele>716.3</ele>
    <time>2018-09-22T07:06:41Z</time>
   </trkpt>
   <trkpt lat="31.7470350" lon="35.1317630">
    <ele>716.7</ele>
    <time>2018-09-22T07:06:43Z</time>
   </trkpt>
   <trkpt lat="31.7470440" lon="35.1317160">
    <ele>717.2</ele>
    <time>2018-09-22T07:06:45Z</time>
   </trkpt>
   <trkpt lat="31.7470640" lon="35.1317380">
    <ele>717.6</ele>
    <time>2018-09-22T07:06:46Z</time>
   </trkpt>
   <trkpt lat="31.7471010" lon="35.1317350">
    <ele>718.1</ele>
    <time>2018-09-22T07:06:47Z</time>
   </trkpt>
   <trkpt lat="31.7471280" lon="35.1317220">
    <ele>718.5</ele>
    <time>2018-09-22T07:06:49Z</time>
   </trkpt>
   <trkpt lat="31.7471720" lon="35.1317350">
    <ele>719.1</ele>
    <time>2018-09-22T07:06:51Z</time>
   </trkpt>
   <trkpt lat="31.7472030" lon="35.1317560">
    <ele>719.5</ele>
    <time>2018-09-22T07:06:53Z</time>
   </trkpt>
   <trkpt lat="31.7472330" lon="35.1318060">
    <ele>719.9</ele>
    <time>2018-09-22T07:06:55Z</time>
   </trkpt>
   <trkpt lat="31.7472340" lon="35.1318380">
    <ele>720.1</ele>
    <time>2018-09-22T07:06:58Z</time>
   </trkpt>
   <trkpt lat="31.7472450" lon="35.1318810">
    <ele>720.3</ele>
    <time>2018-09-22T07:07:01Z</time>
   </trkpt>
   <trkpt lat="31.7472700" lon="35.1319130">
    <ele>720.5</ele>
    <time>2018-09-22T07:07:05Z</time>
   </trkpt>
   <trkpt lat="31.7473000" lon="35.1319460">
    <ele>720.6</ele>
    <time>2018-09-22T07:07:07Z</time>
   </trkpt>
   <trkpt lat="31.7473110" lon="35.1319820">
    <ele>720.7</ele>
    <time>2018-09-22T07:07:08Z</time>
   </trkpt>
   <trkpt lat="31.7473310" lon="35.1320260">
    <ele>720.8</ele>
    <time>2018-09-22T07:07:11Z</time>
   </trkpt>
   <trkpt lat="31.7473570" lon="35.1320650">
    <ele>720.9</ele>
    <time>2018-09-22T07:07:14Z</time>
   </trkpt>
   <trkpt lat="31.7473840" lon="35.1320710">
    <ele>721.0</ele>
    <time>2018-09-22T07:07:15Z</time>
   </trkpt>
   <trkpt lat="31.7474140" lon="35.1320980">
    <ele>721.0</ele>
    <time>2018-09-22T07:07:18Z</time>
   </trkpt>
   <trkpt lat="31.7474510" lon="35.1321120">
    <ele>721.0</ele>
    <time>2018-09-22T07:07:21Z</time>
   </trkpt>
   <trkpt lat="31.7474840" lon="35.1321340">
    <ele>721.0</ele>
    <time>2018-09-22T07:07:24Z</time>
   </trkpt>
   <trkpt lat="31.7475170" lon="35.1321160">
    <ele>721.0</ele>
    <time>2018-09-22T07:07:27Z</time>
   </trkpt>
   <trkpt lat="31.7475580" lon="35.1320970">
    <ele>720.9</ele>
    <time>2018-09-22T07:07:30Z</time>
   </trkpt>
   <trkpt lat="31.7475940" lon="35.1320710">
    <ele>720.9</ele>
    <time>2018-09-22T07:07:32Z</time>
   </trkpt>
   <trkpt lat="31.7476300" lon="35.1320420">
    <ele>720.9</ele>
    <time>2018-09-22T07:07:34Z</time>
   </trkpt>
   <trkpt lat="31.7476650" lon="35.1320150">
    <ele>720.9</ele>
    <time>2018-09-22T07:07:35Z</time>
   </trkpt>
   <trkpt lat="31.7476930" lon="35.1319830">
    <ele>720.9</ele>
    <time>2018-09-22T07:07:36Z</time>
   </trkpt>
   <trkpt lat="31.7477240" lon="35.1319620">
    <ele>720.8</ele>
    <time>2018-09-22T07:07:37Z</time>
   </trkpt>
   <trkpt lat="31.7477710" lon="35.1319220">
    <ele>720.8</ele>
    <time>2018-09-22T07:07:39Z</time>
   </trkpt>
   <trkpt lat="31.7478060" lon="35.1318910">
    <ele>720.8</ele>
    <time>2018-09-22T07:07:40Z</time>
   </trkpt>
   <trkpt lat="31.7478440" lon="35.1318590">
    <ele>720.8</ele>
    <time>2018-09-22T07:07:41Z</time>
   </trkpt>
   <trkpt lat="31.7478790" lon="35.1318220">
    <ele>720.8</ele>
    <time>2018-09-22T07:07:42Z</time>
   </trkpt>
   <trkpt lat="31.7479140" lon="35.1317810">
    <ele>720.8</ele>
    <time>2018-09-22T07:07:43Z</time>
   </trkpt>
   <trkpt lat="31.7479580" lon="35.1317410">
    <ele>720.8</ele>
    <time>2018-09-22T07:07:44Z</time>
   </trkpt>
   <trkpt lat="31.7479960" lon="35.1317090">
    <ele>720.8</ele>
    <time>2018-09-22T07:07:45Z</time>
   </trkpt>
   <trkpt lat="31.7480300" lon="35.1316810">
    <ele>720.8</ele>
    <time>2018-09-22T07:07:46Z</time>
   </trkpt>
   <trkpt lat="31.7480750" lon="35.1316400">
    <ele>720.8</ele>
    <time>2018-09-22T07:07:47Z</time>
   </trkpt>
   <trkpt lat="31.7481180" lon="35.1316190">
    <ele>720.8</ele>
    <time>2018-09-22T07:07:48Z</time>
   </trkpt>
   <trkpt lat="31.7481580" lon="35.1315940">
    <ele>720.8</ele>
    <time>2018-09-22T07:07:49Z</time>
   </trkpt>
   <trkpt lat="31.7481940" lon="35.1315710">
    <ele>720.8</ele>
    <time>2018-09-22T07:07:50Z</time>
   </trkpt>
   <trkpt lat="31.7482470" lon="35.1315290">
    <ele>720.8</ele>
    <time>2018-09-22T07:07:51Z</time>
   </trkpt>
   <trkpt lat="31.7482810" lon="35.1315030">
    <ele>720.8</ele>
    <time>2018-09-22T07:07:52Z</time>
   </trkpt>
   <trkpt lat="31.7483240" lon="35.1314790">
    <ele>720.8</ele>
    <time>2018-09-22T07:07:53Z</time>
   </trkpt>
   <trkpt lat="31.7483730" lon="35.1314430">
    <ele>720.8</ele>
    <time>2018-09-22T07:07:54Z</time>
   </trkpt>
   <trkpt lat="31.7484130" lon="35.1314100">
    <ele>720.8</ele>
    <time>2018-09-22T07:07:55Z</time>
   </trkpt>
   <trkpt lat="31.7484540" lon="35.1313770">
    <ele>720.8</ele>
    <time>2018-09-22T07:07:56Z</time>
   </trkpt>
   <trkpt lat="31.7484800" lon="35.1313590">
    <ele>720.8</ele>
    <time>2018-09-22T07:07:57Z</time>
   </trkpt>
   <trkpt lat="31.7485190" lon="35.1313410">
    <ele>720.8</ele>
    <time>2018-09-22T07:07:58Z</time>
   </trkpt>
   <trkpt lat="31.7485510" lon="35.1313120">
    <ele>720.7</ele>
    <time>2018-09-22T07:07:59Z</time>
   </trkpt>
   <trkpt lat="31.7485910" lon="35.1312790">
    <ele>720.7</ele>
    <time>2018-09-22T07:08:00Z</time>
   </trkpt>
   <trkpt lat="31.7486130" lon="35.1312470">
    <ele>720.6</ele>
    <time>2018-09-22T07:08:01Z</time>
   </trkpt>
   <trkpt lat="31.7486510" lon="35.1312180">
    <ele>720.6</ele>
    <time>2018-09-22T07:08:02Z</time>
   </trkpt>
   <trkpt lat="31.7486800" lon="35.1311900">
    <ele>720.7</ele>
    <time>2018-09-22T07:08:03Z</time>
   </trkpt>
   <trkpt lat="31.7487010" lon="35.1311580">
    <ele>720.7</ele>
    <time>2018-09-22T07:08:04Z</time>
   </trkpt>
   <trkpt lat="31.7487360" lon="35.1311390">
    <ele>720.7</ele>
    <time>2018-09-22T07:08:05Z</time>
   </trkpt>
   <trkpt lat="31.7487830" lon="35.1311080">
    <ele>720.8</ele>
    <time>2018-09-22T07:08:06Z</time>
   </trkpt>
   <trkpt lat="31.7488250" lon="35.1310720">
    <ele>720.8</ele>
    <time>2018-09-22T07:08:07Z</time>
   </trkpt>
   <trkpt lat="31.7488710" lon="35.1310370">
    <ele>720.9</ele>
    <time>2018-09-22T07:08:08Z</time>
   </trkpt>
   <trkpt lat="31.7489070" lon="35.1310150">
    <ele>720.9</ele>
    <time>2018-09-22T07:08:09Z</time>
   </trkpt>
   <trkpt lat="31.7489370" lon="35.1309810">
    <ele>720.9</ele>
    <time>2018-09-22T07:08:10Z</time>
   </trkpt>
   <trkpt lat="31.7489730" lon="35.1309510">
    <ele>721.0</ele>
    <time>2018-09-22T07:08:11Z</time>
   </trkpt>
   <trkpt lat="31.7490000" lon="35.1309110">
    <ele>721.0</ele>
    <time>2018-09-22T07:08:12Z</time>
   </trkpt>
   <trkpt lat="31.7490420" lon="35.1308790">
    <ele>721.1</ele>
    <time>2018-09-22T07:08:13Z</time>
   </trkpt>
   <trkpt lat="31.7490850" lon="35.1308320">
    <ele>721.2</ele>
    <time>2018-09-22T07:08:14Z</time>
   </trkpt>
   <trkpt lat="31.7491290" lon="35.1307870">
    <ele>721.2</ele>
    <time>2018-09-22T07:08:15Z</time>
   </trkpt>
   <trkpt lat="31.7491700" lon="35.1307620">
    <ele>721.3</ele>
    <time>2018-09-22T07:08:16Z</time>
   </trkpt>
   <trkpt lat="31.7492060" lon="35.1307200">
    <ele>721.3</ele>
    <time>2018-09-22T07:08:17Z</time>
   </trkpt>
   <trkpt lat="31.7492660" lon="35.1306750">
    <ele>721.5</ele>
    <time>2018-09-22T07:08:18Z</time>
   </trkpt>
   <trkpt lat="31.7493100" lon="35.1306410">
    <ele>721.6</ele>
    <time>2018-09-22T07:08:19Z</time>
   </trkpt>
   <trkpt lat="31.7493660" lon="35.1306010">
    <ele>721.7</ele>
    <time>2018-09-22T07:08:20Z</time>
   </trkpt>
   <trkpt lat="31.7494130" lon="35.1305590">
    <ele>721.8</ele>
    <time>2018-09-22T07:08:21Z</time>
   </trkpt>
   <trkpt lat="31.7494540" lon="35.1305230">
    <ele>721.9</ele>
    <time>2018-09-22T07:08:22Z</time>
   </trkpt>
   <trkpt lat="31.7494970" lon="35.1304830">
    <ele>722.0</ele>
    <time>2018-09-22T07:08:23Z</time>
   </trkpt>
   <trkpt lat="31.7495490" lon="35.1304440">
    <ele>722.1</ele>
    <time>2018-09-22T07:08:24Z</time>
   </trkpt>
   <trkpt lat="31.7495890" lon="35.1304080">
    <ele>722.2</ele>
    <time>2018-09-22T07:08:25Z</time>
   </trkpt>
   <trkpt lat="31.7496160" lon="35.1303730">
    <ele>722.3</ele>
    <time>2018-09-22T07:08:26Z</time>
   </trkpt>
   <trkpt lat="31.7496500" lon="35.1303410">
    <ele>722.4</ele>
    <time>2018-09-22T07:08:27Z</time>
   </trkpt>
   <trkpt lat="31.7496870" lon="35.1302970">
    <ele>722.5</ele>
    <time>2018-09-22T07:08:28Z</time>
   </trkpt>
   <trkpt lat="31.7497100" lon="35.1302470">
    <ele>722.6</ele>
    <time>2018-09-22T07:08:29Z</time>
   </trkpt>
   <trkpt lat="31.7497210" lon="35.1302110">
    <ele>722.6</ele>
    <time>2018-09-22T07:08:30Z</time>
   </trkpt>
   <trkpt lat="31.7497440" lon="35.1301570">
    <ele>722.7</ele>
    <time>2018-09-22T07:08:31Z</time>
   </trkpt>
   <trkpt lat="31.7497610" lon="35.1301080">
    <ele>722.7</ele>
    <time>2018-09-22T07:08:32Z</time>
   </trkpt>
   <trkpt lat="31.7497680" lon="35.1300710">
    <ele>722.7</ele>
    <time>2018-09-22T07:08:33Z</time>
   </trkpt>
   <trkpt lat="31.7497840" lon="35.1300270">
    <ele>722.8</ele>
    <time>2018-09-22T07:08:34Z</time>
   </trkpt>
   <trkpt lat="31.7497980" lon="35.1299810">
    <ele>722.8</ele>
    <time>2018-09-22T07:08:35Z</time>
   </trkpt>
   <trkpt lat="31.7498090" lon="35.1299350">
    <ele>722.9</ele>
    <time>2018-09-22T07:08:36Z</time>
   </trkpt>
   <trkpt lat="31.7498220" lon="35.1298850">
    <ele>722.9</ele>
    <time>2018-09-22T07:08:37Z</time>
   </trkpt>
   <trkpt lat="31.7498330" lon="35.1298430">
    <ele>722.9</ele>
    <time>2018-09-22T07:08:38Z</time>
   </trkpt>
   <trkpt lat="31.7498400" lon="35.1297890">
    <ele>723.0</ele>
    <time>2018-09-22T07:08:39Z</time>
   </trkpt>
   <trkpt lat="31.7498480" lon="35.1297520">
    <ele>723.0</ele>
    <time>2018-09-22T07:08:40Z</time>
   </trkpt>
   <trkpt lat="31.7498530" lon="35.1297060">
    <ele>723.0</ele>
    <time>2018-09-22T07:08:41Z</time>
   </trkpt>
   <trkpt lat="31.7498530" lon="35.1296660">
    <ele>723.0</ele>
    <time>2018-09-22T07:08:42Z</time>
   </trkpt>
   <trkpt lat="31.7498590" lon="35.1296120">
    <ele>723.1</ele>
    <time>2018-09-22T07:08:43Z</time>
   </trkpt>
   <trkpt lat="31.7498650" lon="35.1295670">
    <ele>723.1</ele>
    <time>2018-09-22T07:08:44Z</time>
   </trkpt>
   <trkpt lat="31.7498790" lon="35.1295250">
    <ele>723.1</ele>
    <time>2018-09-22T07:08:45Z</time>
   </trkpt>
   <trkpt lat="31.7498920" lon="35.1294860">
    <ele>723.1</ele>
    <time>2018-09-22T07:08:46Z</time>
   </trkpt>
   <trkpt lat="31.7499050" lon="35.1294390">
    <ele>723.2</ele>
    <time>2018-09-22T07:08:47Z</time>
   </trkpt>
   <trkpt lat="31.7499200" lon="35.1294000">
    <ele>723.2</ele>
    <time>2018-09-22T07:08:48Z</time>
   </trkpt>
   <trkpt lat="31.7499310" lon="35.1293570">
    <ele>723.2</ele>
    <time>2018-09-22T07:08:49Z</time>
   </trkpt>
   <trkpt lat="31.7499450" lon="35.1293210">
    <ele>723.2</ele>
    <time>2018-09-22T07:08:50Z</time>
   </trkpt>
   <trkpt lat="31.7499630" lon="35.1292700">
    <ele>723.3</ele>
    <time>2018-09-22T07:08:51Z</time>
   </trkpt>
   <trkpt lat="31.7499800" lon="35.1292220">
    <ele>723.3</ele>
    <time>2018-09-22T07:08:52Z</time>
   </trkpt>
   <trkpt lat="31.7500000" lon="35.1291610">
    <ele>723.4</ele>
    <time>2018-09-22T07:08:53Z</time>
   </trkpt>
   <trkpt lat="31.7500200" lon="35.1291050">
    <ele>723.4</ele>
    <time>2018-09-22T07:08:54Z</time>
   </trkpt>
   <trkpt lat="31.7500370" lon="35.1290470">
    <ele>723.5</ele>
    <time>2018-09-22T07:08:55Z</time>
   </trkpt>
   <trkpt lat="31.7500560" lon="35.1289890">
    <ele>723.5</ele>
    <time>2018-09-22T07:08:56Z</time>
   </trkpt>
   <trkpt lat="31.7500780" lon="35.1289280">
    <ele>723.7</ele>
    <time>2018-09-22T07:08:57Z</time>
   </trkpt>
   <trkpt lat="31.7501010" lon="35.1288780">
    <ele>723.8</ele>
    <time>2018-09-22T07:08:58Z</time>
   </trkpt>
   <trkpt lat="31.7501270" lon="35.1288290">
    <ele>723.9</ele>
    <time>2018-09-22T07:08:59Z</time>
   </trkpt>
   <trkpt lat="31.7501520" lon="35.1287840">
    <ele>724.0</ele>
    <time>2018-09-22T07:09:00Z</time>
   </trkpt>
   <trkpt lat="31.7501790" lon="35.1287340">
    <ele>724.1</ele>
    <time>2018-09-22T07:09:01Z</time>
   </trkpt>
   <trkpt lat="31.7502010" lon="35.1286880">
    <ele>724.2</ele>
    <time>2018-09-22T07:09:02Z</time>
   </trkpt>
   <trkpt lat="31.7502250" lon="35.1286480">
    <ele>724.3</ele>
    <time>2018-09-22T07:09:03Z</time>
   </trkpt>
   <trkpt lat="31.7502440" lon="35.1286140">
    <ele>724.3</ele>
    <time>2018-09-22T07:09:04Z</time>
   </trkpt>
   <trkpt lat="31.7502660" lon="35.1285740">
    <ele>724.4</ele>
    <time>2018-09-22T07:09:05Z</time>
   </trkpt>
   <trkpt lat="31.7502850" lon="35.1285340">
    <ele>724.5</ele>
    <time>2018-09-22T07:09:06Z</time>
   </trkpt>
   <trkpt lat="31.7503050" lon="35.1284930">
    <ele>724.5</ele>
    <time>2018-09-22T07:09:07Z</time>
   </trkpt>
   <trkpt lat="31.7503170" lon="35.1284530">
    <ele>724.6</ele>
    <time>2018-09-22T07:09:08Z</time>
   </trkpt>
   <trkpt lat="31.7503400" lon="35.1284090">
    <ele>724.6</ele>
    <time>2018-09-22T07:09:09Z</time>
   </trkpt>
   <trkpt lat="31.7503570" lon="35.1283650">
    <ele>724.7</ele>
    <time>2018-09-22T07:09:10Z</time>
   </trkpt>
   <trkpt lat="31.7503770" lon="35.1283110">
    <ele>724.8</ele>
    <time>2018-09-22T07:09:11Z</time>
   </trkpt>
   <trkpt lat="31.7503980" lon="35.1282580">
    <ele>724.9</ele>
    <time>2018-09-22T07:09:12Z</time>
   </trkpt>
   <trkpt lat="31.7504230" lon="35.1282020">
    <ele>725.0</ele>
    <time>2018-09-22T07:09:13Z</time>
   </trkpt>
   <trkpt lat="31.7504430" lon="35.1281490">
    <ele>725.1</ele>
    <time>2018-09-22T07:09:14Z</time>
   </trkpt>
   <trkpt lat="31.7504600" lon="35.1281010">
    <ele>725.2</ele>
    <time>2018-09-22T07:09:15Z</time>
   </trkpt>
   <trkpt lat="31.7504820" lon="35.1280500">
    <ele>725.3</ele>
    <time>2018-09-22T07:09:16Z</time>
   </trkpt>
   <trkpt lat="31.7505020" lon="35.1279980">
    <ele>725.5</ele>
    <time>2018-09-22T07:09:17Z</time>
   </trkpt>
   <trkpt lat="31.7505170" lon="35.1279460">
    <ele>725.6</ele>
    <time>2018-09-22T07:09:18Z</time>
   </trkpt>
   <trkpt lat="31.7505300" lon="35.1279070">
    <ele>725.7</ele>
    <time>2018-09-22T07:09:19Z</time>
   </trkpt>
   <trkpt lat="31.7505500" lon="35.1278580">
    <ele>725.9</ele>
    <time>2018-09-22T07:09:20Z</time>
   </trkpt>
   <trkpt lat="31.7505770" lon="35.1278120">
    <ele>726.2</ele>
    <time>2018-09-22T07:09:21Z</time>
   </trkpt>
   <trkpt lat="31.7506130" lon="35.1277700">
    <ele>726.9</ele>
    <time>2018-09-22T07:09:22Z</time>
   </trkpt>
   <trkpt lat="31.7506550" lon="35.1277410">
    <ele>728.5</ele>
    <time>2018-09-22T07:09:23Z</time>
   </trkpt>
   <trkpt lat="31.7506950" lon="35.1277110">
    <ele>729.6</ele>
    <time>2018-09-22T07:09:24Z</time>
   </trkpt>
   <trkpt lat="31.7507240" lon="35.1276870">
    <ele>730.4</ele>
    <time>2018-09-22T07:09:25Z</time>
   </trkpt>
   <trkpt lat="31.7507440" lon="35.1276560">
    <ele>731.0</ele>
    <time>2018-09-22T07:09:26Z</time>
   </trkpt>
   <trkpt lat="31.7507690" lon="35.1276210">
    <ele>736.0</ele>
    <time>2018-09-22T07:09:27Z</time>
   </trkpt>
   <trkpt lat="31.7507960" lon="35.1275970">
    <ele>736.0</ele>
    <time>2018-09-22T07:09:28Z</time>
   </trkpt>
   <trkpt lat="31.7508310" lon="35.1275780">
    <ele>736.3</ele>
    <time>2018-09-22T07:09:30Z</time>
   </trkpt>
   <trkpt lat="31.7508730" lon="35.1275680">
    <ele>736.7</ele>
    <time>2018-09-22T07:09:32Z</time>
   </trkpt>
   <trkpt lat="31.7509200" lon="35.1275660">
    <ele>737.2</ele>
    <time>2018-09-22T07:09:34Z</time>
   </trkpt>
   <trkpt lat="31.7509670" lon="35.1275520">
    <ele>737.7</ele>
    <time>2018-09-22T07:09:36Z</time>
   </trkpt>
   <trkpt lat="31.7510120" lon="35.1275270">
    <ele>738.2</ele>
    <time>2018-09-22T07:09:38Z</time>
   </trkpt>
   <trkpt lat="31.7510530" lon="35.1275020">
    <ele>738.6</ele>
    <time>2018-09-22T07:09:40Z</time>
   </trkpt>
   <trkpt lat="31.7510800" lon="35.1274710">
    <ele>739.0</ele>
    <time>2018-09-22T07:09:42Z</time>
   </trkpt>
   <trkpt lat="31.7510830" lon="35.1274310">
    <ele>739.3</ele>
    <time>2018-09-22T07:20:24Z</time>
   </trkpt>
   <trkpt lat="31.7511060" lon="35.1273850">
    <ele>739.6</ele>
    <time>2018-09-22T07:20:26Z</time>
   </trkpt>
   <trkpt lat="31.7511030" lon="35.1273380">
    <ele>739.9</ele>
    <time>2018-09-22T07:20:28Z</time>
   </trkpt>
   <trkpt lat="31.7511150" lon="35.1272770">
    <ele>740.7</ele>
    <time>2018-09-22T07:20:30Z</time>
   </trkpt>
   <trkpt lat="31.7511370" lon="35.1272080">
    <ele>741.4</ele>
    <time>2018-09-22T07:20:32Z</time>
   </trkpt>
   <trkpt lat="31.7511410" lon="35.1271420">
    <ele>741.8</ele>
    <time>2018-09-22T07:20:34Z</time>
   </trkpt>
   <trkpt lat="31.7511730" lon="35.1271010">
    <ele>742.2</ele>
    <time>2018-09-22T07:20:36Z</time>
   </trkpt>
   <trkpt lat="31.7511830" lon="35.1270690">
    <ele>742.4</ele>
    <time>2018-09-22T07:20:38Z</time>
   </trkpt>
   <trkpt lat="31.7511900" lon="35.1270270">
    <ele>742.6</ele>
    <time>2018-09-22T07:20:40Z</time>
   </trkpt>
   <trkpt lat="31.7512010" lon="35.1269960">
    <ele>742.8</ele>
    <time>2018-09-22T07:20:41Z</time>
   </trkpt>
   <trkpt lat="31.7512210" lon="35.1269440">
    <ele>743.1</ele>
    <time>2018-09-22T07:20:43Z</time>
   </trkpt>
   <trkpt lat="31.7512310" lon="35.1269040">
    <ele>743.3</ele>
    <time>2018-09-22T07:20:45Z</time>
   </trkpt>
   <trkpt lat="31.7512520" lon="35.1268620">
    <ele>743.6</ele>
    <time>2018-09-22T07:20:47Z</time>
   </trkpt>
   <trkpt lat="31.7512710" lon="35.1268290">
    <ele>743.8</ele>
    <time>2018-09-22T07:20:49Z</time>
   </trkpt>
   <trkpt lat="31.7512810" lon="35.1267920">
    <ele>744.1</ele>
    <time>2018-09-22T07:20:51Z</time>
   </trkpt>
   <trkpt lat="31.7513010" lon="35.1267680">
    <ele>744.3</ele>
    <time>2018-09-22T07:20:52Z</time>
   </trkpt>
   <trkpt lat="31.7513100" lon="35.1267240">
    <ele>744.6</ele>
    <time>2018-09-22T07:20:54Z</time>
   </trkpt>
   <trkpt lat="31.7513170" lon="35.1266710">
    <ele>745.3</ele>
    <time>2018-09-22T07:20:56Z</time>
   </trkpt>
   <trkpt lat="31.7513160" lon="35.1266400">
    <ele>745.6</ele>
    <time>2018-09-22T07:20:57Z</time>
   </trkpt>
   <trkpt lat="31.7512990" lon="35.1265870">
    <ele>746.1</ele>
    <time>2018-09-22T07:20:59Z</time>
   </trkpt>
   <trkpt lat="31.7512810" lon="35.1265460">
    <ele>746.5</ele>
    <time>2018-09-22T07:21:01Z</time>
   </trkpt>
   <trkpt lat="31.7512770" lon="35.1265090">
    <ele>746.9</ele>
    <time>2018-09-22T07:21:03Z</time>
   </trkpt>
   <trkpt lat="31.7512850" lon="35.1264610">
    <ele>748.1</ele>
    <time>2018-09-22T07:21:06Z</time>
   </trkpt>
   <trkpt lat="31.7512970" lon="35.1264220">
    <ele>749.5</ele>
    <time>2018-09-22T07:21:08Z</time>
   </trkpt>
   <trkpt lat="31.7513120" lon="35.1263810">
    <ele>751.2</ele>
    <time>2018-09-22T07:21:10Z</time>
   </trkpt>
   <trkpt lat="31.7513210" lon="35.1263320">
    <ele>752.1</ele>
    <time>2018-09-22T07:21:12Z</time>
   </trkpt>
   <trkpt lat="31.7513290" lon="35.1262770">
    <ele>752.2</ele>
    <time>2018-09-22T07:21:14Z</time>
   </trkpt>
   <trkpt lat="31.7513570" lon="35.1262370">
    <ele>752.1</ele>
    <time>2018-09-22T07:21:16Z</time>
   </trkpt>
   <trkpt lat="31.7513680" lon="35.1262060">
    <ele>752.1</ele>
    <time>2018-09-22T07:21:17Z</time>
   </trkpt>
   <trkpt lat="31.7513800" lon="35.1261550">
    <ele>752.1</ele>
    <time>2018-09-22T07:21:19Z</time>
   </trkpt>
   <trkpt lat="31.7513790" lon="35.1261070">
    <ele>752.0</ele>
    <time>2018-09-22T07:21:21Z</time>
   </trkpt>
   <trkpt lat="31.7513880" lon="35.1260730">
    <ele>752.0</ele>
    <time>2018-09-22T07:21:22Z</time>
   </trkpt>
   <trkpt lat="31.7514030" lon="35.1260200">
    <ele>751.9</ele>
    <time>2018-09-22T07:21:24Z</time>
   </trkpt>
   <trkpt lat="31.7514110" lon="35.1259860">
    <ele>751.8</ele>
    <time>2018-09-22T07:21:25Z</time>
   </trkpt>
   <trkpt lat="31.7514180" lon="35.1259490">
    <ele>751.7</ele>
    <time>2018-09-22T07:21:26Z</time>
   </trkpt>
   <trkpt lat="31.7514280" lon="35.1259170">
    <ele>751.7</ele>
    <time>2018-09-22T07:21:27Z</time>
   </trkpt>
   <trkpt lat="31.7514320" lon="35.1258850">
    <ele>751.6</ele>
    <time>2018-09-22T07:21:28Z</time>
   </trkpt>
   <trkpt lat="31.7514410" lon="35.1258490">
    <ele>751.6</ele>
    <time>2018-09-22T07:21:29Z</time>
   </trkpt>
   <trkpt lat="31.7514580" lon="35.1258100">
    <ele>751.5</ele>
    <time>2018-09-22T07:21:30Z</time>
   </trkpt>
   <trkpt lat="31.7514700" lon="35.1257790">
    <ele>751.5</ele>
    <time>2018-09-22T07:21:31Z</time>
   </trkpt>
   <trkpt lat="31.7514840" lon="35.1257500">
    <ele>751.4</ele>
    <time>2018-09-22T07:21:32Z</time>
   </trkpt>
   <trkpt lat="31.7515040" lon="35.1256860">
    <ele>751.3</ele>
    <time>2018-09-22T07:21:34Z</time>
   </trkpt>
   <trkpt lat="31.7515200" lon="35.1256560">
    <ele>751.2</ele>
    <time>2018-09-22T07:21:35Z</time>
   </trkpt>
   <trkpt lat="31.7515340" lon="35.1256260">
    <ele>751.2</ele>
    <time>2018-09-22T07:21:36Z</time>
   </trkpt>
   <trkpt lat="31.7515440" lon="35.1255930">
    <ele>751.2</ele>
    <time>2018-09-22T07:21:37Z</time>
   </trkpt>
   <trkpt lat="31.7515590" lon="35.1255570">
    <ele>751.1</ele>
    <time>2018-09-22T07:21:38Z</time>
   </trkpt>
   <trkpt lat="31.7515760" lon="35.1255300">
    <ele>751.1</ele>
    <time>2018-09-22T07:21:39Z</time>
   </trkpt>
   <trkpt lat="31.7516070" lon="35.1254880">
    <ele>751.1</ele>
    <time>2018-09-22T07:21:40Z</time>
   </trkpt>
   <trkpt lat="31.7516440" lon="35.1254620">
    <ele>751.1</ele>
    <time>2018-09-22T07:21:41Z</time>
   </trkpt>
   <trkpt lat="31.7516590" lon="35.1254210">
    <ele>751.0</ele>
    <time>2018-09-22T07:21:42Z</time>
   </trkpt>
   <trkpt lat="31.7516650" lon="35.1253770">
    <ele>751.0</ele>
    <time>2018-09-22T07:21:43Z</time>
   </trkpt>
   <trkpt lat="31.7516730" lon="35.1253380">
    <ele>751.0</ele>
    <time>2018-09-22T07:21:44Z</time>
   </trkpt>
   <trkpt lat="31.7516690" lon="35.1253010">
    <ele>751.0</ele>
    <time>2018-09-22T07:21:45Z</time>
   </trkpt>
   <trkpt lat="31.7516800" lon="35.1252580">
    <ele>751.0</ele>
    <time>2018-09-22T07:21:46Z</time>
   </trkpt>
   <trkpt lat="31.7516850" lon="35.1252210">
    <ele>751.0</ele>
    <time>2018-09-22T07:21:47Z</time>
   </trkpt>
   <trkpt lat="31.7516960" lon="35.1251850">
    <ele>751.0</ele>
    <time>2018-09-22T07:21:48Z</time>
   </trkpt>
   <trkpt lat="31.7517110" lon="35.1251530">
    <ele>751.0</ele>
    <time>2018-09-22T07:21:49Z</time>
   </trkpt>
   <trkpt lat="31.7517280" lon="35.1251250">
    <ele>751.1</ele>
    <time>2018-09-22T07:21:50Z</time>
   </trkpt>
   <trkpt lat="31.7517380" lon="35.1250920">
    <ele>751.1</ele>
    <time>2018-09-22T07:21:51Z</time>
   </trkpt>
   <trkpt lat="31.7517490" lon="35.1250590">
    <ele>751.2</ele>
    <time>2018-09-22T07:21:52Z</time>
   </trkpt>
   <trkpt lat="31.7517540" lon="35.1249970">
    <ele>751.2</ele>
    <time>2018-09-22T07:21:54Z</time>
   </trkpt>
   <trkpt lat="31.7517660" lon="35.1249560">
    <ele>751.2</ele>
    <time>2018-09-22T07:21:55Z</time>
   </trkpt>
   <trkpt lat="31.7517770" lon="35.1249200">
    <ele>751.2</ele>
    <time>2018-09-22T07:21:56Z</time>
   </trkpt>
   <trkpt lat="31.7518000" lon="35.1248680">
    <ele>751.2</ele>
    <time>2018-09-22T07:21:57Z</time>
   </trkpt>
   <trkpt lat="31.7518320" lon="35.1248340">
    <ele>751.1</ele>
    <time>2018-09-22T07:21:58Z</time>
   </trkpt>
   <trkpt lat="31.7518640" lon="35.1247890">
    <ele>751.1</ele>
    <time>2018-09-22T07:21:59Z</time>
   </trkpt>
   <trkpt lat="31.7518780" lon="35.1247530">
    <ele>751.0</ele>
    <time>2018-09-22T07:22:00Z</time>
   </trkpt>
   <trkpt lat="31.7518820" lon="35.1247060">
    <ele>751.0</ele>
    <time>2018-09-22T07:22:01Z</time>
   </trkpt>
   <trkpt lat="31.7518950" lon="35.1246590">
    <ele>750.9</ele>
    <time>2018-09-22T07:22:02Z</time>
   </trkpt>
   <trkpt lat="31.7519110" lon="35.1246160">
    <ele>750.9</ele>
    <time>2018-09-22T07:22:03Z</time>
   </trkpt>
   <trkpt lat="31.7519240" lon="35.1245700">
    <ele>750.8</ele>
    <time>2018-09-22T07:22:04Z</time>
   </trkpt>
   <trkpt lat="31.7519320" lon="35.1245240">
    <ele>750.7</ele>
    <time>2018-09-22T07:22:05Z</time>
   </trkpt>
   <trkpt lat="31.7519330" lon="35.1244750">
    <ele>750.7</ele>
    <time>2018-09-22T07:22:06Z</time>
   </trkpt>
   <trkpt lat="31.7519320" lon="35.1244330">
    <ele>750.6</ele>
    <time>2018-09-22T07:22:07Z</time>
   </trkpt>
   <trkpt lat="31.7519320" lon="35.1243850">
    <ele>750.6</ele>
    <time>2018-09-22T07:22:08Z</time>
   </trkpt>
   <trkpt lat="31.7519250" lon="35.1243460">
    <ele>750.5</ele>
    <time>2018-09-22T07:22:09Z</time>
   </trkpt>
   <trkpt lat="31.7519290" lon="35.1243030">
    <ele>750.5</ele>
    <time>2018-09-22T07:22:10Z</time>
   </trkpt>
   <trkpt lat="31.7519340" lon="35.1242580">
    <ele>750.4</ele>
    <time>2018-09-22T07:22:11Z</time>
   </trkpt>
   <trkpt lat="31.7519400" lon="35.1242190">
    <ele>750.4</ele>
    <time>2018-09-22T07:22:12Z</time>
   </trkpt>
   <trkpt lat="31.7519460" lon="35.1241760">
    <ele>750.3</ele>
    <time>2018-09-22T07:22:13Z</time>
   </trkpt>
   <trkpt lat="31.7519580" lon="35.1241390">
    <ele>750.3</ele>
    <time>2018-09-22T07:22:14Z</time>
   </trkpt>
   <trkpt lat="31.7519710" lon="35.1240960">
    <ele>750.2</ele>
    <time>2018-09-22T07:22:15Z</time>
   </trkpt>
   <trkpt lat="31.7519890" lon="35.1240530">
    <ele>750.1</ele>
    <time>2018-09-22T07:22:16Z</time>
   </trkpt>
   <trkpt lat="31.7520010" lon="35.1240090">
    <ele>750.1</ele>
    <time>2018-09-22T07:22:17Z</time>
   </trkpt>
   <trkpt lat="31.7520150" lon="35.1239730">
    <ele>750.1</ele>
    <time>2018-09-22T07:22:18Z</time>
   </trkpt>
   <trkpt lat="31.7520300" lon="35.1239420">
    <ele>750.0</ele>
    <time>2018-09-22T07:22:19Z</time>
   </trkpt>
   <trkpt lat="31.7520510" lon="35.1239060">
    <ele>750.0</ele>
    <time>2018-09-22T07:22:20Z</time>
   </trkpt>
   <trkpt lat="31.7520630" lon="35.1238730">
    <ele>750.0</ele>
    <time>2018-09-22T07:22:21Z</time>
   </trkpt>
   <trkpt lat="31.7520770" lon="35.1238370">
    <ele>749.9</ele>
    <time>2018-09-22T07:22:22Z</time>
   </trkpt>
   <trkpt lat="31.7520960" lon="35.1238060">
    <ele>749.9</ele>
    <time>2018-09-22T07:22:23Z</time>
   </trkpt>
   <trkpt lat="31.7521190" lon="35.1237720">
    <ele>749.8</ele>
    <time>2018-09-22T07:22:24Z</time>
   </trkpt>
   <trkpt lat="31.7521760" lon="35.1237280">
    <ele>749.8</ele>
    <time>2018-09-22T07:22:25Z</time>
   </trkpt>
   <trkpt lat="31.7521970" lon="35.1236810">
    <ele>749.7</ele>
    <time>2018-09-22T07:22:26Z</time>
   </trkpt>
   <trkpt lat="31.7522180" lon="35.1236450">
    <ele>749.7</ele>
    <time>2018-09-22T07:22:27Z</time>
   </trkpt>
   <trkpt lat="31.7522450" lon="35.1236000">
    <ele>749.6</ele>
    <time>2018-09-22T07:22:28Z</time>
   </trkpt>
   <trkpt lat="31.7522760" lon="35.1235690">
    <ele>749.5</ele>
    <time>2018-09-22T07:22:29Z</time>
   </trkpt>
   <trkpt lat="31.7523070" lon="35.1235320">
    <ele>749.5</ele>
    <time>2018-09-22T07:22:30Z</time>
   </trkpt>
   <trkpt lat="31.7523390" lon="35.1234770">
    <ele>749.4</ele>
    <time>2018-09-22T07:22:31Z</time>
   </trkpt>
   <trkpt lat="31.7523700" lon="35.1234260">
    <ele>749.3</ele>
    <time>2018-09-22T07:22:32Z</time>
   </trkpt>
   <trkpt lat="31.7523880" lon="35.1233750">
    <ele>749.2</ele>
    <time>2018-09-22T07:22:33Z</time>
   </trkpt>
   <trkpt lat="31.7524060" lon="35.1233200">
    <ele>749.1</ele>
    <time>2018-09-22T07:22:34Z</time>
   </trkpt>
   <trkpt lat="31.7524080" lon="35.1232540">
    <ele>749.0</ele>
    <time>2018-09-22T07:22:35Z</time>
   </trkpt>
   <trkpt lat="31.7524040" lon="35.1231990">
    <ele>748.9</ele>
    <time>2018-09-22T07:22:36Z</time>
   </trkpt>
   <trkpt lat="31.7524000" lon="35.1231470">
    <ele>748.9</ele>
    <time>2018-09-22T07:22:37Z</time>
   </trkpt>
   <trkpt lat="31.7523940" lon="35.1230950">
    <ele>748.8</ele>
    <time>2018-09-22T07:22:38Z</time>
   </trkpt>
   <trkpt lat="31.7523940" lon="35.1230370">
    <ele>748.6</ele>
    <time>2018-09-22T07:22:39Z</time>
   </trkpt>
   <trkpt lat="31.7523960" lon="35.1229820">
    <ele>748.6</ele>
    <time>2018-09-22T07:22:40Z</time>
   </trkpt>
   <trkpt lat="31.7523960" lon="35.1229190">
    <ele>748.5</ele>
    <time>2018-09-22T07:22:41Z</time>
   </trkpt>
   <trkpt lat="31.7523900" lon="35.1228500">
    <ele>748.4</ele>
    <time>2018-09-22T07:22:42Z</time>
   </trkpt>
   <trkpt lat="31.7523790" lon="35.1227930">
    <ele>748.3</ele>
    <time>2018-09-22T07:22:43Z</time>
   </trkpt>
   <trkpt lat="31.7523600" lon="35.1227440">
    <ele>748.2</ele>
    <time>2018-09-22T07:22:44Z</time>
   </trkpt>
   <trkpt lat="31.7523330" lon="35.1227020">
    <ele>748.0</ele>
    <time>2018-09-22T07:22:45Z</time>
   </trkpt>
   <trkpt lat="31.7522920" lon="35.1226910">
    <ele>747.9</ele>
    <time>2018-09-22T07:22:46Z</time>
   </trkpt>
   <trkpt lat="31.7522490" lon="35.1226640">
    <ele>747.8</ele>
    <time>2018-09-22T07:22:47Z</time>
   </trkpt>
   <trkpt lat="31.7522100" lon="35.1226290">
    <ele>747.6</ele>
    <time>2018-09-22T07:22:48Z</time>
   </trkpt>
   <trkpt lat="31.7521800" lon="35.1225890">
    <ele>747.3</ele>
    <time>2018-09-22T07:22:49Z</time>
   </trkpt>
   <trkpt lat="31.7521570" lon="35.1225510">
    <ele>747.0</ele>
    <time>2018-09-22T07:22:50Z</time>
   </trkpt>
   <trkpt lat="31.7521390" lon="35.1225110">
    <ele>746.7</ele>
    <time>2018-09-22T07:22:51Z</time>
   </trkpt>
   <trkpt lat="31.7521210" lon="35.1224730">
    <ele>746.4</ele>
    <time>2018-09-22T07:22:52Z</time>
   </trkpt>
   <trkpt lat="31.7521000" lon="35.1224410">
    <ele>746.2</ele>
    <time>2018-09-22T07:22:53Z</time>
   </trkpt>
   <trkpt lat="31.7520570" lon="35.1224040">
    <ele>745.8</ele>
    <time>2018-09-22T07:22:54Z</time>
   </trkpt>
   <trkpt lat="31.7520330" lon="35.1223800">
    <ele>745.7</ele>
    <time>2018-09-22T07:22:56Z</time>
   </trkpt>
   <trkpt lat="31.7520100" lon="35.1223580">
    <ele>745.6</ele>
    <time>2018-09-22T07:22:57Z</time>
   </trkpt>
   <trkpt lat="31.7519720" lon="35.1223430">
    <ele>745.5</ele>
    <time>2018-09-22T07:22:58Z</time>
   </trkpt>
   <trkpt lat="31.7519280" lon="35.1223130">
    <ele>745.4</ele>
    <time>2018-09-22T07:23:00Z</time>
   </trkpt>
   <trkpt lat="31.7519020" lon="35.1222980">
    <ele>745.4</ele>
    <time>2018-09-22T07:23:01Z</time>
   </trkpt>
   <trkpt lat="31.7518500" lon="35.1222500">
    <ele>745.4</ele>
    <time>2018-09-22T07:23:03Z</time>
   </trkpt>
   <trkpt lat="31.7518180" lon="35.1222260">
    <ele>745.4</ele>
    <time>2018-09-22T07:23:04Z</time>
   </trkpt>
   <trkpt lat="31.7517820" lon="35.1221990">
    <ele>745.4</ele>
    <time>2018-09-22T07:23:05Z</time>
   </trkpt>
   <trkpt lat="31.7517270" lon="35.1221780">
    <ele>745.5</ele>
    <time>2018-09-22T07:23:06Z</time>
   </trkpt>
   <trkpt lat="31.7516830" lon="35.1221570">
    <ele>745.6</ele>
    <time>2018-09-22T07:23:07Z</time>
   </trkpt>
   <trkpt lat="31.7516420" lon="35.1221550">
    <ele>745.6</ele>
    <time>2018-09-22T07:23:08Z</time>
   </trkpt>
   <trkpt lat="31.7516030" lon="35.1221510">
    <ele>745.6</ele>
    <time>2018-09-22T07:23:09Z</time>
   </trkpt>
   <trkpt lat="31.7515650" lon="35.1221490">
    <ele>745.5</ele>
    <time>2018-09-22T07:23:10Z</time>
   </trkpt>
   <trkpt lat="31.7515330" lon="35.1221410">
    <ele>745.5</ele>
    <time>2018-09-22T07:23:11Z</time>
   </trkpt>
   <trkpt lat="31.7514990" lon="35.1221390">
    <ele>745.5</ele>
    <time>2018-09-22T07:23:12Z</time>
   </trkpt>
   <trkpt lat="31.7514630" lon="35.1221370">
    <ele>745.5</ele>
    <time>2018-09-22T07:23:13Z</time>
   </trkpt>
   <trkpt lat="31.7514280" lon="35.1221380">
    <ele>745.5</ele>
    <time>2018-09-22T07:23:14Z</time>
   </trkpt>
   <trkpt lat="31.7513920" lon="35.1221330">
    <ele>745.4</ele>
    <time>2018-09-22T07:23:15Z</time>
   </trkpt>
   <trkpt lat="31.7513640" lon="35.1221300">
    <ele>745.4</ele>
    <time>2018-09-22T07:23:16Z</time>
   </trkpt>
   <trkpt lat="31.7513290" lon="35.1221270">
    <ele>745.4</ele>
    <time>2018-09-22T07:23:17Z</time>
   </trkpt>
   <trkpt lat="31.7512920" lon="35.1221230">
    <ele>745.3</ele>
    <time>2018-09-22T07:23:18Z</time>
   </trkpt>
   <trkpt lat="31.7512420" lon="35.1221160">
    <ele>745.3</ele>
    <time>2018-09-22T07:23:19Z</time>
   </trkpt>
   <trkpt lat="31.7512100" lon="35.1221050">
    <ele>745.3</ele>
    <time>2018-09-22T07:23:20Z</time>
   </trkpt>
   <trkpt lat="31.7511750" lon="35.1220860">
    <ele>745.2</ele>
    <time>2018-09-22T07:23:21Z</time>
   </trkpt>
   <trkpt lat="31.7511380" lon="35.1220810">
    <ele>745.2</ele>
    <time>2018-09-22T07:23:22Z</time>
   </trkpt>
   <trkpt lat="31.7511000" lon="35.1220780">
    <ele>745.2</ele>
    <time>2018-09-22T07:23:23Z</time>
   </trkpt>
   <trkpt lat="31.7510650" lon="35.1220680">
    <ele>745.2</ele>
    <time>2018-09-22T07:23:24Z</time>
   </trkpt>
   <trkpt lat="31.7510390" lon="35.1220590">
    <ele>745.2</ele>
    <time>2018-09-22T07:23:25Z</time>
   </trkpt>
   <trkpt lat="31.7510060" lon="35.1220470">
    <ele>745.2</ele>
    <time>2018-09-22T07:23:26Z</time>
   </trkpt>
   <trkpt lat="31.7509690" lon="35.1220380">
    <ele>745.2</ele>
    <time>2018-09-22T07:23:27Z</time>
   </trkpt>
   <trkpt lat="31.7509260" lon="35.1220250">
    <ele>745.3</ele>
    <time>2018-09-22T07:23:28Z</time>
   </trkpt>
   <trkpt lat="31.7508830" lon="35.1220190">
    <ele>745.3</ele>
    <time>2018-09-22T07:23:30Z</time>
   </trkpt>
   <trkpt lat="31.7508390" lon="35.1219760">
    <ele>745.3</ele>
    <time>2018-09-22T07:23:31Z</time>
   </trkpt>
   <trkpt lat="31.7508430" lon="35.1219210">
    <ele>745.5</ele>
    <time>2018-09-22T07:23:33Z</time>
   </trkpt>
   <trkpt lat="31.7508970" lon="35.1219220">
    <ele>745.8</ele>
    <time>2018-09-22T07:23:35Z</time>
   </trkpt>
   <trkpt lat="31.7509340" lon="35.1219200">
    <ele>746.0</ele>
    <time>2018-09-22T07:23:37Z</time>
   </trkpt>
   <trkpt lat="31.7509610" lon="35.1219290">
    <ele>745.4</ele>
    <time>2018-09-22T07:23:38Z</time>
   </trkpt>
   <trkpt lat="31.7510080" lon="35.1219200">
    <ele>744.1</ele>
    <time>2018-09-22T07:23:40Z</time>
   </trkpt>
   <trkpt lat="31.7510460" lon="35.1219160">
    <ele>743.5</ele>
    <time>2018-09-22T07:23:42Z</time>
   </trkpt>
   <trkpt lat="31.7510730" lon="35.1219030">
    <ele>743.0</ele>
    <time>2018-09-22T07:23:44Z</time>
   </trkpt>
   <trkpt lat="31.7511090" lon="35.1218860">
    <ele>742.4</ele>
    <time>2018-09-22T07:23:46Z</time>
   </trkpt>
   <trkpt lat="31.7511350" lon="35.1218710">
    <ele>742.0</ele>
    <time>2018-09-22T07:23:49Z</time>
   </trkpt>
   <trkpt lat="31.7511670" lon="35.1218430">
    <ele>741.3</ele>
    <time>2018-09-22T07:24:03Z</time>
   </trkpt>
   <trkpt lat="31.7512330" lon="35.1217990">
    <ele>739.8</ele>
    <time>2018-09-22T07:24:05Z</time>
   </trkpt>
   <trkpt lat="31.7512910" lon="35.1217690">
    <ele>738.1</ele>
    <time>2018-09-22T07:24:06Z</time>
   </trkpt>
   <trkpt lat="31.7513640" lon="35.1217270">
    <ele>735.7</ele>
    <time>2018-09-22T07:24:07Z</time>
   </trkpt>
   <trkpt lat="31.7514250" lon="35.1217010">
    <ele>733.7</ele>
    <time>2018-09-22T07:24:08Z</time>
   </trkpt>
   <trkpt lat="31.7514840" lon="35.1216880">
    <ele>731.6</ele>
    <time>2018-09-22T07:24:09Z</time>
   </trkpt>
   <trkpt lat="31.7515480" lon="35.1216590">
    <ele>729.1</ele>
    <time>2018-09-22T07:24:10Z</time>
   </trkpt>
   <trkpt lat="31.7516130" lon="35.1216200">
    <ele>726.3</ele>
    <time>2018-09-22T07:24:11Z</time>
   </trkpt>
   <trkpt lat="31.7516640" lon="35.1216020">
    <ele>724.0</ele>
    <time>2018-09-22T07:24:12Z</time>
   </trkpt>
   <trkpt lat="31.7517110" lon="35.1215890">
    <ele>721.5</ele>
    <time>2018-09-22T07:24:13Z</time>
   </trkpt>
   <trkpt lat="31.7517350" lon="35.1215590">
    <ele>719.4</ele>
    <time>2018-09-22T07:24:14Z</time>
   </trkpt>
   <trkpt lat="31.7517580" lon="35.1215300">
    <ele>717.2</ele>
    <time>2018-09-22T07:24:15Z</time>
   </trkpt>
   <trkpt lat="31.7517690" lon="35.1214880">
    <ele>717.0</ele>
    <time>2018-09-22T07:24:16Z</time>
   </trkpt>
   <trkpt lat="31.7517110" lon="35.1214180">
    <ele>718.3</ele>
    <time>2018-09-22T07:24:18Z</time>
   </trkpt>
   <trkpt lat="31.7516320" lon="35.1213990">
    <ele>719.9</ele>
    <time>2018-09-22T07:24:19Z</time>
   </trkpt>
   <trkpt lat="31.7515830" lon="35.1213800">
    <ele>720.3</ele>
    <time>2018-09-22T07:24:20Z</time>
   </trkpt>
   <trkpt lat="31.7515270" lon="35.1213580">
    <ele>720.8</ele>
    <time>2018-09-22T07:24:21Z</time>
   </trkpt>
   <trkpt lat="31.7514740" lon="35.1213290">
    <ele>721.3</ele>
    <time>2018-09-22T07:24:22Z</time>
   </trkpt>
   <trkpt lat="31.7514180" lon="35.1212970">
    <ele>721.8</ele>
    <time>2018-09-22T07:24:23Z</time>
   </trkpt>
   <trkpt lat="31.7513670" lon="35.1212660">
    <ele>722.2</ele>
    <time>2018-09-22T07:24:24Z</time>
   </trkpt>
   <trkpt lat="31.7513240" lon="35.1212410">
    <ele>722.6</ele>
    <time>2018-09-22T07:24:25Z</time>
   </trkpt>
   <trkpt lat="31.7512720" lon="35.1212050">
    <ele>723.3</ele>
    <time>2018-09-22T07:24:26Z</time>
   </trkpt>
   <trkpt lat="31.7512140" lon="35.1211880">
    <ele>724.0</ele>
    <time>2018-09-22T07:24:27Z</time>
   </trkpt>
   <trkpt lat="31.7511470" lon="35.1211490">
    <ele>724.8</ele>
    <time>2018-09-22T07:24:28Z</time>
   </trkpt>
   <trkpt lat="31.7510910" lon="35.1211150">
    <ele>726.1</ele>
    <time>2018-09-22T07:24:29Z</time>
   </trkpt>
   <trkpt lat="31.7510400" lon="35.1210840">
    <ele>728.0</ele>
    <time>2018-09-22T07:24:30Z</time>
   </trkpt>
   <trkpt lat="31.7509870" lon="35.1210420">
    <ele>729.3</ele>
    <time>2018-09-22T07:24:31Z</time>
   </trkpt>
   <trkpt lat="31.7509290" lon="35.1209890">
    <ele>730.5</ele>
    <time>2018-09-22T07:24:32Z</time>
   </trkpt>
   <trkpt lat="31.7508730" lon="35.1209490">
    <ele>731.3</ele>
    <time>2018-09-22T07:24:33Z</time>
   </trkpt>
   <trkpt lat="31.7508330" lon="35.1209050">
    <ele>732.0</ele>
    <time>2018-09-22T07:24:34Z</time>
   </trkpt>
   <trkpt lat="31.7507890" lon="35.1208560">
    <ele>732.7</ele>
    <time>2018-09-22T07:24:35Z</time>
   </trkpt>
   <trkpt lat="31.7507230" lon="35.1207940">
    <ele>734.2</ele>
    <time>2018-09-22T07:24:36Z</time>
   </trkpt>
   <trkpt lat="31.7506590" lon="35.1207390">
    <ele>734.9</ele>
    <time>2018-09-22T07:24:37Z</time>
   </trkpt>
   <trkpt lat="31.7505950" lon="35.1206850">
    <ele>735.6</ele>
    <time>2018-09-22T07:24:38Z</time>
   </trkpt>
   <trkpt lat="31.7505310" lon="35.1206480">
    <ele>736.2</ele>
    <time>2018-09-22T07:24:39Z</time>
   </trkpt>
   <trkpt lat="31.7504780" lon="35.1206000">
    <ele>736.8</ele>
    <time>2018-09-22T07:24:40Z</time>
   </trkpt>
   <trkpt lat="31.7504340" lon="35.1205340">
    <ele>738.1</ele>
    <time>2018-09-22T07:24:41Z</time>
   </trkpt>
   <trkpt lat="31.7503960" lon="35.1204570">
    <ele>739.1</ele>
    <time>2018-09-22T07:24:42Z</time>
   </trkpt>
   <trkpt lat="31.7503900" lon="35.1203790">
    <ele>739.2</ele>
    <time>2018-09-22T07:24:43Z</time>
   </trkpt>
   <trkpt lat="31.7503840" lon="35.1202910">
    <ele>738.1</ele>
    <time>2018-09-22T07:24:44Z</time>
   </trkpt>
   <trkpt lat="31.7503630" lon="35.1202040">
    <ele>736.9</ele>
    <time>2018-09-22T07:24:45Z</time>
   </trkpt>
   <trkpt lat="31.7503310" lon="35.1201180">
    <ele>736.3</ele>
    <time>2018-09-22T07:24:46Z</time>
   </trkpt>
   <trkpt lat="31.7503010" lon="35.1200310">
    <ele>735.9</ele>
    <time>2018-09-22T07:24:47Z</time>
   </trkpt>
   <trkpt lat="31.7502810" lon="35.1199400">
    <ele>734.6</ele>
    <time>2018-09-22T07:24:48Z</time>
   </trkpt>
   <trkpt lat="31.7502450" lon="35.1198560">
    <ele>733.4</ele>
    <time>2018-09-22T07:24:49Z</time>
   </trkpt>
   <trkpt lat="31.7502050" lon="35.1197720">
    <ele>733.5</ele>
    <time>2018-09-22T07:24:50Z</time>
   </trkpt>
   <trkpt lat="31.7501660" lon="35.1196860">
    <ele>733.0</ele>
    <time>2018-09-22T07:24:51Z</time>
   </trkpt>
   <trkpt lat="31.7501240" lon="35.1195980">
    <ele>733.7</ele>
    <time>2018-09-22T07:24:52Z</time>
   </trkpt>
   <trkpt lat="31.7500810" lon="35.1195140">
    <ele>733.5</ele>
    <time>2018-09-22T07:24:53Z</time>
   </trkpt>
   <trkpt lat="31.7500310" lon="35.1194390">
    <ele>733.7</ele>
    <time>2018-09-22T07:24:54Z</time>
   </trkpt>
   <trkpt lat="31.7499810" lon="35.1193700">
    <ele>733.1</ele>
    <time>2018-09-22T07:24:55Z</time>
   </trkpt>
   <trkpt lat="31.7499390" lon="35.1192900">
    <ele>732.0</ele>
    <time>2018-09-22T07:24:56Z</time>
   </trkpt>
   <trkpt lat="31.7498940" lon="35.1192030">
    <ele>731.3</ele>
    <time>2018-09-22T07:24:57Z</time>
   </trkpt>
   <trkpt lat="31.7498460" lon="35.1191120">
    <ele>731.9</ele>
    <time>2018-09-22T07:24:58Z</time>
   </trkpt>
   <trkpt lat="31.7498080" lon="35.1190070">
    <ele>731.1</ele>
    <time>2018-09-22T07:24:59Z</time>
   </trkpt>
   <trkpt lat="31.7497610" lon="35.1189250">
    <ele>729.1</ele>
    <time>2018-09-22T07:25:00Z</time>
   </trkpt>
   <trkpt lat="31.7497000" lon="35.1188560">
    <ele>727.3</ele>
    <time>2018-09-22T07:25:01Z</time>
   </trkpt>
   <trkpt lat="31.7496520" lon="35.1187960">
    <ele>726.2</ele>
    <time>2018-09-22T07:25:02Z</time>
   </trkpt>
   <trkpt lat="31.7496140" lon="35.1187400">
    <ele>725.4</ele>
    <time>2018-09-22T07:25:03Z</time>
   </trkpt>
   <trkpt lat="31.7496010" lon="35.1186690">
    <ele>724.8</ele>
    <time>2018-09-22T07:25:04Z</time>
   </trkpt>
   <trkpt lat="31.7495880" lon="35.1185840">
    <ele>724.3</ele>
    <time>2018-09-22T07:25:05Z</time>
   </trkpt>
   <trkpt lat="31.7495670" lon="35.1185060">
    <ele>723.8</ele>
    <time>2018-09-22T07:25:06Z</time>
   </trkpt>
   <trkpt lat="31.7495410" lon="35.1184300">
    <ele>723.1</ele>
    <time>2018-09-22T07:25:07Z</time>
   </trkpt>
   <trkpt lat="31.7495310" lon="35.1183520">
    <ele>722.2</ele>
    <time>2018-09-22T07:25:08Z</time>
   </trkpt>
   <trkpt lat="31.7495170" lon="35.1182690">
    <ele>720.5</ele>
    <time>2018-09-22T07:25:09Z</time>
   </trkpt>
   <trkpt lat="31.7495180" lon="35.1181910">
    <ele>718.7</ele>
    <time>2018-09-22T07:25:10Z</time>
   </trkpt>
   <trkpt lat="31.7495190" lon="35.1181010">
    <ele>716.5</ele>
    <time>2018-09-22T07:25:11Z</time>
   </trkpt>
   <trkpt lat="31.7495130" lon="35.1180110">
    <ele>714.6</ele>
    <time>2018-09-22T07:25:12Z</time>
   </trkpt>
   <trkpt lat="31.7495140" lon="35.1179220">
    <ele>713.2</ele>
    <time>2018-09-22T07:25:13Z</time>
   </trkpt>
   <trkpt lat="31.7495030" lon="35.1178400">
    <ele>712.1</ele>
    <time>2018-09-22T07:25:14Z</time>
   </trkpt>
   <trkpt lat="31.7494800" lon="35.1177640">
    <ele>711.1</ele>
    <time>2018-09-22T07:25:15Z</time>
   </trkpt>
   <trkpt lat="31.7494580" lon="35.1176950">
    <ele>710.5</ele>
    <time>2018-09-22T07:25:16Z</time>
   </trkpt>
   <trkpt lat="31.7494410" lon="35.1176310">
    <ele>710.2</ele>
    <time>2018-09-22T07:25:17Z</time>
   </trkpt>
   <trkpt lat="31.7494110" lon="35.1175690">
    <ele>710.0</ele>
    <time>2018-09-22T07:25:18Z</time>
   </trkpt>
   <trkpt lat="31.7493810" lon="35.1175220">
    <ele>709.9</ele>
    <time>2018-09-22T07:25:19Z</time>
   </trkpt>
   <trkpt lat="31.7493630" lon="35.1174800">
    <ele>709.8</ele>
    <time>2018-09-22T07:25:20Z</time>
   </trkpt>
   <trkpt lat="31.7493510" lon="35.1174420">
    <ele>709.7</ele>
    <time>2018-09-22T07:25:21Z</time>
   </trkpt>
   <trkpt lat="31.7493370" lon="35.1174000">
    <ele>709.5</ele>
    <time>2018-09-22T07:25:22Z</time>
   </trkpt>
   <trkpt lat="31.7493220" lon="35.1173620">
    <ele>709.4</ele>
    <time>2018-09-22T07:25:23Z</time>
   </trkpt>
   <trkpt lat="31.7493000" lon="35.1173310">
    <ele>709.4</ele>
    <time>2018-09-22T07:25:24Z</time>
   </trkpt>
   <trkpt lat="31.7492830" lon="35.1173050">
    <ele>709.3</ele>
    <time>2018-09-22T07:25:25Z</time>
   </trkpt>
   <trkpt lat="31.7492810" lon="35.1172610">
    <ele>709.3</ele>
    <time>2018-09-22T07:25:26Z</time>
   </trkpt>
   <trkpt lat="31.7492540" lon="35.1172250">
    <ele>709.2</ele>
    <time>2018-09-22T07:25:28Z</time>
   </trkpt>
   <trkpt lat="31.7492110" lon="35.1172050">
    <ele>709.2</ele>
    <time>2018-09-22T07:25:31Z</time>
   </trkpt>
   <trkpt lat="31.7491750" lon="35.1171690">
    <ele>709.2</ele>
    <time>2018-09-22T07:25:33Z</time>
   </trkpt>
   <trkpt lat="31.7491560" lon="35.1171450">
    <ele>709.1</ele>
    <time>2018-09-22T07:25:34Z</time>
   </trkpt>
   <trkpt lat="31.7491390" lon="35.1171100">
    <ele>709.1</ele>
    <time>2018-09-22T07:25:35Z</time>
   </trkpt>
   <trkpt lat="31.7491310" lon="35.1170610">
    <ele>709.1</ele>
    <time>2018-09-22T07:25:36Z</time>
   </trkpt>
   <trkpt lat="31.7491060" lon="35.1170360">
    <ele>709.2</ele>
    <time>2018-09-22T07:25:37Z</time>
   </trkpt>
   <trkpt lat="31.7490890" lon="35.1170110">
    <ele>709.2</ele>
    <time>2018-09-22T07:25:38Z</time>
   </trkpt>
   <trkpt lat="31.7490930" lon="35.1169500">
    <ele>709.3</ele>
    <time>2018-09-22T07:25:39Z</time>
   </trkpt>
   <trkpt lat="31.7490980" lon="35.1168980">
    <ele>709.4</ele>
    <time>2018-09-22T07:25:40Z</time>
   </trkpt>
   <trkpt lat="31.7490940" lon="35.1168500">
    <ele>709.3</ele>
    <time>2018-09-22T07:25:41Z</time>
   </trkpt>
   <trkpt lat="31.7490670" lon="35.1167960">
    <ele>709.3</ele>
    <time>2018-09-22T07:25:42Z</time>
   </trkpt>
   <trkpt lat="31.7490330" lon="35.1167550">
    <ele>709.2</ele>
    <time>2018-09-22T07:25:43Z</time>
   </trkpt>
   <trkpt lat="31.7490030" lon="35.1167080">
    <ele>709.1</ele>
    <time>2018-09-22T07:25:44Z</time>
   </trkpt>
   <trkpt lat="31.7489690" lon="35.1166760">
    <ele>709.1</ele>
    <time>2018-09-22T07:25:45Z</time>
   </trkpt>
   <trkpt lat="31.7489390" lon="35.1166420">
    <ele>709.0</ele>
    <time>2018-09-22T07:25:46Z</time>
   </trkpt>
   <trkpt lat="31.7489190" lon="35.1166030">
    <ele>708.9</ele>
    <time>2018-09-22T07:25:47Z</time>
   </trkpt>
   <trkpt lat="31.7488870" lon="35.1165580">
    <ele>708.9</ele>
    <time>2018-09-22T07:25:48Z</time>
   </trkpt>
   <trkpt lat="31.7488700" lon="35.1165280">
    <ele>708.8</ele>
    <time>2018-09-22T07:25:49Z</time>
   </trkpt>
   <trkpt lat="31.7488680" lon="35.1164940">
    <ele>708.8</ele>
    <time>2018-09-22T07:25:52Z</time>
   </trkpt>
   <trkpt lat="31.7488300" lon="35.1164600">
    <ele>708.7</ele>
    <time>2018-09-22T07:26:00Z</time>
   </trkpt>
   <trkpt lat="31.7488120" lon="35.1164110">
    <ele>708.6</ele>
    <time>2018-09-22T07:26:02Z</time>
   </trkpt>
   <trkpt lat="31.7487970" lon="35.1163810">
    <ele>708.5</ele>
    <time>2018-09-22T07:26:04Z</time>
   </trkpt>
   <trkpt lat="31.7487870" lon="35.1163460">
    <ele>708.5</ele>
    <time>2018-09-22T07:26:06Z</time>
   </trkpt>
   <trkpt lat="31.7487800" lon="35.1163060">
    <ele>708.4</ele>
    <time>2018-09-22T07:26:08Z</time>
   </trkpt>
   <trkpt lat="31.7487530" lon="35.1162750">
    <ele>708.2</ele>
    <time>2018-09-22T07:26:10Z</time>
   </trkpt>
   <trkpt lat="31.7487360" lon="35.1162460">
    <ele>708.1</ele>
    <time>2018-09-22T07:26:12Z</time>
   </trkpt>
   <trkpt lat="31.7487170" lon="35.1162140">
    <ele>708.0</ele>
    <time>2018-09-22T07:26:14Z</time>
   </trkpt>
   <trkpt lat="31.7486980" lon="35.1161860">
    <ele>707.9</ele>
    <time>2018-09-22T07:26:16Z</time>
   </trkpt>
   <trkpt lat="31.7486760" lon="35.1161620">
    <ele>707.8</ele>
    <time>2018-09-22T07:26:18Z</time>
   </trkpt>
   <trkpt lat="31.7486450" lon="35.1161210">
    <ele>707.6</ele>
    <time>2018-09-22T07:26:20Z</time>
   </trkpt>
   <trkpt lat="31.7486210" lon="35.1160750">
    <ele>707.3</ele>
    <time>2018-09-22T07:26:21Z</time>
   </trkpt>
   <trkpt lat="31.7485970" lon="35.1160330">
    <ele>707.2</ele>
    <time>2018-09-22T07:26:22Z</time>
   </trkpt>
   <trkpt lat="31.7485690" lon="35.1160060">
    <ele>706.7</ele>
    <time>2018-09-22T07:26:23Z</time>
   </trkpt>
   <trkpt lat="31.7485570" lon="35.1159750">
    <ele>706.6</ele>
    <time>2018-09-22T07:26:24Z</time>
   </trkpt>
   <trkpt lat="31.7485390" lon="35.1159350">
    <ele>706.3</ele>
    <time>2018-09-22T07:26:25Z</time>
   </trkpt>
   <trkpt lat="31.7485340" lon="35.1158830">
    <ele>706.1</ele>
    <time>2018-09-22T07:26:26Z</time>
   </trkpt>
   <trkpt lat="31.7485280" lon="35.1158270">
    <ele>705.8</ele>
    <time>2018-09-22T07:26:27Z</time>
   </trkpt>
   <trkpt lat="31.7485350" lon="35.1157890">
    <ele>705.5</ele>
    <time>2018-09-22T07:26:28Z</time>
   </trkpt>
   <trkpt lat="31.7485510" lon="35.1157460">
    <ele>705.2</ele>
    <time>2018-09-22T07:26:30Z</time>
   </trkpt>
   <trkpt lat="31.7485520" lon="35.1157090">
    <ele>705.0</ele>
    <time>2018-09-22T07:26:33Z</time>
   </trkpt>
   <trkpt lat="31.7485580" lon="35.1156770">
    <ele>704.7</ele>
    <time>2018-09-22T07:26:35Z</time>
   </trkpt>
   <trkpt lat="31.7485680" lon="35.1156320">
    <ele>704.4</ele>
    <time>2018-09-22T07:26:38Z</time>
   </trkpt>
   <trkpt lat="31.7485540" lon="35.1155850">
    <ele>703.8</ele>
    <time>2018-09-22T07:26:42Z</time>
   </trkpt>
   <trkpt lat="31.7485370" lon="35.1155460">
    <ele>703.0</ele>
    <time>2018-09-22T07:26:43Z</time>
   </trkpt>
   <trkpt lat="31.7485180" lon="35.1155050">
    <ele>702.0</ele>
    <time>2018-09-22T07:26:44Z</time>
   </trkpt>
   <trkpt lat="31.7484930" lon="35.1154510">
    <ele>700.8</ele>
    <time>2018-09-22T07:26:45Z</time>
   </trkpt>
   <trkpt lat="31.7484830" lon="35.1153820">
    <ele>699.7</ele>
    <time>2018-09-22T07:26:46Z</time>
   </trkpt>
   <trkpt lat="31.7484640" lon="35.1153270">
    <ele>698.9</ele>
    <time>2018-09-22T07:26:47Z</time>
   </trkpt>
   <trkpt lat="31.7484200" lon="35.1152820">
    <ele>697.6</ele>
    <time>2018-09-22T07:26:48Z</time>
   </trkpt>
   <trkpt lat="31.7483810" lon="35.1152430">
    <ele>696.7</ele>
    <time>2018-09-22T07:26:49Z</time>
   </trkpt>
   <trkpt lat="31.7483450" lon="35.1152070">
    <ele>695.8</ele>
    <time>2018-09-22T07:26:50Z</time>
   </trkpt>
   <trkpt lat="31.7483050" lon="35.1151660">
    <ele>694.8</ele>
    <time>2018-09-22T07:26:51Z</time>
   </trkpt>
   <trkpt lat="31.7482670" lon="35.1151210">
    <ele>693.8</ele>
    <time>2018-09-22T07:26:52Z</time>
   </trkpt>
   <trkpt lat="31.7482360" lon="35.1150860">
    <ele>693.1</ele>
    <time>2018-09-22T07:26:53Z</time>
   </trkpt>
   <trkpt lat="31.7482130" lon="35.1150460">
    <ele>692.4</ele>
    <time>2018-09-22T07:26:54Z</time>
   </trkpt>
   <trkpt lat="31.7481850" lon="35.1150150">
    <ele>691.8</ele>
    <time>2018-09-22T07:26:55Z</time>
   </trkpt>
   <trkpt lat="31.7481570" lon="35.1149880">
    <ele>691.2</ele>
    <time>2018-09-22T07:26:56Z</time>
   </trkpt>
   <trkpt lat="31.7481230" lon="35.1149650">
    <ele>690.6</ele>
    <time>2018-09-22T07:26:57Z</time>
   </trkpt>
   <trkpt lat="31.7480950" lon="35.1149340">
    <ele>690.3</ele>
    <time>2018-09-22T07:26:58Z</time>
   </trkpt>
   <trkpt lat="31.7480670" lon="35.1149050">
    <ele>690.0</ele>
    <time>2018-09-22T07:26:59Z</time>
   </trkpt>
   <trkpt lat="31.7480520" lon="35.1148770">
    <ele>689.8</ele>
    <time>2018-09-22T07:27:00Z</time>
   </trkpt>
   <trkpt lat="31.7480350" lon="35.1148410">
    <ele>689.5</ele>
    <time>2018-09-22T07:27:01Z</time>
   </trkpt>
   <trkpt lat="31.7480020" lon="35.1148210">
    <ele>689.2</ele>
    <time>2018-09-22T07:27:03Z</time>
   </trkpt>
   <trkpt lat="31.7479670" lon="35.1148240">
    <ele>688.7</ele>
    <time>2018-09-22T07:27:05Z</time>
   </trkpt>
   <trkpt lat="31.7479350" lon="35.1148180">
    <ele>688.3</ele>
    <time>2018-09-22T07:27:07Z</time>
   </trkpt>
   <trkpt lat="31.7479110" lon="35.1148020">
    <ele>688.1</ele>
    <time>2018-09-22T07:27:08Z</time>
   </trkpt>
   <trkpt lat="31.7478760" lon="35.1147830">
    <ele>687.9</ele>
    <time>2018-09-22T07:27:09Z</time>
   </trkpt>
   <trkpt lat="31.7478470" lon="35.1147760">
    <ele>687.7</ele>
    <time>2018-09-22T07:27:12Z</time>
   </trkpt>
   <trkpt lat="31.7478780" lon="35.1147610">
    <ele>687.4</ele>
    <time>2018-09-22T07:27:17Z</time>
   </trkpt>
   <trkpt lat="31.7479310" lon="35.1147560">
    <ele>687.0</ele>
    <time>2018-09-22T07:27:20Z</time>
   </trkpt>
   <trkpt lat="31.7479610" lon="35.1147410">
    <ele>687.0</ele>
    <time>2018-09-22T07:27:23Z</time>
   </trkpt>
   <trkpt lat="31.7479450" lon="35.1147140">
    <ele>687.0</ele>
    <time>2018-09-22T07:27:30Z</time>
   </trkpt>
   <trkpt lat="31.7479270" lon="35.1146870">
    <ele>687.0</ele>
    <time>2018-09-22T07:27:33Z</time>
   </trkpt>
   <trkpt lat="31.7479130" lon="35.1146580">
    <ele>687.0</ele>
    <time>2018-09-22T07:28:01Z</time>
   </trkpt>
   <trkpt lat="31.7478930" lon="35.1146250">
    <ele>687.0</ele>
    <time>2018-09-22T07:28:03Z</time>
   </trkpt>
   <trkpt lat="31.7478660" lon="35.1146220">
    <ele>687.0</ele>
    <time>2018-09-22T07:28:04Z</time>
   </trkpt>
   <trkpt lat="31.7478230" lon="35.1146170">
    <ele>687.0</ele>
    <time>2018-09-22T07:28:06Z</time>
   </trkpt>
   <trkpt lat="31.7477950" lon="35.1146110">
    <ele>687.0</ele>
    <time>2018-09-22T07:28:07Z</time>
   </trkpt>
   <trkpt lat="31.7477570" lon="35.1145910">
    <ele>687.0</ele>
    <time>2018-09-22T07:28:08Z</time>
   </trkpt>
   <trkpt lat="31.7477180" lon="35.1145710">
    <ele>687.0</ele>
    <time>2018-09-22T07:28:09Z</time>
   </trkpt>
   <trkpt lat="31.7476750" lon="35.1145440">
    <ele>687.0</ele>
    <time>2018-09-22T07:28:10Z</time>
   </trkpt>
   <trkpt lat="31.7476280" lon="35.1145230">
    <ele>687.0</ele>
    <time>2018-09-22T07:28:11Z</time>
   </trkpt>
   <trkpt lat="31.7475800" lon="35.1144960">
    <ele>687.0</ele>
    <time>2018-09-22T07:28:12Z</time>
   </trkpt>
   <trkpt lat="31.7475370" lon="35.1145010">
    <ele>687.0</ele>
    <time>2018-09-22T07:28:13Z</time>
   </trkpt>
   <trkpt lat="31.7474850" lon="35.1145070">
    <ele>686.6</ele>
    <time>2018-09-22T07:28:14Z</time>
   </trkpt>
   <trkpt lat="31.7474500" lon="35.1145180">
    <ele>686.3</ele>
    <time>2018-09-22T07:28:15Z</time>
   </trkpt>
   <trkpt lat="31.7474070" lon="35.1145180">
    <ele>686.0</ele>
    <time>2018-09-22T07:28:16Z</time>
   </trkpt>
   <trkpt lat="31.7473610" lon="35.1145150">
    <ele>685.7</ele>
    <time>2018-09-22T07:28:17Z</time>
   </trkpt>
   <trkpt lat="31.7473230" lon="35.1145410">
    <ele>685.4</ele>
    <time>2018-09-22T07:28:18Z</time>
   </trkpt>
   <trkpt lat="31.7472810" lon="35.1145650">
    <ele>685.1</ele>
    <time>2018-09-22T07:28:19Z</time>
   </trkpt>
   <trkpt lat="31.7472400" lon="35.1145940">
    <ele>684.5</ele>
    <time>2018-09-22T07:28:20Z</time>
   </trkpt>
   <trkpt lat="31.7472030" lon="35.1146200">
    <ele>684.1</ele>
    <time>2018-09-22T07:28:21Z</time>
   </trkpt>
   <trkpt lat="31.7471640" lon="35.1146440">
    <ele>683.7</ele>
    <time>2018-09-22T07:28:22Z</time>
   </trkpt>
   <trkpt lat="31.7471320" lon="35.1146560">
    <ele>683.4</ele>
    <time>2018-09-22T07:28:23Z</time>
   </trkpt>
   <trkpt lat="31.7470860" lon="35.1146500">
    <ele>682.8</ele>
    <time>2018-09-22T07:28:24Z</time>
   </trkpt>
   <trkpt lat="31.7470600" lon="35.1146340">
    <ele>682.3</ele>
    <time>2018-09-22T07:28:25Z</time>
   </trkpt>
   <trkpt lat="31.7470300" lon="35.1145930">
    <ele>681.7</ele>
    <time>2018-09-22T07:28:26Z</time>
   </trkpt>
   <trkpt lat="31.7470150" lon="35.1145350">
    <ele>681.1</ele>
    <time>2018-09-22T07:28:27Z</time>
   </trkpt>
   <trkpt lat="31.7470200" lon="35.1144680">
    <ele>680.4</ele>
    <time>2018-09-22T07:28:28Z</time>
   </trkpt>
   <trkpt lat="31.7470450" lon="35.1144040">
    <ele>679.8</ele>
    <time>2018-09-22T07:28:29Z</time>
   </trkpt>
   <trkpt lat="31.7470670" lon="35.1143480">
    <ele>679.0</ele>
    <time>2018-09-22T07:28:30Z</time>
   </trkpt>
   <trkpt lat="31.7470680" lon="35.1142730">
    <ele>677.3</ele>
    <time>2018-09-22T07:28:31Z</time>
   </trkpt>
   <trkpt lat="31.7470940" lon="35.1141930">
    <ele>675.1</ele>
    <time>2018-09-22T07:28:32Z</time>
   </trkpt>
   <trkpt lat="31.7471360" lon="35.1141200">
    <ele>673.2</ele>
    <time>2018-09-22T07:28:33Z</time>
   </trkpt>
   <trkpt lat="31.7471790" lon="35.1140580">
    <ele>671.5</ele>
    <time>2018-09-22T07:28:34Z</time>
   </trkpt>
   <trkpt lat="31.7472390" lon="35.1140090">
    <ele>669.6</ele>
    <time>2018-09-22T07:28:35Z</time>
   </trkpt>
   <trkpt lat="31.7472900" lon="35.1139540">
    <ele>667.8</ele>
    <time>2018-09-22T07:28:36Z</time>
   </trkpt>
   <trkpt lat="31.7473320" lon="35.1138940">
    <ele>666.8</ele>
    <time>2018-09-22T07:28:37Z</time>
   </trkpt>
   <trkpt lat="31.7473710" lon="35.1138310">
    <ele>666.6</ele>
    <time>2018-09-22T07:28:38Z</time>
   </trkpt>
   <trkpt lat="31.7474070" lon="35.1137650">
    <ele>666.5</ele>
    <time>2018-09-22T07:28:39Z</time>
   </trkpt>
   <trkpt lat="31.7474420" lon="35.1137030">
    <ele>666.5</ele>
    <time>2018-09-22T07:28:40Z</time>
   </trkpt>
   <trkpt lat="31.7474730" lon="35.1136320">
    <ele>666.6</ele>
    <time>2018-09-22T07:28:41Z</time>
   </trkpt>
   <trkpt lat="31.7475140" lon="35.1135630">
    <ele>666.7</ele>
    <time>2018-09-22T07:28:42Z</time>
   </trkpt>
   <trkpt lat="31.7474870" lon="35.1134900">
    <ele>666.8</ele>
    <time>2018-09-22T07:28:43Z</time>
   </trkpt>
   <trkpt lat="31.7474550" lon="35.1134290">
    <ele>666.8</ele>
    <time>2018-09-22T07:28:44Z</time>
   </trkpt>
   <trkpt lat="31.7474200" lon="35.1133780">
    <ele>667.0</ele>
    <time>2018-09-22T07:28:45Z</time>
   </trkpt>
   <trkpt lat="31.7473740" lon="35.1133410">
    <ele>667.0</ele>
    <time>2018-09-22T07:28:46Z</time>
   </trkpt>
   <trkpt lat="31.7473230" lon="35.1133310">
    <ele>667.0</ele>
    <time>2018-09-22T07:28:47Z</time>
   </trkpt>
   <trkpt lat="31.7472740" lon="35.1133290">
    <ele>667.0</ele>
    <time>2018-09-22T07:28:48Z</time>
   </trkpt>
   <trkpt lat="31.7472360" lon="35.1133250">
    <ele>666.5</ele>
    <time>2018-09-22T07:28:49Z</time>
   </trkpt>
   <trkpt lat="31.7471880" lon="35.1133350">
    <ele>665.8</ele>
    <time>2018-09-22T07:28:50Z</time>
   </trkpt>
   <trkpt lat="31.7471660" lon="35.1134080">
    <ele>665.0</ele>
    <time>2018-09-22T07:28:51Z</time>
   </trkpt>
   <trkpt lat="31.7471390" lon="35.1134740">
    <ele>664.3</ele>
    <time>2018-09-22T07:28:52Z</time>
   </trkpt>
   <trkpt lat="31.7471110" lon="35.1135440">
    <ele>663.8</ele>
    <time>2018-09-22T07:28:53Z</time>
   </trkpt>
   <trkpt lat="31.7470790" lon="35.1136070">
    <ele>663.4</ele>
    <time>2018-09-22T07:28:54Z</time>
   </trkpt>
   <trkpt lat="31.7470340" lon="35.1136430">
    <ele>663.1</ele>
    <time>2018-09-22T07:28:55Z</time>
   </trkpt>
   <trkpt lat="31.7469850" lon="35.1136760">
    <ele>662.7</ele>
    <time>2018-09-22T07:28:56Z</time>
   </trkpt>
   <trkpt lat="31.7469250" lon="35.1137110">
    <ele>662.3</ele>
    <time>2018-09-22T07:28:57Z</time>
   </trkpt>
   <trkpt lat="31.7468730" lon="35.1137600">
    <ele>661.6</ele>
    <time>2018-09-22T07:28:58Z</time>
   </trkpt>
   <trkpt lat="31.7468180" lon="35.1137950">
    <ele>661.0</ele>
    <time>2018-09-22T07:28:59Z</time>
   </trkpt>
   <trkpt lat="31.7467680" lon="35.1138500">
    <ele>660.3</ele>
    <time>2018-09-22T07:29:00Z</time>
   </trkpt>
   <trkpt lat="31.7467390" lon="35.1139150">
    <ele>659.8</ele>
    <time>2018-09-22T07:29:01Z</time>
   </trkpt>
   <trkpt lat="31.7467090" lon="35.1139690">
    <ele>659.4</ele>
    <time>2018-09-22T07:29:02Z</time>
   </trkpt>
   <trkpt lat="31.7466830" lon="35.1140170">
    <ele>659.2</ele>
    <time>2018-09-22T07:29:03Z</time>
   </trkpt>
   <trkpt lat="31.7466480" lon="35.1140580">
    <ele>659.0</ele>
    <time>2018-09-22T07:29:04Z</time>
   </trkpt>
   <trkpt lat="31.7466090" lon="35.1140990">
    <ele>658.6</ele>
    <time>2018-09-22T07:29:05Z</time>
   </trkpt>
   <trkpt lat="31.7465650" lon="35.1141320">
    <ele>658.5</ele>
    <time>2018-09-22T07:29:06Z</time>
   </trkpt>
   <trkpt lat="31.7465180" lon="35.1141760">
    <ele>658.3</ele>
    <time>2018-09-22T07:29:07Z</time>
   </trkpt>
   <trkpt lat="31.7464760" lon="35.1142280">
    <ele>658.1</ele>
    <time>2018-09-22T07:29:08Z</time>
   </trkpt>
   <trkpt lat="31.7464540" lon="35.1142810">
    <ele>658.0</ele>
    <time>2018-09-22T07:29:09Z</time>
   </trkpt>
   <trkpt lat="31.7464340" lon="35.1143430">
    <ele>658.3</ele>
    <time>2018-09-22T07:29:10Z</time>
   </trkpt>
   <trkpt lat="31.7464080" lon="35.1143750">
    <ele>658.5</ele>
    <time>2018-09-22T07:29:11Z</time>
   </trkpt>
   <trkpt lat="31.7463730" lon="35.1144050">
    <ele>658.7</ele>
    <time>2018-09-22T07:29:12Z</time>
   </trkpt>
   <trkpt lat="31.7463360" lon="35.1144350">
    <ele>659.0</ele>
    <time>2018-09-22T07:29:13Z</time>
   </trkpt>
   <trkpt lat="31.7463080" lon="35.1144750">
    <ele>659.2</ele>
    <time>2018-09-22T07:29:14Z</time>
   </trkpt>
   <trkpt lat="31.7462700" lon="35.1145080">
    <ele>659.4</ele>
    <time>2018-09-22T07:29:15Z</time>
   </trkpt>
   <trkpt lat="31.7462180" lon="35.1145440">
    <ele>659.9</ele>
    <time>2018-09-22T07:29:16Z</time>
   </trkpt>
   <trkpt lat="31.7461770" lon="35.1145870">
    <ele>660.4</ele>
    <time>2018-09-22T07:29:17Z</time>
   </trkpt>
   <trkpt lat="31.7461440" lon="35.1146240">
    <ele>660.9</ele>
    <time>2018-09-22T07:29:18Z</time>
   </trkpt>
   <trkpt lat="31.7460980" lon="35.1146470">
    <ele>661.5</ele>
    <time>2018-09-22T07:29:19Z</time>
   </trkpt>
   <trkpt lat="31.7460440" lon="35.1146800">
    <ele>662.0</ele>
    <time>2018-09-22T07:29:20Z</time>
   </trkpt>
   <trkpt lat="31.7460120" lon="35.1147380">
    <ele>662.5</ele>
    <time>2018-09-22T07:29:21Z</time>
   </trkpt>
   <trkpt lat="31.7459890" lon="35.1147900">
    <ele>662.9</ele>
    <time>2018-09-22T07:29:22Z</time>
   </trkpt>
   <trkpt lat="31.7459510" lon="35.1148260">
    <ele>663.4</ele>
    <time>2018-09-22T07:29:23Z</time>
   </trkpt>
   <trkpt lat="31.7459050" lon="35.1148650">
    <ele>663.9</ele>
    <time>2018-09-22T07:29:24Z</time>
   </trkpt>
   <trkpt lat="31.7458570" lon="35.1149070">
    <ele>664.3</ele>
    <time>2018-09-22T07:29:25Z</time>
   </trkpt>
   <trkpt lat="31.7458190" lon="35.1149430">
    <ele>664.6</ele>
    <time>2018-09-22T07:29:26Z</time>
   </trkpt>
   <trkpt lat="31.7457840" lon="35.1149810">
    <ele>664.8</ele>
    <time>2018-09-22T07:29:27Z</time>
   </trkpt>
   <trkpt lat="31.7457490" lon="35.1150240">
    <ele>665.1</ele>
    <time>2018-09-22T07:29:28Z</time>
   </trkpt>
   <trkpt lat="31.7457130" lon="35.1150470">
    <ele>665.3</ele>
    <time>2018-09-22T07:29:29Z</time>
   </trkpt>
   <trkpt lat="31.7456620" lon="35.1150720">
    <ele>665.6</ele>
    <time>2018-09-22T07:29:30Z</time>
   </trkpt>
   <trkpt lat="31.7455980" lon="35.1150980">
    <ele>665.9</ele>
    <time>2018-09-22T07:29:31Z</time>
   </trkpt>
   <trkpt lat="31.7455370" lon="35.1151180">
    <ele>666.4</ele>
    <time>2018-09-22T07:29:32Z</time>
   </trkpt>
   <trkpt lat="31.7454890" lon="35.1151300">
    <ele>666.8</ele>
    <time>2018-09-22T07:29:33Z</time>
   </trkpt>
   <trkpt lat="31.7454280" lon="35.1151450">
    <ele>667.2</ele>
    <time>2018-09-22T07:29:34Z</time>
   </trkpt>
   <trkpt lat="31.7453700" lon="35.1151660">
    <ele>667.7</ele>
    <time>2018-09-22T07:29:35Z</time>
   </trkpt>
   <trkpt lat="31.7453170" lon="35.1151830">
    <ele>668.2</ele>
    <time>2018-09-22T07:29:36Z</time>
   </trkpt>
   <trkpt lat="31.7452720" lon="35.1151860">
    <ele>668.6</ele>
    <time>2018-09-22T07:29:37Z</time>
   </trkpt>
   <trkpt lat="31.7452290" lon="35.1151700">
    <ele>669.0</ele>
    <time>2018-09-22T07:29:38Z</time>
   </trkpt>
   <trkpt lat="31.7451950" lon="35.1151590">
    <ele>669.0</ele>
    <time>2018-09-22T07:29:39Z</time>
   </trkpt>
   <trkpt lat="31.7451990" lon="35.1151260">
    <ele>667.3</ele>
    <time>2018-09-22T07:29:40Z</time>
   </trkpt>
   <trkpt lat="31.7452770" lon="35.1150690">
    <ele>662.8</ele>
    <time>2018-09-22T07:29:41Z</time>
   </trkpt>
   <trkpt lat="31.7453310" lon="35.1150360">
    <ele>661.3</ele>
    <time>2018-09-22T07:29:42Z</time>
   </trkpt>
   <trkpt lat="31.7454060" lon="35.1150110">
    <ele>659.8</ele>
    <time>2018-09-22T07:29:43Z</time>
   </trkpt>
   <trkpt lat="31.7454630" lon="35.1149740">
    <ele>658.6</ele>
    <time>2018-09-22T07:29:44Z</time>
   </trkpt>
   <trkpt lat="31.7455220" lon="35.1149290">
    <ele>657.2</ele>
    <time>2018-09-22T07:29:45Z</time>
   </trkpt>
   <trkpt lat="31.7455910" lon="35.1148780">
    <ele>654.2</ele>
    <time>2018-09-22T07:29:46Z</time>
   </trkpt>
   <trkpt lat="31.7456130" lon="35.1148330">
    <ele>652.9</ele>
    <time>2018-09-22T07:29:47Z</time>
   </trkpt>
   <trkpt lat="31.7456570" lon="35.1148170">
    <ele>652.0</ele>
    <time>2018-09-22T07:29:48Z</time>
   </trkpt>
   <trkpt lat="31.7456830" lon="35.1147560">
    <ele>651.1</ele>
    <time>2018-09-22T07:29:49Z</time>
   </trkpt>
   <trkpt lat="31.7457070" lon="35.1147230">
    <ele>650.5</ele>
    <time>2018-09-22T07:29:50Z</time>
   </trkpt>
   <trkpt lat="31.7457230" lon="35.1146800">
    <ele>649.9</ele>
    <time>2018-09-22T07:29:51Z</time>
   </trkpt>
   <trkpt lat="31.7457620" lon="35.1146330">
    <ele>649.0</ele>
    <time>2018-09-22T07:29:52Z</time>
   </trkpt>
   <trkpt lat="31.7457920" lon="35.1145980">
    <ele>648.8</ele>
    <time>2018-09-22T07:29:53Z</time>
   </trkpt>
   <trkpt lat="31.7458290" lon="35.1145770">
    <ele>648.7</ele>
    <time>2018-09-22T07:29:54Z</time>
   </trkpt>
   <trkpt lat="31.7458640" lon="35.1145480">
    <ele>648.5</ele>
    <time>2018-09-22T07:29:55Z</time>
   </trkpt>
   <trkpt lat="31.7458890" lon="35.1144870">
    <ele>648.3</ele>
    <time>2018-09-22T07:29:57Z</time>
   </trkpt>
   <trkpt lat="31.7458990" lon="35.1144220">
    <ele>648.0</ele>
    <time>2018-09-22T07:29:58Z</time>
   </trkpt>
   <trkpt lat="31.7459280" lon="35.1143740">
    <ele>647.6</ele>
    <time>2018-09-22T07:29:59Z</time>
   </trkpt>
   <trkpt lat="31.7459600" lon="35.1143250">
    <ele>646.9</ele>
    <time>2018-09-22T07:30:00Z</time>
   </trkpt>
   <trkpt lat="31.7459840" lon="35.1142980">
    <ele>646.5</ele>
    <time>2018-09-22T07:30:01Z</time>
   </trkpt>
   <trkpt lat="31.7459980" lon="35.1142530">
    <ele>646.1</ele>
    <time>2018-09-22T07:30:02Z</time>
   </trkpt>
   <trkpt lat="31.7460300" lon="35.1142110">
    <ele>645.7</ele>
    <time>2018-09-22T07:30:03Z</time>
   </trkpt>
   <trkpt lat="31.7460720" lon="35.1141590">
    <ele>645.4</ele>
    <time>2018-09-22T07:30:04Z</time>
   </trkpt>
   <trkpt lat="31.7460950" lon="35.1141290">
    <ele>645.2</ele>
    <time>2018-09-22T07:30:05Z</time>
   </trkpt>
   <trkpt lat="31.7461170" lon="35.1140760">
    <ele>645.0</ele>
    <time>2018-09-22T07:30:06Z</time>
   </trkpt>
   <trkpt lat="31.7461490" lon="35.1140470">
    <ele>644.8</ele>
    <time>2018-09-22T07:30:07Z</time>
   </trkpt>
   <trkpt lat="31.7461720" lon="35.1140300">
    <ele>644.6</ele>
    <time>2018-09-22T07:30:08Z</time>
   </trkpt>
   <trkpt lat="31.7461910" lon="35.1139810">
    <ele>644.4</ele>
    <time>2018-09-22T07:30:09Z</time>
   </trkpt>
   <trkpt lat="31.7462120" lon="35.1139450">
    <ele>644.3</ele>
    <time>2018-09-22T07:30:10Z</time>
   </trkpt>
   <trkpt lat="31.7462340" lon="35.1138970">
    <ele>644.2</ele>
    <time>2018-09-22T07:30:11Z</time>
   </trkpt>
   <trkpt lat="31.7462510" lon="35.1138470">
    <ele>644.1</ele>
    <time>2018-09-22T07:30:12Z</time>
   </trkpt>
   <trkpt lat="31.7462670" lon="35.1137990">
    <ele>644.0</ele>
    <time>2018-09-22T07:30:13Z</time>
   </trkpt>
   <trkpt lat="31.7462810" lon="35.1137490">
    <ele>644.0</ele>
    <time>2018-09-22T07:30:14Z</time>
   </trkpt>
   <trkpt lat="31.7463100" lon="35.1137050">
    <ele>644.0</ele>
    <time>2018-09-22T07:30:15Z</time>
   </trkpt>
   <trkpt lat="31.7463350" lon="35.1136720">
    <ele>644.0</ele>
    <time>2018-09-22T07:30:16Z</time>
   </trkpt>
   <trkpt lat="31.7463670" lon="35.1136290">
    <ele>644.1</ele>
    <time>2018-09-22T07:30:17Z</time>
   </trkpt>
   <trkpt lat="31.7463870" lon="35.1135860">
    <ele>644.1</ele>
    <time>2018-09-22T07:30:18Z</time>
   </trkpt>
   <trkpt lat="31.7464070" lon="35.1135340">
    <ele>644.1</ele>
    <time>2018-09-22T07:30:19Z</time>
   </trkpt>
   <trkpt lat="31.7464170" lon="35.1134790">
    <ele>644.1</ele>
    <time>2018-09-22T07:30:20Z</time>
   </trkpt>
   <trkpt lat="31.7464240" lon="35.1134340">
    <ele>644.1</ele>
    <time>2018-09-22T07:30:21Z</time>
   </trkpt>
   <trkpt lat="31.7464310" lon="35.1133770">
    <ele>644.1</ele>
    <time>2018-09-22T07:30:22Z</time>
   </trkpt>
   <trkpt lat="31.7464350" lon="35.1133220">
    <ele>644.2</ele>
    <time>2018-09-22T07:30:23Z</time>
   </trkpt>
   <trkpt lat="31.7464460" lon="35.1132760">
    <ele>644.2</ele>
    <time>2018-09-22T07:30:24Z</time>
   </trkpt>
   <trkpt lat="31.7464500" lon="35.1132210">
    <ele>644.2</ele>
    <time>2018-09-22T07:30:25Z</time>
   </trkpt>
   <trkpt lat="31.7464420" lon="35.1131720">
    <ele>644.2</ele>
    <time>2018-09-22T07:30:26Z</time>
   </trkpt>
   <trkpt lat="31.7464390" lon="35.1131260">
    <ele>644.2</ele>
    <time>2018-09-22T07:30:27Z</time>
   </trkpt>
   <trkpt lat="31.7464350" lon="35.1130850">
    <ele>644.3</ele>
    <time>2018-09-22T07:30:28Z</time>
   </trkpt>
   <trkpt lat="31.7464370" lon="35.1130350">
    <ele>644.3</ele>
    <time>2018-09-22T07:30:29Z</time>
   </trkpt>
   <trkpt lat="31.7464360" lon="35.1129990">
    <ele>644.3</ele>
    <time>2018-09-22T07:30:30Z</time>
   </trkpt>
   <trkpt lat="31.7464350" lon="35.1129610">
    <ele>644.3</ele>
    <time>2018-09-22T07:30:31Z</time>
   </trkpt>
   <trkpt lat="31.7464290" lon="35.1129270">
    <ele>644.3</ele>
    <time>2018-09-22T07:30:32Z</time>
   </trkpt>
   <trkpt lat="31.7464280" lon="35.1128910">
    <ele>644.3</ele>
    <time>2018-09-22T07:30:33Z</time>
   </trkpt>
   <trkpt lat="31.7464070" lon="35.1128240">
    <ele>644.2</ele>
    <time>2018-09-22T07:30:35Z</time>
   </trkpt>
   <trkpt lat="31.7463880" lon="35.1127830">
    <ele>644.2</ele>
    <time>2018-09-22T07:30:36Z</time>
   </trkpt>
   <trkpt lat="31.7463670" lon="35.1127360">
    <ele>644.2</ele>
    <time>2018-09-22T07:30:37Z</time>
   </trkpt>
   <trkpt lat="31.7463510" lon="35.1126780">
    <ele>644.1</ele>
    <time>2018-09-22T07:30:38Z</time>
   </trkpt>
   <trkpt lat="31.7463310" lon="35.1126240">
    <ele>644.0</ele>
    <time>2018-09-22T07:30:39Z</time>
   </trkpt>
   <trkpt lat="31.7463210" lon="35.1125640">
    <ele>643.9</ele>
    <time>2018-09-22T07:30:40Z</time>
   </trkpt>
   <trkpt lat="31.7463050" lon="35.1125100">
    <ele>643.7</ele>
    <time>2018-09-22T07:30:41Z</time>
   </trkpt>
   <trkpt lat="31.7462860" lon="35.1124550">
    <ele>643.4</ele>
    <time>2018-09-22T07:30:42Z</time>
   </trkpt>
   <trkpt lat="31.7462830" lon="35.1123980">
    <ele>643.0</ele>
    <time>2018-09-22T07:30:43Z</time>
   </trkpt>
   <trkpt lat="31.7462750" lon="35.1123330">
    <ele>642.7</ele>
    <time>2018-09-22T07:30:44Z</time>
   </trkpt>
   <trkpt lat="31.7462670" lon="35.1122710">
    <ele>642.5</ele>
    <time>2018-09-22T07:30:45Z</time>
   </trkpt>
   <trkpt lat="31.7462630" lon="35.1122060">
    <ele>642.3</ele>
    <time>2018-09-22T07:30:46Z</time>
   </trkpt>
   <trkpt lat="31.7462660" lon="35.1121420">
    <ele>642.1</ele>
    <time>2018-09-22T07:30:47Z</time>
   </trkpt>
   <trkpt lat="31.7462780" lon="35.1120910">
    <ele>641.9</ele>
    <time>2018-09-22T07:30:48Z</time>
   </trkpt>
   <trkpt lat="31.7462710" lon="35.1120550">
    <ele>641.6</ele>
    <time>2018-09-22T07:30:49Z</time>
   </trkpt>
   <trkpt lat="31.7462480" lon="35.1120150">
    <ele>641.0</ele>
    <time>2018-09-22T07:30:50Z</time>
   </trkpt>
   <trkpt lat="31.7462120" lon="35.1119620">
    <ele>640.2</ele>
    <time>2018-09-22T07:30:51Z</time>
   </trkpt>
   <trkpt lat="31.7462040" lon="35.1118850">
    <ele>639.3</ele>
    <time>2018-09-22T07:30:52Z</time>
   </trkpt>
   <trkpt lat="31.7462040" lon="35.1118110">
    <ele>638.3</ele>
    <time>2018-09-22T07:30:53Z</time>
   </trkpt>
   <trkpt lat="31.7462090" lon="35.1117300">
    <ele>637.4</ele>
    <time>2018-09-22T07:30:54Z</time>
   </trkpt>
   <trkpt lat="31.7462160" lon="35.1116520">
    <ele>636.9</ele>
    <time>2018-09-22T07:30:55Z</time>
   </trkpt>
   <trkpt lat="31.7462400" lon="35.1115780">
    <ele>636.6</ele>
    <time>2018-09-22T07:30:56Z</time>
   </trkpt>
   <trkpt lat="31.7462620" lon="35.1115070">
    <ele>636.3</ele>
    <time>2018-09-22T07:30:57Z</time>
   </trkpt>
   <trkpt lat="31.7462780" lon="35.1114460">
    <ele>636.0</ele>
    <time>2018-09-22T07:30:58Z</time>
   </trkpt>
   <trkpt lat="31.7462960" lon="35.1113920">
    <ele>635.8</ele>
    <time>2018-09-22T07:30:59Z</time>
   </trkpt>
   <trkpt lat="31.7463280" lon="35.1113420">
    <ele>635.4</ele>
    <time>2018-09-22T07:31:00Z</time>
   </trkpt>
   <trkpt lat="31.7463590" lon="35.1113130">
    <ele>635.2</ele>
    <time>2018-09-22T07:31:01Z</time>
   </trkpt>
   <trkpt lat="31.7463770" lon="35.1112810">
    <ele>635.0</ele>
    <time>2018-09-22T07:31:02Z</time>
   </trkpt>
   <trkpt lat="31.7463910" lon="35.1112520">
    <ele>634.9</ele>
    <time>2018-09-22T07:31:03Z</time>
   </trkpt>
   <trkpt lat="31.7464110" lon="35.1112210">
    <ele>634.8</ele>
    <time>2018-09-22T07:31:04Z</time>
   </trkpt>
   <trkpt lat="31.7464290" lon="35.1111960">
    <ele>634.8</ele>
    <time>2018-09-22T07:31:05Z</time>
   </trkpt>
   <trkpt lat="31.7464460" lon="35.1111600">
    <ele>634.7</ele>
    <time>2018-09-22T07:31:06Z</time>
   </trkpt>
   <trkpt lat="31.7464590" lon="35.1111210">
    <ele>634.5</ele>
    <time>2018-09-22T07:31:07Z</time>
   </trkpt>
   <trkpt lat="31.7464630" lon="35.1110720">
    <ele>634.3</ele>
    <time>2018-09-22T07:31:08Z</time>
   </trkpt>
   <trkpt lat="31.7464700" lon="35.1110140">
    <ele>634.1</ele>
    <time>2018-09-22T07:31:09Z</time>
   </trkpt>
   <trkpt lat="31.7464800" lon="35.1109650">
    <ele>633.7</ele>
    <time>2018-09-22T07:31:10Z</time>
   </trkpt>
   <trkpt lat="31.7465200" lon="35.1109020">
    <ele>632.2</ele>
    <time>2018-09-22T07:31:11Z</time>
   </trkpt>
   <trkpt lat="31.7465580" lon="35.1108460">
    <ele>631.2</ele>
    <time>2018-09-22T07:31:12Z</time>
   </trkpt>
   <trkpt lat="31.7465940" lon="35.1107890">
    <ele>630.8</ele>
    <time>2018-09-22T07:31:13Z</time>
   </trkpt>
   <trkpt lat="31.7466380" lon="35.1107440">
    <ele>630.3</ele>
    <time>2018-09-22T07:31:14Z</time>
   </trkpt>
   <trkpt lat="31.7466820" lon="35.1107060">
    <ele>629.9</ele>
    <time>2018-09-22T07:31:15Z</time>
   </trkpt>
   <trkpt lat="31.7467350" lon="35.1106840">
    <ele>629.4</ele>
    <time>2018-09-22T07:31:16Z</time>
   </trkpt>
   <trkpt lat="31.7467780" lon="35.1106410">
    <ele>629.1</ele>
    <time>2018-09-22T07:31:17Z</time>
   </trkpt>
   <trkpt lat="31.7468220" lon="35.1105920">
    <ele>628.9</ele>
    <time>2018-09-22T07:31:18Z</time>
   </trkpt>
   <trkpt lat="31.7468690" lon="35.1105480">
    <ele>628.6</ele>
    <time>2018-09-22T07:31:19Z</time>
   </trkpt>
   <trkpt lat="31.7469170" lon="35.1105110">
    <ele>628.1</ele>
    <time>2018-09-22T07:31:20Z</time>
   </trkpt>
   <trkpt lat="31.7469610" lon="35.1104730">
    <ele>627.8</ele>
    <time>2018-09-22T07:31:21Z</time>
   </trkpt>
   <trkpt lat="31.7470170" lon="35.1104530">
    <ele>627.7</ele>
    <time>2018-09-22T07:31:22Z</time>
   </trkpt>
   <trkpt lat="31.7470750" lon="35.1104300">
    <ele>627.5</ele>
    <time>2018-09-22T07:31:23Z</time>
   </trkpt>
   <trkpt lat="31.7471210" lon="35.1103940">
    <ele>627.4</ele>
    <time>2018-09-22T07:31:24Z</time>
   </trkpt>
   <trkpt lat="31.7471680" lon="35.1103480">
    <ele>627.2</ele>
    <time>2018-09-22T07:31:25Z</time>
   </trkpt>
   <trkpt lat="31.7472250" lon="35.1103030">
    <ele>626.8</ele>
    <time>2018-09-22T07:31:26Z</time>
   </trkpt>
   <trkpt lat="31.7472840" lon="35.1102730">
    <ele>626.3</ele>
    <time>2018-09-22T07:31:27Z</time>
   </trkpt>
   <trkpt lat="31.7473350" lon="35.1102350">
    <ele>626.0</ele>
    <time>2018-09-22T07:31:28Z</time>
   </trkpt>
   <trkpt lat="31.7473880" lon="35.1101840">
    <ele>625.6</ele>
    <time>2018-09-22T07:31:29Z</time>
   </trkpt>
   <trkpt lat="31.7474430" lon="35.1101310">
    <ele>625.2</ele>
    <time>2018-09-22T07:31:30Z</time>
   </trkpt>
   <trkpt lat="31.7475060" lon="35.1100840">
    <ele>624.4</ele>
    <time>2018-09-22T07:31:31Z</time>
   </trkpt>
   <trkpt lat="31.7475620" lon="35.1100540">
    <ele>623.8</ele>
    <time>2018-09-22T07:31:32Z</time>
   </trkpt>
   <trkpt lat="31.7476080" lon="35.1100150">
    <ele>623.6</ele>
    <time>2018-09-22T07:31:33Z</time>
   </trkpt>
   <trkpt lat="31.7476450" lon="35.1099870">
    <ele>623.3</ele>
    <time>2018-09-22T07:31:34Z</time>
   </trkpt>
   <trkpt lat="31.7476810" lon="35.1099630">
    <ele>623.0</ele>
    <time>2018-09-22T07:31:35Z</time>
   </trkpt>
   <trkpt lat="31.7477210" lon="35.1099430">
    <ele>622.6</ele>
    <time>2018-09-22T07:31:36Z</time>
   </trkpt>
   <trkpt lat="31.7477520" lon="35.1099290">
    <ele>622.4</ele>
    <time>2018-09-22T07:31:37Z</time>
   </trkpt>
   <trkpt lat="31.7477860" lon="35.1099090">
    <ele>622.2</ele>
    <time>2018-09-22T07:31:38Z</time>
   </trkpt>
   <trkpt lat="31.7478230" lon="35.1098950">
    <ele>622.1</ele>
    <time>2018-09-22T07:31:39Z</time>
   </trkpt>
   <trkpt lat="31.7478520" lon="35.1098860">
    <ele>622.1</ele>
    <time>2018-09-22T07:31:40Z</time>
   </trkpt>
   <trkpt lat="31.7478810" lon="35.1098700">
    <ele>622.0</ele>
    <time>2018-09-22T07:31:41Z</time>
   </trkpt>
   <trkpt lat="31.7479040" lon="35.1098450">
    <ele>621.9</ele>
    <time>2018-09-22T07:31:42Z</time>
   </trkpt>
   <trkpt lat="31.7479430" lon="35.1098200">
    <ele>621.8</ele>
    <time>2018-09-22T07:31:43Z</time>
   </trkpt>
   <trkpt lat="31.7479790" lon="35.1097890">
    <ele>621.7</ele>
    <time>2018-09-22T07:31:44Z</time>
   </trkpt>
   <trkpt lat="31.7480190" lon="35.1097460">
    <ele>621.5</ele>
    <time>2018-09-22T07:31:45Z</time>
   </trkpt>
   <trkpt lat="31.7480570" lon="35.1097100">
    <ele>621.2</ele>
    <time>2018-09-22T07:31:46Z</time>
   </trkpt>
   <trkpt lat="31.7480990" lon="35.1096800">
    <ele>620.8</ele>
    <time>2018-09-22T07:31:47Z</time>
   </trkpt>
   <trkpt lat="31.7481440" lon="35.1096470">
    <ele>620.4</ele>
    <time>2018-09-22T07:31:48Z</time>
   </trkpt>
   <trkpt lat="31.7481800" lon="35.1096310">
    <ele>620.1</ele>
    <time>2018-09-22T07:31:49Z</time>
   </trkpt>
   <trkpt lat="31.7482190" lon="35.1096070">
    <ele>619.9</ele>
    <time>2018-09-22T07:31:50Z</time>
   </trkpt>
   <trkpt lat="31.7482600" lon="35.1095840">
    <ele>619.7</ele>
    <time>2018-09-22T07:31:51Z</time>
   </trkpt>
   <trkpt lat="31.7482990" lon="35.1095670">
    <ele>619.5</ele>
    <time>2018-09-22T07:31:52Z</time>
   </trkpt>
   <trkpt lat="31.7483370" lon="35.1095480">
    <ele>619.1</ele>
    <time>2018-09-22T07:31:53Z</time>
   </trkpt>
   <trkpt lat="31.7483770" lon="35.1095240">
    <ele>618.8</ele>
    <time>2018-09-22T07:31:54Z</time>
   </trkpt>
   <trkpt lat="31.7484160" lon="35.1094950">
    <ele>618.4</ele>
    <time>2018-09-22T07:31:55Z</time>
   </trkpt>
   <trkpt lat="31.7484570" lon="35.1094780">
    <ele>618.2</ele>
    <time>2018-09-22T07:31:56Z</time>
   </trkpt>
   <trkpt lat="31.7484980" lon="35.1094570">
    <ele>618.1</ele>
    <time>2018-09-22T07:31:57Z</time>
   </trkpt>
   <trkpt lat="31.7485390" lon="35.1094290">
    <ele>617.9</ele>
    <time>2018-09-22T07:31:58Z</time>
   </trkpt>
   <trkpt lat="31.7485610" lon="35.1093940">
    <ele>617.8</ele>
    <time>2018-09-22T07:31:59Z</time>
   </trkpt>
   <trkpt lat="31.7485910" lon="35.1093720">
    <ele>617.6</ele>
    <time>2018-09-22T07:32:00Z</time>
   </trkpt>
   <trkpt lat="31.7486210" lon="35.1093350">
    <ele>617.2</ele>
    <time>2018-09-22T07:32:01Z</time>
   </trkpt>
   <trkpt lat="31.7486480" lon="35.1093000">
    <ele>616.9</ele>
    <time>2018-09-22T07:32:02Z</time>
   </trkpt>
   <trkpt lat="31.7486830" lon="35.1092810">
    <ele>616.7</ele>
    <time>2018-09-22T07:32:03Z</time>
   </trkpt>
   <trkpt lat="31.7487180" lon="35.1092590">
    <ele>616.6</ele>
    <time>2018-09-22T07:32:04Z</time>
   </trkpt>
   <trkpt lat="31.7487430" lon="35.1092370">
    <ele>616.6</ele>
    <time>2018-09-22T07:32:05Z</time>
   </trkpt>
   <trkpt lat="31.7487760" lon="35.1092300">
    <ele>616.6</ele>
    <time>2018-09-22T07:32:07Z</time>
   </trkpt>
   <trkpt lat="31.7488370" lon="35.1092010">
    <ele>616.5</ele>
    <time>2018-09-22T07:32:09Z</time>
   </trkpt>
   <trkpt lat="31.7488770" lon="35.1091950">
    <ele>616.5</ele>
    <time>2018-09-22T07:32:11Z</time>
   </trkpt>
   <trkpt lat="31.7489070" lon="35.1091940">
    <ele>616.5</ele>
    <time>2018-09-22T07:32:12Z</time>
   </trkpt>
   <trkpt lat="31.7489660" lon="35.1091960">
    <ele>616.5</ele>
    <time>2018-09-22T07:32:14Z</time>
   </trkpt>
   <trkpt lat="31.7490200" lon="35.1091990">
    <ele>616.5</ele>
    <time>2018-09-22T07:32:16Z</time>
   </trkpt>
   <trkpt lat="31.7490740" lon="35.1091770">
    <ele>616.5</ele>
    <time>2018-09-22T07:32:18Z</time>
   </trkpt>
   <trkpt lat="31.7491020" lon="35.1091530">
    <ele>616.5</ele>
    <time>2018-09-22T07:32:19Z</time>
   </trkpt>
   <trkpt lat="31.7491310" lon="35.1091120">
    <ele>616.5</ele>
    <time>2018-09-22T07:32:20Z</time>
   </trkpt>
   <trkpt lat="31.7491700" lon="35.1090790">
    <ele>616.4</ele>
    <time>2018-09-22T07:32:21Z</time>
   </trkpt>
   <trkpt lat="31.7492160" lon="35.1090440">
    <ele>616.3</ele>
    <time>2018-09-22T07:32:22Z</time>
   </trkpt>
   <trkpt lat="31.7492510" lon="35.1090050">
    <ele>616.2</ele>
    <time>2018-09-22T07:32:23Z</time>
   </trkpt>
   <trkpt lat="31.7492870" lon="35.1089630">
    <ele>616.2</ele>
    <time>2018-09-22T07:32:24Z</time>
   </trkpt>
   <trkpt lat="31.7493190" lon="35.1089290">
    <ele>616.1</ele>
    <time>2018-09-22T07:32:25Z</time>
   </trkpt>
   <trkpt lat="31.7493550" lon="35.1088840">
    <ele>615.9</ele>
    <time>2018-09-22T07:32:26Z</time>
   </trkpt>
   <trkpt lat="31.7493970" lon="35.1088310">
    <ele>615.6</ele>
    <time>2018-09-22T07:32:27Z</time>
   </trkpt>
   <trkpt lat="31.7494440" lon="35.1087760">
    <ele>615.4</ele>
    <time>2018-09-22T07:32:28Z</time>
   </trkpt>
   <trkpt lat="31.7494920" lon="35.1087250">
    <ele>615.2</ele>
    <time>2018-09-22T07:32:29Z</time>
   </trkpt>
   <trkpt lat="31.7495400" lon="35.1086840">
    <ele>615.0</ele>
    <time>2018-09-22T07:32:30Z</time>
   </trkpt>
   <trkpt lat="31.7495850" lon="35.1086700">
    <ele>615.0</ele>
    <time>2018-09-22T07:32:31Z</time>
   </trkpt>
   <trkpt lat="31.7496200" lon="35.1086550">
    <ele>615.0</ele>
    <time>2018-09-22T07:32:32Z</time>
   </trkpt>
   <trkpt lat="31.7496410" lon="35.1086270">
    <ele>615.0</ele>
    <time>2018-09-22T07:32:33Z</time>
   </trkpt>
   <trkpt lat="31.7496490" lon="35.1085940">
    <ele>614.8</ele>
    <time>2018-09-22T07:32:34Z</time>
   </trkpt>
   <trkpt lat="31.7496540" lon="35.1085620">
    <ele>614.8</ele>
    <time>2018-09-22T07:32:35Z</time>
   </trkpt>
   <trkpt lat="31.7496410" lon="35.1085230">
    <ele>614.6</ele>
    <time>2018-09-22T07:32:36Z</time>
   </trkpt>
   <trkpt lat="31.7496260" lon="35.1084830">
    <ele>614.5</ele>
    <time>2018-09-22T07:32:38Z</time>
   </trkpt>
   <trkpt lat="31.7496370" lon="35.1084100">
    <ele>614.3</ele>
    <time>2018-09-22T07:35:04Z</time>
   </trkpt>
   <trkpt lat="31.7496340" lon="35.1083860">
    <ele>614.2</ele>
    <time>2018-09-22T07:35:05Z</time>
   </trkpt>
   <trkpt lat="31.7496370" lon="35.1083450">
    <ele>614.1</ele>
    <time>2018-09-22T07:35:06Z</time>
   </trkpt>
   <trkpt lat="31.7496220" lon="35.1082880">
    <ele>614.1</ele>
    <time>2018-09-22T07:35:08Z</time>
   </trkpt>
   <trkpt lat="31.7496090" lon="35.1082590">
    <ele>614.1</ele>
    <time>2018-09-22T07:35:09Z</time>
   </trkpt>
   <trkpt lat="31.7496050" lon="35.1082220">
    <ele>614.2</ele>
    <time>2018-09-22T07:35:10Z</time>
   </trkpt>
   <trkpt lat="31.7496010" lon="35.1081620">
    <ele>614.3</ele>
    <time>2018-09-22T07:35:12Z</time>
   </trkpt>
   <trkpt lat="31.7496090" lon="35.1081050">
    <ele>614.3</ele>
    <time>2018-09-22T07:35:14Z</time>
   </trkpt>
   <trkpt lat="31.7496150" lon="35.1080710">
    <ele>614.3</ele>
    <time>2018-09-22T07:35:15Z</time>
   </trkpt>
   <trkpt lat="31.7496250" lon="35.1080380">
    <ele>614.3</ele>
    <time>2018-09-22T07:35:16Z</time>
   </trkpt>
   <trkpt lat="31.7496330" lon="35.1080060">
    <ele>614.3</ele>
    <time>2018-09-22T07:35:17Z</time>
   </trkpt>
   <trkpt lat="31.7496470" lon="35.1079520">
    <ele>614.3</ele>
    <time>2018-09-22T07:35:19Z</time>
   </trkpt>
   <trkpt lat="31.7496540" lon="35.1079140">
    <ele>614.2</ele>
    <time>2018-09-22T07:35:20Z</time>
   </trkpt>
   <trkpt lat="31.7496610" lon="35.1078730">
    <ele>614.2</ele>
    <time>2018-09-22T07:35:21Z</time>
   </trkpt>
   <trkpt lat="31.7496660" lon="35.1078360">
    <ele>614.1</ele>
    <time>2018-09-22T07:35:22Z</time>
   </trkpt>
   <trkpt lat="31.7496750" lon="35.1077900">
    <ele>614.0</ele>
    <time>2018-09-22T07:35:23Z</time>
   </trkpt>
   <trkpt lat="31.7496770" lon="35.1077320">
    <ele>613.9</ele>
    <time>2018-09-22T07:35:25Z</time>
   </trkpt>
   <trkpt lat="31.7496700" lon="35.1076920">
    <ele>613.9</ele>
    <time>2018-09-22T07:35:27Z</time>
   </trkpt>
   <trkpt lat="31.7496690" lon="35.1076450">
    <ele>613.9</ele>
    <time>2018-09-22T07:35:29Z</time>
   </trkpt>
   <trkpt lat="31.7496610" lon="35.1075990">
    <ele>614.0</ele>
    <time>2018-09-22T07:35:31Z</time>
   </trkpt>
   <trkpt lat="31.7496580" lon="35.1075570">
    <ele>614.2</ele>
    <time>2018-09-22T07:35:33Z</time>
   </trkpt>
   <trkpt lat="31.7496550" lon="35.1075070">
    <ele>614.5</ele>
    <time>2018-09-22T07:35:35Z</time>
   </trkpt>
   <trkpt lat="31.7496620" lon="35.1074750">
    <ele>614.7</ele>
    <time>2018-09-22T07:35:36Z</time>
   </trkpt>
   <trkpt lat="31.7496620" lon="35.1074410">
    <ele>614.8</ele>
    <time>2018-09-22T07:35:38Z</time>
   </trkpt>
   <trkpt lat="31.7496530" lon="35.1073980">
    <ele>615.1</ele>
    <time>2018-09-22T07:35:40Z</time>
   </trkpt>
   <trkpt lat="31.7496480" lon="35.1073590">
    <ele>615.3</ele>
    <time>2018-09-22T07:35:42Z</time>
   </trkpt>
   <trkpt lat="31.7496420" lon="35.1073210">
    <ele>615.7</ele>
    <time>2018-09-22T07:35:44Z</time>
   </trkpt>
   <trkpt lat="31.7496450" lon="35.1072770">
    <ele>616.1</ele>
    <time>2018-09-22T07:35:46Z</time>
   </trkpt>
   <trkpt lat="31.7496360" lon="35.1072470">
    <ele>616.3</ele>
    <time>2018-09-22T07:35:48Z</time>
   </trkpt>
   <trkpt lat="31.7496160" lon="35.1072200">
    <ele>616.4</ele>
    <time>2018-09-22T07:35:51Z</time>
   </trkpt>
   <trkpt lat="31.7496060" lon="35.1071880">
    <ele>616.6</ele>
    <time>2018-09-22T07:35:53Z</time>
   </trkpt>
   <trkpt lat="31.7496010" lon="35.1071510">
    <ele>616.8</ele>
    <time>2018-09-22T07:35:55Z</time>
   </trkpt>
   <trkpt lat="31.7496000" lon="35.1070910">
    <ele>617.3</ele>
    <time>2018-09-22T07:35:57Z</time>
   </trkpt>
   <trkpt lat="31.7495850" lon="35.1070550">
    <ele>617.6</ele>
    <time>2018-09-22T07:35:59Z</time>
   </trkpt>
   <trkpt lat="31.7495700" lon="35.1070170">
    <ele>617.8</ele>
    <time>2018-09-22T07:36:01Z</time>
   </trkpt>
   <trkpt lat="31.7495580" lon="35.1069810">
    <ele>618.0</ele>
    <time>2018-09-22T07:36:03Z</time>
   </trkpt>
   <trkpt lat="31.7495550" lon="35.1069380">
    <ele>618.3</ele>
    <time>2018-09-22T07:36:05Z</time>
   </trkpt>
   <trkpt lat="31.7495410" lon="35.1068900">
    <ele>618.6</ele>
    <time>2018-09-22T07:36:07Z</time>
   </trkpt>
   <trkpt lat="31.7495350" lon="35.1068420">
    <ele>618.9</ele>
    <time>2018-09-22T07:36:09Z</time>
   </trkpt>
   <trkpt lat="31.7495170" lon="35.1067970">
    <ele>619.2</ele>
    <time>2018-09-22T07:36:11Z</time>
   </trkpt>
   <trkpt lat="31.7495080" lon="35.1067500">
    <ele>619.3</ele>
    <time>2018-09-22T07:36:13Z</time>
   </trkpt>
   <trkpt lat="31.7494950" lon="35.1067010">
    <ele>619.4</ele>
    <time>2018-09-22T07:36:15Z</time>
   </trkpt>
   <trkpt lat="31.7494770" lon="35.1066480">
    <ele>619.5</ele>
    <time>2018-09-22T07:36:17Z</time>
   </trkpt>
   <trkpt lat="31.7494620" lon="35.1066000">
    <ele>619.6</ele>
    <time>2018-09-22T07:36:19Z</time>
   </trkpt>
   <trkpt lat="31.7494530" lon="35.1065570">
    <ele>619.8</ele>
    <time>2018-09-22T07:36:21Z</time>
   </trkpt>
   <trkpt lat="31.7494320" lon="35.1065000">
    <ele>620.0</ele>
    <time>2018-09-22T07:36:23Z</time>
   </trkpt>
   <trkpt lat="31.7494200" lon="35.1064680">
    <ele>620.2</ele>
    <time>2018-09-22T07:36:24Z</time>
   </trkpt>
   <trkpt lat="31.7494000" lon="35.1064250">
    <ele>620.4</ele>
    <time>2018-09-22T07:36:26Z</time>
   </trkpt>
   <trkpt lat="31.7493880" lon="35.1063810">
    <ele>620.5</ele>
    <time>2018-09-22T07:36:28Z</time>
   </trkpt>
   <trkpt lat="31.7493830" lon="35.1063340">
    <ele>620.6</ele>
    <time>2018-09-22T07:36:30Z</time>
   </trkpt>
   <trkpt lat="31.7493760" lon="35.1062880">
    <ele>620.6</ele>
    <time>2018-09-22T07:36:32Z</time>
   </trkpt>
   <trkpt lat="31.7493840" lon="35.1062420">
    <ele>620.6</ele>
    <time>2018-09-22T07:36:34Z</time>
   </trkpt>
   <trkpt lat="31.7493680" lon="35.1061940">
    <ele>620.6</ele>
    <time>2018-09-22T07:36:36Z</time>
   </trkpt>
   <trkpt lat="31.7493650" lon="35.1061600">
    <ele>620.6</ele>
    <time>2018-09-22T07:36:37Z</time>
   </trkpt>
   <trkpt lat="31.7493510" lon="35.1061160">
    <ele>620.6</ele>
    <time>2018-09-22T07:36:39Z</time>
   </trkpt>
   <trkpt lat="31.7493410" lon="35.1060610">
    <ele>620.6</ele>
    <time>2018-09-22T07:36:41Z</time>
   </trkpt>
   <trkpt lat="31.7493180" lon="35.1060130">
    <ele>620.6</ele>
    <time>2018-09-22T07:36:43Z</time>
   </trkpt>
   <trkpt lat="31.7492990" lon="35.1059790">
    <ele>620.6</ele>
    <time>2018-09-22T07:36:44Z</time>
   </trkpt>
   <trkpt lat="31.7492870" lon="35.1059450">
    <ele>620.6</ele>
    <time>2018-09-22T07:36:45Z</time>
   </trkpt>
   <trkpt lat="31.7492790" lon="35.1059150">
    <ele>620.6</ele>
    <time>2018-09-22T07:36:46Z</time>
   </trkpt>
   <trkpt lat="31.7492640" lon="35.1058860">
    <ele>620.6</ele>
    <time>2018-09-22T07:36:47Z</time>
   </trkpt>
   <trkpt lat="31.7492490" lon="35.1058480">
    <ele>620.6</ele>
    <time>2018-09-22T07:36:48Z</time>
   </trkpt>
   <trkpt lat="31.7492370" lon="35.1058130">
    <ele>620.6</ele>
    <time>2018-09-22T07:36:49Z</time>
   </trkpt>
   <trkpt lat="31.7492260" lon="35.1057700">
    <ele>620.6</ele>
    <time>2018-09-22T07:36:50Z</time>
   </trkpt>
   <trkpt lat="31.7492170" lon="35.1057310">
    <ele>620.6</ele>
    <time>2018-09-22T07:36:51Z</time>
   </trkpt>
   <trkpt lat="31.7492080" lon="35.1056990">
    <ele>620.6</ele>
    <time>2018-09-22T07:36:52Z</time>
   </trkpt>
   <trkpt lat="31.7491970" lon="35.1056610">
    <ele>620.6</ele>
    <time>2018-09-22T07:36:53Z</time>
   </trkpt>
   <trkpt lat="31.7491870" lon="35.1056300">
    <ele>620.7</ele>
    <time>2018-09-22T07:36:54Z</time>
   </trkpt>
   <trkpt lat="31.7491780" lon="35.1055770">
    <ele>620.7</ele>
    <time>2018-09-22T07:36:56Z</time>
   </trkpt>
   <trkpt lat="31.7491620" lon="35.1055230">
    <ele>620.8</ele>
    <time>2018-09-22T07:36:58Z</time>
   </trkpt>
   <trkpt lat="31.7491510" lon="35.1054760">
    <ele>621.0</ele>
    <time>2018-09-22T07:37:00Z</time>
   </trkpt>
   <trkpt lat="31.7491350" lon="35.1054290">
    <ele>621.3</ele>
    <time>2018-09-22T07:37:02Z</time>
   </trkpt>
   <trkpt lat="31.7491220" lon="35.1053720">
    <ele>621.7</ele>
    <time>2018-09-22T07:37:04Z</time>
   </trkpt>
   <trkpt lat="31.7491060" lon="35.1053240">
    <ele>621.9</ele>
    <time>2018-09-22T07:37:06Z</time>
   </trkpt>
   <trkpt lat="31.7490930" lon="35.1052780">
    <ele>622.1</ele>
    <time>2018-09-22T07:37:08Z</time>
   </trkpt>
   <trkpt lat="31.7490750" lon="35.1052300">
    <ele>622.2</ele>
    <time>2018-09-22T07:37:10Z</time>
   </trkpt>
   <trkpt lat="31.7490580" lon="35.1051800">
    <ele>622.4</ele>
    <time>2018-09-22T07:37:12Z</time>
   </trkpt>
   <trkpt lat="31.7490460" lon="35.1051330">
    <ele>622.8</ele>
    <time>2018-09-22T07:37:14Z</time>
   </trkpt>
   <trkpt lat="31.7490320" lon="35.1050800">
    <ele>623.2</ele>
    <time>2018-09-22T07:37:16Z</time>
   </trkpt>
   <trkpt lat="31.7490230" lon="35.1050480">
    <ele>623.3</ele>
    <time>2018-09-22T07:37:17Z</time>
   </trkpt>
   <trkpt lat="31.7490140" lon="35.1050050">
    <ele>623.5</ele>
    <time>2018-09-22T07:37:19Z</time>
   </trkpt>
   <trkpt lat="31.7489980" lon="35.1049630">
    <ele>623.7</ele>
    <time>2018-09-22T07:37:21Z</time>
   </trkpt>
   <trkpt lat="31.7489790" lon="35.1049170">
    <ele>624.0</ele>
    <time>2018-09-22T07:37:23Z</time>
   </trkpt>
   <trkpt lat="31.7489640" lon="35.1048680">
    <ele>624.5</ele>
    <time>2018-09-22T07:37:25Z</time>
   </trkpt>
   <trkpt lat="31.7489550" lon="35.1048250">
    <ele>624.7</ele>
    <time>2018-09-22T07:37:27Z</time>
   </trkpt>
   <trkpt lat="31.7489430" lon="35.1047670">
    <ele>624.9</ele>
    <time>2018-09-22T07:37:29Z</time>
   </trkpt>
   <trkpt lat="31.7489400" lon="35.1047280">
    <ele>625.2</ele>
    <time>2018-09-22T07:37:30Z</time>
   </trkpt>
   <trkpt lat="31.7489200" lon="35.1046870">
    <ele>625.6</ele>
    <time>2018-09-22T07:37:32Z</time>
   </trkpt>
   <trkpt lat="31.7489090" lon="35.1046490">
    <ele>625.9</ele>
    <time>2018-09-22T07:37:34Z</time>
   </trkpt>
   <trkpt lat="31.7488970" lon="35.1046210">
    <ele>626.2</ele>
    <time>2018-09-22T07:37:35Z</time>
   </trkpt>
   <trkpt lat="31.7488900" lon="35.1045860">
    <ele>626.5</ele>
    <time>2018-09-22T07:37:37Z</time>
   </trkpt>
   <trkpt lat="31.7488750" lon="35.1045550">
    <ele>626.8</ele>
    <time>2018-09-22T07:37:39Z</time>
   </trkpt>
   <trkpt lat="31.7488560" lon="35.1045110">
    <ele>627.1</ele>
    <time>2018-09-22T07:37:41Z</time>
   </trkpt>
   <trkpt lat="31.7488420" lon="35.1044780">
    <ele>627.3</ele>
    <time>2018-09-22T07:37:42Z</time>
   </trkpt>
   <trkpt lat="31.7488220" lon="35.1044270">
    <ele>627.4</ele>
    <time>2018-09-22T07:37:44Z</time>
   </trkpt>
   <trkpt lat="31.7488020" lon="35.1043760">
    <ele>627.5</ele>
    <time>2018-09-22T07:37:46Z</time>
   </trkpt>
   <trkpt lat="31.7487790" lon="35.1043520">
    <ele>627.5</ele>
    <time>2018-09-22T07:37:48Z</time>
   </trkpt>
   <trkpt lat="31.7487520" lon="35.1043090">
    <ele>627.6</ele>
    <time>2018-09-22T07:37:50Z</time>
   </trkpt>
   <trkpt lat="31.7487360" lon="35.1042810">
    <ele>627.7</ele>
    <time>2018-09-22T07:37:51Z</time>
   </trkpt>
   <trkpt lat="31.7487190" lon="35.1042380">
    <ele>627.7</ele>
    <time>2018-09-22T07:37:53Z</time>
   </trkpt>
   <trkpt lat="31.7486970" lon="35.1041900">
    <ele>627.8</ele>
    <time>2018-09-22T07:37:55Z</time>
   </trkpt>
   <trkpt lat="31.7486840" lon="35.1041400">
    <ele>628.1</ele>
    <time>2018-09-22T07:37:57Z</time>
   </trkpt>
   <trkpt lat="31.7486670" lon="35.1040910">
    <ele>628.4</ele>
    <time>2018-09-22T07:37:59Z</time>
   </trkpt>
   <trkpt lat="31.7486520" lon="35.1040580">
    <ele>628.6</ele>
    <time>2018-09-22T07:38:01Z</time>
   </trkpt>
   <trkpt lat="31.7486360" lon="35.1040180">
    <ele>628.8</ele>
    <time>2018-09-22T07:38:03Z</time>
   </trkpt>
   <trkpt lat="31.7486220" lon="35.1039860">
    <ele>628.9</ele>
    <time>2018-09-22T07:38:04Z</time>
   </trkpt>
   <trkpt lat="31.7486070" lon="35.1039430">
    <ele>629.1</ele>
    <time>2018-09-22T07:38:06Z</time>
   </trkpt>
   <trkpt lat="31.7485980" lon="35.1038990">
    <ele>629.2</ele>
    <time>2018-09-22T07:38:08Z</time>
   </trkpt>
   <trkpt lat="31.7485830" lon="35.1038560">
    <ele>629.4</ele>
    <time>2018-09-22T07:38:10Z</time>
   </trkpt>
   <trkpt lat="31.7485590" lon="35.1038110">
    <ele>629.7</ele>
    <time>2018-09-22T07:38:12Z</time>
   </trkpt>
   <trkpt lat="31.7485470" lon="35.1037720">
    <ele>630.0</ele>
    <time>2018-09-22T07:38:14Z</time>
   </trkpt>
   <trkpt lat="31.7485420" lon="35.1037210">
    <ele>630.1</ele>
    <time>2018-09-22T07:38:16Z</time>
   </trkpt>
   <trkpt lat="31.7485250" lon="35.1036740">
    <ele>630.2</ele>
    <time>2018-09-22T07:38:19Z</time>
   </trkpt>
   <trkpt lat="31.7485090" lon="35.1036190">
    <ele>630.3</ele>
    <time>2018-09-22T07:38:22Z</time>
   </trkpt>
   <trkpt lat="31.7484830" lon="35.1035660">
    <ele>630.4</ele>
    <time>2018-09-22T07:38:25Z</time>
   </trkpt>
   <trkpt lat="31.7484800" lon="35.1035240">
    <ele>630.5</ele>
    <time>2018-09-22T07:38:27Z</time>
   </trkpt>
   <trkpt lat="31.7484780" lon="35.1034920">
    <ele>630.6</ele>
    <time>2018-09-22T07:38:28Z</time>
   </trkpt>
   <trkpt lat="31.7484680" lon="35.1034450">
    <ele>630.9</ele>
    <time>2018-09-22T07:38:30Z</time>
   </trkpt>
   <trkpt lat="31.7484520" lon="35.1034160">
    <ele>631.1</ele>
    <time>2018-09-22T07:38:32Z</time>
   </trkpt>
   <trkpt lat="31.7484360" lon="35.1033690">
    <ele>631.5</ele>
    <time>2018-09-22T07:38:34Z</time>
   </trkpt>
   <trkpt lat="31.7484210" lon="35.1033340">
    <ele>631.7</ele>
    <time>2018-09-22T07:38:36Z</time>
   </trkpt>
   <trkpt lat="31.7484110" lon="35.1033010">
    <ele>631.9</ele>
    <time>2018-09-22T07:38:38Z</time>
   </trkpt>
   <trkpt lat="31.7483930" lon="35.1032700">
    <ele>632.1</ele>
    <time>2018-09-22T07:38:40Z</time>
   </trkpt>
   <trkpt lat="31.7483850" lon="35.1032340">
    <ele>632.5</ele>
    <time>2018-09-22T07:38:42Z</time>
   </trkpt>
   <trkpt lat="31.7483670" lon="35.1031970">
    <ele>632.8</ele>
    <time>2018-09-22T07:38:44Z</time>
   </trkpt>
   <trkpt lat="31.7483570" lon="35.1031510">
    <ele>633.0</ele>
    <time>2018-09-22T07:38:46Z</time>
   </trkpt>
   <trkpt lat="31.7483490" lon="35.1031080">
    <ele>633.1</ele>
    <time>2018-09-22T07:38:48Z</time>
   </trkpt>
   <trkpt lat="31.7483360" lon="35.1030760">
    <ele>633.2</ele>
    <time>2018-09-22T07:38:50Z</time>
   </trkpt>
   <trkpt lat="31.7483250" lon="35.1030190">
    <ele>633.4</ele>
    <time>2018-09-22T07:38:52Z</time>
   </trkpt>
   <trkpt lat="31.7483040" lon="35.1029840">
    <ele>633.7</ele>
    <time>2018-09-22T07:38:54Z</time>
   </trkpt>
   <trkpt lat="31.7483010" lon="35.1029260">
    <ele>634.1</ele>
    <time>2018-09-22T07:38:56Z</time>
   </trkpt>
   <trkpt lat="31.7483010" lon="35.1028900">
    <ele>634.2</ele>
    <time>2018-09-22T07:38:58Z</time>
   </trkpt>
   <trkpt lat="31.7482800" lon="35.1028570">
    <ele>634.3</ele>
    <time>2018-09-22T07:39:00Z</time>
   </trkpt>
   <trkpt lat="31.7482640" lon="35.1028050">
    <ele>634.4</ele>
    <time>2018-09-22T07:39:02Z</time>
   </trkpt>
   <trkpt lat="31.7482490" lon="35.1027720">
    <ele>634.5</ele>
    <time>2018-09-22T07:39:04Z</time>
   </trkpt>
   <trkpt lat="31.7482330" lon="35.1027330">
    <ele>634.6</ele>
    <time>2018-09-22T07:39:06Z</time>
   </trkpt>
   <trkpt lat="31.7482240" lon="35.1026950">
    <ele>634.7</ele>
    <time>2018-09-22T07:39:08Z</time>
   </trkpt>
   <trkpt lat="31.7481970" lon="35.1026330">
    <ele>635.1</ele>
    <time>2018-09-22T07:39:11Z</time>
   </trkpt>
   <trkpt lat="31.7481950" lon="35.1025970">
    <ele>635.4</ele>
    <time>2018-09-22T07:39:13Z</time>
   </trkpt>
   <trkpt lat="31.7481950" lon="35.1025420">
    <ele>635.7</ele>
    <time>2018-09-22T07:39:16Z</time>
   </trkpt>
   <trkpt lat="31.7481800" lon="35.1024950">
    <ele>635.8</ele>
    <time>2018-09-22T07:39:19Z</time>
   </trkpt>
   <trkpt lat="31.7481760" lon="35.1024550">
    <ele>636.0</ele>
    <time>2018-09-22T07:39:21Z</time>
   </trkpt>
   <trkpt lat="31.7481790" lon="35.1024190">
    <ele>636.2</ele>
    <time>2018-09-22T07:39:23Z</time>
   </trkpt>
   <trkpt lat="31.7481730" lon="35.1023680">
    <ele>636.5</ele>
    <time>2018-09-22T07:39:25Z</time>
   </trkpt>
   <trkpt lat="31.7481710" lon="35.1023240">
    <ele>636.8</ele>
    <time>2018-09-22T07:39:27Z</time>
   </trkpt>
   <trkpt lat="31.7481600" lon="35.1022870">
    <ele>637.0</ele>
    <time>2018-09-22T07:39:29Z</time>
   </trkpt>
   <trkpt lat="31.7481470" lon="35.1022590">
    <ele>637.1</ele>
    <time>2018-09-22T07:39:31Z</time>
   </trkpt>
   <trkpt lat="31.7481420" lon="35.1022190">
    <ele>637.2</ele>
    <time>2018-09-22T07:39:33Z</time>
   </trkpt>
   <trkpt lat="31.7481460" lon="35.1021740">
    <ele>637.4</ele>
    <time>2018-09-22T07:39:36Z</time>
   </trkpt>
   <trkpt lat="31.7481490" lon="35.1021170">
    <ele>637.6</ele>
    <time>2018-09-22T07:39:38Z</time>
   </trkpt>
   <trkpt lat="31.7481450" lon="35.1020810">
    <ele>637.9</ele>
    <time>2018-09-22T07:39:40Z</time>
   </trkpt>
   <trkpt lat="31.7481440" lon="35.1020320">
    <ele>638.3</ele>
    <time>2018-09-22T07:39:42Z</time>
   </trkpt>
   <trkpt lat="31.7481420" lon="35.1019950">
    <ele>638.5</ele>
    <time>2018-09-22T07:39:44Z</time>
   </trkpt>
   <trkpt lat="31.7481350" lon="35.1019630">
    <ele>638.6</ele>
    <time>2018-09-22T07:39:46Z</time>
   </trkpt>
   <trkpt lat="31.7481220" lon="35.1019150">
    <ele>638.8</ele>
    <time>2018-09-22T07:39:48Z</time>
   </trkpt>
   <trkpt lat="31.7481040" lon="35.1018790">
    <ele>638.9</ele>
    <time>2018-09-22T07:39:50Z</time>
   </trkpt>
   <trkpt lat="31.7480890" lon="35.1018300">
    <ele>639.3</ele>
    <time>2018-09-22T07:39:53Z</time>
   </trkpt>
   <trkpt lat="31.7480820" lon="35.1017870">
    <ele>639.6</ele>
    <time>2018-09-22T07:39:55Z</time>
   </trkpt>
   <trkpt lat="31.7480850" lon="35.1017350">
    <ele>639.7</ele>
    <time>2018-09-22T07:39:57Z</time>
   </trkpt>
   <trkpt lat="31.7480740" lon="35.1016820">
    <ele>639.8</ele>
    <time>2018-09-22T07:39:59Z</time>
   </trkpt>
   <trkpt lat="31.7480670" lon="35.1016290">
    <ele>639.7</ele>
    <time>2018-09-22T07:40:01Z</time>
   </trkpt>
   <trkpt lat="31.7480620" lon="35.1015660">
    <ele>639.7</ele>
    <time>2018-09-22T07:40:03Z</time>
   </trkpt>
   <trkpt lat="31.7480680" lon="35.1015340">
    <ele>639.7</ele>
    <time>2018-09-22T07:40:04Z</time>
   </trkpt>
   <trkpt lat="31.7480660" lon="35.1014950">
    <ele>639.7</ele>
    <time>2018-09-22T07:40:05Z</time>
   </trkpt>
   <trkpt lat="31.7480680" lon="35.1014420">
    <ele>639.6</ele>
    <time>2018-09-22T07:40:07Z</time>
   </trkpt>
   <trkpt lat="31.7480740" lon="35.1014040">
    <ele>639.6</ele>
    <time>2018-09-22T07:40:08Z</time>
   </trkpt>
   <trkpt lat="31.7480680" lon="35.1013340">
    <ele>639.5</ele>
    <time>2018-09-22T07:40:10Z</time>
   </trkpt>
   <trkpt lat="31.7480600" lon="35.1012960">
    <ele>639.5</ele>
    <time>2018-09-22T07:40:11Z</time>
   </trkpt>
   <trkpt lat="31.7480590" lon="35.1012580">
    <ele>639.5</ele>
    <time>2018-09-22T07:40:12Z</time>
   </trkpt>
   <trkpt lat="31.7480580" lon="35.1012040">
    <ele>639.4</ele>
    <time>2018-09-22T07:40:13Z</time>
   </trkpt>
   <trkpt lat="31.7480560" lon="35.1011590">
    <ele>639.4</ele>
    <time>2018-09-22T07:40:14Z</time>
   </trkpt>
   <trkpt lat="31.7480570" lon="35.1011090">
    <ele>639.4</ele>
    <time>2018-09-22T07:40:15Z</time>
   </trkpt>
   <trkpt lat="31.7480540" lon="35.1010500">
    <ele>639.3</ele>
    <time>2018-09-22T07:40:16Z</time>
   </trkpt>
   <trkpt lat="31.7480460" lon="35.1010080">
    <ele>639.3</ele>
    <time>2018-09-22T07:40:17Z</time>
   </trkpt>
   <trkpt lat="31.7480300" lon="35.1009630">
    <ele>639.3</ele>
    <time>2018-09-22T07:40:18Z</time>
   </trkpt>
   <trkpt lat="31.7480280" lon="35.1009100">
    <ele>639.2</ele>
    <time>2018-09-22T07:40:19Z</time>
   </trkpt>
   <trkpt lat="31.7480320" lon="35.1008610">
    <ele>639.1</ele>
    <time>2018-09-22T07:40:20Z</time>
   </trkpt>
   <trkpt lat="31.7480350" lon="35.1008000">
    <ele>639.1</ele>
    <time>2018-09-22T07:40:21Z</time>
   </trkpt>
   <trkpt lat="31.7480380" lon="35.1007430">
    <ele>639.0</ele>
    <time>2018-09-22T07:40:22Z</time>
   </trkpt>
   <trkpt lat="31.7480380" lon="35.1006870">
    <ele>638.9</ele>
    <time>2018-09-22T07:40:23Z</time>
   </trkpt>
   <trkpt lat="31.7480390" lon="35.1006310">
    <ele>638.9</ele>
    <time>2018-09-22T07:40:24Z</time>
   </trkpt>
   <trkpt lat="31.7480440" lon="35.1005720">
    <ele>638.8</ele>
    <time>2018-09-22T07:40:25Z</time>
   </trkpt>
   <trkpt lat="31.7480560" lon="35.1005030">
    <ele>638.5</ele>
    <time>2018-09-22T07:40:26Z</time>
   </trkpt>
   <trkpt lat="31.7480640" lon="35.1004250">
    <ele>638.0</ele>
    <time>2018-09-22T07:40:27Z</time>
   </trkpt>
   <trkpt lat="31.7480770" lon="35.1003360">
    <ele>636.9</ele>
    <time>2018-09-22T07:40:28Z</time>
   </trkpt>
   <trkpt lat="31.7480990" lon="35.1002540">
    <ele>636.0</ele>
    <time>2018-09-22T07:40:29Z</time>
   </trkpt>
   <trkpt lat="31.7481240" lon="35.1001830">
    <ele>635.3</ele>
    <time>2018-09-22T07:40:30Z</time>
   </trkpt>
   <trkpt lat="31.7481630" lon="35.1001150">
    <ele>634.4</ele>
    <time>2018-09-22T07:40:31Z</time>
   </trkpt>
   <trkpt lat="31.7482090" lon="35.1000490">
    <ele>633.5</ele>
    <time>2018-09-22T07:40:32Z</time>
   </trkpt>
   <trkpt lat="31.7482560" lon="35.0999850">
    <ele>633.1</ele>
    <time>2018-09-22T07:40:33Z</time>
   </trkpt>
   <trkpt lat="31.7483100" lon="35.0999150">
    <ele>632.8</ele>
    <time>2018-09-22T07:40:34Z</time>
   </trkpt>
   <trkpt lat="31.7483660" lon="35.0998620">
    <ele>632.5</ele>
    <time>2018-09-22T07:40:35Z</time>
   </trkpt>
   <trkpt lat="31.7484070" lon="35.0998220">
    <ele>632.3</ele>
    <time>2018-09-22T07:40:36Z</time>
   </trkpt>
   <trkpt lat="31.7484530" lon="35.0997750">
    <ele>632.2</ele>
    <time>2018-09-22T07:40:37Z</time>
   </trkpt>
   <trkpt lat="31.7485080" lon="35.0997350">
    <ele>632.0</ele>
    <time>2018-09-22T07:40:38Z</time>
   </trkpt>
   <trkpt lat="31.7485870" lon="35.0997020">
    <ele>631.3</ele>
    <time>2018-09-22T07:40:39Z</time>
   </trkpt>
   <trkpt lat="31.7486400" lon="35.0996760">
    <ele>630.8</ele>
    <time>2018-09-22T07:40:40Z</time>
   </trkpt>
   <trkpt lat="31.7486680" lon="35.0996310">
    <ele>630.4</ele>
    <time>2018-09-22T07:40:41Z</time>
   </trkpt>
   <trkpt lat="31.7487160" lon="35.0995750">
    <ele>629.6</ele>
    <time>2018-09-22T07:40:42Z</time>
   </trkpt>
   <trkpt lat="31.7487700" lon="35.0995240">
    <ele>628.8</ele>
    <time>2018-09-22T07:40:43Z</time>
   </trkpt>
   <trkpt lat="31.7488230" lon="35.0994530">
    <ele>627.8</ele>
    <time>2018-09-22T07:40:44Z</time>
   </trkpt>
   <trkpt lat="31.7488820" lon="35.0994010">
    <ele>627.0</ele>
    <time>2018-09-22T07:40:45Z</time>
   </trkpt>
   <trkpt lat="31.7489380" lon="35.0993460">
    <ele>626.1</ele>
    <time>2018-09-22T07:40:46Z</time>
   </trkpt>
   <trkpt lat="31.7490060" lon="35.0993040">
    <ele>625.1</ele>
    <time>2018-09-22T07:40:47Z</time>
   </trkpt>
   <trkpt lat="31.7490920" lon="35.0992480">
    <ele>623.8</ele>
    <time>2018-09-22T07:40:48Z</time>
   </trkpt>
   <trkpt lat="31.7491550" lon="35.0992420">
    <ele>623.0</ele>
    <time>2018-09-22T07:40:49Z</time>
   </trkpt>
   <trkpt lat="31.7492450" lon="35.0992150">
    <ele>621.7</ele>
    <time>2018-09-22T07:40:50Z</time>
   </trkpt>
   <trkpt lat="31.7492950" lon="35.0991900">
    <ele>620.9</ele>
    <time>2018-09-22T07:40:52Z</time>
   </trkpt>
   <trkpt lat="31.7493430" lon="35.0991670">
    <ele>620.1</ele>
    <time>2018-09-22T07:40:53Z</time>
   </trkpt>
   <trkpt lat="31.7493850" lon="35.0991300">
    <ele>619.3</ele>
    <time>2018-09-22T07:40:54Z</time>
   </trkpt>
   <trkpt lat="31.7494160" lon="35.0991400">
    <ele>618.7</ele>
    <time>2018-09-22T07:40:56Z</time>
   </trkpt>
   <trkpt lat="31.7494670" lon="35.0991250">
    <ele>618.0</ele>
    <time>2018-09-22T07:40:57Z</time>
   </trkpt>
   <trkpt lat="31.7495180" lon="35.0991410">
    <ele>618.2</ele>
    <time>2018-09-22T07:40:58Z</time>
   </trkpt>
   <trkpt lat="31.7495400" lon="35.0991820">
    <ele>618.4</ele>
    <time>2018-09-22T07:40:59Z</time>
   </trkpt>
   <trkpt lat="31.7496030" lon="35.0991870">
    <ele>618.6</ele>
    <time>2018-09-22T07:41:01Z</time>
   </trkpt>
   <trkpt lat="31.7496480" lon="35.0992030">
    <ele>618.7</ele>
    <time>2018-09-22T07:41:02Z</time>
   </trkpt>
   <trkpt lat="31.7497530" lon="35.0991500">
    <ele>619.2</ele>
    <time>2018-09-22T07:41:03Z</time>
   </trkpt>
   <trkpt lat="31.7497950" lon="35.0991510">
    <ele>619.4</ele>
    <time>2018-09-22T07:41:06Z</time>
   </trkpt>
   <trkpt lat="31.7498130" lon="35.0991330">
    <ele>619.5</ele>
    <time>2018-09-22T07:41:07Z</time>
   </trkpt>
   <trkpt lat="31.7498610" lon="35.0990790">
    <ele>620.0</ele>
    <time>2018-09-22T07:41:08Z</time>
   </trkpt>
   <trkpt lat="31.7499120" lon="35.0990090">
    <ele>620.8</ele>
    <time>2018-09-22T07:41:09Z</time>
   </trkpt>
   <trkpt lat="31.7499490" lon="35.0990260">
    <ele>621.3</ele>
    <time>2018-09-22T07:41:10Z</time>
   </trkpt>
   <trkpt lat="31.7499740" lon="35.0990540">
    <ele>621.8</ele>
    <time>2018-09-22T07:41:11Z</time>
   </trkpt>
   <trkpt lat="31.7501590" lon="35.0989890">
    <ele>623.1</ele>
    <time>2018-09-22T07:41:13Z</time>
   </trkpt>
   <trkpt lat="31.7501820" lon="35.0989220">
    <ele>623.2</ele>
    <time>2018-09-22T07:41:15Z</time>
   </trkpt>
   <trkpt lat="31.7502400" lon="35.0989980">
    <ele>623.4</ele>
    <time>2018-09-22T07:41:16Z</time>
   </trkpt>
   <trkpt lat="31.7502490" lon="35.0990310">
    <ele>623.5</ele>
    <time>2018-09-22T07:41:17Z</time>
   </trkpt>
   <trkpt lat="31.7503060" lon="35.0991280">
    <ele>623.7</ele>
    <time>2018-09-22T07:41:18Z</time>
   </trkpt>
   <trkpt lat="31.7502730" lon="35.0990430">
    <ele>623.8</ele>
    <time>2018-09-22T07:41:20Z</time>
   </trkpt>
   <trkpt lat="31.7502590" lon="35.0989320">
    <ele>623.9</ele>
    <time>2018-09-22T07:41:21Z</time>
   </trkpt>
   <trkpt lat="31.7503200" lon="35.0988870">
    <ele>624.0</ele>
    <time>2018-09-22T07:41:22Z</time>
   </trkpt>
   <trkpt lat="31.7503730" lon="35.0988520">
    <ele>624.0</ele>
    <time>2018-09-22T07:41:23Z</time>
   </trkpt>
   <trkpt lat="31.7504350" lon="35.0988490">
    <ele>624.1</ele>
    <time>2018-09-22T07:41:24Z</time>
   </trkpt>
   <trkpt lat="31.7504900" lon="35.0988330">
    <ele>624.1</ele>
    <time>2018-09-22T07:41:25Z</time>
   </trkpt>
   <trkpt lat="31.7505500" lon="35.0987960">
    <ele>624.2</ele>
    <time>2018-09-22T07:41:26Z</time>
   </trkpt>
   <trkpt lat="31.7506020" lon="35.0987780">
    <ele>624.1</ele>
    <time>2018-09-22T07:41:27Z</time>
   </trkpt>
   <trkpt lat="31.7506530" lon="35.0987520">
    <ele>624.0</ele>
    <time>2018-09-22T07:41:28Z</time>
   </trkpt>
   <trkpt lat="31.7507240" lon="35.0987230">
    <ele>623.9</ele>
    <time>2018-09-22T07:41:29Z</time>
   </trkpt>
   <trkpt lat="31.7507740" lon="35.0987010">
    <ele>623.8</ele>
    <time>2018-09-22T07:41:30Z</time>
   </trkpt>
   <trkpt lat="31.7508430" lon="35.0986510">
    <ele>623.6</ele>
    <time>2018-09-22T07:41:31Z</time>
   </trkpt>
   <trkpt lat="31.7509080" lon="35.0986100">
    <ele>623.5</ele>
    <time>2018-09-22T07:41:32Z</time>
   </trkpt>
   <trkpt lat="31.7509790" lon="35.0985580">
    <ele>623.3</ele>
    <time>2018-09-22T07:41:33Z</time>
   </trkpt>
   <trkpt lat="31.7510360" lon="35.0985060">
    <ele>623.2</ele>
    <time>2018-09-22T07:41:34Z</time>
   </trkpt>
   <trkpt lat="31.7510990" lon="35.0984390">
    <ele>623.0</ele>
    <time>2018-09-22T07:41:35Z</time>
   </trkpt>
   <trkpt lat="31.7511590" lon="35.0983800">
    <ele>622.9</ele>
    <time>2018-09-22T07:41:36Z</time>
   </trkpt>
   <trkpt lat="31.7512140" lon="35.0983220">
    <ele>622.8</ele>
    <time>2018-09-22T07:41:37Z</time>
   </trkpt>
   <trkpt lat="31.7512530" lon="35.0982660">
    <ele>622.7</ele>
    <time>2018-09-22T07:41:38Z</time>
   </trkpt>
   <trkpt lat="31.7512930" lon="35.0982020">
    <ele>622.6</ele>
    <time>2018-09-22T07:41:39Z</time>
   </trkpt>
   <trkpt lat="31.7513440" lon="35.0981280">
    <ele>622.5</ele>
    <time>2018-09-22T07:41:40Z</time>
   </trkpt>
   <trkpt lat="31.7513830" lon="35.0980530">
    <ele>622.4</ele>
    <time>2018-09-22T07:41:41Z</time>
   </trkpt>
   <trkpt lat="31.7514080" lon="35.0979670">
    <ele>622.2</ele>
    <time>2018-09-22T07:41:42Z</time>
   </trkpt>
   <trkpt lat="31.7514370" lon="35.0978790">
    <ele>622.1</ele>
    <time>2018-09-22T07:41:43Z</time>
   </trkpt>
   <trkpt lat="31.7514640" lon="35.0977940">
    <ele>622.0</ele>
    <time>2018-09-22T07:41:44Z</time>
   </trkpt>
   <trkpt lat="31.7514890" lon="35.0977130">
    <ele>621.9</ele>
    <time>2018-09-22T07:41:45Z</time>
   </trkpt>
   <trkpt lat="31.7515120" lon="35.0976300">
    <ele>621.9</ele>
    <time>2018-09-22T07:41:46Z</time>
   </trkpt>
   <trkpt lat="31.7515370" lon="35.0975510">
    <ele>621.9</ele>
    <time>2018-09-22T07:41:47Z</time>
   </trkpt>
   <trkpt lat="31.7515730" lon="35.0974820">
    <ele>622.0</ele>
    <time>2018-09-22T07:41:48Z</time>
   </trkpt>
   <trkpt lat="31.7516070" lon="35.0974160">
    <ele>622.1</ele>
    <time>2018-09-22T07:41:49Z</time>
   </trkpt>
   <trkpt lat="31.7516290" lon="35.0973590">
    <ele>622.3</ele>
    <time>2018-09-22T07:41:50Z</time>
   </trkpt>
   <trkpt lat="31.7516450" lon="35.0973080">
    <ele>622.4</ele>
    <time>2018-09-22T07:41:51Z</time>
   </trkpt>
   <trkpt lat="31.7516730" lon="35.0972640">
    <ele>622.6</ele>
    <time>2018-09-22T07:41:52Z</time>
   </trkpt>
   <trkpt lat="31.7517020" lon="35.0972160">
    <ele>622.7</ele>
    <time>2018-09-22T07:41:53Z</time>
   </trkpt>
   <trkpt lat="31.7517200" lon="35.0971820">
    <ele>622.8</ele>
    <time>2018-09-22T07:41:54Z</time>
   </trkpt>
   <trkpt lat="31.7517420" lon="35.0971480">
    <ele>623.1</ele>
    <time>2018-09-22T07:41:55Z</time>
   </trkpt>
   <trkpt lat="31.7517620" lon="35.0971140">
    <ele>623.3</ele>
    <time>2018-09-22T07:41:56Z</time>
   </trkpt>
   <trkpt lat="31.7517860" lon="35.0970920">
    <ele>623.4</ele>
    <time>2018-09-22T07:41:57Z</time>
   </trkpt>
   <trkpt lat="31.7518130" lon="35.0970600">
    <ele>623.6</ele>
    <time>2018-09-22T07:41:58Z</time>
   </trkpt>
   <trkpt lat="31.7518400" lon="35.0970280">
    <ele>623.8</ele>
    <time>2018-09-22T07:42:00Z</time>
   </trkpt>
   <trkpt lat="31.7518700" lon="35.0970080">
    <ele>624.0</ele>
    <time>2018-09-22T07:42:02Z</time>
   </trkpt>
   <trkpt lat="31.7518840" lon="35.0969780">
    <ele>624.2</ele>
    <time>2018-09-22T07:42:03Z</time>
   </trkpt>
   <trkpt lat="31.7519220" lon="35.0969520">
    <ele>624.5</ele>
    <time>2018-09-22T07:42:05Z</time>
   </trkpt>
   <trkpt lat="31.7519580" lon="35.0969210">
    <ele>625.2</ele>
    <time>2018-09-22T07:42:07Z</time>
   </trkpt>
   <trkpt lat="31.7519790" lon="35.0969000">
    <ele>625.6</ele>
    <time>2018-09-22T07:42:08Z</time>
   </trkpt>
   <trkpt lat="31.7520190" lon="35.0968510">
    <ele>626.5</ele>
    <time>2018-09-22T07:42:10Z</time>
   </trkpt>
   <trkpt lat="31.7520550" lon="35.0968300">
    <ele>626.9</ele>
    <time>2018-09-22T07:42:12Z</time>
   </trkpt>
   <trkpt lat="31.7520810" lon="35.0968130">
    <ele>627.2</ele>
    <time>2018-09-22T07:42:14Z</time>
   </trkpt>
   <trkpt lat="31.7520930" lon="35.0967720">
    <ele>627.5</ele>
    <time>2018-09-22T07:42:17Z</time>
   </trkpt>
   <trkpt lat="31.7521040" lon="35.0967430">
    <ele>627.7</ele>
    <time>2018-09-22T07:42:20Z</time>
   </trkpt>
   <trkpt lat="31.7521290" lon="35.0967140">
    <ele>628.0</ele>
    <time>2018-09-22T07:42:23Z</time>
   </trkpt>
   <trkpt lat="31.7521210" lon="35.0967510">
    <ele>629.4</ele>
    <time>2018-09-22T07:42:28Z</time>
   </trkpt>
   <trkpt lat="31.7521040" lon="35.0967860">
    <ele>630.7</ele>
    <time>2018-09-22T07:42:31Z</time>
   </trkpt>
   <trkpt lat="31.7520890" lon="35.0968140">
    <ele>631.2</ele>
    <time>2018-09-22T07:42:32Z</time>
   </trkpt>
   <trkpt lat="31.7520840" lon="35.0968550">
    <ele>632.0</ele>
    <time>2018-09-22T07:42:34Z</time>
   </trkpt>
   <trkpt lat="31.7520720" lon="35.0968960">
    <ele>633.0</ele>
    <time>2018-09-22T07:42:37Z</time>
   </trkpt>
   <trkpt lat="31.7520640" lon="35.0969350">
    <ele>634.3</ele>
    <time>2018-09-22T07:42:40Z</time>
   </trkpt>
   <trkpt lat="31.7520530" lon="35.0969800">
    <ele>635.6</ele>
    <time>2018-09-22T07:42:42Z</time>
   </trkpt>
   <trkpt lat="31.7520440" lon="35.0970170">
    <ele>636.5</ele>
    <time>2018-09-22T07:42:44Z</time>
   </trkpt>
   <trkpt lat="31.7520200" lon="35.0970570">
    <ele>637.6</ele>
    <time>2018-09-22T07:42:46Z</time>
   </trkpt>
   <trkpt lat="31.7520180" lon="35.0971020">
    <ele>638.3</ele>
    <time>2018-09-22T07:42:48Z</time>
   </trkpt>
   <trkpt lat="31.7520060" lon="35.0971530">
    <ele>639.5</ele>
    <time>2018-09-22T07:42:51Z</time>
   </trkpt>
   <trkpt lat="31.7519880" lon="35.0971900">
    <ele>640.6</ele>
    <time>2018-09-22T07:42:53Z</time>
   </trkpt>
   <trkpt lat="31.7519710" lon="35.0972360">
    <ele>641.5</ele>
    <time>2018-09-22T07:42:55Z</time>
   </trkpt>
   <trkpt lat="31.7519520" lon="35.0972820">
    <ele>641.9</ele>
    <time>2018-09-22T07:42:57Z</time>
   </trkpt>
   <trkpt lat="31.7519410" lon="35.0973150">
    <ele>642.2</ele>
    <time>2018-09-22T07:42:59Z</time>
   </trkpt>
   <trkpt lat="31.7519250" lon="35.0973590">
    <ele>642.6</ele>
    <time>2018-09-22T07:43:02Z</time>
   </trkpt>
   <trkpt lat="31.7519140" lon="35.0974080">
    <ele>643.0</ele>
    <time>2018-09-22T07:43:04Z</time>
   </trkpt>
   <trkpt lat="31.7519050" lon="35.0974480">
    <ele>643.3</ele>
    <time>2018-09-22T07:43:05Z</time>
   </trkpt>
   <trkpt lat="31.7518970" lon="35.0974840">
    <ele>643.5</ele>
    <time>2018-09-22T07:43:06Z</time>
   </trkpt>
   <trkpt lat="31.7518990" lon="35.0975160">
    <ele>643.7</ele>
    <time>2018-09-22T07:43:08Z</time>
   </trkpt>
   <trkpt lat="31.7518880" lon="35.0975480">
    <ele>644.0</ele>
    <time>2018-09-22T07:43:10Z</time>
   </trkpt>
   <trkpt lat="31.7518840" lon="35.0976010">
    <ele>644.7</ele>
    <time>2018-09-22T07:43:12Z</time>
   </trkpt>
   <trkpt lat="31.7518910" lon="35.0976540">
    <ele>645.7</ele>
    <time>2018-09-22T07:43:14Z</time>
   </trkpt>
   <trkpt lat="31.7518910" lon="35.0976980">
    <ele>646.6</ele>
    <time>2018-09-22T07:43:16Z</time>
   </trkpt>
   <trkpt lat="31.7518850" lon="35.0977330">
    <ele>647.3</ele>
    <time>2018-09-22T07:43:18Z</time>
   </trkpt>
   <trkpt lat="31.7518810" lon="35.0977760">
    <ele>647.6</ele>
    <time>2018-09-22T07:43:20Z</time>
   </trkpt>
   <trkpt lat="31.7518810" lon="35.0978140">
    <ele>647.9</ele>
    <time>2018-09-22T07:43:22Z</time>
   </trkpt>
   <trkpt lat="31.7518880" lon="35.0978490">
    <ele>648.2</ele>
    <time>2018-09-22T07:43:24Z</time>
   </trkpt>
   <trkpt lat="31.7519030" lon="35.0978910">
    <ele>648.4</ele>
    <time>2018-09-22T07:43:26Z</time>
   </trkpt>
   <trkpt lat="31.7519240" lon="35.0979240">
    <ele>648.6</ele>
    <time>2018-09-22T07:43:28Z</time>
   </trkpt>
   <trkpt lat="31.7519630" lon="35.0979550">
    <ele>648.8</ele>
    <time>2018-09-22T07:43:30Z</time>
   </trkpt>
   <trkpt lat="31.7519900" lon="35.0979810">
    <ele>649.0</ele>
    <time>2018-09-22T07:43:31Z</time>
   </trkpt>
   <trkpt lat="31.7520030" lon="35.0980490">
    <ele>649.3</ele>
    <time>2018-09-22T07:43:33Z</time>
   </trkpt>
   <trkpt lat="31.7519830" lon="35.0980930">
    <ele>649.5</ele>
    <time>2018-09-22T07:43:35Z</time>
   </trkpt>
   <trkpt lat="31.7519680" lon="35.0981230">
    <ele>649.7</ele>
    <time>2018-09-22T07:43:36Z</time>
   </trkpt>
   <trkpt lat="31.7519480" lon="35.0981470">
    <ele>649.8</ele>
    <time>2018-09-22T07:43:37Z</time>
   </trkpt>
   <trkpt lat="31.7519280" lon="35.0981740">
    <ele>650.0</ele>
    <time>2018-09-22T07:43:38Z</time>
   </trkpt>
   <trkpt lat="31.7518980" lon="35.0982240">
    <ele>650.2</ele>
    <time>2018-09-22T07:43:40Z</time>
   </trkpt>
   <trkpt lat="31.7518850" lon="35.0982520">
    <ele>650.3</ele>
    <time>2018-09-22T07:43:42Z</time>
   </trkpt>
   <trkpt lat="31.7518730" lon="35.0982860">
    <ele>650.5</ele>
    <time>2018-09-22T07:43:45Z</time>
   </trkpt>
   <trkpt lat="31.7518420" lon="35.0983180">
    <ele>650.7</ele>
    <time>2018-09-22T07:43:48Z</time>
   </trkpt>
   <trkpt lat="31.7518130" lon="35.0983420">
    <ele>650.8</ele>
    <time>2018-09-22T07:43:51Z</time>
   </trkpt>
   <trkpt lat="31.7517960" lon="35.0983810">
    <ele>651.0</ele>
    <time>2018-09-22T07:43:55Z</time>
   </trkpt>
   <trkpt lat="31.7517750" lon="35.0984110">
    <ele>651.1</ele>
    <time>2018-09-22T07:43:57Z</time>
   </trkpt>
   <trkpt lat="31.7517510" lon="35.0984260">
    <ele>651.1</ele>
    <time>2018-09-22T07:43:58Z</time>
   </trkpt>
   <trkpt lat="31.7517020" lon="35.0984750">
    <ele>651.2</ele>
    <time>2018-09-22T07:44:00Z</time>
   </trkpt>
   <trkpt lat="31.7516790" lon="35.0985070">
    <ele>651.4</ele>
    <time>2018-09-22T07:44:02Z</time>
   </trkpt>
   <trkpt lat="31.7516430" lon="35.0985390">
    <ele>651.5</ele>
    <time>2018-09-22T07:44:04Z</time>
   </trkpt>
   <trkpt lat="31.7516090" lon="35.0985730">
    <ele>651.6</ele>
    <time>2018-09-22T07:44:06Z</time>
   </trkpt>
   <trkpt lat="31.7515930" lon="35.0986110">
    <ele>651.6</ele>
    <time>2018-09-22T07:44:08Z</time>
   </trkpt>
   <trkpt lat="31.7515920" lon="35.0986440">
    <ele>651.7</ele>
    <time>2018-09-22T07:44:10Z</time>
   </trkpt>
   <trkpt lat="31.7515840" lon="35.0986870">
    <ele>651.8</ele>
    <time>2018-09-22T07:44:12Z</time>
   </trkpt>
   <trkpt lat="31.7515600" lon="35.0987210">
    <ele>651.9</ele>
    <time>2018-09-22T07:44:15Z</time>
   </trkpt>
   <trkpt lat="31.7515530" lon="35.0987520">
    <ele>652.0</ele>
    <time>2018-09-22T07:44:18Z</time>
   </trkpt>
   <trkpt lat="31.7515260" lon="35.0987620">
    <ele>652.1</ele>
    <time>2018-09-22T07:44:22Z</time>
   </trkpt>
   <trkpt lat="31.7515010" lon="35.0987760">
    <ele>652.2</ele>
    <time>2018-09-22T07:44:25Z</time>
   </trkpt>
   <trkpt lat="31.7514790" lon="35.0987950">
    <ele>652.2</ele>
    <time>2018-09-22T07:44:27Z</time>
   </trkpt>
   <trkpt lat="31.7514520" lon="35.0988240">
    <ele>652.2</ele>
    <time>2018-09-22T07:44:29Z</time>
   </trkpt>
   <trkpt lat="31.7514370" lon="35.0988550">
    <ele>652.3</ele>
    <time>2018-09-22T07:44:34Z</time>
   </trkpt>
   <trkpt lat="31.7514410" lon="35.0988230">
    <ele>652.4</ele>
    <time>2018-09-22T07:45:05Z</time>
   </trkpt>
   <trkpt lat="31.7514630" lon="35.0987860">
    <ele>652.5</ele>
    <time>2018-09-22T07:45:07Z</time>
   </trkpt>
   <trkpt lat="31.7514320" lon="35.0987830">
    <ele>652.6</ele>
    <time>2018-09-22T07:45:13Z</time>
   </trkpt>
   <trkpt lat="31.7514060" lon="35.0988110">
    <ele>652.7</ele>
    <time>2018-09-22T07:45:16Z</time>
   </trkpt>
   <trkpt lat="31.7513800" lon="35.0988320">
    <ele>652.7</ele>
    <time>2018-09-22T07:45:18Z</time>
   </trkpt>
   <trkpt lat="31.7513590" lon="35.0988520">
    <ele>652.7</ele>
    <time>2018-09-22T07:45:20Z</time>
   </trkpt>
   <trkpt lat="31.7513330" lon="35.0988760">
    <ele>652.8</ele>
    <time>2018-09-22T07:45:22Z</time>
   </trkpt>
   <trkpt lat="31.7513130" lon="35.0989100">
    <ele>652.8</ele>
    <time>2018-09-22T07:45:25Z</time>
   </trkpt>
   <trkpt lat="31.7512880" lon="35.0989370">
    <ele>652.9</ele>
    <time>2018-09-22T07:45:27Z</time>
   </trkpt>
   <trkpt lat="31.7512630" lon="35.0989570">
    <ele>653.0</ele>
    <time>2018-09-22T07:45:29Z</time>
   </trkpt>
   <trkpt lat="31.7512370" lon="35.0989700">
    <ele>653.0</ele>
    <time>2018-09-22T07:45:31Z</time>
   </trkpt>
   <trkpt lat="31.7512080" lon="35.0989880">
    <ele>653.0</ele>
    <time>2018-09-22T07:45:33Z</time>
   </trkpt>
   <trkpt lat="31.7511790" lon="35.0990010">
    <ele>653.0</ele>
    <time>2018-09-22T07:45:35Z</time>
   </trkpt>
   <trkpt lat="31.7511440" lon="35.0990190">
    <ele>653.1</ele>
    <time>2018-09-22T07:45:38Z</time>
   </trkpt>
   <trkpt lat="31.7511230" lon="35.0990500">
    <ele>653.1</ele>
    <time>2018-09-22T07:45:40Z</time>
   </trkpt>
   <trkpt lat="31.7510910" lon="35.0990540">
    <ele>653.1</ele>
    <time>2018-09-22T07:45:42Z</time>
   </trkpt>
   <trkpt lat="31.7510650" lon="35.0990660">
    <ele>653.2</ele>
    <time>2018-09-22T07:45:44Z</time>
   </trkpt>
   <trkpt lat="31.7510330" lon="35.0990870">
    <ele>653.3</ele>
    <time>2018-09-22T07:45:47Z</time>
   </trkpt>
   <trkpt lat="31.7510050" lon="35.0991010">
    <ele>653.3</ele>
    <time>2018-09-22T07:45:49Z</time>
   </trkpt>
   <trkpt lat="31.7509700" lon="35.0991130">
    <ele>653.4</ele>
    <time>2018-09-22T07:45:51Z</time>
   </trkpt>
   <trkpt lat="31.7509390" lon="35.0991230">
    <ele>653.4</ele>
    <time>2018-09-22T07:45:53Z</time>
   </trkpt>
   <trkpt lat="31.7509070" lon="35.0991440">
    <ele>653.4</ele>
    <time>2018-09-22T07:45:56Z</time>
   </trkpt>
   <trkpt lat="31.7508760" lon="35.0991590">
    <ele>653.4</ele>
    <time>2018-09-22T07:45:58Z</time>
   </trkpt>
   <trkpt lat="31.7508450" lon="35.0991700">
    <ele>653.5</ele>
    <time>2018-09-22T07:46:00Z</time>
   </trkpt>
   <trkpt lat="31.7508170" lon="35.0991780">
    <ele>653.6</ele>
    <time>2018-09-22T07:46:02Z</time>
   </trkpt>
   <trkpt lat="31.7507880" lon="35.0991930">
    <ele>653.7</ele>
    <time>2018-09-22T07:46:04Z</time>
   </trkpt>
   <trkpt lat="31.7507630" lon="35.0992100">
    <ele>653.8</ele>
    <time>2018-09-22T07:46:06Z</time>
   </trkpt>
   <trkpt lat="31.7507190" lon="35.0992360">
    <ele>653.9</ele>
    <time>2018-09-22T07:46:08Z</time>
   </trkpt>
   <trkpt lat="31.7506780" lon="35.0992490">
    <ele>654.0</ele>
    <time>2018-09-22T07:46:10Z</time>
   </trkpt>
   <trkpt lat="31.7506420" lon="35.0992560">
    <ele>654.2</ele>
    <time>2018-09-22T07:46:12Z</time>
   </trkpt>
   <trkpt lat="31.7506020" lon="35.0992690">
    <ele>654.4</ele>
    <time>2018-09-22T07:46:15Z</time>
   </trkpt>
   <trkpt lat="31.7505670" lon="35.0992720">
    <ele>654.5</ele>
    <time>2018-09-22T07:46:17Z</time>
   </trkpt>
   <trkpt lat="31.7505470" lon="35.0992990">
    <ele>654.5</ele>
    <time>2018-09-22T07:46:19Z</time>
   </trkpt>
   <trkpt lat="31.7505100" lon="35.0993070">
    <ele>654.6</ele>
    <time>2018-09-22T07:46:22Z</time>
   </trkpt>
   <trkpt lat="31.7504730" lon="35.0993150">
    <ele>654.8</ele>
    <time>2018-09-22T07:46:25Z</time>
   </trkpt>
   <trkpt lat="31.7504380" lon="35.0993260">
    <ele>655.0</ele>
    <time>2018-09-22T07:46:28Z</time>
   </trkpt>
   <trkpt lat="31.7504030" lon="35.0993380">
    <ele>655.0</ele>
    <time>2018-09-22T07:46:31Z</time>
   </trkpt>
   <trkpt lat="31.7503710" lon="35.0993460">
    <ele>655.1</ele>
    <time>2018-09-22T07:46:34Z</time>
   </trkpt>
   <trkpt lat="31.7503420" lon="35.0993550">
    <ele>655.1</ele>
    <time>2018-09-22T07:46:36Z</time>
   </trkpt>
   <trkpt lat="31.7503120" lon="35.0993710">
    <ele>655.2</ele>
    <time>2018-09-22T07:46:39Z</time>
   </trkpt>
   <trkpt lat="31.7502840" lon="35.0993810">
    <ele>655.3</ele>
    <time>2018-09-22T07:46:41Z</time>
   </trkpt>
   <trkpt lat="31.7502450" lon="35.0993930">
    <ele>655.4</ele>
    <time>2018-09-22T07:46:43Z</time>
   </trkpt>
   <trkpt lat="31.7502100" lon="35.0994120">
    <ele>655.5</ele>
    <time>2018-09-22T07:46:45Z</time>
   </trkpt>
   <trkpt lat="31.7501830" lon="35.0994170">
    <ele>655.6</ele>
    <time>2018-09-22T07:46:47Z</time>
   </trkpt>
   <trkpt lat="31.7501540" lon="35.0994290">
    <ele>655.6</ele>
    <time>2018-09-22T07:46:50Z</time>
   </trkpt>
   <trkpt lat="31.7501060" lon="35.0994430">
    <ele>655.7</ele>
    <time>2018-09-22T07:46:53Z</time>
   </trkpt>
   <trkpt lat="31.7500750" lon="35.0994470">
    <ele>655.8</ele>
    <time>2018-09-22T07:46:54Z</time>
   </trkpt>
   <trkpt lat="31.7500430" lon="35.0994810">
    <ele>656.0</ele>
    <time>2018-09-22T07:46:56Z</time>
   </trkpt>
   <trkpt lat="31.7500050" lon="35.0995020">
    <ele>656.3</ele>
    <time>2018-09-22T07:46:59Z</time>
   </trkpt>
   <trkpt lat="31.7499790" lon="35.0995290">
    <ele>656.4</ele>
    <time>2018-09-22T07:47:01Z</time>
   </trkpt>
   <trkpt lat="31.7499420" lon="35.0995510">
    <ele>656.6</ele>
    <time>2018-09-22T07:47:03Z</time>
   </trkpt>
   <trkpt lat="31.7499190" lon="35.0995750">
    <ele>656.7</ele>
    <time>2018-09-22T07:47:05Z</time>
   </trkpt>
   <trkpt lat="31.7498880" lon="35.0995830">
    <ele>656.9</ele>
    <time>2018-09-22T07:47:08Z</time>
   </trkpt>
   <trkpt lat="31.7498620" lon="35.0996010">
    <ele>656.9</ele>
    <time>2018-09-22T07:47:10Z</time>
   </trkpt>
   <trkpt lat="31.7498330" lon="35.0996150">
    <ele>657.0</ele>
    <time>2018-09-22T07:47:12Z</time>
   </trkpt>
   <trkpt lat="31.7498070" lon="35.0996370">
    <ele>657.1</ele>
    <time>2018-09-22T07:47:14Z</time>
   </trkpt>
   <trkpt lat="31.7497700" lon="35.0996480">
    <ele>657.1</ele>
    <time>2018-09-22T07:47:16Z</time>
   </trkpt>
   <trkpt lat="31.7497370" lon="35.0996670">
    <ele>657.2</ele>
    <time>2018-09-22T07:47:18Z</time>
   </trkpt>
   <trkpt lat="31.7497060" lon="35.0996890">
    <ele>657.3</ele>
    <time>2018-09-22T07:47:20Z</time>
   </trkpt>
   <trkpt lat="31.7496730" lon="35.0997110">
    <ele>657.3</ele>
    <time>2018-09-22T07:47:22Z</time>
   </trkpt>
   <trkpt lat="31.7496460" lon="35.0997260">
    <ele>657.3</ele>
    <time>2018-09-22T07:47:24Z</time>
   </trkpt>
   <trkpt lat="31.7496020" lon="35.0997630">
    <ele>657.3</ele>
    <time>2018-09-22T07:47:26Z</time>
   </trkpt>
   <trkpt lat="31.7495750" lon="35.0997920">
    <ele>657.2</ele>
    <time>2018-09-22T07:47:28Z</time>
   </trkpt>
   <trkpt lat="31.7495450" lon="35.0998110">
    <ele>657.2</ele>
    <time>2018-09-22T07:47:30Z</time>
   </trkpt>
   <trkpt lat="31.7495140" lon="35.0998390">
    <ele>657.2</ele>
    <time>2018-09-22T07:47:32Z</time>
   </trkpt>
   <trkpt lat="31.7494860" lon="35.0998530">
    <ele>657.1</ele>
    <time>2018-09-22T07:47:33Z</time>
   </trkpt>
   <trkpt lat="31.7494340" lon="35.0998950">
    <ele>657.1</ele>
    <time>2018-09-22T07:47:35Z</time>
   </trkpt>
   <trkpt lat="31.7493960" lon="35.0999190">
    <ele>657.0</ele>
    <time>2018-09-22T07:47:37Z</time>
   </trkpt>
   <trkpt lat="31.7493690" lon="35.0999370">
    <ele>657.0</ele>
    <time>2018-09-22T07:47:38Z</time>
   </trkpt>
   <trkpt lat="31.7493360" lon="35.0999580">
    <ele>656.9</ele>
    <time>2018-09-22T07:47:39Z</time>
   </trkpt>
   <trkpt lat="31.7493130" lon="35.0999810">
    <ele>656.9</ele>
    <time>2018-09-22T07:47:40Z</time>
   </trkpt>
   <trkpt lat="31.7492640" lon="35.1000120">
    <ele>656.8</ele>
    <time>2018-09-22T07:47:42Z</time>
   </trkpt>
   <trkpt lat="31.7492210" lon="35.1000440">
    <ele>656.7</ele>
    <time>2018-09-22T07:47:44Z</time>
   </trkpt>
   <trkpt lat="31.7491960" lon="35.1000670">
    <ele>656.6</ele>
    <time>2018-09-22T07:47:45Z</time>
   </trkpt>
   <trkpt lat="31.7491740" lon="35.1000910">
    <ele>656.6</ele>
    <time>2018-09-22T07:47:46Z</time>
   </trkpt>
   <trkpt lat="31.7491450" lon="35.1001210">
    <ele>656.5</ele>
    <time>2018-09-22T07:47:47Z</time>
   </trkpt>
   <trkpt lat="31.7491160" lon="35.1001460">
    <ele>656.4</ele>
    <time>2018-09-22T07:47:48Z</time>
   </trkpt>
   <trkpt lat="31.7490880" lon="35.1001710">
    <ele>656.4</ele>
    <time>2018-09-22T07:47:49Z</time>
   </trkpt>
   <trkpt lat="31.7490620" lon="35.1001990">
    <ele>656.3</ele>
    <time>2018-09-22T07:47:50Z</time>
   </trkpt>
   <trkpt lat="31.7490410" lon="35.1002240">
    <ele>656.2</ele>
    <time>2018-09-22T07:47:51Z</time>
   </trkpt>
   <trkpt lat="31.7490190" lon="35.1002470">
    <ele>656.2</ele>
    <time>2018-09-22T07:47:52Z</time>
   </trkpt>
   <trkpt lat="31.7489830" lon="35.1002940">
    <ele>656.1</ele>
    <time>2018-09-22T07:47:54Z</time>
   </trkpt>
   <trkpt lat="31.7489540" lon="35.1003280">
    <ele>656.0</ele>
    <time>2018-09-22T07:47:55Z</time>
   </trkpt>
   <trkpt lat="31.7489380" lon="35.1003600">
    <ele>656.0</ele>
    <time>2018-09-22T07:47:56Z</time>
   </trkpt>
   <trkpt lat="31.7489240" lon="35.1004010">
    <ele>656.0</ele>
    <time>2018-09-22T07:47:58Z</time>
   </trkpt>
   <trkpt lat="31.7488930" lon="35.1004540">
    <ele>658.9</ele>
    <time>2018-09-22T07:48:00Z</time>
   </trkpt>
   <trkpt lat="31.7488740" lon="35.1005000">
    <ele>661.1</ele>
    <time>2018-09-22T07:48:02Z</time>
   </trkpt>
   <trkpt lat="31.7488630" lon="35.1005490">
    <ele>662.7</ele>
    <time>2018-09-22T07:48:04Z</time>
   </trkpt>
   <trkpt lat="31.7488580" lon="35.1005980">
    <ele>663.9</ele>
    <time>2018-09-22T07:48:06Z</time>
   </trkpt>
   <trkpt lat="31.7488470" lon="35.1006400">
    <ele>664.8</ele>
    <time>2018-09-22T07:48:08Z</time>
   </trkpt>
   <trkpt lat="31.7488290" lon="35.1006810">
    <ele>665.6</ele>
    <time>2018-09-22T07:48:10Z</time>
   </trkpt>
   <trkpt lat="31.7488210" lon="35.1007190">
    <ele>666.1</ele>
    <time>2018-09-22T07:48:12Z</time>
   </trkpt>
   <trkpt lat="31.7488040" lon="35.1007650">
    <ele>667.3</ele>
    <time>2018-09-22T07:48:14Z</time>
   </trkpt>
   <trkpt lat="31.7487960" lon="35.1008000">
    <ele>668.3</ele>
    <time>2018-09-22T07:48:16Z</time>
   </trkpt>
   <trkpt lat="31.7487860" lon="35.1008370">
    <ele>669.3</ele>
    <time>2018-09-22T07:48:19Z</time>
   </trkpt>
   <trkpt lat="31.7487950" lon="35.1008860">
    <ele>670.7</ele>
    <time>2018-09-22T07:48:22Z</time>
   </trkpt>
   <trkpt lat="31.7487950" lon="35.1009230">
    <ele>671.7</ele>
    <time>2018-09-22T07:48:24Z</time>
   </trkpt>
   <trkpt lat="31.7488100" lon="35.1009520">
    <ele>672.9</ele>
    <time>2018-09-22T07:48:27Z</time>
   </trkpt>
   <trkpt lat="31.7488450" lon="35.1009850">
    <ele>674.7</ele>
    <time>2018-09-22T07:48:31Z</time>
   </trkpt>
   <trkpt lat="31.7488580" lon="35.1010140">
    <ele>675.9</ele>
    <time>2018-09-22T07:48:34Z</time>
   </trkpt>
   <trkpt lat="31.7488890" lon="35.1010140">
    <ele>677.3</ele>
    <time>2018-09-22T07:48:39Z</time>
   </trkpt>
   <trkpt lat="31.7489060" lon="35.1010450">
    <ele>678.6</ele>
    <time>2018-09-22T07:48:42Z</time>
   </trkpt>
   <trkpt lat="31.7489410" lon="35.1010950">
    <ele>680.5</ele>
    <time>2018-09-22T07:48:45Z</time>
   </trkpt>
   <trkpt lat="31.7489630" lon="35.1011200">
    <ele>681.3</ele>
    <time>2018-09-22T07:48:47Z</time>
   </trkpt>
   <trkpt lat="31.7489780" lon="35.1011600">
    <ele>682.4</ele>
    <time>2018-09-22T07:48:50Z</time>
   </trkpt>
   <trkpt lat="31.7490020" lon="35.1012050">
    <ele>683.9</ele>
    <time>2018-09-22T07:48:53Z</time>
   </trkpt>
   <trkpt lat="31.7490290" lon="35.1012310">
    <ele>685.1</ele>
    <time>2018-09-22T07:48:56Z</time>
   </trkpt>
   <trkpt lat="31.7490530" lon="35.1012540">
    <ele>686.4</ele>
    <time>2018-09-22T07:48:58Z</time>
   </trkpt>
   <trkpt lat="31.7490780" lon="35.1012800">
    <ele>688.0</ele>
    <time>2018-09-22T07:49:00Z</time>
   </trkpt>
   <trkpt lat="31.7491160" lon="35.1013010">
    <ele>689.7</ele>
    <time>2018-09-22T07:49:02Z</time>
   </trkpt>
   <trkpt lat="31.7491370" lon="35.1013280">
    <ele>690.6</ele>
    <time>2018-09-22T07:49:04Z</time>
   </trkpt>
   <trkpt lat="31.7491500" lon="35.1013580">
    <ele>691.5</ele>
    <time>2018-09-22T07:49:06Z</time>
   </trkpt>
   <trkpt lat="31.7491680" lon="35.1013880">
    <ele>692.5</ele>
    <time>2018-09-22T07:49:08Z</time>
   </trkpt>
   <trkpt lat="31.7491850" lon="35.1014320">
    <ele>694.0</ele>
    <time>2018-09-22T07:49:10Z</time>
   </trkpt>
   <trkpt lat="31.7491930" lon="35.1014790">
    <ele>694.0</ele>
    <time>2018-09-22T07:49:12Z</time>
   </trkpt>
   <trkpt lat="31.7492050" lon="35.1015260">
    <ele>694.1</ele>
    <time>2018-09-22T07:49:14Z</time>
   </trkpt>
   <trkpt lat="31.7492150" lon="35.1015590">
    <ele>694.1</ele>
    <time>2018-09-22T07:49:15Z</time>
   </trkpt>
   <trkpt lat="31.7492140" lon="35.1015960">
    <ele>694.1</ele>
    <time>2018-09-22T07:49:16Z</time>
   </trkpt>
   <trkpt lat="31.7492320" lon="35.1016420">
    <ele>694.1</ele>
    <time>2018-09-22T07:49:18Z</time>
   </trkpt>
   <trkpt lat="31.7492460" lon="35.1016990">
    <ele>694.2</ele>
    <time>2018-09-22T07:49:20Z</time>
   </trkpt>
   <trkpt lat="31.7492670" lon="35.1017390">
    <ele>694.3</ele>
    <time>2018-09-22T07:49:22Z</time>
   </trkpt>
   <trkpt lat="31.7492760" lon="35.1017690">
    <ele>694.3</ele>
    <time>2018-09-22T07:49:23Z</time>
   </trkpt>
   <trkpt lat="31.7492940" lon="35.1018020">
    <ele>694.4</ele>
    <time>2018-09-22T07:49:25Z</time>
   </trkpt>
   <trkpt lat="31.7493040" lon="35.1018510">
    <ele>694.6</ele>
    <time>2018-09-22T07:49:27Z</time>
   </trkpt>
   <trkpt lat="31.7493260" lon="35.1018790">
    <ele>694.8</ele>
    <time>2018-09-22T07:49:29Z</time>
   </trkpt>
   <trkpt lat="31.7493690" lon="35.1018950">
    <ele>695.1</ele>
    <time>2018-09-22T07:49:31Z</time>
   </trkpt>
   <trkpt lat="31.7494290" lon="35.1019080">
    <ele>696.0</ele>
    <time>2018-09-22T07:49:33Z</time>
   </trkpt>
   <trkpt lat="31.7494370" lon="35.1019380">
    <ele>696.3</ele>
    <time>2018-09-22T07:49:34Z</time>
   </trkpt>
   <trkpt lat="31.7494640" lon="35.1019650">
    <ele>696.6</ele>
    <time>2018-09-22T07:49:36Z</time>
   </trkpt>
   <trkpt lat="31.7494920" lon="35.1019940">
    <ele>696.9</ele>
    <time>2018-09-22T07:49:39Z</time>
   </trkpt>
   <trkpt lat="31.7495220" lon="35.1019930">
    <ele>697.2</ele>
    <time>2018-09-22T07:49:42Z</time>
   </trkpt>
   <trkpt lat="31.7495330" lon="35.1019600">
    <ele>697.4</ele>
    <time>2018-09-22T07:49:44Z</time>
   </trkpt>
   <trkpt lat="31.7495530" lon="35.1019360">
    <ele>697.6</ele>
    <time>2018-09-22T07:49:46Z</time>
   </trkpt>
   <trkpt lat="31.7495840" lon="35.1019180">
    <ele>697.9</ele>
    <time>2018-09-22T07:49:48Z</time>
   </trkpt>
   <trkpt lat="31.7496160" lon="35.1019510">
    <ele>698.4</ele>
    <time>2018-09-22T07:49:51Z</time>
   </trkpt>
   <trkpt lat="31.7496320" lon="35.1020090">
    <ele>699.0</ele>
    <time>2018-09-22T07:49:53Z</time>
   </trkpt>
   <trkpt lat="31.7496440" lon="35.1020430">
    <ele>699.3</ele>
    <time>2018-09-22T07:49:54Z</time>
   </trkpt>
   <trkpt lat="31.7496560" lon="35.1020950">
    <ele>699.6</ele>
    <time>2018-09-22T07:49:56Z</time>
   </trkpt>
   <trkpt lat="31.7496870" lon="35.1021460">
    <ele>699.8</ele>
    <time>2018-09-22T07:49:58Z</time>
   </trkpt>
   <trkpt lat="31.7497210" lon="35.1021610">
    <ele>699.9</ele>
    <time>2018-09-22T07:50:05Z</time>
   </trkpt>
   <trkpt lat="31.7497420" lon="35.1021860">
    <ele>700.0</ele>
    <time>2018-09-22T07:50:10Z</time>
   </trkpt>
   <trkpt lat="31.7497610" lon="35.1022110">
    <ele>700.1</ele>
    <time>2018-09-22T07:50:12Z</time>
   </trkpt>
   <trkpt lat="31.7497870" lon="35.1022330">
    <ele>700.1</ele>
    <time>2018-09-22T07:50:16Z</time>
   </trkpt>
   <trkpt lat="31.7498200" lon="35.1022210">
    <ele>700.2</ele>
    <time>2018-09-22T07:50:19Z</time>
   </trkpt>
   <trkpt lat="31.7498450" lon="35.1022410">
    <ele>700.2</ele>
    <time>2018-09-22T07:50:21Z</time>
   </trkpt>
   <trkpt lat="31.7498620" lon="35.1022760">
    <ele>700.3</ele>
    <time>2018-09-22T07:50:23Z</time>
   </trkpt>
   <trkpt lat="31.7499010" lon="35.1023160">
    <ele>700.3</ele>
    <time>2018-09-22T07:50:25Z</time>
   </trkpt>
   <trkpt lat="31.7499380" lon="35.1023440">
    <ele>700.4</ele>
    <time>2018-09-22T07:50:27Z</time>
   </trkpt>
   <trkpt lat="31.7499690" lon="35.1023740">
    <ele>700.4</ele>
    <time>2018-09-22T07:50:29Z</time>
   </trkpt>
   <trkpt lat="31.7499890" lon="35.1024080">
    <ele>700.5</ele>
    <time>2018-09-22T07:50:31Z</time>
   </trkpt>
   <trkpt lat="31.7500180" lon="35.1024140">
    <ele>700.5</ele>
    <time>2018-09-22T07:50:33Z</time>
   </trkpt>
   <trkpt lat="31.7500570" lon="35.1024370">
    <ele>700.6</ele>
    <time>2018-09-22T07:50:35Z</time>
   </trkpt>
   <trkpt lat="31.7500750" lon="35.1024710">
    <ele>700.6</ele>
    <time>2018-09-22T07:50:36Z</time>
   </trkpt>
   <trkpt lat="31.7500900" lon="35.1025010">
    <ele>700.6</ele>
    <time>2018-09-22T07:50:37Z</time>
   </trkpt>
   <trkpt lat="31.7501130" lon="35.1025280">
    <ele>700.7</ele>
    <time>2018-09-22T07:50:39Z</time>
   </trkpt>
   <trkpt lat="31.7501310" lon="35.1025520">
    <ele>700.7</ele>
    <time>2018-09-22T07:50:41Z</time>
   </trkpt>
   <trkpt lat="31.7501560" lon="35.1025630">
    <ele>700.7</ele>
    <time>2018-09-22T07:50:42Z</time>
   </trkpt>
   <trkpt lat="31.7501820" lon="35.1025760">
    <ele>700.8</ele>
    <time>2018-09-22T07:50:43Z</time>
   </trkpt>
   <trkpt lat="31.7502180" lon="35.1025920">
    <ele>700.8</ele>
    <time>2018-09-22T07:50:45Z</time>
   </trkpt>
   <trkpt lat="31.7502470" lon="35.1025970">
    <ele>700.9</ele>
    <time>2018-09-22T07:50:47Z</time>
   </trkpt>
   <trkpt lat="31.7502700" lon="35.1026130">
    <ele>700.9</ele>
    <time>2018-09-22T07:50:50Z</time>
   </trkpt>
   <trkpt lat="31.7502940" lon="35.1025850">
    <ele>701.0</ele>
    <time>2018-09-22T07:51:19Z</time>
   </trkpt>
   <trkpt lat="31.7503260" lon="35.1025900">
    <ele>700.9</ele>
    <time>2018-09-22T07:51:21Z</time>
   </trkpt>
   <trkpt lat="31.7503650" lon="35.1025960">
    <ele>700.7</ele>
    <time>2018-09-22T07:51:23Z</time>
   </trkpt>
   <trkpt lat="31.7503800" lon="35.1026230">
    <ele>700.7</ele>
    <time>2018-09-22T07:51:25Z</time>
   </trkpt>
   <trkpt lat="31.7503550" lon="35.1026610">
    <ele>700.5</ele>
    <time>2018-09-22T07:51:27Z</time>
   </trkpt>
   <trkpt lat="31.7503510" lon="35.1026920">
    <ele>700.2</ele>
    <time>2018-09-22T07:51:30Z</time>
   </trkpt>
   <trkpt lat="31.7503630" lon="35.1027370">
    <ele>699.8</ele>
    <time>2018-09-22T07:51:43Z</time>
   </trkpt>
   <trkpt lat="31.7503490" lon="35.1028000">
    <ele>699.0</ele>
    <time>2018-09-22T07:51:45Z</time>
   </trkpt>
   <trkpt lat="31.7503170" lon="35.1028730">
    <ele>698.2</ele>
    <time>2018-09-22T07:51:47Z</time>
   </trkpt>
   <trkpt lat="31.7503250" lon="35.1029290">
    <ele>697.7</ele>
    <time>2018-09-22T07:51:49Z</time>
   </trkpt>
   <trkpt lat="31.7503340" lon="35.1029610">
    <ele>697.2</ele>
    <time>2018-09-22T07:51:50Z</time>
   </trkpt>
   <trkpt lat="31.7503250" lon="35.1030100">
    <ele>696.6</ele>
    <time>2018-09-22T07:51:52Z</time>
   </trkpt>
   <trkpt lat="31.7503210" lon="35.1030450">
    <ele>696.2</ele>
    <time>2018-09-22T07:51:53Z</time>
   </trkpt>
   <trkpt lat="31.7503050" lon="35.1030860">
    <ele>695.6</ele>
    <time>2018-09-22T07:51:54Z</time>
   </trkpt>
   <trkpt lat="31.7502980" lon="35.1031350">
    <ele>695.0</ele>
    <time>2018-09-22T07:51:56Z</time>
   </trkpt>
   <trkpt lat="31.7502710" lon="35.1031520">
    <ele>694.6</ele>
    <time>2018-09-22T07:51:57Z</time>
   </trkpt>
   <trkpt lat="31.7502840" lon="35.1031990">
    <ele>694.2</ele>
    <time>2018-09-22T07:52:00Z</time>
   </trkpt>
   <trkpt lat="31.7502860" lon="35.1032570">
    <ele>693.8</ele>
    <time>2018-09-22T07:52:02Z</time>
   </trkpt>
   <trkpt lat="31.7502870" lon="35.1032980">
    <ele>693.5</ele>
    <time>2018-09-22T07:52:04Z</time>
   </trkpt>
   <trkpt lat="31.7502880" lon="35.1033310">
    <ele>693.3</ele>
    <time>2018-09-22T07:52:06Z</time>
   </trkpt>
   <trkpt lat="31.7502760" lon="35.1033810">
    <ele>692.8</ele>
    <time>2018-09-22T07:52:08Z</time>
   </trkpt>
   <trkpt lat="31.7502760" lon="35.1034480">
    <ele>692.3</ele>
    <time>2018-09-22T07:52:10Z</time>
   </trkpt>
   <trkpt lat="31.7502870" lon="35.1034890">
    <ele>691.9</ele>
    <time>2018-09-22T07:52:11Z</time>
   </trkpt>
   <trkpt lat="31.7503030" lon="35.1035220">
    <ele>691.7</ele>
    <time>2018-09-22T07:52:12Z</time>
   </trkpt>
   <trkpt lat="31.7503150" lon="35.1035780">
    <ele>691.3</ele>
    <time>2018-09-22T07:52:14Z</time>
   </trkpt>
   <trkpt lat="31.7503440" lon="35.1036300">
    <ele>690.9</ele>
    <time>2018-09-22T07:52:16Z</time>
   </trkpt>
   <trkpt lat="31.7503590" lon="35.1036630">
    <ele>690.6</ele>
    <time>2018-09-22T07:52:17Z</time>
   </trkpt>
   <trkpt lat="31.7503710" lon="35.1037010">
    <ele>690.2</ele>
    <time>2018-09-22T07:52:18Z</time>
   </trkpt>
   <trkpt lat="31.7503750" lon="35.1037460">
    <ele>689.8</ele>
    <time>2018-09-22T07:52:19Z</time>
   </trkpt>
   <trkpt lat="31.7503710" lon="35.1037850">
    <ele>689.4</ele>
    <time>2018-09-22T07:52:20Z</time>
   </trkpt>
   <trkpt lat="31.7503780" lon="35.1038170">
    <ele>689.1</ele>
    <time>2018-09-22T07:52:21Z</time>
   </trkpt>
   <trkpt lat="31.7503960" lon="35.1038510">
    <ele>688.9</ele>
    <time>2018-09-22T07:52:22Z</time>
   </trkpt>
   <trkpt lat="31.7504150" lon="35.1038910">
    <ele>688.7</ele>
    <time>2018-09-22T07:52:23Z</time>
   </trkpt>
   <trkpt lat="31.7504220" lon="35.1039390">
    <ele>688.4</ele>
    <time>2018-09-22T07:52:24Z</time>
   </trkpt>
   <trkpt lat="31.7504310" lon="35.1039770">
    <ele>688.2</ele>
    <time>2018-09-22T07:52:25Z</time>
   </trkpt>
   <trkpt lat="31.7504530" lon="35.1040040">
    <ele>687.9</ele>
    <time>2018-09-22T07:52:26Z</time>
   </trkpt>
   <trkpt lat="31.7504720" lon="35.1040670">
    <ele>687.2</ele>
    <time>2018-09-22T07:52:28Z</time>
   </trkpt>
   <trkpt lat="31.7504540" lon="35.1041210">
    <ele>686.5</ele>
    <time>2018-09-22T07:52:30Z</time>
   </trkpt>
   <trkpt lat="31.7504530" lon="35.1041560">
    <ele>686.1</ele>
    <time>2018-09-22T07:52:31Z</time>
   </trkpt>
   <trkpt lat="31.7504440" lon="35.1041900">
    <ele>685.7</ele>
    <time>2018-09-22T07:52:32Z</time>
   </trkpt>
   <trkpt lat="31.7504410" lon="35.1042280">
    <ele>685.3</ele>
    <time>2018-09-22T07:52:33Z</time>
   </trkpt>
   <trkpt lat="31.7504290" lon="35.1042690">
    <ele>685.0</ele>
    <time>2018-09-22T07:52:34Z</time>
   </trkpt>
   <trkpt lat="31.7504210" lon="35.1043120">
    <ele>684.8</ele>
    <time>2018-09-22T07:52:35Z</time>
   </trkpt>
   <trkpt lat="31.7504170" lon="35.1043540">
    <ele>684.6</ele>
    <time>2018-09-22T07:52:36Z</time>
   </trkpt>
   <trkpt lat="31.7504120" lon="35.1044010">
    <ele>684.5</ele>
    <time>2018-09-22T07:52:37Z</time>
   </trkpt>
   <trkpt lat="31.7504120" lon="35.1044360">
    <ele>684.4</ele>
    <time>2018-09-22T07:52:38Z</time>
   </trkpt>
   <trkpt lat="31.7504140" lon="35.1044730">
    <ele>684.2</ele>
    <time>2018-09-22T07:52:39Z</time>
   </trkpt>
   <trkpt lat="31.7504090" lon="35.1045220">
    <ele>684.0</ele>
    <time>2018-09-22T07:52:40Z</time>
   </trkpt>
   <trkpt lat="31.7504190" lon="35.1045660">
    <ele>683.8</ele>
    <time>2018-09-22T07:52:41Z</time>
   </trkpt>
   <trkpt lat="31.7504180" lon="35.1046180">
    <ele>683.6</ele>
    <time>2018-09-22T07:52:42Z</time>
   </trkpt>
   <trkpt lat="31.7504150" lon="35.1046760">
    <ele>683.2</ele>
    <time>2018-09-22T07:52:43Z</time>
   </trkpt>
   <trkpt lat="31.7504120" lon="35.1047290">
    <ele>682.8</ele>
    <time>2018-09-22T07:52:44Z</time>
   </trkpt>
   <trkpt lat="31.7504100" lon="35.1047730">
    <ele>682.5</ele>
    <time>2018-09-22T07:52:45Z</time>
   </trkpt>
   <trkpt lat="31.7504060" lon="35.1048100">
    <ele>682.3</ele>
    <time>2018-09-22T07:52:46Z</time>
   </trkpt>
   <trkpt lat="31.7503970" lon="35.1048530">
    <ele>682.0</ele>
    <time>2018-09-22T07:52:47Z</time>
   </trkpt>
   <trkpt lat="31.7503890" lon="35.1048870">
    <ele>681.8</ele>
    <time>2018-09-22T07:52:48Z</time>
   </trkpt>
   <trkpt lat="31.7503760" lon="35.1049180">
    <ele>681.7</ele>
    <time>2018-09-22T07:52:49Z</time>
   </trkpt>
   <trkpt lat="31.7503660" lon="35.1049760">
    <ele>681.3</ele>
    <time>2018-09-22T07:52:51Z</time>
   </trkpt>
   <trkpt lat="31.7503570" lon="35.1050190">
    <ele>679.8</ele>
    <time>2018-09-22T07:52:53Z</time>
   </trkpt>
   <trkpt lat="31.7503450" lon="35.1050690">
    <ele>678.8</ele>
    <time>2018-09-22T07:52:55Z</time>
   </trkpt>
   <trkpt lat="31.7503480" lon="35.1051160">
    <ele>677.9</ele>
    <time>2018-09-22T07:52:56Z</time>
   </trkpt>
   <trkpt lat="31.7503500" lon="35.1051570">
    <ele>677.0</ele>
    <time>2018-09-22T07:52:57Z</time>
   </trkpt>
   <trkpt lat="31.7503730" lon="35.1051900">
    <ele>675.7</ele>
    <time>2018-09-22T07:52:58Z</time>
   </trkpt>
   <trkpt lat="31.7503950" lon="35.1052370">
    <ele>674.2</ele>
    <time>2018-09-22T07:53:00Z</time>
   </trkpt>
   <trkpt lat="31.7504100" lon="35.1052800">
    <ele>672.7</ele>
    <time>2018-09-22T07:53:01Z</time>
   </trkpt>
   <trkpt lat="31.7504000" lon="35.1053150">
    <ele>670.7</ele>
    <time>2018-09-22T07:53:02Z</time>
   </trkpt>
   <trkpt lat="31.7503890" lon="35.1053510">
    <ele>670.0</ele>
    <time>2018-09-22T07:53:54Z</time>
   </trkpt>
   <trkpt lat="31.7504020" lon="35.1053810">
    <ele>669.5</ele>
    <time>2018-09-22T07:54:01Z</time>
   </trkpt>
   <trkpt lat="31.7504160" lon="35.1054210">
    <ele>668.1</ele>
    <time>2018-09-22T07:54:06Z</time>
   </trkpt>
   <trkpt lat="31.7503860" lon="35.1054150">
    <ele>666.5</ele>
    <time>2018-09-22T07:54:19Z</time>
   </trkpt>
   <trkpt lat="31.7503590" lon="35.1054240">
    <ele>665.8</ele>
    <time>2018-09-22T07:54:28Z</time>
   </trkpt>
   <trkpt lat="31.7503380" lon="35.1054490">
    <ele>665.2</ele>
    <time>2018-09-22T07:54:32Z</time>
   </trkpt>
   <trkpt lat="31.7503380" lon="35.1054810">
    <ele>664.5</ele>
    <time>2018-09-22T07:54:40Z</time>
   </trkpt>
   <trkpt lat="31.7503600" lon="35.1055010">
    <ele>664.1</ele>
    <time>2018-09-22T07:54:54Z</time>
   </trkpt>
   <trkpt lat="31.7503740" lon="35.1055390">
    <ele>663.5</ele>
    <time>2018-09-22T07:55:03Z</time>
   </trkpt>
   <trkpt lat="31.7503820" lon="35.1055730">
    <ele>663.0</ele>
    <time>2018-09-22T07:55:06Z</time>
   </trkpt>
   <trkpt lat="31.7503500" lon="35.1055820">
    <ele>662.6</ele>
    <time>2018-09-22T07:55:11Z</time>
   </trkpt>
   <trkpt lat="31.7503230" lon="35.1055960">
    <ele>662.1</ele>
    <time>2018-09-22T07:55:57Z</time>
   </trkpt>
   <trkpt lat="31.7502920" lon="35.1056330">
    <ele>660.7</ele>
    <time>2018-09-22T07:55:59Z</time>
   </trkpt>
   <trkpt lat="31.7502750" lon="35.1056590">
    <ele>659.9</ele>
    <time>2018-09-22T07:56:00Z</time>
   </trkpt>
   <trkpt lat="31.7502620" lon="35.1056940">
    <ele>659.1</ele>
    <time>2018-09-22T07:56:01Z</time>
   </trkpt>
   <trkpt lat="31.7502580" lon="35.1057510">
    <ele>658.2</ele>
    <time>2018-09-22T07:56:03Z</time>
   </trkpt>
   <trkpt lat="31.7502370" lon="35.1058070">
    <ele>657.4</ele>
    <time>2018-09-22T07:56:05Z</time>
   </trkpt>
   <trkpt lat="31.7502160" lon="35.1058470">
    <ele>656.8</ele>
    <time>2018-09-22T07:56:06Z</time>
   </trkpt>
   <trkpt lat="31.7501970" lon="35.1058980">
    <ele>656.1</ele>
    <time>2018-09-22T07:56:08Z</time>
   </trkpt>
   <trkpt lat="31.7502120" lon="35.1058720">
    <ele>655.8</ele>
    <time>2018-09-22T07:56:09Z</time>
   </trkpt>
   <trkpt lat="31.7502050" lon="35.1059750">
    <ele>654.5</ele>
    <time>2018-09-22T07:57:01Z</time>
   </trkpt>
   <trkpt lat="31.7501980" lon="35.1059950">
    <ele>654.2</ele>
    <time>2018-09-22T07:57:02Z</time>
   </trkpt>
   <trkpt lat="31.7501700" lon="35.1060350">
    <ele>653.5</ele>
    <time>2018-09-22T07:57:03Z</time>
   </trkpt>
   <trkpt lat="31.7501650" lon="35.1060840">
    <ele>652.9</ele>
    <time>2018-09-22T07:57:04Z</time>
   </trkpt>
   <trkpt lat="31.7501600" lon="35.1061290">
    <ele>652.3</ele>
    <time>2018-09-22T07:57:05Z</time>
   </trkpt>
   <trkpt lat="31.7501620" lon="35.1061610">
    <ele>652.0</ele>
    <time>2018-09-22T07:57:06Z</time>
   </trkpt>
   <trkpt lat="31.7501560" lon="35.1062070">
    <ele>651.4</ele>
    <time>2018-09-22T07:57:07Z</time>
   </trkpt>
   <trkpt lat="31.7501510" lon="35.1062550">
    <ele>650.8</ele>
    <time>2018-09-22T07:57:08Z</time>
   </trkpt>
   <trkpt lat="31.7501440" lon="35.1063020">
    <ele>650.1</ele>
    <time>2018-09-22T07:57:09Z</time>
   </trkpt>
   <trkpt lat="31.7501330" lon="35.1063330">
    <ele>649.6</ele>
    <time>2018-09-22T07:57:10Z</time>
   </trkpt>
   <trkpt lat="31.7501230" lon="35.1063780">
    <ele>649.2</ele>
    <time>2018-09-22T07:57:11Z</time>
   </trkpt>
   <trkpt lat="31.7501040" lon="35.1064360">
    <ele>648.7</ele>
    <time>2018-09-22T07:57:13Z</time>
   </trkpt>
   <trkpt lat="31.7501170" lon="35.1065070">
    <ele>647.7</ele>
    <time>2018-09-22T07:57:15Z</time>
   </trkpt>
   <trkpt lat="31.7501230" lon="35.1065430">
    <ele>647.3</ele>
    <time>2018-09-22T07:57:19Z</time>
   </trkpt>
   <trkpt lat="31.7501300" lon="35.1065800">
    <ele>646.8</ele>
    <time>2018-09-22T07:58:18Z</time>
   </trkpt>
   <trkpt lat="31.7501360" lon="35.1066170">
    <ele>646.2</ele>
    <time>2018-09-22T07:58:19Z</time>
   </trkpt>
   <trkpt lat="31.7501720" lon="35.1066800">
    <ele>644.3</ele>
    <time>2018-09-22T07:58:20Z</time>
   </trkpt>
   <trkpt lat="31.7501850" lon="35.1067140">
    <ele>643.3</ele>
    <time>2018-09-22T07:58:21Z</time>
   </trkpt>
   <trkpt lat="31.7501950" lon="35.1067580">
    <ele>642.2</ele>
    <time>2018-09-22T07:58:22Z</time>
   </trkpt>
   <trkpt lat="31.7502060" lon="35.1068020">
    <ele>641.1</ele>
    <time>2018-09-22T07:58:23Z</time>
   </trkpt>
   <trkpt lat="31.7502060" lon="35.1068520">
    <ele>639.7</ele>
    <time>2018-09-22T07:58:24Z</time>
   </trkpt>
   <trkpt lat="31.7502200" lon="35.1069000">
    <ele>638.9</ele>
    <time>2018-09-22T07:58:25Z</time>
   </trkpt>
   <trkpt lat="31.7502310" lon="35.1069350">
    <ele>637.8</ele>
    <time>2018-09-22T07:58:26Z</time>
   </trkpt>
   <trkpt lat="31.7502310" lon="35.1069830">
    <ele>636.9</ele>
    <time>2018-09-22T07:58:31Z</time>
   </trkpt>
   <trkpt lat="31.7502180" lon="35.1070160">
    <ele>636.3</ele>
    <time>2018-09-22T07:58:34Z</time>
   </trkpt>
   <trkpt lat="31.7501790" lon="35.1070470">
    <ele>634.0</ele>
    <time>2018-09-22T07:58:37Z</time>
   </trkpt>
   <trkpt lat="31.7502210" lon="35.1070710">
    <ele>633.0</ele>
    <time>2018-09-22T07:58:38Z</time>
   </trkpt>
   <trkpt lat="31.7502050" lon="35.1070970">
    <ele>632.2</ele>
    <time>2018-09-22T07:58:50Z</time>
   </trkpt>
   <trkpt lat="31.7501690" lon="35.1071510">
    <ele>630.5</ele>
    <time>2018-09-22T07:58:54Z</time>
   </trkpt>
   <trkpt lat="31.7501430" lon="35.1071940">
    <ele>629.6</ele>
    <time>2018-09-22T07:58:55Z</time>
   </trkpt>
   <trkpt lat="31.7501080" lon="35.1072100">
    <ele>628.7</ele>
    <time>2018-09-22T07:59:02Z</time>
   </trkpt>
   <trkpt lat="31.7500770" lon="35.1072190">
    <ele>628.0</ele>
    <time>2018-09-22T07:59:04Z</time>
   </trkpt>
   <trkpt lat="31.7500480" lon="35.1072210">
    <ele>627.4</ele>
    <time>2018-09-22T07:59:05Z</time>
   </trkpt>
   <trkpt lat="31.7499950" lon="35.1072150">
    <ele>625.8</ele>
    <time>2018-09-22T07:59:07Z</time>
   </trkpt>
   <trkpt lat="31.7499610" lon="35.1072160">
    <ele>625.0</ele>
    <time>2018-09-22T07:59:08Z</time>
   </trkpt>
   <trkpt lat="31.7499300" lon="35.1072140">
    <ele>624.2</ele>
    <time>2018-09-22T07:59:10Z</time>
   </trkpt>
   <trkpt lat="31.7498860" lon="35.1072520">
    <ele>623.0</ele>
    <time>2018-09-22T07:59:12Z</time>
   </trkpt>
   <trkpt lat="31.7498570" lon="35.1072760">
    <ele>622.3</ele>
    <time>2018-09-22T07:59:13Z</time>
   </trkpt>
   <trkpt lat="31.7498140" lon="35.1072930">
    <ele>621.4</ele>
    <time>2018-09-22T07:59:14Z</time>
   </trkpt>
   <trkpt lat="31.7498010" lon="35.1073210">
    <ele>620.9</ele>
    <time>2018-09-22T07:59:15Z</time>
   </trkpt>
   <trkpt lat="31.7497610" lon="35.1073380">
    <ele>620.2</ele>
    <time>2018-09-22T07:59:17Z</time>
   </trkpt>
   <trkpt lat="31.7497260" lon="35.1073540">
    <ele>619.5</ele>
    <time>2018-09-22T07:59:18Z</time>
   </trkpt>
   <trkpt lat="31.7496660" lon="35.1073970">
    <ele>618.5</ele>
    <time>2018-09-22T07:59:20Z</time>
   </trkpt>
   <trkpt lat="31.7496350" lon="35.1074290">
    <ele>617.9</ele>
    <time>2018-09-22T07:59:21Z</time>
   </trkpt>
   <trkpt lat="31.7496110" lon="35.1074470">
    <ele>617.5</ele>
    <time>2018-09-22T07:59:22Z</time>
   </trkpt>
   <trkpt lat="31.7496120" lon="35.1074940">
    <ele>616.9</ele>
    <time>2018-09-22T07:59:23Z</time>
   </trkpt>
   <trkpt lat="31.7496180" lon="35.1075380">
    <ele>616.4</ele>
    <time>2018-09-22T07:59:24Z</time>
   </trkpt>
   <trkpt lat="31.7496260" lon="35.1075980">
    <ele>615.8</ele>
    <time>2018-09-22T07:59:25Z</time>
   </trkpt>
   <trkpt lat="31.7496260" lon="35.1076520">
    <ele>615.2</ele>
    <time>2018-09-22T07:59:26Z</time>
   </trkpt>
   <trkpt lat="31.7496320" lon="35.1077350">
    <ele>614.4</ele>
    <time>2018-09-22T07:59:27Z</time>
   </trkpt>
   <trkpt lat="31.7496340" lon="35.1078150">
    <ele>614.1</ele>
    <time>2018-09-22T07:59:28Z</time>
   </trkpt>
   <trkpt lat="31.7496220" lon="35.1079030">
    <ele>614.2</ele>
    <time>2018-09-22T07:59:29Z</time>
   </trkpt>
   <trkpt lat="31.7496110" lon="35.1079780">
    <ele>614.3</ele>
    <time>2018-09-22T07:59:30Z</time>
   </trkpt>
   <trkpt lat="31.7495920" lon="35.1080360">
    <ele>614.3</ele>
    <time>2018-09-22T07:59:31Z</time>
   </trkpt>
   <trkpt lat="31.7495770" lon="35.1080790">
    <ele>614.3</ele>
    <time>2018-09-22T07:59:32Z</time>
   </trkpt>
   <trkpt lat="31.7495450" lon="35.1081310">
    <ele>614.0</ele>
    <time>2018-09-22T07:59:34Z</time>
   </trkpt>
   <trkpt lat="31.7495190" lon="35.1081480">
    <ele>614.0</ele>
    <time>2018-09-22T07:59:35Z</time>
   </trkpt>
   <trkpt lat="31.7494910" lon="35.1081480">
    <ele>614.0</ele>
    <time>2018-09-22T07:59:36Z</time>
   </trkpt>
   <trkpt lat="31.7494600" lon="35.1081460">
    <ele>613.4</ele>
    <time>2018-09-22T07:59:37Z</time>
   </trkpt>
   <trkpt lat="31.7494330" lon="35.1081440">
    <ele>612.9</ele>
    <time>2018-09-22T07:59:38Z</time>
   </trkpt>
   <trkpt lat="31.7493940" lon="35.1081270">
    <ele>612.1</ele>
    <time>2018-09-22T07:59:40Z</time>
   </trkpt>
   <trkpt lat="31.7493660" lon="35.1081190">
    <ele>611.6</ele>
    <time>2018-09-22T07:59:42Z</time>
   </trkpt>
   <trkpt lat="31.7493360" lon="35.1081000">
    <ele>611.0</ele>
    <time>2018-09-22T07:59:44Z</time>
   </trkpt>
   <trkpt lat="31.7493080" lon="35.1080840">
    <ele>610.4</ele>
    <time>2018-09-22T07:59:46Z</time>
   </trkpt>
   <trkpt lat="31.7492760" lon="35.1080780">
    <ele>609.9</ele>
    <time>2018-09-22T07:59:47Z</time>
   </trkpt>
   <trkpt lat="31.7492350" lon="35.1080820">
    <ele>609.1</ele>
    <time>2018-09-22T07:59:48Z</time>
   </trkpt>
   <trkpt lat="31.7491980" lon="35.1080930">
    <ele>608.3</ele>
    <time>2018-09-22T07:59:49Z</time>
   </trkpt>
   <trkpt lat="31.7491550" lon="35.1081110">
    <ele>606.8</ele>
    <time>2018-09-22T07:59:50Z</time>
   </trkpt>
   <trkpt lat="31.7491040" lon="35.1081300">
    <ele>604.9</ele>
    <time>2018-09-22T07:59:51Z</time>
   </trkpt>
   <trkpt lat="31.7490590" lon="35.1081630">
    <ele>602.8</ele>
    <time>2018-09-22T07:59:52Z</time>
   </trkpt>
   <trkpt lat="31.7490180" lon="35.1082030">
    <ele>600.4</ele>
    <time>2018-09-22T07:59:53Z</time>
   </trkpt>
   <trkpt lat="31.7489760" lon="35.1082340">
    <ele>597.9</ele>
    <time>2018-09-22T07:59:54Z</time>
   </trkpt>
   <trkpt lat="31.7489390" lon="35.1082650">
    <ele>594.9</ele>
    <time>2018-09-22T07:59:55Z</time>
   </trkpt>
   <trkpt lat="31.7489060" lon="35.1082860">
    <ele>594.6</ele>
    <time>2018-09-22T07:59:56Z</time>
   </trkpt>
   <trkpt lat="31.7488690" lon="35.1082890">
    <ele>594.4</ele>
    <time>2018-09-22T07:59:57Z</time>
   </trkpt>
   <trkpt lat="31.7488290" lon="35.1082880">
    <ele>594.1</ele>
    <time>2018-09-22T07:59:58Z</time>
   </trkpt>
   <trkpt lat="31.7487830" lon="35.1082810">
    <ele>593.7</ele>
    <time>2018-09-22T07:59:59Z</time>
   </trkpt>
   <trkpt lat="31.7487120" lon="35.1082710">
    <ele>593.2</ele>
    <time>2018-09-22T08:00:00Z</time>
   </trkpt>
   <trkpt lat="31.7486350" lon="35.1082530">
    <ele>592.6</ele>
    <time>2018-09-22T08:00:01Z</time>
   </trkpt>
   <trkpt lat="31.7485570" lon="35.1082690">
    <ele>592.1</ele>
    <time>2018-09-22T08:00:02Z</time>
   </trkpt>
   <trkpt lat="31.7485070" lon="35.1082980">
    <ele>591.7</ele>
    <time>2018-09-22T08:00:03Z</time>
   </trkpt>
   <trkpt lat="31.7484420" lon="35.1083470">
    <ele>591.1</ele>
    <time>2018-09-22T08:00:04Z</time>
   </trkpt>
   <trkpt lat="31.7483740" lon="35.1083760">
    <ele>590.6</ele>
    <time>2018-09-22T08:00:05Z</time>
   </trkpt>
   <trkpt lat="31.7483390" lon="35.1083620">
    <ele>590.3</ele>
    <time>2018-09-22T08:00:06Z</time>
   </trkpt>
   <trkpt lat="31.7482970" lon="35.1083390">
    <ele>589.9</ele>
    <time>2018-09-22T08:00:07Z</time>
   </trkpt>
   <trkpt lat="31.7482530" lon="35.1083190">
    <ele>589.5</ele>
    <time>2018-09-22T08:00:08Z</time>
   </trkpt>
   <trkpt lat="31.7482150" lon="35.1083100">
    <ele>589.3</ele>
    <time>2018-09-22T08:00:09Z</time>
   </trkpt>
   <trkpt lat="31.7481620" lon="35.1083380">
    <ele>588.9</ele>
    <time>2018-09-22T08:00:10Z</time>
   </trkpt>
   <trkpt lat="31.7481110" lon="35.1083790">
    <ele>588.6</ele>
    <time>2018-09-22T08:00:11Z</time>
   </trkpt>
   <trkpt lat="31.7480580" lon="35.1084220">
    <ele>588.3</ele>
    <time>2018-09-22T08:00:12Z</time>
   </trkpt>
   <trkpt lat="31.7480130" lon="35.1084620">
    <ele>588.1</ele>
    <time>2018-09-22T08:00:13Z</time>
   </trkpt>
   <trkpt lat="31.7479740" lon="35.1085100">
    <ele>587.9</ele>
    <time>2018-09-22T08:00:14Z</time>
   </trkpt>
   <trkpt lat="31.7479300" lon="35.1085590">
    <ele>587.8</ele>
    <time>2018-09-22T08:00:15Z</time>
   </trkpt>
   <trkpt lat="31.7479090" lon="35.1085990">
    <ele>587.7</ele>
    <time>2018-09-22T08:00:16Z</time>
   </trkpt>
   <trkpt lat="31.7478870" lon="35.1086390">
    <ele>587.7</ele>
    <time>2018-09-22T08:00:17Z</time>
   </trkpt>
   <trkpt lat="31.7478600" lon="35.1086740">
    <ele>587.7</ele>
    <time>2018-09-22T08:00:18Z</time>
   </trkpt>
   <trkpt lat="31.7478340" lon="35.1087080">
    <ele>587.7</ele>
    <time>2018-09-22T08:00:19Z</time>
   </trkpt>
   <trkpt lat="31.7478150" lon="35.1087470">
    <ele>587.8</ele>
    <time>2018-09-22T08:00:20Z</time>
   </trkpt>
   <trkpt lat="31.7477950" lon="35.1087770">
    <ele>587.9</ele>
    <time>2018-09-22T08:00:21Z</time>
   </trkpt>
   <trkpt lat="31.7477680" lon="35.1088080">
    <ele>588.0</ele>
    <time>2018-09-22T08:00:22Z</time>
   </trkpt>
   <trkpt lat="31.7477490" lon="35.1088430">
    <ele>588.1</ele>
    <time>2018-09-22T08:00:23Z</time>
   </trkpt>
   <trkpt lat="31.7477240" lon="35.1088690">
    <ele>588.2</ele>
    <time>2018-09-22T08:00:24Z</time>
   </trkpt>
   <trkpt lat="31.7477000" lon="35.1089070">
    <ele>588.4</ele>
    <time>2018-09-22T08:00:25Z</time>
   </trkpt>
   <trkpt lat="31.7476790" lon="35.1089380">
    <ele>588.5</ele>
    <time>2018-09-22T08:00:26Z</time>
   </trkpt>
   <trkpt lat="31.7476450" lon="35.1089620">
    <ele>588.8</ele>
    <time>2018-09-22T08:00:27Z</time>
   </trkpt>
   <trkpt lat="31.7476210" lon="35.1089790">
    <ele>589.0</ele>
    <time>2018-09-22T08:00:28Z</time>
   </trkpt>
   <trkpt lat="31.7475940" lon="35.1090060">
    <ele>589.3</ele>
    <time>2018-09-22T08:00:29Z</time>
   </trkpt>
   <trkpt lat="31.7475600" lon="35.1090230">
    <ele>589.6</ele>
    <time>2018-09-22T08:00:30Z</time>
   </trkpt>
   <trkpt lat="31.7475370" lon="35.1090420">
    <ele>589.9</ele>
    <time>2018-09-22T08:00:31Z</time>
   </trkpt>
   <trkpt lat="31.7475030" lon="35.1090610">
    <ele>590.2</ele>
    <time>2018-09-22T08:00:32Z</time>
   </trkpt>
   <trkpt lat="31.7474730" lon="35.1090760">
    <ele>590.5</ele>
    <time>2018-09-22T08:00:33Z</time>
   </trkpt>
   <trkpt lat="31.7474420" lon="35.1091030">
    <ele>590.9</ele>
    <time>2018-09-22T08:00:34Z</time>
   </trkpt>
   <trkpt lat="31.7474110" lon="35.1091290">
    <ele>591.1</ele>
    <time>2018-09-22T08:00:35Z</time>
   </trkpt>
   <trkpt lat="31.7473810" lon="35.1091550">
    <ele>591.4</ele>
    <time>2018-09-22T08:00:36Z</time>
   </trkpt>
   <trkpt lat="31.7473480" lon="35.1091820">
    <ele>591.6</ele>
    <time>2018-09-22T08:00:37Z</time>
   </trkpt>
   <trkpt lat="31.7473270" lon="35.1092060">
    <ele>591.9</ele>
    <time>2018-09-22T08:00:38Z</time>
   </trkpt>
   <trkpt lat="31.7472970" lon="35.1092320">
    <ele>592.2</ele>
    <time>2018-09-22T08:00:39Z</time>
   </trkpt>
   <trkpt lat="31.7472760" lon="35.1092550">
    <ele>592.4</ele>
    <time>2018-09-22T08:00:40Z</time>
   </trkpt>
   <trkpt lat="31.7472530" lon="35.1092720">
    <ele>592.7</ele>
    <time>2018-09-22T08:00:41Z</time>
   </trkpt>
   <trkpt lat="31.7472090" lon="35.1092950">
    <ele>593.0</ele>
    <time>2018-09-22T08:00:43Z</time>
   </trkpt>
   <trkpt lat="31.7471830" lon="35.1093150">
    <ele>593.3</ele>
    <time>2018-09-22T08:00:44Z</time>
   </trkpt>
   <trkpt lat="31.7471580" lon="35.1093320">
    <ele>593.5</ele>
    <time>2018-09-22T08:00:45Z</time>
   </trkpt>
   <trkpt lat="31.7471000" lon="35.1093570">
    <ele>593.9</ele>
    <time>2018-09-22T08:00:47Z</time>
   </trkpt>
   <trkpt lat="31.7470780" lon="35.1093800">
    <ele>594.1</ele>
    <time>2018-09-22T08:00:48Z</time>
   </trkpt>
   <trkpt lat="31.7470520" lon="35.1093970">
    <ele>594.3</ele>
    <time>2018-09-22T08:00:49Z</time>
   </trkpt>
   <trkpt lat="31.7470080" lon="35.1094200">
    <ele>594.5</ele>
    <time>2018-09-22T08:00:51Z</time>
   </trkpt>
   <trkpt lat="31.7469810" lon="35.1094400">
    <ele>594.7</ele>
    <time>2018-09-22T08:00:52Z</time>
   </trkpt>
   <trkpt lat="31.7469490" lon="35.1094520">
    <ele>595.0</ele>
    <time>2018-09-22T08:00:53Z</time>
   </trkpt>
   <trkpt lat="31.7469130" lon="35.1094480">
    <ele>595.3</ele>
    <time>2018-09-22T08:00:55Z</time>
   </trkpt>
   <trkpt lat="31.7468810" lon="35.1094620">
    <ele>595.6</ele>
    <time>2018-09-22T08:00:56Z</time>
   </trkpt>
   <trkpt lat="31.7468410" lon="35.1094750">
    <ele>596.0</ele>
    <time>2018-09-22T08:00:57Z</time>
   </trkpt>
   <trkpt lat="31.7468040" lon="35.1094880">
    <ele>596.4</ele>
    <time>2018-09-22T08:00:58Z</time>
   </trkpt>
   <trkpt lat="31.7467630" lon="35.1095110">
    <ele>596.7</ele>
    <time>2018-09-22T08:00:59Z</time>
   </trkpt>
   <trkpt lat="31.7467180" lon="35.1095200">
    <ele>597.0</ele>
    <time>2018-09-22T08:01:00Z</time>
   </trkpt>
   <trkpt lat="31.7466710" lon="35.1095370">
    <ele>597.2</ele>
    <time>2018-09-22T08:01:01Z</time>
   </trkpt>
   <trkpt lat="31.7466350" lon="35.1095510">
    <ele>597.3</ele>
    <time>2018-09-22T08:01:02Z</time>
   </trkpt>
   <trkpt lat="31.7466000" lon="35.1095700">
    <ele>597.4</ele>
    <time>2018-09-22T08:01:03Z</time>
   </trkpt>
   <trkpt lat="31.7465600" lon="35.1095910">
    <ele>597.5</ele>
    <time>2018-09-22T08:01:04Z</time>
   </trkpt>
   <trkpt lat="31.7465250" lon="35.1096010">
    <ele>597.5</ele>
    <time>2018-09-22T08:01:05Z</time>
   </trkpt>
   <trkpt lat="31.7464920" lon="35.1096200">
    <ele>597.6</ele>
    <time>2018-09-22T08:01:06Z</time>
   </trkpt>
   <trkpt lat="31.7464290" lon="35.1096500">
    <ele>597.7</ele>
    <time>2018-09-22T08:01:08Z</time>
   </trkpt>
   <trkpt lat="31.7464000" lon="35.1096620">
    <ele>597.7</ele>
    <time>2018-09-22T08:01:09Z</time>
   </trkpt>
   <trkpt lat="31.7463550" lon="35.1096620">
    <ele>597.8</ele>
    <time>2018-09-22T08:01:10Z</time>
   </trkpt>
   <trkpt lat="31.7463030" lon="35.1096630">
    <ele>597.9</ele>
    <time>2018-09-22T08:01:11Z</time>
   </trkpt>
   <trkpt lat="31.7462450" lon="35.1096490">
    <ele>598.0</ele>
    <time>2018-09-22T08:01:12Z</time>
   </trkpt>
   <trkpt lat="31.7461810" lon="35.1096390">
    <ele>598.0</ele>
    <time>2018-09-22T08:01:13Z</time>
   </trkpt>
   <trkpt lat="31.7461110" lon="35.1096390">
    <ele>598.0</ele>
    <time>2018-09-22T08:01:14Z</time>
   </trkpt>
   <trkpt lat="31.7460630" lon="35.1096610">
    <ele>598.0</ele>
    <time>2018-09-22T08:01:15Z</time>
   </trkpt>
   <trkpt lat="31.7459970" lon="35.1096840">
    <ele>598.0</ele>
    <time>2018-09-22T08:01:16Z</time>
   </trkpt>
   <trkpt lat="31.7459470" lon="35.1097220">
    <ele>597.9</ele>
    <time>2018-09-22T08:01:17Z</time>
   </trkpt>
   <trkpt lat="31.7458930" lon="35.1097660">
    <ele>597.7</ele>
    <time>2018-09-22T08:01:18Z</time>
   </trkpt>
   <trkpt lat="31.7458590" lon="35.1098060">
    <ele>597.6</ele>
    <time>2018-09-22T08:01:19Z</time>
   </trkpt>
   <trkpt lat="31.7458040" lon="35.1098280">
    <ele>597.4</ele>
    <time>2018-09-22T08:01:20Z</time>
   </trkpt>
   <trkpt lat="31.7457660" lon="35.1098580">
    <ele>597.3</ele>
    <time>2018-09-22T08:01:21Z</time>
   </trkpt>
   <trkpt lat="31.7457300" lon="35.1098950">
    <ele>597.2</ele>
    <time>2018-09-22T08:01:22Z</time>
   </trkpt>
   <trkpt lat="31.7456940" lon="35.1099250">
    <ele>597.1</ele>
    <time>2018-09-22T08:01:23Z</time>
   </trkpt>
   <trkpt lat="31.7456560" lon="35.1099510">
    <ele>597.1</ele>
    <time>2018-09-22T08:01:24Z</time>
   </trkpt>
   <trkpt lat="31.7456150" lon="35.1099810">
    <ele>597.1</ele>
    <time>2018-09-22T08:01:25Z</time>
   </trkpt>
   <trkpt lat="31.7455760" lon="35.1100000">
    <ele>597.1</ele>
    <time>2018-09-22T08:01:26Z</time>
   </trkpt>
   <trkpt lat="31.7455430" lon="35.1100100">
    <ele>597.0</ele>
    <time>2018-09-22T08:01:27Z</time>
   </trkpt>
   <trkpt lat="31.7455020" lon="35.1100290">
    <ele>597.0</ele>
    <time>2018-09-22T08:01:28Z</time>
   </trkpt>
   <trkpt lat="31.7454640" lon="35.1100470">
    <ele>597.0</ele>
    <time>2018-09-22T08:01:29Z</time>
   </trkpt>
   <trkpt lat="31.7454230" lon="35.1100550">
    <ele>597.0</ele>
    <time>2018-09-22T08:01:30Z</time>
   </trkpt>
   <trkpt lat="31.7453770" lon="35.1100790">
    <ele>597.0</ele>
    <time>2018-09-22T08:01:31Z</time>
   </trkpt>
   <trkpt lat="31.7453370" lon="35.1101070">
    <ele>597.0</ele>
    <time>2018-09-22T08:01:32Z</time>
   </trkpt>
   <trkpt lat="31.7452830" lon="35.1101170">
    <ele>597.0</ele>
    <time>2018-09-22T08:01:33Z</time>
   </trkpt>
   <trkpt lat="31.7452260" lon="35.1101340">
    <ele>597.0</ele>
    <time>2018-09-22T08:01:34Z</time>
   </trkpt>
   <trkpt lat="31.7451700" lon="35.1101810">
    <ele>597.0</ele>
    <time>2018-09-22T08:01:35Z</time>
   </trkpt>
   <trkpt lat="31.7451180" lon="35.1102180">
    <ele>596.9</ele>
    <time>2018-09-22T08:01:36Z</time>
   </trkpt>
   <trkpt lat="31.7450680" lon="35.1102420">
    <ele>596.9</ele>
    <time>2018-09-22T08:01:37Z</time>
   </trkpt>
   <trkpt lat="31.7450260" lon="35.1102780">
    <ele>596.8</ele>
    <time>2018-09-22T08:01:38Z</time>
   </trkpt>
   <trkpt lat="31.7449900" lon="35.1103190">
    <ele>596.8</ele>
    <time>2018-09-22T08:01:39Z</time>
   </trkpt>
   <trkpt lat="31.7449620" lon="35.1103740">
    <ele>596.7</ele>
    <time>2018-09-22T08:01:40Z</time>
   </trkpt>
   <trkpt lat="31.7449240" lon="35.1103950">
    <ele>596.6</ele>
    <time>2018-09-22T08:01:41Z</time>
   </trkpt>
   <trkpt lat="31.7448810" lon="35.1104230">
    <ele>596.5</ele>
    <time>2018-09-22T08:01:42Z</time>
   </trkpt>
   <trkpt lat="31.7448540" lon="35.1104650">
    <ele>596.3</ele>
    <time>2018-09-22T08:01:43Z</time>
   </trkpt>
   <trkpt lat="31.7448530" lon="35.1105270">
    <ele>596.0</ele>
    <time>2018-09-22T08:01:44Z</time>
   </trkpt>
   <trkpt lat="31.7448520" lon="35.1105780">
    <ele>595.8</ele>
    <time>2018-09-22T08:01:45Z</time>
   </trkpt>
   <trkpt lat="31.7448270" lon="35.1106190">
    <ele>595.6</ele>
    <time>2018-09-22T08:01:46Z</time>
   </trkpt>
   <trkpt lat="31.7448030" lon="35.1106860">
    <ele>595.2</ele>
    <time>2018-09-22T08:01:47Z</time>
   </trkpt>
   <trkpt lat="31.7447770" lon="35.1107450">
    <ele>594.8</ele>
    <time>2018-09-22T08:01:48Z</time>
   </trkpt>
   <trkpt lat="31.7447530" lon="35.1108030">
    <ele>594.3</ele>
    <time>2018-09-22T08:01:49Z</time>
   </trkpt>
   <trkpt lat="31.7447270" lon="35.1108570">
    <ele>593.9</ele>
    <time>2018-09-22T08:01:50Z</time>
   </trkpt>
   <trkpt lat="31.7447140" lon="35.1109210">
    <ele>593.5</ele>
    <time>2018-09-22T08:01:51Z</time>
   </trkpt>
   <trkpt lat="31.7447070" lon="35.1109790">
    <ele>593.1</ele>
    <time>2018-09-22T08:01:52Z</time>
   </trkpt>
   <trkpt lat="31.7446990" lon="35.1110350">
    <ele>592.7</ele>
    <time>2018-09-22T08:01:53Z</time>
   </trkpt>
   <trkpt lat="31.7446910" lon="35.1110890">
    <ele>592.4</ele>
    <time>2018-09-22T08:01:54Z</time>
   </trkpt>
   <trkpt lat="31.7446810" lon="35.1111390">
    <ele>592.1</ele>
    <time>2018-09-22T08:01:55Z</time>
   </trkpt>
   <trkpt lat="31.7446640" lon="35.1111950">
    <ele>591.9</ele>
    <time>2018-09-22T08:01:56Z</time>
   </trkpt>
   <trkpt lat="31.7446380" lon="35.1112420">
    <ele>591.8</ele>
    <time>2018-09-22T08:01:57Z</time>
   </trkpt>
   <trkpt lat="31.7446270" lon="35.1113060">
    <ele>591.7</ele>
    <time>2018-09-22T08:01:58Z</time>
   </trkpt>
   <trkpt lat="31.7446240" lon="35.1113570">
    <ele>591.7</ele>
    <time>2018-09-22T08:01:59Z</time>
   </trkpt>
   <trkpt lat="31.7446070" lon="35.1113940">
    <ele>591.7</ele>
    <time>2018-09-22T08:02:00Z</time>
   </trkpt>
   <trkpt lat="31.7445770" lon="35.1114530">
    <ele>591.7</ele>
    <time>2018-09-22T08:02:01Z</time>
   </trkpt>
   <trkpt lat="31.7445630" lon="35.1115300">
    <ele>591.7</ele>
    <time>2018-09-22T08:02:02Z</time>
   </trkpt>
   <trkpt lat="31.7445560" lon="35.1116070">
    <ele>591.5</ele>
    <time>2018-09-22T08:02:03Z</time>
   </trkpt>
   <trkpt lat="31.7445530" lon="35.1116640">
    <ele>591.4</ele>
    <time>2018-09-22T08:02:04Z</time>
   </trkpt>
   <trkpt lat="31.7445500" lon="35.1117140">
    <ele>591.2</ele>
    <time>2018-09-22T08:02:05Z</time>
   </trkpt>
   <trkpt lat="31.7445420" lon="35.1117560">
    <ele>591.0</ele>
    <time>2018-09-22T08:02:06Z</time>
   </trkpt>
   <trkpt lat="31.7445050" lon="35.1117830">
    <ele>590.7</ele>
    <time>2018-09-22T08:02:07Z</time>
   </trkpt>
   <trkpt lat="31.7444630" lon="35.1117960">
    <ele>590.4</ele>
    <time>2018-09-22T08:02:08Z</time>
   </trkpt>
   <trkpt lat="31.7444060" lon="35.1117880">
    <ele>589.8</ele>
    <time>2018-09-22T08:02:09Z</time>
   </trkpt>
   <trkpt lat="31.7443680" lon="35.1117570">
    <ele>589.3</ele>
    <time>2018-09-22T08:02:10Z</time>
   </trkpt>
   <trkpt lat="31.7443660" lon="35.1117130">
    <ele>588.9</ele>
    <time>2018-09-22T08:02:11Z</time>
   </trkpt>
   <trkpt lat="31.7443440" lon="35.1116510">
    <ele>588.4</ele>
    <time>2018-09-22T08:02:12Z</time>
   </trkpt>
   <trkpt lat="31.7443050" lon="35.1116090">
    <ele>588.1</ele>
    <time>2018-09-22T08:02:13Z</time>
   </trkpt>
   <trkpt lat="31.7442750" lon="35.1115630">
    <ele>587.7</ele>
    <time>2018-09-22T08:02:14Z</time>
   </trkpt>
   <trkpt lat="31.7442480" lon="35.1115230">
    <ele>587.3</ele>
    <time>2018-09-22T08:02:15Z</time>
   </trkpt>
   <trkpt lat="31.7442230" lon="35.1114800">
    <ele>587.0</ele>
    <time>2018-09-22T08:02:16Z</time>
   </trkpt>
   <trkpt lat="31.7441970" lon="35.1114290">
    <ele>586.6</ele>
    <time>2018-09-22T08:02:17Z</time>
   </trkpt>
   <trkpt lat="31.7441720" lon="35.1114060">
    <ele>586.4</ele>
    <time>2018-09-22T08:02:18Z</time>
   </trkpt>
   <trkpt lat="31.7441450" lon="35.1113760">
    <ele>586.1</ele>
    <time>2018-09-22T08:02:19Z</time>
   </trkpt>
   <trkpt lat="31.7441150" lon="35.1113440">
    <ele>585.7</ele>
    <time>2018-09-22T08:02:20Z</time>
   </trkpt>
   <trkpt lat="31.7440870" lon="35.1113150">
    <ele>585.4</ele>
    <time>2018-09-22T08:02:21Z</time>
   </trkpt>
   <trkpt lat="31.7440600" lon="35.1112770">
    <ele>585.1</ele>
    <time>2018-09-22T08:02:22Z</time>
   </trkpt>
   <trkpt lat="31.7440350" lon="35.1112290">
    <ele>584.7</ele>
    <time>2018-09-22T08:02:23Z</time>
   </trkpt>
   <trkpt lat="31.7439950" lon="35.1111890">
    <ele>584.3</ele>
    <time>2018-09-22T08:02:24Z</time>
   </trkpt>
   <trkpt lat="31.7439620" lon="35.1111630">
    <ele>584.0</ele>
    <time>2018-09-22T08:02:25Z</time>
   </trkpt>
   <trkpt lat="31.7439400" lon="35.1111300">
    <ele>583.7</ele>
    <time>2018-09-22T08:02:26Z</time>
   </trkpt>
   <trkpt lat="31.7439220" lon="35.1111020">
    <ele>583.4</ele>
    <time>2018-09-22T08:02:27Z</time>
   </trkpt>
   <trkpt lat="31.7438970" lon="35.1110590">
    <ele>583.1</ele>
    <time>2018-09-22T08:02:28Z</time>
   </trkpt>
   <trkpt lat="31.7438690" lon="35.1110310">
    <ele>582.8</ele>
    <time>2018-09-22T08:02:29Z</time>
   </trkpt>
   <trkpt lat="31.7438430" lon="35.1109930">
    <ele>582.3</ele>
    <time>2018-09-22T08:02:30Z</time>
   </trkpt>
   <trkpt lat="31.7438110" lon="35.1109510">
    <ele>581.7</ele>
    <time>2018-09-22T08:02:31Z</time>
   </trkpt>
   <trkpt lat="31.7437740" lon="35.1109090">
    <ele>581.1</ele>
    <time>2018-09-22T08:02:32Z</time>
   </trkpt>
   <trkpt lat="31.7437380" lon="35.1108610">
    <ele>580.5</ele>
    <time>2018-09-22T08:02:33Z</time>
   </trkpt>
   <trkpt lat="31.7437000" lon="35.1108150">
    <ele>579.9</ele>
    <time>2018-09-22T08:02:34Z</time>
   </trkpt>
   <trkpt lat="31.7436590" lon="35.1107690">
    <ele>578.7</ele>
    <time>2018-09-22T08:02:35Z</time>
   </trkpt>
   <trkpt lat="31.7436170" lon="35.1107170">
    <ele>577.4</ele>
    <time>2018-09-22T08:02:36Z</time>
   </trkpt>
   <trkpt lat="31.7435730" lon="35.1106760">
    <ele>575.9</ele>
    <time>2018-09-22T08:02:37Z</time>
   </trkpt>
   <trkpt lat="31.7435250" lon="35.1106350">
    <ele>574.4</ele>
    <time>2018-09-22T08:02:38Z</time>
   </trkpt>
   <trkpt lat="31.7434670" lon="35.1106000">
    <ele>572.6</ele>
    <time>2018-09-22T08:02:39Z</time>
   </trkpt>
   <trkpt lat="31.7434160" lon="35.1105760">
    <ele>571.1</ele>
    <time>2018-09-22T08:02:40Z</time>
   </trkpt>
   <trkpt lat="31.7433630" lon="35.1105640">
    <ele>569.5</ele>
    <time>2018-09-22T08:02:41Z</time>
   </trkpt>
   <trkpt lat="31.7433130" lon="35.1105550">
    <ele>567.9</ele>
    <time>2018-09-22T08:02:42Z</time>
   </trkpt>
   <trkpt lat="31.7432660" lon="35.1105480">
    <ele>566.4</ele>
    <time>2018-09-22T08:02:43Z</time>
   </trkpt>
   <trkpt lat="31.7432270" lon="35.1105450">
    <ele>565.0</ele>
    <time>2018-09-22T08:02:44Z</time>
   </trkpt>
   <trkpt lat="31.7431830" lon="35.1105520">
    <ele>563.4</ele>
    <time>2018-09-22T08:02:45Z</time>
   </trkpt>
   <trkpt lat="31.7431530" lon="35.1105570">
    <ele>562.2</ele>
    <time>2018-09-22T08:02:46Z</time>
   </trkpt>
   <trkpt lat="31.7431240" lon="35.1105700">
    <ele>561.0</ele>
    <time>2018-09-22T08:02:47Z</time>
   </trkpt>
   <trkpt lat="31.7430900" lon="35.1105880">
    <ele>559.5</ele>
    <time>2018-09-22T08:02:49Z</time>
   </trkpt>
   <trkpt lat="31.7430550" lon="35.1106010">
    <ele>557.9</ele>
    <time>2018-09-22T08:02:51Z</time>
   </trkpt>
   <trkpt lat="31.7430150" lon="35.1105820">
    <ele>555.9</ele>
    <time>2018-09-22T08:02:53Z</time>
   </trkpt>
   <trkpt lat="31.7429740" lon="35.1105370">
    <ele>552.8</ele>
    <time>2018-09-22T08:02:55Z</time>
   </trkpt>
   <trkpt lat="31.7429460" lon="35.1104910">
    <ele>552.6</ele>
    <time>2018-09-22T08:02:56Z</time>
   </trkpt>
   <trkpt lat="31.7429410" lon="35.1104370">
    <ele>552.4</ele>
    <time>2018-09-22T08:02:57Z</time>
   </trkpt>
   <trkpt lat="31.7429500" lon="35.1103850">
    <ele>552.1</ele>
    <time>2018-09-22T08:02:58Z</time>
   </trkpt>
   <trkpt lat="31.7429710" lon="35.1103410">
    <ele>551.8</ele>
    <time>2018-09-22T08:02:59Z</time>
   </trkpt>
   <trkpt lat="31.7430010" lon="35.1102940">
    <ele>551.4</ele>
    <time>2018-09-22T08:03:00Z</time>
   </trkpt>
   <trkpt lat="31.7430360" lon="35.1102550">
    <ele>550.9</ele>
    <time>2018-09-22T08:03:01Z</time>
   </trkpt>
   <trkpt lat="31.7430800" lon="35.1102250">
    <ele>550.3</ele>
    <time>2018-09-22T08:03:02Z</time>
   </trkpt>
   <trkpt lat="31.7431180" lon="35.1101990">
    <ele>549.8</ele>
    <time>2018-09-22T08:03:03Z</time>
   </trkpt>
   <trkpt lat="31.7431440" lon="35.1101400">
    <ele>549.1</ele>
    <time>2018-09-22T08:03:05Z</time>
   </trkpt>
   <trkpt lat="31.7431520" lon="35.1101020">
    <ele>548.7</ele>
    <time>2018-09-22T08:03:06Z</time>
   </trkpt>
   <trkpt lat="31.7431400" lon="35.1100390">
    <ele>547.9</ele>
    <time>2018-09-22T08:03:07Z</time>
   </trkpt>
   <trkpt lat="31.7431290" lon="35.1099760">
    <ele>547.0</ele>
    <time>2018-09-22T08:03:08Z</time>
   </trkpt>
   <trkpt lat="31.7431150" lon="35.1099170">
    <ele>546.1</ele>
    <time>2018-09-22T08:03:09Z</time>
   </trkpt>
   <trkpt lat="31.7430940" lon="35.1098640">
    <ele>545.2</ele>
    <time>2018-09-22T08:03:10Z</time>
   </trkpt>
   <trkpt lat="31.7430700" lon="35.1098140">
    <ele>544.4</ele>
    <time>2018-09-22T08:03:11Z</time>
   </trkpt>
   <trkpt lat="31.7430380" lon="35.1097690">
    <ele>543.7</ele>
    <time>2018-09-22T08:03:12Z</time>
   </trkpt>
   <trkpt lat="31.7430010" lon="35.1097550">
    <ele>543.2</ele>
    <time>2018-09-22T08:03:13Z</time>
   </trkpt>
   <trkpt lat="31.7429530" lon="35.1097530">
    <ele>542.6</ele>
    <time>2018-09-22T08:03:14Z</time>
   </trkpt>
   <trkpt lat="31.7429190" lon="35.1097490">
    <ele>542.2</ele>
    <time>2018-09-22T08:03:15Z</time>
   </trkpt>
   <trkpt lat="31.7428880" lon="35.1097350">
    <ele>541.8</ele>
    <time>2018-09-22T08:03:16Z</time>
   </trkpt>
   <trkpt lat="31.7428540" lon="35.1097270">
    <ele>541.4</ele>
    <time>2018-09-22T08:03:17Z</time>
   </trkpt>
   <trkpt lat="31.7428240" lon="35.1097120">
    <ele>541.0</ele>
    <time>2018-09-22T08:03:18Z</time>
   </trkpt>
   <trkpt lat="31.7427960" lon="35.1096920">
    <ele>540.7</ele>
    <time>2018-09-22T08:03:19Z</time>
   </trkpt>
   <trkpt lat="31.7427820" lon="35.1096180">
    <ele>540.0</ele>
    <time>2018-09-22T08:03:21Z</time>
   </trkpt>
   <trkpt lat="31.7427780" lon="35.1095520">
    <ele>539.6</ele>
    <time>2018-09-22T08:03:22Z</time>
   </trkpt>
   <trkpt lat="31.7427700" lon="35.1094690">
    <ele>539.0</ele>
    <time>2018-09-22T08:03:23Z</time>
   </trkpt>
   <trkpt lat="31.7427670" lon="35.1094050">
    <ele>538.5</ele>
    <time>2018-09-22T08:03:24Z</time>
   </trkpt>
   <trkpt lat="31.7427870" lon="35.1093390">
    <ele>538.0</ele>
    <time>2018-09-22T08:03:25Z</time>
   </trkpt>
   <trkpt lat="31.7427950" lon="35.1092860">
    <ele>537.5</ele>
    <time>2018-09-22T08:03:26Z</time>
   </trkpt>
   <trkpt lat="31.7428060" lon="35.1092430">
    <ele>537.2</ele>
    <time>2018-09-22T08:03:27Z</time>
   </trkpt>
   <trkpt lat="31.7428430" lon="35.1092100">
    <ele>536.8</ele>
    <time>2018-09-22T08:03:28Z</time>
   </trkpt>
   <trkpt lat="31.7428800" lon="35.1091970">
    <ele>536.4</ele>
    <time>2018-09-22T08:03:30Z</time>
   </trkpt>
   <trkpt lat="31.7429270" lon="35.1091910">
    <ele>536.1</ele>
    <time>2018-09-22T08:03:31Z</time>
   </trkpt>
   <trkpt lat="31.7429790" lon="35.1092010">
    <ele>535.8</ele>
    <time>2018-09-22T08:03:32Z</time>
   </trkpt>
   <trkpt lat="31.7430140" lon="35.1092030">
    <ele>535.6</ele>
    <time>2018-09-22T08:03:33Z</time>
   </trkpt>
   <trkpt lat="31.7430760" lon="35.1092290">
    <ele>535.5</ele>
    <time>2018-09-22T08:03:34Z</time>
   </trkpt>
   <trkpt lat="31.7431150" lon="35.1092530">
    <ele>535.4</ele>
    <time>2018-09-22T08:03:35Z</time>
   </trkpt>
   <trkpt lat="31.7431790" lon="35.1092380">
    <ele>535.2</ele>
    <time>2018-09-22T08:03:36Z</time>
   </trkpt>
   <trkpt lat="31.7432370" lon="35.1092390">
    <ele>535.1</ele>
    <time>2018-09-22T08:03:37Z</time>
   </trkpt>
   <trkpt lat="31.7432890" lon="35.1092460">
    <ele>534.9</ele>
    <time>2018-09-22T08:03:38Z</time>
   </trkpt>
   <trkpt lat="31.7433420" lon="35.1092690">
    <ele>534.7</ele>
    <time>2018-09-22T08:03:39Z</time>
   </trkpt>
   <trkpt lat="31.7433910" lon="35.1093100">
    <ele>534.5</ele>
    <time>2018-09-22T08:03:40Z</time>
   </trkpt>
   <trkpt lat="31.7434290" lon="35.1093510">
    <ele>534.3</ele>
    <time>2018-09-22T08:03:41Z</time>
   </trkpt>
   <trkpt lat="31.7434840" lon="35.1093980">
    <ele>534.0</ele>
    <time>2018-09-22T08:03:42Z</time>
   </trkpt>
   <trkpt lat="31.7435350" lon="35.1094400">
    <ele>533.8</ele>
    <time>2018-09-22T08:03:43Z</time>
   </trkpt>
   <trkpt lat="31.7435870" lon="35.1094860">
    <ele>533.6</ele>
    <time>2018-09-22T08:03:44Z</time>
   </trkpt>
   <trkpt lat="31.7436190" lon="35.1095470">
    <ele>533.4</ele>
    <time>2018-09-22T08:03:45Z</time>
   </trkpt>
   <trkpt lat="31.7436510" lon="35.1095990">
    <ele>533.3</ele>
    <time>2018-09-22T08:03:46Z</time>
   </trkpt>
   <trkpt lat="31.7436910" lon="35.1096510">
    <ele>533.2</ele>
    <time>2018-09-22T08:03:47Z</time>
   </trkpt>
   <trkpt lat="31.7437380" lon="35.1096870">
    <ele>533.2</ele>
    <time>2018-09-22T08:03:48Z</time>
   </trkpt>
   <trkpt lat="31.7437830" lon="35.1097060">
    <ele>533.2</ele>
    <time>2018-09-22T08:03:49Z</time>
   </trkpt>
   <trkpt lat="31.7438380" lon="35.1097210">
    <ele>533.2</ele>
    <time>2018-09-22T08:03:50Z</time>
   </trkpt>
   <trkpt lat="31.7438900" lon="35.1097180">
    <ele>533.2</ele>
    <time>2018-09-22T08:03:51Z</time>
   </trkpt>
   <trkpt lat="31.7439420" lon="35.1096880">
    <ele>533.3</ele>
    <time>2018-09-22T08:03:52Z</time>
   </trkpt>
   <trkpt lat="31.7438910" lon="35.1096050">
    <ele>533.4</ele>
    <time>2018-09-22T08:03:53Z</time>
   </trkpt>
   <trkpt lat="31.7438880" lon="35.1095410">
    <ele>533.5</ele>
    <time>2018-09-22T08:03:54Z</time>
   </trkpt>
   <trkpt lat="31.7438950" lon="35.1094690">
    <ele>533.6</ele>
    <time>2018-09-22T08:03:55Z</time>
   </trkpt>
   <trkpt lat="31.7439090" lon="35.1094110">
    <ele>533.7</ele>
    <time>2018-09-22T08:03:56Z</time>
   </trkpt>
   <trkpt lat="31.7439100" lon="35.1093520">
    <ele>533.8</ele>
    <time>2018-09-22T08:03:57Z</time>
   </trkpt>
   <trkpt lat="31.7439150" lon="35.1092980">
    <ele>533.9</ele>
    <time>2018-09-22T08:03:58Z</time>
   </trkpt>
   <trkpt lat="31.7439060" lon="35.1092360">
    <ele>534.0</ele>
    <time>2018-09-22T08:03:59Z</time>
   </trkpt>
   <trkpt lat="31.7439000" lon="35.1091710">
    <ele>534.1</ele>
    <time>2018-09-22T08:04:00Z</time>
   </trkpt>
   <trkpt lat="31.7438860" lon="35.1091080">
    <ele>534.2</ele>
    <time>2018-09-22T08:04:01Z</time>
   </trkpt>
   <trkpt lat="31.7438810" lon="35.1090470">
    <ele>534.3</ele>
    <time>2018-09-22T08:04:02Z</time>
   </trkpt>
   <trkpt lat="31.7438880" lon="35.1089870">
    <ele>534.4</ele>
    <time>2018-09-22T08:04:03Z</time>
   </trkpt>
   <trkpt lat="31.7439000" lon="35.1089330">
    <ele>534.5</ele>
    <time>2018-09-22T08:04:04Z</time>
   </trkpt>
   <trkpt lat="31.7439160" lon="35.1088810">
    <ele>534.6</ele>
    <time>2018-09-22T08:04:05Z</time>
   </trkpt>
   <trkpt lat="31.7439180" lon="35.1088380">
    <ele>534.6</ele>
    <time>2018-09-22T08:04:06Z</time>
   </trkpt>
   <trkpt lat="31.7439480" lon="35.1087800">
    <ele>534.7</ele>
    <time>2018-09-22T08:04:07Z</time>
   </trkpt>
   <trkpt lat="31.7439530" lon="35.1087340">
    <ele>534.8</ele>
    <time>2018-09-22T08:04:08Z</time>
   </trkpt>
   <trkpt lat="31.7439660" lon="35.1086790">
    <ele>534.8</ele>
    <time>2018-09-22T08:04:09Z</time>
   </trkpt>
   <trkpt lat="31.7439720" lon="35.1086410">
    <ele>534.9</ele>
    <time>2018-09-22T08:04:10Z</time>
   </trkpt>
   <trkpt lat="31.7439830" lon="35.1085950">
    <ele>534.9</ele>
    <time>2018-09-22T08:04:11Z</time>
   </trkpt>
   <trkpt lat="31.7439740" lon="35.1085360">
    <ele>535.0</ele>
    <time>2018-09-22T08:04:13Z</time>
   </trkpt>
   <trkpt lat="31.7439630" lon="35.1085070">
    <ele>534.9</ele>
    <time>2018-09-22T08:04:14Z</time>
   </trkpt>
   <trkpt lat="31.7439440" lon="35.1084600">
    <ele>534.6</ele>
    <time>2018-09-22T08:04:16Z</time>
   </trkpt>
   <trkpt lat="31.7439370" lon="35.1084200">
    <ele>534.4</ele>
    <time>2018-09-22T08:04:19Z</time>
   </trkpt>
   <trkpt lat="31.7439350" lon="35.1083870">
    <ele>534.2</ele>
    <time>2018-09-22T08:04:21Z</time>
   </trkpt>
   <trkpt lat="31.7439220" lon="35.1083490">
    <ele>533.9</ele>
    <time>2018-09-22T08:04:22Z</time>
   </trkpt>
   <trkpt lat="31.7439140" lon="35.1082970">
    <ele>533.7</ele>
    <time>2018-09-22T08:04:23Z</time>
   </trkpt>
   <trkpt lat="31.7439040" lon="35.1082360">
    <ele>533.4</ele>
    <time>2018-09-22T08:04:24Z</time>
   </trkpt>
   <trkpt lat="31.7438930" lon="35.1081760">
    <ele>533.1</ele>
    <time>2018-09-22T08:04:25Z</time>
   </trkpt>
   <trkpt lat="31.7438910" lon="35.1081130">
    <ele>532.9</ele>
    <time>2018-09-22T08:04:26Z</time>
   </trkpt>
   <trkpt lat="31.7439050" lon="35.1080560">
    <ele>532.7</ele>
    <time>2018-09-22T08:04:27Z</time>
   </trkpt>
   <trkpt lat="31.7439200" lon="35.1080020">
    <ele>532.7</ele>
    <time>2018-09-22T08:04:28Z</time>
   </trkpt>
   <trkpt lat="31.7439340" lon="35.1079440">
    <ele>532.6</ele>
    <time>2018-09-22T08:04:29Z</time>
   </trkpt>
   <trkpt lat="31.7439650" lon="35.1078700">
    <ele>532.6</ele>
    <time>2018-09-22T08:04:30Z</time>
   </trkpt>
   <trkpt lat="31.7439810" lon="35.1078230">
    <ele>532.6</ele>
    <time>2018-09-22T08:04:31Z</time>
   </trkpt>
   <trkpt lat="31.7440010" lon="35.1077840">
    <ele>532.6</ele>
    <time>2018-09-22T08:04:32Z</time>
   </trkpt>
   <trkpt lat="31.7440310" lon="35.1077520">
    <ele>532.6</ele>
    <time>2018-09-22T08:04:33Z</time>
   </trkpt>
   <trkpt lat="31.7440710" lon="35.1077310">
    <ele>532.5</ele>
    <time>2018-09-22T08:04:34Z</time>
   </trkpt>
   <trkpt lat="31.7441070" lon="35.1077030">
    <ele>532.5</ele>
    <time>2018-09-22T08:04:35Z</time>
   </trkpt>
   <trkpt lat="31.7441180" lon="35.1076630">
    <ele>532.4</ele>
    <time>2018-09-22T08:04:36Z</time>
   </trkpt>
   <trkpt lat="31.7441070" lon="35.1076140">
    <ele>532.4</ele>
    <time>2018-09-22T08:04:37Z</time>
   </trkpt>
   <trkpt lat="31.7440820" lon="35.1075760">
    <ele>532.3</ele>
    <time>2018-09-22T08:04:38Z</time>
   </trkpt>
   <trkpt lat="31.7440420" lon="35.1075520">
    <ele>532.1</ele>
    <time>2018-09-22T08:04:39Z</time>
   </trkpt>
   <trkpt lat="31.7439850" lon="35.1075400">
    <ele>531.8</ele>
    <time>2018-09-22T08:04:40Z</time>
   </trkpt>
   <trkpt lat="31.7439280" lon="35.1075470">
    <ele>531.4</ele>
    <time>2018-09-22T08:04:41Z</time>
   </trkpt>
   <trkpt lat="31.7438680" lon="35.1075710">
    <ele>530.8</ele>
    <time>2018-09-22T08:04:42Z</time>
   </trkpt>
   <trkpt lat="31.7438010" lon="35.1075990">
    <ele>530.1</ele>
    <time>2018-09-22T08:04:43Z</time>
   </trkpt>
   <trkpt lat="31.7437630" lon="35.1076200">
    <ele>529.7</ele>
    <time>2018-09-22T08:04:44Z</time>
   </trkpt>
   <trkpt lat="31.7437320" lon="35.1076040">
    <ele>529.3</ele>
    <time>2018-09-22T08:04:45Z</time>
   </trkpt>
   <trkpt lat="31.7437060" lon="35.1075700">
    <ele>528.9</ele>
    <time>2018-09-22T08:04:46Z</time>
   </trkpt>
   <trkpt lat="31.7436880" lon="35.1075390">
    <ele>528.6</ele>
    <time>2018-09-22T08:04:47Z</time>
   </trkpt>
   <trkpt lat="31.7437260" lon="35.1075020">
    <ele>528.1</ele>
    <time>2018-09-22T08:04:48Z</time>
   </trkpt>
   <trkpt lat="31.7437490" lon="35.1074540">
    <ele>527.6</ele>
    <time>2018-09-22T08:04:49Z</time>
   </trkpt>
   <trkpt lat="31.7437600" lon="35.1074060">
    <ele>527.2</ele>
    <time>2018-09-22T08:04:50Z</time>
   </trkpt>
   <trkpt lat="31.7437300" lon="35.1074050">
    <ele>527.0</ele>
    <time>2018-09-22T08:04:51Z</time>
   </trkpt>
   <trkpt lat="31.7436940" lon="35.1074180">
    <ele>526.8</ele>
    <time>2018-09-22T08:04:52Z</time>
   </trkpt>
   <trkpt lat="31.7436730" lon="35.1074420">
    <ele>526.7</ele>
    <time>2018-09-22T08:04:53Z</time>
   </trkpt>
   <trkpt lat="31.7436550" lon="35.1074660">
    <ele>526.4</ele>
    <time>2018-09-22T08:04:54Z</time>
   </trkpt>
   <trkpt lat="31.7436150" lon="35.1075040">
    <ele>526.0</ele>
    <time>2018-09-22T08:04:55Z</time>
   </trkpt>
   <trkpt lat="31.7435740" lon="35.1075320">
    <ele>525.6</ele>
    <time>2018-09-22T08:04:56Z</time>
   </trkpt>
   <trkpt lat="31.7435350" lon="35.1075620">
    <ele>525.2</ele>
    <time>2018-09-22T08:04:57Z</time>
   </trkpt>
   <trkpt lat="31.7435000" lon="35.1075960">
    <ele>524.8</ele>
    <time>2018-09-22T08:04:58Z</time>
   </trkpt>
   <trkpt lat="31.7434570" lon="35.1075560">
    <ele>524.4</ele>
    <time>2018-09-22T08:04:59Z</time>
   </trkpt>
   <trkpt lat="31.7434100" lon="35.1075410">
    <ele>524.1</ele>
    <time>2018-09-22T08:05:00Z</time>
   </trkpt>
   <trkpt lat="31.7433570" lon="35.1075280">
    <ele>523.7</ele>
    <time>2018-09-22T08:05:01Z</time>
   </trkpt>
   <trkpt lat="31.7432830" lon="35.1075140">
    <ele>523.0</ele>
    <time>2018-09-22T08:05:02Z</time>
   </trkpt>
   <trkpt lat="31.7432320" lon="35.1074870">
    <ele>522.5</ele>
    <time>2018-09-22T08:05:03Z</time>
   </trkpt>
   <trkpt lat="31.7431840" lon="35.1074820">
    <ele>522.1</ele>
    <time>2018-09-22T08:05:04Z</time>
   </trkpt>
   <trkpt lat="31.7431380" lon="35.1075000">
    <ele>521.6</ele>
    <time>2018-09-22T08:05:05Z</time>
   </trkpt>
   <trkpt lat="31.7430990" lon="35.1075230">
    <ele>521.3</ele>
    <time>2018-09-22T08:05:06Z</time>
   </trkpt>
   <trkpt lat="31.7430540" lon="35.1075550">
    <ele>520.9</ele>
    <time>2018-09-22T08:05:07Z</time>
   </trkpt>
   <trkpt lat="31.7430400" lon="35.1074760">
    <ele>520.5</ele>
    <time>2018-09-22T08:05:08Z</time>
   </trkpt>
   <trkpt lat="31.7430190" lon="35.1074390">
    <ele>520.4</ele>
    <time>2018-09-22T08:05:09Z</time>
   </trkpt>
   <trkpt lat="31.7430520" lon="35.1073780">
    <ele>520.3</ele>
    <time>2018-09-22T08:05:10Z</time>
   </trkpt>
   <trkpt lat="31.7430670" lon="35.1073240">
    <ele>520.2</ele>
    <time>2018-09-22T08:05:11Z</time>
   </trkpt>
   <trkpt lat="31.7430880" lon="35.1072760">
    <ele>520.1</ele>
    <time>2018-09-22T08:05:12Z</time>
   </trkpt>
   <trkpt lat="31.7431050" lon="35.1072250">
    <ele>520.0</ele>
    <time>2018-09-22T08:05:13Z</time>
   </trkpt>
   <trkpt lat="31.7431250" lon="35.1071750">
    <ele>519.9</ele>
    <time>2018-09-22T08:05:14Z</time>
   </trkpt>
   <trkpt lat="31.7431330" lon="35.1071200">
    <ele>519.7</ele>
    <time>2018-09-22T08:05:15Z</time>
   </trkpt>
   <trkpt lat="31.7431320" lon="35.1070620">
    <ele>519.5</ele>
    <time>2018-09-22T08:05:16Z</time>
   </trkpt>
   <trkpt lat="31.7431340" lon="35.1069970">
    <ele>519.1</ele>
    <time>2018-09-22T08:05:17Z</time>
   </trkpt>
   <trkpt lat="31.7431380" lon="35.1069290">
    <ele>518.6</ele>
    <time>2018-09-22T08:05:18Z</time>
   </trkpt>
   <trkpt lat="31.7431260" lon="35.1068850">
    <ele>518.1</ele>
    <time>2018-09-22T08:05:19Z</time>
   </trkpt>
   <trkpt lat="31.7430940" lon="35.1068340">
    <ele>517.5</ele>
    <time>2018-09-22T08:05:21Z</time>
   </trkpt>
   <trkpt lat="31.7430330" lon="35.1068590">
    <ele>516.8</ele>
    <time>2018-09-22T08:05:23Z</time>
   </trkpt>
   <trkpt lat="31.7430030" lon="35.1069130">
    <ele>516.3</ele>
    <time>2018-09-22T08:05:24Z</time>
   </trkpt>
   <trkpt lat="31.7429750" lon="35.1069600">
    <ele>515.8</ele>
    <time>2018-09-22T08:05:25Z</time>
   </trkpt>
   <trkpt lat="31.7429300" lon="35.1070070">
    <ele>515.2</ele>
    <time>2018-09-22T08:05:26Z</time>
   </trkpt>
   <trkpt lat="31.7428880" lon="35.1070310">
    <ele>514.7</ele>
    <time>2018-09-22T08:05:27Z</time>
   </trkpt>
   <trkpt lat="31.7428350" lon="35.1070530">
    <ele>514.3</ele>
    <time>2018-09-22T08:05:28Z</time>
   </trkpt>
   <trkpt lat="31.7427750" lon="35.1070610">
    <ele>513.8</ele>
    <time>2018-09-22T08:05:29Z</time>
   </trkpt>
   <trkpt lat="31.7427200" lon="35.1070760">
    <ele>513.3</ele>
    <time>2018-09-22T08:05:30Z</time>
   </trkpt>
   <trkpt lat="31.7426690" lon="35.1071110">
    <ele>512.8</ele>
    <time>2018-09-22T08:05:31Z</time>
   </trkpt>
   <trkpt lat="31.7426390" lon="35.1071600">
    <ele>512.4</ele>
    <time>2018-09-22T08:05:32Z</time>
   </trkpt>
   <trkpt lat="31.7426260" lon="35.1072240">
    <ele>511.8</ele>
    <time>2018-09-22T08:05:33Z</time>
   </trkpt>
   <trkpt lat="31.7426130" lon="35.1072840">
    <ele>511.3</ele>
    <time>2018-09-22T08:05:34Z</time>
   </trkpt>
   <trkpt lat="31.7425890" lon="35.1073310">
    <ele>510.8</ele>
    <time>2018-09-22T08:05:35Z</time>
   </trkpt>
   <trkpt lat="31.7425630" lon="35.1073850">
    <ele>510.3</ele>
    <time>2018-09-22T08:05:36Z</time>
   </trkpt>
   <trkpt lat="31.7425030" lon="35.1073580">
    <ele>509.8</ele>
    <time>2018-09-22T08:05:37Z</time>
   </trkpt>
   <trkpt lat="31.7424620" lon="35.1073560">
    <ele>509.6</ele>
    <time>2018-09-22T08:05:38Z</time>
   </trkpt>
   <trkpt lat="31.7424220" lon="35.1073760">
    <ele>509.4</ele>
    <time>2018-09-22T08:05:39Z</time>
   </trkpt>
   <trkpt lat="31.7423690" lon="35.1073560">
    <ele>509.3</ele>
    <time>2018-09-22T08:05:41Z</time>
   </trkpt>
   <trkpt lat="31.7423890" lon="35.1073070">
    <ele>509.1</ele>
    <time>2018-09-22T08:05:42Z</time>
   </trkpt>
   <trkpt lat="31.7424180" lon="35.1072740">
    <ele>508.9</ele>
    <time>2018-09-22T08:05:43Z</time>
   </trkpt>
   <trkpt lat="31.7424400" lon="35.1072300">
    <ele>508.7</ele>
    <time>2018-09-22T08:05:44Z</time>
   </trkpt>
   <trkpt lat="31.7424590" lon="35.1071740">
    <ele>508.4</ele>
    <time>2018-09-22T08:05:45Z</time>
   </trkpt>
   <trkpt lat="31.7424740" lon="35.1071270">
    <ele>508.2</ele>
    <time>2018-09-22T08:05:46Z</time>
   </trkpt>
   <trkpt lat="31.7424760" lon="35.1070890">
    <ele>508.1</ele>
    <time>2018-09-22T08:05:47Z</time>
   </trkpt>
   <trkpt lat="31.7424820" lon="35.1070540">
    <ele>507.8</ele>
    <time>2018-09-22T08:05:48Z</time>
   </trkpt>
   <trkpt lat="31.7424740" lon="35.1070040">
    <ele>507.5</ele>
    <time>2018-09-22T08:05:49Z</time>
   </trkpt>
   <trkpt lat="31.7424640" lon="35.1069730">
    <ele>507.2</ele>
    <time>2018-09-22T08:05:50Z</time>
   </trkpt>
   <trkpt lat="31.7424270" lon="35.1069930">
    <ele>506.8</ele>
    <time>2018-09-22T08:05:51Z</time>
   </trkpt>
   <trkpt lat="31.7423800" lon="35.1070130">
    <ele>506.3</ele>
    <time>2018-09-22T08:05:52Z</time>
   </trkpt>
   <trkpt lat="31.7423270" lon="35.1070380">
    <ele>505.6</ele>
    <time>2018-09-22T08:05:53Z</time>
   </trkpt>
   <trkpt lat="31.7422960" lon="35.1070940">
    <ele>505.1</ele>
    <time>2018-09-22T08:05:54Z</time>
   </trkpt>
   <trkpt lat="31.7422640" lon="35.1071430">
    <ele>504.4</ele>
    <time>2018-09-22T08:05:55Z</time>
   </trkpt>
   <trkpt lat="31.7422140" lon="35.1071660">
    <ele>503.8</ele>
    <time>2018-09-22T08:05:56Z</time>
   </trkpt>
   <trkpt lat="31.7421670" lon="35.1071940">
    <ele>503.2</ele>
    <time>2018-09-22T08:05:57Z</time>
   </trkpt>
   <trkpt lat="31.7421510" lon="35.1072310">
    <ele>502.9</ele>
    <time>2018-09-22T08:05:59Z</time>
   </trkpt>
   <trkpt lat="31.7421260" lon="35.1072510">
    <ele>502.8</ele>
    <time>2018-09-22T08:06:00Z</time>
   </trkpt>
   <trkpt lat="31.7420750" lon="35.1072800">
    <ele>502.6</ele>
    <time>2018-09-22T08:06:02Z</time>
   </trkpt>
   <trkpt lat="31.7420530" lon="35.1073020">
    <ele>502.6</ele>
    <time>2018-09-22T08:06:03Z</time>
   </trkpt>
   <trkpt lat="31.7420170" lon="35.1073160">
    <ele>502.5</ele>
    <time>2018-09-22T08:06:04Z</time>
   </trkpt>
   <trkpt lat="31.7419640" lon="35.1073380">
    <ele>502.4</ele>
    <time>2018-09-22T08:06:06Z</time>
   </trkpt>
   <trkpt lat="31.7419390" lon="35.1073680">
    <ele>502.3</ele>
    <time>2018-09-22T08:06:07Z</time>
   </trkpt>
   <trkpt lat="31.7419470" lon="35.1074320">
    <ele>502.3</ele>
    <time>2018-09-22T08:06:09Z</time>
   </trkpt>
   <trkpt lat="31.7419510" lon="35.1074810">
    <ele>502.2</ele>
    <time>2018-09-22T08:06:11Z</time>
   </trkpt>
   <trkpt lat="31.7419120" lon="35.1074900">
    <ele>502.1</ele>
    <time>2018-09-22T08:06:12Z</time>
   </trkpt>
   <trkpt lat="31.7418860" lon="35.1075020">
    <ele>502.1</ele>
    <time>2018-09-22T08:06:13Z</time>
   </trkpt>
   <trkpt lat="31.7418340" lon="35.1075240">
    <ele>502.0</ele>
    <time>2018-09-22T08:06:14Z</time>
   </trkpt>
   <trkpt lat="31.7417940" lon="35.1075510">
    <ele>501.8</ele>
    <time>2018-09-22T08:06:15Z</time>
   </trkpt>
   <trkpt lat="31.7417550" lon="35.1075760">
    <ele>501.7</ele>
    <time>2018-09-22T08:06:16Z</time>
   </trkpt>
   <trkpt lat="31.7417260" lon="35.1075960">
    <ele>501.6</ele>
    <time>2018-09-22T08:06:17Z</time>
   </trkpt>
   <trkpt lat="31.7416960" lon="35.1076150">
    <ele>501.5</ele>
    <time>2018-09-22T08:06:18Z</time>
   </trkpt>
   <trkpt lat="31.7416730" lon="35.1076330">
    <ele>501.4</ele>
    <time>2018-09-22T08:06:19Z</time>
   </trkpt>
   <trkpt lat="31.7416470" lon="35.1076470">
    <ele>501.2</ele>
    <time>2018-09-22T08:06:20Z</time>
   </trkpt>
   <trkpt lat="31.7416190" lon="35.1076590">
    <ele>501.1</ele>
    <time>2018-09-22T08:06:21Z</time>
   </trkpt>
   <trkpt lat="31.7415830" lon="35.1076630">
    <ele>501.0</ele>
    <time>2018-09-22T08:06:22Z</time>
   </trkpt>
   <trkpt lat="31.7415500" lon="35.1076690">
    <ele>501.0</ele>
    <time>2018-09-22T08:06:23Z</time>
   </trkpt>
   <trkpt lat="31.7415090" lon="35.1076820">
    <ele>500.9</ele>
    <time>2018-09-22T08:06:24Z</time>
   </trkpt>
   <trkpt lat="31.7414710" lon="35.1077090">
    <ele>500.8</ele>
    <time>2018-09-22T08:06:25Z</time>
   </trkpt>
   <trkpt lat="31.7414330" lon="35.1077360">
    <ele>500.7</ele>
    <time>2018-09-22T08:06:26Z</time>
   </trkpt>
   <trkpt lat="31.7413990" lon="35.1077600">
    <ele>500.7</ele>
    <time>2018-09-22T08:06:27Z</time>
   </trkpt>
   <trkpt lat="31.7413610" lon="35.1077530">
    <ele>500.6</ele>
    <time>2018-09-22T08:06:28Z</time>
   </trkpt>
   <trkpt lat="31.7413260" lon="35.1077330">
    <ele>500.5</ele>
    <time>2018-09-22T08:06:29Z</time>
   </trkpt>
   <trkpt lat="31.7413080" lon="35.1076970">
    <ele>500.3</ele>
    <time>2018-09-22T08:06:30Z</time>
   </trkpt>
   <trkpt lat="31.7412960" lon="35.1076540">
    <ele>500.2</ele>
    <time>2018-09-22T08:06:31Z</time>
   </trkpt>
   <trkpt lat="31.7412880" lon="35.1076010">
    <ele>499.8</ele>
    <time>2018-09-22T08:06:32Z</time>
   </trkpt>
   <trkpt lat="31.7412770" lon="35.1075560">
    <ele>499.4</ele>
    <time>2018-09-22T08:06:33Z</time>
   </trkpt>
   <trkpt lat="31.7412750" lon="35.1075140">
    <ele>499.1</ele>
    <time>2018-09-22T08:06:34Z</time>
   </trkpt>
   <trkpt lat="31.7412900" lon="35.1074750">
    <ele>498.6</ele>
    <time>2018-09-22T08:06:35Z</time>
   </trkpt>
   <trkpt lat="31.7413090" lon="35.1074380">
    <ele>498.1</ele>
    <time>2018-09-22T08:06:36Z</time>
   </trkpt>
   <trkpt lat="31.7413160" lon="35.1074000">
    <ele>497.7</ele>
    <time>2018-09-22T08:06:37Z</time>
   </trkpt>
   <trkpt lat="31.7413140" lon="35.1073460">
    <ele>497.1</ele>
    <time>2018-09-22T08:06:38Z</time>
   </trkpt>
   <trkpt lat="31.7413340" lon="35.1072790">
    <ele>496.4</ele>
    <time>2018-09-22T08:06:39Z</time>
   </trkpt>
   <trkpt lat="31.7413430" lon="35.1072050">
    <ele>495.7</ele>
    <time>2018-09-22T08:06:40Z</time>
   </trkpt>
   <trkpt lat="31.7413330" lon="35.1071360">
    <ele>495.1</ele>
    <time>2018-09-22T08:06:41Z</time>
   </trkpt>
   <trkpt lat="31.7413060" lon="35.1070800">
    <ele>494.6</ele>
    <time>2018-09-22T08:06:42Z</time>
   </trkpt>
   <trkpt lat="31.7412900" lon="35.1070350">
    <ele>494.2</ele>
    <time>2018-09-22T08:06:43Z</time>
   </trkpt>
   <trkpt lat="31.7412890" lon="35.1069840">
    <ele>494.0</ele>
    <time>2018-09-22T08:06:44Z</time>
   </trkpt>
   <trkpt lat="31.7413030" lon="35.1069400">
    <ele>493.9</ele>
    <time>2018-09-22T08:06:45Z</time>
   </trkpt>
   <trkpt lat="31.7413200" lon="35.1069020">
    <ele>493.9</ele>
    <time>2018-09-22T08:06:46Z</time>
   </trkpt>
   <trkpt lat="31.7413380" lon="35.1068620">
    <ele>493.8</ele>
    <time>2018-09-22T08:06:47Z</time>
   </trkpt>
   <trkpt lat="31.7413450" lon="35.1068300">
    <ele>493.8</ele>
    <time>2018-09-22T08:06:48Z</time>
   </trkpt>
   <trkpt lat="31.7413290" lon="35.1067940">
    <ele>493.8</ele>
    <time>2018-09-22T08:06:53Z</time>
   </trkpt>
   <trkpt lat="31.7413310" lon="35.1068580">
    <ele>493.8</ele>
    <time>2018-09-22T08:12:27Z</time>
   </trkpt>
   <trkpt lat="31.7413140" lon="35.1068970">
    <ele>493.9</ele>
    <time>2018-09-22T08:12:29Z</time>
   </trkpt>
   <trkpt lat="31.7412840" lon="35.1069290">
    <ele>493.9</ele>
    <time>2018-09-22T08:12:31Z</time>
   </trkpt>
   <trkpt lat="31.7412530" lon="35.1069680">
    <ele>494.0</ele>
    <time>2018-09-22T08:12:33Z</time>
   </trkpt>
   <trkpt lat="31.7412350" lon="35.1070030">
    <ele>494.0</ele>
    <time>2018-09-22T08:12:35Z</time>
   </trkpt>
   <trkpt lat="31.7412110" lon="35.1070340">
    <ele>494.1</ele>
    <time>2018-09-22T08:12:37Z</time>
   </trkpt>
   <trkpt lat="31.7411850" lon="35.1070730">
    <ele>494.1</ele>
    <time>2018-09-22T08:12:39Z</time>
   </trkpt>
   <trkpt lat="31.7411550" lon="35.1070970">
    <ele>494.1</ele>
    <time>2018-09-22T08:12:41Z</time>
   </trkpt>
   <trkpt lat="31.7411320" lon="35.1071310">
    <ele>494.2</ele>
    <time>2018-09-22T08:12:43Z</time>
   </trkpt>
   <trkpt lat="31.7411070" lon="35.1071710">
    <ele>494.2</ele>
    <time>2018-09-22T08:12:45Z</time>
   </trkpt>
   <trkpt lat="31.7410790" lon="35.1072070">
    <ele>494.3</ele>
    <time>2018-09-22T08:12:47Z</time>
   </trkpt>
   <trkpt lat="31.7410530" lon="35.1072470">
    <ele>494.4</ele>
    <time>2018-09-22T08:12:49Z</time>
   </trkpt>
   <trkpt lat="31.7410290" lon="35.1072890">
    <ele>494.5</ele>
    <time>2018-09-22T08:12:51Z</time>
   </trkpt>
   <trkpt lat="31.7410120" lon="35.1073170">
    <ele>494.6</ele>
    <time>2018-09-22T08:12:52Z</time>
   </trkpt>
   <trkpt lat="31.7409880" lon="35.1073710">
    <ele>494.8</ele>
    <time>2018-09-22T08:12:54Z</time>
   </trkpt>
   <trkpt lat="31.7409740" lon="35.1074290">
    <ele>495.1</ele>
    <time>2018-09-22T08:12:56Z</time>
   </trkpt>
   <trkpt lat="31.7409670" lon="35.1074630">
    <ele>495.2</ele>
    <time>2018-09-22T08:12:57Z</time>
   </trkpt>
   <trkpt lat="31.7409630" lon="35.1074970">
    <ele>495.4</ele>
    <time>2018-09-22T08:12:58Z</time>
   </trkpt>
   <trkpt lat="31.7409550" lon="35.1075300">
    <ele>495.6</ele>
    <time>2018-09-22T08:12:59Z</time>
   </trkpt>
   <trkpt lat="31.7409560" lon="35.1075990">
    <ele>495.8</ele>
    <time>2018-09-22T08:13:01Z</time>
   </trkpt>
   <trkpt lat="31.7409590" lon="35.1076310">
    <ele>496.0</ele>
    <time>2018-09-22T08:13:02Z</time>
   </trkpt>
   <trkpt lat="31.7409700" lon="35.1076860">
    <ele>496.1</ele>
    <time>2018-09-22T08:13:04Z</time>
   </trkpt>
   <trkpt lat="31.7409920" lon="35.1077450">
    <ele>496.2</ele>
    <time>2018-09-22T08:13:06Z</time>
   </trkpt>
   <trkpt lat="31.7410060" lon="35.1077760">
    <ele>496.2</ele>
    <time>2018-09-22T08:13:07Z</time>
   </trkpt>
   <trkpt lat="31.7410190" lon="35.1078080">
    <ele>496.3</ele>
    <time>2018-09-22T08:13:08Z</time>
   </trkpt>
   <trkpt lat="31.7410370" lon="35.1078370">
    <ele>496.3</ele>
    <time>2018-09-22T08:13:09Z</time>
   </trkpt>
   <trkpt lat="31.7410600" lon="35.1078640">
    <ele>496.3</ele>
    <time>2018-09-22T08:13:10Z</time>
   </trkpt>
   <trkpt lat="31.7410860" lon="35.1079230">
    <ele>496.4</ele>
    <time>2018-09-22T08:13:12Z</time>
   </trkpt>
   <trkpt lat="31.7411100" lon="35.1079440">
    <ele>496.4</ele>
    <time>2018-09-22T08:13:13Z</time>
   </trkpt>
   <trkpt lat="31.7411340" lon="35.1079650">
    <ele>496.4</ele>
    <time>2018-09-22T08:13:14Z</time>
   </trkpt>
   <trkpt lat="31.7411580" lon="35.1079950">
    <ele>496.4</ele>
    <time>2018-09-22T08:13:15Z</time>
   </trkpt>
   <trkpt lat="31.7411860" lon="35.1080280">
    <ele>496.4</ele>
    <time>2018-09-22T08:13:16Z</time>
   </trkpt>
   <trkpt lat="31.7412100" lon="35.1080570">
    <ele>496.4</ele>
    <time>2018-09-22T08:13:17Z</time>
   </trkpt>
   <trkpt lat="31.7412280" lon="35.1080870">
    <ele>496.4</ele>
    <time>2018-09-22T08:13:18Z</time>
   </trkpt>
   <trkpt lat="31.7412510" lon="35.1081180">
    <ele>496.5</ele>
    <time>2018-09-22T08:13:19Z</time>
   </trkpt>
   <trkpt lat="31.7412760" lon="35.1081490">
    <ele>496.5</ele>
    <time>2018-09-22T08:13:20Z</time>
   </trkpt>
   <trkpt lat="31.7413000" lon="35.1081800">
    <ele>496.5</ele>
    <time>2018-09-22T08:13:21Z</time>
   </trkpt>
   <trkpt lat="31.7413280" lon="35.1082160">
    <ele>496.5</ele>
    <time>2018-09-22T08:13:22Z</time>
   </trkpt>
   <trkpt lat="31.7413500" lon="35.1082480">
    <ele>496.5</ele>
    <time>2018-09-22T08:13:23Z</time>
   </trkpt>
   <trkpt lat="31.7413760" lon="35.1082840">
    <ele>496.5</ele>
    <time>2018-09-22T08:13:24Z</time>
   </trkpt>
   <trkpt lat="31.7414010" lon="35.1083200">
    <ele>496.5</ele>
    <time>2018-09-22T08:13:25Z</time>
   </trkpt>
   <trkpt lat="31.7414290" lon="35.1083540">
    <ele>496.5</ele>
    <time>2018-09-22T08:13:26Z</time>
   </trkpt>
   <trkpt lat="31.7414510" lon="35.1083890">
    <ele>496.5</ele>
    <time>2018-09-22T08:13:27Z</time>
   </trkpt>
   <trkpt lat="31.7414740" lon="35.1084250">
    <ele>496.6</ele>
    <time>2018-09-22T08:13:28Z</time>
   </trkpt>
   <trkpt lat="31.7414960" lon="35.1084630">
    <ele>496.6</ele>
    <time>2018-09-22T08:13:29Z</time>
   </trkpt>
   <trkpt lat="31.7415150" lon="35.1085040">
    <ele>496.6</ele>
    <time>2018-09-22T08:13:30Z</time>
   </trkpt>
   <trkpt lat="31.7415300" lon="35.1085560">
    <ele>496.6</ele>
    <time>2018-09-22T08:13:31Z</time>
   </trkpt>
   <trkpt lat="31.7415410" lon="35.1086070">
    <ele>496.6</ele>
    <time>2018-09-22T08:13:32Z</time>
   </trkpt>
   <trkpt lat="31.7415360" lon="35.1086580">
    <ele>496.6</ele>
    <time>2018-09-22T08:13:33Z</time>
   </trkpt>
   <trkpt lat="31.7415370" lon="35.1087090">
    <ele>496.6</ele>
    <time>2018-09-22T08:13:34Z</time>
   </trkpt>
   <trkpt lat="31.7415350" lon="35.1087630">
    <ele>496.7</ele>
    <time>2018-09-22T08:13:35Z</time>
   </trkpt>
   <trkpt lat="31.7415210" lon="35.1088140">
    <ele>496.7</ele>
    <time>2018-09-22T08:13:36Z</time>
   </trkpt>
   <trkpt lat="31.7415100" lon="35.1088670">
    <ele>496.7</ele>
    <time>2018-09-22T08:13:37Z</time>
   </trkpt>
   <trkpt lat="31.7414870" lon="35.1089240">
    <ele>496.7</ele>
    <time>2018-09-22T08:13:38Z</time>
   </trkpt>
   <trkpt lat="31.7414630" lon="35.1089750">
    <ele>496.7</ele>
    <time>2018-09-22T08:13:39Z</time>
   </trkpt>
   <trkpt lat="31.7414410" lon="35.1090170">
    <ele>496.7</ele>
    <time>2018-09-22T08:13:40Z</time>
   </trkpt>
   <trkpt lat="31.7414270" lon="35.1090550">
    <ele>496.8</ele>
    <time>2018-09-22T08:13:41Z</time>
   </trkpt>
   <trkpt lat="31.7414070" lon="35.1090940">
    <ele>496.8</ele>
    <time>2018-09-22T08:13:42Z</time>
   </trkpt>
   <trkpt lat="31.7413980" lon="35.1091290">
    <ele>496.8</ele>
    <time>2018-09-22T08:13:43Z</time>
   </trkpt>
   <trkpt lat="31.7413920" lon="35.1091680">
    <ele>496.8</ele>
    <time>2018-09-22T08:13:44Z</time>
   </trkpt>
   <trkpt lat="31.7413880" lon="35.1092200">
    <ele>496.8</ele>
    <time>2018-09-22T08:13:45Z</time>
   </trkpt>
   <trkpt lat="31.7413830" lon="35.1092610">
    <ele>496.8</ele>
    <time>2018-09-22T08:13:46Z</time>
   </trkpt>
   <trkpt lat="31.7413790" lon="35.1092980">
    <ele>496.9</ele>
    <time>2018-09-22T08:13:47Z</time>
   </trkpt>
   <trkpt lat="31.7413720" lon="35.1093370">
    <ele>496.9</ele>
    <time>2018-09-22T08:13:48Z</time>
   </trkpt>
   <trkpt lat="31.7413690" lon="35.1093790">
    <ele>497.0</ele>
    <time>2018-09-22T08:13:49Z</time>
   </trkpt>
   <trkpt lat="31.7413600" lon="35.1094230">
    <ele>497.0</ele>
    <time>2018-09-22T08:13:50Z</time>
   </trkpt>
   <trkpt lat="31.7413540" lon="35.1094670">
    <ele>497.1</ele>
    <time>2018-09-22T08:13:51Z</time>
   </trkpt>
   <trkpt lat="31.7413440" lon="35.1095080">
    <ele>497.1</ele>
    <time>2018-09-22T08:13:52Z</time>
   </trkpt>
   <trkpt lat="31.7413280" lon="35.1095470">
    <ele>497.1</ele>
    <time>2018-09-22T08:13:53Z</time>
   </trkpt>
   <trkpt lat="31.7413230" lon="35.1095860">
    <ele>497.2</ele>
    <time>2018-09-22T08:13:54Z</time>
   </trkpt>
   <trkpt lat="31.7413150" lon="35.1096240">
    <ele>497.3</ele>
    <time>2018-09-22T08:13:55Z</time>
   </trkpt>
   <trkpt lat="31.7413130" lon="35.1096600">
    <ele>497.3</ele>
    <time>2018-09-22T08:13:56Z</time>
   </trkpt>
   <trkpt lat="31.7413020" lon="35.1096940">
    <ele>497.4</ele>
    <time>2018-09-22T08:13:57Z</time>
   </trkpt>
   <trkpt lat="31.7412900" lon="35.1097600">
    <ele>497.5</ele>
    <time>2018-09-22T08:13:59Z</time>
   </trkpt>
   <trkpt lat="31.7412960" lon="35.1098030">
    <ele>497.5</ele>
    <time>2018-09-22T08:14:00Z</time>
   </trkpt>
   <trkpt lat="31.7412840" lon="35.1098770">
    <ele>497.7</ele>
    <time>2018-09-22T08:14:02Z</time>
   </trkpt>
   <trkpt lat="31.7412740" lon="35.1099060">
    <ele>497.8</ele>
    <time>2018-09-22T08:14:03Z</time>
   </trkpt>
   <trkpt lat="31.7412670" lon="35.1099460">
    <ele>498.0</ele>
    <time>2018-09-22T08:14:04Z</time>
   </trkpt>
   <trkpt lat="31.7412630" lon="35.1099910">
    <ele>498.2</ele>
    <time>2018-09-22T08:14:05Z</time>
   </trkpt>
   <trkpt lat="31.7412580" lon="35.1100250">
    <ele>498.4</ele>
    <time>2018-09-22T08:14:06Z</time>
   </trkpt>
   <trkpt lat="31.7412470" lon="35.1100610">
    <ele>498.5</ele>
    <time>2018-09-22T08:14:07Z</time>
   </trkpt>
   <trkpt lat="31.7412370" lon="35.1100970">
    <ele>498.7</ele>
    <time>2018-09-22T08:14:08Z</time>
   </trkpt>
   <trkpt lat="31.7412230" lon="35.1101330">
    <ele>498.8</ele>
    <time>2018-09-22T08:14:09Z</time>
   </trkpt>
   <trkpt lat="31.7412120" lon="35.1101670">
    <ele>499.0</ele>
    <time>2018-09-22T08:14:10Z</time>
   </trkpt>
   <trkpt lat="31.7411880" lon="35.1102060">
    <ele>499.1</ele>
    <time>2018-09-22T08:14:11Z</time>
   </trkpt>
   <trkpt lat="31.7411720" lon="35.1102530">
    <ele>499.2</ele>
    <time>2018-09-22T08:14:12Z</time>
   </trkpt>
   <trkpt lat="31.7411480" lon="35.1102890">
    <ele>499.2</ele>
    <time>2018-09-22T08:14:13Z</time>
   </trkpt>
   <trkpt lat="31.7411260" lon="35.1103210">
    <ele>499.3</ele>
    <time>2018-09-22T08:14:14Z</time>
   </trkpt>
   <trkpt lat="31.7411110" lon="35.1103500">
    <ele>499.3</ele>
    <time>2018-09-22T08:14:15Z</time>
   </trkpt>
   <trkpt lat="31.7410940" lon="35.1103890">
    <ele>499.3</ele>
    <time>2018-09-22T08:14:16Z</time>
   </trkpt>
   <trkpt lat="31.7410770" lon="35.1104280">
    <ele>499.4</ele>
    <time>2018-09-22T08:14:17Z</time>
   </trkpt>
   <trkpt lat="31.7410620" lon="35.1104680">
    <ele>499.4</ele>
    <time>2018-09-22T08:14:18Z</time>
   </trkpt>
   <trkpt lat="31.7410370" lon="35.1105300">
    <ele>499.4</ele>
    <time>2018-09-22T08:14:20Z</time>
   </trkpt>
   <trkpt lat="31.7410190" lon="35.1105600">
    <ele>499.5</ele>
    <time>2018-09-22T08:14:21Z</time>
   </trkpt>
   <trkpt lat="31.7410020" lon="35.1105930">
    <ele>499.5</ele>
    <time>2018-09-22T08:14:22Z</time>
   </trkpt>
   <trkpt lat="31.7409820" lon="35.1106320">
    <ele>499.5</ele>
    <time>2018-09-22T08:14:23Z</time>
   </trkpt>
   <trkpt lat="31.7409650" lon="35.1106650">
    <ele>499.5</ele>
    <time>2018-09-22T08:14:24Z</time>
   </trkpt>
   <trkpt lat="31.7409400" lon="35.1106980">
    <ele>499.6</ele>
    <time>2018-09-22T08:14:25Z</time>
   </trkpt>
   <trkpt lat="31.7409180" lon="35.1107320">
    <ele>499.6</ele>
    <time>2018-09-22T08:14:26Z</time>
   </trkpt>
   <trkpt lat="31.7409000" lon="35.1107660">
    <ele>499.6</ele>
    <time>2018-09-22T08:14:27Z</time>
   </trkpt>
   <trkpt lat="31.7408770" lon="35.1107970">
    <ele>499.6</ele>
    <time>2018-09-22T08:14:28Z</time>
   </trkpt>
   <trkpt lat="31.7408530" lon="35.1108300">
    <ele>499.7</ele>
    <time>2018-09-22T08:14:29Z</time>
   </trkpt>
   <trkpt lat="31.7408310" lon="35.1108690">
    <ele>499.7</ele>
    <time>2018-09-22T08:14:30Z</time>
   </trkpt>
   <trkpt lat="31.7408110" lon="35.1109070">
    <ele>499.7</ele>
    <time>2018-09-22T08:14:31Z</time>
   </trkpt>
   <trkpt lat="31.7407920" lon="35.1109400">
    <ele>499.9</ele>
    <time>2018-09-22T08:14:32Z</time>
   </trkpt>
   <trkpt lat="31.7407690" lon="35.1109730">
    <ele>500.0</ele>
    <time>2018-09-22T08:14:33Z</time>
   </trkpt>
   <trkpt lat="31.7407480" lon="35.1110010">
    <ele>500.0</ele>
    <time>2018-09-22T08:14:34Z</time>
   </trkpt>
   <trkpt lat="31.7407200" lon="35.1110300">
    <ele>500.1</ele>
    <time>2018-09-22T08:14:35Z</time>
   </trkpt>
   <trkpt lat="31.7407000" lon="35.1110570">
    <ele>500.2</ele>
    <time>2018-09-22T08:14:36Z</time>
   </trkpt>
   <trkpt lat="31.7406780" lon="35.1110900">
    <ele>500.3</ele>
    <time>2018-09-22T08:14:37Z</time>
   </trkpt>
   <trkpt lat="31.7406550" lon="35.1111160">
    <ele>500.4</ele>
    <time>2018-09-22T08:14:38Z</time>
   </trkpt>
   <trkpt lat="31.7406310" lon="35.1111420">
    <ele>500.4</ele>
    <time>2018-09-22T08:14:39Z</time>
   </trkpt>
   <trkpt lat="31.7406070" lon="35.1111730">
    <ele>500.6</ele>
    <time>2018-09-22T08:14:40Z</time>
   </trkpt>
   <trkpt lat="31.7405770" lon="35.1111980">
    <ele>500.8</ele>
    <time>2018-09-22T08:14:41Z</time>
   </trkpt>
   <trkpt lat="31.7405460" lon="35.1112180">
    <ele>500.9</ele>
    <time>2018-09-22T08:14:42Z</time>
   </trkpt>
   <trkpt lat="31.7405080" lon="35.1112350">
    <ele>501.1</ele>
    <time>2018-09-22T08:14:43Z</time>
   </trkpt>
   <trkpt lat="31.7404830" lon="35.1112630">
    <ele>501.3</ele>
    <time>2018-09-22T08:14:44Z</time>
   </trkpt>
   <trkpt lat="31.7404480" lon="35.1112860">
    <ele>501.3</ele>
    <time>2018-09-22T08:14:45Z</time>
   </trkpt>
   <trkpt lat="31.7404180" lon="35.1113030">
    <ele>501.4</ele>
    <time>2018-09-22T08:14:46Z</time>
   </trkpt>
   <trkpt lat="31.7403840" lon="35.1113220">
    <ele>501.4</ele>
    <time>2018-09-22T08:14:47Z</time>
   </trkpt>
   <trkpt lat="31.7403520" lon="35.1113420">
    <ele>501.5</ele>
    <time>2018-09-22T08:14:48Z</time>
   </trkpt>
   <trkpt lat="31.7403190" lon="35.1113610">
    <ele>501.6</ele>
    <time>2018-09-22T08:14:49Z</time>
   </trkpt>
   <trkpt lat="31.7402830" lon="35.1113810">
    <ele>501.6</ele>
    <time>2018-09-22T08:14:50Z</time>
   </trkpt>
   <trkpt lat="31.7402430" lon="35.1113960">
    <ele>501.7</ele>
    <time>2018-09-22T08:14:51Z</time>
   </trkpt>
   <trkpt lat="31.7402110" lon="35.1114110">
    <ele>501.7</ele>
    <time>2018-09-22T08:14:52Z</time>
   </trkpt>
   <trkpt lat="31.7401750" lon="35.1114350">
    <ele>501.7</ele>
    <time>2018-09-22T08:14:53Z</time>
   </trkpt>
   <trkpt lat="31.7401360" lon="35.1114510">
    <ele>501.7</ele>
    <time>2018-09-22T08:14:54Z</time>
   </trkpt>
   <trkpt lat="31.7400970" lon="35.1114670">
    <ele>501.7</ele>
    <time>2018-09-22T08:14:55Z</time>
   </trkpt>
   <trkpt lat="31.7400540" lon="35.1114840">
    <ele>501.8</ele>
    <time>2018-09-22T08:14:56Z</time>
   </trkpt>
   <trkpt lat="31.7400120" lon="35.1114990">
    <ele>501.8</ele>
    <time>2018-09-22T08:14:57Z</time>
   </trkpt>
   <trkpt lat="31.7399640" lon="35.1115100">
    <ele>501.8</ele>
    <time>2018-09-22T08:14:58Z</time>
   </trkpt>
   <trkpt lat="31.7399220" lon="35.1115250">
    <ele>501.8</ele>
    <time>2018-09-22T08:14:59Z</time>
   </trkpt>
   <trkpt lat="31.7398890" lon="35.1115490">
    <ele>501.8</ele>
    <time>2018-09-22T08:15:00Z</time>
   </trkpt>
   <trkpt lat="31.7398560" lon="35.1115620">
    <ele>501.9</ele>
    <time>2018-09-22T08:15:01Z</time>
   </trkpt>
   <trkpt lat="31.7398210" lon="35.1115810">
    <ele>501.9</ele>
    <time>2018-09-22T08:15:02Z</time>
   </trkpt>
   <trkpt lat="31.7397900" lon="35.1115920">
    <ele>501.9</ele>
    <time>2018-09-22T08:15:03Z</time>
   </trkpt>
   <trkpt lat="31.7397520" lon="35.1116130">
    <ele>501.9</ele>
    <time>2018-09-22T08:15:04Z</time>
   </trkpt>
   <trkpt lat="31.7397220" lon="35.1116260">
    <ele>501.9</ele>
    <time>2018-09-22T08:15:05Z</time>
   </trkpt>
   <trkpt lat="31.7396830" lon="35.1116440">
    <ele>502.0</ele>
    <time>2018-09-22T08:15:06Z</time>
   </trkpt>
   <trkpt lat="31.7396420" lon="35.1116570">
    <ele>502.0</ele>
    <time>2018-09-22T08:15:07Z</time>
   </trkpt>
   <trkpt lat="31.7396030" lon="35.1116640">
    <ele>502.0</ele>
    <time>2018-09-22T08:15:08Z</time>
   </trkpt>
   <trkpt lat="31.7395590" lon="35.1116820">
    <ele>502.1</ele>
    <time>2018-09-22T08:15:09Z</time>
   </trkpt>
   <trkpt lat="31.7395170" lon="35.1116980">
    <ele>502.1</ele>
    <time>2018-09-22T08:15:10Z</time>
   </trkpt>
   <trkpt lat="31.7394870" lon="35.1117060">
    <ele>502.2</ele>
    <time>2018-09-22T08:15:11Z</time>
   </trkpt>
   <trkpt lat="31.7394500" lon="35.1117280">
    <ele>502.2</ele>
    <time>2018-09-22T08:15:12Z</time>
   </trkpt>
   <trkpt lat="31.7394150" lon="35.1117490">
    <ele>502.3</ele>
    <time>2018-09-22T08:15:13Z</time>
   </trkpt>
   <trkpt lat="31.7393810" lon="35.1117680">
    <ele>502.4</ele>
    <time>2018-09-22T08:15:14Z</time>
   </trkpt>
   <trkpt lat="31.7393450" lon="35.1117810">
    <ele>502.6</ele>
    <time>2018-09-22T08:15:15Z</time>
   </trkpt>
   <trkpt lat="31.7393080" lon="35.1118010">
    <ele>502.7</ele>
    <time>2018-09-22T08:15:16Z</time>
   </trkpt>
   <trkpt lat="31.7392720" lon="35.1118160">
    <ele>502.9</ele>
    <time>2018-09-22T08:15:17Z</time>
   </trkpt>
   <trkpt lat="31.7392310" lon="35.1118340">
    <ele>503.1</ele>
    <time>2018-09-22T08:15:18Z</time>
   </trkpt>
   <trkpt lat="31.7391960" lon="35.1118500">
    <ele>503.3</ele>
    <time>2018-09-22T08:15:19Z</time>
   </trkpt>
   <trkpt lat="31.7391540" lon="35.1118710">
    <ele>503.6</ele>
    <time>2018-09-22T08:15:20Z</time>
   </trkpt>
   <trkpt lat="31.7391160" lon="35.1118840">
    <ele>503.8</ele>
    <time>2018-09-22T08:15:21Z</time>
   </trkpt>
   <trkpt lat="31.7390750" lon="35.1118990">
    <ele>504.0</ele>
    <time>2018-09-22T08:15:22Z</time>
   </trkpt>
   <trkpt lat="31.7390380" lon="35.1119170">
    <ele>504.1</ele>
    <time>2018-09-22T08:15:23Z</time>
   </trkpt>
   <trkpt lat="31.7389970" lon="35.1119300">
    <ele>504.2</ele>
    <time>2018-09-22T08:15:24Z</time>
   </trkpt>
   <trkpt lat="31.7389600" lon="35.1119430">
    <ele>504.3</ele>
    <time>2018-09-22T08:15:25Z</time>
   </trkpt>
   <trkpt lat="31.7389160" lon="35.1119550">
    <ele>504.4</ele>
    <time>2018-09-22T08:15:26Z</time>
   </trkpt>
   <trkpt lat="31.7388710" lon="35.1119660">
    <ele>504.4</ele>
    <time>2018-09-22T08:15:27Z</time>
   </trkpt>
   <trkpt lat="31.7388260" lon="35.1119790">
    <ele>504.5</ele>
    <time>2018-09-22T08:15:28Z</time>
   </trkpt>
   <trkpt lat="31.7387870" lon="35.1120010">
    <ele>504.5</ele>
    <time>2018-09-22T08:15:29Z</time>
   </trkpt>
   <trkpt lat="31.7387440" lon="35.1120260">
    <ele>504.6</ele>
    <time>2018-09-22T08:15:30Z</time>
   </trkpt>
   <trkpt lat="31.7387050" lon="35.1120490">
    <ele>504.6</ele>
    <time>2018-09-22T08:15:31Z</time>
   </trkpt>
   <trkpt lat="31.7386750" lon="35.1120810">
    <ele>504.6</ele>
    <time>2018-09-22T08:15:32Z</time>
   </trkpt>
   <trkpt lat="31.7386450" lon="35.1121040">
    <ele>504.7</ele>
    <time>2018-09-22T08:15:33Z</time>
   </trkpt>
   <trkpt lat="31.7386140" lon="35.1121340">
    <ele>504.7</ele>
    <time>2018-09-22T08:15:34Z</time>
   </trkpt>
   <trkpt lat="31.7385900" lon="35.1121680">
    <ele>504.7</ele>
    <time>2018-09-22T08:15:35Z</time>
   </trkpt>
   <trkpt lat="31.7385690" lon="35.1122030">
    <ele>504.7</ele>
    <time>2018-09-22T08:15:36Z</time>
   </trkpt>
   <trkpt lat="31.7385450" lon="35.1122330">
    <ele>504.7</ele>
    <time>2018-09-22T08:15:37Z</time>
   </trkpt>
   <trkpt lat="31.7385200" lon="35.1122570">
    <ele>504.8</ele>
    <time>2018-09-22T08:15:38Z</time>
   </trkpt>
   <trkpt lat="31.7384960" lon="35.1122770">
    <ele>504.8</ele>
    <time>2018-09-22T08:15:39Z</time>
   </trkpt>
   <trkpt lat="31.7384750" lon="35.1123210">
    <ele>504.8</ele>
    <time>2018-09-22T08:15:40Z</time>
   </trkpt>
   <trkpt lat="31.7384510" lon="35.1123570">
    <ele>504.8</ele>
    <time>2018-09-22T08:15:41Z</time>
   </trkpt>
   <trkpt lat="31.7384180" lon="35.1123870">
    <ele>504.8</ele>
    <time>2018-09-22T08:15:42Z</time>
   </trkpt>
   <trkpt lat="31.7383870" lon="35.1124180">
    <ele>504.9</ele>
    <time>2018-09-22T08:15:43Z</time>
   </trkpt>
   <trkpt lat="31.7383650" lon="35.1124430">
    <ele>504.9</ele>
    <time>2018-09-22T08:15:44Z</time>
   </trkpt>
   <trkpt lat="31.7383450" lon="35.1124690">
    <ele>504.9</ele>
    <time>2018-09-22T08:15:45Z</time>
   </trkpt>
   <trkpt lat="31.7383220" lon="35.1125020">
    <ele>504.9</ele>
    <time>2018-09-22T08:15:46Z</time>
   </trkpt>
   <trkpt lat="31.7383080" lon="35.1125430">
    <ele>504.9</ele>
    <time>2018-09-22T08:15:47Z</time>
   </trkpt>
   <trkpt lat="31.7382840" lon="35.1125760">
    <ele>505.0</ele>
    <time>2018-09-22T08:15:48Z</time>
   </trkpt>
   <trkpt lat="31.7382670" lon="35.1126200">
    <ele>505.0</ele>
    <time>2018-09-22T08:15:49Z</time>
   </trkpt>
   <trkpt lat="31.7382370" lon="35.1126600">
    <ele>505.0</ele>
    <time>2018-09-22T08:15:50Z</time>
   </trkpt>
   <trkpt lat="31.7382250" lon="35.1126890">
    <ele>505.1</ele>
    <time>2018-09-22T08:15:51Z</time>
   </trkpt>
   <trkpt lat="31.7382060" lon="35.1127180">
    <ele>505.2</ele>
    <time>2018-09-22T08:15:52Z</time>
   </trkpt>
   <trkpt lat="31.7381850" lon="35.1127530">
    <ele>505.4</ele>
    <time>2018-09-22T08:15:53Z</time>
   </trkpt>
   <trkpt lat="31.7381680" lon="35.1127850">
    <ele>505.5</ele>
    <time>2018-09-22T08:15:54Z</time>
   </trkpt>
   <trkpt lat="31.7381460" lon="35.1128150">
    <ele>505.7</ele>
    <time>2018-09-22T08:15:55Z</time>
   </trkpt>
   <trkpt lat="31.7381230" lon="35.1128570">
    <ele>506.0</ele>
    <time>2018-09-22T08:15:56Z</time>
   </trkpt>
   <trkpt lat="31.7381040" lon="35.1128990">
    <ele>506.2</ele>
    <time>2018-09-22T08:15:57Z</time>
   </trkpt>
   <trkpt lat="31.7380730" lon="35.1129370">
    <ele>506.4</ele>
    <time>2018-09-22T08:15:58Z</time>
   </trkpt>
   <trkpt lat="31.7380480" lon="35.1129730">
    <ele>506.6</ele>
    <time>2018-09-22T08:15:59Z</time>
   </trkpt>
   <trkpt lat="31.7380240" lon="35.1130070">
    <ele>506.7</ele>
    <time>2018-09-22T08:16:00Z</time>
   </trkpt>
   <trkpt lat="31.7379990" lon="35.1130470">
    <ele>506.8</ele>
    <time>2018-09-22T08:16:01Z</time>
   </trkpt>
   <trkpt lat="31.7379700" lon="35.1130910">
    <ele>506.9</ele>
    <time>2018-09-22T08:16:02Z</time>
   </trkpt>
   <trkpt lat="31.7379490" lon="35.1131320">
    <ele>507.0</ele>
    <time>2018-09-22T08:16:03Z</time>
   </trkpt>
   <trkpt lat="31.7379180" lon="35.1131700">
    <ele>507.1</ele>
    <time>2018-09-22T08:16:04Z</time>
   </trkpt>
   <trkpt lat="31.7379010" lon="35.1132080">
    <ele>507.1</ele>
    <time>2018-09-22T08:16:05Z</time>
   </trkpt>
   <trkpt lat="31.7378880" lon="35.1132510">
    <ele>507.2</ele>
    <time>2018-09-22T08:16:06Z</time>
   </trkpt>
   <trkpt lat="31.7378750" lon="35.1133040">
    <ele>507.2</ele>
    <time>2018-09-22T08:16:07Z</time>
   </trkpt>
   <trkpt lat="31.7378590" lon="35.1133470">
    <ele>507.2</ele>
    <time>2018-09-22T08:16:08Z</time>
   </trkpt>
   <trkpt lat="31.7378350" lon="35.1133920">
    <ele>507.3</ele>
    <time>2018-09-22T08:16:09Z</time>
   </trkpt>
   <trkpt lat="31.7378190" lon="35.1134330">
    <ele>507.3</ele>
    <time>2018-09-22T08:16:10Z</time>
   </trkpt>
   <trkpt lat="31.7378110" lon="35.1134790">
    <ele>507.3</ele>
    <time>2018-09-22T08:16:11Z</time>
   </trkpt>
   <trkpt lat="31.7377900" lon="35.1135150">
    <ele>507.3</ele>
    <time>2018-09-22T08:16:12Z</time>
   </trkpt>
   <trkpt lat="31.7377660" lon="35.1135530">
    <ele>507.3</ele>
    <time>2018-09-22T08:16:13Z</time>
   </trkpt>
   <trkpt lat="31.7377440" lon="35.1135990">
    <ele>507.3</ele>
    <time>2018-09-22T08:16:14Z</time>
   </trkpt>
   <trkpt lat="31.7377200" lon="35.1136640">
    <ele>507.4</ele>
    <time>2018-09-22T08:16:15Z</time>
   </trkpt>
   <trkpt lat="31.7376950" lon="35.1137160">
    <ele>507.4</ele>
    <time>2018-09-22T08:16:16Z</time>
   </trkpt>
   <trkpt lat="31.7376840" lon="35.1137490">
    <ele>507.4</ele>
    <time>2018-09-22T08:16:17Z</time>
   </trkpt>
   <trkpt lat="31.7376760" lon="35.1137800">
    <ele>507.4</ele>
    <time>2018-09-22T08:16:18Z</time>
   </trkpt>
   <trkpt lat="31.7376560" lon="35.1138180">
    <ele>507.4</ele>
    <time>2018-09-22T08:16:19Z</time>
   </trkpt>
   <trkpt lat="31.7376240" lon="35.1138630">
    <ele>507.4</ele>
    <time>2018-09-22T08:16:20Z</time>
   </trkpt>
   <trkpt lat="31.7375960" lon="35.1138920">
    <ele>507.4</ele>
    <time>2018-09-22T08:16:21Z</time>
   </trkpt>
   <trkpt lat="31.7375690" lon="35.1139240">
    <ele>507.5</ele>
    <time>2018-09-22T08:16:22Z</time>
   </trkpt>
   <trkpt lat="31.7375400" lon="35.1139590">
    <ele>507.5</ele>
    <time>2018-09-22T08:16:23Z</time>
   </trkpt>
   <trkpt lat="31.7375180" lon="35.1139920">
    <ele>507.5</ele>
    <time>2018-09-22T08:16:24Z</time>
   </trkpt>
   <trkpt lat="31.7374920" lon="35.1140140">
    <ele>507.5</ele>
    <time>2018-09-22T08:16:25Z</time>
   </trkpt>
   <trkpt lat="31.7374720" lon="35.1140710">
    <ele>507.5</ele>
    <time>2018-09-22T08:16:26Z</time>
   </trkpt>
   <trkpt lat="31.7374440" lon="35.1141080">
    <ele>507.5</ele>
    <time>2018-09-22T08:16:27Z</time>
   </trkpt>
   <trkpt lat="31.7374310" lon="35.1141380">
    <ele>507.5</ele>
    <time>2018-09-22T08:16:28Z</time>
   </trkpt>
   <trkpt lat="31.7374230" lon="35.1141870">
    <ele>507.6</ele>
    <time>2018-09-22T08:16:29Z</time>
   </trkpt>
   <trkpt lat="31.7374120" lon="35.1142190">
    <ele>507.6</ele>
    <time>2018-09-22T08:16:30Z</time>
   </trkpt>
   <trkpt lat="31.7374080" lon="35.1142590">
    <ele>507.6</ele>
    <time>2018-09-22T08:16:31Z</time>
   </trkpt>
   <trkpt lat="31.7374080" lon="35.1142990">
    <ele>507.6</ele>
    <time>2018-09-22T08:16:32Z</time>
   </trkpt>
   <trkpt lat="31.7374070" lon="35.1143390">
    <ele>507.7</ele>
    <time>2018-09-22T08:16:33Z</time>
   </trkpt>
   <trkpt lat="31.7373840" lon="35.1143970">
    <ele>507.7</ele>
    <time>2018-09-22T08:16:35Z</time>
   </trkpt>
   <trkpt lat="31.7373330" lon="35.1144350">
    <ele>507.8</ele>
    <time>2018-09-22T08:16:37Z</time>
   </trkpt>
   <trkpt lat="31.7372940" lon="35.1144430">
    <ele>507.9</ele>
    <time>2018-09-22T08:16:38Z</time>
   </trkpt>
   <trkpt lat="31.7372530" lon="35.1144520">
    <ele>508.0</ele>
    <time>2018-09-22T08:16:39Z</time>
   </trkpt>
   <trkpt lat="31.7372130" lon="35.1144750">
    <ele>508.1</ele>
    <time>2018-09-22T08:16:41Z</time>
   </trkpt>
   <trkpt lat="31.7371890" lon="35.1145050">
    <ele>508.2</ele>
    <time>2018-09-22T08:16:43Z</time>
   </trkpt>
   <trkpt lat="31.7371740" lon="35.1145550">
    <ele>508.4</ele>
    <time>2018-09-22T08:16:45Z</time>
   </trkpt>
   <trkpt lat="31.7371690" lon="35.1145910">
    <ele>508.6</ele>
    <time>2018-09-22T08:16:46Z</time>
   </trkpt>
   <trkpt lat="31.7371620" lon="35.1146240">
    <ele>508.8</ele>
    <time>2018-09-22T08:16:47Z</time>
   </trkpt>
   <trkpt lat="31.7371530" lon="35.1146610">
    <ele>509.0</ele>
    <time>2018-09-22T08:16:48Z</time>
   </trkpt>
   <trkpt lat="31.7371520" lon="35.1146950">
    <ele>509.2</ele>
    <time>2018-09-22T08:16:49Z</time>
   </trkpt>
   <trkpt lat="31.7371510" lon="35.1147320">
    <ele>509.4</ele>
    <time>2018-09-22T08:16:50Z</time>
   </trkpt>
   <trkpt lat="31.7371500" lon="35.1147670">
    <ele>509.5</ele>
    <time>2018-09-22T08:16:51Z</time>
   </trkpt>
   <trkpt lat="31.7371490" lon="35.1148040">
    <ele>509.5</ele>
    <time>2018-09-22T08:16:52Z</time>
   </trkpt>
   <trkpt lat="31.7371410" lon="35.1148420">
    <ele>509.6</ele>
    <time>2018-09-22T08:16:53Z</time>
   </trkpt>
   <trkpt lat="31.7371380" lon="35.1148820">
    <ele>509.6</ele>
    <time>2018-09-22T08:16:54Z</time>
   </trkpt>
   <trkpt lat="31.7371330" lon="35.1149470">
    <ele>509.7</ele>
    <time>2018-09-22T08:16:56Z</time>
   </trkpt>
   <trkpt lat="31.7371310" lon="35.1149840">
    <ele>509.8</ele>
    <time>2018-09-22T08:16:57Z</time>
   </trkpt>
   <trkpt lat="31.7371290" lon="35.1150180">
    <ele>509.8</ele>
    <time>2018-09-22T08:16:58Z</time>
   </trkpt>
   <trkpt lat="31.7371130" lon="35.1150520">
    <ele>509.9</ele>
    <time>2018-09-22T08:16:59Z</time>
   </trkpt>
   <trkpt lat="31.7371060" lon="35.1150890">
    <ele>509.9</ele>
    <time>2018-09-22T08:17:00Z</time>
   </trkpt>
   <trkpt lat="31.7370960" lon="35.1151200">
    <ele>509.9</ele>
    <time>2018-09-22T08:17:01Z</time>
   </trkpt>
   <trkpt lat="31.7370850" lon="35.1151520">
    <ele>510.0</ele>
    <time>2018-09-22T08:17:02Z</time>
   </trkpt>
   <trkpt lat="31.7370820" lon="35.1151860">
    <ele>510.0</ele>
    <time>2018-09-22T08:17:03Z</time>
   </trkpt>
   <trkpt lat="31.7370700" lon="35.1152460">
    <ele>510.1</ele>
    <time>2018-09-22T08:17:05Z</time>
   </trkpt>
   <trkpt lat="31.7370640" lon="35.1152840">
    <ele>510.1</ele>
    <time>2018-09-22T08:17:06Z</time>
   </trkpt>
   <trkpt lat="31.7370510" lon="35.1153160">
    <ele>510.3</ele>
    <time>2018-09-22T08:17:07Z</time>
   </trkpt>
   <trkpt lat="31.7370440" lon="35.1153550">
    <ele>510.4</ele>
    <time>2018-09-22T08:17:08Z</time>
   </trkpt>
   <trkpt lat="31.7370290" lon="35.1153830">
    <ele>510.5</ele>
    <time>2018-09-22T08:17:09Z</time>
   </trkpt>
   <trkpt lat="31.7370220" lon="35.1154210">
    <ele>510.6</ele>
    <time>2018-09-22T08:17:10Z</time>
   </trkpt>
   <trkpt lat="31.7370110" lon="35.1154630">
    <ele>510.7</ele>
    <time>2018-09-22T08:17:11Z</time>
   </trkpt>
   <trkpt lat="31.7370000" lon="35.1155040">
    <ele>510.8</ele>
    <time>2018-09-22T08:17:12Z</time>
   </trkpt>
   <trkpt lat="31.7369900" lon="35.1155500">
    <ele>511.0</ele>
    <time>2018-09-22T08:17:13Z</time>
   </trkpt>
   <trkpt lat="31.7369800" lon="35.1155910">
    <ele>511.3</ele>
    <time>2018-09-22T08:17:14Z</time>
   </trkpt>
   <trkpt lat="31.7369730" lon="35.1156360">
    <ele>511.5</ele>
    <time>2018-09-22T08:17:15Z</time>
   </trkpt>
   <trkpt lat="31.7369670" lon="35.1156830">
    <ele>511.8</ele>
    <time>2018-09-22T08:17:16Z</time>
   </trkpt>
   <trkpt lat="31.7369630" lon="35.1157300">
    <ele>512.0</ele>
    <time>2018-09-22T08:17:17Z</time>
   </trkpt>
   <trkpt lat="31.7369560" lon="35.1157750">
    <ele>512.2</ele>
    <time>2018-09-22T08:17:18Z</time>
   </trkpt>
   <trkpt lat="31.7369440" lon="35.1158210">
    <ele>512.3</ele>
    <time>2018-09-22T08:17:19Z</time>
   </trkpt>
   <trkpt lat="31.7369370" lon="35.1158600">
    <ele>512.4</ele>
    <time>2018-09-22T08:17:20Z</time>
   </trkpt>
   <trkpt lat="31.7369280" lon="35.1158970">
    <ele>512.4</ele>
    <time>2018-09-22T08:17:21Z</time>
   </trkpt>
   <trkpt lat="31.7369160" lon="35.1159380">
    <ele>512.4</ele>
    <time>2018-09-22T08:17:22Z</time>
   </trkpt>
   <trkpt lat="31.7369040" lon="35.1159760">
    <ele>512.4</ele>
    <time>2018-09-22T08:17:23Z</time>
   </trkpt>
   <trkpt lat="31.7368930" lon="35.1160160">
    <ele>512.4</ele>
    <time>2018-09-22T08:17:24Z</time>
   </trkpt>
   <trkpt lat="31.7368810" lon="35.1160570">
    <ele>512.5</ele>
    <time>2018-09-22T08:17:25Z</time>
   </trkpt>
   <trkpt lat="31.7368660" lon="35.1160930">
    <ele>512.5</ele>
    <time>2018-09-22T08:17:26Z</time>
   </trkpt>
   <trkpt lat="31.7368470" lon="35.1161280">
    <ele>512.5</ele>
    <time>2018-09-22T08:17:27Z</time>
   </trkpt>
   <trkpt lat="31.7368280" lon="35.1161650">
    <ele>512.5</ele>
    <time>2018-09-22T08:17:28Z</time>
   </trkpt>
   <trkpt lat="31.7368110" lon="35.1162020">
    <ele>512.6</ele>
    <time>2018-09-22T08:17:29Z</time>
   </trkpt>
   <trkpt lat="31.7367920" lon="35.1162350">
    <ele>512.6</ele>
    <time>2018-09-22T08:17:30Z</time>
   </trkpt>
   <trkpt lat="31.7367750" lon="35.1162650">
    <ele>512.6</ele>
    <time>2018-09-22T08:17:31Z</time>
   </trkpt>
   <trkpt lat="31.7367510" lon="35.1163050">
    <ele>512.6</ele>
    <time>2018-09-22T08:17:32Z</time>
   </trkpt>
   <trkpt lat="31.7367320" lon="35.1163420">
    <ele>512.6</ele>
    <time>2018-09-22T08:17:33Z</time>
   </trkpt>
   <trkpt lat="31.7367090" lon="35.1163710">
    <ele>512.6</ele>
    <time>2018-09-22T08:17:34Z</time>
   </trkpt>
   <trkpt lat="31.7366930" lon="35.1164110">
    <ele>512.7</ele>
    <time>2018-09-22T08:17:35Z</time>
   </trkpt>
   <trkpt lat="31.7366770" lon="35.1164430">
    <ele>512.7</ele>
    <time>2018-09-22T08:17:36Z</time>
   </trkpt>
   <trkpt lat="31.7366580" lon="35.1164700">
    <ele>512.7</ele>
    <time>2018-09-22T08:17:37Z</time>
   </trkpt>
   <trkpt lat="31.7366380" lon="35.1164980">
    <ele>512.7</ele>
    <time>2018-09-22T08:17:38Z</time>
   </trkpt>
   <trkpt lat="31.7366220" lon="35.1165280">
    <ele>512.7</ele>
    <time>2018-09-22T08:17:39Z</time>
   </trkpt>
   <trkpt lat="31.7366080" lon="35.1165620">
    <ele>512.8</ele>
    <time>2018-09-22T08:17:40Z</time>
   </trkpt>
   <trkpt lat="31.7365870" lon="35.1165920">
    <ele>512.8</ele>
    <time>2018-09-22T08:17:41Z</time>
   </trkpt>
   <trkpt lat="31.7365600" lon="35.1166230">
    <ele>512.8</ele>
    <time>2018-09-22T08:17:42Z</time>
   </trkpt>
   <trkpt lat="31.7365250" lon="35.1166570">
    <ele>512.8</ele>
    <time>2018-09-22T08:17:43Z</time>
   </trkpt>
   <trkpt lat="31.7365000" lon="35.1166820">
    <ele>512.9</ele>
    <time>2018-09-22T08:17:44Z</time>
   </trkpt>
   <trkpt lat="31.7364760" lon="35.1167150">
    <ele>512.9</ele>
    <time>2018-09-22T08:17:45Z</time>
   </trkpt>
   <trkpt lat="31.7364570" lon="35.1167510">
    <ele>512.9</ele>
    <time>2018-09-22T08:17:46Z</time>
   </trkpt>
   <trkpt lat="31.7364370" lon="35.1167860">
    <ele>513.0</ele>
    <time>2018-09-22T08:17:47Z</time>
   </trkpt>
   <trkpt lat="31.7364190" lon="35.1168190">
    <ele>513.0</ele>
    <time>2018-09-22T08:17:48Z</time>
   </trkpt>
   <trkpt lat="31.7364020" lon="35.1168510">
    <ele>513.1</ele>
    <time>2018-09-22T08:17:49Z</time>
   </trkpt>
   <trkpt lat="31.7363850" lon="35.1168800">
    <ele>513.1</ele>
    <time>2018-09-22T08:17:50Z</time>
   </trkpt>
   <trkpt lat="31.7363680" lon="35.1169130">
    <ele>513.1</ele>
    <time>2018-09-22T08:17:51Z</time>
   </trkpt>
   <trkpt lat="31.7363500" lon="35.1169450">
    <ele>513.1</ele>
    <time>2018-09-22T08:17:52Z</time>
   </trkpt>
   <trkpt lat="31.7363350" lon="35.1169860">
    <ele>513.2</ele>
    <time>2018-09-22T08:17:53Z</time>
   </trkpt>
   <trkpt lat="31.7363140" lon="35.1170230">
    <ele>513.3</ele>
    <time>2018-09-22T08:17:54Z</time>
   </trkpt>
   <trkpt lat="31.7362950" lon="35.1170530">
    <ele>513.4</ele>
    <time>2018-09-22T08:17:55Z</time>
   </trkpt>
   <trkpt lat="31.7362800" lon="35.1170870">
    <ele>513.5</ele>
    <time>2018-09-22T08:17:56Z</time>
   </trkpt>
   <trkpt lat="31.7362510" lon="35.1171480">
    <ele>513.7</ele>
    <time>2018-09-22T08:17:58Z</time>
   </trkpt>
   <trkpt lat="31.7362250" lon="35.1171790">
    <ele>513.9</ele>
    <time>2018-09-22T08:17:59Z</time>
   </trkpt>
   <trkpt lat="31.7362000" lon="35.1172100">
    <ele>514.1</ele>
    <time>2018-09-22T08:18:00Z</time>
   </trkpt>
   <trkpt lat="31.7361760" lon="35.1172350">
    <ele>514.3</ele>
    <time>2018-09-22T08:18:01Z</time>
   </trkpt>
   <trkpt lat="31.7361530" lon="35.1172650">
    <ele>514.5</ele>
    <time>2018-09-22T08:18:02Z</time>
   </trkpt>
   <trkpt lat="31.7361360" lon="35.1172930">
    <ele>514.6</ele>
    <time>2018-09-22T08:18:03Z</time>
   </trkpt>
   <trkpt lat="31.7361170" lon="35.1173250">
    <ele>514.7</ele>
    <time>2018-09-22T08:18:04Z</time>
   </trkpt>
   <trkpt lat="31.7361050" lon="35.1173890">
    <ele>514.9</ele>
    <time>2018-09-22T08:18:06Z</time>
   </trkpt>
   <trkpt lat="31.7360940" lon="35.1174520">
    <ele>515.0</ele>
    <time>2018-09-22T08:18:08Z</time>
   </trkpt>
   <trkpt lat="31.7360800" lon="35.1174880">
    <ele>515.0</ele>
    <time>2018-09-22T08:18:09Z</time>
   </trkpt>
   <trkpt lat="31.7360680" lon="35.1175250">
    <ele>515.1</ele>
    <time>2018-09-22T08:18:10Z</time>
   </trkpt>
   <trkpt lat="31.7360450" lon="35.1175650">
    <ele>515.2</ele>
    <time>2018-09-22T08:18:11Z</time>
   </trkpt>
   <trkpt lat="31.7360450" lon="35.1175980">
    <ele>515.2</ele>
    <time>2018-09-22T08:18:12Z</time>
   </trkpt>
   <trkpt lat="31.7360480" lon="35.1176310">
    <ele>515.3</ele>
    <time>2018-09-22T08:18:13Z</time>
   </trkpt>
   <trkpt lat="31.7360290" lon="35.1176650">
    <ele>515.4</ele>
    <time>2018-09-22T08:18:14Z</time>
   </trkpt>
   <trkpt lat="31.7360250" lon="35.1176990">
    <ele>515.4</ele>
    <time>2018-09-22T08:18:15Z</time>
   </trkpt>
   <trkpt lat="31.7360060" lon="35.1177280">
    <ele>515.5</ele>
    <time>2018-09-22T08:18:16Z</time>
   </trkpt>
   <trkpt lat="31.7359970" lon="35.1177890">
    <ele>515.6</ele>
    <time>2018-09-22T08:18:18Z</time>
   </trkpt>
   <trkpt lat="31.7359900" lon="35.1178300">
    <ele>515.7</ele>
    <time>2018-09-22T08:18:19Z</time>
   </trkpt>
   <trkpt lat="31.7359840" lon="35.1178910">
    <ele>515.9</ele>
    <time>2018-09-22T08:18:21Z</time>
   </trkpt>
   <trkpt lat="31.7359870" lon="35.1179230">
    <ele>516.1</ele>
    <time>2018-09-22T08:18:22Z</time>
   </trkpt>
   <trkpt lat="31.7359850" lon="35.1179680">
    <ele>516.4</ele>
    <time>2018-09-22T08:18:24Z</time>
   </trkpt>
   <trkpt lat="31.7359830" lon="35.1180060">
    <ele>516.6</ele>
    <time>2018-09-22T08:18:27Z</time>
   </trkpt>
   <trkpt lat="31.7359890" lon="35.1180500">
    <ele>516.9</ele>
    <time>2018-09-22T08:18:31Z</time>
   </trkpt>
   <trkpt lat="31.7359860" lon="35.1180990">
    <ele>517.2</ele>
    <time>2018-09-22T08:18:35Z</time>
   </trkpt>
   <trkpt lat="31.7359780" lon="35.1181490">
    <ele>517.4</ele>
    <time>2018-09-22T08:18:37Z</time>
   </trkpt>
   <trkpt lat="31.7359840" lon="35.1181900">
    <ele>517.5</ele>
    <time>2018-09-22T08:18:38Z</time>
   </trkpt>
   <trkpt lat="31.7359880" lon="35.1182240">
    <ele>517.6</ele>
    <time>2018-09-22T08:18:39Z</time>
   </trkpt>
   <trkpt lat="31.7359780" lon="35.1182870">
    <ele>517.7</ele>
    <time>2018-09-22T08:18:41Z</time>
   </trkpt>
   <trkpt lat="31.7359750" lon="35.1183210">
    <ele>517.7</ele>
    <time>2018-09-22T08:18:42Z</time>
   </trkpt>
   <trkpt lat="31.7359730" lon="35.1183800">
    <ele>517.8</ele>
    <time>2018-09-22T08:18:44Z</time>
   </trkpt>
   <trkpt lat="31.7359880" lon="35.1184190">
    <ele>517.8</ele>
    <time>2018-09-22T08:18:45Z</time>
   </trkpt>
   <trkpt lat="31.7359960" lon="35.1184580">
    <ele>517.9</ele>
    <time>2018-09-22T08:18:46Z</time>
   </trkpt>
   <trkpt lat="31.7360050" lon="35.1184900">
    <ele>517.9</ele>
    <time>2018-09-22T08:18:47Z</time>
   </trkpt>
   <trkpt lat="31.7360160" lon="35.1185250">
    <ele>517.9</ele>
    <time>2018-09-22T08:18:48Z</time>
   </trkpt>
   <trkpt lat="31.7360260" lon="35.1185600">
    <ele>517.9</ele>
    <time>2018-09-22T08:18:49Z</time>
   </trkpt>
   <trkpt lat="31.7360550" lon="35.1185840">
    <ele>518.0</ele>
    <time>2018-09-22T08:18:50Z</time>
   </trkpt>
   <trkpt lat="31.7361020" lon="35.1186100">
    <ele>518.0</ele>
    <time>2018-09-22T08:18:52Z</time>
   </trkpt>
   <trkpt lat="31.7361340" lon="35.1186050">
    <ele>518.0</ele>
    <time>2018-09-22T08:18:53Z</time>
   </trkpt>
   <trkpt lat="31.7361660" lon="35.1186150">
    <ele>518.0</ele>
    <time>2018-09-22T08:18:56Z</time>
   </trkpt>
   <trkpt lat="31.7361900" lon="35.1185990">
    <ele>518.0</ele>
    <time>2018-09-22T08:18:57Z</time>
   </trkpt>
   <trkpt lat="31.7362290" lon="35.1185870">
    <ele>518.0</ele>
    <time>2018-09-22T08:18:59Z</time>
   </trkpt>
   <trkpt lat="31.7362580" lon="35.1185780">
    <ele>518.0</ele>
    <time>2018-09-22T08:19:00Z</time>
   </trkpt>
   <trkpt lat="31.7362980" lon="35.1185870">
    <ele>518.3</ele>
    <time>2018-09-22T08:19:02Z</time>
   </trkpt>
   <trkpt lat="31.7363390" lon="35.1186050">
    <ele>518.5</ele>
    <time>2018-09-22T08:19:04Z</time>
   </trkpt>
   <trkpt lat="31.7363660" lon="35.1186270">
    <ele>518.6</ele>
    <time>2018-09-22T08:19:06Z</time>
   </trkpt>
   <trkpt lat="31.7364090" lon="35.1186320">
    <ele>518.8</ele>
    <time>2018-09-22T08:19:08Z</time>
   </trkpt>
   <trkpt lat="31.7364450" lon="35.1186560">
    <ele>519.1</ele>
    <time>2018-09-22T08:19:10Z</time>
   </trkpt>
   <trkpt lat="31.7364830" lon="35.1186700">
    <ele>519.3</ele>
    <time>2018-09-22T08:19:12Z</time>
   </trkpt>
   <trkpt lat="31.7365170" lon="35.1186810">
    <ele>519.5</ele>
    <time>2018-09-22T08:19:14Z</time>
   </trkpt>
   <trkpt lat="31.7365500" lon="35.1187040">
    <ele>519.6</ele>
    <time>2018-09-22T08:19:16Z</time>
   </trkpt>
   <trkpt lat="31.7365830" lon="35.1187230">
    <ele>519.7</ele>
    <time>2018-09-22T08:19:18Z</time>
   </trkpt>
   <trkpt lat="31.7366150" lon="35.1187360">
    <ele>519.8</ele>
    <time>2018-09-22T08:19:20Z</time>
   </trkpt>
   <trkpt lat="31.7366560" lon="35.1187500">
    <ele>519.8</ele>
    <time>2018-09-22T08:19:22Z</time>
   </trkpt>
   <trkpt lat="31.7366930" lon="35.1187690">
    <ele>519.8</ele>
    <time>2018-09-22T08:19:24Z</time>
   </trkpt>
   <trkpt lat="31.7367360" lon="35.1187800">
    <ele>519.9</ele>
    <time>2018-09-22T08:19:26Z</time>
   </trkpt>
   <trkpt lat="31.7367790" lon="35.1188050">
    <ele>519.9</ele>
    <time>2018-09-22T08:19:28Z</time>
   </trkpt>
   <trkpt lat="31.7368180" lon="35.1188260">
    <ele>520.0</ele>
    <time>2018-09-22T08:19:30Z</time>
   </trkpt>
   <trkpt lat="31.7368520" lon="35.1188500">
    <ele>520.0</ele>
    <time>2018-09-22T08:19:32Z</time>
   </trkpt>
   <trkpt lat="31.7368990" lon="35.1188640">
    <ele>520.1</ele>
    <time>2018-09-22T08:19:34Z</time>
   </trkpt>
   <trkpt lat="31.7369400" lon="35.1188770">
    <ele>520.2</ele>
    <time>2018-09-22T08:19:36Z</time>
   </trkpt>
   <trkpt lat="31.7369850" lon="35.1188730">
    <ele>520.2</ele>
    <time>2018-09-22T08:19:38Z</time>
   </trkpt>
   <trkpt lat="31.7370180" lon="35.1188740">
    <ele>520.2</ele>
    <time>2018-09-22T08:19:40Z</time>
   </trkpt>
   <trkpt lat="31.7370680" lon="35.1188870">
    <ele>520.3</ele>
    <time>2018-09-22T08:19:42Z</time>
   </trkpt>
   <trkpt lat="31.7371030" lon="35.1189030">
    <ele>520.4</ele>
    <time>2018-09-22T08:19:44Z</time>
   </trkpt>
   <trkpt lat="31.7371380" lon="35.1189100">
    <ele>520.4</ele>
    <time>2018-09-22T08:19:46Z</time>
   </trkpt>
   <trkpt lat="31.7371690" lon="35.1189060">
    <ele>520.5</ele>
    <time>2018-09-22T08:19:47Z</time>
   </trkpt>
   <trkpt lat="31.7372160" lon="35.1189070">
    <ele>520.7</ele>
    <time>2018-09-22T08:19:49Z</time>
   </trkpt>
   <trkpt lat="31.7372600" lon="35.1189110">
    <ele>520.9</ele>
    <time>2018-09-22T08:19:51Z</time>
   </trkpt>
   <trkpt lat="31.7372900" lon="35.1189070">
    <ele>521.0</ele>
    <time>2018-09-22T08:19:52Z</time>
   </trkpt>
   <trkpt lat="31.7373170" lon="35.1189010">
    <ele>521.2</ele>
    <time>2018-09-22T08:19:53Z</time>
   </trkpt>
   <trkpt lat="31.7373710" lon="35.1188960">
    <ele>521.3</ele>
    <time>2018-09-22T08:19:55Z</time>
   </trkpt>
   <trkpt lat="31.7374000" lon="35.1188890">
    <ele>521.4</ele>
    <time>2018-09-22T08:19:56Z</time>
   </trkpt>
   <trkpt lat="31.7374380" lon="35.1188970">
    <ele>521.4</ele>
    <time>2018-09-22T08:19:58Z</time>
   </trkpt>
   <trkpt lat="31.7374790" lon="35.1188940">
    <ele>521.5</ele>
    <time>2018-09-22T08:20:00Z</time>
   </trkpt>
   <trkpt lat="31.7375180" lon="35.1189080">
    <ele>521.6</ele>
    <time>2018-09-22T08:20:02Z</time>
   </trkpt>
   <trkpt lat="31.7375520" lon="35.1189020">
    <ele>521.7</ele>
    <time>2018-09-22T08:20:03Z</time>
   </trkpt>
   <trkpt lat="31.7375950" lon="35.1189060">
    <ele>521.7</ele>
    <time>2018-09-22T08:20:05Z</time>
   </trkpt>
   <trkpt lat="31.7376240" lon="35.1189250">
    <ele>521.9</ele>
    <time>2018-09-22T08:20:07Z</time>
   </trkpt>
   <trkpt lat="31.7376590" lon="35.1189310">
    <ele>522.1</ele>
    <time>2018-09-22T08:20:09Z</time>
   </trkpt>
   <trkpt lat="31.7376890" lon="35.1189380">
    <ele>522.2</ele>
    <time>2018-09-22T08:20:11Z</time>
   </trkpt>
   <trkpt lat="31.7377370" lon="35.1189380">
    <ele>522.5</ele>
    <time>2018-09-22T08:20:13Z</time>
   </trkpt>
   <trkpt lat="31.7377790" lon="35.1189430">
    <ele>522.7</ele>
    <time>2018-09-22T08:20:15Z</time>
   </trkpt>
   <trkpt lat="31.7378170" lon="35.1189520">
    <ele>522.9</ele>
    <time>2018-09-22T08:20:17Z</time>
   </trkpt>
   <trkpt lat="31.7378460" lon="35.1189510">
    <ele>523.0</ele>
    <time>2018-09-22T08:20:19Z</time>
   </trkpt>
   <trkpt lat="31.7378870" lon="35.1189390">
    <ele>523.1</ele>
    <time>2018-09-22T08:20:22Z</time>
   </trkpt>
   <trkpt lat="31.7379170" lon="35.1189410">
    <ele>523.2</ele>
    <time>2018-09-22T08:20:24Z</time>
   </trkpt>
   <trkpt lat="31.7379520" lon="35.1189450">
    <ele>523.2</ele>
    <time>2018-09-22T08:20:26Z</time>
   </trkpt>
   <trkpt lat="31.7379830" lon="35.1189490">
    <ele>523.3</ele>
    <time>2018-09-22T08:20:28Z</time>
   </trkpt>
   <trkpt lat="31.7380230" lon="35.1189670">
    <ele>523.4</ele>
    <time>2018-09-22T08:20:30Z</time>
   </trkpt>
   <trkpt lat="31.7380670" lon="35.1189770">
    <ele>523.4</ele>
    <time>2018-09-22T08:20:32Z</time>
   </trkpt>
   <trkpt lat="31.7381140" lon="35.1189730">
    <ele>523.5</ele>
    <time>2018-09-22T08:20:34Z</time>
   </trkpt>
   <trkpt lat="31.7381650" lon="35.1189680">
    <ele>523.5</ele>
    <time>2018-09-22T08:20:36Z</time>
   </trkpt>
   <trkpt lat="31.7382090" lon="35.1189700">
    <ele>523.6</ele>
    <time>2018-09-22T08:20:38Z</time>
   </trkpt>
   <trkpt lat="31.7382490" lon="35.1189810">
    <ele>523.7</ele>
    <time>2018-09-22T08:20:40Z</time>
   </trkpt>
   <trkpt lat="31.7382970" lon="35.1189840">
    <ele>523.7</ele>
    <time>2018-09-22T08:20:42Z</time>
   </trkpt>
   <trkpt lat="31.7383390" lon="35.1189940">
    <ele>523.9</ele>
    <time>2018-09-22T08:20:44Z</time>
   </trkpt>
   <trkpt lat="31.7383860" lon="35.1190010">
    <ele>524.2</ele>
    <time>2018-09-22T08:20:46Z</time>
   </trkpt>
   <trkpt lat="31.7384290" lon="35.1190120">
    <ele>524.4</ele>
    <time>2018-09-22T08:20:48Z</time>
   </trkpt>
   <trkpt lat="31.7384680" lon="35.1190140">
    <ele>524.6</ele>
    <time>2018-09-22T08:20:50Z</time>
   </trkpt>
   <trkpt lat="31.7385130" lon="35.1190170">
    <ele>524.8</ele>
    <time>2018-09-22T08:20:52Z</time>
   </trkpt>
   <trkpt lat="31.7385570" lon="35.1190200">
    <ele>525.0</ele>
    <time>2018-09-22T08:20:54Z</time>
   </trkpt>
   <trkpt lat="31.7386030" lon="35.1190290">
    <ele>525.2</ele>
    <time>2018-09-22T08:20:56Z</time>
   </trkpt>
   <trkpt lat="31.7386390" lon="35.1190380">
    <ele>525.3</ele>
    <time>2018-09-22T08:20:58Z</time>
   </trkpt>
   <trkpt lat="31.7386810" lon="35.1190420">
    <ele>525.5</ele>
    <time>2018-09-22T08:21:00Z</time>
   </trkpt>
   <trkpt lat="31.7387160" lon="35.1190520">
    <ele>525.7</ele>
    <time>2018-09-22T08:21:02Z</time>
   </trkpt>
   <trkpt lat="31.7387620" lon="35.1190580">
    <ele>526.0</ele>
    <time>2018-09-22T08:21:04Z</time>
   </trkpt>
   <trkpt lat="31.7388010" lon="35.1190680">
    <ele>526.3</ele>
    <time>2018-09-22T08:21:06Z</time>
   </trkpt>
   <trkpt lat="31.7388460" lon="35.1190700">
    <ele>526.6</ele>
    <time>2018-09-22T08:21:08Z</time>
   </trkpt>
   <trkpt lat="31.7388920" lon="35.1190750">
    <ele>526.8</ele>
    <time>2018-09-22T08:21:10Z</time>
   </trkpt>
   <trkpt lat="31.7389290" lon="35.1190940">
    <ele>527.0</ele>
    <time>2018-09-22T08:21:12Z</time>
   </trkpt>
   <trkpt lat="31.7389780" lon="35.1190990">
    <ele>527.3</ele>
    <time>2018-09-22T08:21:14Z</time>
   </trkpt>
   <trkpt lat="31.7390050" lon="35.1190990">
    <ele>527.5</ele>
    <time>2018-09-22T08:21:15Z</time>
   </trkpt>
   <trkpt lat="31.7390490" lon="35.1191020">
    <ele>527.8</ele>
    <time>2018-09-22T08:21:17Z</time>
   </trkpt>
   <trkpt lat="31.7390850" lon="35.1191020">
    <ele>528.0</ele>
    <time>2018-09-22T08:21:19Z</time>
   </trkpt>
   <trkpt lat="31.7391230" lon="35.1191120">
    <ele>528.3</ele>
    <time>2018-09-22T08:21:22Z</time>
   </trkpt>
   <trkpt lat="31.7391610" lon="35.1191120">
    <ele>528.5</ele>
    <time>2018-09-22T08:21:24Z</time>
   </trkpt>
   <trkpt lat="31.7391980" lon="35.1191160">
    <ele>528.7</ele>
    <time>2018-09-22T08:21:26Z</time>
   </trkpt>
   <trkpt lat="31.7392370" lon="35.1191150">
    <ele>528.9</ele>
    <time>2018-09-22T08:21:28Z</time>
   </trkpt>
   <trkpt lat="31.7392680" lon="35.1191220">
    <ele>529.0</ele>
    <time>2018-09-22T08:21:30Z</time>
   </trkpt>
   <trkpt lat="31.7392990" lon="35.1191320">
    <ele>529.1</ele>
    <time>2018-09-22T08:21:32Z</time>
   </trkpt>
   <trkpt lat="31.7393320" lon="35.1191410">
    <ele>529.2</ele>
    <time>2018-09-22T08:21:34Z</time>
   </trkpt>
   <trkpt lat="31.7393650" lon="35.1191500">
    <ele>529.3</ele>
    <time>2018-09-22T08:21:36Z</time>
   </trkpt>
   <trkpt lat="31.7394050" lon="35.1191590">
    <ele>529.4</ele>
    <time>2018-09-22T08:21:38Z</time>
   </trkpt>
   <trkpt lat="31.7394520" lon="35.1191670">
    <ele>529.7</ele>
    <time>2018-09-22T08:21:40Z</time>
   </trkpt>
   <trkpt lat="31.7394940" lon="35.1191730">
    <ele>530.0</ele>
    <time>2018-09-22T08:21:43Z</time>
   </trkpt>
   <trkpt lat="31.7395330" lon="35.1191820">
    <ele>530.3</ele>
    <time>2018-09-22T08:21:45Z</time>
   </trkpt>
   <trkpt lat="31.7395790" lon="35.1191960">
    <ele>530.7</ele>
    <time>2018-09-22T08:21:47Z</time>
   </trkpt>
   <trkpt lat="31.7396150" lon="35.1192060">
    <ele>531.0</ele>
    <time>2018-09-22T08:21:49Z</time>
   </trkpt>
   <trkpt lat="31.7396490" lon="35.1192140">
    <ele>531.2</ele>
    <time>2018-09-22T08:21:51Z</time>
   </trkpt>
   <trkpt lat="31.7396870" lon="35.1192190">
    <ele>531.5</ele>
    <time>2018-09-22T08:21:53Z</time>
   </trkpt>
   <trkpt lat="31.7397200" lon="35.1192240">
    <ele>531.8</ele>
    <time>2018-09-22T08:21:55Z</time>
   </trkpt>
   <trkpt lat="31.7397540" lon="35.1192280">
    <ele>532.0</ele>
    <time>2018-09-22T08:21:57Z</time>
   </trkpt>
   <trkpt lat="31.7397890" lon="35.1192410">
    <ele>532.3</ele>
    <time>2018-09-22T08:21:59Z</time>
   </trkpt>
   <trkpt lat="31.7398200" lon="35.1192400">
    <ele>532.5</ele>
    <time>2018-09-22T08:22:01Z</time>
   </trkpt>
   <trkpt lat="31.7398600" lon="35.1192490">
    <ele>532.6</ele>
    <time>2018-09-22T08:22:03Z</time>
   </trkpt>
   <trkpt lat="31.7398950" lon="35.1192590">
    <ele>532.8</ele>
    <time>2018-09-22T08:22:05Z</time>
   </trkpt>
   <trkpt lat="31.7399280" lon="35.1192710">
    <ele>533.0</ele>
    <time>2018-09-22T08:22:07Z</time>
   </trkpt>
   <trkpt lat="31.7399670" lon="35.1192740">
    <ele>533.2</ele>
    <time>2018-09-22T08:22:09Z</time>
   </trkpt>
   <trkpt lat="31.7400090" lon="35.1192730">
    <ele>533.5</ele>
    <time>2018-09-22T08:22:11Z</time>
   </trkpt>
   <trkpt lat="31.7400370" lon="35.1192810">
    <ele>533.8</ele>
    <time>2018-09-22T08:22:13Z</time>
   </trkpt>
   <trkpt lat="31.7400870" lon="35.1192780">
    <ele>534.2</ele>
    <time>2018-09-22T08:22:15Z</time>
   </trkpt>
   <trkpt lat="31.7401140" lon="35.1192820">
    <ele>534.4</ele>
    <time>2018-09-22T08:22:17Z</time>
   </trkpt>
   <trkpt lat="31.7401550" lon="35.1192840">
    <ele>534.6</ele>
    <time>2018-09-22T08:22:19Z</time>
   </trkpt>
   <trkpt lat="31.7402020" lon="35.1192840">
    <ele>534.8</ele>
    <time>2018-09-22T08:22:21Z</time>
   </trkpt>
   <trkpt lat="31.7402340" lon="35.1193020">
    <ele>534.9</ele>
    <time>2018-09-22T08:22:23Z</time>
   </trkpt>
   <trkpt lat="31.7402690" lon="35.1192960">
    <ele>535.2</ele>
    <time>2018-09-22T08:22:25Z</time>
   </trkpt>
   <trkpt lat="31.7402990" lon="35.1192950">
    <ele>535.4</ele>
    <time>2018-09-22T08:22:27Z</time>
   </trkpt>
   <trkpt lat="31.7403320" lon="35.1193000">
    <ele>535.6</ele>
    <time>2018-09-22T08:22:29Z</time>
   </trkpt>
   <trkpt lat="31.7403680" lon="35.1193200">
    <ele>535.9</ele>
    <time>2018-09-22T08:22:32Z</time>
   </trkpt>
   <trkpt lat="31.7404100" lon="35.1193280">
    <ele>536.1</ele>
    <time>2018-09-22T08:22:34Z</time>
   </trkpt>
   <trkpt lat="31.7404450" lon="35.1193470">
    <ele>536.2</ele>
    <time>2018-09-22T08:22:36Z</time>
   </trkpt>
   <trkpt lat="31.7404750" lon="35.1193730">
    <ele>536.3</ele>
    <time>2018-09-22T08:22:38Z</time>
   </trkpt>
   <trkpt lat="31.7405160" lon="35.1193770">
    <ele>536.4</ele>
    <time>2018-09-22T08:22:40Z</time>
   </trkpt>
   <trkpt lat="31.7405430" lon="35.1193790">
    <ele>536.5</ele>
    <time>2018-09-22T08:22:41Z</time>
   </trkpt>
   <trkpt lat="31.7405730" lon="35.1193950">
    <ele>536.7</ele>
    <time>2018-09-22T08:22:43Z</time>
   </trkpt>
   <trkpt lat="31.7406040" lon="35.1194080">
    <ele>536.8</ele>
    <time>2018-09-22T08:22:45Z</time>
   </trkpt>
   <trkpt lat="31.7406270" lon="35.1194320">
    <ele>536.9</ele>
    <time>2018-09-22T08:22:47Z</time>
   </trkpt>
   <trkpt lat="31.7406650" lon="35.1194380">
    <ele>537.2</ele>
    <time>2018-09-22T08:22:49Z</time>
   </trkpt>
   <trkpt lat="31.7406920" lon="35.1194460">
    <ele>537.3</ele>
    <time>2018-09-22T08:22:51Z</time>
   </trkpt>
   <trkpt lat="31.7407200" lon="35.1194640">
    <ele>537.5</ele>
    <time>2018-09-22T08:22:53Z</time>
   </trkpt>
   <trkpt lat="31.7407530" lon="35.1194840">
    <ele>537.7</ele>
    <time>2018-09-22T08:22:55Z</time>
   </trkpt>
   <trkpt lat="31.7407860" lon="35.1194900">
    <ele>537.9</ele>
    <time>2018-09-22T08:22:57Z</time>
   </trkpt>
   <trkpt lat="31.7408230" lon="35.1195070">
    <ele>538.1</ele>
    <time>2018-09-22T08:22:59Z</time>
   </trkpt>
   <trkpt lat="31.7408630" lon="35.1195240">
    <ele>538.2</ele>
    <time>2018-09-22T08:23:01Z</time>
   </trkpt>
   <trkpt lat="31.7408960" lon="35.1195350">
    <ele>538.3</ele>
    <time>2018-09-22T08:23:03Z</time>
   </trkpt>
   <trkpt lat="31.7409300" lon="35.1195410">
    <ele>538.4</ele>
    <time>2018-09-22T08:23:05Z</time>
   </trkpt>
   <trkpt lat="31.7409660" lon="35.1195610">
    <ele>538.5</ele>
    <time>2018-09-22T08:23:07Z</time>
   </trkpt>
   <trkpt lat="31.7409910" lon="35.1195850">
    <ele>538.7</ele>
    <time>2018-09-22T08:23:09Z</time>
   </trkpt>
   <trkpt lat="31.7410210" lon="35.1195920">
    <ele>538.9</ele>
    <time>2018-09-22T08:23:11Z</time>
   </trkpt>
   <trkpt lat="31.7410490" lon="35.1195990">
    <ele>539.0</ele>
    <time>2018-09-22T08:23:12Z</time>
   </trkpt>
   <trkpt lat="31.7410800" lon="35.1196100">
    <ele>539.2</ele>
    <time>2018-09-22T08:23:14Z</time>
   </trkpt>
   <trkpt lat="31.7411220" lon="35.1196110">
    <ele>539.4</ele>
    <time>2018-09-22T08:23:16Z</time>
   </trkpt>
   <trkpt lat="31.7411590" lon="35.1196210">
    <ele>539.5</ele>
    <time>2018-09-22T08:23:18Z</time>
   </trkpt>
   <trkpt lat="31.7411910" lon="35.1196250">
    <ele>539.6</ele>
    <time>2018-09-22T08:23:20Z</time>
   </trkpt>
   <trkpt lat="31.7412160" lon="35.1196420">
    <ele>539.7</ele>
    <time>2018-09-22T08:23:22Z</time>
   </trkpt>
   <trkpt lat="31.7412430" lon="35.1196660">
    <ele>539.8</ele>
    <time>2018-09-22T08:23:24Z</time>
   </trkpt>
   <trkpt lat="31.7412740" lon="35.1196810">
    <ele>540.0</ele>
    <time>2018-09-22T08:23:26Z</time>
   </trkpt>
   <trkpt lat="31.7413130" lon="35.1197050">
    <ele>540.2</ele>
    <time>2018-09-22T08:23:28Z</time>
   </trkpt>
   <trkpt lat="31.7413410" lon="35.1197170">
    <ele>540.4</ele>
    <time>2018-09-22T08:23:31Z</time>
   </trkpt>
   <trkpt lat="31.7413770" lon="35.1197280">
    <ele>540.6</ele>
    <time>2018-09-22T08:23:33Z</time>
   </trkpt>
   <trkpt lat="31.7414220" lon="35.1197460">
    <ele>540.9</ele>
    <time>2018-09-22T08:23:35Z</time>
   </trkpt>
   <trkpt lat="31.7414580" lon="35.1197710">
    <ele>541.2</ele>
    <time>2018-09-22T08:23:37Z</time>
   </trkpt>
   <trkpt lat="31.7415030" lon="35.1197750">
    <ele>541.3</ele>
    <time>2018-09-22T08:23:39Z</time>
   </trkpt>
   <trkpt lat="31.7415300" lon="35.1197900">
    <ele>541.4</ele>
    <time>2018-09-22T08:23:41Z</time>
   </trkpt>
   <trkpt lat="31.7415700" lon="35.1198060">
    <ele>541.5</ele>
    <time>2018-09-22T08:23:43Z</time>
   </trkpt>
   <trkpt lat="31.7416150" lon="35.1198140">
    <ele>541.6</ele>
    <time>2018-09-22T08:23:45Z</time>
   </trkpt>
   <trkpt lat="31.7416420" lon="35.1198270">
    <ele>541.6</ele>
    <time>2018-09-22T08:23:47Z</time>
   </trkpt>
   <trkpt lat="31.7416730" lon="35.1198370">
    <ele>541.7</ele>
    <time>2018-09-22T08:23:50Z</time>
   </trkpt>
   <trkpt lat="31.7417000" lon="35.1198520">
    <ele>541.9</ele>
    <time>2018-09-22T08:23:52Z</time>
   </trkpt>
   <trkpt lat="31.7417380" lon="35.1198720">
    <ele>542.2</ele>
    <time>2018-09-22T08:23:54Z</time>
   </trkpt>
   <trkpt lat="31.7417640" lon="35.1198840">
    <ele>542.4</ele>
    <time>2018-09-22T08:23:56Z</time>
   </trkpt>
   <trkpt lat="31.7417900" lon="35.1198950">
    <ele>542.6</ele>
    <time>2018-09-22T08:23:58Z</time>
   </trkpt>
   <trkpt lat="31.7418270" lon="35.1199070">
    <ele>542.9</ele>
    <time>2018-09-22T08:24:00Z</time>
   </trkpt>
   <trkpt lat="31.7418640" lon="35.1199180">
    <ele>543.2</ele>
    <time>2018-09-22T08:24:02Z</time>
   </trkpt>
   <trkpt lat="31.7418970" lon="35.1199340">
    <ele>543.6</ele>
    <time>2018-09-22T08:24:04Z</time>
   </trkpt>
   <trkpt lat="31.7419310" lon="35.1199600">
    <ele>544.0</ele>
    <time>2018-09-22T08:24:06Z</time>
   </trkpt>
   <trkpt lat="31.7419630" lon="35.1199780">
    <ele>544.3</ele>
    <time>2018-09-22T08:24:08Z</time>
   </trkpt>
   <trkpt lat="31.7419900" lon="35.1200060">
    <ele>544.6</ele>
    <time>2018-09-22T08:24:10Z</time>
   </trkpt>
   <trkpt lat="31.7420230" lon="35.1200180">
    <ele>544.8</ele>
    <time>2018-09-22T08:24:12Z</time>
   </trkpt>
   <trkpt lat="31.7420490" lon="35.1200360">
    <ele>545.0</ele>
    <time>2018-09-22T08:24:14Z</time>
   </trkpt>
   <trkpt lat="31.7420760" lon="35.1200540">
    <ele>545.1</ele>
    <time>2018-09-22T08:24:16Z</time>
   </trkpt>
   <trkpt lat="31.7421080" lon="35.1200740">
    <ele>545.2</ele>
    <time>2018-09-22T08:24:18Z</time>
   </trkpt>
   <trkpt lat="31.7421420" lon="35.1200920">
    <ele>545.4</ele>
    <time>2018-09-22T08:24:20Z</time>
   </trkpt>
   <trkpt lat="31.7421710" lon="35.1200990">
    <ele>545.5</ele>
    <time>2018-09-22T08:24:22Z</time>
   </trkpt>
   <trkpt lat="31.7422000" lon="35.1201100">
    <ele>545.7</ele>
    <time>2018-09-22T08:24:24Z</time>
   </trkpt>
   <trkpt lat="31.7422330" lon="35.1201110">
    <ele>545.9</ele>
    <time>2018-09-22T08:24:26Z</time>
   </trkpt>
   <trkpt lat="31.7422730" lon="35.1201380">
    <ele>546.2</ele>
    <time>2018-09-22T08:24:28Z</time>
   </trkpt>
   <trkpt lat="31.7423060" lon="35.1201550">
    <ele>546.3</ele>
    <time>2018-09-22T08:24:30Z</time>
   </trkpt>
   <trkpt lat="31.7423380" lon="35.1201680">
    <ele>546.4</ele>
    <time>2018-09-22T08:24:32Z</time>
   </trkpt>
   <trkpt lat="31.7423660" lon="35.1201850">
    <ele>546.5</ele>
    <time>2018-09-22T08:24:34Z</time>
   </trkpt>
   <trkpt lat="31.7423940" lon="35.1202030">
    <ele>546.5</ele>
    <time>2018-09-22T08:24:36Z</time>
   </trkpt>
   <trkpt lat="31.7424280" lon="35.1202080">
    <ele>546.6</ele>
    <time>2018-09-22T08:24:38Z</time>
   </trkpt>
   <trkpt lat="31.7424700" lon="35.1202150">
    <ele>546.7</ele>
    <time>2018-09-22T08:24:40Z</time>
   </trkpt>
   <trkpt lat="31.7425070" lon="35.1202230">
    <ele>546.8</ele>
    <time>2018-09-22T08:24:42Z</time>
   </trkpt>
   <trkpt lat="31.7425390" lon="35.1202300">
    <ele>546.9</ele>
    <time>2018-09-22T08:24:44Z</time>
   </trkpt>
   <trkpt lat="31.7425690" lon="35.1202440">
    <ele>547.1</ele>
    <time>2018-09-22T08:24:46Z</time>
   </trkpt>
   <trkpt lat="31.7426060" lon="35.1202460">
    <ele>547.3</ele>
    <time>2018-09-22T08:24:48Z</time>
   </trkpt>
   <trkpt lat="31.7426430" lon="35.1202530">
    <ele>547.6</ele>
    <time>2018-09-22T08:24:50Z</time>
   </trkpt>
   <trkpt lat="31.7426940" lon="35.1202620">
    <ele>547.9</ele>
    <time>2018-09-22T08:24:52Z</time>
   </trkpt>
   <trkpt lat="31.7427220" lon="35.1202810">
    <ele>548.1</ele>
    <time>2018-09-22T08:24:54Z</time>
   </trkpt>
   <trkpt lat="31.7427580" lon="35.1202880">
    <ele>548.3</ele>
    <time>2018-09-22T08:24:56Z</time>
   </trkpt>
   <trkpt lat="31.7427910" lon="35.1202920">
    <ele>548.4</ele>
    <time>2018-09-22T08:24:58Z</time>
   </trkpt>
   <trkpt lat="31.7428220" lon="35.1202990">
    <ele>548.5</ele>
    <time>2018-09-22T08:25:00Z</time>
   </trkpt>
   <trkpt lat="31.7428640" lon="35.1203140">
    <ele>548.7</ele>
    <time>2018-09-22T08:25:02Z</time>
   </trkpt>
   <trkpt lat="31.7428930" lon="35.1203140">
    <ele>548.8</ele>
    <time>2018-09-22T08:25:04Z</time>
   </trkpt>
   <trkpt lat="31.7429330" lon="35.1203310">
    <ele>549.1</ele>
    <time>2018-09-22T08:25:06Z</time>
   </trkpt>
   <trkpt lat="31.7429680" lon="35.1203540">
    <ele>549.4</ele>
    <time>2018-09-22T08:25:08Z</time>
   </trkpt>
   <trkpt lat="31.7429930" lon="35.1203800">
    <ele>549.5</ele>
    <time>2018-09-22T08:25:10Z</time>
   </trkpt>
   <trkpt lat="31.7430270" lon="35.1204110">
    <ele>549.8</ele>
    <time>2018-09-22T08:25:12Z</time>
   </trkpt>
   <trkpt lat="31.7430490" lon="35.1204330">
    <ele>550.0</ele>
    <time>2018-09-22T08:25:13Z</time>
   </trkpt>
   <trkpt lat="31.7430670" lon="35.1204560">
    <ele>550.2</ele>
    <time>2018-09-22T08:25:14Z</time>
   </trkpt>
   <trkpt lat="31.7430820" lon="35.1204820">
    <ele>550.3</ele>
    <time>2018-09-22T08:25:15Z</time>
   </trkpt>
   <trkpt lat="31.7431110" lon="35.1205240">
    <ele>550.5</ele>
    <time>2018-09-22T08:25:17Z</time>
   </trkpt>
   <trkpt lat="31.7431370" lon="35.1205540">
    <ele>550.7</ele>
    <time>2018-09-22T08:25:19Z</time>
   </trkpt>
   <trkpt lat="31.7431670" lon="35.1205790">
    <ele>551.0</ele>
    <time>2018-09-22T08:25:21Z</time>
   </trkpt>
   <trkpt lat="31.7431950" lon="35.1206130">
    <ele>551.3</ele>
    <time>2018-09-22T08:25:23Z</time>
   </trkpt>
   <trkpt lat="31.7432220" lon="35.1206370">
    <ele>551.6</ele>
    <time>2018-09-22T08:25:25Z</time>
   </trkpt>
   <trkpt lat="31.7432470" lon="35.1206680">
    <ele>551.8</ele>
    <time>2018-09-22T08:25:27Z</time>
   </trkpt>
   <trkpt lat="31.7432630" lon="35.1206940">
    <ele>551.9</ele>
    <time>2018-09-22T08:25:29Z</time>
   </trkpt>
   <trkpt lat="31.7432820" lon="35.1207220">
    <ele>552.1</ele>
    <time>2018-09-22T08:25:31Z</time>
   </trkpt>
   <trkpt lat="31.7433000" lon="35.1207460">
    <ele>552.3</ele>
    <time>2018-09-22T08:25:33Z</time>
   </trkpt>
   <trkpt lat="31.7433180" lon="35.1207700">
    <ele>552.5</ele>
    <time>2018-09-22T08:25:35Z</time>
   </trkpt>
   <trkpt lat="31.7433390" lon="35.1208000">
    <ele>552.7</ele>
    <time>2018-09-22T08:25:37Z</time>
   </trkpt>
   <trkpt lat="31.7433620" lon="35.1208250">
    <ele>553.0</ele>
    <time>2018-09-22T08:25:39Z</time>
   </trkpt>
   <trkpt lat="31.7433860" lon="35.1208530">
    <ele>553.2</ele>
    <time>2018-09-22T08:25:41Z</time>
   </trkpt>
   <trkpt lat="31.7434060" lon="35.1208800">
    <ele>553.5</ele>
    <time>2018-09-22T08:25:43Z</time>
   </trkpt>
   <trkpt lat="31.7434320" lon="35.1209100">
    <ele>553.7</ele>
    <time>2018-09-22T08:25:45Z</time>
   </trkpt>
   <trkpt lat="31.7434500" lon="35.1209370">
    <ele>553.9</ele>
    <time>2018-09-22T08:25:47Z</time>
   </trkpt>
   <trkpt lat="31.7434750" lon="35.1209570">
    <ele>554.0</ele>
    <time>2018-09-22T08:25:49Z</time>
   </trkpt>
   <trkpt lat="31.7434950" lon="35.1209780">
    <ele>554.2</ele>
    <time>2018-09-22T08:25:51Z</time>
   </trkpt>
   <trkpt lat="31.7435210" lon="35.1209980">
    <ele>554.4</ele>
    <time>2018-09-22T08:25:53Z</time>
   </trkpt>
   <trkpt lat="31.7435420" lon="35.1210200">
    <ele>554.6</ele>
    <time>2018-09-22T08:25:55Z</time>
   </trkpt>
   <trkpt lat="31.7435650" lon="35.1210380">
    <ele>554.8</ele>
    <time>2018-09-22T08:25:57Z</time>
   </trkpt>
   <trkpt lat="31.7435890" lon="35.1210670">
    <ele>555.0</ele>
    <time>2018-09-22T08:25:59Z</time>
   </trkpt>
   <trkpt lat="31.7436140" lon="35.1210920">
    <ele>555.3</ele>
    <time>2018-09-22T08:26:01Z</time>
   </trkpt>
   <trkpt lat="31.7436320" lon="35.1211210">
    <ele>555.4</ele>
    <time>2018-09-22T08:26:03Z</time>
   </trkpt>
   <trkpt lat="31.7436580" lon="35.1211490">
    <ele>555.6</ele>
    <time>2018-09-22T08:26:05Z</time>
   </trkpt>
   <trkpt lat="31.7436770" lon="35.1211770">
    <ele>555.7</ele>
    <time>2018-09-22T08:26:07Z</time>
   </trkpt>
   <trkpt lat="31.7437020" lon="35.1211950">
    <ele>555.8</ele>
    <time>2018-09-22T08:26:09Z</time>
   </trkpt>
   <trkpt lat="31.7437400" lon="35.1212180">
    <ele>556.0</ele>
    <time>2018-09-22T08:26:12Z</time>
   </trkpt>
   <trkpt lat="31.7437630" lon="35.1212470">
    <ele>556.3</ele>
    <time>2018-09-22T08:26:15Z</time>
   </trkpt>
   <trkpt lat="31.7437840" lon="35.1212850">
    <ele>556.6</ele>
    <time>2018-09-22T08:26:18Z</time>
   </trkpt>
   <trkpt lat="31.7438070" lon="35.1213060">
    <ele>556.8</ele>
    <time>2018-09-22T08:26:20Z</time>
   </trkpt>
   <trkpt lat="31.7438380" lon="35.1213320">
    <ele>557.2</ele>
    <time>2018-09-22T08:26:23Z</time>
   </trkpt>
   <trkpt lat="31.7438670" lon="35.1213550">
    <ele>557.4</ele>
    <time>2018-09-22T08:26:25Z</time>
   </trkpt>
   <trkpt lat="31.7438880" lon="35.1213800">
    <ele>557.5</ele>
    <time>2018-09-22T08:26:27Z</time>
   </trkpt>
   <trkpt lat="31.7439190" lon="35.1214080">
    <ele>557.7</ele>
    <time>2018-09-22T08:26:29Z</time>
   </trkpt>
   <trkpt lat="31.7439430" lon="35.1214390">
    <ele>558.0</ele>
    <time>2018-09-22T08:26:31Z</time>
   </trkpt>
   <trkpt lat="31.7439650" lon="35.1214570">
    <ele>558.2</ele>
    <time>2018-09-22T08:26:33Z</time>
   </trkpt>
   <trkpt lat="31.7439860" lon="35.1214820">
    <ele>558.4</ele>
    <time>2018-09-22T08:26:35Z</time>
   </trkpt>
   <trkpt lat="31.7440110" lon="35.1214970">
    <ele>558.6</ele>
    <time>2018-09-22T08:26:37Z</time>
   </trkpt>
   <trkpt lat="31.7440360" lon="35.1215210">
    <ele>558.8</ele>
    <time>2018-09-22T08:26:39Z</time>
   </trkpt>
   <trkpt lat="31.7440570" lon="35.1215420">
    <ele>559.0</ele>
    <time>2018-09-22T08:26:41Z</time>
   </trkpt>
   <trkpt lat="31.7440810" lon="35.1215590">
    <ele>559.1</ele>
    <time>2018-09-22T08:26:43Z</time>
   </trkpt>
   <trkpt lat="31.7441180" lon="35.1215880">
    <ele>559.3</ele>
    <time>2018-09-22T08:26:46Z</time>
   </trkpt>
   <trkpt lat="31.7441450" lon="35.1216240">
    <ele>559.5</ele>
    <time>2018-09-22T08:26:49Z</time>
   </trkpt>
   <trkpt lat="31.7441800" lon="35.1216510">
    <ele>559.8</ele>
    <time>2018-09-22T08:26:52Z</time>
   </trkpt>
   <trkpt lat="31.7442120" lon="35.1216760">
    <ele>560.1</ele>
    <time>2018-09-22T08:26:54Z</time>
   </trkpt>
   <trkpt lat="31.7442430" lon="35.1217070">
    <ele>560.5</ele>
    <time>2018-09-22T08:26:57Z</time>
   </trkpt>
   <trkpt lat="31.7442650" lon="35.1217280">
    <ele>560.7</ele>
    <time>2018-09-22T08:26:59Z</time>
   </trkpt>
   <trkpt lat="31.7442990" lon="35.1217590">
    <ele>560.9</ele>
    <time>2018-09-22T08:27:02Z</time>
   </trkpt>
   <trkpt lat="31.7443260" lon="35.1217810">
    <ele>561.1</ele>
    <time>2018-09-22T08:27:04Z</time>
   </trkpt>
   <trkpt lat="31.7443510" lon="35.1218130">
    <ele>561.2</ele>
    <time>2018-09-22T08:27:06Z</time>
   </trkpt>
   <trkpt lat="31.7443790" lon="35.1218380">
    <ele>561.4</ele>
    <time>2018-09-22T08:27:08Z</time>
   </trkpt>
   <trkpt lat="31.7444030" lon="35.1218570">
    <ele>561.7</ele>
    <time>2018-09-22T08:27:10Z</time>
   </trkpt>
   <trkpt lat="31.7444240" lon="35.1218810">
    <ele>561.9</ele>
    <time>2018-09-22T08:27:12Z</time>
   </trkpt>
   <trkpt lat="31.7444530" lon="35.1219090">
    <ele>562.2</ele>
    <time>2018-09-22T08:27:14Z</time>
   </trkpt>
   <trkpt lat="31.7444910" lon="35.1219190">
    <ele>562.4</ele>
    <time>2018-09-22T08:27:17Z</time>
   </trkpt>
   <trkpt lat="31.7445220" lon="35.1219410">
    <ele>562.6</ele>
    <time>2018-09-22T08:27:19Z</time>
   </trkpt>
   <trkpt lat="31.7445560" lon="35.1219550">
    <ele>562.7</ele>
    <time>2018-09-22T08:27:21Z</time>
   </trkpt>
   <trkpt lat="31.7445860" lon="35.1219790">
    <ele>562.8</ele>
    <time>2018-09-22T08:27:23Z</time>
   </trkpt>
   <trkpt lat="31.7446240" lon="35.1220120">
    <ele>562.9</ele>
    <time>2018-09-22T08:27:25Z</time>
   </trkpt>
   <trkpt lat="31.7446570" lon="35.1220320">
    <ele>563.0</ele>
    <time>2018-09-22T08:27:27Z</time>
   </trkpt>
   <trkpt lat="31.7446830" lon="35.1220460">
    <ele>563.1</ele>
    <time>2018-09-22T08:27:30Z</time>
   </trkpt>
   <trkpt lat="31.7447150" lon="35.1220640">
    <ele>563.2</ele>
    <time>2018-09-22T08:27:33Z</time>
   </trkpt>
   <trkpt lat="31.7447560" lon="35.1220910">
    <ele>563.3</ele>
    <time>2018-09-22T08:27:35Z</time>
   </trkpt>
   <trkpt lat="31.7447870" lon="35.1221160">
    <ele>563.6</ele>
    <time>2018-09-22T08:27:37Z</time>
   </trkpt>
   <trkpt lat="31.7448140" lon="35.1221370">
    <ele>563.8</ele>
    <time>2018-09-22T08:27:39Z</time>
   </trkpt>
   <trkpt lat="31.7448490" lon="35.1221670">
    <ele>564.0</ele>
    <time>2018-09-22T08:27:41Z</time>
   </trkpt>
   <trkpt lat="31.7448820" lon="35.1221890">
    <ele>564.1</ele>
    <time>2018-09-22T08:27:43Z</time>
   </trkpt>
   <trkpt lat="31.7449160" lon="35.1222280">
    <ele>564.3</ele>
    <time>2018-09-22T08:27:45Z</time>
   </trkpt>
   <trkpt lat="31.7449420" lon="35.1222680">
    <ele>564.3</ele>
    <time>2018-09-22T08:27:47Z</time>
   </trkpt>
   <trkpt lat="31.7449580" lon="35.1223030">
    <ele>564.4</ele>
    <time>2018-09-22T08:27:49Z</time>
   </trkpt>
   <trkpt lat="31.7449740" lon="35.1223290">
    <ele>564.4</ele>
    <time>2018-09-22T08:27:50Z</time>
   </trkpt>
   <trkpt lat="31.7449870" lon="35.1223660">
    <ele>564.5</ele>
    <time>2018-09-22T08:27:52Z</time>
   </trkpt>
   <trkpt lat="31.7449970" lon="35.1223970">
    <ele>564.5</ele>
    <time>2018-09-22T08:27:54Z</time>
   </trkpt>
   <trkpt lat="31.7450050" lon="35.1224330">
    <ele>564.6</ele>
    <time>2018-09-22T08:27:56Z</time>
   </trkpt>
   <trkpt lat="31.7450040" lon="35.1224800">
    <ele>564.7</ele>
    <time>2018-09-22T08:27:58Z</time>
   </trkpt>
   <trkpt lat="31.7449930" lon="35.1225170">
    <ele>564.8</ele>
    <time>2018-09-22T08:28:00Z</time>
   </trkpt>
   <trkpt lat="31.7449860" lon="35.1225600">
    <ele>565.0</ele>
    <time>2018-09-22T08:28:03Z</time>
   </trkpt>
   <trkpt lat="31.7449800" lon="35.1225920">
    <ele>565.1</ele>
    <time>2018-09-22T08:28:05Z</time>
   </trkpt>
   <trkpt lat="31.7449710" lon="35.1226320">
    <ele>565.4</ele>
    <time>2018-09-22T08:28:07Z</time>
   </trkpt>
   <trkpt lat="31.7449820" lon="35.1226620">
    <ele>565.6</ele>
    <time>2018-09-22T08:28:09Z</time>
   </trkpt>
   <trkpt lat="31.7449960" lon="35.1226980">
    <ele>565.9</ele>
    <time>2018-09-22T08:28:11Z</time>
   </trkpt>
   <trkpt lat="31.7449980" lon="35.1227300">
    <ele>566.0</ele>
    <time>2018-09-22T08:28:13Z</time>
   </trkpt>
   <trkpt lat="31.7449980" lon="35.1227820">
    <ele>566.3</ele>
    <time>2018-09-22T08:28:16Z</time>
   </trkpt>
   <trkpt lat="31.7450040" lon="35.1228300">
    <ele>566.6</ele>
    <time>2018-09-22T08:28:19Z</time>
   </trkpt>
   <trkpt lat="31.7450110" lon="35.1228720">
    <ele>566.9</ele>
    <time>2018-09-22T08:28:21Z</time>
   </trkpt>
   <trkpt lat="31.7450180" lon="35.1229130">
    <ele>567.2</ele>
    <time>2018-09-22T08:28:23Z</time>
   </trkpt>
   <trkpt lat="31.7450310" lon="35.1229480">
    <ele>567.5</ele>
    <time>2018-09-22T08:28:25Z</time>
   </trkpt>
   <trkpt lat="31.7450390" lon="35.1229830">
    <ele>567.6</ele>
    <time>2018-09-22T08:28:27Z</time>
   </trkpt>
   <trkpt lat="31.7450590" lon="35.1230310">
    <ele>567.9</ele>
    <time>2018-09-22T08:28:30Z</time>
   </trkpt>
   <trkpt lat="31.7450740" lon="35.1230730">
    <ele>568.0</ele>
    <time>2018-09-22T08:28:33Z</time>
   </trkpt>
   <trkpt lat="31.7451010" lon="35.1231140">
    <ele>568.3</ele>
    <time>2018-09-22T08:28:36Z</time>
   </trkpt>
   <trkpt lat="31.7451190" lon="35.1231440">
    <ele>568.5</ele>
    <time>2018-09-22T08:28:38Z</time>
   </trkpt>
   <trkpt lat="31.7451330" lon="35.1231850">
    <ele>568.9</ele>
    <time>2018-09-22T08:28:41Z</time>
   </trkpt>
   <trkpt lat="31.7451510" lon="35.1232270">
    <ele>569.2</ele>
    <time>2018-09-22T08:28:44Z</time>
   </trkpt>
   <trkpt lat="31.7451590" lon="35.1232660">
    <ele>569.4</ele>
    <time>2018-09-22T08:28:46Z</time>
   </trkpt>
   <trkpt lat="31.7451650" lon="35.1232970">
    <ele>569.5</ele>
    <time>2018-09-22T08:28:48Z</time>
   </trkpt>
   <trkpt lat="31.7451780" lon="35.1233430">
    <ele>569.7</ele>
    <time>2018-09-22T08:28:51Z</time>
   </trkpt>
   <trkpt lat="31.7452000" lon="35.1233780">
    <ele>569.8</ele>
    <time>2018-09-22T08:28:54Z</time>
   </trkpt>
   <trkpt lat="31.7452170" lon="35.1234070">
    <ele>570.1</ele>
    <time>2018-09-22T08:28:56Z</time>
   </trkpt>
   <trkpt lat="31.7452310" lon="35.1234360">
    <ele>570.3</ele>
    <time>2018-09-22T08:28:58Z</time>
   </trkpt>
   <trkpt lat="31.7452550" lon="35.1234750">
    <ele>570.6</ele>
    <time>2018-09-22T08:29:01Z</time>
   </trkpt>
   <trkpt lat="31.7452840" lon="35.1235070">
    <ele>570.8</ele>
    <time>2018-09-22T08:29:03Z</time>
   </trkpt>
   <trkpt lat="31.7453050" lon="35.1235400">
    <ele>570.9</ele>
    <time>2018-09-22T08:29:05Z</time>
   </trkpt>
   <trkpt lat="31.7453180" lon="35.1235720">
    <ele>571.0</ele>
    <time>2018-09-22T08:29:07Z</time>
   </trkpt>
   <trkpt lat="31.7453310" lon="35.1236130">
    <ele>571.1</ele>
    <time>2018-09-22T08:29:09Z</time>
   </trkpt>
   <trkpt lat="31.7453520" lon="35.1236370">
    <ele>571.1</ele>
    <time>2018-09-22T08:29:11Z</time>
   </trkpt>
   <trkpt lat="31.7453700" lon="35.1236780">
    <ele>571.2</ele>
    <time>2018-09-22T08:29:13Z</time>
   </trkpt>
   <trkpt lat="31.7453850" lon="35.1237160">
    <ele>571.3</ele>
    <time>2018-09-22T08:29:15Z</time>
   </trkpt>
   <trkpt lat="31.7453940" lon="35.1237560">
    <ele>571.5</ele>
    <time>2018-09-22T08:29:17Z</time>
   </trkpt>
   <trkpt lat="31.7454020" lon="35.1237900">
    <ele>571.7</ele>
    <time>2018-09-22T08:29:19Z</time>
   </trkpt>
   <trkpt lat="31.7454090" lon="35.1238430">
    <ele>572.0</ele>
    <time>2018-09-22T08:29:22Z</time>
   </trkpt>
   <trkpt lat="31.7454190" lon="35.1238750">
    <ele>572.2</ele>
    <time>2018-09-22T08:29:24Z</time>
   </trkpt>
   <trkpt lat="31.7454310" lon="35.1239130">
    <ele>572.4</ele>
    <time>2018-09-22T08:29:26Z</time>
   </trkpt>
   <trkpt lat="31.7454340" lon="35.1239470">
    <ele>572.5</ele>
    <time>2018-09-22T08:29:28Z</time>
   </trkpt>
   <trkpt lat="31.7454440" lon="35.1239850">
    <ele>572.6</ele>
    <time>2018-09-22T08:29:30Z</time>
   </trkpt>
   <trkpt lat="31.7454570" lon="35.1240200">
    <ele>572.7</ele>
    <time>2018-09-22T08:29:32Z</time>
   </trkpt>
   <trkpt lat="31.7454700" lon="35.1240500">
    <ele>572.8</ele>
    <time>2018-09-22T08:29:34Z</time>
   </trkpt>
   <trkpt lat="31.7454830" lon="35.1240840">
    <ele>572.8</ele>
    <time>2018-09-22T08:29:36Z</time>
   </trkpt>
   <trkpt lat="31.7454950" lon="35.1241200">
    <ele>572.9</ele>
    <time>2018-09-22T08:29:38Z</time>
   </trkpt>
   <trkpt lat="31.7455060" lon="35.1241600">
    <ele>573.2</ele>
    <time>2018-09-22T08:29:40Z</time>
   </trkpt>
   <trkpt lat="31.7455120" lon="35.1242010">
    <ele>573.4</ele>
    <time>2018-09-22T08:29:42Z</time>
   </trkpt>
   <trkpt lat="31.7455230" lon="35.1242320">
    <ele>573.6</ele>
    <time>2018-09-22T08:29:44Z</time>
   </trkpt>
   <trkpt lat="31.7455390" lon="35.1242770">
    <ele>573.9</ele>
    <time>2018-09-22T08:29:47Z</time>
   </trkpt>
   <trkpt lat="31.7455470" lon="35.1243080">
    <ele>574.1</ele>
    <time>2018-09-22T08:29:49Z</time>
   </trkpt>
   <trkpt lat="31.7455500" lon="35.1243480">
    <ele>574.3</ele>
    <time>2018-09-22T08:29:51Z</time>
   </trkpt>
   <trkpt lat="31.7455600" lon="35.1243830">
    <ele>574.4</ele>
    <time>2018-09-22T08:29:53Z</time>
   </trkpt>
   <trkpt lat="31.7455680" lon="35.1244220">
    <ele>574.5</ele>
    <time>2018-09-22T08:29:55Z</time>
   </trkpt>
   <trkpt lat="31.7455740" lon="35.1244580">
    <ele>574.6</ele>
    <time>2018-09-22T08:29:57Z</time>
   </trkpt>
   <trkpt lat="31.7455820" lon="35.1244920">
    <ele>574.7</ele>
    <time>2018-09-22T08:29:59Z</time>
   </trkpt>
   <trkpt lat="31.7455910" lon="35.1245210">
    <ele>574.7</ele>
    <time>2018-09-22T08:30:01Z</time>
   </trkpt>
   <trkpt lat="31.7456080" lon="35.1245580">
    <ele>574.8</ele>
    <time>2018-09-22T08:30:03Z</time>
   </trkpt>
   <trkpt lat="31.7456250" lon="35.1246020">
    <ele>575.0</ele>
    <time>2018-09-22T08:30:06Z</time>
   </trkpt>
   <trkpt lat="31.7456460" lon="35.1246400">
    <ele>575.2</ele>
    <time>2018-09-22T08:30:08Z</time>
   </trkpt>
   <trkpt lat="31.7456610" lon="35.1246780">
    <ele>575.4</ele>
    <time>2018-09-22T08:30:10Z</time>
   </trkpt>
   <trkpt lat="31.7456720" lon="35.1247130">
    <ele>575.6</ele>
    <time>2018-09-22T08:30:12Z</time>
   </trkpt>
   <trkpt lat="31.7456810" lon="35.1247470">
    <ele>575.8</ele>
    <time>2018-09-22T08:30:14Z</time>
   </trkpt>
   <trkpt lat="31.7456910" lon="35.1247800">
    <ele>575.9</ele>
    <time>2018-09-22T08:30:16Z</time>
   </trkpt>
   <trkpt lat="31.7457100" lon="35.1248090">
    <ele>576.1</ele>
    <time>2018-09-22T08:30:18Z</time>
   </trkpt>
   <trkpt lat="31.7457230" lon="35.1248400">
    <ele>576.2</ele>
    <time>2018-09-22T08:30:20Z</time>
   </trkpt>
   <trkpt lat="31.7457300" lon="35.1248780">
    <ele>576.3</ele>
    <time>2018-09-22T08:30:22Z</time>
   </trkpt>
   <trkpt lat="31.7457330" lon="35.1249180">
    <ele>576.4</ele>
    <time>2018-09-22T08:30:24Z</time>
   </trkpt>
   <trkpt lat="31.7457440" lon="35.1249590">
    <ele>576.5</ele>
    <time>2018-09-22T08:30:26Z</time>
   </trkpt>
   <trkpt lat="31.7457500" lon="35.1249940">
    <ele>576.6</ele>
    <time>2018-09-22T08:30:28Z</time>
   </trkpt>
   <trkpt lat="31.7457520" lon="35.1250370">
    <ele>576.8</ele>
    <time>2018-09-22T08:30:30Z</time>
   </trkpt>
   <trkpt lat="31.7457620" lon="35.1250700">
    <ele>577.1</ele>
    <time>2018-09-22T08:30:32Z</time>
   </trkpt>
   <trkpt lat="31.7457730" lon="35.1251060">
    <ele>577.4</ele>
    <time>2018-09-22T08:30:35Z</time>
   </trkpt>
   <trkpt lat="31.7457880" lon="35.1251420">
    <ele>577.7</ele>
    <time>2018-09-22T08:30:37Z</time>
   </trkpt>
   <trkpt lat="31.7457890" lon="35.1251800">
    <ele>578.0</ele>
    <time>2018-09-22T08:30:39Z</time>
   </trkpt>
   <trkpt lat="31.7457870" lon="35.1252150">
    <ele>578.3</ele>
    <time>2018-09-22T08:30:41Z</time>
   </trkpt>
   <trkpt lat="31.7458000" lon="35.1252490">
    <ele>578.6</ele>
    <time>2018-09-22T08:30:43Z</time>
   </trkpt>
   <trkpt lat="31.7458200" lon="35.1252800">
    <ele>579.0</ele>
    <time>2018-09-22T08:30:45Z</time>
   </trkpt>
   <trkpt lat="31.7458430" lon="35.1253160">
    <ele>579.3</ele>
    <time>2018-09-22T08:30:47Z</time>
   </trkpt>
   <trkpt lat="31.7458660" lon="35.1253440">
    <ele>579.6</ele>
    <time>2018-09-22T08:30:49Z</time>
   </trkpt>
   <trkpt lat="31.7458910" lon="35.1253680">
    <ele>579.8</ele>
    <time>2018-09-22T08:30:51Z</time>
   </trkpt>
   <trkpt lat="31.7459140" lon="35.1253970">
    <ele>580.0</ele>
    <time>2018-09-22T08:30:53Z</time>
   </trkpt>
   <trkpt lat="31.7459380" lon="35.1254240">
    <ele>580.3</ele>
    <time>2018-09-22T08:30:55Z</time>
   </trkpt>
   <trkpt lat="31.7459610" lon="35.1254530">
    <ele>580.5</ele>
    <time>2018-09-22T08:30:57Z</time>
   </trkpt>
   <trkpt lat="31.7459840" lon="35.1254800">
    <ele>580.8</ele>
    <time>2018-09-22T08:30:59Z</time>
   </trkpt>
   <trkpt lat="31.7460120" lon="35.1255170">
    <ele>581.0</ele>
    <time>2018-09-22T08:31:01Z</time>
   </trkpt>
   <trkpt lat="31.7460360" lon="35.1255500">
    <ele>581.2</ele>
    <time>2018-09-22T08:31:03Z</time>
   </trkpt>
   <trkpt lat="31.7460550" lon="35.1255810">
    <ele>581.3</ele>
    <time>2018-09-22T08:31:05Z</time>
   </trkpt>
   <trkpt lat="31.7460700" lon="35.1256120">
    <ele>581.4</ele>
    <time>2018-09-22T08:31:07Z</time>
   </trkpt>
   <trkpt lat="31.7460840" lon="35.1256590">
    <ele>581.5</ele>
    <time>2018-09-22T08:31:09Z</time>
   </trkpt>
   <trkpt lat="31.7460940" lon="35.1257140">
    <ele>581.7</ele>
    <time>2018-09-22T08:31:11Z</time>
   </trkpt>
   <trkpt lat="31.7461010" lon="35.1257530">
    <ele>581.9</ele>
    <time>2018-09-22T08:31:14Z</time>
   </trkpt>
   <trkpt lat="31.7461030" lon="35.1257990">
    <ele>582.1</ele>
    <time>2018-09-22T08:31:16Z</time>
   </trkpt>
   <trkpt lat="31.7460930" lon="35.1258500">
    <ele>582.5</ele>
    <time>2018-09-22T08:31:18Z</time>
   </trkpt>
   <trkpt lat="31.7460840" lon="35.1258930">
    <ele>582.8</ele>
    <time>2018-09-22T08:31:20Z</time>
   </trkpt>
   <trkpt lat="31.7460710" lon="35.1259280">
    <ele>583.0</ele>
    <time>2018-09-22T08:31:22Z</time>
   </trkpt>
   <trkpt lat="31.7460560" lon="35.1259670">
    <ele>583.2</ele>
    <time>2018-09-22T08:31:24Z</time>
   </trkpt>
   <trkpt lat="31.7460370" lon="35.1260080">
    <ele>583.4</ele>
    <time>2018-09-22T08:31:26Z</time>
   </trkpt>
   <trkpt lat="31.7460220" lon="35.1260560">
    <ele>583.7</ele>
    <time>2018-09-22T08:31:29Z</time>
   </trkpt>
   <trkpt lat="31.7460110" lon="35.1261010">
    <ele>584.1</ele>
    <time>2018-09-22T08:31:31Z</time>
   </trkpt>
   <trkpt lat="31.7460020" lon="35.1261350">
    <ele>584.3</ele>
    <time>2018-09-22T08:31:33Z</time>
   </trkpt>
   <trkpt lat="31.7459940" lon="35.1261710">
    <ele>584.5</ele>
    <time>2018-09-22T08:31:35Z</time>
   </trkpt>
   <trkpt lat="31.7459940" lon="35.1262090">
    <ele>584.7</ele>
    <time>2018-09-22T08:31:37Z</time>
   </trkpt>
   <trkpt lat="31.7459880" lon="35.1262460">
    <ele>584.9</ele>
    <time>2018-09-22T08:31:39Z</time>
   </trkpt>
   <trkpt lat="31.7459760" lon="35.1262860">
    <ele>585.0</ele>
    <time>2018-09-22T08:31:41Z</time>
   </trkpt>
   <trkpt lat="31.7459800" lon="35.1263280">
    <ele>585.0</ele>
    <time>2018-09-22T08:31:43Z</time>
   </trkpt>
   <trkpt lat="31.7459730" lon="35.1263730">
    <ele>585.1</ele>
    <time>2018-09-22T08:31:45Z</time>
   </trkpt>
   <trkpt lat="31.7459770" lon="35.1264100">
    <ele>585.2</ele>
    <time>2018-09-22T08:31:47Z</time>
   </trkpt>
   <trkpt lat="31.7459880" lon="35.1264500">
    <ele>585.3</ele>
    <time>2018-09-22T08:31:49Z</time>
   </trkpt>
   <trkpt lat="31.7459890" lon="35.1264970">
    <ele>585.4</ele>
    <time>2018-09-22T08:31:52Z</time>
   </trkpt>
   <trkpt lat="31.7459940" lon="35.1265340">
    <ele>585.5</ele>
    <time>2018-09-22T08:31:54Z</time>
   </trkpt>
   <trkpt lat="31.7460040" lon="35.1265720">
    <ele>585.7</ele>
    <time>2018-09-22T08:31:56Z</time>
   </trkpt>
   <trkpt lat="31.7460220" lon="35.1266180">
    <ele>585.9</ele>
    <time>2018-09-22T08:31:59Z</time>
   </trkpt>
   <trkpt lat="31.7460380" lon="35.1266460">
    <ele>586.1</ele>
    <time>2018-09-22T08:32:01Z</time>
   </trkpt>
   <trkpt lat="31.7460550" lon="35.1266760">
    <ele>586.3</ele>
    <time>2018-09-22T08:32:03Z</time>
   </trkpt>
   <trkpt lat="31.7460630" lon="35.1267100">
    <ele>586.5</ele>
    <time>2018-09-22T08:32:05Z</time>
   </trkpt>
   <trkpt lat="31.7460810" lon="35.1267430">
    <ele>586.6</ele>
    <time>2018-09-22T08:32:07Z</time>
   </trkpt>
   <trkpt lat="31.7461030" lon="35.1267740">
    <ele>586.7</ele>
    <time>2018-09-22T08:32:09Z</time>
   </trkpt>
   <trkpt lat="31.7461260" lon="35.1268020">
    <ele>586.8</ele>
    <time>2018-09-22T08:32:11Z</time>
   </trkpt>
   <trkpt lat="31.7461520" lon="35.1268260">
    <ele>586.9</ele>
    <time>2018-09-22T08:32:13Z</time>
   </trkpt>
   <trkpt lat="31.7461820" lon="35.1268500">
    <ele>587.0</ele>
    <time>2018-09-22T08:32:15Z</time>
   </trkpt>
   <trkpt lat="31.7462070" lon="35.1268670">
    <ele>587.1</ele>
    <time>2018-09-22T08:32:17Z</time>
   </trkpt>
   <trkpt lat="31.7462370" lon="35.1268920">
    <ele>587.4</ele>
    <time>2018-09-22T08:32:19Z</time>
   </trkpt>
   <trkpt lat="31.7462780" lon="35.1269150">
    <ele>587.7</ele>
    <time>2018-09-22T08:32:22Z</time>
   </trkpt>
   <trkpt lat="31.7463120" lon="35.1269390">
    <ele>587.9</ele>
    <time>2018-09-22T08:32:24Z</time>
   </trkpt>
   <trkpt lat="31.7463350" lon="35.1269630">
    <ele>588.1</ele>
    <time>2018-09-22T08:32:26Z</time>
   </trkpt>
   <trkpt lat="31.7463590" lon="35.1269800">
    <ele>588.3</ele>
    <time>2018-09-22T08:32:28Z</time>
   </trkpt>
   <trkpt lat="31.7463850" lon="35.1270020">
    <ele>588.4</ele>
    <time>2018-09-22T08:32:30Z</time>
   </trkpt>
   <trkpt lat="31.7464130" lon="35.1270200">
    <ele>588.5</ele>
    <time>2018-09-22T08:32:32Z</time>
   </trkpt>
   <trkpt lat="31.7464500" lon="35.1270350">
    <ele>588.7</ele>
    <time>2018-09-22T08:32:34Z</time>
   </trkpt>
   <trkpt lat="31.7464840" lon="35.1270620">
    <ele>589.0</ele>
    <time>2018-09-22T08:32:37Z</time>
   </trkpt>
   <trkpt lat="31.7465180" lon="35.1270850">
    <ele>589.3</ele>
    <time>2018-09-22T08:32:39Z</time>
   </trkpt>
   <trkpt lat="31.7465560" lon="35.1271200">
    <ele>589.6</ele>
    <time>2018-09-22T08:32:42Z</time>
   </trkpt>
   <trkpt lat="31.7465860" lon="35.1271330">
    <ele>589.8</ele>
    <time>2018-09-22T08:32:44Z</time>
   </trkpt>
   <trkpt lat="31.7466150" lon="35.1271510">
    <ele>590.0</ele>
    <time>2018-09-22T08:32:46Z</time>
   </trkpt>
   <trkpt lat="31.7466470" lon="35.1271700">
    <ele>590.1</ele>
    <time>2018-09-22T08:32:48Z</time>
   </trkpt>
   <trkpt lat="31.7466740" lon="35.1271840">
    <ele>590.2</ele>
    <time>2018-09-22T08:32:50Z</time>
   </trkpt>
   <trkpt lat="31.7467070" lon="35.1271950">
    <ele>590.3</ele>
    <time>2018-09-22T08:32:52Z</time>
   </trkpt>
   <trkpt lat="31.7467350" lon="35.1272210">
    <ele>590.4</ele>
    <time>2018-09-22T08:32:54Z</time>
   </trkpt>
   <trkpt lat="31.7467650" lon="35.1272390">
    <ele>590.4</ele>
    <time>2018-09-22T08:32:56Z</time>
   </trkpt>
   <trkpt lat="31.7467890" lon="35.1272550">
    <ele>590.5</ele>
    <time>2018-09-22T08:32:58Z</time>
   </trkpt>
   <trkpt lat="31.7468170" lon="35.1272810">
    <ele>590.6</ele>
    <time>2018-09-22T08:33:00Z</time>
   </trkpt>
   <trkpt lat="31.7468500" lon="35.1272930">
    <ele>590.8</ele>
    <time>2018-09-22T08:33:02Z</time>
   </trkpt>
   <trkpt lat="31.7468810" lon="35.1273190">
    <ele>591.0</ele>
    <time>2018-09-22T08:33:04Z</time>
   </trkpt>
   <trkpt lat="31.7469120" lon="35.1273470">
    <ele>591.3</ele>
    <time>2018-09-22T08:33:06Z</time>
   </trkpt>
   <trkpt lat="31.7469540" lon="35.1273730">
    <ele>591.6</ele>
    <time>2018-09-22T08:33:08Z</time>
   </trkpt>
   <trkpt lat="31.7469780" lon="35.1273870">
    <ele>591.7</ele>
    <time>2018-09-22T08:33:10Z</time>
   </trkpt>
   <trkpt lat="31.7470080" lon="35.1273940">
    <ele>591.9</ele>
    <time>2018-09-22T08:33:12Z</time>
   </trkpt>
   <trkpt lat="31.7470370" lon="35.1274060">
    <ele>592.1</ele>
    <time>2018-09-22T08:33:14Z</time>
   </trkpt>
   <trkpt lat="31.7470650" lon="35.1274090">
    <ele>592.2</ele>
    <time>2018-09-22T08:33:16Z</time>
   </trkpt>
   <trkpt lat="31.7470990" lon="35.1274310">
    <ele>592.4</ele>
    <time>2018-09-22T08:33:18Z</time>
   </trkpt>
   <trkpt lat="31.7471270" lon="35.1274570">
    <ele>592.6</ele>
    <time>2018-09-22T08:33:20Z</time>
   </trkpt>
   <trkpt lat="31.7471460" lon="35.1274890">
    <ele>592.8</ele>
    <time>2018-09-22T08:33:22Z</time>
   </trkpt>
   <trkpt lat="31.7471760" lon="35.1275060">
    <ele>593.1</ele>
    <time>2018-09-22T08:33:24Z</time>
   </trkpt>
   <trkpt lat="31.7472120" lon="35.1275290">
    <ele>593.4</ele>
    <time>2018-09-22T08:33:27Z</time>
   </trkpt>
   <trkpt lat="31.7472400" lon="35.1275520">
    <ele>593.6</ele>
    <time>2018-09-22T08:33:29Z</time>
   </trkpt>
   <trkpt lat="31.7472650" lon="35.1275790">
    <ele>593.8</ele>
    <time>2018-09-22T08:33:31Z</time>
   </trkpt>
   <trkpt lat="31.7472890" lon="35.1276140">
    <ele>594.0</ele>
    <time>2018-09-22T08:33:33Z</time>
   </trkpt>
   <trkpt lat="31.7473280" lon="35.1276670">
    <ele>594.3</ele>
    <time>2018-09-22T08:33:35Z</time>
   </trkpt>
   <trkpt lat="31.7473400" lon="35.1276960">
    <ele>594.4</ele>
    <time>2018-09-22T08:33:36Z</time>
   </trkpt>
   <trkpt lat="31.7473630" lon="35.1277460">
    <ele>594.8</ele>
    <time>2018-09-22T08:33:38Z</time>
   </trkpt>
   <trkpt lat="31.7473750" lon="35.1277770">
    <ele>595.0</ele>
    <time>2018-09-22T08:33:41Z</time>
   </trkpt>
   <trkpt lat="31.7473680" lon="35.1278230">
    <ele>595.6</ele>
    <time>2018-09-22T08:33:44Z</time>
   </trkpt>
   <trkpt lat="31.7473400" lon="35.1278610">
    <ele>596.2</ele>
    <time>2018-09-22T08:33:46Z</time>
   </trkpt>
   <trkpt lat="31.7473210" lon="35.1278910">
    <ele>596.6</ele>
    <time>2018-09-22T08:33:48Z</time>
   </trkpt>
   <trkpt lat="31.7473030" lon="35.1279250">
    <ele>597.0</ele>
    <time>2018-09-22T08:33:50Z</time>
   </trkpt>
   <trkpt lat="31.7472860" lon="35.1279540">
    <ele>597.4</ele>
    <time>2018-09-22T08:33:52Z</time>
   </trkpt>
   <trkpt lat="31.7472700" lon="35.1279830">
    <ele>597.8</ele>
    <time>2018-09-22T08:33:54Z</time>
   </trkpt>
   <trkpt lat="31.7472560" lon="35.1280150">
    <ele>598.0</ele>
    <time>2018-09-22T08:33:56Z</time>
   </trkpt>
   <trkpt lat="31.7472420" lon="35.1280510">
    <ele>598.3</ele>
    <time>2018-09-22T08:33:58Z</time>
   </trkpt>
   <trkpt lat="31.7472290" lon="35.1280820">
    <ele>598.6</ele>
    <time>2018-09-22T08:34:00Z</time>
   </trkpt>
   <trkpt lat="31.7472260" lon="35.1281180">
    <ele>598.9</ele>
    <time>2018-09-22T08:34:02Z</time>
   </trkpt>
   <trkpt lat="31.7472240" lon="35.1281550">
    <ele>599.3</ele>
    <time>2018-09-22T08:34:04Z</time>
   </trkpt>
   <trkpt lat="31.7472120" lon="35.1281900">
    <ele>599.7</ele>
    <time>2018-09-22T08:34:06Z</time>
   </trkpt>
   <trkpt lat="31.7471950" lon="35.1282270">
    <ele>600.1</ele>
    <time>2018-09-22T08:34:08Z</time>
   </trkpt>
   <trkpt lat="31.7471850" lon="35.1282640">
    <ele>600.5</ele>
    <time>2018-09-22T08:34:10Z</time>
   </trkpt>
   <trkpt lat="31.7471730" lon="35.1283080">
    <ele>600.8</ele>
    <time>2018-09-22T08:34:13Z</time>
   </trkpt>
   <trkpt lat="31.7471740" lon="35.1283490">
    <ele>601.1</ele>
    <time>2018-09-22T08:34:15Z</time>
   </trkpt>
   <trkpt lat="31.7471780" lon="35.1283900">
    <ele>601.6</ele>
    <time>2018-09-22T08:34:17Z</time>
   </trkpt>
   <trkpt lat="31.7471750" lon="35.1284380">
    <ele>602.0</ele>
    <time>2018-09-22T08:34:20Z</time>
   </trkpt>
   <trkpt lat="31.7471710" lon="35.1284710">
    <ele>602.4</ele>
    <time>2018-09-22T08:34:22Z</time>
   </trkpt>
   <trkpt lat="31.7471670" lon="35.1285070">
    <ele>602.7</ele>
    <time>2018-09-22T08:34:24Z</time>
   </trkpt>
   <trkpt lat="31.7471750" lon="35.1285390">
    <ele>603.0</ele>
    <time>2018-09-22T08:34:26Z</time>
   </trkpt>
   <trkpt lat="31.7471760" lon="35.1285740">
    <ele>603.3</ele>
    <time>2018-09-22T08:34:28Z</time>
   </trkpt>
   <trkpt lat="31.7471880" lon="35.1286160">
    <ele>603.7</ele>
    <time>2018-09-22T08:34:30Z</time>
   </trkpt>
   <trkpt lat="31.7472010" lon="35.1286540">
    <ele>603.9</ele>
    <time>2018-09-22T08:34:32Z</time>
   </trkpt>
   <trkpt lat="31.7471960" lon="35.1287040">
    <ele>604.3</ele>
    <time>2018-09-22T08:34:35Z</time>
   </trkpt>
   <trkpt lat="31.7472070" lon="35.1287440">
    <ele>604.7</ele>
    <time>2018-09-22T08:34:37Z</time>
   </trkpt>
   <trkpt lat="31.7472130" lon="35.1287940">
    <ele>605.3</ele>
    <time>2018-09-22T08:34:39Z</time>
   </trkpt>
   <trkpt lat="31.7472220" lon="35.1288290">
    <ele>605.6</ele>
    <time>2018-09-22T08:34:42Z</time>
   </trkpt>
   <trkpt lat="31.7472400" lon="35.1288600">
    <ele>606.0</ele>
    <time>2018-09-22T08:34:44Z</time>
   </trkpt>
   <trkpt lat="31.7472390" lon="35.1289030">
    <ele>606.3</ele>
    <time>2018-09-22T08:34:46Z</time>
   </trkpt>
   <trkpt lat="31.7472370" lon="35.1289400">
    <ele>606.5</ele>
    <time>2018-09-22T08:34:48Z</time>
   </trkpt>
   <trkpt lat="31.7472310" lon="35.1289730">
    <ele>606.8</ele>
    <time>2018-09-22T08:34:50Z</time>
   </trkpt>
   <trkpt lat="31.7472200" lon="35.1290160">
    <ele>607.2</ele>
    <time>2018-09-22T08:34:52Z</time>
   </trkpt>
   <trkpt lat="31.7472110" lon="35.1290650">
    <ele>607.7</ele>
    <time>2018-09-22T08:34:54Z</time>
   </trkpt>
   <trkpt lat="31.7472020" lon="35.1291020">
    <ele>608.0</ele>
    <time>2018-09-22T08:34:56Z</time>
   </trkpt>
   <trkpt lat="31.7471900" lon="35.1291450">
    <ele>608.4</ele>
    <time>2018-09-22T08:34:58Z</time>
   </trkpt>
   <trkpt lat="31.7471730" lon="35.1291790">
    <ele>608.7</ele>
    <time>2018-09-22T08:35:00Z</time>
   </trkpt>
   <trkpt lat="31.7471550" lon="35.1292110">
    <ele>609.0</ele>
    <time>2018-09-22T08:35:02Z</time>
   </trkpt>
   <trkpt lat="31.7471390" lon="35.1292400">
    <ele>609.4</ele>
    <time>2018-09-22T08:35:04Z</time>
   </trkpt>
   <trkpt lat="31.7471160" lon="35.1292590">
    <ele>609.7</ele>
    <time>2018-09-22T08:35:06Z</time>
   </trkpt>
   <trkpt lat="31.7470960" lon="35.1292910">
    <ele>610.1</ele>
    <time>2018-09-22T08:35:08Z</time>
   </trkpt>
   <trkpt lat="31.7470630" lon="35.1293150">
    <ele>610.6</ele>
    <time>2018-09-22T08:35:11Z</time>
   </trkpt>
   <trkpt lat="31.7470230" lon="35.1293300">
    <ele>611.1</ele>
    <time>2018-09-22T08:35:14Z</time>
   </trkpt>
   <trkpt lat="31.7469890" lon="35.1293270">
    <ele>611.5</ele>
    <time>2018-09-22T08:35:16Z</time>
   </trkpt>
   <trkpt lat="31.7469540" lon="35.1293310">
    <ele>611.7</ele>
    <time>2018-09-22T08:35:18Z</time>
   </trkpt>
   <trkpt lat="31.7469210" lon="35.1293350">
    <ele>611.9</ele>
    <time>2018-09-22T08:35:20Z</time>
   </trkpt>
   <trkpt lat="31.7468830" lon="35.1293380">
    <ele>612.2</ele>
    <time>2018-09-22T08:35:22Z</time>
   </trkpt>
   <trkpt lat="31.7468520" lon="35.1293450">
    <ele>612.5</ele>
    <time>2018-09-22T08:35:24Z</time>
   </trkpt>
   <trkpt lat="31.7468210" lon="35.1293570">
    <ele>612.8</ele>
    <time>2018-09-22T08:35:26Z</time>
   </trkpt>
   <trkpt lat="31.7467790" lon="35.1293670">
    <ele>613.3</ele>
    <time>2018-09-22T08:35:29Z</time>
   </trkpt>
   <trkpt lat="31.7467380" lon="35.1293630">
    <ele>613.8</ele>
    <time>2018-09-22T08:35:31Z</time>
   </trkpt>
   <trkpt lat="31.7466880" lon="35.1293760">
    <ele>614.2</ele>
    <time>2018-09-22T08:35:33Z</time>
   </trkpt>
   <trkpt lat="31.7466540" lon="35.1293790">
    <ele>614.4</ele>
    <time>2018-09-22T08:35:35Z</time>
   </trkpt>
   <trkpt lat="31.7466110" lon="35.1293850">
    <ele>614.6</ele>
    <time>2018-09-22T08:35:38Z</time>
   </trkpt>
   <trkpt lat="31.7465830" lon="35.1293940">
    <ele>614.8</ele>
    <time>2018-09-22T08:35:40Z</time>
   </trkpt>
   <trkpt lat="31.7465500" lon="35.1294080">
    <ele>615.0</ele>
    <time>2018-09-22T08:35:42Z</time>
   </trkpt>
   <trkpt lat="31.7465170" lon="35.1294250">
    <ele>615.3</ele>
    <time>2018-09-22T08:35:45Z</time>
   </trkpt>
   <trkpt lat="31.7464780" lon="35.1294280">
    <ele>615.8</ele>
    <time>2018-09-22T08:35:47Z</time>
   </trkpt>
   <trkpt lat="31.7464410" lon="35.1294410">
    <ele>616.2</ele>
    <time>2018-09-22T08:35:49Z</time>
   </trkpt>
   <trkpt lat="31.7464090" lon="35.1294550">
    <ele>616.5</ele>
    <time>2018-09-22T08:35:51Z</time>
   </trkpt>
   <trkpt lat="31.7463770" lon="35.1294720">
    <ele>616.8</ele>
    <time>2018-09-22T08:35:53Z</time>
   </trkpt>
   <trkpt lat="31.7463480" lon="35.1294810">
    <ele>617.0</ele>
    <time>2018-09-22T08:35:54Z</time>
   </trkpt>
   <trkpt lat="31.7463120" lon="35.1295000">
    <ele>617.3</ele>
    <time>2018-09-22T08:35:57Z</time>
   </trkpt>
   <trkpt lat="31.7462820" lon="35.1295200">
    <ele>617.7</ele>
    <time>2018-09-22T08:35:59Z</time>
   </trkpt>
   <trkpt lat="31.7462540" lon="35.1295340">
    <ele>618.1</ele>
    <time>2018-09-22T08:36:01Z</time>
   </trkpt>
   <trkpt lat="31.7462230" lon="35.1295470">
    <ele>618.4</ele>
    <time>2018-09-22T08:36:03Z</time>
   </trkpt>
   <trkpt lat="31.7461870" lon="35.1295650">
    <ele>618.8</ele>
    <time>2018-09-22T08:36:05Z</time>
   </trkpt>
   <trkpt lat="31.7461490" lon="35.1295760">
    <ele>619.1</ele>
    <time>2018-09-22T08:36:07Z</time>
   </trkpt>
   <trkpt lat="31.7461190" lon="35.1295890">
    <ele>619.3</ele>
    <time>2018-09-22T08:36:09Z</time>
   </trkpt>
   <trkpt lat="31.7460860" lon="35.1296100">
    <ele>619.4</ele>
    <time>2018-09-22T08:36:11Z</time>
   </trkpt>
   <trkpt lat="31.7460590" lon="35.1296270">
    <ele>619.5</ele>
    <time>2018-09-22T08:36:13Z</time>
   </trkpt>
   <trkpt lat="31.7460230" lon="35.1296440">
    <ele>619.6</ele>
    <time>2018-09-22T08:36:15Z</time>
   </trkpt>
   <trkpt lat="31.7459910" lon="35.1296610">
    <ele>619.7</ele>
    <time>2018-09-22T08:36:17Z</time>
   </trkpt>
   <trkpt lat="31.7459660" lon="35.1296810">
    <ele>619.8</ele>
    <time>2018-09-22T08:36:19Z</time>
   </trkpt>
   <trkpt lat="31.7459420" lon="35.1297030">
    <ele>620.0</ele>
    <time>2018-09-22T08:36:21Z</time>
   </trkpt>
   <trkpt lat="31.7459150" lon="35.1297410">
    <ele>620.2</ele>
    <time>2018-09-22T08:36:23Z</time>
   </trkpt>
   <trkpt lat="31.7458900" lon="35.1297690">
    <ele>620.5</ele>
    <time>2018-09-22T08:36:25Z</time>
   </trkpt>
   <trkpt lat="31.7458530" lon="35.1297820">
    <ele>620.9</ele>
    <time>2018-09-22T08:36:27Z</time>
   </trkpt>
   <trkpt lat="31.7458250" lon="35.1298030">
    <ele>621.2</ele>
    <time>2018-09-22T08:36:29Z</time>
   </trkpt>
   <trkpt lat="31.7457900" lon="35.1298190">
    <ele>621.6</ele>
    <time>2018-09-22T08:36:31Z</time>
   </trkpt>
   <trkpt lat="31.7457530" lon="35.1298480">
    <ele>621.9</ele>
    <time>2018-09-22T08:36:33Z</time>
   </trkpt>
   <trkpt lat="31.7457260" lon="35.1298730">
    <ele>622.2</ele>
    <time>2018-09-22T08:36:35Z</time>
   </trkpt>
   <trkpt lat="31.7456950" lon="35.1298870">
    <ele>622.5</ele>
    <time>2018-09-22T08:36:37Z</time>
   </trkpt>
   <trkpt lat="31.7456550" lon="35.1298850">
    <ele>622.9</ele>
    <time>2018-09-22T08:36:39Z</time>
   </trkpt>
   <trkpt lat="31.7456210" lon="35.1298860">
    <ele>623.4</ele>
    <time>2018-09-22T08:36:41Z</time>
   </trkpt>
   <trkpt lat="31.7455870" lon="35.1298940">
    <ele>623.9</ele>
    <time>2018-09-22T08:36:43Z</time>
   </trkpt>
   <trkpt lat="31.7455600" lon="35.1298840">
    <ele>624.3</ele>
    <time>2018-09-22T08:36:45Z</time>
   </trkpt>
   <trkpt lat="31.7455270" lon="35.1298770">
    <ele>624.6</ele>
    <time>2018-09-22T08:36:48Z</time>
   </trkpt>
   <trkpt lat="31.7454990" lon="35.1298690">
    <ele>624.9</ele>
    <time>2018-09-22T08:36:50Z</time>
   </trkpt>
   <trkpt lat="31.7454660" lon="35.1298710">
    <ele>625.2</ele>
    <time>2018-09-22T08:36:52Z</time>
   </trkpt>
   <trkpt lat="31.7454330" lon="35.1298650">
    <ele>625.7</ele>
    <time>2018-09-22T08:36:54Z</time>
   </trkpt>
   <trkpt lat="31.7453960" lon="35.1298660">
    <ele>626.2</ele>
    <time>2018-09-22T08:36:56Z</time>
   </trkpt>
   <trkpt lat="31.7453630" lon="35.1298670">
    <ele>626.6</ele>
    <time>2018-09-22T08:36:58Z</time>
   </trkpt>
   <trkpt lat="31.7453320" lon="35.1298730">
    <ele>626.8</ele>
    <time>2018-09-22T08:37:00Z</time>
   </trkpt>
   <trkpt lat="31.7453010" lon="35.1298800">
    <ele>627.0</ele>
    <time>2018-09-22T08:37:02Z</time>
   </trkpt>
   <trkpt lat="31.7452760" lon="35.1298940">
    <ele>627.2</ele>
    <time>2018-09-22T08:37:04Z</time>
   </trkpt>
   <trkpt lat="31.7452370" lon="35.1298970">
    <ele>627.4</ele>
    <time>2018-09-22T08:37:07Z</time>
   </trkpt>
   <trkpt lat="31.7451950" lon="35.1299000">
    <ele>627.9</ele>
    <time>2018-09-22T08:37:10Z</time>
   </trkpt>
   <trkpt lat="31.7451650" lon="35.1299120">
    <ele>628.3</ele>
    <time>2018-09-22T08:37:12Z</time>
   </trkpt>
   <trkpt lat="31.7451320" lon="35.1299100">
    <ele>628.7</ele>
    <time>2018-09-22T08:37:14Z</time>
   </trkpt>
   <trkpt lat="31.7451010" lon="35.1299170">
    <ele>629.0</ele>
    <time>2018-09-22T08:37:16Z</time>
   </trkpt>
   <trkpt lat="31.7450730" lon="35.1299230">
    <ele>629.3</ele>
    <time>2018-09-22T08:37:18Z</time>
   </trkpt>
   <trkpt lat="31.7450440" lon="35.1299370">
    <ele>629.5</ele>
    <time>2018-09-22T08:37:20Z</time>
   </trkpt>
   <trkpt lat="31.7450160" lon="35.1299470">
    <ele>629.6</ele>
    <time>2018-09-22T08:37:22Z</time>
   </trkpt>
   <trkpt lat="31.7449860" lon="35.1299530">
    <ele>629.8</ele>
    <time>2018-09-22T08:37:24Z</time>
   </trkpt>
   <trkpt lat="31.7449480" lon="35.1299690">
    <ele>629.9</ele>
    <time>2018-09-22T08:37:27Z</time>
   </trkpt>
   <trkpt lat="31.7449220" lon="35.1299800">
    <ele>630.1</ele>
    <time>2018-09-22T08:37:29Z</time>
   </trkpt>
   <trkpt lat="31.7448870" lon="35.1299880">
    <ele>630.2</ele>
    <time>2018-09-22T08:37:31Z</time>
   </trkpt>
   <trkpt lat="31.7448540" lon="35.1299970">
    <ele>630.4</ele>
    <time>2018-09-22T08:37:33Z</time>
   </trkpt>
   <trkpt lat="31.7448230" lon="35.1300070">
    <ele>630.5</ele>
    <time>2018-09-22T08:37:35Z</time>
   </trkpt>
   <trkpt lat="31.7447890" lon="35.1300220">
    <ele>630.9</ele>
    <time>2018-09-22T08:37:37Z</time>
   </trkpt>
   <trkpt lat="31.7447560" lon="35.1300400">
    <ele>631.2</ele>
    <time>2018-09-22T08:37:39Z</time>
   </trkpt>
   <trkpt lat="31.7447160" lon="35.1300500">
    <ele>631.6</ele>
    <time>2018-09-22T08:37:41Z</time>
   </trkpt>
   <trkpt lat="31.7446820" lon="35.1300690">
    <ele>632.0</ele>
    <time>2018-09-22T08:37:43Z</time>
   </trkpt>
   <trkpt lat="31.7446580" lon="35.1300870">
    <ele>632.1</ele>
    <time>2018-09-22T08:37:45Z</time>
   </trkpt>
   <trkpt lat="31.7446280" lon="35.1301030">
    <ele>632.2</ele>
    <time>2018-09-22T08:37:47Z</time>
   </trkpt>
   <trkpt lat="31.7446030" lon="35.1301150">
    <ele>632.3</ele>
    <time>2018-09-22T08:37:49Z</time>
   </trkpt>
   <trkpt lat="31.7445720" lon="35.1301250">
    <ele>632.4</ele>
    <time>2018-09-22T08:37:51Z</time>
   </trkpt>
   <trkpt lat="31.7445450" lon="35.1301340">
    <ele>632.5</ele>
    <time>2018-09-22T08:37:53Z</time>
   </trkpt>
   <trkpt lat="31.7445130" lon="35.1301540">
    <ele>632.7</ele>
    <time>2018-09-22T08:37:55Z</time>
   </trkpt>
   <trkpt lat="31.7444790" lon="35.1301620">
    <ele>632.8</ele>
    <time>2018-09-22T08:37:57Z</time>
   </trkpt>
   <trkpt lat="31.7444410" lon="35.1301850">
    <ele>633.0</ele>
    <time>2018-09-22T08:37:59Z</time>
   </trkpt>
   <trkpt lat="31.7444150" lon="35.1302050">
    <ele>633.3</ele>
    <time>2018-09-22T08:38:00Z</time>
   </trkpt>
   <trkpt lat="31.7443900" lon="35.1302310">
    <ele>633.7</ele>
    <time>2018-09-22T08:38:01Z</time>
   </trkpt>
   <trkpt lat="31.7443480" lon="35.1302560">
    <ele>634.2</ele>
    <time>2018-09-22T08:38:03Z</time>
   </trkpt>
   <trkpt lat="31.7443110" lon="35.1302720">
    <ele>634.6</ele>
    <time>2018-09-22T08:38:06Z</time>
   </trkpt>
   <trkpt lat="31.7442780" lon="35.1302900">
    <ele>634.8</ele>
    <time>2018-09-22T08:38:08Z</time>
   </trkpt>
   <trkpt lat="31.7442460" lon="35.1303000">
    <ele>634.9</ele>
    <time>2018-09-22T08:38:10Z</time>
   </trkpt>
   <trkpt lat="31.7442020" lon="35.1303260">
    <ele>635.2</ele>
    <time>2018-09-22T08:38:12Z</time>
   </trkpt>
   <trkpt lat="31.7441730" lon="35.1303440">
    <ele>635.3</ele>
    <time>2018-09-22T08:38:14Z</time>
   </trkpt>
   <trkpt lat="31.7441440" lon="35.1303610">
    <ele>635.5</ele>
    <time>2018-09-22T08:38:16Z</time>
   </trkpt>
   <trkpt lat="31.7441140" lon="35.1303840">
    <ele>635.9</ele>
    <time>2018-09-22T08:38:18Z</time>
   </trkpt>
   <trkpt lat="31.7440830" lon="35.1303990">
    <ele>636.2</ele>
    <time>2018-09-22T08:38:20Z</time>
   </trkpt>
   <trkpt lat="31.7440560" lon="35.1304240">
    <ele>636.6</ele>
    <time>2018-09-22T08:38:22Z</time>
   </trkpt>
   <trkpt lat="31.7440300" lon="35.1304520">
    <ele>636.9</ele>
    <time>2018-09-22T08:38:24Z</time>
   </trkpt>
   <trkpt lat="31.7440060" lon="35.1304830">
    <ele>637.2</ele>
    <time>2018-09-22T08:38:26Z</time>
   </trkpt>
   <trkpt lat="31.7439870" lon="35.1305130">
    <ele>637.4</ele>
    <time>2018-09-22T08:38:28Z</time>
   </trkpt>
   <trkpt lat="31.7439570" lon="35.1305490">
    <ele>637.6</ele>
    <time>2018-09-22T08:38:30Z</time>
   </trkpt>
   <trkpt lat="31.7439350" lon="35.1305730">
    <ele>637.8</ele>
    <time>2018-09-22T08:38:32Z</time>
   </trkpt>
   <trkpt lat="31.7439100" lon="35.1305880">
    <ele>638.0</ele>
    <time>2018-09-22T08:38:34Z</time>
   </trkpt>
   <trkpt lat="31.7438850" lon="35.1306180">
    <ele>638.3</ele>
    <time>2018-09-22T08:38:36Z</time>
   </trkpt>
   <trkpt lat="31.7438590" lon="35.1306460">
    <ele>638.6</ele>
    <time>2018-09-22T08:38:38Z</time>
   </trkpt>
   <trkpt lat="31.7438370" lon="35.1306740">
    <ele>638.9</ele>
    <time>2018-09-22T08:38:40Z</time>
   </trkpt>
   <trkpt lat="31.7438120" lon="35.1307090">
    <ele>639.3</ele>
    <time>2018-09-22T08:38:42Z</time>
   </trkpt>
   <trkpt lat="31.7437890" lon="35.1307390">
    <ele>639.6</ele>
    <time>2018-09-22T08:38:44Z</time>
   </trkpt>
   <trkpt lat="31.7437580" lon="35.1307660">
    <ele>639.8</ele>
    <time>2018-09-22T08:38:46Z</time>
   </trkpt>
   <trkpt lat="31.7437370" lon="35.1307960">
    <ele>640.0</ele>
    <time>2018-09-22T08:38:48Z</time>
   </trkpt>
   <trkpt lat="31.7437180" lon="35.1308330">
    <ele>640.1</ele>
    <time>2018-09-22T08:38:50Z</time>
   </trkpt>
   <trkpt lat="31.7437020" lon="35.1308680">
    <ele>640.2</ele>
    <time>2018-09-22T08:38:52Z</time>
   </trkpt>
   <trkpt lat="31.7436890" lon="35.1309160">
    <ele>640.3</ele>
    <time>2018-09-22T08:38:54Z</time>
   </trkpt>
   <trkpt lat="31.7436780" lon="35.1309550">
    <ele>640.5</ele>
    <time>2018-09-22T08:38:56Z</time>
   </trkpt>
   <trkpt lat="31.7436600" lon="35.1309820">
    <ele>640.6</ele>
    <time>2018-09-22T08:38:58Z</time>
   </trkpt>
   <trkpt lat="31.7436430" lon="35.1310200">
    <ele>640.9</ele>
    <time>2018-09-22T08:39:00Z</time>
   </trkpt>
   <trkpt lat="31.7436210" lon="35.1310570">
    <ele>641.3</ele>
    <time>2018-09-22T08:39:02Z</time>
   </trkpt>
   <trkpt lat="31.7436050" lon="35.1310860">
    <ele>641.5</ele>
    <time>2018-09-22T08:39:04Z</time>
   </trkpt>
   <trkpt lat="31.7435920" lon="35.1311240">
    <ele>641.8</ele>
    <time>2018-09-22T08:39:06Z</time>
   </trkpt>
   <trkpt lat="31.7435790" lon="35.1311630">
    <ele>642.0</ele>
    <time>2018-09-22T08:39:08Z</time>
   </trkpt>
   <trkpt lat="31.7435710" lon="35.1312020">
    <ele>642.2</ele>
    <time>2018-09-22T08:39:10Z</time>
   </trkpt>
   <trkpt lat="31.7435570" lon="35.1312470">
    <ele>642.4</ele>
    <time>2018-09-22T08:39:12Z</time>
   </trkpt>
   <trkpt lat="31.7435390" lon="35.1312840">
    <ele>642.6</ele>
    <time>2018-09-22T08:39:14Z</time>
   </trkpt>
   <trkpt lat="31.7435380" lon="35.1313300">
    <ele>642.8</ele>
    <time>2018-09-22T08:39:16Z</time>
   </trkpt>
   <trkpt lat="31.7435260" lon="35.1313590">
    <ele>642.9</ele>
    <time>2018-09-22T08:39:18Z</time>
   </trkpt>
   <trkpt lat="31.7435150" lon="35.1313950">
    <ele>643.1</ele>
    <time>2018-09-22T08:39:20Z</time>
   </trkpt>
   <trkpt lat="31.7435020" lon="35.1314430">
    <ele>643.3</ele>
    <time>2018-09-22T08:39:22Z</time>
   </trkpt>
   <trkpt lat="31.7434990" lon="35.1314790">
    <ele>643.6</ele>
    <time>2018-09-22T08:39:24Z</time>
   </trkpt>
   <trkpt lat="31.7434890" lon="35.1315200">
    <ele>644.0</ele>
    <time>2018-09-22T08:39:26Z</time>
   </trkpt>
   <trkpt lat="31.7434810" lon="35.1315560">
    <ele>644.3</ele>
    <time>2018-09-22T08:39:28Z</time>
   </trkpt>
   <trkpt lat="31.7434760" lon="35.1315960">
    <ele>644.6</ele>
    <time>2018-09-22T08:39:30Z</time>
   </trkpt>
   <trkpt lat="31.7434650" lon="35.1316360">
    <ele>645.0</ele>
    <time>2018-09-22T08:39:32Z</time>
   </trkpt>
   <trkpt lat="31.7434590" lon="35.1316690">
    <ele>645.2</ele>
    <time>2018-09-22T08:39:34Z</time>
   </trkpt>
   <trkpt lat="31.7434550" lon="35.1317060">
    <ele>645.3</ele>
    <time>2018-09-22T08:39:36Z</time>
   </trkpt>
   <trkpt lat="31.7434500" lon="35.1317420">
    <ele>645.4</ele>
    <time>2018-09-22T08:39:38Z</time>
   </trkpt>
   <trkpt lat="31.7434440" lon="35.1317770">
    <ele>645.5</ele>
    <time>2018-09-22T08:39:40Z</time>
   </trkpt>
   <trkpt lat="31.7434340" lon="35.1318070">
    <ele>645.7</ele>
    <time>2018-09-22T08:39:42Z</time>
   </trkpt>
   <trkpt lat="31.7434320" lon="35.1318400">
    <ele>645.8</ele>
    <time>2018-09-22T08:39:44Z</time>
   </trkpt>
   <trkpt lat="31.7434230" lon="35.1318790">
    <ele>645.9</ele>
    <time>2018-09-22T08:39:46Z</time>
   </trkpt>
   <trkpt lat="31.7434220" lon="35.1319250">
    <ele>646.2</ele>
    <time>2018-09-22T08:39:48Z</time>
   </trkpt>
   <trkpt lat="31.7434160" lon="35.1319660">
    <ele>646.6</ele>
    <time>2018-09-22T08:39:50Z</time>
   </trkpt>
   <trkpt lat="31.7434080" lon="35.1320020">
    <ele>646.9</ele>
    <time>2018-09-22T08:39:52Z</time>
   </trkpt>
   <trkpt lat="31.7434090" lon="35.1320440">
    <ele>647.4</ele>
    <time>2018-09-22T08:39:54Z</time>
   </trkpt>
   <trkpt lat="31.7434110" lon="35.1320910">
    <ele>647.8</ele>
    <time>2018-09-22T08:39:56Z</time>
   </trkpt>
   <trkpt lat="31.7434070" lon="35.1321300">
    <ele>648.0</ele>
    <time>2018-09-22T08:39:58Z</time>
   </trkpt>
   <trkpt lat="31.7434100" lon="35.1321780">
    <ele>648.3</ele>
    <time>2018-09-22T08:40:00Z</time>
   </trkpt>
   <trkpt lat="31.7434110" lon="35.1322160">
    <ele>648.7</ele>
    <time>2018-09-22T08:40:02Z</time>
   </trkpt>
   <trkpt lat="31.7434150" lon="35.1322580">
    <ele>649.1</ele>
    <time>2018-09-22T08:40:04Z</time>
   </trkpt>
   <trkpt lat="31.7434180" lon="35.1322980">
    <ele>649.5</ele>
    <time>2018-09-22T08:40:06Z</time>
   </trkpt>
   <trkpt lat="31.7434190" lon="35.1323420">
    <ele>649.8</ele>
    <time>2018-09-22T08:40:08Z</time>
   </trkpt>
   <trkpt lat="31.7434190" lon="35.1323770">
    <ele>650.0</ele>
    <time>2018-09-22T08:40:10Z</time>
   </trkpt>
   <trkpt lat="31.7434140" lon="35.1324200">
    <ele>650.2</ele>
    <time>2018-09-22T08:40:12Z</time>
   </trkpt>
   <trkpt lat="31.7434180" lon="35.1324630">
    <ele>650.3</ele>
    <time>2018-09-22T08:40:14Z</time>
   </trkpt>
   <trkpt lat="31.7434230" lon="35.1325020">
    <ele>650.5</ele>
    <time>2018-09-22T08:40:16Z</time>
   </trkpt>
   <trkpt lat="31.7434250" lon="35.1325430">
    <ele>650.6</ele>
    <time>2018-09-22T08:40:18Z</time>
   </trkpt>
   <trkpt lat="31.7434230" lon="35.1325790">
    <ele>650.7</ele>
    <time>2018-09-22T08:40:20Z</time>
   </trkpt>
   <trkpt lat="31.7434300" lon="35.1326130">
    <ele>650.9</ele>
    <time>2018-09-22T08:40:22Z</time>
   </trkpt>
   <trkpt lat="31.7434400" lon="35.1326650">
    <ele>651.3</ele>
    <time>2018-09-22T08:40:24Z</time>
   </trkpt>
   <trkpt lat="31.7434510" lon="35.1327100">
    <ele>651.7</ele>
    <time>2018-09-22T08:40:26Z</time>
   </trkpt>
   <trkpt lat="31.7434570" lon="35.1327510">
    <ele>652.0</ele>
    <time>2018-09-22T08:40:28Z</time>
   </trkpt>
   <trkpt lat="31.7434780" lon="35.1327990">
    <ele>652.5</ele>
    <time>2018-09-22T08:40:30Z</time>
   </trkpt>
   <trkpt lat="31.7434860" lon="35.1328520">
    <ele>652.9</ele>
    <time>2018-09-22T08:40:32Z</time>
   </trkpt>
   <trkpt lat="31.7435060" lon="35.1328940">
    <ele>653.1</ele>
    <time>2018-09-22T08:40:34Z</time>
   </trkpt>
   <trkpt lat="31.7435160" lon="35.1329240">
    <ele>653.3</ele>
    <time>2018-09-22T08:40:36Z</time>
   </trkpt>
   <trkpt lat="31.7435150" lon="35.1329780">
    <ele>653.5</ele>
    <time>2018-09-22T08:40:38Z</time>
   </trkpt>
   <trkpt lat="31.7435140" lon="35.1330420">
    <ele>654.1</ele>
    <time>2018-09-22T08:40:40Z</time>
   </trkpt>
   <trkpt lat="31.7435240" lon="35.1330760">
    <ele>654.4</ele>
    <time>2018-09-22T08:40:42Z</time>
   </trkpt>
   <trkpt lat="31.7435300" lon="35.1331130">
    <ele>654.7</ele>
    <time>2018-09-22T08:40:45Z</time>
   </trkpt>
   <trkpt lat="31.7435330" lon="35.1331500">
    <ele>655.0</ele>
    <time>2018-09-22T08:40:47Z</time>
   </trkpt>
   <trkpt lat="31.7435340" lon="35.1331910">
    <ele>655.4</ele>
    <time>2018-09-22T08:40:49Z</time>
   </trkpt>
   <trkpt lat="31.7435340" lon="35.1332290">
    <ele>655.7</ele>
    <time>2018-09-22T08:40:51Z</time>
   </trkpt>
   <trkpt lat="31.7435210" lon="35.1332690">
    <ele>655.9</ele>
    <time>2018-09-22T08:40:53Z</time>
   </trkpt>
   <trkpt lat="31.7435060" lon="35.1332990">
    <ele>656.3</ele>
    <time>2018-09-22T08:40:55Z</time>
   </trkpt>
   <trkpt lat="31.7434850" lon="35.1333320">
    <ele>656.6</ele>
    <time>2018-09-22T08:40:58Z</time>
   </trkpt>
   <trkpt lat="31.7434580" lon="35.1333510">
    <ele>656.9</ele>
    <time>2018-09-22T08:41:00Z</time>
   </trkpt>
   <trkpt lat="31.7434220" lon="35.1333710">
    <ele>657.4</ele>
    <time>2018-09-22T08:41:03Z</time>
   </trkpt>
   <trkpt lat="31.7433830" lon="35.1333710">
    <ele>657.8</ele>
    <time>2018-09-22T08:41:06Z</time>
   </trkpt>
   <trkpt lat="31.7433540" lon="35.1333620">
    <ele>658.2</ele>
    <time>2018-09-22T08:41:08Z</time>
   </trkpt>
   <trkpt lat="31.7433250" lon="35.1333620">
    <ele>658.5</ele>
    <time>2018-09-22T08:41:10Z</time>
   </trkpt>
   <trkpt lat="31.7432960" lon="35.1333590">
    <ele>658.8</ele>
    <time>2018-09-22T08:41:12Z</time>
   </trkpt>
   <trkpt lat="31.7432580" lon="35.1333700">
    <ele>659.2</ele>
    <time>2018-09-22T08:41:14Z</time>
   </trkpt>
   <trkpt lat="31.7432270" lon="35.1333630">
    <ele>659.5</ele>
    <time>2018-09-22T08:41:16Z</time>
   </trkpt>
   <trkpt lat="31.7431910" lon="35.1333520">
    <ele>659.9</ele>
    <time>2018-09-22T08:41:19Z</time>
   </trkpt>
   <trkpt lat="31.7431610" lon="35.1333480">
    <ele>660.1</ele>
    <time>2018-09-22T08:41:21Z</time>
   </trkpt>
   <trkpt lat="31.7431270" lon="35.1333550">
    <ele>660.3</ele>
    <time>2018-09-22T08:41:23Z</time>
   </trkpt>
   <trkpt lat="31.7430960" lon="35.1333560">
    <ele>660.4</ele>
    <time>2018-09-22T08:41:25Z</time>
   </trkpt>
   <trkpt lat="31.7430700" lon="35.1333450">
    <ele>660.6</ele>
    <time>2018-09-22T08:41:27Z</time>
   </trkpt>
   <trkpt lat="31.7430430" lon="35.1333350">
    <ele>660.7</ele>
    <time>2018-09-22T08:41:29Z</time>
   </trkpt>
   <trkpt lat="31.7430080" lon="35.1333410">
    <ele>660.8</ele>
    <time>2018-09-22T08:41:31Z</time>
   </trkpt>
   <trkpt lat="31.7429670" lon="35.1333510">
    <ele>661.0</ele>
    <time>2018-09-22T08:41:33Z</time>
   </trkpt>
   <trkpt lat="31.7429400" lon="35.1333450">
    <ele>661.1</ele>
    <time>2018-09-22T08:41:35Z</time>
   </trkpt>
   <trkpt lat="31.7429070" lon="35.1333560">
    <ele>661.2</ele>
    <time>2018-09-22T08:41:37Z</time>
   </trkpt>
   <trkpt lat="31.7428750" lon="35.1333520">
    <ele>661.3</ele>
    <time>2018-09-22T08:41:39Z</time>
   </trkpt>
   <trkpt lat="31.7428290" lon="35.1333550">
    <ele>661.6</ele>
    <time>2018-09-22T08:41:42Z</time>
   </trkpt>
   <trkpt lat="31.7428020" lon="35.1333550">
    <ele>661.8</ele>
    <time>2018-09-22T08:41:44Z</time>
   </trkpt>
   <trkpt lat="31.7427680" lon="35.1333460">
    <ele>662.1</ele>
    <time>2018-09-22T08:41:46Z</time>
   </trkpt>
   <trkpt lat="31.7427380" lon="35.1333450">
    <ele>662.3</ele>
    <time>2018-09-22T08:41:48Z</time>
   </trkpt>
   <trkpt lat="31.7427080" lon="35.1333370">
    <ele>662.6</ele>
    <time>2018-09-22T08:41:50Z</time>
   </trkpt>
   <trkpt lat="31.7426810" lon="35.1333320">
    <ele>662.9</ele>
    <time>2018-09-22T08:41:52Z</time>
   </trkpt>
   <trkpt lat="31.7426490" lon="35.1333290">
    <ele>663.3</ele>
    <time>2018-09-22T08:41:54Z</time>
   </trkpt>
   <trkpt lat="31.7426110" lon="35.1333300">
    <ele>663.7</ele>
    <time>2018-09-22T08:41:56Z</time>
   </trkpt>
   <trkpt lat="31.7425800" lon="35.1333330">
    <ele>663.9</ele>
    <time>2018-09-22T08:41:58Z</time>
   </trkpt>
   <trkpt lat="31.7425430" lon="35.1333320">
    <ele>664.2</ele>
    <time>2018-09-22T08:42:00Z</time>
   </trkpt>
   <trkpt lat="31.7425130" lon="35.1333320">
    <ele>664.6</ele>
    <time>2018-09-22T08:42:02Z</time>
   </trkpt>
   <trkpt lat="31.7424780" lon="35.1333310">
    <ele>664.9</ele>
    <time>2018-09-22T08:42:04Z</time>
   </trkpt>
   <trkpt lat="31.7424390" lon="35.1333330">
    <ele>665.3</ele>
    <time>2018-09-22T08:42:06Z</time>
   </trkpt>
   <trkpt lat="31.7423880" lon="35.1333310">
    <ele>665.8</ele>
    <time>2018-09-22T08:42:08Z</time>
   </trkpt>
   <trkpt lat="31.7423590" lon="35.1333280">
    <ele>666.1</ele>
    <time>2018-09-22T08:42:10Z</time>
   </trkpt>
   <trkpt lat="31.7423240" lon="35.1333350">
    <ele>666.2</ele>
    <time>2018-09-22T08:42:12Z</time>
   </trkpt>
   <trkpt lat="31.7422940" lon="35.1333300">
    <ele>666.3</ele>
    <time>2018-09-22T08:42:14Z</time>
   </trkpt>
   <trkpt lat="31.7422590" lon="35.1333290">
    <ele>666.4</ele>
    <time>2018-09-22T08:42:16Z</time>
   </trkpt>
   <trkpt lat="31.7422240" lon="35.1333180">
    <ele>666.6</ele>
    <time>2018-09-22T08:42:18Z</time>
   </trkpt>
   <trkpt lat="31.7421900" lon="35.1333090">
    <ele>666.7</ele>
    <time>2018-09-22T08:42:20Z</time>
   </trkpt>
   <trkpt lat="31.7421610" lon="35.1332990">
    <ele>666.8</ele>
    <time>2018-09-22T08:42:22Z</time>
   </trkpt>
   <trkpt lat="31.7421310" lon="35.1332960">
    <ele>666.9</ele>
    <time>2018-09-22T08:42:24Z</time>
   </trkpt>
   <trkpt lat="31.7420950" lon="35.1332890">
    <ele>667.3</ele>
    <time>2018-09-22T08:42:26Z</time>
   </trkpt>
   <trkpt lat="31.7420560" lon="35.1332940">
    <ele>667.6</ele>
    <time>2018-09-22T08:42:28Z</time>
   </trkpt>
   <trkpt lat="31.7420180" lon="35.1332910">
    <ele>668.0</ele>
    <time>2018-09-22T08:42:30Z</time>
   </trkpt>
   <trkpt lat="31.7419850" lon="35.1332850">
    <ele>668.3</ele>
    <time>2018-09-22T08:42:32Z</time>
   </trkpt>
   <trkpt lat="31.7419470" lon="35.1332760">
    <ele>668.6</ele>
    <time>2018-09-22T08:42:34Z</time>
   </trkpt>
   <trkpt lat="31.7419140" lon="35.1332730">
    <ele>668.9</ele>
    <time>2018-09-22T08:42:36Z</time>
   </trkpt>
   <trkpt lat="31.7418850" lon="35.1332610">
    <ele>669.0</ele>
    <time>2018-09-22T08:42:38Z</time>
   </trkpt>
   <trkpt lat="31.7418490" lon="35.1332610">
    <ele>669.2</ele>
    <time>2018-09-22T08:42:40Z</time>
   </trkpt>
   <trkpt lat="31.7418100" lon="35.1332600">
    <ele>669.4</ele>
    <time>2018-09-22T08:42:42Z</time>
   </trkpt>
   <trkpt lat="31.7417690" lon="35.1332470">
    <ele>669.7</ele>
    <time>2018-09-22T08:42:44Z</time>
   </trkpt>
   <trkpt lat="31.7417430" lon="35.1332210">
    <ele>669.9</ele>
    <time>2018-09-22T08:42:46Z</time>
   </trkpt>
   <trkpt lat="31.7417060" lon="35.1332170">
    <ele>670.2</ele>
    <time>2018-09-22T08:42:48Z</time>
   </trkpt>
   <trkpt lat="31.7416760" lon="35.1332130">
    <ele>670.4</ele>
    <time>2018-09-22T08:42:49Z</time>
   </trkpt>
   <trkpt lat="31.7416490" lon="35.1331950">
    <ele>670.8</ele>
    <time>2018-09-22T08:42:51Z</time>
   </trkpt>
   <trkpt lat="31.7416190" lon="35.1331820">
    <ele>671.1</ele>
    <time>2018-09-22T08:42:53Z</time>
   </trkpt>
   <trkpt lat="31.7415870" lon="35.1331630">
    <ele>671.5</ele>
    <time>2018-09-22T08:42:55Z</time>
   </trkpt>
   <trkpt lat="31.7415450" lon="35.1331580">
    <ele>671.9</ele>
    <time>2018-09-22T08:42:57Z</time>
   </trkpt>
   <trkpt lat="31.7414990" lon="35.1331490">
    <ele>672.3</ele>
    <time>2018-09-22T08:42:59Z</time>
   </trkpt>
   <trkpt lat="31.7414590" lon="35.1331450">
    <ele>672.7</ele>
    <time>2018-09-22T08:43:01Z</time>
   </trkpt>
   <trkpt lat="31.7414200" lon="35.1331380">
    <ele>673.2</ele>
    <time>2018-09-22T08:43:03Z</time>
   </trkpt>
   <trkpt lat="31.7413830" lon="35.1331210">
    <ele>673.7</ele>
    <time>2018-09-22T08:43:05Z</time>
   </trkpt>
   <trkpt lat="31.7413440" lon="35.1330950">
    <ele>674.2</ele>
    <time>2018-09-22T08:43:07Z</time>
   </trkpt>
   <trkpt lat="31.7413100" lon="35.1330820">
    <ele>674.6</ele>
    <time>2018-09-22T08:43:09Z</time>
   </trkpt>
   <trkpt lat="31.7412810" lon="35.1330600">
    <ele>674.8</ele>
    <time>2018-09-22T08:43:11Z</time>
   </trkpt>
   <trkpt lat="31.7412500" lon="35.1330410">
    <ele>675.0</ele>
    <time>2018-09-22T08:43:13Z</time>
   </trkpt>
   <trkpt lat="31.7412150" lon="35.1330250">
    <ele>674.8</ele>
    <time>2018-09-22T08:43:15Z</time>
   </trkpt>
   <trkpt lat="31.7411690" lon="35.1330110">
    <ele>674.6</ele>
    <time>2018-09-22T08:43:17Z</time>
   </trkpt>
   <trkpt lat="31.7411390" lon="35.1329900">
    <ele>674.4</ele>
    <time>2018-09-22T08:43:19Z</time>
   </trkpt>
   <trkpt lat="31.7411210" lon="35.1329510">
    <ele>674.2</ele>
    <time>2018-09-22T08:43:21Z</time>
   </trkpt>
   <trkpt lat="31.7410860" lon="35.1329270">
    <ele>673.9</ele>
    <time>2018-09-22T08:43:23Z</time>
   </trkpt>
   <trkpt lat="31.7410610" lon="35.1328940">
    <ele>673.6</ele>
    <time>2018-09-22T08:43:25Z</time>
   </trkpt>
   <trkpt lat="31.7410310" lon="35.1328810">
    <ele>673.3</ele>
    <time>2018-09-22T08:43:27Z</time>
   </trkpt>
   <trkpt lat="31.7410060" lon="35.1328580">
    <ele>673.0</ele>
    <time>2018-09-22T08:43:29Z</time>
   </trkpt>
   <trkpt lat="31.7409790" lon="35.1328310">
    <ele>672.7</ele>
    <time>2018-09-22T08:43:31Z</time>
   </trkpt>
   <trkpt lat="31.7409520" lon="35.1327990">
    <ele>672.6</ele>
    <time>2018-09-22T08:43:33Z</time>
   </trkpt>
   <trkpt lat="31.7409160" lon="35.1327760">
    <ele>672.3</ele>
    <time>2018-09-22T08:43:35Z</time>
   </trkpt>
   <trkpt lat="31.7408910" lon="35.1327460">
    <ele>672.2</ele>
    <time>2018-09-22T08:43:37Z</time>
   </trkpt>
   <trkpt lat="31.7408650" lon="35.1327220">
    <ele>672.0</ele>
    <time>2018-09-22T08:43:39Z</time>
   </trkpt>
   <trkpt lat="31.7408330" lon="35.1327060">
    <ele>671.8</ele>
    <time>2018-09-22T08:43:41Z</time>
   </trkpt>
   <trkpt lat="31.7408090" lon="35.1326820">
    <ele>671.6</ele>
    <time>2018-09-22T08:43:43Z</time>
   </trkpt>
   <trkpt lat="31.7407850" lon="35.1326650">
    <ele>671.4</ele>
    <time>2018-09-22T08:43:45Z</time>
   </trkpt>
   <trkpt lat="31.7407500" lon="35.1326380">
    <ele>671.1</ele>
    <time>2018-09-22T08:43:47Z</time>
   </trkpt>
   <trkpt lat="31.7407270" lon="35.1326170">
    <ele>670.8</ele>
    <time>2018-09-22T08:43:49Z</time>
   </trkpt>
   <trkpt lat="31.7406970" lon="35.1325940">
    <ele>670.6</ele>
    <time>2018-09-22T08:43:51Z</time>
   </trkpt>
   <trkpt lat="31.7406580" lon="35.1325780">
    <ele>670.3</ele>
    <time>2018-09-22T08:43:53Z</time>
   </trkpt>
   <trkpt lat="31.7406240" lon="35.1325600">
    <ele>670.1</ele>
    <time>2018-09-22T08:43:55Z</time>
   </trkpt>
   <trkpt lat="31.7405990" lon="35.1325420">
    <ele>670.0</ele>
    <time>2018-09-22T08:43:57Z</time>
   </trkpt>
   <trkpt lat="31.7405700" lon="35.1325140">
    <ele>670.0</ele>
    <time>2018-09-22T08:43:59Z</time>
   </trkpt>
   <trkpt lat="31.7405440" lon="35.1324890">
    <ele>669.9</ele>
    <time>2018-09-22T08:44:01Z</time>
   </trkpt>
   <trkpt lat="31.7405120" lon="35.1324600">
    <ele>669.8</ele>
    <time>2018-09-22T08:44:03Z</time>
   </trkpt>
   <trkpt lat="31.7404730" lon="35.1324380">
    <ele>669.7</ele>
    <time>2018-09-22T08:44:05Z</time>
   </trkpt>
   <trkpt lat="31.7404330" lon="35.1324160">
    <ele>669.6</ele>
    <time>2018-09-22T08:44:07Z</time>
   </trkpt>
   <trkpt lat="31.7403960" lon="35.1323900">
    <ele>669.5</ele>
    <time>2018-09-22T08:44:09Z</time>
   </trkpt>
   <trkpt lat="31.7403560" lon="35.1323660">
    <ele>669.4</ele>
    <time>2018-09-22T08:44:11Z</time>
   </trkpt>
   <trkpt lat="31.7403090" lon="35.1323440">
    <ele>669.2</ele>
    <time>2018-09-22T08:44:13Z</time>
   </trkpt>
   <trkpt lat="31.7402870" lon="35.1323240">
    <ele>669.0</ele>
    <time>2018-09-22T08:44:14Z</time>
   </trkpt>
   <trkpt lat="31.7402410" lon="35.1323080">
    <ele>668.6</ele>
    <time>2018-09-22T08:44:16Z</time>
   </trkpt>
   <trkpt lat="31.7402100" lon="35.1322960">
    <ele>668.2</ele>
    <time>2018-09-22T08:44:18Z</time>
   </trkpt>
   <trkpt lat="31.7402380" lon="35.1322960">
    <ele>667.0</ele>
    <time>2018-09-22T08:45:05Z</time>
   </trkpt>
   <trkpt lat="31.7402100" lon="35.1322940">
    <ele>667.2</ele>
    <time>2018-09-22T08:45:54Z</time>
   </trkpt>
   <trkpt lat="31.7401820" lon="35.1322880">
    <ele>667.5</ele>
    <time>2018-09-22T08:46:19Z</time>
   </trkpt>
   <trkpt lat="31.7401470" lon="35.1323070">
    <ele>667.8</ele>
    <time>2018-09-22T08:46:21Z</time>
   </trkpt>
   <trkpt lat="31.7401320" lon="35.1323560">
    <ele>668.2</ele>
    <time>2018-09-22T08:46:23Z</time>
   </trkpt>
   <trkpt lat="31.7401460" lon="35.1324040">
    <ele>668.5</ele>
    <time>2018-09-22T08:46:25Z</time>
   </trkpt>
   <trkpt lat="31.7401660" lon="35.1324450">
    <ele>668.9</ele>
    <time>2018-09-22T08:46:27Z</time>
   </trkpt>
   <trkpt lat="31.7401920" lon="35.1324690">
    <ele>669.2</ele>
    <time>2018-09-22T08:46:29Z</time>
   </trkpt>
   <trkpt lat="31.7402270" lon="35.1324930">
    <ele>669.5</ele>
    <time>2018-09-22T08:46:31Z</time>
   </trkpt>
   <trkpt lat="31.7402590" lon="35.1325240">
    <ele>669.9</ele>
    <time>2018-09-22T08:46:33Z</time>
   </trkpt>
   <trkpt lat="31.7402930" lon="35.1325570">
    <ele>670.3</ele>
    <time>2018-09-22T08:46:35Z</time>
   </trkpt>
   <trkpt lat="31.7403140" lon="35.1325870">
    <ele>670.6</ele>
    <time>2018-09-22T08:46:37Z</time>
   </trkpt>
   <trkpt lat="31.7403510" lon="35.1326070">
    <ele>670.9</ele>
    <time>2018-09-22T08:46:39Z</time>
   </trkpt>
   <trkpt lat="31.7403780" lon="35.1326320">
    <ele>671.2</ele>
    <time>2018-09-22T08:46:41Z</time>
   </trkpt>
   <trkpt lat="31.7404090" lon="35.1326570">
    <ele>671.6</ele>
    <time>2018-09-22T08:46:43Z</time>
   </trkpt>
   <trkpt lat="31.7404380" lon="35.1326930">
    <ele>671.9</ele>
    <time>2018-09-22T08:46:45Z</time>
   </trkpt>
   <trkpt lat="31.7404700" lon="35.1327200">
    <ele>672.3</ele>
    <time>2018-09-22T08:46:47Z</time>
   </trkpt>
   <trkpt lat="31.7405050" lon="35.1327530">
    <ele>672.6</ele>
    <time>2018-09-22T08:46:50Z</time>
   </trkpt>
   <trkpt lat="31.7405310" lon="35.1327820">
    <ele>673.0</ele>
    <time>2018-09-22T08:46:52Z</time>
   </trkpt>
   <trkpt lat="31.7405510" lon="35.1328130">
    <ele>673.2</ele>
    <time>2018-09-22T08:46:54Z</time>
   </trkpt>
   <trkpt lat="31.7405820" lon="35.1328400">
    <ele>673.6</ele>
    <time>2018-09-22T08:46:57Z</time>
   </trkpt>
   <trkpt lat="31.7406100" lon="35.1328570">
    <ele>673.9</ele>
    <time>2018-09-22T08:46:59Z</time>
   </trkpt>
   <trkpt lat="31.7406150" lon="35.1328900">
    <ele>674.1</ele>
    <time>2018-09-22T08:47:00Z</time>
   </trkpt>
   <trkpt lat="31.7406480" lon="35.1329110">
    <ele>674.5</ele>
    <time>2018-09-22T08:47:03Z</time>
   </trkpt>
   <trkpt lat="31.7406710" lon="35.1329480">
    <ele>674.8</ele>
    <time>2018-09-22T08:47:05Z</time>
   </trkpt>
   <trkpt lat="31.7406930" lon="35.1329680">
    <ele>675.0</ele>
    <time>2018-09-22T08:47:07Z</time>
   </trkpt>
   <trkpt lat="31.7407230" lon="35.1329930">
    <ele>675.4</ele>
    <time>2018-09-22T08:47:10Z</time>
   </trkpt>
   <trkpt lat="31.7407440" lon="35.1330270">
    <ele>675.7</ele>
    <time>2018-09-22T08:47:12Z</time>
   </trkpt>
   <trkpt lat="31.7407690" lon="35.1330510">
    <ele>676.0</ele>
    <time>2018-09-22T08:47:14Z</time>
   </trkpt>
   <trkpt lat="31.7407920" lon="35.1330810">
    <ele>676.3</ele>
    <time>2018-09-22T08:47:16Z</time>
   </trkpt>
   <trkpt lat="31.7408100" lon="35.1331480">
    <ele>676.9</ele>
    <time>2018-09-22T08:47:18Z</time>
   </trkpt>
   <trkpt lat="31.7408390" lon="35.1331560">
    <ele>677.1</ele>
    <time>2018-09-22T08:47:20Z</time>
   </trkpt>
   <trkpt lat="31.7408530" lon="35.1331850">
    <ele>677.4</ele>
    <time>2018-09-22T08:47:22Z</time>
   </trkpt>
   <trkpt lat="31.7408850" lon="35.1332110">
    <ele>677.8</ele>
    <time>2018-09-22T08:47:25Z</time>
   </trkpt>
   <trkpt lat="31.7409070" lon="35.1332440">
    <ele>678.1</ele>
    <time>2018-09-22T08:47:27Z</time>
   </trkpt>
   <trkpt lat="31.7409270" lon="35.1332820">
    <ele>678.4</ele>
    <time>2018-09-22T08:47:29Z</time>
   </trkpt>
   <trkpt lat="31.7409560" lon="35.1333000">
    <ele>678.7</ele>
    <time>2018-09-22T08:47:32Z</time>
   </trkpt>
   <trkpt lat="31.7409930" lon="35.1333180">
    <ele>679.0</ele>
    <time>2018-09-22T08:47:35Z</time>
   </trkpt>
   <trkpt lat="31.7410150" lon="35.1333450">
    <ele>679.3</ele>
    <time>2018-09-22T08:47:37Z</time>
   </trkpt>
   <trkpt lat="31.7410440" lon="35.1333800">
    <ele>679.7</ele>
    <time>2018-09-22T08:47:40Z</time>
   </trkpt>
   <trkpt lat="31.7410740" lon="35.1334000">
    <ele>679.9</ele>
    <time>2018-09-22T08:47:43Z</time>
   </trkpt>
   <trkpt lat="31.7410950" lon="35.1334310">
    <ele>680.2</ele>
    <time>2018-09-22T08:47:45Z</time>
   </trkpt>
   <trkpt lat="31.7411230" lon="35.1334600">
    <ele>680.5</ele>
    <time>2018-09-22T08:47:47Z</time>
   </trkpt>
   <trkpt lat="31.7411480" lon="35.1334860">
    <ele>680.8</ele>
    <time>2018-09-22T08:47:49Z</time>
   </trkpt>
   <trkpt lat="31.7411700" lon="35.1335190">
    <ele>681.0</ele>
    <time>2018-09-22T08:47:51Z</time>
   </trkpt>
   <trkpt lat="31.7411930" lon="35.1335380">
    <ele>681.3</ele>
    <time>2018-09-22T08:47:53Z</time>
   </trkpt>
   <trkpt lat="31.7412140" lon="35.1335620">
    <ele>681.5</ele>
    <time>2018-09-22T08:47:55Z</time>
   </trkpt>
   <trkpt lat="31.7412400" lon="35.1335970">
    <ele>681.8</ele>
    <time>2018-09-22T08:47:58Z</time>
   </trkpt>
   <trkpt lat="31.7412690" lon="35.1336130">
    <ele>682.0</ele>
    <time>2018-09-22T08:48:00Z</time>
   </trkpt>
   <trkpt lat="31.7412980" lon="35.1336340">
    <ele>682.2</ele>
    <time>2018-09-22T08:48:02Z</time>
   </trkpt>
   <trkpt lat="31.7413180" lon="35.1336630">
    <ele>682.5</ele>
    <time>2018-09-22T08:48:04Z</time>
   </trkpt>
   <trkpt lat="31.7413440" lon="35.1336710">
    <ele>682.7</ele>
    <time>2018-09-22T08:48:06Z</time>
   </trkpt>
   <trkpt lat="31.7413690" lon="35.1336910">
    <ele>682.9</ele>
    <time>2018-09-22T08:48:08Z</time>
   </trkpt>
   <trkpt lat="31.7414040" lon="35.1337030">
    <ele>683.1</ele>
    <time>2018-09-22T08:48:10Z</time>
   </trkpt>
   <trkpt lat="31.7414420" lon="35.1337240">
    <ele>683.4</ele>
    <time>2018-09-22T08:48:13Z</time>
   </trkpt>
   <trkpt lat="31.7414650" lon="35.1337570">
    <ele>683.6</ele>
    <time>2018-09-22T08:48:15Z</time>
   </trkpt>
   <trkpt lat="31.7414940" lon="35.1337610">
    <ele>683.8</ele>
    <time>2018-09-22T08:48:17Z</time>
   </trkpt>
   <trkpt lat="31.7415260" lon="35.1337690">
    <ele>684.0</ele>
    <time>2018-09-22T08:48:19Z</time>
   </trkpt>
   <trkpt lat="31.7415450" lon="35.1338000">
    <ele>684.2</ele>
    <time>2018-09-22T08:48:20Z</time>
   </trkpt>
   <trkpt lat="31.7415750" lon="35.1337940">
    <ele>684.4</ele>
    <time>2018-09-22T08:48:22Z</time>
   </trkpt>
   <trkpt lat="31.7416070" lon="35.1338100">
    <ele>684.7</ele>
    <time>2018-09-22T08:48:24Z</time>
   </trkpt>
   <trkpt lat="31.7416450" lon="35.1338220">
    <ele>685.0</ele>
    <time>2018-09-22T08:48:27Z</time>
   </trkpt>
   <trkpt lat="31.7416790" lon="35.1338250">
    <ele>685.2</ele>
    <time>2018-09-22T08:48:30Z</time>
   </trkpt>
   <trkpt lat="31.7417080" lon="35.1338530">
    <ele>685.5</ele>
    <time>2018-09-22T08:48:33Z</time>
   </trkpt>
   <trkpt lat="31.7417370" lon="35.1338830">
    <ele>685.7</ele>
    <time>2018-09-22T08:48:35Z</time>
   </trkpt>
   <trkpt lat="31.7417770" lon="35.1338680">
    <ele>686.1</ele>
    <time>2018-09-22T08:48:37Z</time>
   </trkpt>
   <trkpt lat="31.7418070" lon="35.1338690">
    <ele>686.3</ele>
    <time>2018-09-22T08:48:38Z</time>
   </trkpt>
   <trkpt lat="31.7418380" lon="35.1339070">
    <ele>686.6</ele>
    <time>2018-09-22T08:48:41Z</time>
   </trkpt>
   <trkpt lat="31.7418750" lon="35.1339390">
    <ele>686.9</ele>
    <time>2018-09-22T08:48:44Z</time>
   </trkpt>
   <trkpt lat="31.7419140" lon="35.1339520">
    <ele>687.2</ele>
    <time>2018-09-22T08:48:47Z</time>
   </trkpt>
   <trkpt lat="31.7419410" lon="35.1339680">
    <ele>687.5</ele>
    <time>2018-09-22T08:48:49Z</time>
   </trkpt>
   <trkpt lat="31.7419710" lon="35.1339760">
    <ele>687.7</ele>
    <time>2018-09-22T08:48:51Z</time>
   </trkpt>
   <trkpt lat="31.7420100" lon="35.1340040">
    <ele>688.0</ele>
    <time>2018-09-22T08:48:53Z</time>
   </trkpt>
   <trkpt lat="31.7420370" lon="35.1340190">
    <ele>688.2</ele>
    <time>2018-09-22T08:48:55Z</time>
   </trkpt>
   <trkpt lat="31.7420640" lon="35.1340400">
    <ele>688.5</ele>
    <time>2018-09-22T08:48:57Z</time>
   </trkpt>
   <trkpt lat="31.7420830" lon="35.1340740">
    <ele>688.7</ele>
    <time>2018-09-22T08:48:59Z</time>
   </trkpt>
   <trkpt lat="31.7421150" lon="35.1340850">
    <ele>688.9</ele>
    <time>2018-09-22T08:49:01Z</time>
   </trkpt>
   <trkpt lat="31.7421430" lon="35.1340940">
    <ele>689.1</ele>
    <time>2018-09-22T08:49:03Z</time>
   </trkpt>
   <trkpt lat="31.7421720" lon="35.1341090">
    <ele>689.3</ele>
    <time>2018-09-22T08:49:05Z</time>
   </trkpt>
   <trkpt lat="31.7422040" lon="35.1341160">
    <ele>689.5</ele>
    <time>2018-09-22T08:49:07Z</time>
   </trkpt>
   <trkpt lat="31.7422340" lon="35.1341290">
    <ele>689.7</ele>
    <time>2018-09-22T08:49:09Z</time>
   </trkpt>
   <trkpt lat="31.7422590" lon="35.1341440">
    <ele>689.8</ele>
    <time>2018-09-22T08:49:11Z</time>
   </trkpt>
   <trkpt lat="31.7422990" lon="35.1341600">
    <ele>690.0</ele>
    <time>2018-09-22T08:49:14Z</time>
   </trkpt>
   <trkpt lat="31.7423270" lon="35.1341720">
    <ele>690.2</ele>
    <time>2018-09-22T08:49:16Z</time>
   </trkpt>
   <trkpt lat="31.7423560" lon="35.1341830">
    <ele>690.3</ele>
    <time>2018-09-22T08:49:18Z</time>
   </trkpt>
   <trkpt lat="31.7423860" lon="35.1341930">
    <ele>690.5</ele>
    <time>2018-09-22T08:49:20Z</time>
   </trkpt>
   <trkpt lat="31.7424240" lon="35.1341890">
    <ele>690.6</ele>
    <time>2018-09-22T08:49:22Z</time>
   </trkpt>
   <trkpt lat="31.7424500" lon="35.1342180">
    <ele>690.8</ele>
    <time>2018-09-22T08:49:24Z</time>
   </trkpt>
   <trkpt lat="31.7424830" lon="35.1342540">
    <ele>691.1</ele>
    <time>2018-09-22T08:49:27Z</time>
   </trkpt>
   <trkpt lat="31.7425060" lon="35.1342820">
    <ele>691.4</ele>
    <time>2018-09-22T08:49:29Z</time>
   </trkpt>
   <trkpt lat="31.7425290" lon="35.1343080">
    <ele>691.6</ele>
    <time>2018-09-22T08:49:31Z</time>
   </trkpt>
   <trkpt lat="31.7425620" lon="35.1343340">
    <ele>691.8</ele>
    <time>2018-09-22T08:49:34Z</time>
   </trkpt>
   <trkpt lat="31.7425970" lon="35.1343410">
    <ele>692.1</ele>
    <time>2018-09-22T08:49:36Z</time>
   </trkpt>
   <trkpt lat="31.7426260" lon="35.1343640">
    <ele>692.3</ele>
    <time>2018-09-22T08:49:38Z</time>
   </trkpt>
   <trkpt lat="31.7426600" lon="35.1343870">
    <ele>692.5</ele>
    <time>2018-09-22T08:49:40Z</time>
   </trkpt>
   <trkpt lat="31.7427020" lon="35.1344020">
    <ele>692.8</ele>
    <time>2018-09-22T08:49:43Z</time>
   </trkpt>
   <trkpt lat="31.7427420" lon="35.1344300">
    <ele>693.1</ele>
    <time>2018-09-22T08:49:46Z</time>
   </trkpt>
   <trkpt lat="31.7427690" lon="35.1344600">
    <ele>693.4</ele>
    <time>2018-09-22T08:49:48Z</time>
   </trkpt>
   <trkpt lat="31.7427950" lon="35.1344790">
    <ele>693.6</ele>
    <time>2018-09-22T08:49:50Z</time>
   </trkpt>
   <trkpt lat="31.7428280" lon="35.1345040">
    <ele>693.8</ele>
    <time>2018-09-22T08:49:53Z</time>
   </trkpt>
   <trkpt lat="31.7428560" lon="35.1345220">
    <ele>694.0</ele>
    <time>2018-09-22T08:49:55Z</time>
   </trkpt>
   <trkpt lat="31.7428840" lon="35.1345440">
    <ele>694.3</ele>
    <time>2018-09-22T08:49:57Z</time>
   </trkpt>
   <trkpt lat="31.7429120" lon="35.1345550">
    <ele>694.5</ele>
    <time>2018-09-22T08:49:59Z</time>
   </trkpt>
   <trkpt lat="31.7429370" lon="35.1345750">
    <ele>694.7</ele>
    <time>2018-09-22T08:50:01Z</time>
   </trkpt>
   <trkpt lat="31.7429660" lon="35.1346040">
    <ele>694.9</ele>
    <time>2018-09-22T08:50:03Z</time>
   </trkpt>
   <trkpt lat="31.7429900" lon="35.1346280">
    <ele>695.1</ele>
    <time>2018-09-22T08:50:05Z</time>
   </trkpt>
   <trkpt lat="31.7430280" lon="35.1346430">
    <ele>695.4</ele>
    <time>2018-09-22T08:50:08Z</time>
   </trkpt>
   <trkpt lat="31.7430570" lon="35.1346680">
    <ele>695.6</ele>
    <time>2018-09-22T08:50:10Z</time>
   </trkpt>
   <trkpt lat="31.7430860" lon="35.1346840">
    <ele>695.8</ele>
    <time>2018-09-22T08:50:12Z</time>
   </trkpt>
   <trkpt lat="31.7431070" lon="35.1347040">
    <ele>696.0</ele>
    <time>2018-09-22T08:50:14Z</time>
   </trkpt>
   <trkpt lat="31.7431410" lon="35.1347220">
    <ele>696.3</ele>
    <time>2018-09-22T08:50:16Z</time>
   </trkpt>
   <trkpt lat="31.7431680" lon="35.1347340">
    <ele>696.4</ele>
    <time>2018-09-22T08:50:18Z</time>
   </trkpt>
   <trkpt lat="31.7432040" lon="35.1347630">
    <ele>696.7</ele>
    <time>2018-09-22T08:50:21Z</time>
   </trkpt>
   <trkpt lat="31.7432250" lon="35.1347890">
    <ele>696.9</ele>
    <time>2018-09-22T08:50:23Z</time>
   </trkpt>
   <trkpt lat="31.7432540" lon="35.1348100">
    <ele>697.1</ele>
    <time>2018-09-22T08:50:25Z</time>
   </trkpt>
   <trkpt lat="31.7432860" lon="35.1348370">
    <ele>697.4</ele>
    <time>2018-09-22T08:50:27Z</time>
   </trkpt>
   <trkpt lat="31.7433180" lon="35.1348420">
    <ele>697.6</ele>
    <time>2018-09-22T08:50:29Z</time>
   </trkpt>
   <trkpt lat="31.7433360" lon="35.1348670">
    <ele>697.8</ele>
    <time>2018-09-22T08:50:31Z</time>
   </trkpt>
   <trkpt lat="31.7433700" lon="35.1348650">
    <ele>698.0</ele>
    <time>2018-09-22T08:50:33Z</time>
   </trkpt>
   <trkpt lat="31.7434020" lon="35.1348980">
    <ele>698.3</ele>
    <time>2018-09-22T08:50:35Z</time>
   </trkpt>
   <trkpt lat="31.7434290" lon="35.1349320">
    <ele>698.5</ele>
    <time>2018-09-22T08:50:37Z</time>
   </trkpt>
   <trkpt lat="31.7434550" lon="35.1349520">
    <ele>698.7</ele>
    <time>2018-09-22T08:50:39Z</time>
   </trkpt>
   <trkpt lat="31.7434760" lon="35.1349970">
    <ele>699.0</ele>
    <time>2018-09-22T08:50:41Z</time>
   </trkpt>
   <trkpt lat="31.7435050" lon="35.1350190">
    <ele>699.3</ele>
    <time>2018-09-22T08:50:43Z</time>
   </trkpt>
   <trkpt lat="31.7435340" lon="35.1350270">
    <ele>699.5</ele>
    <time>2018-09-22T08:50:45Z</time>
   </trkpt>
   <trkpt lat="31.7435700" lon="35.1350570">
    <ele>699.9</ele>
    <time>2018-09-22T08:50:48Z</time>
   </trkpt>
   <trkpt lat="31.7435930" lon="35.1350830">
    <ele>700.3</ele>
    <time>2018-09-22T08:50:50Z</time>
   </trkpt>
   <trkpt lat="31.7436220" lon="35.1350940">
    <ele>700.6</ele>
    <time>2018-09-22T08:50:52Z</time>
   </trkpt>
   <trkpt lat="31.7436490" lon="35.1351110">
    <ele>700.9</ele>
    <time>2018-09-22T08:50:54Z</time>
   </trkpt>
   <trkpt lat="31.7436790" lon="35.1351350">
    <ele>701.3</ele>
    <time>2018-09-22T08:50:57Z</time>
   </trkpt>
   <trkpt lat="31.7437120" lon="35.1351460">
    <ele>701.6</ele>
    <time>2018-09-22T08:50:59Z</time>
   </trkpt>
   <trkpt lat="31.7437410" lon="35.1351710">
    <ele>702.0</ele>
    <time>2018-09-22T08:51:01Z</time>
   </trkpt>
   <trkpt lat="31.7437820" lon="35.1351970">
    <ele>702.5</ele>
    <time>2018-09-22T08:51:03Z</time>
   </trkpt>
   <trkpt lat="31.7438130" lon="35.1352210">
    <ele>702.8</ele>
    <time>2018-09-22T08:51:05Z</time>
   </trkpt>
   <trkpt lat="31.7438460" lon="35.1352380">
    <ele>703.2</ele>
    <time>2018-09-22T08:51:07Z</time>
   </trkpt>
   <trkpt lat="31.7438880" lon="35.1352610">
    <ele>703.7</ele>
    <time>2018-09-22T08:51:09Z</time>
   </trkpt>
   <trkpt lat="31.7439180" lon="35.1352930">
    <ele>704.0</ele>
    <time>2018-09-22T08:51:11Z</time>
   </trkpt>
   <trkpt lat="31.7439520" lon="35.1353030">
    <ele>704.2</ele>
    <time>2018-09-22T08:51:14Z</time>
   </trkpt>
   <trkpt lat="31.7439920" lon="35.1352950">
    <ele>704.5</ele>
    <time>2018-09-22T08:51:16Z</time>
   </trkpt>
   <trkpt lat="31.7440240" lon="35.1353060">
    <ele>704.8</ele>
    <time>2018-09-22T08:51:19Z</time>
   </trkpt>
   <trkpt lat="31.7440550" lon="35.1353270">
    <ele>705.0</ele>
    <time>2018-09-22T08:51:22Z</time>
   </trkpt>
   <trkpt lat="31.7441000" lon="35.1353520">
    <ele>705.4</ele>
    <time>2018-09-22T08:51:25Z</time>
   </trkpt>
   <trkpt lat="31.7441340" lon="35.1353650">
    <ele>705.7</ele>
    <time>2018-09-22T08:51:27Z</time>
   </trkpt>
   <trkpt lat="31.7441660" lon="35.1353490">
    <ele>705.9</ele>
    <time>2018-09-22T08:51:32Z</time>
   </trkpt>
   <trkpt lat="31.7441960" lon="35.1353720">
    <ele>706.2</ele>
    <time>2018-09-22T08:51:34Z</time>
   </trkpt>
   <trkpt lat="31.7442300" lon="35.1353740">
    <ele>706.5</ele>
    <time>2018-09-22T08:51:36Z</time>
   </trkpt>
   <trkpt lat="31.7442750" lon="35.1353970">
    <ele>707.1</ele>
    <time>2018-09-22T08:51:38Z</time>
   </trkpt>
   <trkpt lat="31.7443070" lon="35.1353990">
    <ele>707.4</ele>
    <time>2018-09-22T08:51:40Z</time>
   </trkpt>
   <trkpt lat="31.7443450" lon="35.1354240">
    <ele>708.0</ele>
    <time>2018-09-22T08:51:42Z</time>
   </trkpt>
   <trkpt lat="31.7443880" lon="35.1354220">
    <ele>708.5</ele>
    <time>2018-09-22T08:51:44Z</time>
   </trkpt>
   <trkpt lat="31.7444180" lon="35.1354390">
    <ele>708.9</ele>
    <time>2018-09-22T08:51:45Z</time>
   </trkpt>
   <trkpt lat="31.7444400" lon="35.1354660">
    <ele>709.4</ele>
    <time>2018-09-22T08:51:46Z</time>
   </trkpt>
   <trkpt lat="31.7444790" lon="35.1354870">
    <ele>710.0</ele>
    <time>2018-09-22T08:51:48Z</time>
   </trkpt>
   <trkpt lat="31.7445130" lon="35.1354940">
    <ele>710.4</ele>
    <time>2018-09-22T08:51:50Z</time>
   </trkpt>
   <trkpt lat="31.7445320" lon="35.1355160">
    <ele>710.8</ele>
    <time>2018-09-22T08:51:51Z</time>
   </trkpt>
   <trkpt lat="31.7445710" lon="35.1355200">
    <ele>711.4</ele>
    <time>2018-09-22T08:51:53Z</time>
   </trkpt>
   <trkpt lat="31.7446140" lon="35.1355260">
    <ele>712.1</ele>
    <time>2018-09-22T08:51:55Z</time>
   </trkpt>
   <trkpt lat="31.7446440" lon="35.1355080">
    <ele>712.6</ele>
    <time>2018-09-22T08:51:57Z</time>
   </trkpt>
   <trkpt lat="31.7446820" lon="35.1355390">
    <ele>713.4</ele>
    <time>2018-09-22T08:51:59Z</time>
   </trkpt>
   <trkpt lat="31.7447160" lon="35.1355560">
    <ele>714.0</ele>
    <time>2018-09-22T08:52:01Z</time>
   </trkpt>
   <trkpt lat="31.7447520" lon="35.1355640">
    <ele>714.7</ele>
    <time>2018-09-22T08:52:03Z</time>
   </trkpt>
   <trkpt lat="31.7447830" lon="35.1355840">
    <ele>715.3</ele>
    <time>2018-09-22T08:52:05Z</time>
   </trkpt>
   <trkpt lat="31.7448240" lon="35.1355950">
    <ele>716.0</ele>
    <time>2018-09-22T08:52:07Z</time>
   </trkpt>
   <trkpt lat="31.7448620" lon="35.1356030">
    <ele>716.0</ele>
    <time>2018-09-22T08:52:09Z</time>
   </trkpt>
   <trkpt lat="31.7448970" lon="35.1356240">
    <ele>716.4</ele>
    <time>2018-09-22T08:52:11Z</time>
   </trkpt>
   <trkpt lat="31.7449240" lon="35.1356340">
    <ele>716.9</ele>
    <time>2018-09-22T08:52:12Z</time>
   </trkpt>
   <trkpt lat="31.7449530" lon="35.1356500">
    <ele>717.2</ele>
    <time>2018-09-22T08:52:13Z</time>
   </trkpt>
   <trkpt lat="31.7449910" lon="35.1356600">
    <ele>717.4</ele>
    <time>2018-09-22T08:52:15Z</time>
   </trkpt>
   <trkpt lat="31.7450290" lon="35.1356750">
    <ele>717.4</ele>
    <time>2018-09-22T08:52:17Z</time>
   </trkpt>
   <trkpt lat="31.7450590" lon="35.1356870">
    <ele>717.4</ele>
    <time>2018-09-22T08:52:19Z</time>
   </trkpt>
   <trkpt lat="31.7450980" lon="35.1356870">
    <ele>717.3</ele>
    <time>2018-09-22T08:52:21Z</time>
   </trkpt>
   <trkpt lat="31.7451320" lon="35.1356950">
    <ele>717.2</ele>
    <time>2018-09-22T08:52:23Z</time>
   </trkpt>
   <trkpt lat="31.7451830" lon="35.1356990">
    <ele>717.0</ele>
    <time>2018-09-22T08:52:25Z</time>
   </trkpt>
   <trkpt lat="31.7452100" lon="35.1356960">
    <ele>716.9</ele>
    <time>2018-09-22T08:52:26Z</time>
   </trkpt>
   <trkpt lat="31.7452490" lon="35.1356870">
    <ele>716.7</ele>
    <time>2018-09-22T08:52:28Z</time>
   </trkpt>
   <trkpt lat="31.7452750" lon="35.1356960">
    <ele>716.7</ele>
    <time>2018-09-22T08:52:29Z</time>
   </trkpt>
   <trkpt lat="31.7453290" lon="35.1356990">
    <ele>716.6</ele>
    <time>2018-09-22T08:52:31Z</time>
   </trkpt>
   <trkpt lat="31.7453650" lon="35.1357080">
    <ele>717.0</ele>
    <time>2018-09-22T08:52:32Z</time>
   </trkpt>
   <trkpt lat="31.7454000" lon="35.1357220">
    <ele>717.5</ele>
    <time>2018-09-22T08:52:33Z</time>
   </trkpt>
   <trkpt lat="31.7454380" lon="35.1357110">
    <ele>717.7</ele>
    <time>2018-09-22T08:52:34Z</time>
   </trkpt>
   <trkpt lat="31.7454670" lon="35.1357220">
    <ele>717.7</ele>
    <time>2018-09-22T08:52:35Z</time>
   </trkpt>
   <trkpt lat="31.7454940" lon="35.1357320">
    <ele>717.6</ele>
    <time>2018-09-22T08:52:36Z</time>
   </trkpt>
   <trkpt lat="31.7455220" lon="35.1357340">
    <ele>717.5</ele>
    <time>2018-09-22T08:52:37Z</time>
   </trkpt>
   <trkpt lat="31.7455510" lon="35.1357380">
    <ele>717.5</ele>
    <time>2018-09-22T08:52:38Z</time>
   </trkpt>
   <trkpt lat="31.7455800" lon="35.1357330">
    <ele>717.4</ele>
    <time>2018-09-22T08:52:39Z</time>
   </trkpt>
   <trkpt lat="31.7456050" lon="35.1357630">
    <ele>717.4</ele>
    <time>2018-09-22T08:52:40Z</time>
   </trkpt>
   <trkpt lat="31.7456340" lon="35.1357530">
    <ele>717.4</ele>
    <time>2018-09-22T08:52:41Z</time>
   </trkpt>
   <trkpt lat="31.7456710" lon="35.1357550">
    <ele>717.4</ele>
    <time>2018-09-22T08:52:42Z</time>
   </trkpt>
   <trkpt lat="31.7457050" lon="35.1357540">
    <ele>717.6</ele>
    <time>2018-09-22T08:52:43Z</time>
   </trkpt>
   <trkpt lat="31.7457410" lon="35.1357580">
    <ele>717.7</ele>
    <time>2018-09-22T08:52:44Z</time>
   </trkpt>
   <trkpt lat="31.7457650" lon="35.1357350">
    <ele>717.7</ele>
    <time>2018-09-22T08:52:45Z</time>
   </trkpt>
   <trkpt lat="31.7458000" lon="35.1357460">
    <ele>717.6</ele>
    <time>2018-09-22T08:52:46Z</time>
   </trkpt>
   <trkpt lat="31.7458620" lon="35.1357410">
    <ele>718.2</ele>
    <time>2018-09-22T08:52:48Z</time>
   </trkpt>
   <trkpt lat="31.7459100" lon="35.1357150">
    <ele>719.3</ele>
    <time>2018-09-22T08:52:50Z</time>
   </trkpt>
   <trkpt lat="31.7459380" lon="35.1356830">
    <ele>719.4</ele>
    <time>2018-09-22T08:52:52Z</time>
   </trkpt>
   <trkpt lat="31.7459680" lon="35.1356750">
    <ele>719.5</ele>
    <time>2018-09-22T08:52:53Z</time>
   </trkpt>
   <trkpt lat="31.7460020" lon="35.1356580">
    <ele>720.2</ele>
    <time>2018-09-22T08:52:54Z</time>
   </trkpt>
   <trkpt lat="31.7460190" lon="35.1356240">
    <ele>720.9</ele>
    <time>2018-09-22T08:52:55Z</time>
   </trkpt>
   <trkpt lat="31.7460250" lon="35.1355870">
    <ele>720.8</ele>
    <time>2018-09-22T08:52:56Z</time>
   </trkpt>
   <trkpt lat="31.7460240" lon="35.1355540">
    <ele>720.7</ele>
    <time>2018-09-22T08:52:57Z</time>
   </trkpt>
   <trkpt lat="31.7460190" lon="35.1355200">
    <ele>720.6</ele>
    <time>2018-09-22T08:52:58Z</time>
   </trkpt>
   <trkpt lat="31.7460110" lon="35.1354630">
    <ele>720.2</ele>
    <time>2018-09-22T08:53:00Z</time>
   </trkpt>
   <trkpt lat="31.7459840" lon="35.1353970">
    <ele>719.2</ele>
    <time>2018-09-22T08:53:02Z</time>
   </trkpt>
   <trkpt lat="31.7459630" lon="35.1353540">
    <ele>718.8</ele>
    <time>2018-09-22T08:53:03Z</time>
   </trkpt>
   <trkpt lat="31.7459540" lon="35.1353030">
    <ele>718.6</ele>
    <time>2018-09-22T08:53:04Z</time>
   </trkpt>
   <trkpt lat="31.7459300" lon="35.1352630">
    <ele>718.7</ele>
    <time>2018-09-22T08:53:05Z</time>
   </trkpt>
   <trkpt lat="31.7459160" lon="35.1352240">
    <ele>718.9</ele>
    <time>2018-09-22T08:53:06Z</time>
   </trkpt>
   <trkpt lat="31.7459030" lon="35.1351850">
    <ele>719.0</ele>
    <time>2018-09-22T08:53:07Z</time>
   </trkpt>
   <trkpt lat="31.7458790" lon="35.1351340">
    <ele>719.2</ele>
    <time>2018-09-22T08:53:09Z</time>
   </trkpt>
   <trkpt lat="31.7458580" lon="35.1350800">
    <ele>719.1</ele>
    <time>2018-09-22T08:53:11Z</time>
   </trkpt>
   <trkpt lat="31.7458430" lon="35.1350320">
    <ele>718.8</ele>
    <time>2018-09-22T08:53:13Z</time>
   </trkpt>
   <trkpt lat="31.7458340" lon="35.1349770">
    <ele>718.2</ele>
    <time>2018-09-22T08:53:15Z</time>
   </trkpt>
   <trkpt lat="31.7458060" lon="35.1349130">
    <ele>717.5</ele>
    <time>2018-09-22T08:53:17Z</time>
   </trkpt>
   <trkpt lat="31.7457910" lon="35.1348680">
    <ele>717.0</ele>
    <time>2018-09-22T08:53:18Z</time>
   </trkpt>
   <trkpt lat="31.7457780" lon="35.1348220">
    <ele>716.7</ele>
    <time>2018-09-22T08:53:19Z</time>
   </trkpt>
   <trkpt lat="31.7457700" lon="35.1347800">
    <ele>716.8</ele>
    <time>2018-09-22T08:53:20Z</time>
   </trkpt>
   <trkpt lat="31.7457550" lon="35.1347470">
    <ele>716.9</ele>
    <time>2018-09-22T08:53:21Z</time>
   </trkpt>
   <trkpt lat="31.7457450" lon="35.1347070">
    <ele>716.7</ele>
    <time>2018-09-22T08:53:22Z</time>
   </trkpt>
   <trkpt lat="31.7457360" lon="35.1346580">
    <ele>716.4</ele>
    <time>2018-09-22T08:53:23Z</time>
   </trkpt>
   <trkpt lat="31.7457180" lon="35.1346210">
    <ele>716.5</ele>
    <time>2018-09-22T08:53:24Z</time>
   </trkpt>
   <trkpt lat="31.7457110" lon="35.1345740">
    <ele>716.6</ele>
    <time>2018-09-22T08:53:25Z</time>
   </trkpt>
   <trkpt lat="31.7457050" lon="35.1345380">
    <ele>716.6</ele>
    <time>2018-09-22T08:53:26Z</time>
   </trkpt>
   <trkpt lat="31.7456970" lon="35.1345020">
    <ele>716.4</ele>
    <time>2018-09-22T08:53:27Z</time>
   </trkpt>
   <trkpt lat="31.7456940" lon="35.1344650">
    <ele>716.2</ele>
    <time>2018-09-22T08:53:28Z</time>
   </trkpt>
   <trkpt lat="31.7456820" lon="35.1344290">
    <ele>716.1</ele>
    <time>2018-09-22T08:53:29Z</time>
   </trkpt>
   <trkpt lat="31.7456680" lon="35.1343870">
    <ele>716.0</ele>
    <time>2018-09-22T08:53:30Z</time>
   </trkpt>
   <trkpt lat="31.7456770" lon="35.1343470">
    <ele>716.2</ele>
    <time>2018-09-22T08:53:31Z</time>
   </trkpt>
   <trkpt lat="31.7456760" lon="35.1342960">
    <ele>717.0</ele>
    <time>2018-09-22T08:53:32Z</time>
   </trkpt>
   <trkpt lat="31.7456820" lon="35.1342500">
    <ele>717.8</ele>
    <time>2018-09-22T08:53:33Z</time>
   </trkpt>
   <trkpt lat="31.7456750" lon="35.1341930">
    <ele>718.5</ele>
    <time>2018-09-22T08:53:34Z</time>
   </trkpt>
   <trkpt lat="31.7456690" lon="35.1341460">
    <ele>719.1</ele>
    <time>2018-09-22T08:53:35Z</time>
   </trkpt>
   <trkpt lat="31.7456690" lon="35.1340930">
    <ele>719.4</ele>
    <time>2018-09-22T08:53:36Z</time>
   </trkpt>
   <trkpt lat="31.7456740" lon="35.1340380">
    <ele>719.7</ele>
    <time>2018-09-22T08:53:37Z</time>
   </trkpt>
   <trkpt lat="31.7456700" lon="35.1339780">
    <ele>720.1</ele>
    <time>2018-09-22T08:53:38Z</time>
   </trkpt>
   <trkpt lat="31.7456710" lon="35.1339100">
    <ele>720.3</ele>
    <time>2018-09-22T08:53:39Z</time>
   </trkpt>
   <trkpt lat="31.7456600" lon="35.1338550">
    <ele>720.5</ele>
    <time>2018-09-22T08:53:40Z</time>
   </trkpt>
   <trkpt lat="31.7456830" lon="35.1338020">
    <ele>720.7</ele>
    <time>2018-09-22T08:53:41Z</time>
   </trkpt>
   <trkpt lat="31.7456680" lon="35.1337500">
    <ele>720.9</ele>
    <time>2018-09-22T08:53:42Z</time>
   </trkpt>
   <trkpt lat="31.7456760" lon="35.1336840">
    <ele>721.1</ele>
    <time>2018-09-22T08:53:43Z</time>
   </trkpt>
   <trkpt lat="31.7456850" lon="35.1336330">
    <ele>721.2</ele>
    <time>2018-09-22T08:53:44Z</time>
   </trkpt>
   <trkpt lat="31.7456730" lon="35.1335740">
    <ele>721.4</ele>
    <time>2018-09-22T08:53:45Z</time>
   </trkpt>
   <trkpt lat="31.7456940" lon="35.1335020">
    <ele>722.0</ele>
    <time>2018-09-22T08:53:46Z</time>
   </trkpt>
   <trkpt lat="31.7457460" lon="35.1334090">
    <ele>723.0</ele>
    <time>2018-09-22T08:53:47Z</time>
   </trkpt>
   <trkpt lat="31.7457590" lon="35.1333320">
    <ele>723.8</ele>
    <time>2018-09-22T08:53:48Z</time>
   </trkpt>
   <trkpt lat="31.7457920" lon="35.1332480">
    <ele>724.3</ele>
    <time>2018-09-22T08:53:49Z</time>
   </trkpt>
   <trkpt lat="31.7458210" lon="35.1331660">
    <ele>724.5</ele>
    <time>2018-09-22T08:53:50Z</time>
   </trkpt>
   <trkpt lat="31.7458320" lon="35.1330850">
    <ele>724.8</ele>
    <time>2018-09-22T08:53:51Z</time>
   </trkpt>
   <trkpt lat="31.7458400" lon="35.1330140">
    <ele>725.0</ele>
    <time>2018-09-22T08:53:52Z</time>
   </trkpt>
   <trkpt lat="31.7458490" lon="35.1329370">
    <ele>725.0</ele>
    <time>2018-09-22T08:53:53Z</time>
   </trkpt>
   <trkpt lat="31.7458860" lon="35.1328690">
    <ele>723.4</ele>
    <time>2018-09-22T08:53:54Z</time>
   </trkpt>
   <trkpt lat="31.7459260" lon="35.1328200">
    <ele>722.5</ele>
    <time>2018-09-22T08:53:55Z</time>
   </trkpt>
   <trkpt lat="31.7459550" lon="35.1327960">
    <ele>722.1</ele>
    <time>2018-09-22T08:53:56Z</time>
   </trkpt>
   <trkpt lat="31.7460030" lon="35.1327770">
    <ele>722.1</ele>
    <time>2018-09-22T08:53:58Z</time>
   </trkpt>
   <trkpt lat="31.7460400" lon="35.1327620">
    <ele>722.0</ele>
    <time>2018-09-22T08:54:00Z</time>
   </trkpt>
   <trkpt lat="31.7460750" lon="35.1327620">
    <ele>721.9</ele>
    <time>2018-09-22T08:54:03Z</time>
   </trkpt>
   <trkpt lat="31.7460950" lon="35.1327390">
    <ele>721.7</ele>
    <time>2018-09-22T08:54:09Z</time>
   </trkpt>
   <trkpt lat="31.7461280" lon="35.1327170">
    <ele>721.7</ele>
    <time>2018-09-22T08:54:17Z</time>
   </trkpt>
   <trkpt lat="31.7461590" lon="35.1327190">
    <ele>721.8</ele>
    <time>2018-09-22T08:54:19Z</time>
   </trkpt>
   <trkpt lat="31.7461960" lon="35.1327000">
    <ele>721.9</ele>
    <time>2018-09-22T08:54:22Z</time>
   </trkpt>
   <trkpt lat="31.7462200" lon="35.1326750">
    <ele>722.0</ele>
    <time>2018-09-22T08:54:24Z</time>
   </trkpt>
   <trkpt lat="31.7462630" lon="35.1326540">
    <ele>722.2</ele>
    <time>2018-09-22T08:54:26Z</time>
   </trkpt>
   <trkpt lat="31.7462910" lon="35.1326280">
    <ele>722.3</ele>
    <time>2018-09-22T08:54:28Z</time>
   </trkpt>
   <trkpt lat="31.7463310" lon="35.1326130">
    <ele>722.6</ele>
    <time>2018-09-22T08:54:31Z</time>
   </trkpt>
   <trkpt lat="31.7463470" lon="35.1325840">
    <ele>722.8</ele>
    <time>2018-09-22T08:54:32Z</time>
   </trkpt>
   <trkpt lat="31.7463700" lon="35.1325570">
    <ele>723.0</ele>
    <time>2018-09-22T08:54:36Z</time>
   </trkpt>
   <trkpt lat="31.7464060" lon="35.1325410">
    <ele>723.3</ele>
    <time>2018-09-22T08:54:39Z</time>
   </trkpt>
   <trkpt lat="31.7464480" lon="35.1325060">
    <ele>723.6</ele>
    <time>2018-09-22T08:54:41Z</time>
   </trkpt>
   <trkpt lat="31.7464890" lon="35.1324720">
    <ele>723.9</ele>
    <time>2018-09-22T08:54:43Z</time>
   </trkpt>
   <trkpt lat="31.7465270" lon="35.1324680">
    <ele>724.1</ele>
    <time>2018-09-22T08:54:45Z</time>
   </trkpt>
   <trkpt lat="31.7465760" lon="35.1324550">
    <ele>724.4</ele>
    <time>2018-09-22T08:54:49Z</time>
   </trkpt>
   <trkpt lat="31.7466130" lon="35.1324440">
    <ele>724.7</ele>
    <time>2018-09-22T08:54:51Z</time>
   </trkpt>
   <trkpt lat="31.7466380" lon="35.1324020">
    <ele>724.8</ele>
    <time>2018-09-22T08:54:52Z</time>
   </trkpt>
   <trkpt lat="31.7466690" lon="35.1323680">
    <ele>724.9</ele>
    <time>2018-09-22T08:54:54Z</time>
   </trkpt>
   <trkpt lat="31.7467120" lon="35.1323520">
    <ele>725.3</ele>
    <time>2018-09-22T08:54:56Z</time>
   </trkpt>
   <trkpt lat="31.7467380" lon="35.1323420">
    <ele>725.6</ele>
    <time>2018-09-22T08:54:58Z</time>
   </trkpt>
   <trkpt lat="31.7467510" lon="35.1323730">
    <ele>725.9</ele>
    <time>2018-09-22T08:55:00Z</time>
   </trkpt>
   <trkpt lat="31.7467820" lon="35.1323430">
    <ele>726.1</ele>
    <time>2018-09-22T08:55:01Z</time>
   </trkpt>
   <trkpt lat="31.7468110" lon="35.1323220">
    <ele>726.3</ele>
    <time>2018-09-22T08:55:03Z</time>
   </trkpt>
   <trkpt lat="31.7468390" lon="35.1322910">
    <ele>726.5</ele>
    <time>2018-09-22T08:55:05Z</time>
   </trkpt>
   <trkpt lat="31.7468870" lon="35.1322960">
    <ele>726.8</ele>
    <time>2018-09-22T08:55:07Z</time>
   </trkpt>
   <trkpt lat="31.7469280" lon="35.1322850">
    <ele>727.0</ele>
    <time>2018-09-22T08:55:09Z</time>
   </trkpt>
   <trkpt lat="31.7469650" lon="35.1322880">
    <ele>727.2</ele>
    <time>2018-09-22T08:55:11Z</time>
   </trkpt>
   <trkpt lat="31.7469830" lon="35.1322430">
    <ele>727.3</ele>
    <time>2018-09-22T08:55:14Z</time>
   </trkpt>
   <trkpt lat="31.7470290" lon="35.1322470">
    <ele>727.1</ele>
    <time>2018-09-22T08:55:15Z</time>
   </trkpt>
   <trkpt lat="31.7470800" lon="35.1322410">
    <ele>726.7</ele>
    <time>2018-09-22T08:55:17Z</time>
   </trkpt>
   <trkpt lat="31.7471010" lon="35.1322060">
    <ele>726.3</ele>
    <time>2018-09-22T08:55:20Z</time>
   </trkpt>
   <trkpt lat="31.7471110" lon="35.1321650">
    <ele>726.1</ele>
    <time>2018-09-22T08:55:22Z</time>
   </trkpt>
   <trkpt lat="31.7471450" lon="35.1321660">
    <ele>725.8</ele>
    <time>2018-09-22T08:55:24Z</time>
   </trkpt>
   <trkpt lat="31.7471740" lon="35.1321480">
    <ele>725.5</ele>
    <time>2018-09-22T08:55:25Z</time>
   </trkpt>
   <trkpt lat="31.7472050" lon="35.1321540">
    <ele>725.1</ele>
    <time>2018-09-22T08:55:28Z</time>
   </trkpt>
   <trkpt lat="31.7472270" lon="35.1321350">
    <ele>724.8</ele>
    <time>2018-09-22T08:55:30Z</time>
   </trkpt>
   <trkpt lat="31.7472430" lon="35.1321060">
    <ele>724.5</ele>
    <time>2018-09-22T08:55:32Z</time>
   </trkpt>
   <trkpt lat="31.7472780" lon="35.1320890">
    <ele>723.8</ele>
    <time>2018-09-22T08:55:34Z</time>
   </trkpt>
   <trkpt lat="31.7473150" lon="35.1320780">
    <ele>723.2</ele>
    <time>2018-09-22T08:55:36Z</time>
   </trkpt>
   <trkpt lat="31.7473510" lon="35.1320960">
    <ele>722.5</ele>
    <time>2018-09-22T08:55:37Z</time>
   </trkpt>
   <trkpt lat="31.7473640" lon="35.1321360">
    <ele>721.7</ele>
    <time>2018-09-22T08:55:38Z</time>
   </trkpt>
   <trkpt lat="31.7473880" lon="35.1321580">
    <ele>721.0</ele>
    <time>2018-09-22T08:55:39Z</time>
   </trkpt>
   <trkpt lat="31.7474220" lon="35.1321680">
    <ele>721.0</ele>
    <time>2018-09-22T08:55:40Z</time>
   </trkpt>
   <trkpt lat="31.7474580" lon="35.1321620">
    <ele>721.0</ele>
    <time>2018-09-22T08:55:41Z</time>
   </trkpt>
   <trkpt lat="31.7474900" lon="35.1321740">
    <ele>721.0</ele>
    <time>2018-09-22T08:55:42Z</time>
   </trkpt>
   <trkpt lat="31.7475360" lon="35.1321360">
    <ele>721.0</ele>
    <time>2018-09-22T08:55:44Z</time>
   </trkpt>
   <trkpt lat="31.7475810" lon="35.1321000">
    <ele>720.9</ele>
    <time>2018-09-22T08:55:46Z</time>
   </trkpt>
   <trkpt lat="31.7476020" lon="35.1320770">
    <ele>720.9</ele>
    <time>2018-09-22T08:55:47Z</time>
   </trkpt>
   <trkpt lat="31.7476250" lon="35.1320480">
    <ele>720.9</ele>
    <time>2018-09-22T08:55:48Z</time>
   </trkpt>
   <trkpt lat="31.7476540" lon="35.1320220">
    <ele>720.9</ele>
    <time>2018-09-22T08:55:49Z</time>
   </trkpt>
   <trkpt lat="31.7476830" lon="35.1319940">
    <ele>720.9</ele>
    <time>2018-09-22T08:55:50Z</time>
   </trkpt>
   <trkpt lat="31.7477250" lon="35.1319870">
    <ele>720.9</ele>
    <time>2018-09-22T08:55:51Z</time>
   </trkpt>
   <trkpt lat="31.7477550" lon="35.1319700">
    <ele>720.8</ele>
    <time>2018-09-22T08:55:52Z</time>
   </trkpt>
   <trkpt lat="31.7477950" lon="35.1319290">
    <ele>720.8</ele>
    <time>2018-09-22T08:55:53Z</time>
   </trkpt>
   <trkpt lat="31.7478310" lon="35.1318920">
    <ele>720.8</ele>
    <time>2018-09-22T08:55:54Z</time>
   </trkpt>
   <trkpt lat="31.7478660" lon="35.1318400">
    <ele>720.8</ele>
    <time>2018-09-22T08:55:55Z</time>
   </trkpt>
   <trkpt lat="31.7479140" lon="35.1317930">
    <ele>720.8</ele>
    <time>2018-09-22T08:55:56Z</time>
   </trkpt>
   <trkpt lat="31.7479500" lon="35.1317690">
    <ele>720.8</ele>
    <time>2018-09-22T08:55:57Z</time>
   </trkpt>
   <trkpt lat="31.7479940" lon="35.1317440">
    <ele>720.8</ele>
    <time>2018-09-22T08:55:58Z</time>
   </trkpt>
   <trkpt lat="31.7480540" lon="35.1317340">
    <ele>720.8</ele>
    <time>2018-09-22T08:55:59Z</time>
   </trkpt>
   <trkpt lat="31.7481000" lon="35.1316850">
    <ele>720.8</ele>
    <time>2018-09-22T08:56:00Z</time>
   </trkpt>
   <trkpt lat="31.7481490" lon="35.1316480">
    <ele>720.8</ele>
    <time>2018-09-22T08:56:01Z</time>
   </trkpt>
   <trkpt lat="31.7481590" lon="35.1315850">
    <ele>720.8</ele>
    <time>2018-09-22T08:56:02Z</time>
   </trkpt>
   <trkpt lat="31.7481920" lon="35.1315660">
    <ele>720.8</ele>
    <time>2018-09-22T08:56:03Z</time>
   </trkpt>
   <trkpt lat="31.7482470" lon="35.1314910">
    <ele>720.8</ele>
    <time>2018-09-22T08:56:04Z</time>
   </trkpt>
   <trkpt lat="31.7482940" lon="35.1314590">
    <ele>720.8</ele>
    <time>2018-09-22T08:56:05Z</time>
   </trkpt>
   <trkpt lat="31.7483750" lon="35.1314300">
    <ele>720.8</ele>
    <time>2018-09-22T08:56:06Z</time>
   </trkpt>
   <trkpt lat="31.7484400" lon="35.1313740">
    <ele>720.8</ele>
    <time>2018-09-22T08:56:07Z</time>
   </trkpt>
   <trkpt lat="31.7484860" lon="35.1313500">
    <ele>720.8</ele>
    <time>2018-09-22T08:56:08Z</time>
   </trkpt>
   <trkpt lat="31.7485160" lon="35.1313530">
    <ele>720.8</ele>
    <time>2018-09-22T08:56:09Z</time>
   </trkpt>
   <trkpt lat="31.7485510" lon="35.1313120">
    <ele>720.8</ele>
    <time>2018-09-22T08:56:11Z</time>
   </trkpt>
   <trkpt lat="31.7486740" lon="35.1313730">
    <ele>720.7</ele>
    <time>2018-09-22T08:56:12Z</time>
   </trkpt>
   <trkpt lat="31.7487190" lon="35.1313360">
    <ele>720.7</ele>
    <time>2018-09-22T08:56:13Z</time>
   </trkpt>
   <trkpt lat="31.7486510" lon="35.1313140">
    <ele>720.6</ele>
    <time>2018-09-22T08:56:14Z</time>
   </trkpt>
   <trkpt lat="31.7486810" lon="35.1312200">
    <ele>720.7</ele>
    <time>2018-09-22T08:56:16Z</time>
   </trkpt>
   <trkpt lat="31.7487450" lon="35.1311460">
    <ele>720.7</ele>
    <time>2018-09-22T08:56:17Z</time>
   </trkpt>
   <trkpt lat="31.7488090" lon="35.1311110">
    <ele>720.8</ele>
    <time>2018-09-22T08:56:18Z</time>
   </trkpt>
   <trkpt lat="31.7488600" lon="35.1310820">
    <ele>720.8</ele>
    <time>2018-09-22T08:56:19Z</time>
   </trkpt>
   <trkpt lat="31.7488840" lon="35.1310640">
    <ele>720.9</ele>
    <time>2018-09-22T08:56:20Z</time>
   </trkpt>
   <trkpt lat="31.7489360" lon="35.1310320">
    <ele>720.9</ele>
    <time>2018-09-22T08:56:21Z</time>
   </trkpt>
   <trkpt lat="31.7489730" lon="35.1310390">
    <ele>720.9</ele>
    <time>2018-09-22T08:56:22Z</time>
   </trkpt>
   <trkpt lat="31.7490480" lon="35.1309940">
    <ele>721.0</ele>
    <time>2018-09-22T08:56:23Z</time>
   </trkpt>
   <trkpt lat="31.7490800" lon="35.1309640">
    <ele>721.1</ele>
    <time>2018-09-22T08:56:24Z</time>
   </trkpt>
   <trkpt lat="31.7491170" lon="35.1308830">
    <ele>721.2</ele>
    <time>2018-09-22T08:56:27Z</time>
   </trkpt>
   <trkpt lat="31.7492420" lon="35.1308150">
    <ele>721.3</ele>
    <time>2018-09-22T08:56:28Z</time>
   </trkpt>
   <trkpt lat="31.7492510" lon="35.1307650">
    <ele>721.4</ele>
    <time>2018-09-22T08:56:29Z</time>
   </trkpt>
   <trkpt lat="31.7492700" lon="35.1307350">
    <ele>721.4</ele>
    <time>2018-09-22T08:56:30Z</time>
   </trkpt>
   <trkpt lat="31.7493130" lon="35.1306620">
    <ele>721.6</ele>
    <time>2018-09-22T08:56:31Z</time>
   </trkpt>
   <trkpt lat="31.7493660" lon="35.1306170">
    <ele>721.7</ele>
    <time>2018-09-22T08:56:32Z</time>
   </trkpt>
   <trkpt lat="31.7494070" lon="35.1305750">
    <ele>721.8</ele>
    <time>2018-09-22T08:56:33Z</time>
   </trkpt>
   <trkpt lat="31.7494430" lon="35.1305330">
    <ele>721.9</ele>
    <time>2018-09-22T08:56:34Z</time>
   </trkpt>
   <trkpt lat="31.7494970" lon="35.1304790">
    <ele>722.1</ele>
    <time>2018-09-22T08:56:36Z</time>
   </trkpt>
   <trkpt lat="31.7495340" lon="35.1304340">
    <ele>722.1</ele>
    <time>2018-09-22T08:56:37Z</time>
   </trkpt>
   <trkpt lat="31.7495700" lon="35.1304040">
    <ele>722.2</ele>
    <time>2018-09-22T08:56:38Z</time>
   </trkpt>
   <trkpt lat="31.7496040" lon="35.1303840">
    <ele>722.3</ele>
    <time>2018-09-22T08:56:39Z</time>
   </trkpt>
   <trkpt lat="31.7496410" lon="35.1303410">
    <ele>722.4</ele>
    <time>2018-09-22T08:56:40Z</time>
   </trkpt>
   <trkpt lat="31.7496720" lon="35.1302900">
    <ele>722.5</ele>
    <time>2018-09-22T08:56:41Z</time>
   </trkpt>
   <trkpt lat="31.7496950" lon="35.1302570">
    <ele>722.6</ele>
    <time>2018-09-22T08:56:42Z</time>
   </trkpt>
   <trkpt lat="31.7497290" lon="35.1301810">
    <ele>722.6</ele>
    <time>2018-09-22T08:56:44Z</time>
   </trkpt>
   <trkpt lat="31.7497410" lon="35.1301330">
    <ele>722.7</ele>
    <time>2018-09-22T08:56:45Z</time>
   </trkpt>
   <trkpt lat="31.7497560" lon="35.1300900">
    <ele>722.7</ele>
    <time>2018-09-22T08:56:46Z</time>
   </trkpt>
   <trkpt lat="31.7497710" lon="35.1300360">
    <ele>722.8</ele>
    <time>2018-09-22T08:56:47Z</time>
   </trkpt>
   <trkpt lat="31.7497870" lon="35.1299810">
    <ele>722.8</ele>
    <time>2018-09-22T08:56:48Z</time>
   </trkpt>
   <trkpt lat="31.7497980" lon="35.1299260">
    <ele>722.9</ele>
    <time>2018-09-22T08:56:49Z</time>
   </trkpt>
   <trkpt lat="31.7498110" lon="35.1298660">
    <ele>722.9</ele>
    <time>2018-09-22T08:56:50Z</time>
   </trkpt>
   <trkpt lat="31.7498220" lon="35.1298060">
    <ele>723.0</ele>
    <time>2018-09-22T08:56:51Z</time>
   </trkpt>
   <trkpt lat="31.7498300" lon="35.1297470">
    <ele>723.0</ele>
    <time>2018-09-22T08:56:52Z</time>
   </trkpt>
   <trkpt lat="31.7498420" lon="35.1296910">
    <ele>723.0</ele>
    <time>2018-09-22T08:56:53Z</time>
   </trkpt>
   <trkpt lat="31.7498420" lon="35.1296340">
    <ele>723.1</ele>
    <time>2018-09-22T08:56:54Z</time>
   </trkpt>
   <trkpt lat="31.7498500" lon="35.1295790">
    <ele>723.1</ele>
    <time>2018-09-22T08:56:55Z</time>
   </trkpt>
   <trkpt lat="31.7498630" lon="35.1295230">
    <ele>723.1</ele>
    <time>2018-09-22T08:56:56Z</time>
   </trkpt>
   <trkpt lat="31.7498700" lon="35.1294780">
    <ele>723.1</ele>
    <time>2018-09-22T08:56:57Z</time>
   </trkpt>
   <trkpt lat="31.7498880" lon="35.1294260">
    <ele>723.2</ele>
    <time>2018-09-22T08:56:58Z</time>
   </trkpt>
   <trkpt lat="31.7498960" lon="35.1293730">
    <ele>723.2</ele>
    <time>2018-09-22T08:56:59Z</time>
   </trkpt>
   <trkpt lat="31.7499100" lon="35.1293350">
    <ele>723.2</ele>
    <time>2018-09-22T08:57:00Z</time>
   </trkpt>
   <trkpt lat="31.7499370" lon="35.1292830">
    <ele>723.2</ele>
    <time>2018-09-22T08:57:01Z</time>
   </trkpt>
   <trkpt lat="31.7499610" lon="35.1292350">
    <ele>723.3</ele>
    <time>2018-09-22T08:57:02Z</time>
   </trkpt>
   <trkpt lat="31.7499840" lon="35.1291860">
    <ele>723.3</ele>
    <time>2018-09-22T08:57:03Z</time>
   </trkpt>
   <trkpt lat="31.7500100" lon="35.1291270">
    <ele>723.4</ele>
    <time>2018-09-22T08:57:04Z</time>
   </trkpt>
   <trkpt lat="31.7500330" lon="35.1290670">
    <ele>723.4</ele>
    <time>2018-09-22T08:57:05Z</time>
   </trkpt>
   <trkpt lat="31.7500580" lon="35.1290050">
    <ele>723.5</ele>
    <time>2018-09-22T08:57:06Z</time>
   </trkpt>
   <trkpt lat="31.7500730" lon="35.1289450">
    <ele>723.6</ele>
    <time>2018-09-22T08:57:07Z</time>
   </trkpt>
   <trkpt lat="31.7500850" lon="35.1288990">
    <ele>723.7</ele>
    <time>2018-09-22T08:57:08Z</time>
   </trkpt>
   <trkpt lat="31.7501080" lon="35.1288480">
    <ele>723.8</ele>
    <time>2018-09-22T08:57:09Z</time>
   </trkpt>
   <trkpt lat="31.7501290" lon="35.1287990">
    <ele>723.9</ele>
    <time>2018-09-22T08:57:10Z</time>
   </trkpt>
   <trkpt lat="31.7501530" lon="35.1287540">
    <ele>724.0</ele>
    <time>2018-09-22T08:57:11Z</time>
   </trkpt>
   <trkpt lat="31.7501690" lon="35.1287150">
    <ele>724.1</ele>
    <time>2018-09-22T08:57:12Z</time>
   </trkpt>
   <trkpt lat="31.7501900" lon="35.1286700">
    <ele>724.2</ele>
    <time>2018-09-22T08:57:13Z</time>
   </trkpt>
   <trkpt lat="31.7502090" lon="35.1286270">
    <ele>724.3</ele>
    <time>2018-09-22T08:57:14Z</time>
   </trkpt>
   <trkpt lat="31.7502310" lon="35.1285810">
    <ele>724.3</ele>
    <time>2018-09-22T08:57:15Z</time>
   </trkpt>
   <trkpt lat="31.7502580" lon="35.1285230">
    <ele>724.4</ele>
    <time>2018-09-22T08:57:16Z</time>
   </trkpt>
   <trkpt lat="31.7502720" lon="35.1284810">
    <ele>724.5</ele>
    <time>2018-09-22T08:57:17Z</time>
   </trkpt>
   <trkpt lat="31.7502940" lon="35.1284190">
    <ele>724.6</ele>
    <time>2018-09-22T08:57:18Z</time>
   </trkpt>
   <trkpt lat="31.7503100" lon="35.1283630">
    <ele>724.7</ele>
    <time>2018-09-22T08:57:19Z</time>
   </trkpt>
   <trkpt lat="31.7503290" lon="35.1283000">
    <ele>724.8</ele>
    <time>2018-09-22T08:57:20Z</time>
   </trkpt>
   <trkpt lat="31.7503460" lon="35.1282510">
    <ele>724.8</ele>
    <time>2018-09-22T08:57:21Z</time>
   </trkpt>
   <trkpt lat="31.7503690" lon="35.1281970">
    <ele>724.9</ele>
    <time>2018-09-22T08:57:22Z</time>
   </trkpt>
   <trkpt lat="31.7503850" lon="35.1281430">
    <ele>725.0</ele>
    <time>2018-09-22T08:57:23Z</time>
   </trkpt>
   <trkpt lat="31.7504050" lon="35.1280900">
    <ele>725.1</ele>
    <time>2018-09-22T08:57:24Z</time>
   </trkpt>
   <trkpt lat="31.7504340" lon="35.1280440">
    <ele>725.2</ele>
    <time>2018-09-22T08:57:25Z</time>
   </trkpt>
   <trkpt lat="31.7504520" lon="35.1279950">
    <ele>725.4</ele>
    <time>2018-09-22T08:57:26Z</time>
   </trkpt>
   <trkpt lat="31.7504670" lon="35.1279470">
    <ele>725.5</ele>
    <time>2018-09-22T08:57:27Z</time>
   </trkpt>
   <trkpt lat="31.7504860" lon="35.1278970">
    <ele>725.6</ele>
    <time>2018-09-22T08:57:28Z</time>
   </trkpt>
   <trkpt lat="31.7505030" lon="35.1278460">
    <ele>725.8</ele>
    <time>2018-09-22T08:57:29Z</time>
   </trkpt>
   <trkpt lat="31.7505320" lon="35.1278020">
    <ele>725.9</ele>
    <time>2018-09-22T08:57:30Z</time>
   </trkpt>
   <trkpt lat="31.7505690" lon="35.1277610">
    <ele>726.4</ele>
    <time>2018-09-22T08:57:31Z</time>
   </trkpt>
   <trkpt lat="31.7506100" lon="35.1277330">
    <ele>727.1</ele>
    <time>2018-09-22T08:57:32Z</time>
   </trkpt>
   <trkpt lat="31.7506480" lon="35.1277140">
    <ele>728.5</ele>
    <time>2018-09-22T08:57:33Z</time>
   </trkpt>
   <trkpt lat="31.7506770" lon="35.1277030">
    <ele>729.2</ele>
    <time>2018-09-22T08:57:34Z</time>
   </trkpt>
   <trkpt lat="31.7506990" lon="35.1276740">
    <ele>729.9</ele>
    <time>2018-09-22T08:57:35Z</time>
   </trkpt>
   <trkpt lat="31.7507160" lon="35.1276480">
    <ele>730.5</ele>
    <time>2018-09-22T08:57:36Z</time>
   </trkpt>
   <trkpt lat="31.7507340" lon="35.1276250">
    <ele>731.0</ele>
    <time>2018-09-22T08:57:37Z</time>
   </trkpt>
   <trkpt lat="31.7507630" lon="35.1276060">
    <ele>736.0</ele>
    <time>2018-09-22T08:57:38Z</time>
   </trkpt>
   <trkpt lat="31.7508120" lon="35.1276060">
    <ele>736.0</ele>
    <time>2018-09-22T08:57:40Z</time>
   </trkpt>
   <trkpt lat="31.7508490" lon="35.1276090">
    <ele>736.0</ele>
    <time>2018-09-22T08:57:42Z</time>
   </trkpt>
   <trkpt lat="31.7509170" lon="35.1276200">
    <ele>736.9</ele>
    <time>2018-09-22T08:57:44Z</time>
   </trkpt>
   <trkpt lat="31.7509540" lon="35.1276210">
    <ele>737.3</ele>
    <time>2018-09-22T08:57:46Z</time>
   </trkpt>
   <trkpt lat="31.7509770" lon="35.1276020">
    <ele>737.5</ele>
    <time>2018-09-22T08:57:47Z</time>
   </trkpt>
   <trkpt lat="31.7510010" lon="35.1275730">
    <ele>737.8</ele>
    <time>2018-09-22T08:57:48Z</time>
   </trkpt>
   <trkpt lat="31.7510300" lon="35.1275440">
    <ele>738.2</ele>
    <time>2018-09-22T08:57:49Z</time>
   </trkpt>
   <trkpt lat="31.7510670" lon="35.1275060">
    <ele>738.9</ele>
    <time>2018-09-22T08:57:51Z</time>
   </trkpt>
   <trkpt lat="31.7510990" lon="35.1275180">
    <ele>739.3</ele>
    <time>2018-09-22T08:57:57Z</time>
   </trkpt>
  </trkseg>
 </trk>
</gpx>
